<?xml version="1.0" encoding="UTF-8" standalone="no" ?>
<gpx xmlns="http://www.topografix.com/GPX/1/1" xmlns:xsi="http://www.w3.org/2001/XMLSchema-instance" xsi:schemaLocation="http://www.topografix.com/GPX/1/1 http://www.topografix.com/GPX/1/1/gpx.xsd" version="1.1" creator="VisuGPX - https://www.visugpx.com">
  <metadata>
    <name>Vosges - Pyrénées 81. De Fanjeaux à Mirepoix</name>
    <desc><![CDATA[Trace AlpineQuest 28/05/2026 14:38:21]]></desc>
  </metadata>
  <trk>
    <name><![CDATA[visugpx_9tEjTbbTPb_1]]></name>
    <desc><![CDATA[]]></desc>
    <extensions>
      <line xmlns="http://www.topografix.com/GPX/gpx_style/0/2">
        <color>0000FF</color>
        <opacity>1</opacity>
        <width>4</width>
      </line>
    </extensions>
    <trkseg>
      <trkpt lat="43.18542" lon="2.034">
        <ele>330.2</ele>
        <time>2026-05-28T04:41:09Z</time>
      </trkpt>
      <trkpt lat="43.18539" lon="2.03393">
        <ele>329.7</ele>
        <time>2026-05-28T04:41:14Z</time>
      </trkpt>
      <trkpt lat="43.18539" lon="2.03393">
        <ele>329.7</ele>
        <time>2026-05-28T04:41:19Z</time>
      </trkpt>
      <trkpt lat="43.18537" lon="2.03393">
        <ele>329.7</ele>
        <time>2026-05-28T04:41:25Z</time>
      </trkpt>
      <trkpt lat="43.18537" lon="2.03395">
        <ele>329.9</ele>
        <time>2026-05-28T04:41:30Z</time>
      </trkpt>
      <trkpt lat="43.18536" lon="2.03398">
        <ele>330.1</ele>
        <time>2026-05-28T04:41:35Z</time>
      </trkpt>
      <trkpt lat="43.18535" lon="2.03401">
        <ele>330.3</ele>
        <time>2026-05-28T04:41:40Z</time>
      </trkpt>
      <trkpt lat="43.18535" lon="2.03405">
        <ele>330.7</ele>
        <time>2026-05-28T04:41:45Z</time>
      </trkpt>
      <trkpt lat="43.18538" lon="2.03408">
        <ele>330.9</ele>
        <time>2026-05-28T04:41:50Z</time>
      </trkpt>
      <trkpt lat="43.18538" lon="2.03417">
        <ele>331.6</ele>
        <time>2026-05-28T04:41:55Z</time>
      </trkpt>
      <trkpt lat="43.18539" lon="2.03423">
        <ele>332</ele>
        <time>2026-05-28T04:42:00Z</time>
      </trkpt>
      <trkpt lat="43.18539" lon="2.0343">
        <ele>332.5</ele>
        <time>2026-05-28T04:42:05Z</time>
      </trkpt>
      <trkpt lat="43.18537" lon="2.03433">
        <ele>332.8</ele>
        <time>2026-05-28T04:42:10Z</time>
      </trkpt>
      <trkpt lat="43.18533" lon="2.03437">
        <ele>333.3</ele>
        <time>2026-05-28T04:42:15Z</time>
      </trkpt>
      <trkpt lat="43.1853" lon="2.03438">
        <ele>333.5</ele>
        <time>2026-05-28T04:42:20Z</time>
      </trkpt>
      <trkpt lat="43.18526" lon="2.03439">
        <ele>333.7</ele>
        <time>2026-05-28T04:42:25Z</time>
      </trkpt>
      <trkpt lat="43.18522" lon="2.03441">
        <ele>334</ele>
        <time>2026-05-28T04:42:30Z</time>
      </trkpt>
      <trkpt lat="43.18518" lon="2.03442">
        <ele>334.3</ele>
        <time>2026-05-28T04:42:35Z</time>
      </trkpt>
      <trkpt lat="43.18513" lon="2.03442">
        <ele>334.5</ele>
        <time>2026-05-28T04:42:40Z</time>
      </trkpt>
      <trkpt lat="43.18508" lon="2.03441">
        <ele>334.6</ele>
        <time>2026-05-28T04:42:45Z</time>
      </trkpt>
      <trkpt lat="43.18504" lon="2.0344">
        <ele>334.6</ele>
        <time>2026-05-28T04:42:50Z</time>
      </trkpt>
      <trkpt lat="43.185" lon="2.03437">
        <ele>334.4</ele>
        <time>2026-05-28T04:42:55Z</time>
      </trkpt>
      <trkpt lat="43.18495" lon="2.03435">
        <ele>334.6</ele>
        <time>2026-05-28T04:43:00Z</time>
      </trkpt>
      <trkpt lat="43.1849" lon="2.03434">
        <ele>334.8</ele>
        <time>2026-05-28T04:43:05Z</time>
      </trkpt>
      <trkpt lat="43.18485" lon="2.03437">
        <ele>335.5</ele>
        <time>2026-05-28T04:43:10Z</time>
      </trkpt>
      <trkpt lat="43.18481" lon="2.03441">
        <ele>336.1</ele>
        <time>2026-05-28T04:43:15Z</time>
      </trkpt>
      <trkpt lat="43.18475" lon="2.03443">
        <ele>336.7</ele>
        <time>2026-05-28T04:43:20Z</time>
      </trkpt>
      <trkpt lat="43.18471" lon="2.03442">
        <ele>336.9</ele>
        <time>2026-05-28T04:43:25Z</time>
      </trkpt>
      <trkpt lat="43.18466" lon="2.03437">
        <ele>336.8</ele>
        <time>2026-05-28T04:43:30Z</time>
      </trkpt>
      <trkpt lat="43.18462" lon="2.0344">
        <ele>337.3</ele>
        <time>2026-05-28T04:43:35Z</time>
      </trkpt>
      <trkpt lat="43.18456" lon="2.0344">
        <ele>337.7</ele>
        <time>2026-05-28T04:43:40Z</time>
      </trkpt>
      <trkpt lat="43.18453" lon="2.03436">
        <ele>337.7</ele>
        <time>2026-05-28T04:43:45Z</time>
      </trkpt>
      <trkpt lat="43.18449" lon="2.03432">
        <ele>337.7</ele>
        <time>2026-05-28T04:43:50Z</time>
      </trkpt>
      <trkpt lat="43.18445" lon="2.03431">
        <ele>338</ele>
        <time>2026-05-28T04:43:55Z</time>
      </trkpt>
      <trkpt lat="43.18438" lon="2.03438">
        <ele>338.8</ele>
        <time>2026-05-28T04:44:00Z</time>
      </trkpt>
      <trkpt lat="43.18432" lon="2.03438">
        <ele>339.2</ele>
        <time>2026-05-28T04:44:05Z</time>
      </trkpt>
      <trkpt lat="43.18427" lon="2.03436">
        <ele>339.5</ele>
        <time>2026-05-28T04:44:10Z</time>
      </trkpt>
      <trkpt lat="43.18426" lon="2.03431">
        <ele>339.4</ele>
        <time>2026-05-28T04:44:15Z</time>
      </trkpt>
      <trkpt lat="43.18422" lon="2.03424">
        <ele>339.6</ele>
        <time>2026-05-28T04:44:20Z</time>
      </trkpt>
      <trkpt lat="43.18419" lon="2.0342">
        <ele>339.8</ele>
        <time>2026-05-28T04:44:25Z</time>
      </trkpt>
      <trkpt lat="43.18416" lon="2.03416">
        <ele>340.1</ele>
        <time>2026-05-28T04:44:30Z</time>
      </trkpt>
      <trkpt lat="43.18411" lon="2.03412">
        <ele>340.8</ele>
        <time>2026-05-28T04:44:35Z</time>
      </trkpt>
      <trkpt lat="43.1841" lon="2.03407">
        <ele>340.8</ele>
        <time>2026-05-28T04:44:40Z</time>
      </trkpt>
      <trkpt lat="43.18413" lon="2.03403">
        <ele>340.4</ele>
        <time>2026-05-28T04:44:45Z</time>
      </trkpt>
      <trkpt lat="43.18416" lon="2.03397">
        <ele>339.9</ele>
        <time>2026-05-28T04:44:50Z</time>
      </trkpt>
      <trkpt lat="43.18417" lon="2.03391">
        <ele>339.7</ele>
        <time>2026-05-28T04:44:55Z</time>
      </trkpt>
      <trkpt lat="43.18415" lon="2.03387">
        <ele>339.9</ele>
        <time>2026-05-28T04:45:00Z</time>
      </trkpt>
      <trkpt lat="43.18415" lon="2.03383">
        <ele>339.8</ele>
        <time>2026-05-28T04:45:05Z</time>
      </trkpt>
      <trkpt lat="43.18414" lon="2.03383">
        <ele>340</ele>
        <time>2026-05-28T04:45:10Z</time>
      </trkpt>
      <trkpt lat="43.18414" lon="2.03383">
        <ele>340</ele>
        <time>2026-05-28T04:45:15Z</time>
      </trkpt>
      <trkpt lat="43.18414" lon="2.03383">
        <ele>340</ele>
        <time>2026-05-28T04:45:20Z</time>
      </trkpt>
      <trkpt lat="43.18413" lon="2.03388">
        <ele>340.2</ele>
        <time>2026-05-28T04:45:25Z</time>
      </trkpt>
      <trkpt lat="43.18411" lon="2.03391">
        <ele>340.5</ele>
        <time>2026-05-28T04:45:30Z</time>
      </trkpt>
      <trkpt lat="43.18407" lon="2.03394">
        <ele>341.1</ele>
        <time>2026-05-28T04:45:35Z</time>
      </trkpt>
      <trkpt lat="43.18403" lon="2.03395">
        <ele>341.7</ele>
        <time>2026-05-28T04:45:40Z</time>
      </trkpt>
      <trkpt lat="43.18401" lon="2.03399">
        <ele>342</ele>
        <time>2026-05-28T04:45:45Z</time>
      </trkpt>
      <trkpt lat="43.184" lon="2.03407">
        <ele>342.3</ele>
        <time>2026-05-28T04:45:50Z</time>
      </trkpt>
      <trkpt lat="43.18397" lon="2.03418">
        <ele>342.8</ele>
        <time>2026-05-28T04:45:55Z</time>
      </trkpt>
      <trkpt lat="43.18392" lon="2.03423">
        <ele>343.6</ele>
        <time>2026-05-28T04:46:00Z</time>
      </trkpt>
      <trkpt lat="43.18385" lon="2.03424">
        <ele>344.5</ele>
        <time>2026-05-28T04:46:05Z</time>
      </trkpt>
      <trkpt lat="43.1838" lon="2.03427">
        <ele>345.2</ele>
        <time>2026-05-28T04:46:10Z</time>
      </trkpt>
      <trkpt lat="43.18374" lon="2.03423">
        <ele>346.1</ele>
        <time>2026-05-28T04:46:15Z</time>
      </trkpt>
      <trkpt lat="43.18369" lon="2.03424">
        <ele>346.8</ele>
        <time>2026-05-28T04:46:20Z</time>
      </trkpt>
      <trkpt lat="43.18365" lon="2.03421">
        <ele>347.4</ele>
        <time>2026-05-28T04:46:25Z</time>
      </trkpt>
      <trkpt lat="43.1836" lon="2.03421">
        <ele>348.1</ele>
        <time>2026-05-28T04:46:30Z</time>
      </trkpt>
      <trkpt lat="43.18354" lon="2.03419">
        <ele>349</ele>
        <time>2026-05-28T04:46:35Z</time>
      </trkpt>
      <trkpt lat="43.18348" lon="2.03417">
        <ele>349.9</ele>
        <time>2026-05-28T04:46:40Z</time>
      </trkpt>
      <trkpt lat="43.18342" lon="2.03415">
        <ele>350.7</ele>
        <time>2026-05-28T04:46:45Z</time>
      </trkpt>
      <trkpt lat="43.18335" lon="2.03412">
        <ele>351.6</ele>
        <time>2026-05-28T04:46:50Z</time>
      </trkpt>
      <trkpt lat="43.18329" lon="2.03411">
        <ele>352</ele>
        <time>2026-05-28T04:46:55Z</time>
      </trkpt>
      <trkpt lat="43.18326" lon="2.03414">
        <ele>352.1</ele>
        <time>2026-05-28T04:47:00Z</time>
      </trkpt>
      <trkpt lat="43.18322" lon="2.03418">
        <ele>352.2</ele>
        <time>2026-05-28T04:47:05Z</time>
      </trkpt>
      <trkpt lat="43.18318" lon="2.03417">
        <ele>352.4</ele>
        <time>2026-05-28T04:47:10Z</time>
      </trkpt>
      <trkpt lat="43.18314" lon="2.03414">
        <ele>352.4</ele>
        <time>2026-05-28T04:47:15Z</time>
      </trkpt>
      <trkpt lat="43.1831" lon="2.03408">
        <ele>352.3</ele>
        <time>2026-05-28T04:47:20Z</time>
      </trkpt>
      <trkpt lat="43.18306" lon="2.03406">
        <ele>352.4</ele>
        <time>2026-05-28T04:47:25Z</time>
      </trkpt>
      <trkpt lat="43.18307" lon="2.03408">
        <ele>352.4</ele>
        <time>2026-05-28T04:47:30Z</time>
      </trkpt>
      <trkpt lat="43.18306" lon="2.03409">
        <ele>352.4</ele>
        <time>2026-05-28T04:47:35Z</time>
      </trkpt>
      <trkpt lat="43.18303" lon="2.0341">
        <ele>352.5</ele>
        <time>2026-05-28T04:47:40Z</time>
      </trkpt>
      <trkpt lat="43.18299" lon="2.03411">
        <ele>352.7</ele>
        <time>2026-05-28T04:47:45Z</time>
      </trkpt>
      <trkpt lat="43.18296" lon="2.03411">
        <ele>352.7</ele>
        <time>2026-05-28T04:47:50Z</time>
      </trkpt>
      <trkpt lat="43.18294" lon="2.03411">
        <ele>352.8</ele>
        <time>2026-05-28T04:47:55Z</time>
      </trkpt>
      <trkpt lat="43.18294" lon="2.03412">
        <ele>352.8</ele>
        <time>2026-05-28T04:48:00Z</time>
      </trkpt>
      <trkpt lat="43.18294" lon="2.03412">
        <ele>352.8</ele>
        <time>2026-05-28T04:48:05Z</time>
      </trkpt>
      <trkpt lat="43.18294" lon="2.03412">
        <ele>352.8</ele>
        <time>2026-05-28T04:48:10Z</time>
      </trkpt>
      <trkpt lat="43.18294" lon="2.03412">
        <ele>352.8</ele>
        <time>2026-05-28T04:48:15Z</time>
      </trkpt>
      <trkpt lat="43.18294" lon="2.03412">
        <ele>352.8</ele>
        <time>2026-05-28T04:48:20Z</time>
      </trkpt>
      <trkpt lat="43.18294" lon="2.03412">
        <ele>352.8</ele>
        <time>2026-05-28T04:48:25Z</time>
      </trkpt>
      <trkpt lat="43.18294" lon="2.03412">
        <ele>352.8</ele>
        <time>2026-05-28T04:48:30Z</time>
      </trkpt>
      <trkpt lat="43.18294" lon="2.03412">
        <ele>352.8</ele>
        <time>2026-05-28T04:48:35Z</time>
      </trkpt>
      <trkpt lat="43.18294" lon="2.03412">
        <ele>352.8</ele>
        <time>2026-05-28T04:48:40Z</time>
      </trkpt>
      <trkpt lat="43.18294" lon="2.03412">
        <ele>352.8</ele>
        <time>2026-05-28T04:48:45Z</time>
      </trkpt>
      <trkpt lat="43.18294" lon="2.03412">
        <ele>352.8</ele>
        <time>2026-05-28T04:48:50Z</time>
      </trkpt>
      <trkpt lat="43.18294" lon="2.03412">
        <ele>352.8</ele>
        <time>2026-05-28T04:48:55Z</time>
      </trkpt>
      <trkpt lat="43.18294" lon="2.03412">
        <ele>352.8</ele>
        <time>2026-05-28T04:49:00Z</time>
      </trkpt>
      <trkpt lat="43.18294" lon="2.03412">
        <ele>352.8</ele>
        <time>2026-05-28T04:49:05Z</time>
      </trkpt>
      <trkpt lat="43.18294" lon="2.03412">
        <ele>352.8</ele>
        <time>2026-05-28T04:49:10Z</time>
      </trkpt>
      <trkpt lat="43.18294" lon="2.03412">
        <ele>352.8</ele>
        <time>2026-05-28T04:49:15Z</time>
      </trkpt>
      <trkpt lat="43.18294" lon="2.03412">
        <ele>352.8</ele>
        <time>2026-05-28T04:49:20Z</time>
      </trkpt>
      <trkpt lat="43.18294" lon="2.03412">
        <ele>352.8</ele>
        <time>2026-05-28T04:49:25Z</time>
      </trkpt>
      <trkpt lat="43.18294" lon="2.03412">
        <ele>352.8</ele>
        <time>2026-05-28T04:49:30Z</time>
      </trkpt>
      <trkpt lat="43.18294" lon="2.03412">
        <ele>352.8</ele>
        <time>2026-05-28T04:49:35Z</time>
      </trkpt>
      <trkpt lat="43.18286" lon="2.03415">
        <ele>353.1</ele>
        <time>2026-05-28T04:49:40Z</time>
      </trkpt>
      <trkpt lat="43.18282" lon="2.03415">
        <ele>353.2</ele>
        <time>2026-05-28T04:49:45Z</time>
      </trkpt>
      <trkpt lat="43.18279" lon="2.03416">
        <ele>353.3</ele>
        <time>2026-05-28T04:49:50Z</time>
      </trkpt>
      <trkpt lat="43.18278" lon="2.03415">
        <ele>353.3</ele>
        <time>2026-05-28T04:49:55Z</time>
      </trkpt>
      <trkpt lat="43.18278" lon="2.03415">
        <ele>353.3</ele>
        <time>2026-05-28T04:50:00Z</time>
      </trkpt>
      <trkpt lat="43.18278" lon="2.03415">
        <ele>353.3</ele>
        <time>2026-05-28T04:50:05Z</time>
      </trkpt>
      <trkpt lat="43.18278" lon="2.03415">
        <ele>353.3</ele>
        <time>2026-05-28T04:50:10Z</time>
      </trkpt>
      <trkpt lat="43.18278" lon="2.03415">
        <ele>353.3</ele>
        <time>2026-05-28T04:50:15Z</time>
      </trkpt>
      <trkpt lat="43.18266" lon="2.03417">
        <ele>353.6</ele>
        <time>2026-05-28T04:50:20Z</time>
      </trkpt>
      <trkpt lat="43.18261" lon="2.03414">
        <ele>353.6</ele>
        <time>2026-05-28T04:50:25Z</time>
      </trkpt>
      <trkpt lat="43.1826" lon="2.03412">
        <ele>353.6</ele>
        <time>2026-05-28T04:50:30Z</time>
      </trkpt>
      <trkpt lat="43.1826" lon="2.03412">
        <ele>353.6</ele>
        <time>2026-05-28T04:50:35Z</time>
      </trkpt>
      <trkpt lat="43.1826" lon="2.03412">
        <ele>353.6</ele>
        <time>2026-05-28T04:50:40Z</time>
      </trkpt>
      <trkpt lat="43.1826" lon="2.03412">
        <ele>353.6</ele>
        <time>2026-05-28T04:50:45Z</time>
      </trkpt>
      <trkpt lat="43.1826" lon="2.03412">
        <ele>353.6</ele>
        <time>2026-05-28T04:50:50Z</time>
      </trkpt>
      <trkpt lat="43.1826" lon="2.03412">
        <ele>353.6</ele>
        <time>2026-05-28T04:50:55Z</time>
      </trkpt>
      <trkpt lat="43.1826" lon="2.03412">
        <ele>353.6</ele>
        <time>2026-05-28T04:51:00Z</time>
      </trkpt>
      <trkpt lat="43.1826" lon="2.03412">
        <ele>353.6</ele>
        <time>2026-05-28T04:51:05Z</time>
      </trkpt>
      <trkpt lat="43.1826" lon="2.03412">
        <ele>353.6</ele>
        <time>2026-05-28T04:51:10Z</time>
      </trkpt>
      <trkpt lat="43.1826" lon="2.03412">
        <ele>353.6</ele>
        <time>2026-05-28T04:51:15Z</time>
      </trkpt>
      <trkpt lat="43.1826" lon="2.03412">
        <ele>353.6</ele>
        <time>2026-05-28T04:51:20Z</time>
      </trkpt>
      <trkpt lat="43.18252" lon="2.03409">
        <ele>353.7</ele>
        <time>2026-05-28T04:51:25Z</time>
      </trkpt>
      <trkpt lat="43.18249" lon="2.03408">
        <ele>353.7</ele>
        <time>2026-05-28T04:51:30Z</time>
      </trkpt>
      <trkpt lat="43.18246" lon="2.03408">
        <ele>353.6</ele>
        <time>2026-05-28T04:51:35Z</time>
      </trkpt>
      <trkpt lat="43.18242" lon="2.03407">
        <ele>353.6</ele>
        <time>2026-05-28T04:51:40Z</time>
      </trkpt>
      <trkpt lat="43.18238" lon="2.03407">
        <ele>353.5</ele>
        <time>2026-05-28T04:51:45Z</time>
      </trkpt>
      <trkpt lat="43.18235" lon="2.03405">
        <ele>353.4</ele>
        <time>2026-05-28T04:51:50Z</time>
      </trkpt>
      <trkpt lat="43.18232" lon="2.03404">
        <ele>353.3</ele>
        <time>2026-05-28T04:51:55Z</time>
      </trkpt>
      <trkpt lat="43.18229" lon="2.034">
        <ele>353.1</ele>
        <time>2026-05-28T04:52:00Z</time>
      </trkpt>
      <trkpt lat="43.18225" lon="2.03398">
        <ele>353</ele>
        <time>2026-05-28T04:52:05Z</time>
      </trkpt>
      <trkpt lat="43.18221" lon="2.03395">
        <ele>352.9</ele>
        <time>2026-05-28T04:52:10Z</time>
      </trkpt>
      <trkpt lat="43.18216" lon="2.03394">
        <ele>352.8</ele>
        <time>2026-05-28T04:52:15Z</time>
      </trkpt>
      <trkpt lat="43.18212" lon="2.03392">
        <ele>352.7</ele>
        <time>2026-05-28T04:52:20Z</time>
      </trkpt>
      <trkpt lat="43.1821" lon="2.0339">
        <ele>352.6</ele>
        <time>2026-05-28T04:52:25Z</time>
      </trkpt>
      <trkpt lat="43.1821" lon="2.0339">
        <ele>352.6</ele>
        <time>2026-05-28T04:52:30Z</time>
      </trkpt>
      <trkpt lat="43.1821" lon="2.0339">
        <ele>352.6</ele>
        <time>2026-05-28T04:52:35Z</time>
      </trkpt>
      <trkpt lat="43.1821" lon="2.0339">
        <ele>352.6</ele>
        <time>2026-05-28T04:52:40Z</time>
      </trkpt>
      <trkpt lat="43.1821" lon="2.0339">
        <ele>352.6</ele>
        <time>2026-05-28T04:52:45Z</time>
      </trkpt>
      <trkpt lat="43.18208" lon="2.03388">
        <ele>352.5</ele>
        <time>2026-05-28T04:52:50Z</time>
      </trkpt>
      <trkpt lat="43.18203" lon="2.03387">
        <ele>352.4</ele>
        <time>2026-05-28T04:52:55Z</time>
      </trkpt>
      <trkpt lat="43.18198" lon="2.03385">
        <ele>352.2</ele>
        <time>2026-05-28T04:53:00Z</time>
      </trkpt>
      <trkpt lat="43.18194" lon="2.03383">
        <ele>352.1</ele>
        <time>2026-05-28T04:53:05Z</time>
      </trkpt>
      <trkpt lat="43.18189" lon="2.0338">
        <ele>351.9</ele>
        <time>2026-05-28T04:53:10Z</time>
      </trkpt>
      <trkpt lat="43.18184" lon="2.03377">
        <ele>351.8</ele>
        <time>2026-05-28T04:53:15Z</time>
      </trkpt>
      <trkpt lat="43.18179" lon="2.03374">
        <ele>351.6</ele>
        <time>2026-05-28T04:53:20Z</time>
      </trkpt>
      <trkpt lat="43.18175" lon="2.03372">
        <ele>351.5</ele>
        <time>2026-05-28T04:53:25Z</time>
      </trkpt>
      <trkpt lat="43.1817" lon="2.03369">
        <ele>351.3</ele>
        <time>2026-05-28T04:53:30Z</time>
      </trkpt>
      <trkpt lat="43.18165" lon="2.03366">
        <ele>351.2</ele>
        <time>2026-05-28T04:53:35Z</time>
      </trkpt>
      <trkpt lat="43.1816" lon="2.03364">
        <ele>351.2</ele>
        <time>2026-05-28T04:53:40Z</time>
      </trkpt>
      <trkpt lat="43.18156" lon="2.03361">
        <ele>351.1</ele>
        <time>2026-05-28T04:53:45Z</time>
      </trkpt>
      <trkpt lat="43.18151" lon="2.03358">
        <ele>351</ele>
        <time>2026-05-28T04:53:50Z</time>
      </trkpt>
      <trkpt lat="43.18146" lon="2.03356">
        <ele>351</ele>
        <time>2026-05-28T04:53:55Z</time>
      </trkpt>
      <trkpt lat="43.1814" lon="2.03353">
        <ele>351</ele>
        <time>2026-05-28T04:54:00Z</time>
      </trkpt>
      <trkpt lat="43.18136" lon="2.0335">
        <ele>350.9</ele>
        <time>2026-05-28T04:54:05Z</time>
      </trkpt>
      <trkpt lat="43.18131" lon="2.03347">
        <ele>350.8</ele>
        <time>2026-05-28T04:54:10Z</time>
      </trkpt>
      <trkpt lat="43.18126" lon="2.03345">
        <ele>350.8</ele>
        <time>2026-05-28T04:54:15Z</time>
      </trkpt>
      <trkpt lat="43.1812" lon="2.03343">
        <ele>350.8</ele>
        <time>2026-05-28T04:54:20Z</time>
      </trkpt>
      <trkpt lat="43.18115" lon="2.0334">
        <ele>350.8</ele>
        <time>2026-05-28T04:54:25Z</time>
      </trkpt>
      <trkpt lat="43.18111" lon="2.03338">
        <ele>350.8</ele>
        <time>2026-05-28T04:54:30Z</time>
      </trkpt>
      <trkpt lat="43.18106" lon="2.03335">
        <ele>350.8</ele>
        <time>2026-05-28T04:54:35Z</time>
      </trkpt>
      <trkpt lat="43.18101" lon="2.03331">
        <ele>350.7</ele>
        <time>2026-05-28T04:54:40Z</time>
      </trkpt>
      <trkpt lat="43.18097" lon="2.03325">
        <ele>350.6</ele>
        <time>2026-05-28T04:54:45Z</time>
      </trkpt>
      <trkpt lat="43.18093" lon="2.03319">
        <ele>350.5</ele>
        <time>2026-05-28T04:54:50Z</time>
      </trkpt>
      <trkpt lat="43.18089" lon="2.03312">
        <ele>350.4</ele>
        <time>2026-05-28T04:54:55Z</time>
      </trkpt>
      <trkpt lat="43.18087" lon="2.03307">
        <ele>350.3</ele>
        <time>2026-05-28T04:55:00Z</time>
      </trkpt>
      <trkpt lat="43.18084" lon="2.03302">
        <ele>350.2</ele>
        <time>2026-05-28T04:55:05Z</time>
      </trkpt>
      <trkpt lat="43.18082" lon="2.03296">
        <ele>350.2</ele>
        <time>2026-05-28T04:55:10Z</time>
      </trkpt>
      <trkpt lat="43.1808" lon="2.03289">
        <ele>350.1</ele>
        <time>2026-05-28T04:55:15Z</time>
      </trkpt>
      <trkpt lat="43.18077" lon="2.03284">
        <ele>350.2</ele>
        <time>2026-05-28T04:55:20Z</time>
      </trkpt>
      <trkpt lat="43.18074" lon="2.0328">
        <ele>350.3</ele>
        <time>2026-05-28T04:55:25Z</time>
      </trkpt>
      <trkpt lat="43.18072" lon="2.03277">
        <ele>350.3</ele>
        <time>2026-05-28T04:55:30Z</time>
      </trkpt>
      <trkpt lat="43.18068" lon="2.03273">
        <ele>350.5</ele>
        <time>2026-05-28T04:55:35Z</time>
      </trkpt>
      <trkpt lat="43.18062" lon="2.03269">
        <ele>350.7</ele>
        <time>2026-05-28T04:55:40Z</time>
      </trkpt>
      <trkpt lat="43.18058" lon="2.03267">
        <ele>350.9</ele>
        <time>2026-05-28T04:55:45Z</time>
      </trkpt>
      <trkpt lat="43.18053" lon="2.03265">
        <ele>351.2</ele>
        <time>2026-05-28T04:55:50Z</time>
      </trkpt>
      <trkpt lat="43.18049" lon="2.03263">
        <ele>351.4</ele>
        <time>2026-05-28T04:55:55Z</time>
      </trkpt>
      <trkpt lat="43.18044" lon="2.03262">
        <ele>351.6</ele>
        <time>2026-05-28T04:56:00Z</time>
      </trkpt>
      <trkpt lat="43.1804" lon="2.0326">
        <ele>351.8</ele>
        <time>2026-05-28T04:56:05Z</time>
      </trkpt>
      <trkpt lat="43.18034" lon="2.03259">
        <ele>352.2</ele>
        <time>2026-05-28T04:56:10Z</time>
      </trkpt>
      <trkpt lat="43.18027" lon="2.03259">
        <ele>352.6</ele>
        <time>2026-05-28T04:56:15Z</time>
      </trkpt>
      <trkpt lat="43.18021" lon="2.03256">
        <ele>352.9</ele>
        <time>2026-05-28T04:56:20Z</time>
      </trkpt>
      <trkpt lat="43.18015" lon="2.03254">
        <ele>353.2</ele>
        <time>2026-05-28T04:56:25Z</time>
      </trkpt>
      <trkpt lat="43.1801" lon="2.03252">
        <ele>353.4</ele>
        <time>2026-05-28T04:56:30Z</time>
      </trkpt>
      <trkpt lat="43.18004" lon="2.03251">
        <ele>353.8</ele>
        <time>2026-05-28T04:56:35Z</time>
      </trkpt>
      <trkpt lat="43.17999" lon="2.03249">
        <ele>354</ele>
        <time>2026-05-28T04:56:40Z</time>
      </trkpt>
      <trkpt lat="43.17994" lon="2.03246">
        <ele>354.1</ele>
        <time>2026-05-28T04:56:45Z</time>
      </trkpt>
      <trkpt lat="43.17988" lon="2.03245">
        <ele>354.4</ele>
        <time>2026-05-28T04:56:50Z</time>
      </trkpt>
      <trkpt lat="43.17983" lon="2.03243">
        <ele>354.5</ele>
        <time>2026-05-28T04:56:55Z</time>
      </trkpt>
      <trkpt lat="43.17977" lon="2.0324">
        <ele>354.7</ele>
        <time>2026-05-28T04:57:00Z</time>
      </trkpt>
      <trkpt lat="43.17972" lon="2.03238">
        <ele>354.8</ele>
        <time>2026-05-28T04:57:05Z</time>
      </trkpt>
      <trkpt lat="43.17968" lon="2.03235">
        <ele>354.9</ele>
        <time>2026-05-28T04:57:10Z</time>
      </trkpt>
      <trkpt lat="43.17962" lon="2.03231">
        <ele>354.9</ele>
        <time>2026-05-28T04:57:15Z</time>
      </trkpt>
      <trkpt lat="43.17957" lon="2.03228">
        <ele>355</ele>
        <time>2026-05-28T04:57:20Z</time>
      </trkpt>
      <trkpt lat="43.17953" lon="2.03223">
        <ele>354.9</ele>
        <time>2026-05-28T04:57:25Z</time>
      </trkpt>
      <trkpt lat="43.17948" lon="2.0322">
        <ele>355</ele>
        <time>2026-05-28T04:57:30Z</time>
      </trkpt>
      <trkpt lat="43.17943" lon="2.03216">
        <ele>355</ele>
        <time>2026-05-28T04:57:35Z</time>
      </trkpt>
      <trkpt lat="43.17939" lon="2.03211">
        <ele>354.8</ele>
        <time>2026-05-28T04:57:40Z</time>
      </trkpt>
      <trkpt lat="43.17934" lon="2.03206">
        <ele>354.7</ele>
        <time>2026-05-28T04:57:45Z</time>
      </trkpt>
      <trkpt lat="43.17929" lon="2.03201">
        <ele>354.6</ele>
        <time>2026-05-28T04:57:50Z</time>
      </trkpt>
      <trkpt lat="43.17924" lon="2.03196">
        <ele>354.5</ele>
        <time>2026-05-28T04:57:55Z</time>
      </trkpt>
      <trkpt lat="43.1792" lon="2.03191">
        <ele>354.4</ele>
        <time>2026-05-28T04:58:00Z</time>
      </trkpt>
      <trkpt lat="43.17919" lon="2.03189">
        <ele>354.3</ele>
        <time>2026-05-28T04:58:05Z</time>
      </trkpt>
      <trkpt lat="43.17918" lon="2.03186">
        <ele>354.1</ele>
        <time>2026-05-28T04:58:10Z</time>
      </trkpt>
      <trkpt lat="43.17917" lon="2.03185">
        <ele>354.1</ele>
        <time>2026-05-28T04:58:15Z</time>
      </trkpt>
      <trkpt lat="43.17917" lon="2.03185">
        <ele>354.1</ele>
        <time>2026-05-28T04:58:20Z</time>
      </trkpt>
      <trkpt lat="43.17917" lon="2.03185">
        <ele>354.1</ele>
        <time>2026-05-28T04:58:25Z</time>
      </trkpt>
      <trkpt lat="43.17916" lon="2.03185">
        <ele>354.1</ele>
        <time>2026-05-28T04:58:30Z</time>
      </trkpt>
      <trkpt lat="43.17911" lon="2.03182">
        <ele>353.8</ele>
        <time>2026-05-28T04:58:35Z</time>
      </trkpt>
      <trkpt lat="43.17906" lon="2.03177">
        <ele>353.5</ele>
        <time>2026-05-28T04:58:40Z</time>
      </trkpt>
      <trkpt lat="43.17901" lon="2.03172">
        <ele>353.1</ele>
        <time>2026-05-28T04:58:45Z</time>
      </trkpt>
      <trkpt lat="43.17897" lon="2.03168">
        <ele>352.8</ele>
        <time>2026-05-28T04:58:50Z</time>
      </trkpt>
      <trkpt lat="43.17892" lon="2.03164">
        <ele>352.6</ele>
        <time>2026-05-28T04:58:55Z</time>
      </trkpt>
      <trkpt lat="43.17887" lon="2.03161">
        <ele>352.4</ele>
        <time>2026-05-28T04:59:00Z</time>
      </trkpt>
      <trkpt lat="43.17882" lon="2.03156">
        <ele>352.2</ele>
        <time>2026-05-28T04:59:05Z</time>
      </trkpt>
      <trkpt lat="43.17877" lon="2.03153">
        <ele>352</ele>
        <time>2026-05-28T04:59:10Z</time>
      </trkpt>
      <trkpt lat="43.17872" lon="2.0315">
        <ele>351.9</ele>
        <time>2026-05-28T04:59:15Z</time>
      </trkpt>
      <trkpt lat="43.17867" lon="2.03146">
        <ele>351.7</ele>
        <time>2026-05-28T04:59:20Z</time>
      </trkpt>
      <trkpt lat="43.17862" lon="2.03143">
        <ele>351.5</ele>
        <time>2026-05-28T04:59:25Z</time>
      </trkpt>
      <trkpt lat="43.17857" lon="2.0314">
        <ele>351.3</ele>
        <time>2026-05-28T04:59:30Z</time>
      </trkpt>
      <trkpt lat="43.17851" lon="2.03138">
        <ele>351.2</ele>
        <time>2026-05-28T04:59:35Z</time>
      </trkpt>
      <trkpt lat="43.17846" lon="2.03135">
        <ele>351</ele>
        <time>2026-05-28T04:59:40Z</time>
      </trkpt>
      <trkpt lat="43.1784" lon="2.03132">
        <ele>350.8</ele>
        <time>2026-05-28T04:59:45Z</time>
      </trkpt>
      <trkpt lat="43.17835" lon="2.0313">
        <ele>350.7</ele>
        <time>2026-05-28T04:59:50Z</time>
      </trkpt>
      <trkpt lat="43.1783" lon="2.03128">
        <ele>350.5</ele>
        <time>2026-05-28T04:59:55Z</time>
      </trkpt>
      <trkpt lat="43.17824" lon="2.03125">
        <ele>350.2</ele>
        <time>2026-05-28T05:00:00Z</time>
      </trkpt>
      <trkpt lat="43.17819" lon="2.03123">
        <ele>349.9</ele>
        <time>2026-05-28T05:00:05Z</time>
      </trkpt>
      <trkpt lat="43.17814" lon="2.0312">
        <ele>349.6</ele>
        <time>2026-05-28T05:00:10Z</time>
      </trkpt>
      <trkpt lat="43.17808" lon="2.03117">
        <ele>349.3</ele>
        <time>2026-05-28T05:00:15Z</time>
      </trkpt>
      <trkpt lat="43.17802" lon="2.03114">
        <ele>349</ele>
        <time>2026-05-28T05:00:20Z</time>
      </trkpt>
      <trkpt lat="43.17797" lon="2.0311">
        <ele>348.7</ele>
        <time>2026-05-28T05:00:25Z</time>
      </trkpt>
      <trkpt lat="43.17791" lon="2.03107">
        <ele>348.3</ele>
        <time>2026-05-28T05:00:30Z</time>
      </trkpt>
      <trkpt lat="43.17786" lon="2.03104">
        <ele>348</ele>
        <time>2026-05-28T05:00:35Z</time>
      </trkpt>
      <trkpt lat="43.17781" lon="2.03102">
        <ele>347.8</ele>
        <time>2026-05-28T05:00:40Z</time>
      </trkpt>
      <trkpt lat="43.17776" lon="2.03099">
        <ele>347.5</ele>
        <time>2026-05-28T05:00:45Z</time>
      </trkpt>
      <trkpt lat="43.1777" lon="2.03096">
        <ele>347.2</ele>
        <time>2026-05-28T05:00:50Z</time>
      </trkpt>
      <trkpt lat="43.17765" lon="2.03092">
        <ele>346.9</ele>
        <time>2026-05-28T05:00:55Z</time>
      </trkpt>
      <trkpt lat="43.17761" lon="2.03089">
        <ele>346.6</ele>
        <time>2026-05-28T05:01:00Z</time>
      </trkpt>
      <trkpt lat="43.17758" lon="2.03088">
        <ele>346.5</ele>
        <time>2026-05-28T05:01:05Z</time>
      </trkpt>
      <trkpt lat="43.17753" lon="2.03085">
        <ele>346.2</ele>
        <time>2026-05-28T05:01:10Z</time>
      </trkpt>
      <trkpt lat="43.17748" lon="2.03083">
        <ele>346.1</ele>
        <time>2026-05-28T05:01:15Z</time>
      </trkpt>
      <trkpt lat="43.17742" lon="2.03081">
        <ele>346.5</ele>
        <time>2026-05-28T05:01:20Z</time>
      </trkpt>
      <trkpt lat="43.17736" lon="2.03077">
        <ele>346.8</ele>
        <time>2026-05-28T05:01:25Z</time>
      </trkpt>
      <trkpt lat="43.17731" lon="2.03074">
        <ele>347.1</ele>
        <time>2026-05-28T05:01:30Z</time>
      </trkpt>
      <trkpt lat="43.17725" lon="2.03071">
        <ele>347.4</ele>
        <time>2026-05-28T05:01:35Z</time>
      </trkpt>
      <trkpt lat="43.1772" lon="2.03068">
        <ele>347.7</ele>
        <time>2026-05-28T05:01:40Z</time>
      </trkpt>
      <trkpt lat="43.17715" lon="2.03066">
        <ele>348.1</ele>
        <time>2026-05-28T05:01:45Z</time>
      </trkpt>
      <trkpt lat="43.17713" lon="2.03063">
        <ele>348.2</ele>
        <time>2026-05-28T05:01:50Z</time>
      </trkpt>
      <trkpt lat="43.17713" lon="2.03064">
        <ele>348.2</ele>
        <time>2026-05-28T05:01:55Z</time>
      </trkpt>
      <trkpt lat="43.17713" lon="2.03064">
        <ele>348.2</ele>
        <time>2026-05-28T05:02:00Z</time>
      </trkpt>
      <trkpt lat="43.17713" lon="2.03064">
        <ele>348.2</ele>
        <time>2026-05-28T05:02:05Z</time>
      </trkpt>
      <trkpt lat="43.1771" lon="2.03063">
        <ele>348.4</ele>
        <time>2026-05-28T05:02:10Z</time>
      </trkpt>
      <trkpt lat="43.17705" lon="2.03059">
        <ele>348.7</ele>
        <time>2026-05-28T05:02:15Z</time>
      </trkpt>
      <trkpt lat="43.17701" lon="2.03056">
        <ele>349</ele>
        <time>2026-05-28T05:02:20Z</time>
      </trkpt>
      <trkpt lat="43.177" lon="2.03055">
        <ele>349.1</ele>
        <time>2026-05-28T05:02:25Z</time>
      </trkpt>
      <trkpt lat="43.177" lon="2.03055">
        <ele>349.1</ele>
        <time>2026-05-28T05:02:30Z</time>
      </trkpt>
      <trkpt lat="43.177" lon="2.03055">
        <ele>349.1</ele>
        <time>2026-05-28T05:02:35Z</time>
      </trkpt>
      <trkpt lat="43.177" lon="2.03055">
        <ele>349.1</ele>
        <time>2026-05-28T05:02:40Z</time>
      </trkpt>
      <trkpt lat="43.17695" lon="2.03053">
        <ele>349.4</ele>
        <time>2026-05-28T05:02:45Z</time>
      </trkpt>
      <trkpt lat="43.17692" lon="2.0305">
        <ele>349.6</ele>
        <time>2026-05-28T05:02:50Z</time>
      </trkpt>
      <trkpt lat="43.17687" lon="2.03049">
        <ele>350</ele>
        <time>2026-05-28T05:02:55Z</time>
      </trkpt>
      <trkpt lat="43.17682" lon="2.03047">
        <ele>350.4</ele>
        <time>2026-05-28T05:03:00Z</time>
      </trkpt>
      <trkpt lat="43.17677" lon="2.03044">
        <ele>350.7</ele>
        <time>2026-05-28T05:03:05Z</time>
      </trkpt>
      <trkpt lat="43.17672" lon="2.0304">
        <ele>351.1</ele>
        <time>2026-05-28T05:03:10Z</time>
      </trkpt>
      <trkpt lat="43.17667" lon="2.03038">
        <ele>351.5</ele>
        <time>2026-05-28T05:03:15Z</time>
      </trkpt>
      <trkpt lat="43.17661" lon="2.03035">
        <ele>351.9</ele>
        <time>2026-05-28T05:03:20Z</time>
      </trkpt>
      <trkpt lat="43.17656" lon="2.03032">
        <ele>352.1</ele>
        <time>2026-05-28T05:03:25Z</time>
      </trkpt>
      <trkpt lat="43.17651" lon="2.03029">
        <ele>352.4</ele>
        <time>2026-05-28T05:03:30Z</time>
      </trkpt>
      <trkpt lat="43.17651" lon="2.03029">
        <ele>352.4</ele>
        <time>2026-05-28T05:03:35Z</time>
      </trkpt>
      <trkpt lat="43.17647" lon="2.03029">
        <ele>352.6</ele>
        <time>2026-05-28T05:03:40Z</time>
      </trkpt>
      <trkpt lat="43.17642" lon="2.03025">
        <ele>352.9</ele>
        <time>2026-05-28T05:03:45Z</time>
      </trkpt>
      <trkpt lat="43.17637" lon="2.03021">
        <ele>353.1</ele>
        <time>2026-05-28T05:03:50Z</time>
      </trkpt>
      <trkpt lat="43.17632" lon="2.03019">
        <ele>353.3</ele>
        <time>2026-05-28T05:03:55Z</time>
      </trkpt>
      <trkpt lat="43.17627" lon="2.03017">
        <ele>353.5</ele>
        <time>2026-05-28T05:04:00Z</time>
      </trkpt>
      <trkpt lat="43.17622" lon="2.03015">
        <ele>353.7</ele>
        <time>2026-05-28T05:04:05Z</time>
      </trkpt>
      <trkpt lat="43.17617" lon="2.03013">
        <ele>353.9</ele>
        <time>2026-05-28T05:04:10Z</time>
      </trkpt>
      <trkpt lat="43.17612" lon="2.0301">
        <ele>354.1</ele>
        <time>2026-05-28T05:04:15Z</time>
      </trkpt>
      <trkpt lat="43.17608" lon="2.03008">
        <ele>354.2</ele>
        <time>2026-05-28T05:04:20Z</time>
      </trkpt>
      <trkpt lat="43.17603" lon="2.03006">
        <ele>354.4</ele>
        <time>2026-05-28T05:04:25Z</time>
      </trkpt>
      <trkpt lat="43.17599" lon="2.03003">
        <ele>354.5</ele>
        <time>2026-05-28T05:04:30Z</time>
      </trkpt>
      <trkpt lat="43.17594" lon="2.03001">
        <ele>354.6</ele>
        <time>2026-05-28T05:04:35Z</time>
      </trkpt>
      <trkpt lat="43.17589" lon="2.02999">
        <ele>354.8</ele>
        <time>2026-05-28T05:04:40Z</time>
      </trkpt>
      <trkpt lat="43.17583" lon="2.02996">
        <ele>354.8</ele>
        <time>2026-05-28T05:04:45Z</time>
      </trkpt>
      <trkpt lat="43.17579" lon="2.02993">
        <ele>354.4</ele>
        <time>2026-05-28T05:04:50Z</time>
      </trkpt>
      <trkpt lat="43.17574" lon="2.02991">
        <ele>353.9</ele>
        <time>2026-05-28T05:04:55Z</time>
      </trkpt>
      <trkpt lat="43.17568" lon="2.02989">
        <ele>353.4</ele>
        <time>2026-05-28T05:05:00Z</time>
      </trkpt>
      <trkpt lat="43.17564" lon="2.02987">
        <ele>353</ele>
        <time>2026-05-28T05:05:05Z</time>
      </trkpt>
      <trkpt lat="43.17559" lon="2.02985">
        <ele>352.5</ele>
        <time>2026-05-28T05:05:10Z</time>
      </trkpt>
      <trkpt lat="43.17554" lon="2.02983">
        <ele>352.1</ele>
        <time>2026-05-28T05:05:15Z</time>
      </trkpt>
      <trkpt lat="43.17549" lon="2.02981">
        <ele>351.6</ele>
        <time>2026-05-28T05:05:20Z</time>
      </trkpt>
      <trkpt lat="43.17545" lon="2.02976">
        <ele>351.2</ele>
        <time>2026-05-28T05:05:25Z</time>
      </trkpt>
      <trkpt lat="43.17539" lon="2.02973">
        <ele>350.6</ele>
        <time>2026-05-28T05:05:30Z</time>
      </trkpt>
      <trkpt lat="43.17534" lon="2.02973">
        <ele>350.3</ele>
        <time>2026-05-28T05:05:35Z</time>
      </trkpt>
      <trkpt lat="43.17529" lon="2.0297">
        <ele>349.8</ele>
        <time>2026-05-28T05:05:40Z</time>
      </trkpt>
      <trkpt lat="43.17523" lon="2.02967">
        <ele>349.3</ele>
        <time>2026-05-28T05:05:45Z</time>
      </trkpt>
      <trkpt lat="43.17517" lon="2.02965">
        <ele>348.8</ele>
        <time>2026-05-28T05:05:50Z</time>
      </trkpt>
      <trkpt lat="43.17511" lon="2.02963">
        <ele>348.4</ele>
        <time>2026-05-28T05:05:55Z</time>
      </trkpt>
      <trkpt lat="43.17506" lon="2.02963">
        <ele>348</ele>
        <time>2026-05-28T05:06:00Z</time>
      </trkpt>
      <trkpt lat="43.17499" lon="2.02962">
        <ele>347.5</ele>
        <time>2026-05-28T05:06:05Z</time>
      </trkpt>
      <trkpt lat="43.17495" lon="2.0296">
        <ele>347.2</ele>
        <time>2026-05-28T05:06:10Z</time>
      </trkpt>
      <trkpt lat="43.17493" lon="2.0296">
        <ele>347.1</ele>
        <time>2026-05-28T05:06:15Z</time>
      </trkpt>
      <trkpt lat="43.17488" lon="2.02957">
        <ele>346.8</ele>
        <time>2026-05-28T05:06:20Z</time>
      </trkpt>
      <trkpt lat="43.17482" lon="2.02957">
        <ele>346.4</ele>
        <time>2026-05-28T05:06:25Z</time>
      </trkpt>
      <trkpt lat="43.17476" lon="2.02957">
        <ele>346</ele>
        <time>2026-05-28T05:06:30Z</time>
      </trkpt>
      <trkpt lat="43.17471" lon="2.02956">
        <ele>345.7</ele>
        <time>2026-05-28T05:06:35Z</time>
      </trkpt>
      <trkpt lat="43.17465" lon="2.02955">
        <ele>345.4</ele>
        <time>2026-05-28T05:06:40Z</time>
      </trkpt>
      <trkpt lat="43.1746" lon="2.02954">
        <ele>345</ele>
        <time>2026-05-28T05:06:45Z</time>
      </trkpt>
      <trkpt lat="43.17453" lon="2.02951">
        <ele>344.6</ele>
        <time>2026-05-28T05:06:50Z</time>
      </trkpt>
      <trkpt lat="43.17448" lon="2.02948">
        <ele>344.3</ele>
        <time>2026-05-28T05:06:55Z</time>
      </trkpt>
      <trkpt lat="43.17442" lon="2.02947">
        <ele>343.9</ele>
        <time>2026-05-28T05:07:00Z</time>
      </trkpt>
      <trkpt lat="43.17436" lon="2.02947">
        <ele>343.5</ele>
        <time>2026-05-28T05:07:05Z</time>
      </trkpt>
      <trkpt lat="43.1743" lon="2.02945">
        <ele>343.1</ele>
        <time>2026-05-28T05:07:10Z</time>
      </trkpt>
      <trkpt lat="43.17424" lon="2.02943">
        <ele>342.8</ele>
        <time>2026-05-28T05:07:15Z</time>
      </trkpt>
      <trkpt lat="43.17418" lon="2.0294">
        <ele>342.4</ele>
        <time>2026-05-28T05:07:20Z</time>
      </trkpt>
      <trkpt lat="43.17412" lon="2.02938">
        <ele>341.9</ele>
        <time>2026-05-28T05:07:25Z</time>
      </trkpt>
      <trkpt lat="43.17405" lon="2.02937">
        <ele>341.4</ele>
        <time>2026-05-28T05:07:30Z</time>
      </trkpt>
      <trkpt lat="43.174" lon="2.02935">
        <ele>341.1</ele>
        <time>2026-05-28T05:07:35Z</time>
      </trkpt>
      <trkpt lat="43.17394" lon="2.02934">
        <ele>340.6</ele>
        <time>2026-05-28T05:07:40Z</time>
      </trkpt>
      <trkpt lat="43.17387" lon="2.02932">
        <ele>340.1</ele>
        <time>2026-05-28T05:07:45Z</time>
      </trkpt>
      <trkpt lat="43.17381" lon="2.02931">
        <ele>339.7</ele>
        <time>2026-05-28T05:07:50Z</time>
      </trkpt>
      <trkpt lat="43.17375" lon="2.02928">
        <ele>339.2</ele>
        <time>2026-05-28T05:07:55Z</time>
      </trkpt>
      <trkpt lat="43.17369" lon="2.02927">
        <ele>338.8</ele>
        <time>2026-05-28T05:08:00Z</time>
      </trkpt>
      <trkpt lat="43.17363" lon="2.02926">
        <ele>338.3</ele>
        <time>2026-05-28T05:08:05Z</time>
      </trkpt>
      <trkpt lat="43.17356" lon="2.02923">
        <ele>337.8</ele>
        <time>2026-05-28T05:08:10Z</time>
      </trkpt>
      <trkpt lat="43.17353" lon="2.02922">
        <ele>337.5</ele>
        <time>2026-05-28T05:08:15Z</time>
      </trkpt>
      <trkpt lat="43.17348" lon="2.02921">
        <ele>337.2</ele>
        <time>2026-05-28T05:08:20Z</time>
      </trkpt>
      <trkpt lat="43.17342" lon="2.0292">
        <ele>336.7</ele>
        <time>2026-05-28T05:08:25Z</time>
      </trkpt>
      <trkpt lat="43.17336" lon="2.02918">
        <ele>336.2</ele>
        <time>2026-05-28T05:08:30Z</time>
      </trkpt>
      <trkpt lat="43.1733" lon="2.02917">
        <ele>335.9</ele>
        <time>2026-05-28T05:08:35Z</time>
      </trkpt>
      <trkpt lat="43.17324" lon="2.02915">
        <ele>335.7</ele>
        <time>2026-05-28T05:08:40Z</time>
      </trkpt>
      <trkpt lat="43.17318" lon="2.02914">
        <ele>335.4</ele>
        <time>2026-05-28T05:08:45Z</time>
      </trkpt>
      <trkpt lat="43.17312" lon="2.02913">
        <ele>335.2</ele>
        <time>2026-05-28T05:08:50Z</time>
      </trkpt>
      <trkpt lat="43.17306" lon="2.02912">
        <ele>335</ele>
        <time>2026-05-28T05:08:55Z</time>
      </trkpt>
      <trkpt lat="43.173" lon="2.02909">
        <ele>334.7</ele>
        <time>2026-05-28T05:09:00Z</time>
      </trkpt>
      <trkpt lat="43.17294" lon="2.02907">
        <ele>334.4</ele>
        <time>2026-05-28T05:09:05Z</time>
      </trkpt>
      <trkpt lat="43.17288" lon="2.02904">
        <ele>334.1</ele>
        <time>2026-05-28T05:09:10Z</time>
      </trkpt>
      <trkpt lat="43.17283" lon="2.02901">
        <ele>333.8</ele>
        <time>2026-05-28T05:09:15Z</time>
      </trkpt>
      <trkpt lat="43.17277" lon="2.02898">
        <ele>333.5</ele>
        <time>2026-05-28T05:09:20Z</time>
      </trkpt>
      <trkpt lat="43.17271" lon="2.02895">
        <ele>333.2</ele>
        <time>2026-05-28T05:09:25Z</time>
      </trkpt>
      <trkpt lat="43.17266" lon="2.0289">
        <ele>332.8</ele>
        <time>2026-05-28T05:09:30Z</time>
      </trkpt>
      <trkpt lat="43.17261" lon="2.02887">
        <ele>332.5</ele>
        <time>2026-05-28T05:09:35Z</time>
      </trkpt>
      <trkpt lat="43.17256" lon="2.02884">
        <ele>332.1</ele>
        <time>2026-05-28T05:09:40Z</time>
      </trkpt>
      <trkpt lat="43.17251" lon="2.02878">
        <ele>331.7</ele>
        <time>2026-05-28T05:09:45Z</time>
      </trkpt>
      <trkpt lat="43.17246" lon="2.02873">
        <ele>331.3</ele>
        <time>2026-05-28T05:09:50Z</time>
      </trkpt>
      <trkpt lat="43.17241" lon="2.02867">
        <ele>330.8</ele>
        <time>2026-05-28T05:09:55Z</time>
      </trkpt>
      <trkpt lat="43.17236" lon="2.02861">
        <ele>330.4</ele>
        <time>2026-05-28T05:10:00Z</time>
      </trkpt>
      <trkpt lat="43.1723" lon="2.02856">
        <ele>330</ele>
        <time>2026-05-28T05:10:05Z</time>
      </trkpt>
      <trkpt lat="43.17226" lon="2.02851">
        <ele>329.7</ele>
        <time>2026-05-28T05:10:10Z</time>
      </trkpt>
      <trkpt lat="43.17221" lon="2.02847">
        <ele>329.4</ele>
        <time>2026-05-28T05:10:15Z</time>
      </trkpt>
      <trkpt lat="43.17216" lon="2.02842">
        <ele>329</ele>
        <time>2026-05-28T05:10:20Z</time>
      </trkpt>
      <trkpt lat="43.17211" lon="2.02836">
        <ele>328.7</ele>
        <time>2026-05-28T05:10:25Z</time>
      </trkpt>
      <trkpt lat="43.17206" lon="2.0283">
        <ele>328.4</ele>
        <time>2026-05-28T05:10:30Z</time>
      </trkpt>
      <trkpt lat="43.17203" lon="2.02827">
        <ele>328.4</ele>
        <time>2026-05-28T05:10:35Z</time>
      </trkpt>
      <trkpt lat="43.17201" lon="2.02825">
        <ele>328.3</ele>
        <time>2026-05-28T05:10:40Z</time>
      </trkpt>
      <trkpt lat="43.17196" lon="2.0282">
        <ele>328.2</ele>
        <time>2026-05-28T05:10:45Z</time>
      </trkpt>
      <trkpt lat="43.17191" lon="2.02816">
        <ele>328.1</ele>
        <time>2026-05-28T05:10:50Z</time>
      </trkpt>
      <trkpt lat="43.17187" lon="2.02809">
        <ele>328.1</ele>
        <time>2026-05-28T05:10:55Z</time>
      </trkpt>
      <trkpt lat="43.17181" lon="2.02804">
        <ele>328</ele>
        <time>2026-05-28T05:11:00Z</time>
      </trkpt>
      <trkpt lat="43.17177" lon="2.028">
        <ele>328</ele>
        <time>2026-05-28T05:11:05Z</time>
      </trkpt>
      <trkpt lat="43.17173" lon="2.02796">
        <ele>328</ele>
        <time>2026-05-28T05:11:10Z</time>
      </trkpt>
      <trkpt lat="43.17169" lon="2.02792">
        <ele>328</ele>
        <time>2026-05-28T05:11:15Z</time>
      </trkpt>
      <trkpt lat="43.17164" lon="2.02787">
        <ele>328.2</ele>
        <time>2026-05-28T05:11:20Z</time>
      </trkpt>
      <trkpt lat="43.17159" lon="2.02782">
        <ele>328.5</ele>
        <time>2026-05-28T05:11:25Z</time>
      </trkpt>
      <trkpt lat="43.17154" lon="2.02778">
        <ele>328.8</ele>
        <time>2026-05-28T05:11:30Z</time>
      </trkpt>
      <trkpt lat="43.17148" lon="2.02773">
        <ele>329.1</ele>
        <time>2026-05-28T05:11:35Z</time>
      </trkpt>
      <trkpt lat="43.17143" lon="2.02768">
        <ele>329.4</ele>
        <time>2026-05-28T05:11:40Z</time>
      </trkpt>
      <trkpt lat="43.17138" lon="2.02763">
        <ele>329.7</ele>
        <time>2026-05-28T05:11:45Z</time>
      </trkpt>
      <trkpt lat="43.17133" lon="2.02758">
        <ele>330</ele>
        <time>2026-05-28T05:11:50Z</time>
      </trkpt>
      <trkpt lat="43.17128" lon="2.02753">
        <ele>330.3</ele>
        <time>2026-05-28T05:11:55Z</time>
      </trkpt>
      <trkpt lat="43.17123" lon="2.02749">
        <ele>330.6</ele>
        <time>2026-05-28T05:12:00Z</time>
      </trkpt>
      <trkpt lat="43.17118" lon="2.02744">
        <ele>330.9</ele>
        <time>2026-05-28T05:12:05Z</time>
      </trkpt>
      <trkpt lat="43.17114" lon="2.0274">
        <ele>331.2</ele>
        <time>2026-05-28T05:12:10Z</time>
      </trkpt>
      <trkpt lat="43.17109" lon="2.02735">
        <ele>331.6</ele>
        <time>2026-05-28T05:12:15Z</time>
      </trkpt>
      <trkpt lat="43.17104" lon="2.02731">
        <ele>331.9</ele>
        <time>2026-05-28T05:12:20Z</time>
      </trkpt>
      <trkpt lat="43.17099" lon="2.02727">
        <ele>332.3</ele>
        <time>2026-05-28T05:12:25Z</time>
      </trkpt>
      <trkpt lat="43.17094" lon="2.02724">
        <ele>332.7</ele>
        <time>2026-05-28T05:12:30Z</time>
      </trkpt>
      <trkpt lat="43.17089" lon="2.0272">
        <ele>333.1</ele>
        <time>2026-05-28T05:12:35Z</time>
      </trkpt>
      <trkpt lat="43.17087" lon="2.02718">
        <ele>333.3</ele>
        <time>2026-05-28T05:12:40Z</time>
      </trkpt>
      <trkpt lat="43.17083" lon="2.02714">
        <ele>333.8</ele>
        <time>2026-05-28T05:12:45Z</time>
      </trkpt>
      <trkpt lat="43.17079" lon="2.02711">
        <ele>334.2</ele>
        <time>2026-05-28T05:12:50Z</time>
      </trkpt>
      <trkpt lat="43.17074" lon="2.02707">
        <ele>334.7</ele>
        <time>2026-05-28T05:12:55Z</time>
      </trkpt>
      <trkpt lat="43.1707" lon="2.02703">
        <ele>335.2</ele>
        <time>2026-05-28T05:13:00Z</time>
      </trkpt>
      <trkpt lat="43.17065" lon="2.027">
        <ele>335.7</ele>
        <time>2026-05-28T05:13:05Z</time>
      </trkpt>
      <trkpt lat="43.17061" lon="2.02696">
        <ele>336.2</ele>
        <time>2026-05-28T05:13:10Z</time>
      </trkpt>
      <trkpt lat="43.17057" lon="2.02692">
        <ele>336.7</ele>
        <time>2026-05-28T05:13:15Z</time>
      </trkpt>
      <trkpt lat="43.17054" lon="2.02689">
        <ele>337</ele>
        <time>2026-05-28T05:13:20Z</time>
      </trkpt>
      <trkpt lat="43.1705" lon="2.02686">
        <ele>337.5</ele>
        <time>2026-05-28T05:13:25Z</time>
      </trkpt>
      <trkpt lat="43.17048" lon="2.02685">
        <ele>337.7</ele>
        <time>2026-05-28T05:13:30Z</time>
      </trkpt>
      <trkpt lat="43.17046" lon="2.02682">
        <ele>338</ele>
        <time>2026-05-28T05:13:35Z</time>
      </trkpt>
      <trkpt lat="43.17042" lon="2.02679">
        <ele>338.4</ele>
        <time>2026-05-28T05:13:40Z</time>
      </trkpt>
      <trkpt lat="43.17038" lon="2.02676">
        <ele>338.8</ele>
        <time>2026-05-28T05:13:45Z</time>
      </trkpt>
      <trkpt lat="43.17033" lon="2.02672">
        <ele>339.4</ele>
        <time>2026-05-28T05:13:50Z</time>
      </trkpt>
      <trkpt lat="43.17029" lon="2.02668">
        <ele>339.8</ele>
        <time>2026-05-28T05:13:55Z</time>
      </trkpt>
      <trkpt lat="43.17024" lon="2.02665">
        <ele>340.3</ele>
        <time>2026-05-28T05:14:00Z</time>
      </trkpt>
      <trkpt lat="43.1702" lon="2.02661">
        <ele>340.7</ele>
        <time>2026-05-28T05:14:05Z</time>
      </trkpt>
      <trkpt lat="43.17015" lon="2.02658">
        <ele>341.2</ele>
        <time>2026-05-28T05:14:10Z</time>
      </trkpt>
      <trkpt lat="43.17011" lon="2.02655">
        <ele>341.6</ele>
        <time>2026-05-28T05:14:15Z</time>
      </trkpt>
      <trkpt lat="43.17007" lon="2.0265">
        <ele>342.1</ele>
        <time>2026-05-28T05:14:20Z</time>
      </trkpt>
      <trkpt lat="43.17002" lon="2.02647">
        <ele>342.6</ele>
        <time>2026-05-28T05:14:25Z</time>
      </trkpt>
      <trkpt lat="43.16998" lon="2.02644">
        <ele>343</ele>
        <time>2026-05-28T05:14:30Z</time>
      </trkpt>
      <trkpt lat="43.16993" lon="2.02641">
        <ele>343.6</ele>
        <time>2026-05-28T05:14:35Z</time>
      </trkpt>
      <trkpt lat="43.16989" lon="2.02637">
        <ele>344.1</ele>
        <time>2026-05-28T05:14:40Z</time>
      </trkpt>
      <trkpt lat="43.16984" lon="2.02633">
        <ele>344.7</ele>
        <time>2026-05-28T05:14:45Z</time>
      </trkpt>
      <trkpt lat="43.1698" lon="2.02629">
        <ele>345.3</ele>
        <time>2026-05-28T05:14:50Z</time>
      </trkpt>
      <trkpt lat="43.16975" lon="2.02625">
        <ele>345.9</ele>
        <time>2026-05-28T05:14:55Z</time>
      </trkpt>
      <trkpt lat="43.1697" lon="2.02621">
        <ele>346.5</ele>
        <time>2026-05-28T05:15:00Z</time>
      </trkpt>
      <trkpt lat="43.16966" lon="2.02618">
        <ele>347</ele>
        <time>2026-05-28T05:15:05Z</time>
      </trkpt>
      <trkpt lat="43.16963" lon="2.02616">
        <ele>347.4</ele>
        <time>2026-05-28T05:15:10Z</time>
      </trkpt>
      <trkpt lat="43.16959" lon="2.02613">
        <ele>347.9</ele>
        <time>2026-05-28T05:15:15Z</time>
      </trkpt>
      <trkpt lat="43.16954" lon="2.02609">
        <ele>348.5</ele>
        <time>2026-05-28T05:15:20Z</time>
      </trkpt>
      <trkpt lat="43.16949" lon="2.02605">
        <ele>349.1</ele>
        <time>2026-05-28T05:15:25Z</time>
      </trkpt>
      <trkpt lat="43.16945" lon="2.02602">
        <ele>349.6</ele>
        <time>2026-05-28T05:15:30Z</time>
      </trkpt>
      <trkpt lat="43.1694" lon="2.02598">
        <ele>350.2</ele>
        <time>2026-05-28T05:15:35Z</time>
      </trkpt>
      <trkpt lat="43.16935" lon="2.02593">
        <ele>350.9</ele>
        <time>2026-05-28T05:15:40Z</time>
      </trkpt>
      <trkpt lat="43.16929" lon="2.02588">
        <ele>351.6</ele>
        <time>2026-05-28T05:15:45Z</time>
      </trkpt>
      <trkpt lat="43.16924" lon="2.02584">
        <ele>352.3</ele>
        <time>2026-05-28T05:15:50Z</time>
      </trkpt>
      <trkpt lat="43.16919" lon="2.0258">
        <ele>352.8</ele>
        <time>2026-05-28T05:15:55Z</time>
      </trkpt>
      <trkpt lat="43.16916" lon="2.02577">
        <ele>353.1</ele>
        <time>2026-05-28T05:16:00Z</time>
      </trkpt>
      <trkpt lat="43.16913" lon="2.02576">
        <ele>353.4</ele>
        <time>2026-05-28T05:16:05Z</time>
      </trkpt>
      <trkpt lat="43.16908" lon="2.02572">
        <ele>353.8</ele>
        <time>2026-05-28T05:16:10Z</time>
      </trkpt>
      <trkpt lat="43.16904" lon="2.02568">
        <ele>354.2</ele>
        <time>2026-05-28T05:16:15Z</time>
      </trkpt>
      <trkpt lat="43.16899" lon="2.02564">
        <ele>354.6</ele>
        <time>2026-05-28T05:16:20Z</time>
      </trkpt>
      <trkpt lat="43.16894" lon="2.0256">
        <ele>355</ele>
        <time>2026-05-28T05:16:25Z</time>
      </trkpt>
      <trkpt lat="43.1689" lon="2.02556">
        <ele>355.3</ele>
        <time>2026-05-28T05:16:30Z</time>
      </trkpt>
      <trkpt lat="43.16885" lon="2.02553">
        <ele>355.6</ele>
        <time>2026-05-28T05:16:35Z</time>
      </trkpt>
      <trkpt lat="43.1688" lon="2.0255">
        <ele>356</ele>
        <time>2026-05-28T05:16:40Z</time>
      </trkpt>
      <trkpt lat="43.16877" lon="2.02546">
        <ele>356.1</ele>
        <time>2026-05-28T05:16:45Z</time>
      </trkpt>
      <trkpt lat="43.16872" lon="2.02543">
        <ele>356.5</ele>
        <time>2026-05-28T05:16:50Z</time>
      </trkpt>
      <trkpt lat="43.16868" lon="2.0254">
        <ele>356.7</ele>
        <time>2026-05-28T05:16:55Z</time>
      </trkpt>
      <trkpt lat="43.16864" lon="2.02537">
        <ele>356.9</ele>
        <time>2026-05-28T05:17:00Z</time>
      </trkpt>
      <trkpt lat="43.1686" lon="2.02534">
        <ele>357.1</ele>
        <time>2026-05-28T05:17:05Z</time>
      </trkpt>
      <trkpt lat="43.16855" lon="2.0253">
        <ele>357.4</ele>
        <time>2026-05-28T05:17:10Z</time>
      </trkpt>
      <trkpt lat="43.16851" lon="2.02526">
        <ele>357.6</ele>
        <time>2026-05-28T05:17:15Z</time>
      </trkpt>
      <trkpt lat="43.16848" lon="2.02523">
        <ele>357.7</ele>
        <time>2026-05-28T05:17:20Z</time>
      </trkpt>
      <trkpt lat="43.16844" lon="2.02519">
        <ele>357.9</ele>
        <time>2026-05-28T05:17:25Z</time>
      </trkpt>
      <trkpt lat="43.16839" lon="2.02517">
        <ele>358.1</ele>
        <time>2026-05-28T05:17:30Z</time>
      </trkpt>
      <trkpt lat="43.16834" lon="2.02514">
        <ele>358.3</ele>
        <time>2026-05-28T05:17:35Z</time>
      </trkpt>
      <trkpt lat="43.16829" lon="2.02512">
        <ele>358.6</ele>
        <time>2026-05-28T05:17:40Z</time>
      </trkpt>
      <trkpt lat="43.16823" lon="2.0251">
        <ele>359</ele>
        <time>2026-05-28T05:17:45Z</time>
      </trkpt>
      <trkpt lat="43.16818" lon="2.02508">
        <ele>359.3</ele>
        <time>2026-05-28T05:17:50Z</time>
      </trkpt>
      <trkpt lat="43.16814" lon="2.02502">
        <ele>359.4</ele>
        <time>2026-05-28T05:17:55Z</time>
      </trkpt>
      <trkpt lat="43.1681" lon="2.02498">
        <ele>359.7</ele>
        <time>2026-05-28T05:18:00Z</time>
      </trkpt>
      <trkpt lat="43.16805" lon="2.02495">
        <ele>360</ele>
        <time>2026-05-28T05:18:05Z</time>
      </trkpt>
      <trkpt lat="43.168" lon="2.02491">
        <ele>360.3</ele>
        <time>2026-05-28T05:18:10Z</time>
      </trkpt>
      <trkpt lat="43.16795" lon="2.02487">
        <ele>360.7</ele>
        <time>2026-05-28T05:18:15Z</time>
      </trkpt>
      <trkpt lat="43.16791" lon="2.02484">
        <ele>361</ele>
        <time>2026-05-28T05:18:20Z</time>
      </trkpt>
      <trkpt lat="43.16785" lon="2.0248">
        <ele>361.4</ele>
        <time>2026-05-28T05:18:25Z</time>
      </trkpt>
      <trkpt lat="43.1678" lon="2.02476">
        <ele>361.7</ele>
        <time>2026-05-28T05:18:30Z</time>
      </trkpt>
      <trkpt lat="43.16775" lon="2.02472">
        <ele>362.1</ele>
        <time>2026-05-28T05:18:35Z</time>
      </trkpt>
      <trkpt lat="43.1677" lon="2.02468">
        <ele>362.5</ele>
        <time>2026-05-28T05:18:40Z</time>
      </trkpt>
      <trkpt lat="43.16765" lon="2.02464">
        <ele>362.8</ele>
        <time>2026-05-28T05:18:45Z</time>
      </trkpt>
      <trkpt lat="43.1676" lon="2.0246">
        <ele>363.2</ele>
        <time>2026-05-28T05:18:50Z</time>
      </trkpt>
      <trkpt lat="43.16754" lon="2.02454">
        <ele>363.7</ele>
        <time>2026-05-28T05:18:55Z</time>
      </trkpt>
      <trkpt lat="43.1675" lon="2.0245">
        <ele>364</ele>
        <time>2026-05-28T05:19:00Z</time>
      </trkpt>
      <trkpt lat="43.16746" lon="2.02447">
        <ele>364.2</ele>
        <time>2026-05-28T05:19:05Z</time>
      </trkpt>
      <trkpt lat="43.16741" lon="2.02444">
        <ele>364.5</ele>
        <time>2026-05-28T05:19:10Z</time>
      </trkpt>
      <trkpt lat="43.16737" lon="2.02441">
        <ele>364.7</ele>
        <time>2026-05-28T05:19:15Z</time>
      </trkpt>
      <trkpt lat="43.16734" lon="2.02438">
        <ele>364.8</ele>
        <time>2026-05-28T05:19:20Z</time>
      </trkpt>
      <trkpt lat="43.16728" lon="2.02437">
        <ele>365.1</ele>
        <time>2026-05-28T05:19:25Z</time>
      </trkpt>
      <trkpt lat="43.16723" lon="2.02435">
        <ele>365.3</ele>
        <time>2026-05-28T05:19:30Z</time>
      </trkpt>
      <trkpt lat="43.16719" lon="2.02432">
        <ele>365.5</ele>
        <time>2026-05-28T05:19:35Z</time>
      </trkpt>
      <trkpt lat="43.16714" lon="2.02429">
        <ele>365.6</ele>
        <time>2026-05-28T05:19:40Z</time>
      </trkpt>
      <trkpt lat="43.1671" lon="2.02427">
        <ele>365.7</ele>
        <time>2026-05-28T05:19:45Z</time>
      </trkpt>
      <trkpt lat="43.16707" lon="2.02425">
        <ele>365.8</ele>
        <time>2026-05-28T05:19:50Z</time>
      </trkpt>
      <trkpt lat="43.16702" lon="2.02422">
        <ele>365.9</ele>
        <time>2026-05-28T05:19:55Z</time>
      </trkpt>
      <trkpt lat="43.16698" lon="2.02419">
        <ele>366</ele>
        <time>2026-05-28T05:20:00Z</time>
      </trkpt>
      <trkpt lat="43.16693" lon="2.02417">
        <ele>366.1</ele>
        <time>2026-05-28T05:20:05Z</time>
      </trkpt>
      <trkpt lat="43.16689" lon="2.02415">
        <ele>366.1</ele>
        <time>2026-05-28T05:20:10Z</time>
      </trkpt>
      <trkpt lat="43.16685" lon="2.02413">
        <ele>366.2</ele>
        <time>2026-05-28T05:20:15Z</time>
      </trkpt>
      <trkpt lat="43.16681" lon="2.02412">
        <ele>366.3</ele>
        <time>2026-05-28T05:20:20Z</time>
      </trkpt>
      <trkpt lat="43.16677" lon="2.0241">
        <ele>366.4</ele>
        <time>2026-05-28T05:20:25Z</time>
      </trkpt>
      <trkpt lat="43.16673" lon="2.02408">
        <ele>366.5</ele>
        <time>2026-05-28T05:20:30Z</time>
      </trkpt>
      <trkpt lat="43.16668" lon="2.02407">
        <ele>366.6</ele>
        <time>2026-05-28T05:20:35Z</time>
      </trkpt>
      <trkpt lat="43.16663" lon="2.02405">
        <ele>366.7</ele>
        <time>2026-05-28T05:20:40Z</time>
      </trkpt>
      <trkpt lat="43.16659" lon="2.02402">
        <ele>366.7</ele>
        <time>2026-05-28T05:20:45Z</time>
      </trkpt>
      <trkpt lat="43.16654" lon="2.02401">
        <ele>366.9</ele>
        <time>2026-05-28T05:20:50Z</time>
      </trkpt>
      <trkpt lat="43.1665" lon="2.024">
        <ele>367</ele>
        <time>2026-05-28T05:20:55Z</time>
      </trkpt>
      <trkpt lat="43.16645" lon="2.02398">
        <ele>367.1</ele>
        <time>2026-05-28T05:21:00Z</time>
      </trkpt>
      <trkpt lat="43.16639" lon="2.02397">
        <ele>367.3</ele>
        <time>2026-05-28T05:21:05Z</time>
      </trkpt>
      <trkpt lat="43.16634" lon="2.02395">
        <ele>367.4</ele>
        <time>2026-05-28T05:21:10Z</time>
      </trkpt>
      <trkpt lat="43.16628" lon="2.02391">
        <ele>367.5</ele>
        <time>2026-05-28T05:21:15Z</time>
      </trkpt>
      <trkpt lat="43.16623" lon="2.02389">
        <ele>367.6</ele>
        <time>2026-05-28T05:21:20Z</time>
      </trkpt>
      <trkpt lat="43.16618" lon="2.02387">
        <ele>367.7</ele>
        <time>2026-05-28T05:21:25Z</time>
      </trkpt>
      <trkpt lat="43.16616" lon="2.02387">
        <ele>367.8</ele>
        <time>2026-05-28T05:21:30Z</time>
      </trkpt>
      <trkpt lat="43.16616" lon="2.02387">
        <ele>367.8</ele>
        <time>2026-05-28T05:21:35Z</time>
      </trkpt>
      <trkpt lat="43.16616" lon="2.02387">
        <ele>367.8</ele>
        <time>2026-05-28T05:21:40Z</time>
      </trkpt>
      <trkpt lat="43.16612" lon="2.02384">
        <ele>367.8</ele>
        <time>2026-05-28T05:21:45Z</time>
      </trkpt>
      <trkpt lat="43.16606" lon="2.02382">
        <ele>367.9</ele>
        <time>2026-05-28T05:21:50Z</time>
      </trkpt>
      <trkpt lat="43.16601" lon="2.02382">
        <ele>368.1</ele>
        <time>2026-05-28T05:21:55Z</time>
      </trkpt>
      <trkpt lat="43.16597" lon="2.0238">
        <ele>368.2</ele>
        <time>2026-05-28T05:22:00Z</time>
      </trkpt>
      <trkpt lat="43.16592" lon="2.02379">
        <ele>368.3</ele>
        <time>2026-05-28T05:22:05Z</time>
      </trkpt>
      <trkpt lat="43.16586" lon="2.02378">
        <ele>368.5</ele>
        <time>2026-05-28T05:22:10Z</time>
      </trkpt>
      <trkpt lat="43.16581" lon="2.02378">
        <ele>368.8</ele>
        <time>2026-05-28T05:22:15Z</time>
      </trkpt>
      <trkpt lat="43.16575" lon="2.02377">
        <ele>369.2</ele>
        <time>2026-05-28T05:22:20Z</time>
      </trkpt>
      <trkpt lat="43.16569" lon="2.02378">
        <ele>369.6</ele>
        <time>2026-05-28T05:22:25Z</time>
      </trkpt>
      <trkpt lat="43.16563" lon="2.02379">
        <ele>370.1</ele>
        <time>2026-05-28T05:22:30Z</time>
      </trkpt>
      <trkpt lat="43.16558" lon="2.0238">
        <ele>370.5</ele>
        <time>2026-05-28T05:22:35Z</time>
      </trkpt>
      <trkpt lat="43.16551" lon="2.0238">
        <ele>371</ele>
        <time>2026-05-28T05:22:40Z</time>
      </trkpt>
      <trkpt lat="43.16545" lon="2.02382">
        <ele>371.5</ele>
        <time>2026-05-28T05:22:45Z</time>
      </trkpt>
      <trkpt lat="43.1654" lon="2.02383">
        <ele>371.9</ele>
        <time>2026-05-28T05:22:50Z</time>
      </trkpt>
      <trkpt lat="43.16534" lon="2.02383">
        <ele>372.3</ele>
        <time>2026-05-28T05:22:55Z</time>
      </trkpt>
      <trkpt lat="43.16528" lon="2.02384">
        <ele>372.8</ele>
        <time>2026-05-28T05:23:00Z</time>
      </trkpt>
      <trkpt lat="43.16523" lon="2.02382">
        <ele>373.1</ele>
        <time>2026-05-28T05:23:05Z</time>
      </trkpt>
      <trkpt lat="43.16518" lon="2.0238">
        <ele>373.4</ele>
        <time>2026-05-28T05:23:10Z</time>
      </trkpt>
      <trkpt lat="43.16512" lon="2.02377">
        <ele>373.7</ele>
        <time>2026-05-28T05:23:15Z</time>
      </trkpt>
      <trkpt lat="43.16506" lon="2.02374">
        <ele>374</ele>
        <time>2026-05-28T05:23:20Z</time>
      </trkpt>
      <trkpt lat="43.165" lon="2.02372">
        <ele>374.4</ele>
        <time>2026-05-28T05:23:25Z</time>
      </trkpt>
      <trkpt lat="43.16495" lon="2.0237">
        <ele>374.3</ele>
        <time>2026-05-28T05:23:30Z</time>
      </trkpt>
      <trkpt lat="43.16491" lon="2.02368">
        <ele>374.3</ele>
        <time>2026-05-28T05:23:35Z</time>
      </trkpt>
      <trkpt lat="43.1649" lon="2.02368">
        <ele>374.3</ele>
        <time>2026-05-28T05:23:40Z</time>
      </trkpt>
      <trkpt lat="43.16485" lon="2.02365">
        <ele>374.2</ele>
        <time>2026-05-28T05:23:45Z</time>
      </trkpt>
      <trkpt lat="43.16481" lon="2.02364">
        <ele>374.1</ele>
        <time>2026-05-28T05:23:50Z</time>
      </trkpt>
      <trkpt lat="43.16478" lon="2.02363">
        <ele>374.1</ele>
        <time>2026-05-28T05:23:55Z</time>
      </trkpt>
      <trkpt lat="43.16474" lon="2.02361">
        <ele>374</ele>
        <time>2026-05-28T05:24:00Z</time>
      </trkpt>
      <trkpt lat="43.16469" lon="2.02359">
        <ele>373.9</ele>
        <time>2026-05-28T05:24:05Z</time>
      </trkpt>
      <trkpt lat="43.16464" lon="2.02357">
        <ele>373.8</ele>
        <time>2026-05-28T05:24:10Z</time>
      </trkpt>
      <trkpt lat="43.16459" lon="2.02354">
        <ele>373.6</ele>
        <time>2026-05-28T05:24:15Z</time>
      </trkpt>
      <trkpt lat="43.16455" lon="2.02352">
        <ele>373.5</ele>
        <time>2026-05-28T05:24:20Z</time>
      </trkpt>
      <trkpt lat="43.1645" lon="2.0235">
        <ele>373.4</ele>
        <time>2026-05-28T05:24:25Z</time>
      </trkpt>
      <trkpt lat="43.16445" lon="2.02348">
        <ele>373.2</ele>
        <time>2026-05-28T05:24:30Z</time>
      </trkpt>
      <trkpt lat="43.16441" lon="2.02347">
        <ele>373.1</ele>
        <time>2026-05-28T05:24:35Z</time>
      </trkpt>
      <trkpt lat="43.16437" lon="2.02345">
        <ele>373</ele>
        <time>2026-05-28T05:24:40Z</time>
      </trkpt>
      <trkpt lat="43.16433" lon="2.02342">
        <ele>372.8</ele>
        <time>2026-05-28T05:24:45Z</time>
      </trkpt>
      <trkpt lat="43.16427" lon="2.02338">
        <ele>372.4</ele>
        <time>2026-05-28T05:24:50Z</time>
      </trkpt>
      <trkpt lat="43.16422" lon="2.02335">
        <ele>372.2</ele>
        <time>2026-05-28T05:24:55Z</time>
      </trkpt>
      <trkpt lat="43.16417" lon="2.02333">
        <ele>372</ele>
        <time>2026-05-28T05:25:00Z</time>
      </trkpt>
      <trkpt lat="43.16411" lon="2.02331">
        <ele>372.1</ele>
        <time>2026-05-28T05:25:05Z</time>
      </trkpt>
      <trkpt lat="43.16406" lon="2.02329">
        <ele>372.3</ele>
        <time>2026-05-28T05:25:10Z</time>
      </trkpt>
      <trkpt lat="43.16403" lon="2.02329">
        <ele>372.4</ele>
        <time>2026-05-28T05:25:15Z</time>
      </trkpt>
      <trkpt lat="43.16401" lon="2.02327">
        <ele>372.5</ele>
        <time>2026-05-28T05:25:20Z</time>
      </trkpt>
      <trkpt lat="43.16395" lon="2.02326">
        <ele>372.7</ele>
        <time>2026-05-28T05:25:25Z</time>
      </trkpt>
      <trkpt lat="43.1639" lon="2.02327">
        <ele>372.8</ele>
        <time>2026-05-28T05:25:30Z</time>
      </trkpt>
      <trkpt lat="43.16384" lon="2.02327">
        <ele>373</ele>
        <time>2026-05-28T05:25:35Z</time>
      </trkpt>
      <trkpt lat="43.16379" lon="2.02328">
        <ele>373.1</ele>
        <time>2026-05-28T05:25:40Z</time>
      </trkpt>
      <trkpt lat="43.16373" lon="2.0233">
        <ele>373.2</ele>
        <time>2026-05-28T05:25:45Z</time>
      </trkpt>
      <trkpt lat="43.16369" lon="2.02332">
        <ele>373.2</ele>
        <time>2026-05-28T05:25:50Z</time>
      </trkpt>
      <trkpt lat="43.16363" lon="2.02335">
        <ele>373.3</ele>
        <time>2026-05-28T05:25:55Z</time>
      </trkpt>
      <trkpt lat="43.16357" lon="2.02339">
        <ele>373.4</ele>
        <time>2026-05-28T05:26:00Z</time>
      </trkpt>
      <trkpt lat="43.16352" lon="2.02343">
        <ele>373.3</ele>
        <time>2026-05-28T05:26:05Z</time>
      </trkpt>
      <trkpt lat="43.16345" lon="2.02346">
        <ele>373.3</ele>
        <time>2026-05-28T05:26:10Z</time>
      </trkpt>
      <trkpt lat="43.1634" lon="2.02351">
        <ele>373.2</ele>
        <time>2026-05-28T05:26:15Z</time>
      </trkpt>
      <trkpt lat="43.16334" lon="2.02356">
        <ele>372.9</ele>
        <time>2026-05-28T05:26:20Z</time>
      </trkpt>
      <trkpt lat="43.16329" lon="2.02361">
        <ele>372.4</ele>
        <time>2026-05-28T05:26:25Z</time>
      </trkpt>
      <trkpt lat="43.16323" lon="2.02365">
        <ele>371.9</ele>
        <time>2026-05-28T05:26:30Z</time>
      </trkpt>
      <trkpt lat="43.16319" lon="2.0237">
        <ele>371.4</ele>
        <time>2026-05-28T05:26:35Z</time>
      </trkpt>
      <trkpt lat="43.16314" lon="2.02376">
        <ele>370.7</ele>
        <time>2026-05-28T05:26:40Z</time>
      </trkpt>
      <trkpt lat="43.16309" lon="2.02381">
        <ele>370</ele>
        <time>2026-05-28T05:26:45Z</time>
      </trkpt>
      <trkpt lat="43.16305" lon="2.02385">
        <ele>369.4</ele>
        <time>2026-05-28T05:26:50Z</time>
      </trkpt>
      <trkpt lat="43.163" lon="2.02389">
        <ele>368.7</ele>
        <time>2026-05-28T05:26:55Z</time>
      </trkpt>
      <trkpt lat="43.16294" lon="2.02389">
        <ele>368.2</ele>
        <time>2026-05-28T05:27:00Z</time>
      </trkpt>
      <trkpt lat="43.16287" lon="2.02386">
        <ele>367.9</ele>
        <time>2026-05-28T05:27:05Z</time>
      </trkpt>
      <trkpt lat="43.16281" lon="2.02382">
        <ele>367.8</ele>
        <time>2026-05-28T05:27:10Z</time>
      </trkpt>
      <trkpt lat="43.16275" lon="2.02378">
        <ele>367.8</ele>
        <time>2026-05-28T05:27:15Z</time>
      </trkpt>
      <trkpt lat="43.16272" lon="2.02377">
        <ele>367.7</ele>
        <time>2026-05-28T05:27:20Z</time>
      </trkpt>
      <trkpt lat="43.16271" lon="2.02377">
        <ele>367.7</ele>
        <time>2026-05-28T05:27:25Z</time>
      </trkpt>
      <trkpt lat="43.16271" lon="2.02377">
        <ele>367.7</ele>
        <time>2026-05-28T05:27:30Z</time>
      </trkpt>
      <trkpt lat="43.16271" lon="2.02377">
        <ele>367.7</ele>
        <time>2026-05-28T05:27:35Z</time>
      </trkpt>
      <trkpt lat="43.16271" lon="2.02377">
        <ele>367.7</ele>
        <time>2026-05-28T05:27:40Z</time>
      </trkpt>
      <trkpt lat="43.16265" lon="2.02374">
        <ele>367.6</ele>
        <time>2026-05-28T05:27:45Z</time>
      </trkpt>
      <trkpt lat="43.16261" lon="2.0237">
        <ele>367.8</ele>
        <time>2026-05-28T05:27:50Z</time>
      </trkpt>
      <trkpt lat="43.16255" lon="2.02366">
        <ele>368</ele>
        <time>2026-05-28T05:27:55Z</time>
      </trkpt>
      <trkpt lat="43.1625" lon="2.02362">
        <ele>368.2</ele>
        <time>2026-05-28T05:28:00Z</time>
      </trkpt>
      <trkpt lat="43.16244" lon="2.02359">
        <ele>367.3</ele>
        <time>2026-05-28T05:28:05Z</time>
      </trkpt>
      <trkpt lat="43.16239" lon="2.02356">
        <ele>366.5</ele>
        <time>2026-05-28T05:28:10Z</time>
      </trkpt>
      <trkpt lat="43.16233" lon="2.02353">
        <ele>365.5</ele>
        <time>2026-05-28T05:28:15Z</time>
      </trkpt>
      <trkpt lat="43.16228" lon="2.02351">
        <ele>364.6</ele>
        <time>2026-05-28T05:28:20Z</time>
      </trkpt>
      <trkpt lat="43.16223" lon="2.02348">
        <ele>363.8</ele>
        <time>2026-05-28T05:28:25Z</time>
      </trkpt>
      <trkpt lat="43.16218" lon="2.02346">
        <ele>362.9</ele>
        <time>2026-05-28T05:28:30Z</time>
      </trkpt>
      <trkpt lat="43.16213" lon="2.02344">
        <ele>361.9</ele>
        <time>2026-05-28T05:28:35Z</time>
      </trkpt>
      <trkpt lat="43.16208" lon="2.02341">
        <ele>361.1</ele>
        <time>2026-05-28T05:28:40Z</time>
      </trkpt>
      <trkpt lat="43.16204" lon="2.02338">
        <ele>360.5</ele>
        <time>2026-05-28T05:28:45Z</time>
      </trkpt>
      <trkpt lat="43.16202" lon="2.02337">
        <ele>360.1</ele>
        <time>2026-05-28T05:28:50Z</time>
      </trkpt>
      <trkpt lat="43.162" lon="2.02334">
        <ele>359.9</ele>
        <time>2026-05-28T05:28:55Z</time>
      </trkpt>
      <trkpt lat="43.16197" lon="2.02329">
        <ele>359.7</ele>
        <time>2026-05-28T05:29:00Z</time>
      </trkpt>
      <trkpt lat="43.16194" lon="2.02323">
        <ele>359.7</ele>
        <time>2026-05-28T05:29:05Z</time>
      </trkpt>
      <trkpt lat="43.1619" lon="2.02317">
        <ele>359.4</ele>
        <time>2026-05-28T05:29:10Z</time>
      </trkpt>
      <trkpt lat="43.16187" lon="2.02312">
        <ele>359.2</ele>
        <time>2026-05-28T05:29:15Z</time>
      </trkpt>
      <trkpt lat="43.16184" lon="2.02308">
        <ele>358.9</ele>
        <time>2026-05-28T05:29:20Z</time>
      </trkpt>
      <trkpt lat="43.16181" lon="2.02303">
        <ele>358.7</ele>
        <time>2026-05-28T05:29:25Z</time>
      </trkpt>
      <trkpt lat="43.16177" lon="2.02299">
        <ele>358.2</ele>
        <time>2026-05-28T05:29:30Z</time>
      </trkpt>
      <trkpt lat="43.16173" lon="2.02295">
        <ele>357.7</ele>
        <time>2026-05-28T05:29:35Z</time>
      </trkpt>
      <trkpt lat="43.16169" lon="2.02291">
        <ele>357.1</ele>
        <time>2026-05-28T05:29:40Z</time>
      </trkpt>
      <trkpt lat="43.16165" lon="2.02285">
        <ele>357.1</ele>
        <time>2026-05-28T05:29:45Z</time>
      </trkpt>
      <trkpt lat="43.16161" lon="2.02279">
        <ele>357.4</ele>
        <time>2026-05-28T05:29:50Z</time>
      </trkpt>
      <trkpt lat="43.16157" lon="2.02272">
        <ele>357.8</ele>
        <time>2026-05-28T05:29:55Z</time>
      </trkpt>
      <trkpt lat="43.16154" lon="2.02265">
        <ele>358.4</ele>
        <time>2026-05-28T05:30:00Z</time>
      </trkpt>
      <trkpt lat="43.16153" lon="2.02257">
        <ele>359.2</ele>
        <time>2026-05-28T05:30:05Z</time>
      </trkpt>
      <trkpt lat="43.16151" lon="2.0225">
        <ele>359.9</ele>
        <time>2026-05-28T05:30:10Z</time>
      </trkpt>
      <trkpt lat="43.1615" lon="2.02244">
        <ele>360.8</ele>
        <time>2026-05-28T05:30:15Z</time>
      </trkpt>
      <trkpt lat="43.1615" lon="2.0224">
        <ele>361.5</ele>
        <time>2026-05-28T05:30:20Z</time>
      </trkpt>
      <trkpt lat="43.16149" lon="2.02238">
        <ele>361.7</ele>
        <time>2026-05-28T05:30:25Z</time>
      </trkpt>
      <trkpt lat="43.16147" lon="2.02231">
        <ele>362.8</ele>
        <time>2026-05-28T05:30:30Z</time>
      </trkpt>
      <trkpt lat="43.16146" lon="2.02225">
        <ele>363.7</ele>
        <time>2026-05-28T05:30:35Z</time>
      </trkpt>
      <trkpt lat="43.16144" lon="2.02219">
        <ele>364.6</ele>
        <time>2026-05-28T05:30:40Z</time>
      </trkpt>
      <trkpt lat="43.16144" lon="2.02214">
        <ele>365.4</ele>
        <time>2026-05-28T05:30:45Z</time>
      </trkpt>
      <trkpt lat="43.16143" lon="2.02208">
        <ele>366.4</ele>
        <time>2026-05-28T05:30:50Z</time>
      </trkpt>
      <trkpt lat="43.16142" lon="2.02201">
        <ele>367.5</ele>
        <time>2026-05-28T05:30:55Z</time>
      </trkpt>
      <trkpt lat="43.16141" lon="2.02195">
        <ele>368.4</ele>
        <time>2026-05-28T05:31:00Z</time>
      </trkpt>
      <trkpt lat="43.16141" lon="2.02194">
        <ele>368.6</ele>
        <time>2026-05-28T05:31:05Z</time>
      </trkpt>
      <trkpt lat="43.1614" lon="2.02189">
        <ele>369.3</ele>
        <time>2026-05-28T05:31:10Z</time>
      </trkpt>
      <trkpt lat="43.1614" lon="2.02185">
        <ele>370</ele>
        <time>2026-05-28T05:31:15Z</time>
      </trkpt>
      <trkpt lat="43.1614" lon="2.02185">
        <ele>370</ele>
        <time>2026-05-28T05:31:20Z</time>
      </trkpt>
      <trkpt lat="43.1614" lon="2.02185">
        <ele>370</ele>
        <time>2026-05-28T05:31:25Z</time>
      </trkpt>
      <trkpt lat="43.1614" lon="2.02185">
        <ele>370</ele>
        <time>2026-05-28T05:31:30Z</time>
      </trkpt>
      <trkpt lat="43.1614" lon="2.02185">
        <ele>370</ele>
        <time>2026-05-28T05:31:35Z</time>
      </trkpt>
      <trkpt lat="43.1614" lon="2.02185">
        <ele>370</ele>
        <time>2026-05-28T05:31:40Z</time>
      </trkpt>
      <trkpt lat="43.1614" lon="2.02185">
        <ele>370</ele>
        <time>2026-05-28T05:31:45Z</time>
      </trkpt>
      <trkpt lat="43.1614" lon="2.02185">
        <ele>370</ele>
        <time>2026-05-28T05:31:50Z</time>
      </trkpt>
      <trkpt lat="43.16136" lon="2.02167">
        <ele>372.7</ele>
        <time>2026-05-28T05:31:55Z</time>
      </trkpt>
      <trkpt lat="43.16134" lon="2.0216">
        <ele>373.7</ele>
        <time>2026-05-28T05:32:00Z</time>
      </trkpt>
      <trkpt lat="43.16132" lon="2.02154">
        <ele>374.5</ele>
        <time>2026-05-28T05:32:05Z</time>
      </trkpt>
      <trkpt lat="43.16131" lon="2.02148">
        <ele>375.4</ele>
        <time>2026-05-28T05:32:10Z</time>
      </trkpt>
      <trkpt lat="43.1613" lon="2.02142">
        <ele>376.3</ele>
        <time>2026-05-28T05:32:15Z</time>
      </trkpt>
      <trkpt lat="43.16128" lon="2.02137">
        <ele>377</ele>
        <time>2026-05-28T05:32:20Z</time>
      </trkpt>
      <trkpt lat="43.16124" lon="2.0213">
        <ele>377.9</ele>
        <time>2026-05-28T05:32:25Z</time>
      </trkpt>
      <trkpt lat="43.1612" lon="2.02125">
        <ele>378.5</ele>
        <time>2026-05-28T05:32:30Z</time>
      </trkpt>
      <trkpt lat="43.16116" lon="2.02118">
        <ele>379.6</ele>
        <time>2026-05-28T05:32:35Z</time>
      </trkpt>
      <trkpt lat="43.16112" lon="2.02113">
        <ele>380.3</ele>
        <time>2026-05-28T05:32:40Z</time>
      </trkpt>
      <trkpt lat="43.16109" lon="2.02108">
        <ele>381</ele>
        <time>2026-05-28T05:32:45Z</time>
      </trkpt>
      <trkpt lat="43.16106" lon="2.02103">
        <ele>381.8</ele>
        <time>2026-05-28T05:32:50Z</time>
      </trkpt>
      <trkpt lat="43.16103" lon="2.02097">
        <ele>382.8</ele>
        <time>2026-05-28T05:32:55Z</time>
      </trkpt>
      <trkpt lat="43.16102" lon="2.02091">
        <ele>383.9</ele>
        <time>2026-05-28T05:33:00Z</time>
      </trkpt>
      <trkpt lat="43.161" lon="2.02084">
        <ele>385.1</ele>
        <time>2026-05-28T05:33:05Z</time>
      </trkpt>
      <trkpt lat="43.16099" lon="2.02078">
        <ele>385.4</ele>
        <time>2026-05-28T05:33:10Z</time>
      </trkpt>
      <trkpt lat="43.16097" lon="2.02072">
        <ele>385.6</ele>
        <time>2026-05-28T05:33:15Z</time>
      </trkpt>
      <trkpt lat="43.16096" lon="2.02069">
        <ele>385.7</ele>
        <time>2026-05-28T05:33:20Z</time>
      </trkpt>
      <trkpt lat="43.16096" lon="2.02068">
        <ele>385.8</ele>
        <time>2026-05-28T05:33:25Z</time>
      </trkpt>
      <trkpt lat="43.16096" lon="2.02068">
        <ele>385.8</ele>
        <time>2026-05-28T05:33:30Z</time>
      </trkpt>
      <trkpt lat="43.16096" lon="2.02068">
        <ele>385.8</ele>
        <time>2026-05-28T05:33:35Z</time>
      </trkpt>
      <trkpt lat="43.16096" lon="2.02068">
        <ele>385.8</ele>
        <time>2026-05-28T05:33:40Z</time>
      </trkpt>
      <trkpt lat="43.16096" lon="2.02068">
        <ele>385.8</ele>
        <time>2026-05-28T05:33:45Z</time>
      </trkpt>
      <trkpt lat="43.16096" lon="2.02068">
        <ele>385.8</ele>
        <time>2026-05-28T05:33:50Z</time>
      </trkpt>
      <trkpt lat="43.16096" lon="2.02068">
        <ele>385.8</ele>
        <time>2026-05-28T05:33:55Z</time>
      </trkpt>
      <trkpt lat="43.16096" lon="2.02068">
        <ele>385.8</ele>
        <time>2026-05-28T05:34:00Z</time>
      </trkpt>
      <trkpt lat="43.16096" lon="2.02068">
        <ele>385.8</ele>
        <time>2026-05-28T05:34:05Z</time>
      </trkpt>
      <trkpt lat="43.16096" lon="2.02068">
        <ele>385.8</ele>
        <time>2026-05-28T05:34:10Z</time>
      </trkpt>
      <trkpt lat="43.16096" lon="2.02068">
        <ele>385.8</ele>
        <time>2026-05-28T05:34:15Z</time>
      </trkpt>
      <trkpt lat="43.16096" lon="2.02068">
        <ele>385.8</ele>
        <time>2026-05-28T05:34:20Z</time>
      </trkpt>
      <trkpt lat="43.16096" lon="2.02068">
        <ele>385.8</ele>
        <time>2026-05-28T05:34:25Z</time>
      </trkpt>
      <trkpt lat="43.16096" lon="2.02068">
        <ele>385.8</ele>
        <time>2026-05-28T05:34:30Z</time>
      </trkpt>
      <trkpt lat="43.16096" lon="2.02068">
        <ele>385.8</ele>
        <time>2026-05-28T05:34:35Z</time>
      </trkpt>
      <trkpt lat="43.16096" lon="2.02068">
        <ele>385.8</ele>
        <time>2026-05-28T05:34:40Z</time>
      </trkpt>
      <trkpt lat="43.16096" lon="2.02068">
        <ele>385.8</ele>
        <time>2026-05-28T05:34:45Z</time>
      </trkpt>
      <trkpt lat="43.16096" lon="2.02068">
        <ele>385.8</ele>
        <time>2026-05-28T05:34:50Z</time>
      </trkpt>
      <trkpt lat="43.16096" lon="2.02068">
        <ele>385.8</ele>
        <time>2026-05-28T05:34:55Z</time>
      </trkpt>
      <trkpt lat="43.16096" lon="2.02068">
        <ele>385.8</ele>
        <time>2026-05-28T05:35:00Z</time>
      </trkpt>
      <trkpt lat="43.16096" lon="2.02068">
        <ele>385.8</ele>
        <time>2026-05-28T05:35:05Z</time>
      </trkpt>
      <trkpt lat="43.16096" lon="2.02068">
        <ele>385.8</ele>
        <time>2026-05-28T05:35:10Z</time>
      </trkpt>
      <trkpt lat="43.16096" lon="2.02068">
        <ele>385.8</ele>
        <time>2026-05-28T05:35:15Z</time>
      </trkpt>
      <trkpt lat="43.16096" lon="2.02068">
        <ele>385.8</ele>
        <time>2026-05-28T05:35:20Z</time>
      </trkpt>
      <trkpt lat="43.16096" lon="2.02068">
        <ele>385.8</ele>
        <time>2026-05-28T05:35:25Z</time>
      </trkpt>
      <trkpt lat="43.16096" lon="2.02068">
        <ele>385.8</ele>
        <time>2026-05-28T05:35:30Z</time>
      </trkpt>
      <trkpt lat="43.16096" lon="2.02068">
        <ele>385.8</ele>
        <time>2026-05-28T05:35:35Z</time>
      </trkpt>
      <trkpt lat="43.16096" lon="2.02068">
        <ele>385.8</ele>
        <time>2026-05-28T05:35:40Z</time>
      </trkpt>
      <trkpt lat="43.16096" lon="2.02068">
        <ele>385.8</ele>
        <time>2026-05-28T05:35:45Z</time>
      </trkpt>
      <trkpt lat="43.16096" lon="2.02068">
        <ele>385.8</ele>
        <time>2026-05-28T05:35:50Z</time>
      </trkpt>
      <trkpt lat="43.16096" lon="2.02068">
        <ele>385.8</ele>
        <time>2026-05-28T05:35:55Z</time>
      </trkpt>
      <trkpt lat="43.16096" lon="2.02068">
        <ele>385.8</ele>
        <time>2026-05-28T05:36:00Z</time>
      </trkpt>
      <trkpt lat="43.16096" lon="2.02068">
        <ele>385.8</ele>
        <time>2026-05-28T05:36:05Z</time>
      </trkpt>
      <trkpt lat="43.16096" lon="2.02068">
        <ele>385.8</ele>
        <time>2026-05-28T05:36:10Z</time>
      </trkpt>
      <trkpt lat="43.16096" lon="2.02068">
        <ele>385.8</ele>
        <time>2026-05-28T05:36:15Z</time>
      </trkpt>
      <trkpt lat="43.16096" lon="2.02068">
        <ele>385.8</ele>
        <time>2026-05-28T05:36:20Z</time>
      </trkpt>
      <trkpt lat="43.16096" lon="2.02068">
        <ele>385.8</ele>
        <time>2026-05-28T05:36:25Z</time>
      </trkpt>
      <trkpt lat="43.16096" lon="2.02068">
        <ele>385.8</ele>
        <time>2026-05-28T05:36:30Z</time>
      </trkpt>
      <trkpt lat="43.16096" lon="2.02068">
        <ele>385.8</ele>
        <time>2026-05-28T05:36:35Z</time>
      </trkpt>
      <trkpt lat="43.16096" lon="2.02068">
        <ele>385.8</ele>
        <time>2026-05-28T05:36:40Z</time>
      </trkpt>
      <trkpt lat="43.16096" lon="2.02068">
        <ele>385.8</ele>
        <time>2026-05-28T05:36:45Z</time>
      </trkpt>
      <trkpt lat="43.16096" lon="2.02068">
        <ele>385.8</ele>
        <time>2026-05-28T05:36:50Z</time>
      </trkpt>
      <trkpt lat="43.16096" lon="2.02068">
        <ele>385.8</ele>
        <time>2026-05-28T05:36:55Z</time>
      </trkpt>
      <trkpt lat="43.16096" lon="2.02068">
        <ele>385.8</ele>
        <time>2026-05-28T05:37:00Z</time>
      </trkpt>
      <trkpt lat="43.16096" lon="2.02068">
        <ele>385.8</ele>
        <time>2026-05-28T05:37:05Z</time>
      </trkpt>
      <trkpt lat="43.16096" lon="2.02068">
        <ele>385.8</ele>
        <time>2026-05-28T05:37:10Z</time>
      </trkpt>
      <trkpt lat="43.16096" lon="2.02068">
        <ele>385.8</ele>
        <time>2026-05-28T05:37:15Z</time>
      </trkpt>
      <trkpt lat="43.16096" lon="2.02068">
        <ele>385.8</ele>
        <time>2026-05-28T05:37:20Z</time>
      </trkpt>
      <trkpt lat="43.16096" lon="2.02068">
        <ele>385.8</ele>
        <time>2026-05-28T05:37:25Z</time>
      </trkpt>
      <trkpt lat="43.16096" lon="2.02068">
        <ele>385.8</ele>
        <time>2026-05-28T05:37:30Z</time>
      </trkpt>
      <trkpt lat="43.16096" lon="2.02068">
        <ele>385.8</ele>
        <time>2026-05-28T05:37:35Z</time>
      </trkpt>
      <trkpt lat="43.16096" lon="2.02068">
        <ele>385.8</ele>
        <time>2026-05-28T05:37:40Z</time>
      </trkpt>
      <trkpt lat="43.16096" lon="2.02068">
        <ele>385.8</ele>
        <time>2026-05-28T05:37:45Z</time>
      </trkpt>
      <trkpt lat="43.16096" lon="2.02068">
        <ele>385.8</ele>
        <time>2026-05-28T05:37:50Z</time>
      </trkpt>
      <trkpt lat="43.16096" lon="2.02068">
        <ele>385.8</ele>
        <time>2026-05-28T05:37:55Z</time>
      </trkpt>
      <trkpt lat="43.16096" lon="2.02068">
        <ele>385.8</ele>
        <time>2026-05-28T05:38:00Z</time>
      </trkpt>
      <trkpt lat="43.16096" lon="2.02068">
        <ele>385.8</ele>
        <time>2026-05-28T05:38:05Z</time>
      </trkpt>
      <trkpt lat="43.16096" lon="2.02068">
        <ele>385.8</ele>
        <time>2026-05-28T05:38:10Z</time>
      </trkpt>
      <trkpt lat="43.16096" lon="2.02068">
        <ele>385.8</ele>
        <time>2026-05-28T05:38:15Z</time>
      </trkpt>
      <trkpt lat="43.16096" lon="2.02068">
        <ele>385.8</ele>
        <time>2026-05-28T05:38:20Z</time>
      </trkpt>
      <trkpt lat="43.16096" lon="2.02068">
        <ele>385.8</ele>
        <time>2026-05-28T05:38:25Z</time>
      </trkpt>
      <trkpt lat="43.16096" lon="2.02068">
        <ele>385.8</ele>
        <time>2026-05-28T05:38:30Z</time>
      </trkpt>
      <trkpt lat="43.16096" lon="2.02068">
        <ele>385.8</ele>
        <time>2026-05-28T05:38:35Z</time>
      </trkpt>
      <trkpt lat="43.16096" lon="2.02068">
        <ele>385.8</ele>
        <time>2026-05-28T05:38:40Z</time>
      </trkpt>
      <trkpt lat="43.16096" lon="2.02068">
        <ele>385.8</ele>
        <time>2026-05-28T05:38:45Z</time>
      </trkpt>
      <trkpt lat="43.16096" lon="2.02068">
        <ele>385.8</ele>
        <time>2026-05-28T05:38:50Z</time>
      </trkpt>
      <trkpt lat="43.16096" lon="2.02068">
        <ele>385.8</ele>
        <time>2026-05-28T05:38:55Z</time>
      </trkpt>
      <trkpt lat="43.16096" lon="2.02068">
        <ele>385.8</ele>
        <time>2026-05-28T05:39:00Z</time>
      </trkpt>
      <trkpt lat="43.16096" lon="2.02068">
        <ele>385.8</ele>
        <time>2026-05-28T05:39:05Z</time>
      </trkpt>
      <trkpt lat="43.16096" lon="2.02068">
        <ele>385.8</ele>
        <time>2026-05-28T05:39:10Z</time>
      </trkpt>
      <trkpt lat="43.16096" lon="2.02068">
        <ele>385.8</ele>
        <time>2026-05-28T05:39:15Z</time>
      </trkpt>
      <trkpt lat="43.16096" lon="2.02068">
        <ele>385.8</ele>
        <time>2026-05-28T05:39:20Z</time>
      </trkpt>
      <trkpt lat="43.16096" lon="2.02068">
        <ele>385.8</ele>
        <time>2026-05-28T05:39:25Z</time>
      </trkpt>
      <trkpt lat="43.16096" lon="2.02068">
        <ele>385.8</ele>
        <time>2026-05-28T05:39:30Z</time>
      </trkpt>
      <trkpt lat="43.16096" lon="2.02068">
        <ele>385.8</ele>
        <time>2026-05-28T05:39:35Z</time>
      </trkpt>
      <trkpt lat="43.16096" lon="2.02068">
        <ele>385.8</ele>
        <time>2026-05-28T05:39:40Z</time>
      </trkpt>
      <trkpt lat="43.16096" lon="2.02068">
        <ele>385.8</ele>
        <time>2026-05-28T05:39:45Z</time>
      </trkpt>
      <trkpt lat="43.16096" lon="2.02068">
        <ele>385.8</ele>
        <time>2026-05-28T05:39:50Z</time>
      </trkpt>
      <trkpt lat="43.16096" lon="2.02068">
        <ele>385.8</ele>
        <time>2026-05-28T05:39:55Z</time>
      </trkpt>
      <trkpt lat="43.16096" lon="2.02068">
        <ele>385.8</ele>
        <time>2026-05-28T05:40:00Z</time>
      </trkpt>
      <trkpt lat="43.16096" lon="2.02068">
        <ele>385.8</ele>
        <time>2026-05-28T05:40:05Z</time>
      </trkpt>
      <trkpt lat="43.16096" lon="2.02068">
        <ele>385.8</ele>
        <time>2026-05-28T05:40:10Z</time>
      </trkpt>
      <trkpt lat="43.16096" lon="2.02068">
        <ele>385.8</ele>
        <time>2026-05-28T05:40:15Z</time>
      </trkpt>
      <trkpt lat="43.16096" lon="2.02068">
        <ele>385.8</ele>
        <time>2026-05-28T05:40:20Z</time>
      </trkpt>
      <trkpt lat="43.16096" lon="2.02068">
        <ele>385.8</ele>
        <time>2026-05-28T05:40:25Z</time>
      </trkpt>
      <trkpt lat="43.16096" lon="2.02068">
        <ele>385.8</ele>
        <time>2026-05-28T05:40:30Z</time>
      </trkpt>
      <trkpt lat="43.16096" lon="2.02068">
        <ele>385.8</ele>
        <time>2026-05-28T05:40:35Z</time>
      </trkpt>
      <trkpt lat="43.16089" lon="2.02053">
        <ele>386.2</ele>
        <time>2026-05-28T05:40:40Z</time>
      </trkpt>
      <trkpt lat="43.16087" lon="2.02048">
        <ele>386.4</ele>
        <time>2026-05-28T05:40:45Z</time>
      </trkpt>
      <trkpt lat="43.16084" lon="2.02043">
        <ele>386.5</ele>
        <time>2026-05-28T05:40:50Z</time>
      </trkpt>
      <trkpt lat="43.16081" lon="2.02038">
        <ele>386</ele>
        <time>2026-05-28T05:40:55Z</time>
      </trkpt>
      <trkpt lat="43.16079" lon="2.02033">
        <ele>385.7</ele>
        <time>2026-05-28T05:41:00Z</time>
      </trkpt>
      <trkpt lat="43.16078" lon="2.02031">
        <ele>385.5</ele>
        <time>2026-05-28T05:41:05Z</time>
      </trkpt>
      <trkpt lat="43.16078" lon="2.02031">
        <ele>385.5</ele>
        <time>2026-05-28T05:41:10Z</time>
      </trkpt>
      <trkpt lat="43.16075" lon="2.02027">
        <ele>384.8</ele>
        <time>2026-05-28T05:41:15Z</time>
      </trkpt>
      <trkpt lat="43.16071" lon="2.02022">
        <ele>384</ele>
        <time>2026-05-28T05:41:20Z</time>
      </trkpt>
      <trkpt lat="43.16068" lon="2.02017">
        <ele>383.3</ele>
        <time>2026-05-28T05:41:25Z</time>
      </trkpt>
      <trkpt lat="43.16064" lon="2.02014">
        <ele>382.4</ele>
        <time>2026-05-28T05:41:30Z</time>
      </trkpt>
      <trkpt lat="43.1606" lon="2.0201">
        <ele>381.5</ele>
        <time>2026-05-28T05:41:35Z</time>
      </trkpt>
      <trkpt lat="43.16057" lon="2.02006">
        <ele>380.8</ele>
        <time>2026-05-28T05:41:40Z</time>
      </trkpt>
      <trkpt lat="43.16053" lon="2.02001">
        <ele>380</ele>
        <time>2026-05-28T05:41:45Z</time>
      </trkpt>
      <trkpt lat="43.1605" lon="2.01996">
        <ele>379.3</ele>
        <time>2026-05-28T05:41:50Z</time>
      </trkpt>
      <trkpt lat="43.16046" lon="2.01991">
        <ele>378.5</ele>
        <time>2026-05-28T05:41:55Z</time>
      </trkpt>
      <trkpt lat="43.16043" lon="2.01983">
        <ele>378.1</ele>
        <time>2026-05-28T05:42:00Z</time>
      </trkpt>
      <trkpt lat="43.16041" lon="2.01977">
        <ele>378</ele>
        <time>2026-05-28T05:42:05Z</time>
      </trkpt>
      <trkpt lat="43.16038" lon="2.0197">
        <ele>377.6</ele>
        <time>2026-05-28T05:42:10Z</time>
      </trkpt>
      <trkpt lat="43.16034" lon="2.01964">
        <ele>377.1</ele>
        <time>2026-05-28T05:42:15Z</time>
      </trkpt>
      <trkpt lat="43.16031" lon="2.01958">
        <ele>376.8</ele>
        <time>2026-05-28T05:42:20Z</time>
      </trkpt>
      <trkpt lat="43.16026" lon="2.01953">
        <ele>376.2</ele>
        <time>2026-05-28T05:42:25Z</time>
      </trkpt>
      <trkpt lat="43.16022" lon="2.01948">
        <ele>375.8</ele>
        <time>2026-05-28T05:42:30Z</time>
      </trkpt>
      <trkpt lat="43.16018" lon="2.01942">
        <ele>375.5</ele>
        <time>2026-05-28T05:42:35Z</time>
      </trkpt>
      <trkpt lat="43.16014" lon="2.01937">
        <ele>375.2</ele>
        <time>2026-05-28T05:42:40Z</time>
      </trkpt>
      <trkpt lat="43.16011" lon="2.0193">
        <ele>375.4</ele>
        <time>2026-05-28T05:42:45Z</time>
      </trkpt>
      <trkpt lat="43.16009" lon="2.01924">
        <ele>375.6</ele>
        <time>2026-05-28T05:42:50Z</time>
      </trkpt>
      <trkpt lat="43.16009" lon="2.01924">
        <ele>375.6</ele>
        <time>2026-05-28T05:42:55Z</time>
      </trkpt>
      <trkpt lat="43.16009" lon="2.01924">
        <ele>375.6</ele>
        <time>2026-05-28T05:43:00Z</time>
      </trkpt>
      <trkpt lat="43.16009" lon="2.01924">
        <ele>375.6</ele>
        <time>2026-05-28T05:43:05Z</time>
      </trkpt>
      <trkpt lat="43.16009" lon="2.01924">
        <ele>375.6</ele>
        <time>2026-05-28T05:43:10Z</time>
      </trkpt>
      <trkpt lat="43.16007" lon="2.01917">
        <ele>376</ele>
        <time>2026-05-28T05:43:15Z</time>
      </trkpt>
      <trkpt lat="43.16006" lon="2.0191">
        <ele>377</ele>
        <time>2026-05-28T05:43:20Z</time>
      </trkpt>
      <trkpt lat="43.16004" lon="2.01902">
        <ele>378.1</ele>
        <time>2026-05-28T05:43:25Z</time>
      </trkpt>
      <trkpt lat="43.16003" lon="2.01894">
        <ele>379.4</ele>
        <time>2026-05-28T05:43:30Z</time>
      </trkpt>
      <trkpt lat="43.16002" lon="2.01886">
        <ele>380.7</ele>
        <time>2026-05-28T05:43:35Z</time>
      </trkpt>
      <trkpt lat="43.16001" lon="2.01879">
        <ele>381.9</ele>
        <time>2026-05-28T05:43:40Z</time>
      </trkpt>
      <trkpt lat="43.15999" lon="2.0187">
        <ele>383.5</ele>
        <time>2026-05-28T05:43:45Z</time>
      </trkpt>
      <trkpt lat="43.15997" lon="2.01863">
        <ele>385.1</ele>
        <time>2026-05-28T05:43:50Z</time>
      </trkpt>
      <trkpt lat="43.15994" lon="2.01856">
        <ele>386.8</ele>
        <time>2026-05-28T05:43:55Z</time>
      </trkpt>
      <trkpt lat="43.15991" lon="2.01849">
        <ele>388.5</ele>
        <time>2026-05-28T05:44:00Z</time>
      </trkpt>
      <trkpt lat="43.15987" lon="2.01843">
        <ele>390.2</ele>
        <time>2026-05-28T05:44:05Z</time>
      </trkpt>
      <trkpt lat="43.15983" lon="2.01837">
        <ele>391.8</ele>
        <time>2026-05-28T05:44:10Z</time>
      </trkpt>
      <trkpt lat="43.15978" lon="2.01832">
        <ele>393.3</ele>
        <time>2026-05-28T05:44:15Z</time>
      </trkpt>
      <trkpt lat="43.15974" lon="2.01829">
        <ele>394.2</ele>
        <time>2026-05-28T05:44:20Z</time>
      </trkpt>
      <trkpt lat="43.15968" lon="2.01826">
        <ele>395.3</ele>
        <time>2026-05-28T05:44:25Z</time>
      </trkpt>
      <trkpt lat="43.15963" lon="2.01823">
        <ele>396.3</ele>
        <time>2026-05-28T05:44:30Z</time>
      </trkpt>
      <trkpt lat="43.15958" lon="2.01821">
        <ele>397.2</ele>
        <time>2026-05-28T05:44:35Z</time>
      </trkpt>
      <trkpt lat="43.15953" lon="2.01818">
        <ele>398.1</ele>
        <time>2026-05-28T05:44:40Z</time>
      </trkpt>
      <trkpt lat="43.15947" lon="2.01817">
        <ele>399</ele>
        <time>2026-05-28T05:44:45Z</time>
      </trkpt>
      <trkpt lat="43.15942" lon="2.01816">
        <ele>399.8</ele>
        <time>2026-05-28T05:44:50Z</time>
      </trkpt>
      <trkpt lat="43.15937" lon="2.01816">
        <ele>400.5</ele>
        <time>2026-05-28T05:44:55Z</time>
      </trkpt>
      <trkpt lat="43.15932" lon="2.01815">
        <ele>401.2</ele>
        <time>2026-05-28T05:45:00Z</time>
      </trkpt>
      <trkpt lat="43.15926" lon="2.01814">
        <ele>402.1</ele>
        <time>2026-05-28T05:45:05Z</time>
      </trkpt>
      <trkpt lat="43.15921" lon="2.01813">
        <ele>402.9</ele>
        <time>2026-05-28T05:45:10Z</time>
      </trkpt>
      <trkpt lat="43.15916" lon="2.0181">
        <ele>403.8</ele>
        <time>2026-05-28T05:45:15Z</time>
      </trkpt>
      <trkpt lat="43.1591" lon="2.01809">
        <ele>404.7</ele>
        <time>2026-05-28T05:45:20Z</time>
      </trkpt>
      <trkpt lat="43.15905" lon="2.01808">
        <ele>405.5</ele>
        <time>2026-05-28T05:45:25Z</time>
      </trkpt>
      <trkpt lat="43.159" lon="2.01806">
        <ele>406.4</ele>
        <time>2026-05-28T05:45:30Z</time>
      </trkpt>
      <trkpt lat="43.15894" lon="2.01805">
        <ele>407.4</ele>
        <time>2026-05-28T05:45:35Z</time>
      </trkpt>
      <trkpt lat="43.15888" lon="2.01804">
        <ele>408.4</ele>
        <time>2026-05-28T05:45:40Z</time>
      </trkpt>
      <trkpt lat="43.15883" lon="2.01805">
        <ele>409</ele>
        <time>2026-05-28T05:45:45Z</time>
      </trkpt>
      <trkpt lat="43.15878" lon="2.01806">
        <ele>409.7</ele>
        <time>2026-05-28T05:45:50Z</time>
      </trkpt>
      <trkpt lat="43.15873" lon="2.01808">
        <ele>410.2</ele>
        <time>2026-05-28T05:45:55Z</time>
      </trkpt>
      <trkpt lat="43.15868" lon="2.0181">
        <ele>410.8</ele>
        <time>2026-05-28T05:46:00Z</time>
      </trkpt>
      <trkpt lat="43.15864" lon="2.01812">
        <ele>411.1</ele>
        <time>2026-05-28T05:46:05Z</time>
      </trkpt>
      <trkpt lat="43.1586" lon="2.01815">
        <ele>411.4</ele>
        <time>2026-05-28T05:46:10Z</time>
      </trkpt>
      <trkpt lat="43.15858" lon="2.01818">
        <ele>411.4</ele>
        <time>2026-05-28T05:46:15Z</time>
      </trkpt>
      <trkpt lat="43.15858" lon="2.01821">
        <ele>411</ele>
        <time>2026-05-28T05:46:20Z</time>
      </trkpt>
      <trkpt lat="43.15858" lon="2.01822">
        <ele>410.9</ele>
        <time>2026-05-28T05:46:25Z</time>
      </trkpt>
      <trkpt lat="43.15858" lon="2.01822">
        <ele>410.9</ele>
        <time>2026-05-28T05:46:30Z</time>
      </trkpt>
      <trkpt lat="43.15856" lon="2.01826">
        <ele>410.8</ele>
        <time>2026-05-28T05:46:35Z</time>
      </trkpt>
      <trkpt lat="43.15853" lon="2.0183">
        <ele>410.8</ele>
        <time>2026-05-28T05:46:40Z</time>
      </trkpt>
      <trkpt lat="43.15852" lon="2.01831">
        <ele>410.8</ele>
        <time>2026-05-28T05:46:45Z</time>
      </trkpt>
      <trkpt lat="43.15851" lon="2.01832">
        <ele>410.8</ele>
        <time>2026-05-28T05:46:50Z</time>
      </trkpt>
      <trkpt lat="43.15851" lon="2.01832">
        <ele>410.8</ele>
        <time>2026-05-28T05:46:55Z</time>
      </trkpt>
      <trkpt lat="43.15851" lon="2.01832">
        <ele>410.8</ele>
        <time>2026-05-28T05:47:00Z</time>
      </trkpt>
      <trkpt lat="43.15847" lon="2.01837">
        <ele>410.6</ele>
        <time>2026-05-28T05:47:05Z</time>
      </trkpt>
      <trkpt lat="43.15843" lon="2.01844">
        <ele>409.9</ele>
        <time>2026-05-28T05:47:10Z</time>
      </trkpt>
      <trkpt lat="43.15839" lon="2.01849">
        <ele>409.6</ele>
        <time>2026-05-28T05:47:15Z</time>
      </trkpt>
      <trkpt lat="43.15834" lon="2.01854">
        <ele>409.4</ele>
        <time>2026-05-28T05:47:20Z</time>
      </trkpt>
      <trkpt lat="43.15829" lon="2.01861">
        <ele>407.5</ele>
        <time>2026-05-28T05:47:25Z</time>
      </trkpt>
      <trkpt lat="43.15824" lon="2.01868">
        <ele>405.4</ele>
        <time>2026-05-28T05:47:30Z</time>
      </trkpt>
      <trkpt lat="43.15819" lon="2.01874">
        <ele>403.6</ele>
        <time>2026-05-28T05:47:35Z</time>
      </trkpt>
      <trkpt lat="43.15815" lon="2.01879">
        <ele>402.1</ele>
        <time>2026-05-28T05:47:40Z</time>
      </trkpt>
      <trkpt lat="43.1581" lon="2.01882">
        <ele>400.8</ele>
        <time>2026-05-28T05:47:45Z</time>
      </trkpt>
      <trkpt lat="43.15806" lon="2.01886">
        <ele>399.5</ele>
        <time>2026-05-28T05:47:50Z</time>
      </trkpt>
      <trkpt lat="43.15801" lon="2.0189">
        <ele>398.1</ele>
        <time>2026-05-28T05:47:55Z</time>
      </trkpt>
      <trkpt lat="43.15795" lon="2.01895">
        <ele>396.4</ele>
        <time>2026-05-28T05:48:00Z</time>
      </trkpt>
      <trkpt lat="43.15788" lon="2.01899">
        <ele>394.7</ele>
        <time>2026-05-28T05:48:05Z</time>
      </trkpt>
      <trkpt lat="43.15783" lon="2.01903">
        <ele>393.5</ele>
        <time>2026-05-28T05:48:10Z</time>
      </trkpt>
      <trkpt lat="43.15778" lon="2.01906">
        <ele>392.3</ele>
        <time>2026-05-28T05:48:15Z</time>
      </trkpt>
      <trkpt lat="43.15772" lon="2.01911">
        <ele>390.8</ele>
        <time>2026-05-28T05:48:20Z</time>
      </trkpt>
      <trkpt lat="43.15768" lon="2.01913">
        <ele>390</ele>
        <time>2026-05-28T05:48:25Z</time>
      </trkpt>
      <trkpt lat="43.15765" lon="2.01917">
        <ele>389.1</ele>
        <time>2026-05-28T05:48:30Z</time>
      </trkpt>
      <trkpt lat="43.1576" lon="2.01922">
        <ele>387.8</ele>
        <time>2026-05-28T05:48:35Z</time>
      </trkpt>
      <trkpt lat="43.15755" lon="2.01927">
        <ele>386.6</ele>
        <time>2026-05-28T05:48:40Z</time>
      </trkpt>
      <trkpt lat="43.15751" lon="2.01932">
        <ele>385.5</ele>
        <time>2026-05-28T05:48:45Z</time>
      </trkpt>
      <trkpt lat="43.15746" lon="2.0194">
        <ele>383.8</ele>
        <time>2026-05-28T05:48:50Z</time>
      </trkpt>
      <trkpt lat="43.15743" lon="2.01947">
        <ele>382.5</ele>
        <time>2026-05-28T05:48:55Z</time>
      </trkpt>
      <trkpt lat="43.15739" lon="2.01952">
        <ele>381.3</ele>
        <time>2026-05-28T05:49:00Z</time>
      </trkpt>
      <trkpt lat="43.15736" lon="2.0196">
        <ele>380.1</ele>
        <time>2026-05-28T05:49:05Z</time>
      </trkpt>
      <trkpt lat="43.15734" lon="2.01963">
        <ele>379.5</ele>
        <time>2026-05-28T05:49:10Z</time>
      </trkpt>
      <trkpt lat="43.1573" lon="2.01972">
        <ele>378.1</ele>
        <time>2026-05-28T05:49:15Z</time>
      </trkpt>
      <trkpt lat="43.15726" lon="2.0198">
        <ele>376.8</ele>
        <time>2026-05-28T05:49:20Z</time>
      </trkpt>
      <trkpt lat="43.15722" lon="2.01987">
        <ele>375.7</ele>
        <time>2026-05-28T05:49:25Z</time>
      </trkpt>
      <trkpt lat="43.15716" lon="2.01992">
        <ele>374.5</ele>
        <time>2026-05-28T05:49:30Z</time>
      </trkpt>
      <trkpt lat="43.15713" lon="2.01994">
        <ele>374</ele>
        <time>2026-05-28T05:49:35Z</time>
      </trkpt>
      <trkpt lat="43.15708" lon="2.01993">
        <ele>373.4</ele>
        <time>2026-05-28T05:49:40Z</time>
      </trkpt>
      <trkpt lat="43.15703" lon="2.01989">
        <ele>373</ele>
        <time>2026-05-28T05:49:45Z</time>
      </trkpt>
      <trkpt lat="43.15699" lon="2.01983">
        <ele>372.8</ele>
        <time>2026-05-28T05:49:50Z</time>
      </trkpt>
      <trkpt lat="43.15696" lon="2.01975">
        <ele>372.9</ele>
        <time>2026-05-28T05:49:55Z</time>
      </trkpt>
      <trkpt lat="43.15694" lon="2.01967">
        <ele>373</ele>
        <time>2026-05-28T05:50:00Z</time>
      </trkpt>
      <trkpt lat="43.1569" lon="2.01961">
        <ele>372.7</ele>
        <time>2026-05-28T05:50:05Z</time>
      </trkpt>
      <trkpt lat="43.15687" lon="2.01952">
        <ele>372.6</ele>
        <time>2026-05-28T05:50:10Z</time>
      </trkpt>
      <trkpt lat="43.15684" lon="2.01944">
        <ele>372.4</ele>
        <time>2026-05-28T05:50:15Z</time>
      </trkpt>
      <trkpt lat="43.15681" lon="2.01937">
        <ele>372.1</ele>
        <time>2026-05-28T05:50:20Z</time>
      </trkpt>
      <trkpt lat="43.15678" lon="2.0193">
        <ele>371.8</ele>
        <time>2026-05-28T05:50:25Z</time>
      </trkpt>
      <trkpt lat="43.15676" lon="2.01923">
        <ele>371.7</ele>
        <time>2026-05-28T05:50:30Z</time>
      </trkpt>
      <trkpt lat="43.15674" lon="2.01919">
        <ele>371.4</ele>
        <time>2026-05-28T05:50:35Z</time>
      </trkpt>
      <trkpt lat="43.15673" lon="2.01917">
        <ele>371.3</ele>
        <time>2026-05-28T05:50:40Z</time>
      </trkpt>
      <trkpt lat="43.15673" lon="2.01916">
        <ele>371.3</ele>
        <time>2026-05-28T05:50:45Z</time>
      </trkpt>
      <trkpt lat="43.15673" lon="2.01916">
        <ele>371.3</ele>
        <time>2026-05-28T05:50:50Z</time>
      </trkpt>
      <trkpt lat="43.15673" lon="2.01916">
        <ele>371.3</ele>
        <time>2026-05-28T05:50:55Z</time>
      </trkpt>
      <trkpt lat="43.15673" lon="2.01916">
        <ele>371.3</ele>
        <time>2026-05-28T05:51:00Z</time>
      </trkpt>
      <trkpt lat="43.15674" lon="2.01913">
        <ele>371.7</ele>
        <time>2026-05-28T05:51:05Z</time>
      </trkpt>
      <trkpt lat="43.15674" lon="2.01907">
        <ele>372.1</ele>
        <time>2026-05-28T05:51:10Z</time>
      </trkpt>
      <trkpt lat="43.15672" lon="2.019">
        <ele>372.1</ele>
        <time>2026-05-28T05:51:15Z</time>
      </trkpt>
      <trkpt lat="43.1567" lon="2.01893">
        <ele>372.1</ele>
        <time>2026-05-28T05:51:20Z</time>
      </trkpt>
      <trkpt lat="43.15668" lon="2.01886">
        <ele>372.1</ele>
        <time>2026-05-28T05:51:25Z</time>
      </trkpt>
      <trkpt lat="43.15668" lon="2.01878">
        <ele>372.6</ele>
        <time>2026-05-28T05:51:30Z</time>
      </trkpt>
      <trkpt lat="43.15667" lon="2.01871">
        <ele>372.8</ele>
        <time>2026-05-28T05:51:35Z</time>
      </trkpt>
      <trkpt lat="43.15666" lon="2.01865">
        <ele>373</ele>
        <time>2026-05-28T05:51:40Z</time>
      </trkpt>
      <trkpt lat="43.15665" lon="2.01858">
        <ele>373.3</ele>
        <time>2026-05-28T05:51:45Z</time>
      </trkpt>
      <trkpt lat="43.15664" lon="2.01851">
        <ele>373.6</ele>
        <time>2026-05-28T05:51:50Z</time>
      </trkpt>
      <trkpt lat="43.15662" lon="2.01848">
        <ele>373.6</ele>
        <time>2026-05-28T05:51:55Z</time>
      </trkpt>
      <trkpt lat="43.1566" lon="2.01846">
        <ele>373.5</ele>
        <time>2026-05-28T05:52:00Z</time>
      </trkpt>
      <trkpt lat="43.1566" lon="2.01846">
        <ele>373.5</ele>
        <time>2026-05-28T05:52:05Z</time>
      </trkpt>
      <trkpt lat="43.1566" lon="2.01846">
        <ele>373.5</ele>
        <time>2026-05-28T05:52:10Z</time>
      </trkpt>
      <trkpt lat="43.1566" lon="2.01846">
        <ele>373.5</ele>
        <time>2026-05-28T05:52:15Z</time>
      </trkpt>
      <trkpt lat="43.1566" lon="2.01846">
        <ele>373.5</ele>
        <time>2026-05-28T05:52:20Z</time>
      </trkpt>
      <trkpt lat="43.1566" lon="2.01846">
        <ele>373.5</ele>
        <time>2026-05-28T05:52:25Z</time>
      </trkpt>
      <trkpt lat="43.1566" lon="2.01846">
        <ele>373.5</ele>
        <time>2026-05-28T05:52:30Z</time>
      </trkpt>
      <trkpt lat="43.1566" lon="2.01846">
        <ele>373.5</ele>
        <time>2026-05-28T05:52:35Z</time>
      </trkpt>
      <trkpt lat="43.15659" lon="2.01841">
        <ele>373.7</ele>
        <time>2026-05-28T05:52:40Z</time>
      </trkpt>
      <trkpt lat="43.1566" lon="2.01838">
        <ele>374</ele>
        <time>2026-05-28T05:52:45Z</time>
      </trkpt>
      <trkpt lat="43.1566" lon="2.01838">
        <ele>374</ele>
        <time>2026-05-28T05:52:50Z</time>
      </trkpt>
      <trkpt lat="43.15658" lon="2.01827">
        <ele>374.3</ele>
        <time>2026-05-28T05:52:55Z</time>
      </trkpt>
      <trkpt lat="43.15657" lon="2.01823">
        <ele>374.4</ele>
        <time>2026-05-28T05:53:00Z</time>
      </trkpt>
      <trkpt lat="43.15656" lon="2.01818">
        <ele>374.4</ele>
        <time>2026-05-28T05:53:05Z</time>
      </trkpt>
      <trkpt lat="43.15655" lon="2.01812">
        <ele>374.5</ele>
        <time>2026-05-28T05:53:10Z</time>
      </trkpt>
      <trkpt lat="43.15653" lon="2.01806">
        <ele>374.5</ele>
        <time>2026-05-28T05:53:15Z</time>
      </trkpt>
      <trkpt lat="43.15653" lon="2.01798">
        <ele>374.7</ele>
        <time>2026-05-28T05:53:20Z</time>
      </trkpt>
      <trkpt lat="43.15652" lon="2.0179">
        <ele>374.9</ele>
        <time>2026-05-28T05:53:25Z</time>
      </trkpt>
      <trkpt lat="43.1565" lon="2.01785">
        <ele>374.7</ele>
        <time>2026-05-28T05:53:30Z</time>
      </trkpt>
      <trkpt lat="43.15649" lon="2.01778">
        <ele>374.8</ele>
        <time>2026-05-28T05:53:35Z</time>
      </trkpt>
      <trkpt lat="43.15646" lon="2.01772">
        <ele>374.4</ele>
        <time>2026-05-28T05:53:40Z</time>
      </trkpt>
      <trkpt lat="43.15644" lon="2.01765">
        <ele>374.3</ele>
        <time>2026-05-28T05:53:45Z</time>
      </trkpt>
      <trkpt lat="43.15641" lon="2.0176">
        <ele>373.9</ele>
        <time>2026-05-28T05:53:50Z</time>
      </trkpt>
      <trkpt lat="43.15639" lon="2.0176">
        <ele>373.5</ele>
        <time>2026-05-28T05:53:55Z</time>
      </trkpt>
      <trkpt lat="43.15639" lon="2.0176">
        <ele>373.5</ele>
        <time>2026-05-28T05:54:00Z</time>
      </trkpt>
      <trkpt lat="43.15639" lon="2.0176">
        <ele>373.5</ele>
        <time>2026-05-28T05:54:05Z</time>
      </trkpt>
      <trkpt lat="43.15637" lon="2.01749">
        <ele>373.3</ele>
        <time>2026-05-28T05:54:10Z</time>
      </trkpt>
      <trkpt lat="43.15637" lon="2.01741">
        <ele>373</ele>
        <time>2026-05-28T05:54:15Z</time>
      </trkpt>
      <trkpt lat="43.15637" lon="2.01732">
        <ele>372.7</ele>
        <time>2026-05-28T05:54:20Z</time>
      </trkpt>
      <trkpt lat="43.15636" lon="2.01724">
        <ele>372.2</ele>
        <time>2026-05-28T05:54:25Z</time>
      </trkpt>
      <trkpt lat="43.15636" lon="2.01715">
        <ele>371.9</ele>
        <time>2026-05-28T05:54:30Z</time>
      </trkpt>
      <trkpt lat="43.15635" lon="2.01705">
        <ele>371.4</ele>
        <time>2026-05-28T05:54:35Z</time>
      </trkpt>
      <trkpt lat="43.15634" lon="2.01696">
        <ele>370.8</ele>
        <time>2026-05-28T05:54:40Z</time>
      </trkpt>
      <trkpt lat="43.15634" lon="2.01687">
        <ele>370.5</ele>
        <time>2026-05-28T05:54:45Z</time>
      </trkpt>
      <trkpt lat="43.15634" lon="2.01679">
        <ele>370.2</ele>
        <time>2026-05-28T05:54:50Z</time>
      </trkpt>
      <trkpt lat="43.15632" lon="2.0167">
        <ele>369.4</ele>
        <time>2026-05-28T05:54:55Z</time>
      </trkpt>
      <trkpt lat="43.15632" lon="2.01661">
        <ele>369.1</ele>
        <time>2026-05-28T05:55:00Z</time>
      </trkpt>
      <trkpt lat="43.15632" lon="2.01653">
        <ele>368.9</ele>
        <time>2026-05-28T05:55:05Z</time>
      </trkpt>
      <trkpt lat="43.15631" lon="2.01646">
        <ele>368.5</ele>
        <time>2026-05-28T05:55:10Z</time>
      </trkpt>
      <trkpt lat="43.15629" lon="2.01638">
        <ele>367.8</ele>
        <time>2026-05-28T05:55:15Z</time>
      </trkpt>
      <trkpt lat="43.15627" lon="2.01628">
        <ele>367.1</ele>
        <time>2026-05-28T05:55:20Z</time>
      </trkpt>
      <trkpt lat="43.15624" lon="2.01619">
        <ele>366.1</ele>
        <time>2026-05-28T05:55:25Z</time>
      </trkpt>
      <trkpt lat="43.15623" lon="2.01611">
        <ele>365.7</ele>
        <time>2026-05-28T05:55:30Z</time>
      </trkpt>
      <trkpt lat="43.15621" lon="2.01602">
        <ele>365</ele>
        <time>2026-05-28T05:55:35Z</time>
      </trkpt>
      <trkpt lat="43.1562" lon="2.01593">
        <ele>364.6</ele>
        <time>2026-05-28T05:55:40Z</time>
      </trkpt>
      <trkpt lat="43.15617" lon="2.01582">
        <ele>363.8</ele>
        <time>2026-05-28T05:55:45Z</time>
      </trkpt>
      <trkpt lat="43.15614" lon="2.01571">
        <ele>364</ele>
        <time>2026-05-28T05:55:50Z</time>
      </trkpt>
      <trkpt lat="43.15611" lon="2.0156">
        <ele>364.2</ele>
        <time>2026-05-28T05:55:55Z</time>
      </trkpt>
      <trkpt lat="43.15608" lon="2.01552">
        <ele>364.2</ele>
        <time>2026-05-28T05:56:00Z</time>
      </trkpt>
      <trkpt lat="43.15605" lon="2.01548">
        <ele>363.9</ele>
        <time>2026-05-28T05:56:05Z</time>
      </trkpt>
      <trkpt lat="43.15602" lon="2.01543">
        <ele>363.7</ele>
        <time>2026-05-28T05:56:10Z</time>
      </trkpt>
      <trkpt lat="43.15599" lon="2.01537">
        <ele>363.6</ele>
        <time>2026-05-28T05:56:15Z</time>
      </trkpt>
      <trkpt lat="43.15594" lon="2.01531">
        <ele>363.1</ele>
        <time>2026-05-28T05:56:20Z</time>
      </trkpt>
      <trkpt lat="43.1559" lon="2.01525">
        <ele>362.9</ele>
        <time>2026-05-28T05:56:25Z</time>
      </trkpt>
      <trkpt lat="43.15585" lon="2.01518">
        <ele>362.6</ele>
        <time>2026-05-28T05:56:30Z</time>
      </trkpt>
      <trkpt lat="43.15581" lon="2.01512">
        <ele>362.7</ele>
        <time>2026-05-28T05:56:35Z</time>
      </trkpt>
      <trkpt lat="43.15576" lon="2.01504">
        <ele>363.2</ele>
        <time>2026-05-28T05:56:40Z</time>
      </trkpt>
      <trkpt lat="43.1557" lon="2.01497">
        <ele>363.5</ele>
        <time>2026-05-28T05:56:45Z</time>
      </trkpt>
      <trkpt lat="43.15566" lon="2.0149">
        <ele>363.9</ele>
        <time>2026-05-28T05:56:50Z</time>
      </trkpt>
      <trkpt lat="43.15561" lon="2.01484">
        <ele>364.2</ele>
        <time>2026-05-28T05:56:55Z</time>
      </trkpt>
      <trkpt lat="43.15557" lon="2.01478">
        <ele>364.6</ele>
        <time>2026-05-28T05:57:00Z</time>
      </trkpt>
      <trkpt lat="43.15552" lon="2.01472">
        <ele>364.9</ele>
        <time>2026-05-28T05:57:05Z</time>
      </trkpt>
      <trkpt lat="43.15548" lon="2.01465">
        <ele>365.4</ele>
        <time>2026-05-28T05:57:10Z</time>
      </trkpt>
      <trkpt lat="43.15545" lon="2.0146">
        <ele>365.8</ele>
        <time>2026-05-28T05:57:15Z</time>
      </trkpt>
      <trkpt lat="43.15544" lon="2.01458">
        <ele>365.9</ele>
        <time>2026-05-28T05:57:20Z</time>
      </trkpt>
      <trkpt lat="43.15544" lon="2.01458">
        <ele>365.9</ele>
        <time>2026-05-28T05:57:25Z</time>
      </trkpt>
      <trkpt lat="43.15543" lon="2.01456">
        <ele>366.1</ele>
        <time>2026-05-28T05:57:30Z</time>
      </trkpt>
      <trkpt lat="43.15539" lon="2.01451">
        <ele>366.4</ele>
        <time>2026-05-28T05:57:35Z</time>
      </trkpt>
      <trkpt lat="43.15534" lon="2.01445">
        <ele>366.7</ele>
        <time>2026-05-28T05:57:40Z</time>
      </trkpt>
      <trkpt lat="43.1553" lon="2.01441">
        <ele>366.9</ele>
        <time>2026-05-28T05:57:45Z</time>
      </trkpt>
      <trkpt lat="43.15526" lon="2.01436">
        <ele>367.2</ele>
        <time>2026-05-28T05:57:50Z</time>
      </trkpt>
      <trkpt lat="43.15521" lon="2.01431">
        <ele>367.5</ele>
        <time>2026-05-28T05:57:55Z</time>
      </trkpt>
      <trkpt lat="43.15516" lon="2.01426">
        <ele>367.8</ele>
        <time>2026-05-28T05:58:00Z</time>
      </trkpt>
      <trkpt lat="43.15512" lon="2.01419">
        <ele>368.3</ele>
        <time>2026-05-28T05:58:05Z</time>
      </trkpt>
      <trkpt lat="43.15506" lon="2.01414">
        <ele>368.3</ele>
        <time>2026-05-28T05:58:10Z</time>
      </trkpt>
      <trkpt lat="43.15502" lon="2.01409">
        <ele>368.1</ele>
        <time>2026-05-28T05:58:15Z</time>
      </trkpt>
      <trkpt lat="43.15497" lon="2.01402">
        <ele>367.5</ele>
        <time>2026-05-28T05:58:20Z</time>
      </trkpt>
      <trkpt lat="43.15492" lon="2.01397">
        <ele>366.6</ele>
        <time>2026-05-28T05:58:25Z</time>
      </trkpt>
      <trkpt lat="43.15488" lon="2.01391">
        <ele>365.9</ele>
        <time>2026-05-28T05:58:30Z</time>
      </trkpt>
      <trkpt lat="43.15484" lon="2.01384">
        <ele>365.2</ele>
        <time>2026-05-28T05:58:35Z</time>
      </trkpt>
      <trkpt lat="43.1548" lon="2.01378">
        <ele>364.5</ele>
        <time>2026-05-28T05:58:40Z</time>
      </trkpt>
      <trkpt lat="43.15476" lon="2.01371">
        <ele>363.8</ele>
        <time>2026-05-28T05:58:45Z</time>
      </trkpt>
      <trkpt lat="43.15472" lon="2.01364">
        <ele>363.2</ele>
        <time>2026-05-28T05:58:50Z</time>
      </trkpt>
      <trkpt lat="43.15469" lon="2.01357">
        <ele>362.7</ele>
        <time>2026-05-28T05:58:55Z</time>
      </trkpt>
      <trkpt lat="43.15465" lon="2.01349">
        <ele>362</ele>
        <time>2026-05-28T05:59:00Z</time>
      </trkpt>
      <trkpt lat="43.15462" lon="2.01343">
        <ele>361.6</ele>
        <time>2026-05-28T05:59:05Z</time>
      </trkpt>
      <trkpt lat="43.15458" lon="2.01339">
        <ele>360.9</ele>
        <time>2026-05-28T05:59:10Z</time>
      </trkpt>
      <trkpt lat="43.15458" lon="2.01339">
        <ele>360.9</ele>
        <time>2026-05-28T05:59:15Z</time>
      </trkpt>
      <trkpt lat="43.15456" lon="2.01332">
        <ele>360.6</ele>
        <time>2026-05-28T05:59:20Z</time>
      </trkpt>
      <trkpt lat="43.15453" lon="2.01325">
        <ele>360.3</ele>
        <time>2026-05-28T05:59:25Z</time>
      </trkpt>
      <trkpt lat="43.1545" lon="2.01319">
        <ele>360</ele>
        <time>2026-05-28T05:59:30Z</time>
      </trkpt>
      <trkpt lat="43.15447" lon="2.01312">
        <ele>359.7</ele>
        <time>2026-05-28T05:59:35Z</time>
      </trkpt>
      <trkpt lat="43.15445" lon="2.01305">
        <ele>359.7</ele>
        <time>2026-05-28T05:59:40Z</time>
      </trkpt>
      <trkpt lat="43.15445" lon="2.01305">
        <ele>359.7</ele>
        <time>2026-05-28T05:59:45Z</time>
      </trkpt>
      <trkpt lat="43.15445" lon="2.01305">
        <ele>359.7</ele>
        <time>2026-05-28T05:59:50Z</time>
      </trkpt>
      <trkpt lat="43.15445" lon="2.01305">
        <ele>359.7</ele>
        <time>2026-05-28T05:59:55Z</time>
      </trkpt>
      <trkpt lat="43.15445" lon="2.01305">
        <ele>359.7</ele>
        <time>2026-05-28T06:00:00Z</time>
      </trkpt>
      <trkpt lat="43.15445" lon="2.01305">
        <ele>359.7</ele>
        <time>2026-05-28T06:00:05Z</time>
      </trkpt>
      <trkpt lat="43.15445" lon="2.01305">
        <ele>359.7</ele>
        <time>2026-05-28T06:00:10Z</time>
      </trkpt>
      <trkpt lat="43.15445" lon="2.01305">
        <ele>359.7</ele>
        <time>2026-05-28T06:00:15Z</time>
      </trkpt>
      <trkpt lat="43.15445" lon="2.01305">
        <ele>359.7</ele>
        <time>2026-05-28T06:00:20Z</time>
      </trkpt>
      <trkpt lat="43.15445" lon="2.01305">
        <ele>359.7</ele>
        <time>2026-05-28T06:00:25Z</time>
      </trkpt>
      <trkpt lat="43.15445" lon="2.01305">
        <ele>359.7</ele>
        <time>2026-05-28T06:00:30Z</time>
      </trkpt>
      <trkpt lat="43.15445" lon="2.01305">
        <ele>359.7</ele>
        <time>2026-05-28T06:00:35Z</time>
      </trkpt>
      <trkpt lat="43.15445" lon="2.01305">
        <ele>359.7</ele>
        <time>2026-05-28T06:00:40Z</time>
      </trkpt>
      <trkpt lat="43.15445" lon="2.01305">
        <ele>359.7</ele>
        <time>2026-05-28T06:00:45Z</time>
      </trkpt>
      <trkpt lat="43.15445" lon="2.01305">
        <ele>359.7</ele>
        <time>2026-05-28T06:00:50Z</time>
      </trkpt>
      <trkpt lat="43.15445" lon="2.01305">
        <ele>359.7</ele>
        <time>2026-05-28T06:00:55Z</time>
      </trkpt>
      <trkpt lat="43.15445" lon="2.01305">
        <ele>359.7</ele>
        <time>2026-05-28T06:01:00Z</time>
      </trkpt>
      <trkpt lat="43.15445" lon="2.01305">
        <ele>359.7</ele>
        <time>2026-05-28T06:01:05Z</time>
      </trkpt>
      <trkpt lat="43.15445" lon="2.01305">
        <ele>359.7</ele>
        <time>2026-05-28T06:01:10Z</time>
      </trkpt>
      <trkpt lat="43.15445" lon="2.01305">
        <ele>359.7</ele>
        <time>2026-05-28T06:01:15Z</time>
      </trkpt>
      <trkpt lat="43.15445" lon="2.01305">
        <ele>359.7</ele>
        <time>2026-05-28T06:01:20Z</time>
      </trkpt>
      <trkpt lat="43.15445" lon="2.01305">
        <ele>359.7</ele>
        <time>2026-05-28T06:01:25Z</time>
      </trkpt>
      <trkpt lat="43.15445" lon="2.01305">
        <ele>359.7</ele>
        <time>2026-05-28T06:01:30Z</time>
      </trkpt>
      <trkpt lat="43.15445" lon="2.01305">
        <ele>359.7</ele>
        <time>2026-05-28T06:01:35Z</time>
      </trkpt>
      <trkpt lat="43.15445" lon="2.01305">
        <ele>359.7</ele>
        <time>2026-05-28T06:01:40Z</time>
      </trkpt>
      <trkpt lat="43.15445" lon="2.01305">
        <ele>359.7</ele>
        <time>2026-05-28T06:01:45Z</time>
      </trkpt>
      <trkpt lat="43.15445" lon="2.01305">
        <ele>359.7</ele>
        <time>2026-05-28T06:01:50Z</time>
      </trkpt>
      <trkpt lat="43.15445" lon="2.01305">
        <ele>359.7</ele>
        <time>2026-05-28T06:01:55Z</time>
      </trkpt>
      <trkpt lat="43.15445" lon="2.01305">
        <ele>359.7</ele>
        <time>2026-05-28T06:02:00Z</time>
      </trkpt>
      <trkpt lat="43.15441" lon="2.01292">
        <ele>359.5</ele>
        <time>2026-05-28T06:02:05Z</time>
      </trkpt>
      <trkpt lat="43.15441" lon="2.01292">
        <ele>359.5</ele>
        <time>2026-05-28T06:02:10Z</time>
      </trkpt>
      <trkpt lat="43.15441" lon="2.01292">
        <ele>359.5</ele>
        <time>2026-05-28T06:02:15Z</time>
      </trkpt>
      <trkpt lat="43.15441" lon="2.01292">
        <ele>359.5</ele>
        <time>2026-05-28T06:02:20Z</time>
      </trkpt>
      <trkpt lat="43.15441" lon="2.01292">
        <ele>359.5</ele>
        <time>2026-05-28T06:02:25Z</time>
      </trkpt>
      <trkpt lat="43.15441" lon="2.01292">
        <ele>359.5</ele>
        <time>2026-05-28T06:02:30Z</time>
      </trkpt>
      <trkpt lat="43.15441" lon="2.01292">
        <ele>359.5</ele>
        <time>2026-05-28T06:02:35Z</time>
      </trkpt>
      <trkpt lat="43.15441" lon="2.01292">
        <ele>359.5</ele>
        <time>2026-05-28T06:02:40Z</time>
      </trkpt>
      <trkpt lat="43.15441" lon="2.01292">
        <ele>359.5</ele>
        <time>2026-05-28T06:02:45Z</time>
      </trkpt>
      <trkpt lat="43.15441" lon="2.01292">
        <ele>359.5</ele>
        <time>2026-05-28T06:02:50Z</time>
      </trkpt>
      <trkpt lat="43.15441" lon="2.01292">
        <ele>359.5</ele>
        <time>2026-05-28T06:02:55Z</time>
      </trkpt>
      <trkpt lat="43.15441" lon="2.01292">
        <ele>359.5</ele>
        <time>2026-05-28T06:03:00Z</time>
      </trkpt>
      <trkpt lat="43.15441" lon="2.01292">
        <ele>359.5</ele>
        <time>2026-05-28T06:03:05Z</time>
      </trkpt>
      <trkpt lat="43.15441" lon="2.01292">
        <ele>359.5</ele>
        <time>2026-05-28T06:03:10Z</time>
      </trkpt>
      <trkpt lat="43.15441" lon="2.01292">
        <ele>359.5</ele>
        <time>2026-05-28T06:03:15Z</time>
      </trkpt>
      <trkpt lat="43.15441" lon="2.01292">
        <ele>359.5</ele>
        <time>2026-05-28T06:03:20Z</time>
      </trkpt>
      <trkpt lat="43.15441" lon="2.01292">
        <ele>359.5</ele>
        <time>2026-05-28T06:03:25Z</time>
      </trkpt>
      <trkpt lat="43.15441" lon="2.01292">
        <ele>359.5</ele>
        <time>2026-05-28T06:03:30Z</time>
      </trkpt>
      <trkpt lat="43.15441" lon="2.01292">
        <ele>359.5</ele>
        <time>2026-05-28T06:03:35Z</time>
      </trkpt>
      <trkpt lat="43.15441" lon="2.01292">
        <ele>359.5</ele>
        <time>2026-05-28T06:03:40Z</time>
      </trkpt>
      <trkpt lat="43.15441" lon="2.01292">
        <ele>359.5</ele>
        <time>2026-05-28T06:03:45Z</time>
      </trkpt>
      <trkpt lat="43.15441" lon="2.01292">
        <ele>359.5</ele>
        <time>2026-05-28T06:03:50Z</time>
      </trkpt>
      <trkpt lat="43.15441" lon="2.01292">
        <ele>359.5</ele>
        <time>2026-05-28T06:03:55Z</time>
      </trkpt>
      <trkpt lat="43.15441" lon="2.01292">
        <ele>359.5</ele>
        <time>2026-05-28T06:04:00Z</time>
      </trkpt>
      <trkpt lat="43.15441" lon="2.01292">
        <ele>359.5</ele>
        <time>2026-05-28T06:04:05Z</time>
      </trkpt>
      <trkpt lat="43.15441" lon="2.01292">
        <ele>359.5</ele>
        <time>2026-05-28T06:04:10Z</time>
      </trkpt>
      <trkpt lat="43.15441" lon="2.01292">
        <ele>359.5</ele>
        <time>2026-05-28T06:04:15Z</time>
      </trkpt>
      <trkpt lat="43.15441" lon="2.01292">
        <ele>359.5</ele>
        <time>2026-05-28T06:04:20Z</time>
      </trkpt>
      <trkpt lat="43.15441" lon="2.01292">
        <ele>359.5</ele>
        <time>2026-05-28T06:04:25Z</time>
      </trkpt>
      <trkpt lat="43.15441" lon="2.01292">
        <ele>359.5</ele>
        <time>2026-05-28T06:04:30Z</time>
      </trkpt>
      <trkpt lat="43.15441" lon="2.01292">
        <ele>359.5</ele>
        <time>2026-05-28T06:04:35Z</time>
      </trkpt>
      <trkpt lat="43.15441" lon="2.01292">
        <ele>359.5</ele>
        <time>2026-05-28T06:04:40Z</time>
      </trkpt>
      <trkpt lat="43.15441" lon="2.01292">
        <ele>359.5</ele>
        <time>2026-05-28T06:04:45Z</time>
      </trkpt>
      <trkpt lat="43.15441" lon="2.01292">
        <ele>359.5</ele>
        <time>2026-05-28T06:04:50Z</time>
      </trkpt>
      <trkpt lat="43.15441" lon="2.01292">
        <ele>359.5</ele>
        <time>2026-05-28T06:04:55Z</time>
      </trkpt>
      <trkpt lat="43.15441" lon="2.01292">
        <ele>359.5</ele>
        <time>2026-05-28T06:05:00Z</time>
      </trkpt>
      <trkpt lat="43.15441" lon="2.01292">
        <ele>359.5</ele>
        <time>2026-05-28T06:05:05Z</time>
      </trkpt>
      <trkpt lat="43.15441" lon="2.01292">
        <ele>359.5</ele>
        <time>2026-05-28T06:05:10Z</time>
      </trkpt>
      <trkpt lat="43.15437" lon="2.0128">
        <ele>359.4</ele>
        <time>2026-05-28T06:05:15Z</time>
      </trkpt>
      <trkpt lat="43.15437" lon="2.0128">
        <ele>359.4</ele>
        <time>2026-05-28T06:05:20Z</time>
      </trkpt>
      <trkpt lat="43.15437" lon="2.0128">
        <ele>359.4</ele>
        <time>2026-05-28T06:05:25Z</time>
      </trkpt>
      <trkpt lat="43.15437" lon="2.0128">
        <ele>359.4</ele>
        <time>2026-05-28T06:05:30Z</time>
      </trkpt>
      <trkpt lat="43.15437" lon="2.0128">
        <ele>359.4</ele>
        <time>2026-05-28T06:05:35Z</time>
      </trkpt>
      <trkpt lat="43.15437" lon="2.0128">
        <ele>359.4</ele>
        <time>2026-05-28T06:05:40Z</time>
      </trkpt>
      <trkpt lat="43.15437" lon="2.0128">
        <ele>359.4</ele>
        <time>2026-05-28T06:05:45Z</time>
      </trkpt>
      <trkpt lat="43.15437" lon="2.0128">
        <ele>359.4</ele>
        <time>2026-05-28T06:05:50Z</time>
      </trkpt>
      <trkpt lat="43.15437" lon="2.0128">
        <ele>359.4</ele>
        <time>2026-05-28T06:05:55Z</time>
      </trkpt>
      <trkpt lat="43.15437" lon="2.0128">
        <ele>359.4</ele>
        <time>2026-05-28T06:06:00Z</time>
      </trkpt>
      <trkpt lat="43.15437" lon="2.0128">
        <ele>359.4</ele>
        <time>2026-05-28T06:06:05Z</time>
      </trkpt>
      <trkpt lat="43.15437" lon="2.0128">
        <ele>359.4</ele>
        <time>2026-05-28T06:06:10Z</time>
      </trkpt>
      <trkpt lat="43.15437" lon="2.0128">
        <ele>359.4</ele>
        <time>2026-05-28T06:06:15Z</time>
      </trkpt>
      <trkpt lat="43.15437" lon="2.0128">
        <ele>359.4</ele>
        <time>2026-05-28T06:06:20Z</time>
      </trkpt>
      <trkpt lat="43.15437" lon="2.0128">
        <ele>359.4</ele>
        <time>2026-05-28T06:06:25Z</time>
      </trkpt>
      <trkpt lat="43.15437" lon="2.0128">
        <ele>359.4</ele>
        <time>2026-05-28T06:06:30Z</time>
      </trkpt>
      <trkpt lat="43.15437" lon="2.0128">
        <ele>359.4</ele>
        <time>2026-05-28T06:06:35Z</time>
      </trkpt>
      <trkpt lat="43.15437" lon="2.0128">
        <ele>359.4</ele>
        <time>2026-05-28T06:06:40Z</time>
      </trkpt>
      <trkpt lat="43.15437" lon="2.0128">
        <ele>359.4</ele>
        <time>2026-05-28T06:06:45Z</time>
      </trkpt>
      <trkpt lat="43.15437" lon="2.0128">
        <ele>359.4</ele>
        <time>2026-05-28T06:06:50Z</time>
      </trkpt>
      <trkpt lat="43.15437" lon="2.0128">
        <ele>359.4</ele>
        <time>2026-05-28T06:06:55Z</time>
      </trkpt>
      <trkpt lat="43.15437" lon="2.0128">
        <ele>359.4</ele>
        <time>2026-05-28T06:07:00Z</time>
        <extensions>
          <visugpx:TrkExtension xmlns:visugpx="https://www.visugpx.com/editgpx/">
            <visugpx:node>1</visugpx:node>
            </visugpx:TrkExtension>
        </extensions>
      </trkpt>
      <trkpt lat="43.15434" lon="2.01282">
        <ele>358.9</ele>
        <time>2026-05-28T06:08:51Z</time>
      </trkpt>
      <trkpt lat="43.15436" lon="2.01282">
        <ele>359.1</ele>
        <time>2026-05-28T06:08:57Z</time>
      </trkpt>
      <trkpt lat="43.15438" lon="2.01282">
        <ele>359.4</ele>
        <time>2026-05-28T06:09:02Z</time>
      </trkpt>
      <trkpt lat="43.1544" lon="2.01282">
        <ele>359.7</ele>
        <time>2026-05-28T06:09:07Z</time>
      </trkpt>
      <trkpt lat="43.1544" lon="2.01282">
        <ele>359.7</ele>
        <time>2026-05-28T06:09:12Z</time>
      </trkpt>
      <trkpt lat="43.1544" lon="2.01282">
        <ele>359.7</ele>
        <time>2026-05-28T06:09:17Z</time>
      </trkpt>
      <trkpt lat="43.1544" lon="2.01282">
        <ele>359.7</ele>
        <time>2026-05-28T06:09:22Z</time>
      </trkpt>
      <trkpt lat="43.1544" lon="2.01282">
        <ele>359.7</ele>
        <time>2026-05-28T06:09:27Z</time>
      </trkpt>
      <trkpt lat="43.1544" lon="2.01282">
        <ele>359.7</ele>
        <time>2026-05-28T06:09:32Z</time>
      </trkpt>
      <trkpt lat="43.1544" lon="2.01282">
        <ele>359.7</ele>
        <time>2026-05-28T06:09:37Z</time>
      </trkpt>
      <trkpt lat="43.1544" lon="2.01282">
        <ele>359.7</ele>
        <time>2026-05-28T06:09:42Z</time>
      </trkpt>
      <trkpt lat="43.1544" lon="2.01282">
        <ele>359.7</ele>
        <time>2026-05-28T06:09:47Z</time>
      </trkpt>
      <trkpt lat="43.1544" lon="2.01282">
        <ele>359.7</ele>
        <time>2026-05-28T06:09:52Z</time>
      </trkpt>
      <trkpt lat="43.1544" lon="2.01282">
        <ele>359.7</ele>
        <time>2026-05-28T06:09:57Z</time>
      </trkpt>
      <trkpt lat="43.1544" lon="2.01282">
        <ele>359.7</ele>
        <time>2026-05-28T06:10:02Z</time>
      </trkpt>
      <trkpt lat="43.1544" lon="2.01282">
        <ele>359.7</ele>
        <time>2026-05-28T06:10:07Z</time>
      </trkpt>
      <trkpt lat="43.1544" lon="2.01282">
        <ele>359.7</ele>
        <time>2026-05-28T06:10:12Z</time>
      </trkpt>
      <trkpt lat="43.1544" lon="2.01282">
        <ele>359.7</ele>
        <time>2026-05-28T06:10:17Z</time>
      </trkpt>
      <trkpt lat="43.1544" lon="2.01282">
        <ele>359.7</ele>
        <time>2026-05-28T06:10:22Z</time>
      </trkpt>
      <trkpt lat="43.1544" lon="2.01282">
        <ele>359.7</ele>
        <time>2026-05-28T06:10:27Z</time>
      </trkpt>
      <trkpt lat="43.1544" lon="2.01282">
        <ele>359.7</ele>
        <time>2026-05-28T06:10:32Z</time>
      </trkpt>
      <trkpt lat="43.1544" lon="2.01282">
        <ele>359.7</ele>
        <time>2026-05-28T06:10:37Z</time>
      </trkpt>
      <trkpt lat="43.1544" lon="2.01282">
        <ele>359.7</ele>
        <time>2026-05-28T06:10:42Z</time>
      </trkpt>
      <trkpt lat="43.1544" lon="2.01282">
        <ele>359.7</ele>
        <time>2026-05-28T06:10:47Z</time>
      </trkpt>
      <trkpt lat="43.1544" lon="2.01282">
        <ele>359.7</ele>
        <time>2026-05-28T06:10:52Z</time>
      </trkpt>
      <trkpt lat="43.1544" lon="2.01282">
        <ele>359.7</ele>
        <time>2026-05-28T06:10:57Z</time>
      </trkpt>
      <trkpt lat="43.1544" lon="2.01282">
        <ele>359.7</ele>
        <time>2026-05-28T06:11:02Z</time>
      </trkpt>
      <trkpt lat="43.1544" lon="2.01282">
        <ele>359.7</ele>
        <time>2026-05-28T06:11:07Z</time>
      </trkpt>
      <trkpt lat="43.1544" lon="2.01282">
        <ele>359.7</ele>
        <time>2026-05-28T06:11:12Z</time>
      </trkpt>
      <trkpt lat="43.1544" lon="2.01282">
        <ele>359.7</ele>
        <time>2026-05-28T06:11:17Z</time>
      </trkpt>
      <trkpt lat="43.1544" lon="2.01282">
        <ele>359.7</ele>
        <time>2026-05-28T06:11:22Z</time>
      </trkpt>
      <trkpt lat="43.1544" lon="2.01282">
        <ele>359.7</ele>
        <time>2026-05-28T06:11:27Z</time>
      </trkpt>
      <trkpt lat="43.1544" lon="2.01282">
        <ele>359.7</ele>
        <time>2026-05-28T06:11:32Z</time>
      </trkpt>
      <trkpt lat="43.1544" lon="2.01282">
        <ele>359.7</ele>
        <time>2026-05-28T06:11:37Z</time>
      </trkpt>
      <trkpt lat="43.15436" lon="2.01264">
        <ele>359.8</ele>
        <time>2026-05-28T06:11:42Z</time>
      </trkpt>
      <trkpt lat="43.15436" lon="2.01264">
        <ele>359.8</ele>
        <time>2026-05-28T06:11:47Z</time>
      </trkpt>
      <trkpt lat="43.15436" lon="2.01264">
        <ele>359.8</ele>
        <time>2026-05-28T06:11:52Z</time>
      </trkpt>
      <trkpt lat="43.15436" lon="2.01264">
        <ele>359.8</ele>
        <time>2026-05-28T06:11:57Z</time>
      </trkpt>
      <trkpt lat="43.15435" lon="2.01259">
        <ele>359.9</ele>
        <time>2026-05-28T06:12:02Z</time>
      </trkpt>
      <trkpt lat="43.15435" lon="2.01259">
        <ele>359.9</ele>
        <time>2026-05-28T06:12:07Z</time>
      </trkpt>
      <trkpt lat="43.15435" lon="2.01259">
        <ele>359.9</ele>
        <time>2026-05-28T06:12:12Z</time>
      </trkpt>
      <trkpt lat="43.15435" lon="2.01259">
        <ele>359.9</ele>
        <time>2026-05-28T06:12:17Z</time>
      </trkpt>
      <trkpt lat="43.15435" lon="2.01259">
        <ele>359.9</ele>
        <time>2026-05-28T06:12:22Z</time>
      </trkpt>
      <trkpt lat="43.15436" lon="2.01256">
        <ele>360.1</ele>
        <time>2026-05-28T06:12:27Z</time>
      </trkpt>
      <trkpt lat="43.15436" lon="2.0125">
        <ele>360.3</ele>
        <time>2026-05-28T06:12:32Z</time>
      </trkpt>
      <trkpt lat="43.15435" lon="2.01244">
        <ele>360.2</ele>
        <time>2026-05-28T06:12:37Z</time>
      </trkpt>
      <trkpt lat="43.15435" lon="2.01237">
        <ele>360.1</ele>
        <time>2026-05-28T06:12:42Z</time>
      </trkpt>
      <trkpt lat="43.15435" lon="2.0123">
        <ele>360.1</ele>
        <time>2026-05-28T06:12:47Z</time>
      </trkpt>
      <trkpt lat="43.15435" lon="2.01222">
        <ele>360.1</ele>
        <time>2026-05-28T06:12:52Z</time>
      </trkpt>
      <trkpt lat="43.15434" lon="2.01215">
        <ele>359.9</ele>
        <time>2026-05-28T06:12:57Z</time>
      </trkpt>
      <trkpt lat="43.15433" lon="2.01213">
        <ele>359.8</ele>
        <time>2026-05-28T06:13:02Z</time>
      </trkpt>
      <trkpt lat="43.15433" lon="2.01213">
        <ele>359.8</ele>
        <time>2026-05-28T06:13:07Z</time>
      </trkpt>
      <trkpt lat="43.15433" lon="2.01213">
        <ele>359.8</ele>
        <time>2026-05-28T06:13:12Z</time>
      </trkpt>
      <trkpt lat="43.15433" lon="2.01213">
        <ele>359.8</ele>
        <time>2026-05-28T06:13:17Z</time>
      </trkpt>
      <trkpt lat="43.15433" lon="2.01213">
        <ele>359.8</ele>
        <time>2026-05-28T06:13:22Z</time>
      </trkpt>
      <trkpt lat="43.15433" lon="2.01213">
        <ele>359.8</ele>
        <time>2026-05-28T06:13:27Z</time>
      </trkpt>
      <trkpt lat="43.15433" lon="2.01213">
        <ele>359.8</ele>
        <time>2026-05-28T06:13:32Z</time>
      </trkpt>
      <trkpt lat="43.15433" lon="2.01213">
        <ele>359.8</ele>
        <time>2026-05-28T06:13:37Z</time>
      </trkpt>
      <trkpt lat="43.15433" lon="2.01213">
        <ele>359.8</ele>
        <time>2026-05-28T06:13:42Z</time>
      </trkpt>
      <trkpt lat="43.15433" lon="2.01213">
        <ele>359.8</ele>
        <time>2026-05-28T06:13:47Z</time>
      </trkpt>
      <trkpt lat="43.15433" lon="2.01213">
        <ele>359.8</ele>
        <time>2026-05-28T06:13:52Z</time>
      </trkpt>
      <trkpt lat="43.15433" lon="2.01213">
        <ele>359.8</ele>
        <time>2026-05-28T06:13:57Z</time>
      </trkpt>
      <trkpt lat="43.15433" lon="2.01213">
        <ele>359.8</ele>
        <time>2026-05-28T06:14:02Z</time>
      </trkpt>
      <trkpt lat="43.15433" lon="2.01213">
        <ele>359.8</ele>
        <time>2026-05-28T06:14:07Z</time>
      </trkpt>
      <trkpt lat="43.15433" lon="2.0121">
        <ele>359.8</ele>
        <time>2026-05-28T06:14:12Z</time>
      </trkpt>
      <trkpt lat="43.15433" lon="2.01202">
        <ele>359.7</ele>
        <time>2026-05-28T06:14:17Z</time>
      </trkpt>
      <trkpt lat="43.15433" lon="2.01194">
        <ele>359.7</ele>
        <time>2026-05-28T06:14:22Z</time>
      </trkpt>
      <trkpt lat="43.15431" lon="2.0119">
        <ele>359.5</ele>
        <time>2026-05-28T06:14:27Z</time>
      </trkpt>
      <trkpt lat="43.15431" lon="2.01186">
        <ele>359.5</ele>
        <time>2026-05-28T06:14:32Z</time>
      </trkpt>
      <trkpt lat="43.15429" lon="2.01178">
        <ele>359.2</ele>
        <time>2026-05-28T06:14:37Z</time>
      </trkpt>
      <trkpt lat="43.15428" lon="2.01171">
        <ele>359.1</ele>
        <time>2026-05-28T06:14:42Z</time>
      </trkpt>
      <trkpt lat="43.15426" lon="2.01163">
        <ele>358.9</ele>
        <time>2026-05-28T06:14:47Z</time>
      </trkpt>
      <trkpt lat="43.15426" lon="2.01163">
        <ele>358.9</ele>
        <time>2026-05-28T06:14:52Z</time>
      </trkpt>
      <trkpt lat="43.15426" lon="2.01163">
        <ele>358.9</ele>
        <time>2026-05-28T06:14:57Z</time>
      </trkpt>
      <trkpt lat="43.15426" lon="2.01157">
        <ele>358.9</ele>
        <time>2026-05-28T06:15:02Z</time>
      </trkpt>
      <trkpt lat="43.15425" lon="2.01155">
        <ele>358.8</ele>
        <time>2026-05-28T06:15:07Z</time>
      </trkpt>
      <trkpt lat="43.15425" lon="2.0115">
        <ele>358.7</ele>
        <time>2026-05-28T06:15:12Z</time>
      </trkpt>
      <trkpt lat="43.15424" lon="2.01141">
        <ele>358.6</ele>
        <time>2026-05-28T06:15:17Z</time>
      </trkpt>
      <trkpt lat="43.15423" lon="2.01133">
        <ele>358.5</ele>
        <time>2026-05-28T06:15:22Z</time>
      </trkpt>
      <trkpt lat="43.15422" lon="2.01124">
        <ele>358.4</ele>
        <time>2026-05-28T06:15:27Z</time>
      </trkpt>
      <trkpt lat="43.1542" lon="2.01115">
        <ele>358.2</ele>
        <time>2026-05-28T06:15:32Z</time>
      </trkpt>
      <trkpt lat="43.15418" lon="2.01106">
        <ele>358.1</ele>
        <time>2026-05-28T06:15:37Z</time>
      </trkpt>
      <trkpt lat="43.15417" lon="2.01098">
        <ele>358</ele>
        <time>2026-05-28T06:15:42Z</time>
      </trkpt>
      <trkpt lat="43.15416" lon="2.01089">
        <ele>358</ele>
        <time>2026-05-28T06:15:47Z</time>
      </trkpt>
      <trkpt lat="43.15414" lon="2.01081">
        <ele>357.9</ele>
        <time>2026-05-28T06:15:52Z</time>
      </trkpt>
      <trkpt lat="43.15412" lon="2.01073">
        <ele>357.9</ele>
        <time>2026-05-28T06:15:57Z</time>
      </trkpt>
      <trkpt lat="43.15409" lon="2.01069">
        <ele>357.8</ele>
        <time>2026-05-28T06:16:02Z</time>
      </trkpt>
      <trkpt lat="43.15404" lon="2.01074">
        <ele>357.5</ele>
        <time>2026-05-28T06:16:07Z</time>
      </trkpt>
      <trkpt lat="43.15403" lon="2.01083">
        <ele>357.3</ele>
        <time>2026-05-28T06:16:12Z</time>
      </trkpt>
      <trkpt lat="43.15401" lon="2.01093">
        <ele>357.3</ele>
        <time>2026-05-28T06:16:17Z</time>
      </trkpt>
      <trkpt lat="43.15399" lon="2.01101">
        <ele>357.2</ele>
        <time>2026-05-28T06:16:22Z</time>
      </trkpt>
      <trkpt lat="43.15397" lon="2.0111">
        <ele>357.1</ele>
        <time>2026-05-28T06:16:27Z</time>
      </trkpt>
      <trkpt lat="43.15395" lon="2.01119">
        <ele>357.1</ele>
        <time>2026-05-28T06:16:32Z</time>
      </trkpt>
      <trkpt lat="43.15394" lon="2.01125">
        <ele>357</ele>
        <time>2026-05-28T06:16:37Z</time>
      </trkpt>
      <trkpt lat="43.15394" lon="2.01126">
        <ele>357.1</ele>
        <time>2026-05-28T06:16:42Z</time>
      </trkpt>
      <trkpt lat="43.15394" lon="2.01127">
        <ele>357.1</ele>
        <time>2026-05-28T06:16:47Z</time>
      </trkpt>
      <trkpt lat="43.15394" lon="2.01127">
        <ele>357.1</ele>
        <time>2026-05-28T06:16:52Z</time>
      </trkpt>
      <trkpt lat="43.15394" lon="2.01127">
        <ele>357.1</ele>
        <time>2026-05-28T06:16:57Z</time>
      </trkpt>
      <trkpt lat="43.15394" lon="2.01127">
        <ele>357.1</ele>
        <time>2026-05-28T06:17:02Z</time>
      </trkpt>
      <trkpt lat="43.15394" lon="2.01127">
        <ele>357.1</ele>
        <time>2026-05-28T06:17:07Z</time>
      </trkpt>
      <trkpt lat="43.15394" lon="2.01127">
        <ele>357.1</ele>
        <time>2026-05-28T06:17:12Z</time>
      </trkpt>
      <trkpt lat="43.15394" lon="2.01127">
        <ele>357.1</ele>
        <time>2026-05-28T06:17:17Z</time>
      </trkpt>
      <trkpt lat="43.15394" lon="2.01127">
        <ele>357.1</ele>
        <time>2026-05-28T06:17:22Z</time>
      </trkpt>
      <trkpt lat="43.15394" lon="2.01127">
        <ele>357.1</ele>
        <time>2026-05-28T06:17:27Z</time>
      </trkpt>
      <trkpt lat="43.15394" lon="2.01127">
        <ele>357.1</ele>
        <time>2026-05-28T06:17:32Z</time>
      </trkpt>
      <trkpt lat="43.15394" lon="2.01127">
        <ele>357.1</ele>
        <time>2026-05-28T06:17:37Z</time>
      </trkpt>
      <trkpt lat="43.15394" lon="2.01127">
        <ele>357.1</ele>
        <time>2026-05-28T06:17:42Z</time>
      </trkpt>
      <trkpt lat="43.15394" lon="2.01127">
        <ele>357.1</ele>
        <time>2026-05-28T06:17:47Z</time>
      </trkpt>
      <trkpt lat="43.15394" lon="2.01127">
        <ele>357.1</ele>
        <time>2026-05-28T06:17:52Z</time>
      </trkpt>
      <trkpt lat="43.15394" lon="2.01127">
        <ele>357.1</ele>
        <time>2026-05-28T06:17:57Z</time>
      </trkpt>
      <trkpt lat="43.15394" lon="2.01127">
        <ele>357.1</ele>
        <time>2026-05-28T06:18:02Z</time>
      </trkpt>
      <trkpt lat="43.15394" lon="2.01127">
        <ele>357.1</ele>
        <time>2026-05-28T06:18:07Z</time>
      </trkpt>
      <trkpt lat="43.15394" lon="2.01127">
        <ele>357.1</ele>
        <time>2026-05-28T06:18:12Z</time>
      </trkpt>
      <trkpt lat="43.15394" lon="2.01127">
        <ele>357.1</ele>
        <time>2026-05-28T06:18:17Z</time>
      </trkpt>
      <trkpt lat="43.15394" lon="2.01127">
        <ele>357.1</ele>
        <time>2026-05-28T06:18:22Z</time>
      </trkpt>
      <trkpt lat="43.15394" lon="2.01127">
        <ele>357.1</ele>
        <time>2026-05-28T06:18:27Z</time>
      </trkpt>
      <trkpt lat="43.15394" lon="2.01127">
        <ele>357.1</ele>
        <time>2026-05-28T06:18:32Z</time>
      </trkpt>
      <trkpt lat="43.15394" lon="2.01127">
        <ele>357.1</ele>
        <time>2026-05-28T06:18:37Z</time>
      </trkpt>
      <trkpt lat="43.15394" lon="2.01127">
        <ele>357.1</ele>
        <time>2026-05-28T06:18:42Z</time>
      </trkpt>
      <trkpt lat="43.15394" lon="2.01127">
        <ele>357.1</ele>
        <time>2026-05-28T06:18:47Z</time>
      </trkpt>
      <trkpt lat="43.15394" lon="2.01127">
        <ele>357.1</ele>
        <time>2026-05-28T06:18:52Z</time>
      </trkpt>
      <trkpt lat="43.15394" lon="2.01128">
        <ele>357.1</ele>
        <time>2026-05-28T06:18:57Z</time>
      </trkpt>
      <trkpt lat="43.15392" lon="2.01134">
        <ele>357</ele>
        <time>2026-05-28T06:19:02Z</time>
      </trkpt>
      <trkpt lat="43.15391" lon="2.01141">
        <ele>357</ele>
        <time>2026-05-28T06:19:07Z</time>
      </trkpt>
      <trkpt lat="43.15389" lon="2.01148">
        <ele>356.9</ele>
        <time>2026-05-28T06:19:12Z</time>
      </trkpt>
      <trkpt lat="43.15387" lon="2.01156">
        <ele>356.9</ele>
        <time>2026-05-28T06:19:17Z</time>
      </trkpt>
      <trkpt lat="43.15386" lon="2.01164">
        <ele>356.9</ele>
        <time>2026-05-28T06:19:22Z</time>
      </trkpt>
      <trkpt lat="43.15383" lon="2.01173">
        <ele>356.9</ele>
        <time>2026-05-28T06:19:27Z</time>
      </trkpt>
      <trkpt lat="43.15381" lon="2.01181">
        <ele>356.9</ele>
        <time>2026-05-28T06:19:32Z</time>
      </trkpt>
      <trkpt lat="43.15379" lon="2.0119">
        <ele>357</ele>
        <time>2026-05-28T06:19:37Z</time>
      </trkpt>
      <trkpt lat="43.15378" lon="2.01198">
        <ele>357.1</ele>
        <time>2026-05-28T06:19:42Z</time>
      </trkpt>
      <trkpt lat="43.15376" lon="2.01208">
        <ele>357.3</ele>
        <time>2026-05-28T06:19:47Z</time>
      </trkpt>
      <trkpt lat="43.15374" lon="2.01216">
        <ele>357.4</ele>
        <time>2026-05-28T06:19:52Z</time>
      </trkpt>
      <trkpt lat="43.15372" lon="2.01224">
        <ele>357.5</ele>
        <time>2026-05-28T06:19:57Z</time>
      </trkpt>
      <trkpt lat="43.1537" lon="2.01232">
        <ele>357.6</ele>
        <time>2026-05-28T06:20:02Z</time>
      </trkpt>
      <trkpt lat="43.15369" lon="2.0124">
        <ele>357.8</ele>
        <time>2026-05-28T06:20:07Z</time>
      </trkpt>
      <trkpt lat="43.15368" lon="2.0125">
        <ele>358</ele>
        <time>2026-05-28T06:20:12Z</time>
      </trkpt>
      <trkpt lat="43.15368" lon="2.01258">
        <ele>357.8</ele>
        <time>2026-05-28T06:20:17Z</time>
      </trkpt>
      <trkpt lat="43.15367" lon="2.01262">
        <ele>357.7</ele>
        <time>2026-05-28T06:20:22Z</time>
      </trkpt>
      <trkpt lat="43.15362" lon="2.01262">
        <ele>357.7</ele>
        <time>2026-05-28T06:20:27Z</time>
      </trkpt>
      <trkpt lat="43.15356" lon="2.01263">
        <ele>357.7</ele>
        <time>2026-05-28T06:20:32Z</time>
      </trkpt>
      <trkpt lat="43.1535" lon="2.01266">
        <ele>357.7</ele>
        <time>2026-05-28T06:20:37Z</time>
      </trkpt>
      <trkpt lat="43.15344" lon="2.01268">
        <ele>357.7</ele>
        <time>2026-05-28T06:20:42Z</time>
      </trkpt>
      <trkpt lat="43.15338" lon="2.01269">
        <ele>357.7</ele>
        <time>2026-05-28T06:20:47Z</time>
      </trkpt>
      <trkpt lat="43.15331" lon="2.0127">
        <ele>357.9</ele>
        <time>2026-05-28T06:20:52Z</time>
      </trkpt>
      <trkpt lat="43.15324" lon="2.0127">
        <ele>358.1</ele>
        <time>2026-05-28T06:20:57Z</time>
      </trkpt>
      <trkpt lat="43.15317" lon="2.01268">
        <ele>358.4</ele>
        <time>2026-05-28T06:21:02Z</time>
      </trkpt>
      <trkpt lat="43.1531" lon="2.01267">
        <ele>358.7</ele>
        <time>2026-05-28T06:21:07Z</time>
      </trkpt>
      <trkpt lat="43.15305" lon="2.01265">
        <ele>358.9</ele>
        <time>2026-05-28T06:21:12Z</time>
      </trkpt>
      <trkpt lat="43.15299" lon="2.01265">
        <ele>359.1</ele>
        <time>2026-05-28T06:21:17Z</time>
      </trkpt>
      <trkpt lat="43.15291" lon="2.01264">
        <ele>359.4</ele>
        <time>2026-05-28T06:21:22Z</time>
      </trkpt>
      <trkpt lat="43.15284" lon="2.01262">
        <ele>359.6</ele>
        <time>2026-05-28T06:21:27Z</time>
      </trkpt>
      <trkpt lat="43.15277" lon="2.01262">
        <ele>359.8</ele>
        <time>2026-05-28T06:21:32Z</time>
      </trkpt>
      <trkpt lat="43.15271" lon="2.01262">
        <ele>360</ele>
        <time>2026-05-28T06:21:37Z</time>
      </trkpt>
      <trkpt lat="43.15265" lon="2.01262">
        <ele>360.2</ele>
        <time>2026-05-28T06:21:42Z</time>
      </trkpt>
      <trkpt lat="43.15259" lon="2.01262">
        <ele>360.4</ele>
        <time>2026-05-28T06:21:47Z</time>
      </trkpt>
      <trkpt lat="43.15252" lon="2.01262">
        <ele>360.7</ele>
        <time>2026-05-28T06:21:52Z</time>
      </trkpt>
      <trkpt lat="43.15245" lon="2.01259">
        <ele>360.2</ele>
        <time>2026-05-28T06:21:57Z</time>
      </trkpt>
      <trkpt lat="43.15239" lon="2.01256">
        <ele>359.5</ele>
        <time>2026-05-28T06:22:02Z</time>
      </trkpt>
      <trkpt lat="43.15233" lon="2.01256">
        <ele>359.1</ele>
        <time>2026-05-28T06:22:07Z</time>
      </trkpt>
      <trkpt lat="43.15227" lon="2.01256">
        <ele>358.6</ele>
        <time>2026-05-28T06:22:12Z</time>
      </trkpt>
      <trkpt lat="43.15221" lon="2.01256">
        <ele>358.2</ele>
        <time>2026-05-28T06:22:17Z</time>
      </trkpt>
      <trkpt lat="43.15215" lon="2.01257">
        <ele>357.8</ele>
        <time>2026-05-28T06:22:22Z</time>
      </trkpt>
      <trkpt lat="43.15209" lon="2.01259">
        <ele>357.4</ele>
        <time>2026-05-28T06:22:27Z</time>
      </trkpt>
      <trkpt lat="43.15203" lon="2.01259">
        <ele>357</ele>
        <time>2026-05-28T06:22:32Z</time>
      </trkpt>
      <trkpt lat="43.15197" lon="2.01258">
        <ele>356.5</ele>
        <time>2026-05-28T06:22:37Z</time>
      </trkpt>
      <trkpt lat="43.15192" lon="2.01258">
        <ele>356.1</ele>
        <time>2026-05-28T06:22:42Z</time>
      </trkpt>
      <trkpt lat="43.15186" lon="2.01259">
        <ele>355.7</ele>
        <time>2026-05-28T06:22:47Z</time>
      </trkpt>
      <trkpt lat="43.15179" lon="2.01259">
        <ele>355.2</ele>
        <time>2026-05-28T06:22:52Z</time>
      </trkpt>
      <trkpt lat="43.15173" lon="2.01259">
        <ele>354.7</ele>
        <time>2026-05-28T06:22:57Z</time>
      </trkpt>
      <trkpt lat="43.15166" lon="2.01259">
        <ele>354.2</ele>
        <time>2026-05-28T06:23:02Z</time>
      </trkpt>
      <trkpt lat="43.15159" lon="2.01258">
        <ele>353.8</ele>
        <time>2026-05-28T06:23:07Z</time>
      </trkpt>
      <trkpt lat="43.15153" lon="2.01258">
        <ele>353.5</ele>
        <time>2026-05-28T06:23:12Z</time>
      </trkpt>
      <trkpt lat="43.15145" lon="2.01257">
        <ele>353.1</ele>
        <time>2026-05-28T06:23:17Z</time>
      </trkpt>
      <trkpt lat="43.15137" lon="2.01258">
        <ele>352.7</ele>
        <time>2026-05-28T06:23:22Z</time>
      </trkpt>
      <trkpt lat="43.15131" lon="2.01256">
        <ele>352.3</ele>
        <time>2026-05-28T06:23:27Z</time>
      </trkpt>
      <trkpt lat="43.15124" lon="2.01257">
        <ele>352</ele>
        <time>2026-05-28T06:23:32Z</time>
      </trkpt>
      <trkpt lat="43.15117" lon="2.01257">
        <ele>351.6</ele>
        <time>2026-05-28T06:23:37Z</time>
      </trkpt>
      <trkpt lat="43.1511" lon="2.01258">
        <ele>351.3</ele>
        <time>2026-05-28T06:23:42Z</time>
      </trkpt>
      <trkpt lat="43.15103" lon="2.01257">
        <ele>350.9</ele>
        <time>2026-05-28T06:23:47Z</time>
      </trkpt>
      <trkpt lat="43.15096" lon="2.01256">
        <ele>350.6</ele>
        <time>2026-05-28T06:23:52Z</time>
      </trkpt>
      <trkpt lat="43.1509" lon="2.01256">
        <ele>350.3</ele>
        <time>2026-05-28T06:23:57Z</time>
      </trkpt>
      <trkpt lat="43.15083" lon="2.01256">
        <ele>350</ele>
        <time>2026-05-28T06:24:02Z</time>
      </trkpt>
      <trkpt lat="43.1508" lon="2.01255">
        <ele>350.2</ele>
        <time>2026-05-28T06:24:07Z</time>
      </trkpt>
      <trkpt lat="43.1508" lon="2.01254">
        <ele>350.2</ele>
        <time>2026-05-28T06:24:12Z</time>
      </trkpt>
      <trkpt lat="43.1508" lon="2.01254">
        <ele>350.2</ele>
        <time>2026-05-28T06:24:17Z</time>
      </trkpt>
      <trkpt lat="43.15073" lon="2.01255">
        <ele>350.7</ele>
        <time>2026-05-28T06:24:22Z</time>
      </trkpt>
      <trkpt lat="43.15067" lon="2.01253">
        <ele>351.2</ele>
        <time>2026-05-28T06:24:27Z</time>
      </trkpt>
      <trkpt lat="43.15061" lon="2.01253">
        <ele>351.6</ele>
        <time>2026-05-28T06:24:32Z</time>
      </trkpt>
      <trkpt lat="43.15055" lon="2.01252">
        <ele>352</ele>
        <time>2026-05-28T06:24:37Z</time>
      </trkpt>
      <trkpt lat="43.15048" lon="2.01251">
        <ele>352.5</ele>
        <time>2026-05-28T06:24:42Z</time>
      </trkpt>
      <trkpt lat="43.15042" lon="2.01249">
        <ele>353</ele>
        <time>2026-05-28T06:24:47Z</time>
      </trkpt>
      <trkpt lat="43.15035" lon="2.01246">
        <ele>353.4</ele>
        <time>2026-05-28T06:24:52Z</time>
      </trkpt>
      <trkpt lat="43.1503" lon="2.0124">
        <ele>353.7</ele>
        <time>2026-05-28T06:24:57Z</time>
      </trkpt>
      <trkpt lat="43.15023" lon="2.01237">
        <ele>354.2</ele>
        <time>2026-05-28T06:25:02Z</time>
      </trkpt>
      <trkpt lat="43.15018" lon="2.01234">
        <ele>354.4</ele>
        <time>2026-05-28T06:25:07Z</time>
      </trkpt>
      <trkpt lat="43.15012" lon="2.01231">
        <ele>354.8</ele>
        <time>2026-05-28T06:25:12Z</time>
      </trkpt>
      <trkpt lat="43.15006" lon="2.01227">
        <ele>355.1</ele>
        <time>2026-05-28T06:25:17Z</time>
      </trkpt>
      <trkpt lat="43.15" lon="2.01223">
        <ele>355.4</ele>
        <time>2026-05-28T06:25:22Z</time>
      </trkpt>
      <trkpt lat="43.14993" lon="2.0122">
        <ele>355.5</ele>
        <time>2026-05-28T06:25:27Z</time>
      </trkpt>
      <trkpt lat="43.14988" lon="2.01216">
        <ele>355.5</ele>
        <time>2026-05-28T06:25:32Z</time>
      </trkpt>
      <trkpt lat="43.14983" lon="2.01211">
        <ele>355.6</ele>
        <time>2026-05-28T06:25:37Z</time>
      </trkpt>
      <trkpt lat="43.14979" lon="2.01207">
        <ele>355.6</ele>
        <time>2026-05-28T06:25:42Z</time>
      </trkpt>
      <trkpt lat="43.14975" lon="2.01203">
        <ele>355.6</ele>
        <time>2026-05-28T06:25:47Z</time>
      </trkpt>
      <trkpt lat="43.1497" lon="2.01199">
        <ele>355.7</ele>
        <time>2026-05-28T06:25:52Z</time>
      </trkpt>
      <trkpt lat="43.14965" lon="2.01195">
        <ele>355.8</ele>
        <time>2026-05-28T06:25:57Z</time>
      </trkpt>
      <trkpt lat="43.1496" lon="2.01192">
        <ele>355.9</ele>
        <time>2026-05-28T06:26:02Z</time>
      </trkpt>
      <trkpt lat="43.14956" lon="2.01189">
        <ele>356</ele>
        <time>2026-05-28T06:26:07Z</time>
      </trkpt>
      <trkpt lat="43.14951" lon="2.01185">
        <ele>356.1</ele>
        <time>2026-05-28T06:26:12Z</time>
      </trkpt>
      <trkpt lat="43.14946" lon="2.01182">
        <ele>356.2</ele>
        <time>2026-05-28T06:26:17Z</time>
      </trkpt>
      <trkpt lat="43.14941" lon="2.01179">
        <ele>356.3</ele>
        <time>2026-05-28T06:26:22Z</time>
      </trkpt>
      <trkpt lat="43.14936" lon="2.01176">
        <ele>356.4</ele>
        <time>2026-05-28T06:26:27Z</time>
      </trkpt>
      <trkpt lat="43.14932" lon="2.01174">
        <ele>356.6</ele>
        <time>2026-05-28T06:26:32Z</time>
      </trkpt>
      <trkpt lat="43.14928" lon="2.01171">
        <ele>356.7</ele>
        <time>2026-05-28T06:26:37Z</time>
      </trkpt>
      <trkpt lat="43.14921" lon="2.01168">
        <ele>356.9</ele>
        <time>2026-05-28T06:26:42Z</time>
      </trkpt>
      <trkpt lat="43.14917" lon="2.01165">
        <ele>357</ele>
        <time>2026-05-28T06:26:47Z</time>
      </trkpt>
      <trkpt lat="43.14913" lon="2.0116">
        <ele>357.1</ele>
        <time>2026-05-28T06:26:52Z</time>
      </trkpt>
      <trkpt lat="43.14907" lon="2.01157">
        <ele>357.1</ele>
        <time>2026-05-28T06:26:57Z</time>
      </trkpt>
      <trkpt lat="43.14903" lon="2.01156">
        <ele>357.1</ele>
        <time>2026-05-28T06:27:02Z</time>
      </trkpt>
      <trkpt lat="43.14897" lon="2.01153">
        <ele>357.1</ele>
        <time>2026-05-28T06:27:07Z</time>
      </trkpt>
      <trkpt lat="43.14892" lon="2.0115">
        <ele>357.1</ele>
        <time>2026-05-28T06:27:12Z</time>
      </trkpt>
      <trkpt lat="43.14886" lon="2.01147">
        <ele>357.1</ele>
        <time>2026-05-28T06:27:17Z</time>
      </trkpt>
      <trkpt lat="43.14883" lon="2.01145">
        <ele>357.2</ele>
        <time>2026-05-28T06:27:22Z</time>
      </trkpt>
      <trkpt lat="43.14882" lon="2.01143">
        <ele>357.2</ele>
        <time>2026-05-28T06:27:27Z</time>
      </trkpt>
      <trkpt lat="43.14882" lon="2.01142">
        <ele>357.2</ele>
        <time>2026-05-28T06:27:32Z</time>
      </trkpt>
      <trkpt lat="43.14882" lon="2.01142">
        <ele>357.2</ele>
        <time>2026-05-28T06:27:37Z</time>
      </trkpt>
      <trkpt lat="43.1488" lon="2.01136">
        <ele>357.2</ele>
        <time>2026-05-28T06:27:42Z</time>
      </trkpt>
      <trkpt lat="43.14875" lon="2.01133">
        <ele>357.2</ele>
        <time>2026-05-28T06:27:47Z</time>
      </trkpt>
      <trkpt lat="43.14868" lon="2.01129">
        <ele>357.2</ele>
        <time>2026-05-28T06:27:52Z</time>
      </trkpt>
      <trkpt lat="43.14862" lon="2.01125">
        <ele>357.2</ele>
        <time>2026-05-28T06:27:57Z</time>
      </trkpt>
      <trkpt lat="43.14856" lon="2.0112">
        <ele>357.2</ele>
        <time>2026-05-28T06:28:02Z</time>
      </trkpt>
      <trkpt lat="43.1485" lon="2.01115">
        <ele>357.1</ele>
        <time>2026-05-28T06:28:07Z</time>
      </trkpt>
      <trkpt lat="43.14846" lon="2.01113">
        <ele>357.1</ele>
        <time>2026-05-28T06:28:12Z</time>
      </trkpt>
      <trkpt lat="43.14841" lon="2.0111">
        <ele>357.1</ele>
        <time>2026-05-28T06:28:17Z</time>
      </trkpt>
      <trkpt lat="43.14836" lon="2.01105">
        <ele>357</ele>
        <time>2026-05-28T06:28:22Z</time>
      </trkpt>
      <trkpt lat="43.1483" lon="2.01103">
        <ele>357</ele>
        <time>2026-05-28T06:28:27Z</time>
      </trkpt>
      <trkpt lat="43.14827" lon="2.011">
        <ele>357.1</ele>
        <time>2026-05-28T06:28:32Z</time>
      </trkpt>
      <trkpt lat="43.14824" lon="2.01096">
        <ele>357.1</ele>
        <time>2026-05-28T06:28:37Z</time>
      </trkpt>
      <trkpt lat="43.14818" lon="2.01093">
        <ele>357.2</ele>
        <time>2026-05-28T06:28:42Z</time>
      </trkpt>
      <trkpt lat="43.14813" lon="2.01088">
        <ele>357.2</ele>
        <time>2026-05-28T06:28:47Z</time>
      </trkpt>
      <trkpt lat="43.14808" lon="2.01082">
        <ele>357.3</ele>
        <time>2026-05-28T06:28:52Z</time>
      </trkpt>
      <trkpt lat="43.14807" lon="2.0108">
        <ele>357.3</ele>
        <time>2026-05-28T06:28:57Z</time>
      </trkpt>
      <trkpt lat="43.14806" lon="2.01079">
        <ele>357.3</ele>
        <time>2026-05-28T06:29:02Z</time>
      </trkpt>
      <trkpt lat="43.14804" lon="2.01074">
        <ele>357.4</ele>
        <time>2026-05-28T06:29:07Z</time>
      </trkpt>
      <trkpt lat="43.148" lon="2.01067">
        <ele>357.4</ele>
        <time>2026-05-28T06:29:12Z</time>
      </trkpt>
      <trkpt lat="43.14796" lon="2.01059">
        <ele>357.4</ele>
        <time>2026-05-28T06:29:17Z</time>
      </trkpt>
      <trkpt lat="43.14792" lon="2.01055">
        <ele>357.5</ele>
        <time>2026-05-28T06:29:22Z</time>
      </trkpt>
      <trkpt lat="43.14788" lon="2.01048">
        <ele>357.5</ele>
        <time>2026-05-28T06:29:27Z</time>
      </trkpt>
      <trkpt lat="43.14783" lon="2.01042">
        <ele>357.6</ele>
        <time>2026-05-28T06:29:32Z</time>
      </trkpt>
      <trkpt lat="43.1478" lon="2.01036">
        <ele>357.6</ele>
        <time>2026-05-28T06:29:37Z</time>
      </trkpt>
      <trkpt lat="43.14776" lon="2.01029">
        <ele>357.7</ele>
        <time>2026-05-28T06:29:42Z</time>
      </trkpt>
      <trkpt lat="43.14772" lon="2.01023">
        <ele>357.7</ele>
        <time>2026-05-28T06:29:47Z</time>
      </trkpt>
      <trkpt lat="43.14769" lon="2.01017">
        <ele>357.8</ele>
        <time>2026-05-28T06:29:52Z</time>
      </trkpt>
      <trkpt lat="43.14765" lon="2.0101">
        <ele>357.8</ele>
        <time>2026-05-28T06:29:57Z</time>
      </trkpt>
      <trkpt lat="43.14761" lon="2.01003">
        <ele>357.9</ele>
        <time>2026-05-28T06:30:02Z</time>
      </trkpt>
      <trkpt lat="43.14758" lon="2.01">
        <ele>357.9</ele>
        <time>2026-05-28T06:30:07Z</time>
      </trkpt>
      <trkpt lat="43.14754" lon="2.00994">
        <ele>358.4</ele>
        <time>2026-05-28T06:30:12Z</time>
      </trkpt>
      <trkpt lat="43.1475" lon="2.00991">
        <ele>358.6</ele>
        <time>2026-05-28T06:30:17Z</time>
      </trkpt>
      <trkpt lat="43.14745" lon="2.00985">
        <ele>359.5</ele>
        <time>2026-05-28T06:30:22Z</time>
      </trkpt>
      <trkpt lat="43.14741" lon="2.00982">
        <ele>360</ele>
        <time>2026-05-28T06:30:27Z</time>
      </trkpt>
      <trkpt lat="43.14735" lon="2.00974">
        <ele>361</ele>
        <time>2026-05-28T06:30:32Z</time>
      </trkpt>
      <trkpt lat="43.14732" lon="2.00969">
        <ele>361.5</ele>
        <time>2026-05-28T06:30:37Z</time>
      </trkpt>
      <trkpt lat="43.14727" lon="2.00965">
        <ele>362.1</ele>
        <time>2026-05-28T06:30:42Z</time>
      </trkpt>
      <trkpt lat="43.14723" lon="2.0096">
        <ele>362.7</ele>
        <time>2026-05-28T06:30:47Z</time>
      </trkpt>
      <trkpt lat="43.14718" lon="2.00956">
        <ele>363.2</ele>
        <time>2026-05-28T06:30:52Z</time>
      </trkpt>
      <trkpt lat="43.14714" lon="2.00951">
        <ele>363.8</ele>
        <time>2026-05-28T06:30:57Z</time>
      </trkpt>
      <trkpt lat="43.14709" lon="2.00946">
        <ele>364.4</ele>
        <time>2026-05-28T06:31:02Z</time>
      </trkpt>
      <trkpt lat="43.14704" lon="2.00939">
        <ele>365</ele>
        <time>2026-05-28T06:31:07Z</time>
      </trkpt>
      <trkpt lat="43.14699" lon="2.00934">
        <ele>365.6</ele>
        <time>2026-05-28T06:31:12Z</time>
      </trkpt>
      <trkpt lat="43.14695" lon="2.00927">
        <ele>366.1</ele>
        <time>2026-05-28T06:31:17Z</time>
      </trkpt>
      <trkpt lat="43.1469" lon="2.00922">
        <ele>366.6</ele>
        <time>2026-05-28T06:31:22Z</time>
      </trkpt>
      <trkpt lat="43.14686" lon="2.00917">
        <ele>367.1</ele>
        <time>2026-05-28T06:31:27Z</time>
      </trkpt>
      <trkpt lat="43.14682" lon="2.00915">
        <ele>367.3</ele>
        <time>2026-05-28T06:31:32Z</time>
      </trkpt>
      <trkpt lat="43.14679" lon="2.0091">
        <ele>367.7</ele>
        <time>2026-05-28T06:31:37Z</time>
      </trkpt>
      <trkpt lat="43.14675" lon="2.00907">
        <ele>368.1</ele>
        <time>2026-05-28T06:31:42Z</time>
      </trkpt>
      <trkpt lat="43.14671" lon="2.00903">
        <ele>368.5</ele>
        <time>2026-05-28T06:31:47Z</time>
      </trkpt>
      <trkpt lat="43.14668" lon="2.00898">
        <ele>368.8</ele>
        <time>2026-05-28T06:31:52Z</time>
      </trkpt>
      <trkpt lat="43.14665" lon="2.00894">
        <ele>368.9</ele>
        <time>2026-05-28T06:31:57Z</time>
      </trkpt>
      <trkpt lat="43.14662" lon="2.00891">
        <ele>368.7</ele>
        <time>2026-05-28T06:32:02Z</time>
      </trkpt>
      <trkpt lat="43.14658" lon="2.00888">
        <ele>368.5</ele>
        <time>2026-05-28T06:32:07Z</time>
      </trkpt>
      <trkpt lat="43.14656" lon="2.00883">
        <ele>368.5</ele>
        <time>2026-05-28T06:32:12Z</time>
      </trkpt>
      <trkpt lat="43.14652" lon="2.00879">
        <ele>368.2</ele>
        <time>2026-05-28T06:32:17Z</time>
      </trkpt>
      <trkpt lat="43.14649" lon="2.00874">
        <ele>368.1</ele>
        <time>2026-05-28T06:32:22Z</time>
      </trkpt>
      <trkpt lat="43.14646" lon="2.0087">
        <ele>368</ele>
        <time>2026-05-28T06:32:27Z</time>
      </trkpt>
      <trkpt lat="43.14644" lon="2.00865">
        <ele>368</ele>
        <time>2026-05-28T06:32:32Z</time>
      </trkpt>
      <trkpt lat="43.14642" lon="2.00861">
        <ele>367.9</ele>
        <time>2026-05-28T06:32:37Z</time>
      </trkpt>
      <trkpt lat="43.1464" lon="2.00855">
        <ele>367.9</ele>
        <time>2026-05-28T06:32:42Z</time>
      </trkpt>
      <trkpt lat="43.14638" lon="2.00849">
        <ele>367.9</ele>
        <time>2026-05-28T06:32:47Z</time>
      </trkpt>
      <trkpt lat="43.14636" lon="2.00842">
        <ele>368</ele>
        <time>2026-05-28T06:32:52Z</time>
      </trkpt>
      <trkpt lat="43.14634" lon="2.00837">
        <ele>367.9</ele>
        <time>2026-05-28T06:32:57Z</time>
      </trkpt>
      <trkpt lat="43.14633" lon="2.00833">
        <ele>368</ele>
        <time>2026-05-28T06:33:02Z</time>
      </trkpt>
      <trkpt lat="43.14632" lon="2.00828">
        <ele>368.1</ele>
        <time>2026-05-28T06:33:07Z</time>
      </trkpt>
      <trkpt lat="43.1463" lon="2.00824">
        <ele>368</ele>
        <time>2026-05-28T06:33:12Z</time>
      </trkpt>
      <trkpt lat="43.14627" lon="2.0082">
        <ele>367.8</ele>
        <time>2026-05-28T06:33:17Z</time>
      </trkpt>
      <trkpt lat="43.14624" lon="2.00815">
        <ele>367.6</ele>
        <time>2026-05-28T06:33:22Z</time>
      </trkpt>
      <trkpt lat="43.14623" lon="2.0081">
        <ele>367.7</ele>
        <time>2026-05-28T06:33:27Z</time>
      </trkpt>
      <trkpt lat="43.14621" lon="2.00805">
        <ele>367.7</ele>
        <time>2026-05-28T06:33:32Z</time>
      </trkpt>
      <trkpt lat="43.14619" lon="2.00799">
        <ele>367.7</ele>
        <time>2026-05-28T06:33:37Z</time>
      </trkpt>
      <trkpt lat="43.14618" lon="2.00793">
        <ele>367.8</ele>
        <time>2026-05-28T06:33:42Z</time>
      </trkpt>
      <trkpt lat="43.14615" lon="2.00786">
        <ele>367.7</ele>
        <time>2026-05-28T06:33:47Z</time>
      </trkpt>
      <trkpt lat="43.14613" lon="2.00779">
        <ele>367.7</ele>
        <time>2026-05-28T06:33:52Z</time>
      </trkpt>
      <trkpt lat="43.14611" lon="2.00772">
        <ele>367.8</ele>
        <time>2026-05-28T06:33:57Z</time>
      </trkpt>
      <trkpt lat="43.14609" lon="2.00767">
        <ele>367.7</ele>
        <time>2026-05-28T06:34:02Z</time>
      </trkpt>
      <trkpt lat="43.14607" lon="2.00761">
        <ele>367.7</ele>
        <time>2026-05-28T06:34:07Z</time>
      </trkpt>
      <trkpt lat="43.14604" lon="2.00754">
        <ele>367.6</ele>
        <time>2026-05-28T06:34:12Z</time>
      </trkpt>
      <trkpt lat="43.146" lon="2.00749">
        <ele>367.3</ele>
        <time>2026-05-28T06:34:17Z</time>
      </trkpt>
      <trkpt lat="43.14597" lon="2.00743">
        <ele>367.5</ele>
        <time>2026-05-28T06:34:22Z</time>
      </trkpt>
      <trkpt lat="43.14593" lon="2.00736">
        <ele>367.7</ele>
        <time>2026-05-28T06:34:27Z</time>
      </trkpt>
      <trkpt lat="43.1459" lon="2.0073">
        <ele>367.9</ele>
        <time>2026-05-28T06:34:32Z</time>
      </trkpt>
      <trkpt lat="43.14587" lon="2.00725">
        <ele>368.1</ele>
        <time>2026-05-28T06:34:37Z</time>
      </trkpt>
      <trkpt lat="43.14584" lon="2.00718">
        <ele>368.5</ele>
        <time>2026-05-28T06:34:42Z</time>
      </trkpt>
      <trkpt lat="43.1458" lon="2.00711">
        <ele>369.4</ele>
        <time>2026-05-28T06:34:47Z</time>
      </trkpt>
      <trkpt lat="43.14578" lon="2.00706">
        <ele>370</ele>
        <time>2026-05-28T06:34:52Z</time>
      </trkpt>
      <trkpt lat="43.14576" lon="2.00699">
        <ele>370.9</ele>
        <time>2026-05-28T06:34:57Z</time>
      </trkpt>
      <trkpt lat="43.14575" lon="2.00692">
        <ele>371.7</ele>
        <time>2026-05-28T06:35:02Z</time>
      </trkpt>
      <trkpt lat="43.14574" lon="2.00685">
        <ele>372.5</ele>
        <time>2026-05-28T06:35:07Z</time>
      </trkpt>
      <trkpt lat="43.14573" lon="2.00679">
        <ele>373.3</ele>
        <time>2026-05-28T06:35:12Z</time>
      </trkpt>
      <trkpt lat="43.14572" lon="2.00672">
        <ele>374.1</ele>
        <time>2026-05-28T06:35:17Z</time>
      </trkpt>
      <trkpt lat="43.14571" lon="2.00666">
        <ele>374.8</ele>
        <time>2026-05-28T06:35:22Z</time>
      </trkpt>
      <trkpt lat="43.14568" lon="2.00662">
        <ele>375.4</ele>
        <time>2026-05-28T06:35:27Z</time>
      </trkpt>
      <trkpt lat="43.14566" lon="2.00658">
        <ele>375.9</ele>
        <time>2026-05-28T06:35:32Z</time>
      </trkpt>
      <trkpt lat="43.14564" lon="2.00652">
        <ele>376.6</ele>
        <time>2026-05-28T06:35:37Z</time>
      </trkpt>
      <trkpt lat="43.14561" lon="2.00646">
        <ele>377.4</ele>
        <time>2026-05-28T06:35:42Z</time>
      </trkpt>
      <trkpt lat="43.14557" lon="2.00642">
        <ele>378</ele>
        <time>2026-05-28T06:35:47Z</time>
      </trkpt>
      <trkpt lat="43.14555" lon="2.00636">
        <ele>378.6</ele>
        <time>2026-05-28T06:35:52Z</time>
      </trkpt>
      <trkpt lat="43.14551" lon="2.00631">
        <ele>379.3</ele>
        <time>2026-05-28T06:35:57Z</time>
      </trkpt>
      <trkpt lat="43.14549" lon="2.00624">
        <ele>380</ele>
        <time>2026-05-28T06:36:02Z</time>
      </trkpt>
      <trkpt lat="43.14547" lon="2.00617">
        <ele>380.8</ele>
        <time>2026-05-28T06:36:07Z</time>
      </trkpt>
      <trkpt lat="43.14544" lon="2.00611">
        <ele>381.4</ele>
        <time>2026-05-28T06:36:12Z</time>
      </trkpt>
      <trkpt lat="43.14543" lon="2.00604">
        <ele>382.1</ele>
        <time>2026-05-28T06:36:17Z</time>
      </trkpt>
      <trkpt lat="43.14542" lon="2.00596">
        <ele>382.9</ele>
        <time>2026-05-28T06:36:22Z</time>
      </trkpt>
      <trkpt lat="43.14539" lon="2.00589">
        <ele>383.6</ele>
        <time>2026-05-28T06:36:27Z</time>
      </trkpt>
      <trkpt lat="43.14538" lon="2.00582">
        <ele>384.2</ele>
        <time>2026-05-28T06:36:32Z</time>
      </trkpt>
      <trkpt lat="43.14536" lon="2.00575">
        <ele>384.9</ele>
        <time>2026-05-28T06:36:37Z</time>
      </trkpt>
      <trkpt lat="43.14533" lon="2.00568">
        <ele>385.6</ele>
        <time>2026-05-28T06:36:42Z</time>
      </trkpt>
      <trkpt lat="43.14531" lon="2.00561">
        <ele>386.2</ele>
        <time>2026-05-28T06:36:47Z</time>
      </trkpt>
      <trkpt lat="43.14528" lon="2.00554">
        <ele>386.8</ele>
        <time>2026-05-28T06:36:52Z</time>
      </trkpt>
      <trkpt lat="43.14525" lon="2.00547">
        <ele>387.4</ele>
        <time>2026-05-28T06:36:57Z</time>
      </trkpt>
      <trkpt lat="43.14523" lon="2.00539">
        <ele>388</ele>
        <time>2026-05-28T06:37:02Z</time>
      </trkpt>
      <trkpt lat="43.14521" lon="2.00535">
        <ele>388.3</ele>
        <time>2026-05-28T06:37:07Z</time>
      </trkpt>
      <trkpt lat="43.14516" lon="2.00527">
        <ele>388.8</ele>
        <time>2026-05-28T06:37:12Z</time>
      </trkpt>
      <trkpt lat="43.14513" lon="2.00519">
        <ele>389.3</ele>
        <time>2026-05-28T06:37:17Z</time>
      </trkpt>
      <trkpt lat="43.14511" lon="2.00512">
        <ele>389.7</ele>
        <time>2026-05-28T06:37:22Z</time>
      </trkpt>
      <trkpt lat="43.14507" lon="2.00506">
        <ele>389.9</ele>
        <time>2026-05-28T06:37:27Z</time>
      </trkpt>
      <trkpt lat="43.14503" lon="2.005">
        <ele>390.1</ele>
        <time>2026-05-28T06:37:32Z</time>
      </trkpt>
      <trkpt lat="43.145" lon="2.00495">
        <ele>389.9</ele>
        <time>2026-05-28T06:37:37Z</time>
      </trkpt>
      <trkpt lat="43.14496" lon="2.0049">
        <ele>388.7</ele>
        <time>2026-05-28T06:37:42Z</time>
      </trkpt>
      <trkpt lat="43.14493" lon="2.00485">
        <ele>387.8</ele>
        <time>2026-05-28T06:37:47Z</time>
      </trkpt>
      <trkpt lat="43.1449" lon="2.00481">
        <ele>386.9</ele>
        <time>2026-05-28T06:37:52Z</time>
      </trkpt>
      <trkpt lat="43.14486" lon="2.00478">
        <ele>385.7</ele>
        <time>2026-05-28T06:37:57Z</time>
      </trkpt>
      <trkpt lat="43.14482" lon="2.00474">
        <ele>384.6</ele>
        <time>2026-05-28T06:38:02Z</time>
      </trkpt>
      <trkpt lat="43.14478" lon="2.00472">
        <ele>383.5</ele>
        <time>2026-05-28T06:38:07Z</time>
      </trkpt>
      <trkpt lat="43.14475" lon="2.00472">
        <ele>382.7</ele>
        <time>2026-05-28T06:38:12Z</time>
      </trkpt>
      <trkpt lat="43.14471" lon="2.00472">
        <ele>381.7</ele>
        <time>2026-05-28T06:38:17Z</time>
      </trkpt>
      <trkpt lat="43.14466" lon="2.00474">
        <ele>380.4</ele>
        <time>2026-05-28T06:38:22Z</time>
      </trkpt>
      <trkpt lat="43.14462" lon="2.00478">
        <ele>379.3</ele>
        <time>2026-05-28T06:38:27Z</time>
      </trkpt>
      <trkpt lat="43.14458" lon="2.00481">
        <ele>378.3</ele>
        <time>2026-05-28T06:38:32Z</time>
      </trkpt>
      <trkpt lat="43.14456" lon="2.00481">
        <ele>377.8</ele>
        <time>2026-05-28T06:38:37Z</time>
      </trkpt>
      <trkpt lat="43.14456" lon="2.00481">
        <ele>377.8</ele>
        <time>2026-05-28T06:38:42Z</time>
      </trkpt>
      <trkpt lat="43.14456" lon="2.00481">
        <ele>377.8</ele>
        <time>2026-05-28T06:38:47Z</time>
      </trkpt>
      <trkpt lat="43.14453" lon="2.00483">
        <ele>377</ele>
        <time>2026-05-28T06:38:52Z</time>
      </trkpt>
      <trkpt lat="43.1445" lon="2.00488">
        <ele>376.2</ele>
        <time>2026-05-28T06:38:57Z</time>
      </trkpt>
      <trkpt lat="43.14447" lon="2.00492">
        <ele>375.4</ele>
        <time>2026-05-28T06:39:02Z</time>
      </trkpt>
      <trkpt lat="43.14442" lon="2.00495">
        <ele>374</ele>
        <time>2026-05-28T06:39:07Z</time>
      </trkpt>
      <trkpt lat="43.14436" lon="2.00496">
        <ele>372.4</ele>
        <time>2026-05-28T06:39:12Z</time>
      </trkpt>
      <trkpt lat="43.14431" lon="2.00492">
        <ele>371</ele>
        <time>2026-05-28T06:39:17Z</time>
      </trkpt>
      <trkpt lat="43.14428" lon="2.00485">
        <ele>370.2</ele>
        <time>2026-05-28T06:39:22Z</time>
      </trkpt>
      <trkpt lat="43.14427" lon="2.00477">
        <ele>370</ele>
        <time>2026-05-28T06:39:27Z</time>
      </trkpt>
      <trkpt lat="43.14427" lon="2.0047">
        <ele>370.1</ele>
        <time>2026-05-28T06:39:32Z</time>
      </trkpt>
      <trkpt lat="43.1443" lon="2.00463">
        <ele>370.9</ele>
        <time>2026-05-28T06:39:37Z</time>
      </trkpt>
      <trkpt lat="43.1443" lon="2.00455">
        <ele>371</ele>
        <time>2026-05-28T06:39:42Z</time>
      </trkpt>
      <trkpt lat="43.1443" lon="2.00448">
        <ele>371</ele>
        <time>2026-05-28T06:39:47Z</time>
      </trkpt>
      <trkpt lat="43.1443" lon="2.0044">
        <ele>371.1</ele>
        <time>2026-05-28T06:39:52Z</time>
      </trkpt>
      <trkpt lat="43.1443" lon="2.00434">
        <ele>371.1</ele>
        <time>2026-05-28T06:39:57Z</time>
      </trkpt>
      <trkpt lat="43.14429" lon="2.0043">
        <ele>370.9</ele>
        <time>2026-05-28T06:40:02Z</time>
      </trkpt>
      <trkpt lat="43.14429" lon="2.00429">
        <ele>370.9</ele>
        <time>2026-05-28T06:40:07Z</time>
      </trkpt>
      <trkpt lat="43.14429" lon="2.00429">
        <ele>370.9</ele>
        <time>2026-05-28T06:40:12Z</time>
      </trkpt>
      <trkpt lat="43.14429" lon="2.00429">
        <ele>370.9</ele>
        <time>2026-05-28T06:40:17Z</time>
      </trkpt>
      <trkpt lat="43.14429" lon="2.00429">
        <ele>370.9</ele>
        <time>2026-05-28T06:40:22Z</time>
      </trkpt>
      <trkpt lat="43.14429" lon="2.00429">
        <ele>370.9</ele>
        <time>2026-05-28T06:40:27Z</time>
      </trkpt>
      <trkpt lat="43.14429" lon="2.00429">
        <ele>370.9</ele>
        <time>2026-05-28T06:40:32Z</time>
      </trkpt>
      <trkpt lat="43.14429" lon="2.00429">
        <ele>370.9</ele>
        <time>2026-05-28T06:40:37Z</time>
      </trkpt>
      <trkpt lat="43.14429" lon="2.00429">
        <ele>370.9</ele>
        <time>2026-05-28T06:40:42Z</time>
      </trkpt>
      <trkpt lat="43.14429" lon="2.00429">
        <ele>370.9</ele>
        <time>2026-05-28T06:40:47Z</time>
      </trkpt>
      <trkpt lat="43.14429" lon="2.00429">
        <ele>370.9</ele>
        <time>2026-05-28T06:40:52Z</time>
      </trkpt>
      <trkpt lat="43.14429" lon="2.00429">
        <ele>370.9</ele>
        <time>2026-05-28T06:40:57Z</time>
      </trkpt>
      <trkpt lat="43.14429" lon="2.00429">
        <ele>370.9</ele>
        <time>2026-05-28T06:41:02Z</time>
      </trkpt>
      <trkpt lat="43.14429" lon="2.00429">
        <ele>370.9</ele>
        <time>2026-05-28T06:41:07Z</time>
      </trkpt>
      <trkpt lat="43.14429" lon="2.00429">
        <ele>370.9</ele>
        <time>2026-05-28T06:41:12Z</time>
      </trkpt>
      <trkpt lat="43.14429" lon="2.00429">
        <ele>370.9</ele>
        <time>2026-05-28T06:41:17Z</time>
      </trkpt>
      <trkpt lat="43.14429" lon="2.00429">
        <ele>370.9</ele>
        <time>2026-05-28T06:41:22Z</time>
      </trkpt>
      <trkpt lat="43.14429" lon="2.00429">
        <ele>370.9</ele>
        <time>2026-05-28T06:41:27Z</time>
      </trkpt>
      <trkpt lat="43.14429" lon="2.00429">
        <ele>370.9</ele>
        <time>2026-05-28T06:41:32Z</time>
      </trkpt>
      <trkpt lat="43.14428" lon="2.00425">
        <ele>370.7</ele>
        <time>2026-05-28T06:41:37Z</time>
      </trkpt>
      <trkpt lat="43.14428" lon="2.00419">
        <ele>370.7</ele>
        <time>2026-05-28T06:41:42Z</time>
      </trkpt>
      <trkpt lat="43.14427" lon="2.00413">
        <ele>370.7</ele>
        <time>2026-05-28T06:41:47Z</time>
      </trkpt>
      <trkpt lat="43.14428" lon="2.00406">
        <ele>371.3</ele>
        <time>2026-05-28T06:41:52Z</time>
      </trkpt>
      <trkpt lat="43.14429" lon="2.004">
        <ele>371.9</ele>
        <time>2026-05-28T06:41:57Z</time>
      </trkpt>
      <trkpt lat="43.14431" lon="2.00395">
        <ele>372.6</ele>
        <time>2026-05-28T06:42:02Z</time>
      </trkpt>
      <trkpt lat="43.14432" lon="2.00389">
        <ele>373.2</ele>
        <time>2026-05-28T06:42:07Z</time>
      </trkpt>
      <trkpt lat="43.14432" lon="2.00382">
        <ele>373.6</ele>
        <time>2026-05-28T06:42:12Z</time>
      </trkpt>
      <trkpt lat="43.14433" lon="2.00375">
        <ele>374.1</ele>
        <time>2026-05-28T06:42:17Z</time>
      </trkpt>
      <trkpt lat="43.14433" lon="2.00367">
        <ele>374.6</ele>
        <time>2026-05-28T06:42:22Z</time>
      </trkpt>
      <trkpt lat="43.14432" lon="2.00361">
        <ele>374.7</ele>
        <time>2026-05-28T06:42:27Z</time>
      </trkpt>
      <trkpt lat="43.14431" lon="2.00354">
        <ele>374.9</ele>
        <time>2026-05-28T06:42:32Z</time>
      </trkpt>
      <trkpt lat="43.1443" lon="2.00345">
        <ele>375.3</ele>
        <time>2026-05-28T06:42:37Z</time>
      </trkpt>
      <trkpt lat="43.14428" lon="2.00339">
        <ele>375.3</ele>
        <time>2026-05-28T06:42:42Z</time>
      </trkpt>
      <trkpt lat="43.14426" lon="2.00332">
        <ele>375.4</ele>
        <time>2026-05-28T06:42:47Z</time>
      </trkpt>
      <trkpt lat="43.14424" lon="2.00324">
        <ele>375.8</ele>
        <time>2026-05-28T06:42:52Z</time>
      </trkpt>
      <trkpt lat="43.14422" lon="2.00316">
        <ele>376.2</ele>
        <time>2026-05-28T06:42:57Z</time>
      </trkpt>
      <trkpt lat="43.1442" lon="2.00306">
        <ele>376.7</ele>
        <time>2026-05-28T06:43:02Z</time>
      </trkpt>
      <trkpt lat="43.14415" lon="2.00301">
        <ele>376.6</ele>
        <time>2026-05-28T06:43:07Z</time>
      </trkpt>
      <trkpt lat="43.14412" lon="2.00299">
        <ele>376.5</ele>
        <time>2026-05-28T06:43:12Z</time>
      </trkpt>
      <trkpt lat="43.14408" lon="2.00296">
        <ele>376.5</ele>
        <time>2026-05-28T06:43:17Z</time>
      </trkpt>
      <trkpt lat="43.14405" lon="2.00292">
        <ele>376.6</ele>
        <time>2026-05-28T06:43:22Z</time>
      </trkpt>
      <trkpt lat="43.14401" lon="2.00289">
        <ele>376.5</ele>
        <time>2026-05-28T06:43:27Z</time>
      </trkpt>
      <trkpt lat="43.14397" lon="2.00287">
        <ele>376.3</ele>
        <time>2026-05-28T06:43:32Z</time>
      </trkpt>
      <trkpt lat="43.14392" lon="2.00284">
        <ele>376.2</ele>
        <time>2026-05-28T06:43:37Z</time>
      </trkpt>
      <trkpt lat="43.14386" lon="2.00283">
        <ele>375.8</ele>
        <time>2026-05-28T06:43:42Z</time>
      </trkpt>
      <trkpt lat="43.1438" lon="2.00281">
        <ele>375.5</ele>
        <time>2026-05-28T06:43:47Z</time>
      </trkpt>
      <trkpt lat="43.14374" lon="2.00278">
        <ele>375.2</ele>
        <time>2026-05-28T06:43:52Z</time>
      </trkpt>
      <trkpt lat="43.14368" lon="2.00278">
        <ele>374.8</ele>
        <time>2026-05-28T06:43:57Z</time>
      </trkpt>
      <trkpt lat="43.14361" lon="2.00277">
        <ele>374.3</ele>
        <time>2026-05-28T06:44:02Z</time>
      </trkpt>
      <trkpt lat="43.14355" lon="2.00276">
        <ele>373.9</ele>
        <time>2026-05-28T06:44:07Z</time>
      </trkpt>
      <trkpt lat="43.14349" lon="2.00276">
        <ele>373.4</ele>
        <time>2026-05-28T06:44:12Z</time>
      </trkpt>
      <trkpt lat="43.14344" lon="2.00274">
        <ele>373.1</ele>
        <time>2026-05-28T06:44:17Z</time>
      </trkpt>
      <trkpt lat="43.14338" lon="2.00273">
        <ele>372.7</ele>
        <time>2026-05-28T06:44:22Z</time>
      </trkpt>
      <trkpt lat="43.14332" lon="2.0027">
        <ele>372.5</ele>
        <time>2026-05-28T06:44:27Z</time>
      </trkpt>
      <trkpt lat="43.14327" lon="2.00267">
        <ele>372.3</ele>
        <time>2026-05-28T06:44:32Z</time>
      </trkpt>
      <trkpt lat="43.14322" lon="2.00262">
        <ele>372.3</ele>
        <time>2026-05-28T06:44:37Z</time>
      </trkpt>
      <trkpt lat="43.14317" lon="2.00257">
        <ele>372.2</ele>
        <time>2026-05-28T06:44:42Z</time>
      </trkpt>
      <trkpt lat="43.14311" lon="2.00253">
        <ele>372</ele>
        <time>2026-05-28T06:44:47Z</time>
      </trkpt>
      <trkpt lat="43.14306" lon="2.00249">
        <ele>371.8</ele>
        <time>2026-05-28T06:44:52Z</time>
      </trkpt>
      <trkpt lat="43.14301" lon="2.00244">
        <ele>371.8</ele>
        <time>2026-05-28T06:44:57Z</time>
      </trkpt>
      <trkpt lat="43.14295" lon="2.00241">
        <ele>371.5</ele>
        <time>2026-05-28T06:45:02Z</time>
      </trkpt>
      <trkpt lat="43.1429" lon="2.00235">
        <ele>371.6</ele>
        <time>2026-05-28T06:45:07Z</time>
      </trkpt>
      <trkpt lat="43.14285" lon="2.0023">
        <ele>371.7</ele>
        <time>2026-05-28T06:45:12Z</time>
      </trkpt>
      <trkpt lat="43.14279" lon="2.00224">
        <ele>371.7</ele>
        <time>2026-05-28T06:45:17Z</time>
      </trkpt>
      <trkpt lat="43.14274" lon="2.00219">
        <ele>371.8</ele>
        <time>2026-05-28T06:45:22Z</time>
      </trkpt>
      <trkpt lat="43.14268" lon="2.00213">
        <ele>371.9</ele>
        <time>2026-05-28T06:45:27Z</time>
      </trkpt>
      <trkpt lat="43.14262" lon="2.00206">
        <ele>372.1</ele>
        <time>2026-05-28T06:45:32Z</time>
      </trkpt>
      <trkpt lat="43.14258" lon="2.00199">
        <ele>372.5</ele>
        <time>2026-05-28T06:45:37Z</time>
      </trkpt>
      <trkpt lat="43.14254" lon="2.00193">
        <ele>372.7</ele>
        <time>2026-05-28T06:45:42Z</time>
      </trkpt>
      <trkpt lat="43.1425" lon="2.00187">
        <ele>373</ele>
        <time>2026-05-28T06:45:47Z</time>
      </trkpt>
      <trkpt lat="43.14245" lon="2.00182">
        <ele>374.3</ele>
        <time>2026-05-28T06:45:52Z</time>
      </trkpt>
      <trkpt lat="43.1424" lon="2.00176">
        <ele>375.7</ele>
        <time>2026-05-28T06:45:57Z</time>
      </trkpt>
      <trkpt lat="43.14235" lon="2.0017">
        <ele>377.2</ele>
        <time>2026-05-28T06:46:02Z</time>
      </trkpt>
      <trkpt lat="43.14231" lon="2.00164">
        <ele>378.5</ele>
        <time>2026-05-28T06:46:07Z</time>
      </trkpt>
      <trkpt lat="43.14227" lon="2.00157">
        <ele>379.8</ele>
        <time>2026-05-28T06:46:12Z</time>
      </trkpt>
      <trkpt lat="43.14223" lon="2.00151">
        <ele>381</ele>
        <time>2026-05-28T06:46:17Z</time>
      </trkpt>
      <trkpt lat="43.14219" lon="2.00145">
        <ele>382.1</ele>
        <time>2026-05-28T06:46:22Z</time>
      </trkpt>
      <trkpt lat="43.14216" lon="2.00137">
        <ele>383.3</ele>
        <time>2026-05-28T06:46:27Z</time>
      </trkpt>
      <trkpt lat="43.14213" lon="2.00131">
        <ele>384.2</ele>
        <time>2026-05-28T06:46:32Z</time>
      </trkpt>
      <trkpt lat="43.14212" lon="2.00126">
        <ele>384.7</ele>
        <time>2026-05-28T06:46:37Z</time>
      </trkpt>
      <trkpt lat="43.1421" lon="2.00123">
        <ele>385.2</ele>
        <time>2026-05-28T06:46:42Z</time>
      </trkpt>
      <trkpt lat="43.14208" lon="2.00119">
        <ele>385.8</ele>
        <time>2026-05-28T06:46:47Z</time>
      </trkpt>
      <trkpt lat="43.14208" lon="2.00119">
        <ele>385.8</ele>
        <time>2026-05-28T06:46:52Z</time>
      </trkpt>
      <trkpt lat="43.14208" lon="2.00119">
        <ele>385.8</ele>
        <time>2026-05-28T06:46:57Z</time>
      </trkpt>
      <trkpt lat="43.14208" lon="2.00119">
        <ele>385.8</ele>
        <time>2026-05-28T06:47:02Z</time>
      </trkpt>
      <trkpt lat="43.14208" lon="2.00119">
        <ele>385.8</ele>
        <time>2026-05-28T06:47:07Z</time>
      </trkpt>
      <trkpt lat="43.14208" lon="2.00119">
        <ele>385.8</ele>
        <time>2026-05-28T06:47:12Z</time>
      </trkpt>
      <trkpt lat="43.14208" lon="2.00119">
        <ele>385.8</ele>
        <time>2026-05-28T06:47:17Z</time>
      </trkpt>
      <trkpt lat="43.14208" lon="2.00119">
        <ele>385.8</ele>
        <time>2026-05-28T06:47:22Z</time>
      </trkpt>
      <trkpt lat="43.14196" lon="2.00113">
        <ele>387.6</ele>
        <time>2026-05-28T06:47:27Z</time>
      </trkpt>
      <trkpt lat="43.14192" lon="2.00113">
        <ele>388</ele>
        <time>2026-05-28T06:47:32Z</time>
      </trkpt>
      <trkpt lat="43.14188" lon="2.00113">
        <ele>388.5</ele>
        <time>2026-05-28T06:47:37Z</time>
      </trkpt>
      <trkpt lat="43.14184" lon="2.00112">
        <ele>389</ele>
        <time>2026-05-28T06:47:42Z</time>
      </trkpt>
      <trkpt lat="43.14177" lon="2.00114">
        <ele>389.7</ele>
        <time>2026-05-28T06:47:47Z</time>
      </trkpt>
      <trkpt lat="43.14171" lon="2.00117">
        <ele>390.3</ele>
        <time>2026-05-28T06:47:52Z</time>
      </trkpt>
      <trkpt lat="43.14165" lon="2.0012">
        <ele>390.7</ele>
        <time>2026-05-28T06:47:57Z</time>
      </trkpt>
      <trkpt lat="43.1416" lon="2.00125">
        <ele>390.6</ele>
        <time>2026-05-28T06:48:02Z</time>
      </trkpt>
      <trkpt lat="43.14156" lon="2.00129">
        <ele>390.6</ele>
        <time>2026-05-28T06:48:07Z</time>
      </trkpt>
      <trkpt lat="43.14152" lon="2.00132">
        <ele>390.6</ele>
        <time>2026-05-28T06:48:12Z</time>
      </trkpt>
      <trkpt lat="43.14148" lon="2.00135">
        <ele>390.7</ele>
        <time>2026-05-28T06:48:17Z</time>
      </trkpt>
      <trkpt lat="43.14144" lon="2.00138">
        <ele>390.7</ele>
        <time>2026-05-28T06:48:22Z</time>
      </trkpt>
      <trkpt lat="43.1414" lon="2.00141">
        <ele>390.8</ele>
        <time>2026-05-28T06:48:27Z</time>
      </trkpt>
      <trkpt lat="43.14135" lon="2.00144">
        <ele>391</ele>
        <time>2026-05-28T06:48:32Z</time>
      </trkpt>
      <trkpt lat="43.14132" lon="2.00148">
        <ele>391.1</ele>
        <time>2026-05-28T06:48:37Z</time>
      </trkpt>
      <trkpt lat="43.1413" lon="2.00147">
        <ele>391.2</ele>
        <time>2026-05-28T06:48:42Z</time>
      </trkpt>
      <trkpt lat="43.14129" lon="2.00147">
        <ele>391.2</ele>
        <time>2026-05-28T06:48:47Z</time>
      </trkpt>
      <trkpt lat="43.14126" lon="2.0015">
        <ele>391.4</ele>
        <time>2026-05-28T06:48:52Z</time>
      </trkpt>
      <trkpt lat="43.14121" lon="2.00154">
        <ele>391.6</ele>
        <time>2026-05-28T06:48:57Z</time>
      </trkpt>
      <trkpt lat="43.14117" lon="2.00155">
        <ele>391.8</ele>
        <time>2026-05-28T06:49:02Z</time>
      </trkpt>
      <trkpt lat="43.14113" lon="2.00155">
        <ele>392</ele>
        <time>2026-05-28T06:49:07Z</time>
      </trkpt>
      <trkpt lat="43.14109" lon="2.00155">
        <ele>392.2</ele>
        <time>2026-05-28T06:49:12Z</time>
      </trkpt>
      <trkpt lat="43.14105" lon="2.00156">
        <ele>392.4</ele>
        <time>2026-05-28T06:49:17Z</time>
      </trkpt>
      <trkpt lat="43.14102" lon="2.00157">
        <ele>392.6</ele>
        <time>2026-05-28T06:49:22Z</time>
      </trkpt>
      <trkpt lat="43.14097" lon="2.00158">
        <ele>392.9</ele>
        <time>2026-05-28T06:49:27Z</time>
      </trkpt>
      <trkpt lat="43.14092" lon="2.00159">
        <ele>393.2</ele>
        <time>2026-05-28T06:49:32Z</time>
      </trkpt>
      <trkpt lat="43.14088" lon="2.0016">
        <ele>393.4</ele>
        <time>2026-05-28T06:49:37Z</time>
      </trkpt>
      <trkpt lat="43.14083" lon="2.00161">
        <ele>393.7</ele>
        <time>2026-05-28T06:49:42Z</time>
      </trkpt>
      <trkpt lat="43.1408" lon="2.00161">
        <ele>393.7</ele>
        <time>2026-05-28T06:49:47Z</time>
      </trkpt>
      <trkpt lat="43.14076" lon="2.0016">
        <ele>393.7</ele>
        <time>2026-05-28T06:49:52Z</time>
      </trkpt>
      <trkpt lat="43.14072" lon="2.0016">
        <ele>393.6</ele>
        <time>2026-05-28T06:49:57Z</time>
      </trkpt>
      <trkpt lat="43.14067" lon="2.00161">
        <ele>393.7</ele>
        <time>2026-05-28T06:50:02Z</time>
      </trkpt>
      <trkpt lat="43.14064" lon="2.00159">
        <ele>393.6</ele>
        <time>2026-05-28T06:50:07Z</time>
      </trkpt>
      <trkpt lat="43.1406" lon="2.00159">
        <ele>393.6</ele>
        <time>2026-05-28T06:50:12Z</time>
      </trkpt>
      <trkpt lat="43.14055" lon="2.00158">
        <ele>393.5</ele>
        <time>2026-05-28T06:50:17Z</time>
      </trkpt>
      <trkpt lat="43.14051" lon="2.00158">
        <ele>393.5</ele>
        <time>2026-05-28T06:50:22Z</time>
      </trkpt>
      <trkpt lat="43.14046" lon="2.00156">
        <ele>393.3</ele>
        <time>2026-05-28T06:50:27Z</time>
      </trkpt>
      <trkpt lat="43.14042" lon="2.00154">
        <ele>393.2</ele>
        <time>2026-05-28T06:50:32Z</time>
      </trkpt>
      <trkpt lat="43.14037" lon="2.00152">
        <ele>393</ele>
        <time>2026-05-28T06:50:37Z</time>
      </trkpt>
      <trkpt lat="43.14032" lon="2.0015">
        <ele>392.8</ele>
        <time>2026-05-28T06:50:42Z</time>
      </trkpt>
      <trkpt lat="43.14027" lon="2.0015">
        <ele>392.8</ele>
        <time>2026-05-28T06:50:47Z</time>
      </trkpt>
      <trkpt lat="43.14021" lon="2.00151">
        <ele>392.8</ele>
        <time>2026-05-28T06:50:52Z</time>
      </trkpt>
      <trkpt lat="43.14015" lon="2.00151">
        <ele>392.8</ele>
        <time>2026-05-28T06:50:57Z</time>
      </trkpt>
      <trkpt lat="43.14011" lon="2.00151">
        <ele>392.8</ele>
        <time>2026-05-28T06:51:02Z</time>
      </trkpt>
      <trkpt lat="43.14008" lon="2.00151">
        <ele>392.7</ele>
        <time>2026-05-28T06:51:07Z</time>
      </trkpt>
      <trkpt lat="43.14002" lon="2.00151">
        <ele>392.7</ele>
        <time>2026-05-28T06:51:12Z</time>
      </trkpt>
      <trkpt lat="43.13996" lon="2.0015">
        <ele>392.8</ele>
        <time>2026-05-28T06:51:17Z</time>
      </trkpt>
      <trkpt lat="43.1399" lon="2.00151">
        <ele>393.3</ele>
        <time>2026-05-28T06:51:22Z</time>
      </trkpt>
      <trkpt lat="43.13984" lon="2.00153">
        <ele>393.8</ele>
        <time>2026-05-28T06:51:27Z</time>
      </trkpt>
      <trkpt lat="43.13977" lon="2.00153">
        <ele>394.2</ele>
        <time>2026-05-28T06:51:32Z</time>
      </trkpt>
      <trkpt lat="43.13971" lon="2.00153">
        <ele>394.5</ele>
        <time>2026-05-28T06:51:37Z</time>
      </trkpt>
      <trkpt lat="43.13965" lon="2.00154">
        <ele>394.9</ele>
        <time>2026-05-28T06:51:42Z</time>
      </trkpt>
      <trkpt lat="43.13958" lon="2.00155">
        <ele>395.4</ele>
        <time>2026-05-28T06:51:47Z</time>
      </trkpt>
      <trkpt lat="43.13953" lon="2.00156">
        <ele>395.7</ele>
        <time>2026-05-28T06:51:52Z</time>
      </trkpt>
      <trkpt lat="43.13946" lon="2.00159">
        <ele>396.2</ele>
        <time>2026-05-28T06:51:57Z</time>
      </trkpt>
      <trkpt lat="43.1394" lon="2.00161">
        <ele>396.6</ele>
        <time>2026-05-28T06:52:02Z</time>
      </trkpt>
      <trkpt lat="43.13934" lon="2.00164">
        <ele>397.1</ele>
        <time>2026-05-28T06:52:07Z</time>
      </trkpt>
      <trkpt lat="43.13928" lon="2.00167">
        <ele>397.5</ele>
        <time>2026-05-28T06:52:12Z</time>
      </trkpt>
      <trkpt lat="43.13923" lon="2.00171">
        <ele>397.8</ele>
        <time>2026-05-28T06:52:17Z</time>
      </trkpt>
      <trkpt lat="43.13916" lon="2.00174">
        <ele>398.2</ele>
        <time>2026-05-28T06:52:22Z</time>
      </trkpt>
      <trkpt lat="43.1391" lon="2.00176">
        <ele>398.3</ele>
        <time>2026-05-28T06:52:27Z</time>
      </trkpt>
      <trkpt lat="43.13904" lon="2.00179">
        <ele>398.4</ele>
        <time>2026-05-28T06:52:32Z</time>
      </trkpt>
      <trkpt lat="43.13898" lon="2.00181">
        <ele>398.4</ele>
        <time>2026-05-28T06:52:37Z</time>
      </trkpt>
      <trkpt lat="43.13891" lon="2.00183">
        <ele>398.3</ele>
        <time>2026-05-28T06:52:42Z</time>
      </trkpt>
      <trkpt lat="43.13885" lon="2.00187">
        <ele>398.2</ele>
        <time>2026-05-28T06:52:47Z</time>
      </trkpt>
      <trkpt lat="43.13879" lon="2.00189">
        <ele>398.1</ele>
        <time>2026-05-28T06:52:52Z</time>
      </trkpt>
      <trkpt lat="43.13874" lon="2.00192">
        <ele>397.9</ele>
        <time>2026-05-28T06:52:57Z</time>
      </trkpt>
      <trkpt lat="43.13868" lon="2.00195">
        <ele>397.7</ele>
        <time>2026-05-28T06:53:02Z</time>
      </trkpt>
      <trkpt lat="43.13862" lon="2.00196">
        <ele>397.5</ele>
        <time>2026-05-28T06:53:07Z</time>
      </trkpt>
      <trkpt lat="43.13856" lon="2.00198">
        <ele>397.2</ele>
        <time>2026-05-28T06:53:12Z</time>
      </trkpt>
      <trkpt lat="43.1385" lon="2.00199">
        <ele>397</ele>
        <time>2026-05-28T06:53:17Z</time>
      </trkpt>
      <trkpt lat="43.13844" lon="2.00201">
        <ele>396.6</ele>
        <time>2026-05-28T06:53:22Z</time>
      </trkpt>
      <trkpt lat="43.13837" lon="2.00201">
        <ele>396.4</ele>
        <time>2026-05-28T06:53:27Z</time>
      </trkpt>
      <trkpt lat="43.13831" lon="2.00202">
        <ele>395.9</ele>
        <time>2026-05-28T06:53:32Z</time>
      </trkpt>
      <trkpt lat="43.13824" lon="2.00202">
        <ele>394.9</ele>
        <time>2026-05-28T06:53:37Z</time>
      </trkpt>
      <trkpt lat="43.13818" lon="2.00203">
        <ele>394</ele>
        <time>2026-05-28T06:53:42Z</time>
      </trkpt>
      <trkpt lat="43.13812" lon="2.00203">
        <ele>393.2</ele>
        <time>2026-05-28T06:53:47Z</time>
      </trkpt>
      <trkpt lat="43.13805" lon="2.00204">
        <ele>392.1</ele>
        <time>2026-05-28T06:53:52Z</time>
      </trkpt>
      <trkpt lat="43.13799" lon="2.00205">
        <ele>391.2</ele>
        <time>2026-05-28T06:53:57Z</time>
      </trkpt>
      <trkpt lat="43.13793" lon="2.00205">
        <ele>390.4</ele>
        <time>2026-05-28T06:54:02Z</time>
      </trkpt>
      <trkpt lat="43.13786" lon="2.00205">
        <ele>389.4</ele>
        <time>2026-05-28T06:54:07Z</time>
      </trkpt>
      <trkpt lat="43.1378" lon="2.00205">
        <ele>388.6</ele>
        <time>2026-05-28T06:54:12Z</time>
      </trkpt>
      <trkpt lat="43.13774" lon="2.00205">
        <ele>387.8</ele>
        <time>2026-05-28T06:54:17Z</time>
      </trkpt>
      <trkpt lat="43.13768" lon="2.00206">
        <ele>386.8</ele>
        <time>2026-05-28T06:54:22Z</time>
      </trkpt>
      <trkpt lat="43.13762" lon="2.00202">
        <ele>386.7</ele>
        <time>2026-05-28T06:54:27Z</time>
      </trkpt>
      <trkpt lat="43.13757" lon="2.00198">
        <ele>386.6</ele>
        <time>2026-05-28T06:54:32Z</time>
      </trkpt>
      <trkpt lat="43.13752" lon="2.00192">
        <ele>387</ele>
        <time>2026-05-28T06:54:37Z</time>
      </trkpt>
      <trkpt lat="43.13747" lon="2.00187">
        <ele>387.8</ele>
        <time>2026-05-28T06:54:42Z</time>
      </trkpt>
      <trkpt lat="43.13743" lon="2.0018">
        <ele>389.2</ele>
        <time>2026-05-28T06:54:47Z</time>
      </trkpt>
      <trkpt lat="43.13739" lon="2.00176">
        <ele>390.1</ele>
        <time>2026-05-28T06:54:52Z</time>
      </trkpt>
      <trkpt lat="43.13733" lon="2.00169">
        <ele>391.6</ele>
        <time>2026-05-28T06:54:57Z</time>
      </trkpt>
      <trkpt lat="43.13728" lon="2.00161">
        <ele>392.8</ele>
        <time>2026-05-28T06:55:02Z</time>
      </trkpt>
      <trkpt lat="43.13722" lon="2.00157">
        <ele>393.5</ele>
        <time>2026-05-28T06:55:07Z</time>
      </trkpt>
      <trkpt lat="43.13715" lon="2.00154">
        <ele>394.1</ele>
        <time>2026-05-28T06:55:12Z</time>
      </trkpt>
      <trkpt lat="43.13709" lon="2.00151">
        <ele>394.6</ele>
        <time>2026-05-28T06:55:17Z</time>
      </trkpt>
      <trkpt lat="43.13702" lon="2.00146">
        <ele>395.3</ele>
        <time>2026-05-28T06:55:22Z</time>
      </trkpt>
      <trkpt lat="43.13696" lon="2.00143">
        <ele>395.7</ele>
        <time>2026-05-28T06:55:27Z</time>
      </trkpt>
      <trkpt lat="43.1369" lon="2.00142">
        <ele>396</ele>
        <time>2026-05-28T06:55:32Z</time>
      </trkpt>
      <trkpt lat="43.13684" lon="2.00139">
        <ele>396.4</ele>
        <time>2026-05-28T06:55:37Z</time>
      </trkpt>
      <trkpt lat="43.13679" lon="2.00135">
        <ele>396.7</ele>
        <time>2026-05-28T06:55:42Z</time>
      </trkpt>
      <trkpt lat="43.13672" lon="2.00131">
        <ele>397.1</ele>
        <time>2026-05-28T06:55:47Z</time>
      </trkpt>
      <trkpt lat="43.13666" lon="2.00129">
        <ele>397.4</ele>
        <time>2026-05-28T06:55:52Z</time>
      </trkpt>
      <trkpt lat="43.13662" lon="2.00127">
        <ele>397.8</ele>
        <time>2026-05-28T06:55:57Z</time>
      </trkpt>
      <trkpt lat="43.13659" lon="2.00125">
        <ele>398.1</ele>
        <time>2026-05-28T06:56:02Z</time>
      </trkpt>
      <trkpt lat="43.13655" lon="2.00125">
        <ele>398.5</ele>
        <time>2026-05-28T06:56:07Z</time>
      </trkpt>
      <trkpt lat="43.13649" lon="2.00124">
        <ele>399</ele>
        <time>2026-05-28T06:56:12Z</time>
      </trkpt>
      <trkpt lat="43.13641" lon="2.00122">
        <ele>399.7</ele>
        <time>2026-05-28T06:56:17Z</time>
      </trkpt>
      <trkpt lat="43.13635" lon="2.0012">
        <ele>400.3</ele>
        <time>2026-05-28T06:56:22Z</time>
      </trkpt>
      <trkpt lat="43.13629" lon="2.0012">
        <ele>400.8</ele>
        <time>2026-05-28T06:56:27Z</time>
      </trkpt>
      <trkpt lat="43.13623" lon="2.0012">
        <ele>401.3</ele>
        <time>2026-05-28T06:56:32Z</time>
      </trkpt>
      <trkpt lat="43.13618" lon="2.00119">
        <ele>401.7</ele>
        <time>2026-05-28T06:56:37Z</time>
      </trkpt>
      <trkpt lat="43.13612" lon="2.00119">
        <ele>402.2</ele>
        <time>2026-05-28T06:56:42Z</time>
      </trkpt>
      <trkpt lat="43.13606" lon="2.00119">
        <ele>402.7</ele>
        <time>2026-05-28T06:56:47Z</time>
      </trkpt>
      <trkpt lat="43.13601" lon="2.00117">
        <ele>403.2</ele>
        <time>2026-05-28T06:56:52Z</time>
      </trkpt>
      <trkpt lat="43.13596" lon="2.00116">
        <ele>403.6</ele>
        <time>2026-05-28T06:56:57Z</time>
      </trkpt>
      <trkpt lat="43.13588" lon="2.00115">
        <ele>404.2</ele>
        <time>2026-05-28T06:57:02Z</time>
      </trkpt>
      <trkpt lat="43.13581" lon="2.00113">
        <ele>404.4</ele>
        <time>2026-05-28T06:57:07Z</time>
      </trkpt>
      <trkpt lat="43.13575" lon="2.00113">
        <ele>403.9</ele>
        <time>2026-05-28T06:57:12Z</time>
      </trkpt>
      <trkpt lat="43.13569" lon="2.00111">
        <ele>403.4</ele>
        <time>2026-05-28T06:57:17Z</time>
      </trkpt>
      <trkpt lat="43.13564" lon="2.0011">
        <ele>403</ele>
        <time>2026-05-28T06:57:22Z</time>
      </trkpt>
      <trkpt lat="43.13558" lon="2.00109">
        <ele>402.5</ele>
        <time>2026-05-28T06:57:27Z</time>
      </trkpt>
      <trkpt lat="43.13552" lon="2.00107">
        <ele>402.1</ele>
        <time>2026-05-28T06:57:32Z</time>
      </trkpt>
      <trkpt lat="43.13546" lon="2.00106">
        <ele>401.7</ele>
        <time>2026-05-28T06:57:37Z</time>
      </trkpt>
      <trkpt lat="43.13539" lon="2.00105">
        <ele>401.2</ele>
        <time>2026-05-28T06:57:42Z</time>
      </trkpt>
      <trkpt lat="43.13533" lon="2.00104">
        <ele>400.8</ele>
        <time>2026-05-28T06:57:47Z</time>
      </trkpt>
      <trkpt lat="43.13527" lon="2.00101">
        <ele>400.7</ele>
        <time>2026-05-28T06:57:52Z</time>
      </trkpt>
      <trkpt lat="43.13521" lon="2.00099">
        <ele>400.4</ele>
        <time>2026-05-28T06:57:57Z</time>
      </trkpt>
      <trkpt lat="43.13514" lon="2.00097">
        <ele>400.1</ele>
        <time>2026-05-28T06:58:02Z</time>
      </trkpt>
      <trkpt lat="43.13508" lon="2.00096">
        <ele>399.9</ele>
        <time>2026-05-28T06:58:07Z</time>
      </trkpt>
      <trkpt lat="43.13501" lon="2.00095">
        <ele>399.5</ele>
        <time>2026-05-28T06:58:12Z</time>
      </trkpt>
      <trkpt lat="43.13494" lon="2.00094">
        <ele>399.4</ele>
        <time>2026-05-28T06:58:17Z</time>
      </trkpt>
      <trkpt lat="43.13488" lon="2.00092">
        <ele>399.5</ele>
        <time>2026-05-28T06:58:22Z</time>
      </trkpt>
      <trkpt lat="43.13482" lon="2.00091">
        <ele>399.5</ele>
        <time>2026-05-28T06:58:27Z</time>
      </trkpt>
      <trkpt lat="43.13475" lon="2.0009">
        <ele>399.4</ele>
        <time>2026-05-28T06:58:32Z</time>
      </trkpt>
      <trkpt lat="43.13471" lon="2.00089">
        <ele>399.4</ele>
        <time>2026-05-28T06:58:37Z</time>
      </trkpt>
      <trkpt lat="43.13464" lon="2.00087">
        <ele>399.6</ele>
        <time>2026-05-28T06:58:42Z</time>
      </trkpt>
      <trkpt lat="43.13457" lon="2.00085">
        <ele>399.7</ele>
        <time>2026-05-28T06:58:47Z</time>
      </trkpt>
      <trkpt lat="43.13451" lon="2.0008">
        <ele>400.1</ele>
        <time>2026-05-28T06:58:52Z</time>
      </trkpt>
      <trkpt lat="43.13446" lon="2.00075">
        <ele>400.3</ele>
        <time>2026-05-28T06:58:57Z</time>
      </trkpt>
      <trkpt lat="43.13443" lon="2.00073">
        <ele>400.4</ele>
        <time>2026-05-28T06:59:02Z</time>
      </trkpt>
      <trkpt lat="43.13443" lon="2.00073">
        <ele>400.4</ele>
        <time>2026-05-28T06:59:07Z</time>
      </trkpt>
      <trkpt lat="43.13443" lon="2.00073">
        <ele>400.4</ele>
        <time>2026-05-28T06:59:12Z</time>
      </trkpt>
      <trkpt lat="43.13439" lon="2.00071">
        <ele>400.4</ele>
        <time>2026-05-28T06:59:17Z</time>
      </trkpt>
      <trkpt lat="43.13433" lon="2.0007">
        <ele>400.4</ele>
        <time>2026-05-28T06:59:22Z</time>
      </trkpt>
      <trkpt lat="43.13428" lon="2.00067">
        <ele>400.4</ele>
        <time>2026-05-28T06:59:27Z</time>
      </trkpt>
      <trkpt lat="43.13422" lon="2.00064">
        <ele>400.5</ele>
        <time>2026-05-28T06:59:32Z</time>
      </trkpt>
      <trkpt lat="43.13421" lon="2.00063">
        <ele>400.6</ele>
        <time>2026-05-28T06:59:37Z</time>
      </trkpt>
      <trkpt lat="43.1342" lon="2.00062">
        <ele>400.6</ele>
        <time>2026-05-28T06:59:42Z</time>
      </trkpt>
      <trkpt lat="43.13415" lon="2.00058">
        <ele>400.9</ele>
        <time>2026-05-28T06:59:47Z</time>
      </trkpt>
      <trkpt lat="43.13408" lon="2.00055">
        <ele>401.5</ele>
        <time>2026-05-28T06:59:52Z</time>
      </trkpt>
      <trkpt lat="43.13401" lon="2.00051">
        <ele>402.1</ele>
        <time>2026-05-28T06:59:57Z</time>
      </trkpt>
      <trkpt lat="43.13395" lon="2.00047">
        <ele>402.5</ele>
        <time>2026-05-28T07:00:02Z</time>
      </trkpt>
      <trkpt lat="43.13389" lon="2.00045">
        <ele>402.9</ele>
        <time>2026-05-28T07:00:07Z</time>
      </trkpt>
      <trkpt lat="43.13384" lon="2.00041">
        <ele>403.2</ele>
        <time>2026-05-28T07:00:12Z</time>
      </trkpt>
      <trkpt lat="43.13377" lon="2.00037">
        <ele>403.6</ele>
        <time>2026-05-28T07:00:17Z</time>
      </trkpt>
      <trkpt lat="43.13371" lon="2.00035">
        <ele>403.8</ele>
        <time>2026-05-28T07:00:22Z</time>
      </trkpt>
      <trkpt lat="43.13364" lon="2.00034">
        <ele>404</ele>
        <time>2026-05-28T07:00:27Z</time>
      </trkpt>
      <trkpt lat="43.13359" lon="2.00034">
        <ele>404.1</ele>
        <time>2026-05-28T07:00:32Z</time>
      </trkpt>
      <trkpt lat="43.13355" lon="2.00034">
        <ele>404.2</ele>
        <time>2026-05-28T07:00:37Z</time>
      </trkpt>
      <trkpt lat="43.13349" lon="2.00035">
        <ele>404.4</ele>
        <time>2026-05-28T07:00:42Z</time>
      </trkpt>
      <trkpt lat="43.13343" lon="2.00038">
        <ele>404.6</ele>
        <time>2026-05-28T07:00:47Z</time>
      </trkpt>
      <trkpt lat="43.13338" lon="2.00042">
        <ele>404.8</ele>
        <time>2026-05-28T07:00:52Z</time>
      </trkpt>
      <trkpt lat="43.13332" lon="2.00046">
        <ele>405</ele>
        <time>2026-05-28T07:00:57Z</time>
      </trkpt>
      <trkpt lat="43.13327" lon="2.00051">
        <ele>405</ele>
        <time>2026-05-28T07:01:02Z</time>
      </trkpt>
      <trkpt lat="43.13322" lon="2.00056">
        <ele>404.9</ele>
        <time>2026-05-28T07:01:07Z</time>
      </trkpt>
      <trkpt lat="43.13316" lon="2.00061">
        <ele>405</ele>
        <time>2026-05-28T07:01:12Z</time>
      </trkpt>
      <trkpt lat="43.13311" lon="2.00066">
        <ele>405.1</ele>
        <time>2026-05-28T07:01:17Z</time>
      </trkpt>
      <trkpt lat="43.13306" lon="2.00071">
        <ele>405.3</ele>
        <time>2026-05-28T07:01:22Z</time>
      </trkpt>
      <trkpt lat="43.13301" lon="2.00076">
        <ele>405.5</ele>
        <time>2026-05-28T07:01:27Z</time>
      </trkpt>
      <trkpt lat="43.13296" lon="2.00081">
        <ele>405.8</ele>
        <time>2026-05-28T07:01:32Z</time>
      </trkpt>
      <trkpt lat="43.13291" lon="2.00086">
        <ele>405.9</ele>
        <time>2026-05-28T07:01:37Z</time>
      </trkpt>
      <trkpt lat="43.13286" lon="2.00091">
        <ele>405.8</ele>
        <time>2026-05-28T07:01:42Z</time>
      </trkpt>
      <trkpt lat="43.13281" lon="2.00096">
        <ele>405.8</ele>
        <time>2026-05-28T07:01:47Z</time>
      </trkpt>
      <trkpt lat="43.13275" lon="2.00102">
        <ele>405.8</ele>
        <time>2026-05-28T07:01:52Z</time>
      </trkpt>
      <trkpt lat="43.1327" lon="2.00107">
        <ele>406</ele>
        <time>2026-05-28T07:01:57Z</time>
      </trkpt>
      <trkpt lat="43.13267" lon="2.0011">
        <ele>406.1</ele>
        <time>2026-05-28T07:02:02Z</time>
      </trkpt>
      <trkpt lat="43.13262" lon="2.00114">
        <ele>406.3</ele>
        <time>2026-05-28T07:02:07Z</time>
      </trkpt>
      <trkpt lat="43.13257" lon="2.00119">
        <ele>406.5</ele>
        <time>2026-05-28T07:02:12Z</time>
      </trkpt>
      <trkpt lat="43.13251" lon="2.00124">
        <ele>406.9</ele>
        <time>2026-05-28T07:02:17Z</time>
      </trkpt>
      <trkpt lat="43.13246" lon="2.00128">
        <ele>407</ele>
        <time>2026-05-28T07:02:22Z</time>
      </trkpt>
      <trkpt lat="43.13239" lon="2.00131">
        <ele>407</ele>
        <time>2026-05-28T07:02:27Z</time>
      </trkpt>
      <trkpt lat="43.13234" lon="2.00135">
        <ele>407</ele>
        <time>2026-05-28T07:02:32Z</time>
      </trkpt>
      <trkpt lat="43.13227" lon="2.00138">
        <ele>407</ele>
        <time>2026-05-28T07:02:37Z</time>
      </trkpt>
      <trkpt lat="43.13221" lon="2.0014">
        <ele>406.9</ele>
        <time>2026-05-28T07:02:42Z</time>
      </trkpt>
      <trkpt lat="43.13214" lon="2.0014">
        <ele>406.8</ele>
        <time>2026-05-28T07:02:47Z</time>
      </trkpt>
      <trkpt lat="43.13208" lon="2.00141">
        <ele>406.6</ele>
        <time>2026-05-28T07:02:52Z</time>
      </trkpt>
      <trkpt lat="43.13202" lon="2.00145">
        <ele>406.5</ele>
        <time>2026-05-28T07:02:57Z</time>
      </trkpt>
      <trkpt lat="43.13197" lon="2.00148">
        <ele>406.4</ele>
        <time>2026-05-28T07:03:02Z</time>
      </trkpt>
      <trkpt lat="43.13188" lon="2.00149">
        <ele>406.1</ele>
        <time>2026-05-28T07:03:07Z</time>
      </trkpt>
      <trkpt lat="43.13181" lon="2.0015">
        <ele>405.9</ele>
        <time>2026-05-28T07:03:12Z</time>
      </trkpt>
      <trkpt lat="43.13176" lon="2.00151">
        <ele>405.8</ele>
        <time>2026-05-28T07:03:17Z</time>
      </trkpt>
      <trkpt lat="43.13168" lon="2.00154">
        <ele>405.5</ele>
        <time>2026-05-28T07:03:22Z</time>
      </trkpt>
      <trkpt lat="43.13164" lon="2.00156">
        <ele>405.5</ele>
        <time>2026-05-28T07:03:27Z</time>
      </trkpt>
      <trkpt lat="43.13158" lon="2.00157">
        <ele>405.7</ele>
        <time>2026-05-28T07:03:32Z</time>
      </trkpt>
      <trkpt lat="43.13151" lon="2.00159">
        <ele>405.9</ele>
        <time>2026-05-28T07:03:37Z</time>
      </trkpt>
      <trkpt lat="43.13144" lon="2.00158">
        <ele>406.2</ele>
        <time>2026-05-28T07:03:42Z</time>
      </trkpt>
      <trkpt lat="43.13137" lon="2.00159">
        <ele>406.5</ele>
        <time>2026-05-28T07:03:47Z</time>
      </trkpt>
      <trkpt lat="43.13131" lon="2.0016">
        <ele>406.7</ele>
        <time>2026-05-28T07:03:52Z</time>
      </trkpt>
      <trkpt lat="43.13125" lon="2.0016">
        <ele>407</ele>
        <time>2026-05-28T07:03:57Z</time>
      </trkpt>
      <trkpt lat="43.13119" lon="2.00162">
        <ele>407.2</ele>
        <time>2026-05-28T07:04:02Z</time>
      </trkpt>
      <trkpt lat="43.13112" lon="2.00162">
        <ele>407.5</ele>
        <time>2026-05-28T07:04:07Z</time>
      </trkpt>
      <trkpt lat="43.13106" lon="2.00162">
        <ele>407.8</ele>
        <time>2026-05-28T07:04:12Z</time>
      </trkpt>
      <trkpt lat="43.13101" lon="2.00161">
        <ele>408</ele>
        <time>2026-05-28T07:04:17Z</time>
      </trkpt>
      <trkpt lat="43.131" lon="2.00164">
        <ele>408.1</ele>
        <time>2026-05-28T07:04:22Z</time>
      </trkpt>
      <trkpt lat="43.131" lon="2.00167">
        <ele>408.1</ele>
        <time>2026-05-28T07:04:27Z</time>
      </trkpt>
      <trkpt lat="43.131" lon="2.00167">
        <ele>408.1</ele>
        <time>2026-05-28T07:04:32Z</time>
      </trkpt>
      <trkpt lat="43.13099" lon="2.00162">
        <ele>408.1</ele>
        <time>2026-05-28T07:04:37Z</time>
      </trkpt>
      <trkpt lat="43.13094" lon="2.00161">
        <ele>408.3</ele>
        <time>2026-05-28T07:04:42Z</time>
      </trkpt>
      <trkpt lat="43.13088" lon="2.00159">
        <ele>408.4</ele>
        <time>2026-05-28T07:04:47Z</time>
      </trkpt>
      <trkpt lat="43.13082" lon="2.00159">
        <ele>408.8</ele>
        <time>2026-05-28T07:04:52Z</time>
      </trkpt>
      <trkpt lat="43.13076" lon="2.00158">
        <ele>409.5</ele>
        <time>2026-05-28T07:04:57Z</time>
      </trkpt>
      <trkpt lat="43.13069" lon="2.00156">
        <ele>410.2</ele>
        <time>2026-05-28T07:05:02Z</time>
      </trkpt>
      <trkpt lat="43.13063" lon="2.00155">
        <ele>410.9</ele>
        <time>2026-05-28T07:05:07Z</time>
      </trkpt>
      <trkpt lat="43.13057" lon="2.00154">
        <ele>411.6</ele>
        <time>2026-05-28T07:05:12Z</time>
      </trkpt>
      <trkpt lat="43.1305" lon="2.00154">
        <ele>412.5</ele>
        <time>2026-05-28T07:05:17Z</time>
      </trkpt>
      <trkpt lat="43.13043" lon="2.00153">
        <ele>413.3</ele>
        <time>2026-05-28T07:05:22Z</time>
      </trkpt>
      <trkpt lat="43.13037" lon="2.00154">
        <ele>414</ele>
        <time>2026-05-28T07:05:27Z</time>
      </trkpt>
      <trkpt lat="43.13031" lon="2.00155">
        <ele>414.8</ele>
        <time>2026-05-28T07:05:32Z</time>
      </trkpt>
      <trkpt lat="43.13025" lon="2.00157">
        <ele>415.6</ele>
        <time>2026-05-28T07:05:37Z</time>
      </trkpt>
      <trkpt lat="43.13019" lon="2.00159">
        <ele>416.4</ele>
        <time>2026-05-28T07:05:42Z</time>
      </trkpt>
      <trkpt lat="43.13013" lon="2.0016">
        <ele>417.2</ele>
        <time>2026-05-28T07:05:47Z</time>
      </trkpt>
      <trkpt lat="43.13007" lon="2.00162">
        <ele>418</ele>
        <time>2026-05-28T07:05:52Z</time>
      </trkpt>
      <trkpt lat="43.12999" lon="2.00164">
        <ele>418.8</ele>
        <time>2026-05-28T07:05:57Z</time>
      </trkpt>
      <trkpt lat="43.12993" lon="2.00166">
        <ele>418.1</ele>
        <time>2026-05-28T07:06:02Z</time>
      </trkpt>
      <trkpt lat="43.12988" lon="2.00166">
        <ele>417.4</ele>
        <time>2026-05-28T07:06:07Z</time>
      </trkpt>
      <trkpt lat="43.12983" lon="2.00168">
        <ele>416.6</ele>
        <time>2026-05-28T07:06:12Z</time>
      </trkpt>
      <trkpt lat="43.12977" lon="2.00165">
        <ele>415.9</ele>
        <time>2026-05-28T07:06:17Z</time>
      </trkpt>
      <trkpt lat="43.12972" lon="2.00161">
        <ele>415.2</ele>
        <time>2026-05-28T07:06:22Z</time>
      </trkpt>
      <trkpt lat="43.12966" lon="2.00157">
        <ele>414.4</ele>
        <time>2026-05-28T07:06:27Z</time>
      </trkpt>
      <trkpt lat="43.12962" lon="2.00151">
        <ele>413.8</ele>
        <time>2026-05-28T07:06:32Z</time>
      </trkpt>
      <trkpt lat="43.12958" lon="2.00146">
        <ele>413.2</ele>
        <time>2026-05-28T07:06:37Z</time>
      </trkpt>
      <trkpt lat="43.12953" lon="2.00139">
        <ele>412.5</ele>
        <time>2026-05-28T07:06:42Z</time>
      </trkpt>
      <trkpt lat="43.12948" lon="2.00133">
        <ele>411.9</ele>
        <time>2026-05-28T07:06:47Z</time>
      </trkpt>
      <trkpt lat="43.12944" lon="2.00127">
        <ele>411.5</ele>
        <time>2026-05-28T07:06:52Z</time>
      </trkpt>
      <trkpt lat="43.12941" lon="2.00122">
        <ele>411.1</ele>
        <time>2026-05-28T07:06:57Z</time>
      </trkpt>
      <trkpt lat="43.12937" lon="2.00116">
        <ele>410.7</ele>
        <time>2026-05-28T07:07:02Z</time>
      </trkpt>
      <trkpt lat="43.12933" lon="2.0011">
        <ele>410.3</ele>
        <time>2026-05-28T07:07:07Z</time>
      </trkpt>
      <trkpt lat="43.12928" lon="2.00106">
        <ele>409.8</ele>
        <time>2026-05-28T07:07:12Z</time>
      </trkpt>
      <trkpt lat="43.12922" lon="2.00105">
        <ele>409.3</ele>
        <time>2026-05-28T07:07:17Z</time>
      </trkpt>
      <trkpt lat="43.12917" lon="2.00105">
        <ele>408.8</ele>
        <time>2026-05-28T07:07:22Z</time>
      </trkpt>
      <trkpt lat="43.12913" lon="2.00104">
        <ele>408.2</ele>
        <time>2026-05-28T07:07:27Z</time>
      </trkpt>
      <trkpt lat="43.12908" lon="2.00101">
        <ele>407.4</ele>
        <time>2026-05-28T07:07:32Z</time>
      </trkpt>
      <trkpt lat="43.12904" lon="2.001">
        <ele>406.8</ele>
        <time>2026-05-28T07:07:37Z</time>
      </trkpt>
      <trkpt lat="43.12902" lon="2.00099">
        <ele>406.5</ele>
        <time>2026-05-28T07:07:42Z</time>
      </trkpt>
      <trkpt lat="43.12901" lon="2.00099">
        <ele>406.4</ele>
        <time>2026-05-28T07:07:47Z</time>
      </trkpt>
      <trkpt lat="43.12901" lon="2.00099">
        <ele>406.4</ele>
        <time>2026-05-28T07:07:52Z</time>
      </trkpt>
      <trkpt lat="43.12898" lon="2.00099">
        <ele>405.9</ele>
        <time>2026-05-28T07:07:57Z</time>
      </trkpt>
      <trkpt lat="43.12897" lon="2.00107">
        <ele>405.6</ele>
        <time>2026-05-28T07:08:02Z</time>
      </trkpt>
      <trkpt lat="43.12897" lon="2.00113">
        <ele>405.6</ele>
        <time>2026-05-28T07:08:07Z</time>
      </trkpt>
      <trkpt lat="43.12896" lon="2.00116">
        <ele>405.4</ele>
        <time>2026-05-28T07:08:12Z</time>
      </trkpt>
      <trkpt lat="43.12895" lon="2.00122">
        <ele>405.2</ele>
        <time>2026-05-28T07:08:17Z</time>
      </trkpt>
      <trkpt lat="43.12896" lon="2.0013">
        <ele>405.2</ele>
        <time>2026-05-28T07:08:22Z</time>
      </trkpt>
      <trkpt lat="43.12896" lon="2.00137">
        <ele>405.1</ele>
        <time>2026-05-28T07:08:27Z</time>
      </trkpt>
      <trkpt lat="43.12897" lon="2.00144">
        <ele>405.2</ele>
        <time>2026-05-28T07:08:32Z</time>
      </trkpt>
      <trkpt lat="43.12898" lon="2.0015">
        <ele>405.3</ele>
        <time>2026-05-28T07:08:37Z</time>
      </trkpt>
      <trkpt lat="43.12902" lon="2.00153">
        <ele>405.9</ele>
        <time>2026-05-28T07:08:42Z</time>
      </trkpt>
      <trkpt lat="43.12905" lon="2.00155">
        <ele>406.3</ele>
        <time>2026-05-28T07:08:47Z</time>
      </trkpt>
      <trkpt lat="43.12906" lon="2.00159">
        <ele>406.4</ele>
        <time>2026-05-28T07:08:52Z</time>
      </trkpt>
      <trkpt lat="43.12908" lon="2.00161">
        <ele>406.7</ele>
        <time>2026-05-28T07:08:57Z</time>
      </trkpt>
      <trkpt lat="43.1291" lon="2.00164">
        <ele>407</ele>
        <time>2026-05-28T07:09:02Z</time>
      </trkpt>
      <trkpt lat="43.1291" lon="2.00164">
        <ele>407</ele>
        <time>2026-05-28T07:09:07Z</time>
      </trkpt>
      <trkpt lat="43.1291" lon="2.00164">
        <ele>407</ele>
        <time>2026-05-28T07:09:12Z</time>
      </trkpt>
      <trkpt lat="43.1291" lon="2.00164">
        <ele>407</ele>
        <time>2026-05-28T07:09:17Z</time>
      </trkpt>
      <trkpt lat="43.1291" lon="2.00164">
        <ele>407</ele>
        <time>2026-05-28T07:09:22Z</time>
      </trkpt>
      <trkpt lat="43.1291" lon="2.00164">
        <ele>407</ele>
        <time>2026-05-28T07:09:27Z</time>
      </trkpt>
      <trkpt lat="43.12904" lon="2.00153">
        <ele>406.2</ele>
        <time>2026-05-28T07:09:32Z</time>
      </trkpt>
      <trkpt lat="43.12899" lon="2.00153">
        <ele>405.4</ele>
        <time>2026-05-28T07:09:37Z</time>
      </trkpt>
      <trkpt lat="43.12894" lon="2.00157">
        <ele>404.6</ele>
        <time>2026-05-28T07:09:42Z</time>
      </trkpt>
      <trkpt lat="43.12889" lon="2.00158">
        <ele>403.8</ele>
        <time>2026-05-28T07:09:47Z</time>
      </trkpt>
      <trkpt lat="43.12888" lon="2.00162">
        <ele>403.6</ele>
        <time>2026-05-28T07:09:52Z</time>
      </trkpt>
      <trkpt lat="43.12888" lon="2.0017">
        <ele>402.9</ele>
        <time>2026-05-28T07:09:57Z</time>
      </trkpt>
      <trkpt lat="43.12889" lon="2.00175">
        <ele>402.1</ele>
        <time>2026-05-28T07:10:02Z</time>
      </trkpt>
      <trkpt lat="43.12887" lon="2.00178">
        <ele>401.2</ele>
        <time>2026-05-28T07:10:07Z</time>
      </trkpt>
      <trkpt lat="43.12887" lon="2.00179">
        <ele>401</ele>
        <time>2026-05-28T07:10:12Z</time>
      </trkpt>
      <trkpt lat="43.12887" lon="2.00179">
        <ele>401</ele>
        <time>2026-05-28T07:10:17Z</time>
      </trkpt>
      <trkpt lat="43.12887" lon="2.00179">
        <ele>401</ele>
        <time>2026-05-28T07:10:22Z</time>
      </trkpt>
      <trkpt lat="43.12887" lon="2.00179">
        <ele>401</ele>
        <time>2026-05-28T07:10:27Z</time>
      </trkpt>
      <trkpt lat="43.12887" lon="2.00179">
        <ele>401</ele>
        <time>2026-05-28T07:10:32Z</time>
      </trkpt>
      <trkpt lat="43.12887" lon="2.00179">
        <ele>401</ele>
        <time>2026-05-28T07:10:37Z</time>
      </trkpt>
      <trkpt lat="43.12887" lon="2.00179">
        <ele>401</ele>
        <time>2026-05-28T07:10:42Z</time>
      </trkpt>
      <trkpt lat="43.12887" lon="2.00179">
        <ele>401</ele>
        <time>2026-05-28T07:10:47Z</time>
      </trkpt>
      <trkpt lat="43.12887" lon="2.00179">
        <ele>401</ele>
        <time>2026-05-28T07:10:52Z</time>
      </trkpt>
      <trkpt lat="43.12887" lon="2.00179">
        <ele>401</ele>
        <time>2026-05-28T07:10:57Z</time>
      </trkpt>
      <trkpt lat="43.12889" lon="2.00174">
        <ele>402.3</ele>
        <time>2026-05-28T07:11:02Z</time>
      </trkpt>
      <trkpt lat="43.12891" lon="2.00165">
        <ele>404</ele>
        <time>2026-05-28T07:11:07Z</time>
      </trkpt>
      <trkpt lat="43.12888" lon="2.00161">
        <ele>403.6</ele>
        <time>2026-05-28T07:11:12Z</time>
      </trkpt>
      <trkpt lat="43.12883" lon="2.0016">
        <ele>402.8</ele>
        <time>2026-05-28T07:11:17Z</time>
      </trkpt>
      <trkpt lat="43.12877" lon="2.00158">
        <ele>401.9</ele>
        <time>2026-05-28T07:11:22Z</time>
      </trkpt>
      <trkpt lat="43.12873" lon="2.00157">
        <ele>401.3</ele>
        <time>2026-05-28T07:11:27Z</time>
      </trkpt>
      <trkpt lat="43.12871" lon="2.00157">
        <ele>401</ele>
        <time>2026-05-28T07:11:32Z</time>
      </trkpt>
      <trkpt lat="43.1287" lon="2.00158">
        <ele>400.8</ele>
        <time>2026-05-28T07:11:37Z</time>
      </trkpt>
      <trkpt lat="43.1287" lon="2.00158">
        <ele>400.8</ele>
        <time>2026-05-28T07:11:42Z</time>
      </trkpt>
      <trkpt lat="43.1287" lon="2.00158">
        <ele>400.8</ele>
        <time>2026-05-28T07:11:47Z</time>
      </trkpt>
      <trkpt lat="43.1287" lon="2.00158">
        <ele>400.8</ele>
        <time>2026-05-28T07:11:52Z</time>
      </trkpt>
      <trkpt lat="43.12868" lon="2.00153">
        <ele>400.6</ele>
        <time>2026-05-28T07:11:57Z</time>
      </trkpt>
      <trkpt lat="43.12867" lon="2.00151">
        <ele>400.4</ele>
        <time>2026-05-28T07:12:02Z</time>
      </trkpt>
      <trkpt lat="43.12863" lon="2.00151">
        <ele>399.8</ele>
        <time>2026-05-28T07:12:07Z</time>
      </trkpt>
      <trkpt lat="43.1286" lon="2.00151">
        <ele>399.3</ele>
        <time>2026-05-28T07:12:12Z</time>
      </trkpt>
      <trkpt lat="43.12855" lon="2.00152">
        <ele>398.6</ele>
        <time>2026-05-28T07:12:17Z</time>
      </trkpt>
      <trkpt lat="43.1285" lon="2.00151">
        <ele>397.8</ele>
        <time>2026-05-28T07:12:22Z</time>
      </trkpt>
      <trkpt lat="43.12847" lon="2.00155">
        <ele>397.3</ele>
        <time>2026-05-28T07:12:27Z</time>
      </trkpt>
      <trkpt lat="43.12846" lon="2.00162">
        <ele>397</ele>
        <time>2026-05-28T07:12:32Z</time>
      </trkpt>
      <trkpt lat="43.12845" lon="2.00166">
        <ele>396.8</ele>
        <time>2026-05-28T07:12:37Z</time>
      </trkpt>
      <trkpt lat="43.12844" lon="2.00166">
        <ele>396.7</ele>
        <time>2026-05-28T07:12:42Z</time>
      </trkpt>
      <trkpt lat="43.12844" lon="2.00166">
        <ele>396.7</ele>
        <time>2026-05-28T07:12:47Z</time>
      </trkpt>
      <trkpt lat="43.12844" lon="2.00166">
        <ele>396.7</ele>
        <time>2026-05-28T07:12:52Z</time>
      </trkpt>
      <trkpt lat="43.12844" lon="2.00159">
        <ele>396.8</ele>
        <time>2026-05-28T07:12:57Z</time>
      </trkpt>
      <trkpt lat="43.12846" lon="2.00152">
        <ele>397.2</ele>
        <time>2026-05-28T07:13:02Z</time>
      </trkpt>
      <trkpt lat="43.12848" lon="2.00146">
        <ele>397.5</ele>
        <time>2026-05-28T07:13:07Z</time>
      </trkpt>
      <trkpt lat="43.12846" lon="2.00137">
        <ele>397.3</ele>
        <time>2026-05-28T07:13:12Z</time>
      </trkpt>
      <trkpt lat="43.12844" lon="2.0013">
        <ele>397.1</ele>
        <time>2026-05-28T07:13:17Z</time>
      </trkpt>
      <trkpt lat="43.12842" lon="2.00125">
        <ele>396.9</ele>
        <time>2026-05-28T07:13:22Z</time>
      </trkpt>
      <trkpt lat="43.12839" lon="2.00121">
        <ele>396.4</ele>
        <time>2026-05-28T07:13:27Z</time>
      </trkpt>
      <trkpt lat="43.12836" lon="2.00116">
        <ele>396</ele>
        <time>2026-05-28T07:13:32Z</time>
      </trkpt>
      <trkpt lat="43.12834" lon="2.00108">
        <ele>395.8</ele>
        <time>2026-05-28T07:13:37Z</time>
      </trkpt>
      <trkpt lat="43.12833" lon="2.00099">
        <ele>395.8</ele>
        <time>2026-05-28T07:13:42Z</time>
      </trkpt>
      <trkpt lat="43.1283" lon="2.00094">
        <ele>396.2</ele>
        <time>2026-05-28T07:13:47Z</time>
      </trkpt>
      <trkpt lat="43.12826" lon="2.00098">
        <ele>396.5</ele>
        <time>2026-05-28T07:13:52Z</time>
      </trkpt>
      <trkpt lat="43.12823" lon="2.00107">
        <ele>396.6</ele>
        <time>2026-05-28T07:13:57Z</time>
      </trkpt>
      <trkpt lat="43.12822" lon="2.00113">
        <ele>396.5</ele>
        <time>2026-05-28T07:14:02Z</time>
      </trkpt>
      <trkpt lat="43.1282" lon="2.00115">
        <ele>396.6</ele>
        <time>2026-05-28T07:14:07Z</time>
      </trkpt>
      <trkpt lat="43.1282" lon="2.00115">
        <ele>396.6</ele>
        <time>2026-05-28T07:14:12Z</time>
      </trkpt>
      <trkpt lat="43.12818" lon="2.00123">
        <ele>396.5</ele>
        <time>2026-05-28T07:14:17Z</time>
      </trkpt>
      <trkpt lat="43.12815" lon="2.00129">
        <ele>396.5</ele>
        <time>2026-05-28T07:14:22Z</time>
      </trkpt>
      <trkpt lat="43.12812" lon="2.00138">
        <ele>396.3</ele>
        <time>2026-05-28T07:14:27Z</time>
      </trkpt>
      <trkpt lat="43.12808" lon="2.00145">
        <ele>396.2</ele>
        <time>2026-05-28T07:14:32Z</time>
      </trkpt>
      <trkpt lat="43.12803" lon="2.00151">
        <ele>396.1</ele>
        <time>2026-05-28T07:14:37Z</time>
      </trkpt>
      <trkpt lat="43.12799" lon="2.00157">
        <ele>395.9</ele>
        <time>2026-05-28T07:14:42Z</time>
      </trkpt>
      <trkpt lat="43.12794" lon="2.00161">
        <ele>395.8</ele>
        <time>2026-05-28T07:14:47Z</time>
      </trkpt>
      <trkpt lat="43.12789" lon="2.00166">
        <ele>395.6</ele>
        <time>2026-05-28T07:14:52Z</time>
      </trkpt>
      <trkpt lat="43.12784" lon="2.00168">
        <ele>395.3</ele>
        <time>2026-05-28T07:14:57Z</time>
      </trkpt>
      <trkpt lat="43.12778" lon="2.00169">
        <ele>395.1</ele>
        <time>2026-05-28T07:15:02Z</time>
      </trkpt>
      <trkpt lat="43.12773" lon="2.00168">
        <ele>395.4</ele>
        <time>2026-05-28T07:15:07Z</time>
      </trkpt>
      <trkpt lat="43.12767" lon="2.00167">
        <ele>395.7</ele>
        <time>2026-05-28T07:15:12Z</time>
      </trkpt>
      <trkpt lat="43.12761" lon="2.00165">
        <ele>396</ele>
        <time>2026-05-28T07:15:17Z</time>
      </trkpt>
      <trkpt lat="43.12758" lon="2.00164">
        <ele>396.2</ele>
        <time>2026-05-28T07:15:22Z</time>
      </trkpt>
      <trkpt lat="43.12758" lon="2.00163">
        <ele>396.3</ele>
        <time>2026-05-28T07:15:27Z</time>
      </trkpt>
      <trkpt lat="43.12757" lon="2.00163">
        <ele>396.3</ele>
        <time>2026-05-28T07:15:32Z</time>
      </trkpt>
      <trkpt lat="43.12757" lon="2.00163">
        <ele>396.3</ele>
        <time>2026-05-28T07:15:37Z</time>
      </trkpt>
      <trkpt lat="43.12751" lon="2.00167">
        <ele>395.9</ele>
        <time>2026-05-28T07:15:42Z</time>
      </trkpt>
      <trkpt lat="43.12746" lon="2.00169">
        <ele>395.1</ele>
        <time>2026-05-28T07:15:47Z</time>
      </trkpt>
      <trkpt lat="43.1274" lon="2.0017">
        <ele>394.5</ele>
        <time>2026-05-28T07:15:52Z</time>
      </trkpt>
      <trkpt lat="43.12734" lon="2.00171">
        <ele>393.8</ele>
        <time>2026-05-28T07:15:57Z</time>
      </trkpt>
      <trkpt lat="43.12728" lon="2.00171">
        <ele>393.3</ele>
        <time>2026-05-28T07:16:02Z</time>
      </trkpt>
      <trkpt lat="43.12723" lon="2.0017">
        <ele>393.2</ele>
        <time>2026-05-28T07:16:07Z</time>
      </trkpt>
      <trkpt lat="43.12717" lon="2.00169">
        <ele>393</ele>
        <time>2026-05-28T07:16:12Z</time>
      </trkpt>
      <trkpt lat="43.12711" lon="2.00168">
        <ele>392.8</ele>
        <time>2026-05-28T07:16:17Z</time>
      </trkpt>
      <trkpt lat="43.12706" lon="2.00166">
        <ele>393</ele>
        <time>2026-05-28T07:16:22Z</time>
      </trkpt>
      <trkpt lat="43.127" lon="2.00163">
        <ele>393.2</ele>
        <time>2026-05-28T07:16:27Z</time>
      </trkpt>
      <trkpt lat="43.12694" lon="2.0016">
        <ele>393.4</ele>
        <time>2026-05-28T07:16:32Z</time>
      </trkpt>
      <trkpt lat="43.12689" lon="2.00157">
        <ele>393.8</ele>
        <time>2026-05-28T07:16:37Z</time>
      </trkpt>
      <trkpt lat="43.12685" lon="2.00154">
        <ele>394.3</ele>
        <time>2026-05-28T07:16:42Z</time>
      </trkpt>
      <trkpt lat="43.1268" lon="2.00152">
        <ele>394.6</ele>
        <time>2026-05-28T07:16:47Z</time>
      </trkpt>
      <trkpt lat="43.12676" lon="2.0015">
        <ele>395</ele>
        <time>2026-05-28T07:16:52Z</time>
      </trkpt>
      <trkpt lat="43.12671" lon="2.00147">
        <ele>395.6</ele>
        <time>2026-05-28T07:16:57Z</time>
      </trkpt>
      <trkpt lat="43.12669" lon="2.00146">
        <ele>395.8</ele>
        <time>2026-05-28T07:17:02Z</time>
      </trkpt>
      <trkpt lat="43.12668" lon="2.00147">
        <ele>395.5</ele>
        <time>2026-05-28T07:17:07Z</time>
      </trkpt>
      <trkpt lat="43.12666" lon="2.00145">
        <ele>396</ele>
        <time>2026-05-28T07:17:12Z</time>
      </trkpt>
      <trkpt lat="43.12662" lon="2.00141">
        <ele>397</ele>
        <time>2026-05-28T07:17:17Z</time>
      </trkpt>
      <trkpt lat="43.12658" lon="2.00137">
        <ele>398.1</ele>
        <time>2026-05-28T07:17:22Z</time>
      </trkpt>
      <trkpt lat="43.12653" lon="2.00133">
        <ele>399.2</ele>
        <time>2026-05-28T07:17:27Z</time>
      </trkpt>
      <trkpt lat="43.12648" lon="2.00129">
        <ele>400.2</ele>
        <time>2026-05-28T07:17:32Z</time>
      </trkpt>
      <trkpt lat="43.12644" lon="2.00128">
        <ele>400.4</ele>
        <time>2026-05-28T07:17:37Z</time>
      </trkpt>
      <trkpt lat="43.12641" lon="2.00125">
        <ele>401.2</ele>
        <time>2026-05-28T07:17:42Z</time>
      </trkpt>
      <trkpt lat="43.12635" lon="2.00121">
        <ele>402.2</ele>
        <time>2026-05-28T07:17:47Z</time>
      </trkpt>
      <trkpt lat="43.12629" lon="2.00119">
        <ele>402.6</ele>
        <time>2026-05-28T07:17:52Z</time>
      </trkpt>
      <trkpt lat="43.12624" lon="2.00116">
        <ele>403.4</ele>
        <time>2026-05-28T07:17:57Z</time>
      </trkpt>
      <trkpt lat="43.12618" lon="2.00114">
        <ele>403.8</ele>
        <time>2026-05-28T07:18:02Z</time>
      </trkpt>
      <trkpt lat="43.12612" lon="2.00113">
        <ele>404</ele>
        <time>2026-05-28T07:18:07Z</time>
      </trkpt>
      <trkpt lat="43.12607" lon="2.00111">
        <ele>404.4</ele>
        <time>2026-05-28T07:18:12Z</time>
      </trkpt>
      <trkpt lat="43.12601" lon="2.0011">
        <ele>404.6</ele>
        <time>2026-05-28T07:18:17Z</time>
      </trkpt>
      <trkpt lat="43.12595" lon="2.0011">
        <ele>404.5</ele>
        <time>2026-05-28T07:18:22Z</time>
      </trkpt>
      <trkpt lat="43.1259" lon="2.00108">
        <ele>404.9</ele>
        <time>2026-05-28T07:18:27Z</time>
      </trkpt>
      <trkpt lat="43.12585" lon="2.00106">
        <ele>405.3</ele>
        <time>2026-05-28T07:18:32Z</time>
      </trkpt>
      <trkpt lat="43.12579" lon="2.00104">
        <ele>405.7</ele>
        <time>2026-05-28T07:18:37Z</time>
      </trkpt>
      <trkpt lat="43.12575" lon="2.00103">
        <ele>405.8</ele>
        <time>2026-05-28T07:18:42Z</time>
      </trkpt>
      <trkpt lat="43.12569" lon="2.00101">
        <ele>406.1</ele>
        <time>2026-05-28T07:18:47Z</time>
      </trkpt>
      <trkpt lat="43.12564" lon="2.00099">
        <ele>406.3</ele>
        <time>2026-05-28T07:18:52Z</time>
      </trkpt>
      <trkpt lat="43.12558" lon="2.00097">
        <ele>406.5</ele>
        <time>2026-05-28T07:18:57Z</time>
      </trkpt>
      <trkpt lat="43.12553" lon="2.00095">
        <ele>406.7</ele>
        <time>2026-05-28T07:19:02Z</time>
      </trkpt>
      <trkpt lat="43.12546" lon="2.00093">
        <ele>406.8</ele>
        <time>2026-05-28T07:19:07Z</time>
      </trkpt>
      <trkpt lat="43.1254" lon="2.00093">
        <ele>406.6</ele>
        <time>2026-05-28T07:19:12Z</time>
      </trkpt>
      <trkpt lat="43.12534" lon="2.00093">
        <ele>406.3</ele>
        <time>2026-05-28T07:19:17Z</time>
      </trkpt>
      <trkpt lat="43.12528" lon="2.00094">
        <ele>405.8</ele>
        <time>2026-05-28T07:19:22Z</time>
      </trkpt>
      <trkpt lat="43.12522" lon="2.00096">
        <ele>405.2</ele>
        <time>2026-05-28T07:19:27Z</time>
      </trkpt>
      <trkpt lat="43.12516" lon="2.00099">
        <ele>404.5</ele>
        <time>2026-05-28T07:19:32Z</time>
      </trkpt>
      <trkpt lat="43.1251" lon="2.00102">
        <ele>403.9</ele>
        <time>2026-05-28T07:19:37Z</time>
      </trkpt>
      <trkpt lat="43.12504" lon="2.00105">
        <ele>403.3</ele>
        <time>2026-05-28T07:19:42Z</time>
      </trkpt>
      <trkpt lat="43.12497" lon="2.00108">
        <ele>402.5</ele>
        <time>2026-05-28T07:19:47Z</time>
      </trkpt>
      <trkpt lat="43.12492" lon="2.00111">
        <ele>401.8</ele>
        <time>2026-05-28T07:19:52Z</time>
      </trkpt>
      <trkpt lat="43.12487" lon="2.00114">
        <ele>401.2</ele>
        <time>2026-05-28T07:19:57Z</time>
      </trkpt>
      <trkpt lat="43.1248" lon="2.00117">
        <ele>400.5</ele>
        <time>2026-05-28T07:20:02Z</time>
      </trkpt>
      <trkpt lat="43.12473" lon="2.00119">
        <ele>399.9</ele>
        <time>2026-05-28T07:20:07Z</time>
      </trkpt>
      <trkpt lat="43.12467" lon="2.00119">
        <ele>399.6</ele>
        <time>2026-05-28T07:20:12Z</time>
      </trkpt>
      <trkpt lat="43.12461" lon="2.0012">
        <ele>399.2</ele>
        <time>2026-05-28T07:20:17Z</time>
      </trkpt>
      <trkpt lat="43.12453" lon="2.00123">
        <ele>398.6</ele>
        <time>2026-05-28T07:20:22Z</time>
      </trkpt>
      <trkpt lat="43.12446" lon="2.00126">
        <ele>398.2</ele>
        <time>2026-05-28T07:20:27Z</time>
      </trkpt>
      <trkpt lat="43.1244" lon="2.00129">
        <ele>397.8</ele>
        <time>2026-05-28T07:20:32Z</time>
      </trkpt>
      <trkpt lat="43.12434" lon="2.00132">
        <ele>397.5</ele>
        <time>2026-05-28T07:20:37Z</time>
      </trkpt>
      <trkpt lat="43.12431" lon="2.00131">
        <ele>397.5</ele>
        <time>2026-05-28T07:20:42Z</time>
      </trkpt>
      <trkpt lat="43.1243" lon="2.0013">
        <ele>397.5</ele>
        <time>2026-05-28T07:20:47Z</time>
      </trkpt>
      <trkpt lat="43.12429" lon="2.0013">
        <ele>397.4</ele>
        <time>2026-05-28T07:20:52Z</time>
      </trkpt>
      <trkpt lat="43.12429" lon="2.0013">
        <ele>397.4</ele>
        <time>2026-05-28T07:20:57Z</time>
      </trkpt>
      <trkpt lat="43.12429" lon="2.0013">
        <ele>397.4</ele>
        <time>2026-05-28T07:21:02Z</time>
      </trkpt>
      <trkpt lat="43.12429" lon="2.0013">
        <ele>397.4</ele>
        <time>2026-05-28T07:21:07Z</time>
      </trkpt>
      <trkpt lat="43.12429" lon="2.0013">
        <ele>397.4</ele>
        <time>2026-05-28T07:21:12Z</time>
      </trkpt>
      <trkpt lat="43.12429" lon="2.0013">
        <ele>397.4</ele>
        <time>2026-05-28T07:21:17Z</time>
      </trkpt>
      <trkpt lat="43.12427" lon="2.00132">
        <ele>397.3</ele>
        <time>2026-05-28T07:21:22Z</time>
      </trkpt>
      <trkpt lat="43.12426" lon="2.00136">
        <ele>397.2</ele>
        <time>2026-05-28T07:21:27Z</time>
      </trkpt>
      <trkpt lat="43.12428" lon="2.00139">
        <ele>397.2</ele>
        <time>2026-05-28T07:21:32Z</time>
      </trkpt>
      <trkpt lat="43.12428" lon="2.00139">
        <ele>397.2</ele>
        <time>2026-05-28T07:21:37Z</time>
      </trkpt>
      <trkpt lat="43.12428" lon="2.00139">
        <ele>397.2</ele>
        <time>2026-05-28T07:21:42Z</time>
      </trkpt>
      <trkpt lat="43.12428" lon="2.00139">
        <ele>397.2</ele>
        <time>2026-05-28T07:21:47Z</time>
      </trkpt>
      <trkpt lat="43.12428" lon="2.00139">
        <ele>397.2</ele>
        <time>2026-05-28T07:21:52Z</time>
      </trkpt>
      <trkpt lat="43.12428" lon="2.00139">
        <ele>397.2</ele>
        <time>2026-05-28T07:21:57Z</time>
      </trkpt>
      <trkpt lat="43.12428" lon="2.00139">
        <ele>397.2</ele>
        <time>2026-05-28T07:22:02Z</time>
      </trkpt>
      <trkpt lat="43.12428" lon="2.00139">
        <ele>397.2</ele>
        <time>2026-05-28T07:22:07Z</time>
      </trkpt>
      <trkpt lat="43.12428" lon="2.00139">
        <ele>397.2</ele>
        <time>2026-05-28T07:22:12Z</time>
      </trkpt>
      <trkpt lat="43.12428" lon="2.00139">
        <ele>397.2</ele>
        <time>2026-05-28T07:22:17Z</time>
      </trkpt>
      <trkpt lat="43.12428" lon="2.00139">
        <ele>397.2</ele>
        <time>2026-05-28T07:22:22Z</time>
      </trkpt>
      <trkpt lat="43.12428" lon="2.00139">
        <ele>397.2</ele>
        <time>2026-05-28T07:22:27Z</time>
      </trkpt>
      <trkpt lat="43.12428" lon="2.00139">
        <ele>397.2</ele>
        <time>2026-05-28T07:22:32Z</time>
      </trkpt>
      <trkpt lat="43.12428" lon="2.00139">
        <ele>397.2</ele>
        <time>2026-05-28T07:22:37Z</time>
      </trkpt>
      <trkpt lat="43.12428" lon="2.00139">
        <ele>397.2</ele>
        <time>2026-05-28T07:22:42Z</time>
      </trkpt>
      <trkpt lat="43.12428" lon="2.00139">
        <ele>397.2</ele>
        <time>2026-05-28T07:22:47Z</time>
      </trkpt>
      <trkpt lat="43.12428" lon="2.00139">
        <ele>397.2</ele>
        <time>2026-05-28T07:22:52Z</time>
      </trkpt>
      <trkpt lat="43.12428" lon="2.00139">
        <ele>397.2</ele>
        <time>2026-05-28T07:22:57Z</time>
      </trkpt>
      <trkpt lat="43.12428" lon="2.00139">
        <ele>397.2</ele>
        <time>2026-05-28T07:23:02Z</time>
      </trkpt>
      <trkpt lat="43.12428" lon="2.00139">
        <ele>397.2</ele>
        <time>2026-05-28T07:23:07Z</time>
      </trkpt>
      <trkpt lat="43.12428" lon="2.00139">
        <ele>397.2</ele>
        <time>2026-05-28T07:23:12Z</time>
      </trkpt>
      <trkpt lat="43.12428" lon="2.00139">
        <ele>397.2</ele>
        <time>2026-05-28T07:23:17Z</time>
      </trkpt>
      <trkpt lat="43.12428" lon="2.00139">
        <ele>397.2</ele>
        <time>2026-05-28T07:23:22Z</time>
      </trkpt>
      <trkpt lat="43.12428" lon="2.00139">
        <ele>397.2</ele>
        <time>2026-05-28T07:23:27Z</time>
      </trkpt>
      <trkpt lat="43.12428" lon="2.00139">
        <ele>397.2</ele>
        <time>2026-05-28T07:23:32Z</time>
      </trkpt>
      <trkpt lat="43.12428" lon="2.00139">
        <ele>397.2</ele>
        <time>2026-05-28T07:23:37Z</time>
      </trkpt>
      <trkpt lat="43.12428" lon="2.00139">
        <ele>397.2</ele>
        <time>2026-05-28T07:23:42Z</time>
      </trkpt>
      <trkpt lat="43.12428" lon="2.00139">
        <ele>397.2</ele>
        <time>2026-05-28T07:23:47Z</time>
      </trkpt>
      <trkpt lat="43.12428" lon="2.00139">
        <ele>397.2</ele>
        <time>2026-05-28T07:23:52Z</time>
      </trkpt>
      <trkpt lat="43.12428" lon="2.00139">
        <ele>397.2</ele>
        <time>2026-05-28T07:23:57Z</time>
      </trkpt>
      <trkpt lat="43.12421" lon="2.00136">
        <ele>397.1</ele>
        <time>2026-05-28T07:24:02Z</time>
      </trkpt>
      <trkpt lat="43.12416" lon="2.00136">
        <ele>396.9</ele>
        <time>2026-05-28T07:24:07Z</time>
      </trkpt>
      <trkpt lat="43.12411" lon="2.00139">
        <ele>396.4</ele>
        <time>2026-05-28T07:24:12Z</time>
      </trkpt>
      <trkpt lat="43.12408" lon="2.00143">
        <ele>396</ele>
        <time>2026-05-28T07:24:17Z</time>
      </trkpt>
      <trkpt lat="43.12404" lon="2.00146">
        <ele>395.6</ele>
        <time>2026-05-28T07:24:22Z</time>
      </trkpt>
      <trkpt lat="43.12399" lon="2.00149">
        <ele>395</ele>
        <time>2026-05-28T07:24:27Z</time>
      </trkpt>
      <trkpt lat="43.12395" lon="2.00151">
        <ele>394.5</ele>
        <time>2026-05-28T07:24:32Z</time>
      </trkpt>
      <trkpt lat="43.1239" lon="2.00153">
        <ele>394</ele>
        <time>2026-05-28T07:24:37Z</time>
      </trkpt>
      <trkpt lat="43.12384" lon="2.00154">
        <ele>393.3</ele>
        <time>2026-05-28T07:24:42Z</time>
      </trkpt>
      <trkpt lat="43.12376" lon="2.00153">
        <ele>392.4</ele>
        <time>2026-05-28T07:24:47Z</time>
      </trkpt>
      <trkpt lat="43.12369" lon="2.0015">
        <ele>391.6</ele>
        <time>2026-05-28T07:24:52Z</time>
      </trkpt>
      <trkpt lat="43.12364" lon="2.00144">
        <ele>391.2</ele>
        <time>2026-05-28T07:24:57Z</time>
      </trkpt>
      <trkpt lat="43.1236" lon="2.00139">
        <ele>390.9</ele>
        <time>2026-05-28T07:25:02Z</time>
      </trkpt>
      <trkpt lat="43.12356" lon="2.00132">
        <ele>390.6</ele>
        <time>2026-05-28T07:25:07Z</time>
      </trkpt>
      <trkpt lat="43.12352" lon="2.00125">
        <ele>390.4</ele>
        <time>2026-05-28T07:25:12Z</time>
      </trkpt>
      <trkpt lat="43.12349" lon="2.00119">
        <ele>390.3</ele>
        <time>2026-05-28T07:25:17Z</time>
      </trkpt>
      <trkpt lat="43.12346" lon="2.00112">
        <ele>390.2</ele>
        <time>2026-05-28T07:25:22Z</time>
      </trkpt>
      <trkpt lat="43.12342" lon="2.00105">
        <ele>390</ele>
        <time>2026-05-28T07:25:27Z</time>
      </trkpt>
      <trkpt lat="43.12339" lon="2.00099">
        <ele>390</ele>
        <time>2026-05-28T07:25:32Z</time>
      </trkpt>
      <trkpt lat="43.12336" lon="2.00093">
        <ele>389.9</ele>
        <time>2026-05-28T07:25:37Z</time>
      </trkpt>
      <trkpt lat="43.12332" lon="2.00085">
        <ele>390.1</ele>
        <time>2026-05-28T07:25:42Z</time>
      </trkpt>
      <trkpt lat="43.12329" lon="2.00078">
        <ele>390.2</ele>
        <time>2026-05-28T07:25:47Z</time>
      </trkpt>
      <trkpt lat="43.12324" lon="2.00073">
        <ele>390.4</ele>
        <time>2026-05-28T07:25:52Z</time>
      </trkpt>
      <trkpt lat="43.1232" lon="2.0007">
        <ele>390.6</ele>
        <time>2026-05-28T07:25:57Z</time>
      </trkpt>
      <trkpt lat="43.12317" lon="2.00064">
        <ele>390.5</ele>
        <time>2026-05-28T07:26:02Z</time>
      </trkpt>
      <trkpt lat="43.12312" lon="2.00059">
        <ele>390.7</ele>
        <time>2026-05-28T07:26:07Z</time>
      </trkpt>
      <trkpt lat="43.12307" lon="2.00055">
        <ele>390.8</ele>
        <time>2026-05-28T07:26:12Z</time>
      </trkpt>
      <trkpt lat="43.12301" lon="2.00053">
        <ele>391.2</ele>
        <time>2026-05-28T07:26:17Z</time>
      </trkpt>
      <trkpt lat="43.12298" lon="2.0005">
        <ele>391.3</ele>
        <time>2026-05-28T07:26:22Z</time>
      </trkpt>
      <trkpt lat="43.12296" lon="2.00047">
        <ele>391.3</ele>
        <time>2026-05-28T07:26:27Z</time>
      </trkpt>
      <trkpt lat="43.12295" lon="2.00047">
        <ele>391.3</ele>
        <time>2026-05-28T07:26:32Z</time>
      </trkpt>
      <trkpt lat="43.12295" lon="2.00047">
        <ele>391.3</ele>
        <time>2026-05-28T07:26:37Z</time>
      </trkpt>
      <trkpt lat="43.12295" lon="2.00047">
        <ele>391.3</ele>
        <time>2026-05-28T07:26:42Z</time>
      </trkpt>
      <trkpt lat="43.12291" lon="2.00046">
        <ele>391.6</ele>
        <time>2026-05-28T07:26:47Z</time>
      </trkpt>
      <trkpt lat="43.12286" lon="2.00044">
        <ele>391.9</ele>
        <time>2026-05-28T07:26:52Z</time>
      </trkpt>
      <trkpt lat="43.12279" lon="2.00046">
        <ele>392.5</ele>
        <time>2026-05-28T07:26:57Z</time>
      </trkpt>
      <trkpt lat="43.12274" lon="2.00048">
        <ele>393.1</ele>
        <time>2026-05-28T07:27:02Z</time>
      </trkpt>
      <trkpt lat="43.12269" lon="2.00051">
        <ele>393.7</ele>
        <time>2026-05-28T07:27:07Z</time>
      </trkpt>
      <trkpt lat="43.12264" lon="2.00054">
        <ele>394.4</ele>
        <time>2026-05-28T07:27:12Z</time>
      </trkpt>
      <trkpt lat="43.12259" lon="2.00058">
        <ele>395.1</ele>
        <time>2026-05-28T07:27:17Z</time>
      </trkpt>
      <trkpt lat="43.12255" lon="2.00062">
        <ele>395.8</ele>
        <time>2026-05-28T07:27:22Z</time>
      </trkpt>
      <trkpt lat="43.12249" lon="2.00063">
        <ele>396.3</ele>
        <time>2026-05-28T07:27:27Z</time>
      </trkpt>
      <trkpt lat="43.12243" lon="2.00062">
        <ele>396</ele>
        <time>2026-05-28T07:27:32Z</time>
      </trkpt>
      <trkpt lat="43.12237" lon="2.00061">
        <ele>395.7</ele>
        <time>2026-05-28T07:27:37Z</time>
      </trkpt>
      <trkpt lat="43.1223" lon="2.00059">
        <ele>395.3</ele>
        <time>2026-05-28T07:27:42Z</time>
      </trkpt>
      <trkpt lat="43.12223" lon="2.00055">
        <ele>394.8</ele>
        <time>2026-05-28T07:27:47Z</time>
      </trkpt>
      <trkpt lat="43.12217" lon="2.0005">
        <ele>394.1</ele>
        <time>2026-05-28T07:27:52Z</time>
      </trkpt>
      <trkpt lat="43.12213" lon="2.00044">
        <ele>393.4</ele>
        <time>2026-05-28T07:27:57Z</time>
      </trkpt>
      <trkpt lat="43.1221" lon="2.0004">
        <ele>392.9</ele>
        <time>2026-05-28T07:28:02Z</time>
      </trkpt>
      <trkpt lat="43.1221" lon="2.00038">
        <ele>392.7</ele>
        <time>2026-05-28T07:28:07Z</time>
      </trkpt>
      <trkpt lat="43.1221" lon="2.00038">
        <ele>392.7</ele>
        <time>2026-05-28T07:28:12Z</time>
      </trkpt>
      <trkpt lat="43.12209" lon="2.00036">
        <ele>392.5</ele>
        <time>2026-05-28T07:28:17Z</time>
      </trkpt>
      <trkpt lat="43.12205" lon="2.00031">
        <ele>391.8</ele>
        <time>2026-05-28T07:28:22Z</time>
      </trkpt>
      <trkpt lat="43.122" lon="2.00025">
        <ele>391.1</ele>
        <time>2026-05-28T07:28:27Z</time>
      </trkpt>
      <trkpt lat="43.12197" lon="2.00017">
        <ele>390.1</ele>
        <time>2026-05-28T07:28:32Z</time>
      </trkpt>
      <trkpt lat="43.12193" lon="2.0001">
        <ele>389.3</ele>
        <time>2026-05-28T07:28:37Z</time>
      </trkpt>
      <trkpt lat="43.1219" lon="2.00004">
        <ele>388.5</ele>
        <time>2026-05-28T07:28:42Z</time>
      </trkpt>
      <trkpt lat="43.12185" lon="1.99998">
        <ele>387.7</ele>
        <time>2026-05-28T07:28:47Z</time>
      </trkpt>
      <trkpt lat="43.1218" lon="1.99992">
        <ele>386.9</ele>
        <time>2026-05-28T07:28:52Z</time>
      </trkpt>
      <trkpt lat="43.12175" lon="1.99988">
        <ele>386.2</ele>
        <time>2026-05-28T07:28:57Z</time>
      </trkpt>
      <trkpt lat="43.1217" lon="1.99984">
        <ele>385.6</ele>
        <time>2026-05-28T07:29:02Z</time>
      </trkpt>
      <trkpt lat="43.12164" lon="1.99979">
        <ele>384.9</ele>
        <time>2026-05-28T07:29:07Z</time>
      </trkpt>
      <trkpt lat="43.12158" lon="1.99976">
        <ele>384.3</ele>
        <time>2026-05-28T07:29:12Z</time>
      </trkpt>
      <trkpt lat="43.12152" lon="1.99973">
        <ele>383.8</ele>
        <time>2026-05-28T07:29:17Z</time>
      </trkpt>
      <trkpt lat="43.12146" lon="1.99972">
        <ele>383.5</ele>
        <time>2026-05-28T07:29:22Z</time>
      </trkpt>
      <trkpt lat="43.12141" lon="1.99974">
        <ele>383.4</ele>
        <time>2026-05-28T07:29:27Z</time>
      </trkpt>
      <trkpt lat="43.12137" lon="1.99978">
        <ele>383.6</ele>
        <time>2026-05-28T07:29:32Z</time>
      </trkpt>
      <trkpt lat="43.12133" lon="1.99984">
        <ele>383.8</ele>
        <time>2026-05-28T07:29:37Z</time>
      </trkpt>
      <trkpt lat="43.12126" lon="1.9999">
        <ele>383.9</ele>
        <time>2026-05-28T07:29:42Z</time>
      </trkpt>
      <trkpt lat="43.12119" lon="1.99992">
        <ele>383.6</ele>
        <time>2026-05-28T07:29:47Z</time>
      </trkpt>
      <trkpt lat="43.12114" lon="1.99995">
        <ele>383.5</ele>
        <time>2026-05-28T07:29:52Z</time>
      </trkpt>
      <trkpt lat="43.12107" lon="1.99998">
        <ele>383.3</ele>
        <time>2026-05-28T07:29:57Z</time>
      </trkpt>
      <trkpt lat="43.121" lon="2.00002">
        <ele>383</ele>
        <time>2026-05-28T07:30:02Z</time>
      </trkpt>
      <trkpt lat="43.12093" lon="2.00004">
        <ele>382.6</ele>
        <time>2026-05-28T07:30:07Z</time>
      </trkpt>
      <trkpt lat="43.12087" lon="2.00006">
        <ele>382.2</ele>
        <time>2026-05-28T07:30:12Z</time>
      </trkpt>
      <trkpt lat="43.1208" lon="2.00008">
        <ele>381.7</ele>
        <time>2026-05-28T07:30:17Z</time>
      </trkpt>
      <trkpt lat="43.12074" lon="2.00012">
        <ele>381.4</ele>
        <time>2026-05-28T07:30:22Z</time>
      </trkpt>
      <trkpt lat="43.12068" lon="2.00015">
        <ele>381.1</ele>
        <time>2026-05-28T07:30:27Z</time>
      </trkpt>
      <trkpt lat="43.12063" lon="2.00017">
        <ele>380.8</ele>
        <time>2026-05-28T07:30:32Z</time>
      </trkpt>
      <trkpt lat="43.12057" lon="2.00019">
        <ele>380.5</ele>
        <time>2026-05-28T07:30:37Z</time>
      </trkpt>
      <trkpt lat="43.1205" lon="2.00022">
        <ele>380.1</ele>
        <time>2026-05-28T07:30:42Z</time>
      </trkpt>
      <trkpt lat="43.12044" lon="2.00026">
        <ele>379.8</ele>
        <time>2026-05-28T07:30:47Z</time>
      </trkpt>
      <trkpt lat="43.12039" lon="2.00028">
        <ele>379.5</ele>
        <time>2026-05-28T07:30:52Z</time>
      </trkpt>
      <trkpt lat="43.12034" lon="2.00029">
        <ele>379.3</ele>
        <time>2026-05-28T07:30:57Z</time>
      </trkpt>
      <trkpt lat="43.12027" lon="2.00032">
        <ele>378.9</ele>
        <time>2026-05-28T07:31:02Z</time>
      </trkpt>
      <trkpt lat="43.1202" lon="2.00033">
        <ele>378.6</ele>
        <time>2026-05-28T07:31:07Z</time>
      </trkpt>
      <trkpt lat="43.12014" lon="2.00033">
        <ele>378.3</ele>
        <time>2026-05-28T07:31:12Z</time>
      </trkpt>
      <trkpt lat="43.12008" lon="2.0003">
        <ele>378</ele>
        <time>2026-05-28T07:31:17Z</time>
      </trkpt>
      <trkpt lat="43.12003" lon="2.00027">
        <ele>377.8</ele>
        <time>2026-05-28T07:31:22Z</time>
      </trkpt>
      <trkpt lat="43.11998" lon="2.00027">
        <ele>377.7</ele>
        <time>2026-05-28T07:31:27Z</time>
      </trkpt>
      <trkpt lat="43.11992" lon="2.00025">
        <ele>377.8</ele>
        <time>2026-05-28T07:31:32Z</time>
      </trkpt>
      <trkpt lat="43.11987" lon="2.00024">
        <ele>377.8</ele>
        <time>2026-05-28T07:31:37Z</time>
      </trkpt>
      <trkpt lat="43.11981" lon="2.00022">
        <ele>378</ele>
        <time>2026-05-28T07:31:42Z</time>
      </trkpt>
      <trkpt lat="43.11975" lon="2.0002">
        <ele>378.1</ele>
        <time>2026-05-28T07:31:47Z</time>
      </trkpt>
      <trkpt lat="43.11969" lon="2.00019">
        <ele>378.2</ele>
        <time>2026-05-28T07:31:52Z</time>
      </trkpt>
      <trkpt lat="43.11963" lon="2.00016">
        <ele>378.4</ele>
        <time>2026-05-28T07:31:57Z</time>
      </trkpt>
      <trkpt lat="43.11957" lon="2.00013">
        <ele>378.6</ele>
        <time>2026-05-28T07:32:02Z</time>
      </trkpt>
      <trkpt lat="43.11951" lon="2.00011">
        <ele>378.7</ele>
        <time>2026-05-28T07:32:07Z</time>
      </trkpt>
      <trkpt lat="43.11948" lon="2.0001">
        <ele>378.8</ele>
        <time>2026-05-28T07:32:12Z</time>
      </trkpt>
      <trkpt lat="43.11944" lon="2.00008">
        <ele>379</ele>
        <time>2026-05-28T07:32:17Z</time>
      </trkpt>
      <trkpt lat="43.11939" lon="2.00006">
        <ele>379.2</ele>
        <time>2026-05-28T07:32:22Z</time>
      </trkpt>
      <trkpt lat="43.11932" lon="2.00003">
        <ele>379.5</ele>
        <time>2026-05-28T07:32:27Z</time>
      </trkpt>
      <trkpt lat="43.11926" lon="2.00001">
        <ele>379.7</ele>
        <time>2026-05-28T07:32:32Z</time>
      </trkpt>
      <trkpt lat="43.1192" lon="1.99999">
        <ele>380</ele>
        <time>2026-05-28T07:32:37Z</time>
      </trkpt>
      <trkpt lat="43.11914" lon="1.99998">
        <ele>380.2</ele>
        <time>2026-05-28T07:32:42Z</time>
      </trkpt>
      <trkpt lat="43.11908" lon="1.99997">
        <ele>380.4</ele>
        <time>2026-05-28T07:32:47Z</time>
      </trkpt>
      <trkpt lat="43.11902" lon="1.99994">
        <ele>380.8</ele>
        <time>2026-05-28T07:32:52Z</time>
      </trkpt>
      <trkpt lat="43.11896" lon="1.99993">
        <ele>381.1</ele>
        <time>2026-05-28T07:32:57Z</time>
      </trkpt>
      <trkpt lat="43.11891" lon="1.99991">
        <ele>381.4</ele>
        <time>2026-05-28T07:33:02Z</time>
      </trkpt>
      <trkpt lat="43.11885" lon="1.99988">
        <ele>381.9</ele>
        <time>2026-05-28T07:33:07Z</time>
      </trkpt>
      <trkpt lat="43.11879" lon="1.99986">
        <ele>382.3</ele>
        <time>2026-05-28T07:33:12Z</time>
      </trkpt>
      <trkpt lat="43.11873" lon="1.99983">
        <ele>382.8</ele>
        <time>2026-05-28T07:33:17Z</time>
      </trkpt>
      <trkpt lat="43.11871" lon="1.99982">
        <ele>383</ele>
        <time>2026-05-28T07:33:22Z</time>
      </trkpt>
      <trkpt lat="43.11869" lon="1.99982">
        <ele>383.1</ele>
        <time>2026-05-28T07:33:27Z</time>
      </trkpt>
      <trkpt lat="43.11869" lon="1.99982">
        <ele>383.1</ele>
        <time>2026-05-28T07:33:32Z</time>
      </trkpt>
      <trkpt lat="43.11866" lon="1.99982">
        <ele>383.3</ele>
        <time>2026-05-28T07:33:37Z</time>
      </trkpt>
      <trkpt lat="43.11862" lon="1.99979">
        <ele>383.7</ele>
        <time>2026-05-28T07:33:42Z</time>
      </trkpt>
      <trkpt lat="43.11857" lon="1.99976">
        <ele>384.2</ele>
        <time>2026-05-28T07:33:47Z</time>
      </trkpt>
      <trkpt lat="43.11852" lon="1.99973">
        <ele>384.8</ele>
        <time>2026-05-28T07:33:52Z</time>
      </trkpt>
      <trkpt lat="43.11846" lon="1.99971">
        <ele>385.4</ele>
        <time>2026-05-28T07:33:57Z</time>
      </trkpt>
      <trkpt lat="43.11842" lon="1.9997">
        <ele>385.7</ele>
        <time>2026-05-28T07:34:02Z</time>
      </trkpt>
      <trkpt lat="43.11836" lon="1.99969">
        <ele>386.2</ele>
        <time>2026-05-28T07:34:07Z</time>
      </trkpt>
      <trkpt lat="43.11831" lon="1.99967">
        <ele>386.7</ele>
        <time>2026-05-28T07:34:12Z</time>
      </trkpt>
      <trkpt lat="43.11826" lon="1.99965">
        <ele>387.2</ele>
        <time>2026-05-28T07:34:17Z</time>
      </trkpt>
      <trkpt lat="43.11822" lon="1.99963">
        <ele>387.6</ele>
        <time>2026-05-28T07:34:22Z</time>
      </trkpt>
      <trkpt lat="43.11818" lon="1.99962">
        <ele>388</ele>
        <time>2026-05-28T07:34:27Z</time>
      </trkpt>
      <trkpt lat="43.11813" lon="1.9996">
        <ele>388.5</ele>
        <time>2026-05-28T07:34:32Z</time>
      </trkpt>
      <trkpt lat="43.11809" lon="1.99959">
        <ele>388.9</ele>
        <time>2026-05-28T07:34:37Z</time>
      </trkpt>
      <trkpt lat="43.11804" lon="1.99957">
        <ele>389.4</ele>
        <time>2026-05-28T07:34:42Z</time>
      </trkpt>
      <trkpt lat="43.118" lon="1.99955">
        <ele>389.9</ele>
        <time>2026-05-28T07:34:47Z</time>
      </trkpt>
      <trkpt lat="43.11796" lon="1.99955">
        <ele>390.2</ele>
        <time>2026-05-28T07:34:52Z</time>
      </trkpt>
      <trkpt lat="43.11792" lon="1.99953">
        <ele>390.7</ele>
        <time>2026-05-28T07:34:57Z</time>
      </trkpt>
      <trkpt lat="43.11787" lon="1.99951">
        <ele>391.3</ele>
        <time>2026-05-28T07:35:02Z</time>
      </trkpt>
      <trkpt lat="43.11782" lon="1.99949">
        <ele>391.9</ele>
        <time>2026-05-28T07:35:07Z</time>
      </trkpt>
      <trkpt lat="43.11777" lon="1.99948">
        <ele>392.3</ele>
        <time>2026-05-28T07:35:12Z</time>
      </trkpt>
      <trkpt lat="43.11773" lon="1.99946">
        <ele>392.9</ele>
        <time>2026-05-28T07:35:17Z</time>
      </trkpt>
      <trkpt lat="43.11769" lon="1.99945">
        <ele>393.3</ele>
        <time>2026-05-28T07:35:22Z</time>
      </trkpt>
      <trkpt lat="43.11764" lon="1.99944">
        <ele>393.8</ele>
        <time>2026-05-28T07:35:27Z</time>
      </trkpt>
      <trkpt lat="43.1176" lon="1.99942">
        <ele>394.4</ele>
        <time>2026-05-28T07:35:32Z</time>
      </trkpt>
      <trkpt lat="43.11756" lon="1.99941">
        <ele>394.8</ele>
        <time>2026-05-28T07:35:37Z</time>
      </trkpt>
      <trkpt lat="43.11752" lon="1.9994">
        <ele>395.2</ele>
        <time>2026-05-28T07:35:42Z</time>
      </trkpt>
      <trkpt lat="43.11748" lon="1.99939">
        <ele>395.8</ele>
        <time>2026-05-28T07:35:47Z</time>
      </trkpt>
      <trkpt lat="43.11744" lon="1.99937">
        <ele>396.7</ele>
        <time>2026-05-28T07:35:52Z</time>
      </trkpt>
      <trkpt lat="43.11739" lon="1.99937">
        <ele>397.4</ele>
        <time>2026-05-28T07:35:57Z</time>
      </trkpt>
      <trkpt lat="43.11736" lon="1.99937">
        <ele>397.8</ele>
        <time>2026-05-28T07:36:02Z</time>
      </trkpt>
      <trkpt lat="43.11735" lon="1.99936">
        <ele>398.1</ele>
        <time>2026-05-28T07:36:07Z</time>
      </trkpt>
      <trkpt lat="43.11735" lon="1.99936">
        <ele>398.1</ele>
        <time>2026-05-28T07:36:12Z</time>
      </trkpt>
      <trkpt lat="43.11735" lon="1.99936">
        <ele>398.1</ele>
        <time>2026-05-28T07:36:17Z</time>
      </trkpt>
      <trkpt lat="43.11735" lon="1.99936">
        <ele>398.1</ele>
        <time>2026-05-28T07:36:22Z</time>
      </trkpt>
      <trkpt lat="43.11735" lon="1.99936">
        <ele>398.1</ele>
        <time>2026-05-28T07:36:27Z</time>
      </trkpt>
      <trkpt lat="43.11735" lon="1.99936">
        <ele>398.1</ele>
        <time>2026-05-28T07:36:32Z</time>
      </trkpt>
      <trkpt lat="43.11729" lon="1.99935">
        <ele>399</ele>
        <time>2026-05-28T07:36:37Z</time>
      </trkpt>
      <trkpt lat="43.11726" lon="1.99936">
        <ele>399.3</ele>
        <time>2026-05-28T07:36:42Z</time>
      </trkpt>
      <trkpt lat="43.11723" lon="1.99938">
        <ele>399.5</ele>
        <time>2026-05-28T07:36:47Z</time>
      </trkpt>
      <trkpt lat="43.11719" lon="1.99938">
        <ele>400.1</ele>
        <time>2026-05-28T07:36:52Z</time>
      </trkpt>
      <trkpt lat="43.11716" lon="1.99938">
        <ele>400.5</ele>
        <time>2026-05-28T07:36:57Z</time>
      </trkpt>
      <trkpt lat="43.11713" lon="1.99936">
        <ele>401.1</ele>
        <time>2026-05-28T07:37:02Z</time>
      </trkpt>
      <trkpt lat="43.11709" lon="1.99934">
        <ele>401.9</ele>
        <time>2026-05-28T07:37:07Z</time>
      </trkpt>
      <trkpt lat="43.11705" lon="1.99933">
        <ele>402.6</ele>
        <time>2026-05-28T07:37:12Z</time>
      </trkpt>
      <trkpt lat="43.11702" lon="1.9993">
        <ele>403.3</ele>
        <time>2026-05-28T07:37:17Z</time>
      </trkpt>
      <trkpt lat="43.11699" lon="1.99926">
        <ele>404.1</ele>
        <time>2026-05-28T07:37:22Z</time>
      </trkpt>
      <trkpt lat="43.11697" lon="1.99924">
        <ele>404.6</ele>
        <time>2026-05-28T07:37:27Z</time>
      </trkpt>
      <trkpt lat="43.11694" lon="1.99923">
        <ele>405.1</ele>
        <time>2026-05-28T07:37:32Z</time>
      </trkpt>
      <trkpt lat="43.11693" lon="1.99923">
        <ele>405.2</ele>
        <time>2026-05-28T07:37:37Z</time>
      </trkpt>
      <trkpt lat="43.11688" lon="1.99918">
        <ele>406.3</ele>
        <time>2026-05-28T07:37:42Z</time>
      </trkpt>
      <trkpt lat="43.11685" lon="1.99915">
        <ele>407.1</ele>
        <time>2026-05-28T07:37:47Z</time>
      </trkpt>
      <trkpt lat="43.11681" lon="1.9991">
        <ele>408.3</ele>
        <time>2026-05-28T07:37:52Z</time>
      </trkpt>
      <trkpt lat="43.11677" lon="1.99907">
        <ele>409.1</ele>
        <time>2026-05-28T07:37:57Z</time>
      </trkpt>
      <trkpt lat="43.11675" lon="1.99905">
        <ele>409.6</ele>
        <time>2026-05-28T07:38:02Z</time>
      </trkpt>
      <trkpt lat="43.11672" lon="1.99901">
        <ele>410.5</ele>
        <time>2026-05-28T07:38:07Z</time>
      </trkpt>
      <trkpt lat="43.1167" lon="1.99898">
        <ele>411.1</ele>
        <time>2026-05-28T07:38:12Z</time>
      </trkpt>
      <trkpt lat="43.11668" lon="1.99894">
        <ele>411.9</ele>
        <time>2026-05-28T07:38:17Z</time>
      </trkpt>
      <trkpt lat="43.11666" lon="1.99891">
        <ele>412.5</ele>
        <time>2026-05-28T07:38:22Z</time>
      </trkpt>
      <trkpt lat="43.11665" lon="1.99887">
        <ele>413.2</ele>
        <time>2026-05-28T07:38:27Z</time>
      </trkpt>
      <trkpt lat="43.11664" lon="1.99885">
        <ele>413.7</ele>
        <time>2026-05-28T07:38:32Z</time>
      </trkpt>
      <trkpt lat="43.11662" lon="1.99883">
        <ele>414.3</ele>
        <time>2026-05-28T07:38:37Z</time>
      </trkpt>
      <trkpt lat="43.11657" lon="1.99881">
        <ele>415.5</ele>
        <time>2026-05-28T07:38:42Z</time>
      </trkpt>
      <trkpt lat="43.11654" lon="1.99879">
        <ele>416.3</ele>
        <time>2026-05-28T07:38:47Z</time>
      </trkpt>
      <trkpt lat="43.11651" lon="1.99875">
        <ele>417.2</ele>
        <time>2026-05-28T07:38:52Z</time>
      </trkpt>
      <trkpt lat="43.11649" lon="1.99872">
        <ele>417.9</ele>
        <time>2026-05-28T07:38:57Z</time>
      </trkpt>
      <trkpt lat="43.11646" lon="1.9987">
        <ele>418.6</ele>
        <time>2026-05-28T07:39:02Z</time>
      </trkpt>
      <trkpt lat="43.11642" lon="1.9987">
        <ele>419.3</ele>
        <time>2026-05-28T07:39:07Z</time>
      </trkpt>
      <trkpt lat="43.11638" lon="1.99869">
        <ele>420</ele>
        <time>2026-05-28T07:39:12Z</time>
      </trkpt>
      <trkpt lat="43.11635" lon="1.99868">
        <ele>420.6</ele>
        <time>2026-05-28T07:39:17Z</time>
      </trkpt>
      <trkpt lat="43.11632" lon="1.99864">
        <ele>421.4</ele>
        <time>2026-05-28T07:39:22Z</time>
      </trkpt>
      <trkpt lat="43.11628" lon="1.99862">
        <ele>422.1</ele>
        <time>2026-05-28T07:39:27Z</time>
      </trkpt>
      <trkpt lat="43.11624" lon="1.99861">
        <ele>422.8</ele>
        <time>2026-05-28T07:39:32Z</time>
      </trkpt>
      <trkpt lat="43.1162" lon="1.99859">
        <ele>423.5</ele>
        <time>2026-05-28T07:39:37Z</time>
      </trkpt>
      <trkpt lat="43.11617" lon="1.99857">
        <ele>424.1</ele>
        <time>2026-05-28T07:39:42Z</time>
      </trkpt>
      <trkpt lat="43.11613" lon="1.99857">
        <ele>424.7</ele>
        <time>2026-05-28T07:39:47Z</time>
      </trkpt>
      <trkpt lat="43.1161" lon="1.99854">
        <ele>425.2</ele>
        <time>2026-05-28T07:39:52Z</time>
      </trkpt>
      <trkpt lat="43.11608" lon="1.99854">
        <ele>425.5</ele>
        <time>2026-05-28T07:39:57Z</time>
      </trkpt>
      <trkpt lat="43.11604" lon="1.99854">
        <ele>426.1</ele>
        <time>2026-05-28T07:40:02Z</time>
      </trkpt>
      <trkpt lat="43.116" lon="1.99853">
        <ele>426.7</ele>
        <time>2026-05-28T07:40:07Z</time>
      </trkpt>
      <trkpt lat="43.11598" lon="1.99853">
        <ele>427</ele>
        <time>2026-05-28T07:40:12Z</time>
      </trkpt>
      <trkpt lat="43.11594" lon="1.99853">
        <ele>427.5</ele>
        <time>2026-05-28T07:40:17Z</time>
      </trkpt>
      <trkpt lat="43.11591" lon="1.99854">
        <ele>427.9</ele>
        <time>2026-05-28T07:40:22Z</time>
      </trkpt>
      <trkpt lat="43.11587" lon="1.99853">
        <ele>428.5</ele>
        <time>2026-05-28T07:40:27Z</time>
      </trkpt>
      <trkpt lat="43.11583" lon="1.99853">
        <ele>429</ele>
        <time>2026-05-28T07:40:32Z</time>
      </trkpt>
      <trkpt lat="43.11579" lon="1.99852">
        <ele>429</ele>
        <time>2026-05-28T07:40:37Z</time>
      </trkpt>
      <trkpt lat="43.11575" lon="1.99851">
        <ele>428.9</ele>
        <time>2026-05-28T07:40:42Z</time>
      </trkpt>
      <trkpt lat="43.11572" lon="1.9985">
        <ele>428.9</ele>
        <time>2026-05-28T07:40:47Z</time>
      </trkpt>
      <trkpt lat="43.11568" lon="1.9985">
        <ele>428.9</ele>
        <time>2026-05-28T07:40:52Z</time>
      </trkpt>
      <trkpt lat="43.11564" lon="1.9985">
        <ele>428.8</ele>
        <time>2026-05-28T07:40:57Z</time>
      </trkpt>
      <trkpt lat="43.1156" lon="1.99851">
        <ele>428.8</ele>
        <time>2026-05-28T07:41:02Z</time>
      </trkpt>
      <trkpt lat="43.11556" lon="1.9985">
        <ele>428.7</ele>
        <time>2026-05-28T07:41:07Z</time>
      </trkpt>
      <trkpt lat="43.11553" lon="1.99851">
        <ele>428.7</ele>
        <time>2026-05-28T07:41:12Z</time>
      </trkpt>
      <trkpt lat="43.11549" lon="1.99852">
        <ele>428.6</ele>
        <time>2026-05-28T07:41:17Z</time>
      </trkpt>
      <trkpt lat="43.11545" lon="1.99853">
        <ele>428.6</ele>
        <time>2026-05-28T07:41:22Z</time>
      </trkpt>
      <trkpt lat="43.11542" lon="1.99855">
        <ele>428.5</ele>
        <time>2026-05-28T07:41:27Z</time>
      </trkpt>
      <trkpt lat="43.11538" lon="1.99855">
        <ele>428.4</ele>
        <time>2026-05-28T07:41:32Z</time>
      </trkpt>
      <trkpt lat="43.11535" lon="1.99856">
        <ele>428.4</ele>
        <time>2026-05-28T07:41:37Z</time>
      </trkpt>
      <trkpt lat="43.11531" lon="1.99857">
        <ele>428.3</ele>
        <time>2026-05-28T07:41:42Z</time>
      </trkpt>
      <trkpt lat="43.11528" lon="1.9986">
        <ele>428.2</ele>
        <time>2026-05-28T07:41:47Z</time>
      </trkpt>
      <trkpt lat="43.11524" lon="1.99863">
        <ele>428</ele>
        <time>2026-05-28T07:41:52Z</time>
      </trkpt>
      <trkpt lat="43.11521" lon="1.99865">
        <ele>427.9</ele>
        <time>2026-05-28T07:41:57Z</time>
      </trkpt>
      <trkpt lat="43.11517" lon="1.99868">
        <ele>427.7</ele>
        <time>2026-05-28T07:42:02Z</time>
      </trkpt>
      <trkpt lat="43.11513" lon="1.99871">
        <ele>427.5</ele>
        <time>2026-05-28T07:42:07Z</time>
      </trkpt>
      <trkpt lat="43.11509" lon="1.99873">
        <ele>427.3</ele>
        <time>2026-05-28T07:42:12Z</time>
      </trkpt>
      <trkpt lat="43.11506" lon="1.99874">
        <ele>427.2</ele>
        <time>2026-05-28T07:42:17Z</time>
      </trkpt>
      <trkpt lat="43.11502" lon="1.99876">
        <ele>427</ele>
        <time>2026-05-28T07:42:22Z</time>
      </trkpt>
      <trkpt lat="43.115" lon="1.99877">
        <ele>426.9</ele>
        <time>2026-05-28T07:42:27Z</time>
      </trkpt>
      <trkpt lat="43.11497" lon="1.99879">
        <ele>426.6</ele>
        <time>2026-05-28T07:42:32Z</time>
      </trkpt>
      <trkpt lat="43.11496" lon="1.99882">
        <ele>426.3</ele>
        <time>2026-05-28T07:42:37Z</time>
      </trkpt>
      <trkpt lat="43.11494" lon="1.99885">
        <ele>426</ele>
        <time>2026-05-28T07:42:42Z</time>
      </trkpt>
      <trkpt lat="43.1149" lon="1.99888">
        <ele>425.4</ele>
        <time>2026-05-28T07:42:47Z</time>
      </trkpt>
      <trkpt lat="43.11487" lon="1.99892">
        <ele>424.7</ele>
        <time>2026-05-28T07:42:52Z</time>
      </trkpt>
      <trkpt lat="43.11484" lon="1.99897">
        <ele>423.9</ele>
        <time>2026-05-28T07:42:57Z</time>
      </trkpt>
      <trkpt lat="43.11479" lon="1.99903">
        <ele>422.7</ele>
        <time>2026-05-28T07:43:02Z</time>
      </trkpt>
      <trkpt lat="43.11474" lon="1.99909">
        <ele>421.2</ele>
        <time>2026-05-28T07:43:07Z</time>
      </trkpt>
      <trkpt lat="43.11469" lon="1.99914">
        <ele>419.8</ele>
        <time>2026-05-28T07:43:12Z</time>
      </trkpt>
      <trkpt lat="43.11462" lon="1.99915">
        <ele>418.4</ele>
        <time>2026-05-28T07:43:17Z</time>
      </trkpt>
      <trkpt lat="43.11455" lon="1.99914">
        <ele>417.4</ele>
        <time>2026-05-28T07:43:22Z</time>
      </trkpt>
      <trkpt lat="43.11448" lon="1.99914">
        <ele>416.1</ele>
        <time>2026-05-28T07:43:27Z</time>
      </trkpt>
      <trkpt lat="43.11442" lon="1.99915">
        <ele>414.9</ele>
        <time>2026-05-28T07:43:32Z</time>
      </trkpt>
      <trkpt lat="43.11435" lon="1.99913">
        <ele>414.1</ele>
        <time>2026-05-28T07:43:37Z</time>
      </trkpt>
      <trkpt lat="43.11428" lon="1.99911">
        <ele>413.4</ele>
        <time>2026-05-28T07:43:42Z</time>
      </trkpt>
      <trkpt lat="43.11421" lon="1.9991">
        <ele>412.5</ele>
        <time>2026-05-28T07:43:47Z</time>
      </trkpt>
      <trkpt lat="43.11416" lon="1.99909">
        <ele>412.1</ele>
        <time>2026-05-28T07:43:52Z</time>
      </trkpt>
      <trkpt lat="43.11409" lon="1.99908">
        <ele>411.9</ele>
        <time>2026-05-28T07:43:57Z</time>
      </trkpt>
      <trkpt lat="43.11404" lon="1.99904">
        <ele>412.7</ele>
        <time>2026-05-28T07:44:02Z</time>
      </trkpt>
      <trkpt lat="43.11397" lon="1.99902">
        <ele>412.9</ele>
        <time>2026-05-28T07:44:07Z</time>
      </trkpt>
      <trkpt lat="43.11391" lon="1.99899">
        <ele>413.5</ele>
        <time>2026-05-28T07:44:12Z</time>
      </trkpt>
      <trkpt lat="43.11384" lon="1.99898">
        <ele>413.5</ele>
        <time>2026-05-28T07:44:17Z</time>
      </trkpt>
      <trkpt lat="43.11379" lon="1.99894">
        <ele>414.6</ele>
        <time>2026-05-28T07:44:22Z</time>
      </trkpt>
      <trkpt lat="43.11373" lon="1.9989">
        <ele>415.7</ele>
        <time>2026-05-28T07:44:27Z</time>
      </trkpt>
      <trkpt lat="43.11369" lon="1.99886">
        <ele>417</ele>
        <time>2026-05-28T07:44:32Z</time>
      </trkpt>
      <trkpt lat="43.11366" lon="1.99885">
        <ele>417.3</ele>
        <time>2026-05-28T07:44:37Z</time>
      </trkpt>
      <trkpt lat="43.11361" lon="1.99881">
        <ele>418.6</ele>
        <time>2026-05-28T07:44:42Z</time>
      </trkpt>
      <trkpt lat="43.11357" lon="1.99882">
        <ele>418.1</ele>
        <time>2026-05-28T07:44:47Z</time>
      </trkpt>
      <trkpt lat="43.11357" lon="1.99882">
        <ele>418.1</ele>
        <time>2026-05-28T07:44:52Z</time>
      </trkpt>
      <trkpt lat="43.11356" lon="1.9988">
        <ele>418.9</ele>
        <time>2026-05-28T07:44:57Z</time>
      </trkpt>
      <trkpt lat="43.11351" lon="1.99877">
        <ele>419.9</ele>
        <time>2026-05-28T07:45:02Z</time>
      </trkpt>
      <trkpt lat="43.11345" lon="1.99872">
        <ele>421.8</ele>
        <time>2026-05-28T07:45:07Z</time>
      </trkpt>
      <trkpt lat="43.11339" lon="1.99868">
        <ele>423.4</ele>
        <time>2026-05-28T07:45:12Z</time>
      </trkpt>
      <trkpt lat="43.11334" lon="1.99863">
        <ele>425.5</ele>
        <time>2026-05-28T07:45:17Z</time>
      </trkpt>
      <trkpt lat="43.11329" lon="1.9986">
        <ele>426.8</ele>
        <time>2026-05-28T07:45:22Z</time>
      </trkpt>
      <trkpt lat="43.11324" lon="1.99856">
        <ele>428.4</ele>
        <time>2026-05-28T07:45:27Z</time>
      </trkpt>
      <trkpt lat="43.11319" lon="1.99852">
        <ele>430</ele>
        <time>2026-05-28T07:45:32Z</time>
      </trkpt>
      <trkpt lat="43.11313" lon="1.99848">
        <ele>431.5</ele>
        <time>2026-05-28T07:45:37Z</time>
      </trkpt>
      <trkpt lat="43.11307" lon="1.99846">
        <ele>432.2</ele>
        <time>2026-05-28T07:45:42Z</time>
      </trkpt>
      <trkpt lat="43.11302" lon="1.99842">
        <ele>433.8</ele>
        <time>2026-05-28T07:45:47Z</time>
      </trkpt>
      <trkpt lat="43.11298" lon="1.99839">
        <ele>434.9</ele>
        <time>2026-05-28T07:45:52Z</time>
      </trkpt>
      <trkpt lat="43.11293" lon="1.99837">
        <ele>435.6</ele>
        <time>2026-05-28T07:45:57Z</time>
      </trkpt>
      <trkpt lat="43.11289" lon="1.99836">
        <ele>435.9</ele>
        <time>2026-05-28T07:46:02Z</time>
      </trkpt>
      <trkpt lat="43.11285" lon="1.99835">
        <ele>436.2</ele>
        <time>2026-05-28T07:46:07Z</time>
      </trkpt>
      <trkpt lat="43.1128" lon="1.99835">
        <ele>436.1</ele>
        <time>2026-05-28T07:46:12Z</time>
      </trkpt>
      <trkpt lat="43.11275" lon="1.99835">
        <ele>436</ele>
        <time>2026-05-28T07:46:17Z</time>
      </trkpt>
      <trkpt lat="43.11272" lon="1.99834">
        <ele>436.3</ele>
        <time>2026-05-28T07:46:22Z</time>
      </trkpt>
      <trkpt lat="43.11271" lon="1.99833">
        <ele>436.5</ele>
        <time>2026-05-28T07:46:27Z</time>
      </trkpt>
      <trkpt lat="43.11271" lon="1.99833">
        <ele>436.5</ele>
        <time>2026-05-28T07:46:32Z</time>
      </trkpt>
      <trkpt lat="43.11271" lon="1.99833">
        <ele>436.5</ele>
        <time>2026-05-28T07:46:37Z</time>
      </trkpt>
      <trkpt lat="43.11271" lon="1.99833">
        <ele>436.5</ele>
        <time>2026-05-28T07:46:42Z</time>
      </trkpt>
      <trkpt lat="43.11271" lon="1.99833">
        <ele>436.5</ele>
        <time>2026-05-28T07:46:47Z</time>
      </trkpt>
      <trkpt lat="43.11271" lon="1.99833">
        <ele>436.5</ele>
        <time>2026-05-28T07:46:52Z</time>
      </trkpt>
      <trkpt lat="43.11271" lon="1.99833">
        <ele>436.5</ele>
        <time>2026-05-28T07:46:57Z</time>
      </trkpt>
      <trkpt lat="43.11271" lon="1.99833">
        <ele>436.5</ele>
        <time>2026-05-28T07:47:02Z</time>
      </trkpt>
      <trkpt lat="43.11271" lon="1.99833">
        <ele>436.5</ele>
        <time>2026-05-28T07:47:07Z</time>
      </trkpt>
      <trkpt lat="43.11271" lon="1.99833">
        <ele>436.5</ele>
        <time>2026-05-28T07:47:12Z</time>
      </trkpt>
      <trkpt lat="43.11271" lon="1.99833">
        <ele>436.5</ele>
        <time>2026-05-28T07:47:17Z</time>
      </trkpt>
      <trkpt lat="43.11271" lon="1.99833">
        <ele>436.5</ele>
        <time>2026-05-28T07:47:22Z</time>
      </trkpt>
      <trkpt lat="43.11271" lon="1.99833">
        <ele>436.5</ele>
        <time>2026-05-28T07:47:27Z</time>
      </trkpt>
      <trkpt lat="43.11271" lon="1.99833">
        <ele>436.5</ele>
        <time>2026-05-28T07:47:32Z</time>
      </trkpt>
      <trkpt lat="43.11271" lon="1.99833">
        <ele>436.5</ele>
        <time>2026-05-28T07:47:37Z</time>
      </trkpt>
      <trkpt lat="43.11267" lon="1.9983">
        <ele>436.5</ele>
        <time>2026-05-28T07:47:42Z</time>
      </trkpt>
      <trkpt lat="43.11262" lon="1.99829">
        <ele>436.5</ele>
        <time>2026-05-28T07:47:47Z</time>
      </trkpt>
      <trkpt lat="43.11259" lon="1.99828">
        <ele>436.4</ele>
        <time>2026-05-28T07:47:52Z</time>
      </trkpt>
      <trkpt lat="43.11254" lon="1.99827">
        <ele>436.3</ele>
        <time>2026-05-28T07:47:57Z</time>
      </trkpt>
      <trkpt lat="43.1125" lon="1.99827">
        <ele>436.2</ele>
        <time>2026-05-28T07:48:02Z</time>
      </trkpt>
      <trkpt lat="43.11244" lon="1.99826">
        <ele>436.8</ele>
        <time>2026-05-28T07:48:07Z</time>
      </trkpt>
      <trkpt lat="43.11238" lon="1.99822">
        <ele>437.4</ele>
        <time>2026-05-28T07:48:12Z</time>
      </trkpt>
      <trkpt lat="43.11232" lon="1.99819">
        <ele>437.9</ele>
        <time>2026-05-28T07:48:17Z</time>
      </trkpt>
      <trkpt lat="43.11227" lon="1.99816">
        <ele>438.3</ele>
        <time>2026-05-28T07:48:22Z</time>
      </trkpt>
      <trkpt lat="43.11223" lon="1.99817">
        <ele>438.5</ele>
        <time>2026-05-28T07:48:27Z</time>
      </trkpt>
      <trkpt lat="43.11216" lon="1.99816">
        <ele>439</ele>
        <time>2026-05-28T07:48:32Z</time>
      </trkpt>
      <trkpt lat="43.1121" lon="1.99816">
        <ele>439.5</ele>
        <time>2026-05-28T07:48:37Z</time>
      </trkpt>
      <trkpt lat="43.11204" lon="1.99818">
        <ele>440</ele>
        <time>2026-05-28T07:48:42Z</time>
      </trkpt>
      <trkpt lat="43.11198" lon="1.99816">
        <ele>440.3</ele>
        <time>2026-05-28T07:48:47Z</time>
      </trkpt>
      <trkpt lat="43.11192" lon="1.99815">
        <ele>440.7</ele>
        <time>2026-05-28T07:48:52Z</time>
      </trkpt>
      <trkpt lat="43.11186" lon="1.99815">
        <ele>441.1</ele>
        <time>2026-05-28T07:48:57Z</time>
      </trkpt>
      <trkpt lat="43.11181" lon="1.99815">
        <ele>441.5</ele>
        <time>2026-05-28T07:49:02Z</time>
      </trkpt>
      <trkpt lat="43.11175" lon="1.99815">
        <ele>441.9</ele>
        <time>2026-05-28T07:49:07Z</time>
      </trkpt>
      <trkpt lat="43.1117" lon="1.99815">
        <ele>442.2</ele>
        <time>2026-05-28T07:49:12Z</time>
      </trkpt>
      <trkpt lat="43.11165" lon="1.99817">
        <ele>442.7</ele>
        <time>2026-05-28T07:49:17Z</time>
      </trkpt>
      <trkpt lat="43.1116" lon="1.99818">
        <ele>443.1</ele>
        <time>2026-05-28T07:49:22Z</time>
      </trkpt>
      <trkpt lat="43.11156" lon="1.99818">
        <ele>443.4</ele>
        <time>2026-05-28T07:49:27Z</time>
      </trkpt>
      <trkpt lat="43.11151" lon="1.99817">
        <ele>443.6</ele>
        <time>2026-05-28T07:49:32Z</time>
      </trkpt>
      <trkpt lat="43.11146" lon="1.9982">
        <ele>444.2</ele>
        <time>2026-05-28T07:49:37Z</time>
      </trkpt>
      <trkpt lat="43.11144" lon="1.9982">
        <ele>444.3</ele>
        <time>2026-05-28T07:49:42Z</time>
      </trkpt>
      <trkpt lat="43.11143" lon="1.9982">
        <ele>444.4</ele>
        <time>2026-05-28T07:49:47Z</time>
      </trkpt>
      <trkpt lat="43.11143" lon="1.9982">
        <ele>444.4</ele>
        <time>2026-05-28T07:49:52Z</time>
      </trkpt>
      <trkpt lat="43.11139" lon="1.99823">
        <ele>445</ele>
        <time>2026-05-28T07:49:57Z</time>
      </trkpt>
      <trkpt lat="43.11134" lon="1.99825">
        <ele>445.5</ele>
        <time>2026-05-28T07:50:02Z</time>
      </trkpt>
      <trkpt lat="43.1113" lon="1.99827">
        <ele>446</ele>
        <time>2026-05-28T07:50:07Z</time>
      </trkpt>
      <trkpt lat="43.11127" lon="1.99827">
        <ele>446.2</ele>
        <time>2026-05-28T07:50:12Z</time>
      </trkpt>
      <trkpt lat="43.11125" lon="1.99826">
        <ele>446.2</ele>
        <time>2026-05-28T07:50:17Z</time>
      </trkpt>
      <trkpt lat="43.11125" lon="1.99826">
        <ele>446.2</ele>
        <time>2026-05-28T07:50:22Z</time>
      </trkpt>
      <trkpt lat="43.11125" lon="1.99826">
        <ele>446.2</ele>
        <time>2026-05-28T07:50:27Z</time>
      </trkpt>
      <trkpt lat="43.11125" lon="1.99826">
        <ele>446.2</ele>
        <time>2026-05-28T07:50:32Z</time>
      </trkpt>
      <trkpt lat="43.11125" lon="1.99826">
        <ele>446.2</ele>
        <time>2026-05-28T07:50:37Z</time>
      </trkpt>
      <trkpt lat="43.1112" lon="1.99831">
        <ele>447.1</ele>
        <time>2026-05-28T07:50:42Z</time>
      </trkpt>
      <trkpt lat="43.11115" lon="1.99836">
        <ele>447.6</ele>
        <time>2026-05-28T07:50:47Z</time>
      </trkpt>
      <trkpt lat="43.11112" lon="1.99837">
        <ele>447.7</ele>
        <time>2026-05-28T07:50:52Z</time>
      </trkpt>
      <trkpt lat="43.11107" lon="1.99839">
        <ele>448</ele>
        <time>2026-05-28T07:50:57Z</time>
      </trkpt>
      <trkpt lat="43.11102" lon="1.9984">
        <ele>448.4</ele>
        <time>2026-05-28T07:51:02Z</time>
      </trkpt>
      <trkpt lat="43.11097" lon="1.99842">
        <ele>448.7</ele>
        <time>2026-05-28T07:51:07Z</time>
      </trkpt>
      <trkpt lat="43.11093" lon="1.99844">
        <ele>448.9</ele>
        <time>2026-05-28T07:51:12Z</time>
      </trkpt>
      <trkpt lat="43.11088" lon="1.99847">
        <ele>449.3</ele>
        <time>2026-05-28T07:51:17Z</time>
      </trkpt>
      <trkpt lat="43.11082" lon="1.99848">
        <ele>449.6</ele>
        <time>2026-05-28T07:51:22Z</time>
      </trkpt>
      <trkpt lat="43.11078" lon="1.9985">
        <ele>449.5</ele>
        <time>2026-05-28T07:51:27Z</time>
      </trkpt>
      <trkpt lat="43.11073" lon="1.99853">
        <ele>449.4</ele>
        <time>2026-05-28T07:51:32Z</time>
      </trkpt>
      <trkpt lat="43.11068" lon="1.99854">
        <ele>449.3</ele>
        <time>2026-05-28T07:51:37Z</time>
      </trkpt>
      <trkpt lat="43.11061" lon="1.99856">
        <ele>449.1</ele>
        <time>2026-05-28T07:51:42Z</time>
      </trkpt>
      <trkpt lat="43.11057" lon="1.99857">
        <ele>449</ele>
        <time>2026-05-28T07:51:47Z</time>
      </trkpt>
      <trkpt lat="43.11052" lon="1.99857">
        <ele>448.9</ele>
        <time>2026-05-28T07:51:52Z</time>
      </trkpt>
      <trkpt lat="43.11046" lon="1.99859">
        <ele>448.8</ele>
        <time>2026-05-28T07:51:57Z</time>
      </trkpt>
      <trkpt lat="43.1104" lon="1.9986">
        <ele>448.7</ele>
        <time>2026-05-28T07:52:02Z</time>
      </trkpt>
      <trkpt lat="43.11035" lon="1.99861">
        <ele>448.6</ele>
        <time>2026-05-28T07:52:07Z</time>
      </trkpt>
      <trkpt lat="43.11028" lon="1.99862">
        <ele>448.4</ele>
        <time>2026-05-28T07:52:12Z</time>
      </trkpt>
      <trkpt lat="43.11022" lon="1.99862">
        <ele>448.3</ele>
        <time>2026-05-28T07:52:17Z</time>
      </trkpt>
      <trkpt lat="43.11016" lon="1.99862">
        <ele>448.2</ele>
        <time>2026-05-28T07:52:22Z</time>
      </trkpt>
      <trkpt lat="43.11009" lon="1.99863">
        <ele>448.1</ele>
        <time>2026-05-28T07:52:27Z</time>
      </trkpt>
      <trkpt lat="43.11004" lon="1.99863">
        <ele>448</ele>
        <time>2026-05-28T07:52:32Z</time>
      </trkpt>
      <trkpt lat="43.10998" lon="1.99863">
        <ele>447.6</ele>
        <time>2026-05-28T07:52:37Z</time>
      </trkpt>
      <trkpt lat="43.10992" lon="1.99862">
        <ele>446.8</ele>
        <time>2026-05-28T07:52:42Z</time>
      </trkpt>
      <trkpt lat="43.10985" lon="1.9986">
        <ele>445.9</ele>
        <time>2026-05-28T07:52:47Z</time>
      </trkpt>
      <trkpt lat="43.10979" lon="1.99857">
        <ele>445</ele>
        <time>2026-05-28T07:52:52Z</time>
      </trkpt>
      <trkpt lat="43.10972" lon="1.99856">
        <ele>444</ele>
        <time>2026-05-28T07:52:57Z</time>
      </trkpt>
      <trkpt lat="43.10966" lon="1.99855">
        <ele>443.1</ele>
        <time>2026-05-28T07:53:02Z</time>
      </trkpt>
      <trkpt lat="43.1096" lon="1.99852">
        <ele>442.3</ele>
        <time>2026-05-28T07:53:07Z</time>
      </trkpt>
      <trkpt lat="43.10954" lon="1.99848">
        <ele>441.3</ele>
        <time>2026-05-28T07:53:12Z</time>
      </trkpt>
      <trkpt lat="43.10948" lon="1.99845">
        <ele>440.4</ele>
        <time>2026-05-28T07:53:17Z</time>
      </trkpt>
      <trkpt lat="43.10941" lon="1.99844">
        <ele>439.2</ele>
        <time>2026-05-28T07:53:22Z</time>
      </trkpt>
      <trkpt lat="43.10936" lon="1.99841">
        <ele>438.4</ele>
        <time>2026-05-28T07:53:27Z</time>
      </trkpt>
      <trkpt lat="43.10935" lon="1.99839">
        <ele>438.2</ele>
        <time>2026-05-28T07:53:32Z</time>
      </trkpt>
      <trkpt lat="43.10933" lon="1.99837">
        <ele>437.8</ele>
        <time>2026-05-28T07:53:37Z</time>
      </trkpt>
      <trkpt lat="43.10929" lon="1.9983">
        <ele>437.2</ele>
        <time>2026-05-28T07:53:42Z</time>
      </trkpt>
      <trkpt lat="43.10925" lon="1.99824">
        <ele>436.7</ele>
        <time>2026-05-28T07:53:47Z</time>
      </trkpt>
      <trkpt lat="43.10924" lon="1.99818">
        <ele>436.8</ele>
        <time>2026-05-28T07:53:52Z</time>
      </trkpt>
      <trkpt lat="43.1092" lon="1.99812">
        <ele>436.5</ele>
        <time>2026-05-28T07:53:57Z</time>
      </trkpt>
      <trkpt lat="43.10918" lon="1.99804">
        <ele>436.6</ele>
        <time>2026-05-28T07:54:02Z</time>
      </trkpt>
      <trkpt lat="43.10917" lon="1.99795">
        <ele>436.9</ele>
        <time>2026-05-28T07:54:07Z</time>
      </trkpt>
      <trkpt lat="43.10918" lon="1.99788">
        <ele>437.3</ele>
        <time>2026-05-28T07:54:12Z</time>
      </trkpt>
      <trkpt lat="43.10919" lon="1.99787">
        <ele>437.5</ele>
        <time>2026-05-28T07:54:17Z</time>
      </trkpt>
      <trkpt lat="43.10919" lon="1.99787">
        <ele>437.5</ele>
        <time>2026-05-28T07:54:22Z</time>
      </trkpt>
      <trkpt lat="43.10919" lon="1.99787">
        <ele>437.5</ele>
        <time>2026-05-28T07:54:27Z</time>
      </trkpt>
      <trkpt lat="43.10919" lon="1.99787">
        <ele>437.5</ele>
        <time>2026-05-28T07:54:32Z</time>
      </trkpt>
      <trkpt lat="43.10921" lon="1.99786">
        <ele>437.7</ele>
        <time>2026-05-28T07:54:37Z</time>
      </trkpt>
      <trkpt lat="43.10922" lon="1.99784">
        <ele>437.9</ele>
        <time>2026-05-28T07:54:42Z</time>
      </trkpt>
      <trkpt lat="43.10922" lon="1.99784">
        <ele>437.9</ele>
        <time>2026-05-28T07:54:47Z</time>
      </trkpt>
      <trkpt lat="43.10918" lon="1.99779">
        <ele>437.7</ele>
        <time>2026-05-28T07:54:52Z</time>
      </trkpt>
      <trkpt lat="43.10919" lon="1.99771">
        <ele>438.2</ele>
        <time>2026-05-28T07:54:57Z</time>
      </trkpt>
      <trkpt lat="43.10919" lon="1.99763">
        <ele>438.6</ele>
        <time>2026-05-28T07:55:02Z</time>
      </trkpt>
      <trkpt lat="43.1092" lon="1.99755">
        <ele>439</ele>
        <time>2026-05-28T07:55:07Z</time>
      </trkpt>
      <trkpt lat="43.10919" lon="1.99747">
        <ele>439.3</ele>
        <time>2026-05-28T07:55:12Z</time>
      </trkpt>
      <trkpt lat="43.10919" lon="1.9974">
        <ele>439.6</ele>
        <time>2026-05-28T07:55:17Z</time>
      </trkpt>
      <trkpt lat="43.10918" lon="1.99734">
        <ele>439.8</ele>
        <time>2026-05-28T07:55:22Z</time>
      </trkpt>
      <trkpt lat="43.10915" lon="1.99728">
        <ele>440</ele>
        <time>2026-05-28T07:55:27Z</time>
      </trkpt>
      <trkpt lat="43.10911" lon="1.99722">
        <ele>440.1</ele>
        <time>2026-05-28T07:55:32Z</time>
      </trkpt>
      <trkpt lat="43.10906" lon="1.99715">
        <ele>440.2</ele>
        <time>2026-05-28T07:55:37Z</time>
      </trkpt>
      <trkpt lat="43.10901" lon="1.99709">
        <ele>440.1</ele>
        <time>2026-05-28T07:55:42Z</time>
      </trkpt>
      <trkpt lat="43.10895" lon="1.99703">
        <ele>440</ele>
        <time>2026-05-28T07:55:47Z</time>
      </trkpt>
      <trkpt lat="43.1089" lon="1.99698">
        <ele>439.8</ele>
        <time>2026-05-28T07:55:52Z</time>
      </trkpt>
      <trkpt lat="43.10887" lon="1.99691">
        <ele>439.7</ele>
        <time>2026-05-28T07:55:57Z</time>
      </trkpt>
      <trkpt lat="43.10886" lon="1.99687">
        <ele>439.7</ele>
        <time>2026-05-28T07:56:02Z</time>
      </trkpt>
      <trkpt lat="43.10885" lon="1.99685">
        <ele>439.7</ele>
        <time>2026-05-28T07:56:07Z</time>
      </trkpt>
      <trkpt lat="43.10884" lon="1.99682">
        <ele>439.6</ele>
        <time>2026-05-28T07:56:12Z</time>
      </trkpt>
      <trkpt lat="43.10882" lon="1.99674">
        <ele>439.6</ele>
        <time>2026-05-28T07:56:17Z</time>
      </trkpt>
      <trkpt lat="43.10881" lon="1.99668">
        <ele>439.6</ele>
        <time>2026-05-28T07:56:22Z</time>
      </trkpt>
      <trkpt lat="43.1088" lon="1.9966">
        <ele>439.2</ele>
        <time>2026-05-28T07:56:27Z</time>
      </trkpt>
      <trkpt lat="43.10878" lon="1.99653">
        <ele>438.7</ele>
        <time>2026-05-28T07:56:32Z</time>
      </trkpt>
      <trkpt lat="43.10878" lon="1.99645">
        <ele>438.4</ele>
        <time>2026-05-28T07:56:37Z</time>
      </trkpt>
      <trkpt lat="43.10878" lon="1.99645">
        <ele>438.4</ele>
        <time>2026-05-28T07:56:42Z</time>
      </trkpt>
      <trkpt lat="43.10878" lon="1.99645">
        <ele>438.4</ele>
        <time>2026-05-28T07:56:47Z</time>
      </trkpt>
      <trkpt lat="43.10878" lon="1.99645">
        <ele>438.4</ele>
        <time>2026-05-28T07:56:52Z</time>
      </trkpt>
      <trkpt lat="43.10878" lon="1.99643">
        <ele>438.3</ele>
        <time>2026-05-28T07:56:57Z</time>
      </trkpt>
      <trkpt lat="43.10876" lon="1.99639">
        <ele>437.9</ele>
        <time>2026-05-28T07:57:02Z</time>
      </trkpt>
      <trkpt lat="43.10876" lon="1.99639">
        <ele>437.9</ele>
        <time>2026-05-28T07:57:07Z</time>
      </trkpt>
      <trkpt lat="43.10876" lon="1.99639">
        <ele>437.9</ele>
        <time>2026-05-28T07:57:12Z</time>
      </trkpt>
      <trkpt lat="43.10876" lon="1.99634">
        <ele>437.7</ele>
        <time>2026-05-28T07:57:17Z</time>
      </trkpt>
      <trkpt lat="43.10876" lon="1.99628">
        <ele>437.5</ele>
        <time>2026-05-28T07:57:22Z</time>
      </trkpt>
      <trkpt lat="43.10877" lon="1.99618">
        <ele>437.2</ele>
        <time>2026-05-28T07:57:27Z</time>
      </trkpt>
      <trkpt lat="43.10878" lon="1.9961">
        <ele>436.9</ele>
        <time>2026-05-28T07:57:32Z</time>
      </trkpt>
      <trkpt lat="43.10878" lon="1.99603">
        <ele>436.6</ele>
        <time>2026-05-28T07:57:37Z</time>
      </trkpt>
      <trkpt lat="43.10877" lon="1.99594">
        <ele>436.2</ele>
        <time>2026-05-28T07:57:42Z</time>
      </trkpt>
      <trkpt lat="43.10874" lon="1.99586">
        <ele>435.5</ele>
        <time>2026-05-28T07:57:47Z</time>
      </trkpt>
      <trkpt lat="43.10872" lon="1.99577">
        <ele>434.7</ele>
        <time>2026-05-28T07:57:52Z</time>
      </trkpt>
      <trkpt lat="43.10869" lon="1.99569">
        <ele>433.8</ele>
        <time>2026-05-28T07:57:57Z</time>
      </trkpt>
      <trkpt lat="43.10867" lon="1.99561">
        <ele>433</ele>
        <time>2026-05-28T07:58:02Z</time>
      </trkpt>
      <trkpt lat="43.10865" lon="1.99554">
        <ele>432.3</ele>
        <time>2026-05-28T07:58:07Z</time>
      </trkpt>
      <trkpt lat="43.10865" lon="1.99545">
        <ele>431.7</ele>
        <time>2026-05-28T07:58:12Z</time>
      </trkpt>
      <trkpt lat="43.10866" lon="1.99536">
        <ele>431.1</ele>
        <time>2026-05-28T07:58:17Z</time>
      </trkpt>
      <trkpt lat="43.10866" lon="1.99527">
        <ele>430.5</ele>
        <time>2026-05-28T07:58:22Z</time>
      </trkpt>
      <trkpt lat="43.10867" lon="1.99519">
        <ele>430</ele>
        <time>2026-05-28T07:58:27Z</time>
      </trkpt>
      <trkpt lat="43.10869" lon="1.99511">
        <ele>429.6</ele>
        <time>2026-05-28T07:58:32Z</time>
      </trkpt>
      <trkpt lat="43.10869" lon="1.99501">
        <ele>428.9</ele>
        <time>2026-05-28T07:58:37Z</time>
      </trkpt>
      <trkpt lat="43.10871" lon="1.99493">
        <ele>429</ele>
        <time>2026-05-28T07:58:42Z</time>
      </trkpt>
      <trkpt lat="43.10871" lon="1.99486">
        <ele>428.9</ele>
        <time>2026-05-28T07:58:47Z</time>
      </trkpt>
      <trkpt lat="43.10872" lon="1.99477">
        <ele>428.9</ele>
        <time>2026-05-28T07:58:52Z</time>
      </trkpt>
      <trkpt lat="43.10872" lon="1.99469">
        <ele>428.8</ele>
        <time>2026-05-28T07:58:57Z</time>
      </trkpt>
      <trkpt lat="43.10871" lon="1.99461">
        <ele>428.5</ele>
        <time>2026-05-28T07:59:02Z</time>
      </trkpt>
      <trkpt lat="43.10871" lon="1.99453">
        <ele>428.4</ele>
        <time>2026-05-28T07:59:07Z</time>
      </trkpt>
      <trkpt lat="43.1087" lon="1.99445">
        <ele>428.1</ele>
        <time>2026-05-28T07:59:12Z</time>
      </trkpt>
      <trkpt lat="43.10868" lon="1.99436">
        <ele>427.7</ele>
        <time>2026-05-28T07:59:17Z</time>
      </trkpt>
      <trkpt lat="43.10868" lon="1.99429">
        <ele>427.6</ele>
        <time>2026-05-28T07:59:22Z</time>
      </trkpt>
      <trkpt lat="43.10867" lon="1.9942">
        <ele>427.3</ele>
        <time>2026-05-28T07:59:27Z</time>
      </trkpt>
      <trkpt lat="43.10866" lon="1.99413">
        <ele>427.2</ele>
        <time>2026-05-28T07:59:32Z</time>
      </trkpt>
      <trkpt lat="43.10865" lon="1.99405">
        <ele>427.2</ele>
        <time>2026-05-28T07:59:37Z</time>
      </trkpt>
      <trkpt lat="43.10866" lon="1.99399">
        <ele>427.5</ele>
        <time>2026-05-28T07:59:42Z</time>
      </trkpt>
      <trkpt lat="43.10866" lon="1.99391">
        <ele>427.7</ele>
        <time>2026-05-28T07:59:47Z</time>
      </trkpt>
      <trkpt lat="43.10866" lon="1.99383">
        <ele>427.9</ele>
        <time>2026-05-28T07:59:52Z</time>
      </trkpt>
      <trkpt lat="43.10866" lon="1.99375">
        <ele>428.1</ele>
        <time>2026-05-28T07:59:57Z</time>
      </trkpt>
      <trkpt lat="43.10866" lon="1.99367">
        <ele>428.3</ele>
        <time>2026-05-28T08:00:02Z</time>
      </trkpt>
      <trkpt lat="43.10865" lon="1.99362">
        <ele>428.3</ele>
        <time>2026-05-28T08:00:07Z</time>
      </trkpt>
      <trkpt lat="43.10865" lon="1.99357">
        <ele>428.4</ele>
        <time>2026-05-28T08:00:12Z</time>
      </trkpt>
      <trkpt lat="43.10865" lon="1.99351">
        <ele>428.5</ele>
        <time>2026-05-28T08:00:17Z</time>
      </trkpt>
      <trkpt lat="43.10864" lon="1.99346">
        <ele>428.5</ele>
        <time>2026-05-28T08:00:22Z</time>
      </trkpt>
      <trkpt lat="43.10863" lon="1.9934">
        <ele>428.5</ele>
        <time>2026-05-28T08:00:27Z</time>
      </trkpt>
      <trkpt lat="43.10861" lon="1.99335">
        <ele>428.3</ele>
        <time>2026-05-28T08:00:32Z</time>
      </trkpt>
      <trkpt lat="43.10861" lon="1.99331">
        <ele>428.4</ele>
        <time>2026-05-28T08:00:37Z</time>
      </trkpt>
      <trkpt lat="43.10861" lon="1.99331">
        <ele>428.4</ele>
        <time>2026-05-28T08:00:42Z</time>
      </trkpt>
      <trkpt lat="43.10861" lon="1.99331">
        <ele>428.4</ele>
        <time>2026-05-28T08:00:47Z</time>
      </trkpt>
      <trkpt lat="43.10861" lon="1.99331">
        <ele>428.4</ele>
        <time>2026-05-28T08:00:52Z</time>
      </trkpt>
      <trkpt lat="43.10861" lon="1.99331">
        <ele>428.4</ele>
        <time>2026-05-28T08:00:57Z</time>
      </trkpt>
      <trkpt lat="43.10861" lon="1.99331">
        <ele>428.4</ele>
        <time>2026-05-28T08:01:02Z</time>
      </trkpt>
      <trkpt lat="43.10861" lon="1.99331">
        <ele>428.4</ele>
        <time>2026-05-28T08:01:07Z</time>
      </trkpt>
      <trkpt lat="43.10861" lon="1.99331">
        <ele>428.4</ele>
        <time>2026-05-28T08:01:12Z</time>
      </trkpt>
      <trkpt lat="43.10861" lon="1.99331">
        <ele>428.4</ele>
        <time>2026-05-28T08:01:17Z</time>
      </trkpt>
      <trkpt lat="43.10861" lon="1.99331">
        <ele>428.4</ele>
        <time>2026-05-28T08:01:22Z</time>
      </trkpt>
      <trkpt lat="43.10861" lon="1.99331">
        <ele>428.4</ele>
        <time>2026-05-28T08:01:27Z</time>
      </trkpt>
      <trkpt lat="43.10861" lon="1.99331">
        <ele>428.4</ele>
        <time>2026-05-28T08:01:32Z</time>
      </trkpt>
      <trkpt lat="43.10861" lon="1.99331">
        <ele>428.4</ele>
        <time>2026-05-28T08:01:37Z</time>
      </trkpt>
      <trkpt lat="43.10861" lon="1.99331">
        <ele>428.4</ele>
        <time>2026-05-28T08:01:42Z</time>
      </trkpt>
      <trkpt lat="43.10861" lon="1.99331">
        <ele>428.4</ele>
        <time>2026-05-28T08:01:47Z</time>
      </trkpt>
      <trkpt lat="43.10861" lon="1.99331">
        <ele>428.4</ele>
        <time>2026-05-28T08:01:52Z</time>
      </trkpt>
      <trkpt lat="43.10861" lon="1.99331">
        <ele>428.4</ele>
        <time>2026-05-28T08:01:57Z</time>
      </trkpt>
      <trkpt lat="43.10861" lon="1.99331">
        <ele>428.4</ele>
        <time>2026-05-28T08:02:02Z</time>
      </trkpt>
      <trkpt lat="43.10861" lon="1.99331">
        <ele>428.4</ele>
        <time>2026-05-28T08:02:07Z</time>
      </trkpt>
      <trkpt lat="43.10861" lon="1.99331">
        <ele>428.4</ele>
        <time>2026-05-28T08:02:12Z</time>
      </trkpt>
      <trkpt lat="43.10861" lon="1.99331">
        <ele>428.4</ele>
        <time>2026-05-28T08:02:17Z</time>
      </trkpt>
      <trkpt lat="43.10861" lon="1.99331">
        <ele>428.4</ele>
        <time>2026-05-28T08:02:22Z</time>
      </trkpt>
      <trkpt lat="43.10861" lon="1.99331">
        <ele>428.4</ele>
        <time>2026-05-28T08:02:27Z</time>
      </trkpt>
      <trkpt lat="43.10861" lon="1.99331">
        <ele>428.4</ele>
        <time>2026-05-28T08:02:32Z</time>
      </trkpt>
      <trkpt lat="43.10861" lon="1.99331">
        <ele>428.4</ele>
        <time>2026-05-28T08:02:37Z</time>
      </trkpt>
      <trkpt lat="43.10861" lon="1.99331">
        <ele>428.4</ele>
        <time>2026-05-28T08:02:42Z</time>
      </trkpt>
      <trkpt lat="43.10861" lon="1.99331">
        <ele>428.4</ele>
        <time>2026-05-28T08:02:47Z</time>
      </trkpt>
      <trkpt lat="43.10861" lon="1.99331">
        <ele>428.4</ele>
        <time>2026-05-28T08:02:52Z</time>
      </trkpt>
      <trkpt lat="43.10861" lon="1.99331">
        <ele>428.4</ele>
        <time>2026-05-28T08:02:57Z</time>
      </trkpt>
      <trkpt lat="43.10861" lon="1.99331">
        <ele>428.4</ele>
        <time>2026-05-28T08:03:02Z</time>
      </trkpt>
      <trkpt lat="43.10861" lon="1.99331">
        <ele>428.4</ele>
        <time>2026-05-28T08:03:07Z</time>
      </trkpt>
      <trkpt lat="43.10861" lon="1.99331">
        <ele>428.4</ele>
        <time>2026-05-28T08:03:12Z</time>
      </trkpt>
      <trkpt lat="43.10861" lon="1.99331">
        <ele>428.4</ele>
        <time>2026-05-28T08:03:17Z</time>
      </trkpt>
      <trkpt lat="43.10861" lon="1.99331">
        <ele>428.4</ele>
        <time>2026-05-28T08:03:22Z</time>
      </trkpt>
      <trkpt lat="43.10861" lon="1.99331">
        <ele>428.4</ele>
        <time>2026-05-28T08:03:27Z</time>
      </trkpt>
      <trkpt lat="43.10861" lon="1.99331">
        <ele>428.4</ele>
        <time>2026-05-28T08:03:32Z</time>
      </trkpt>
      <trkpt lat="43.10861" lon="1.99331">
        <ele>428.4</ele>
        <time>2026-05-28T08:03:37Z</time>
      </trkpt>
      <trkpt lat="43.10861" lon="1.99331">
        <ele>428.4</ele>
        <time>2026-05-28T08:03:42Z</time>
      </trkpt>
      <trkpt lat="43.10861" lon="1.99331">
        <ele>428.4</ele>
        <time>2026-05-28T08:03:47Z</time>
      </trkpt>
      <trkpt lat="43.10861" lon="1.99331">
        <ele>428.4</ele>
        <time>2026-05-28T08:03:52Z</time>
      </trkpt>
      <trkpt lat="43.10861" lon="1.99331">
        <ele>428.4</ele>
        <time>2026-05-28T08:03:57Z</time>
      </trkpt>
      <trkpt lat="43.10861" lon="1.99331">
        <ele>428.4</ele>
        <time>2026-05-28T08:04:02Z</time>
      </trkpt>
      <trkpt lat="43.10861" lon="1.99331">
        <ele>428.4</ele>
        <time>2026-05-28T08:04:07Z</time>
      </trkpt>
      <trkpt lat="43.10861" lon="1.99331">
        <ele>428.4</ele>
        <time>2026-05-28T08:04:12Z</time>
      </trkpt>
      <trkpt lat="43.10861" lon="1.99331">
        <ele>428.4</ele>
        <time>2026-05-28T08:04:17Z</time>
      </trkpt>
      <trkpt lat="43.10861" lon="1.99331">
        <ele>428.4</ele>
        <time>2026-05-28T08:04:22Z</time>
      </trkpt>
      <trkpt lat="43.10861" lon="1.99331">
        <ele>428.4</ele>
        <time>2026-05-28T08:04:27Z</time>
      </trkpt>
      <trkpt lat="43.10861" lon="1.99331">
        <ele>428.4</ele>
        <time>2026-05-28T08:04:32Z</time>
      </trkpt>
      <trkpt lat="43.10865" lon="1.9932">
        <ele>429.4</ele>
        <time>2026-05-28T08:04:37Z</time>
      </trkpt>
      <trkpt lat="43.10867" lon="1.99321">
        <ele>429.6</ele>
        <time>2026-05-28T08:04:42Z</time>
      </trkpt>
      <trkpt lat="43.10869" lon="1.99319">
        <ele>430</ele>
        <time>2026-05-28T08:04:47Z</time>
      </trkpt>
      <trkpt lat="43.10872" lon="1.99316">
        <ele>430.5</ele>
        <time>2026-05-28T08:04:52Z</time>
      </trkpt>
      <trkpt lat="43.10874" lon="1.99314">
        <ele>430.8</ele>
        <time>2026-05-28T08:04:57Z</time>
      </trkpt>
      <trkpt lat="43.10879" lon="1.9931">
        <ele>431.6</ele>
        <time>2026-05-28T08:05:02Z</time>
      </trkpt>
      <trkpt lat="43.10883" lon="1.99306">
        <ele>432.2</ele>
        <time>2026-05-28T08:05:07Z</time>
      </trkpt>
      <trkpt lat="43.10886" lon="1.99304">
        <ele>432.6</ele>
        <time>2026-05-28T08:05:12Z</time>
      </trkpt>
      <trkpt lat="43.10887" lon="1.99298">
        <ele>432.9</ele>
        <time>2026-05-28T08:05:17Z</time>
      </trkpt>
      <trkpt lat="43.10888" lon="1.99292">
        <ele>433.1</ele>
        <time>2026-05-28T08:05:22Z</time>
      </trkpt>
      <trkpt lat="43.10886" lon="1.9929">
        <ele>432.8</ele>
        <time>2026-05-28T08:05:27Z</time>
      </trkpt>
      <trkpt lat="43.10887" lon="1.9929">
        <ele>433</ele>
        <time>2026-05-28T08:05:32Z</time>
      </trkpt>
      <trkpt lat="43.10887" lon="1.9929">
        <ele>433</ele>
        <time>2026-05-28T08:05:37Z</time>
      </trkpt>
      <trkpt lat="43.10887" lon="1.9929">
        <ele>433</ele>
        <time>2026-05-28T08:05:42Z</time>
      </trkpt>
      <trkpt lat="43.10887" lon="1.99285">
        <ele>433</ele>
        <time>2026-05-28T08:05:47Z</time>
      </trkpt>
      <trkpt lat="43.10889" lon="1.9928">
        <ele>433.3</ele>
        <time>2026-05-28T08:05:52Z</time>
      </trkpt>
      <trkpt lat="43.1089" lon="1.99273">
        <ele>433.5</ele>
        <time>2026-05-28T08:05:57Z</time>
      </trkpt>
      <trkpt lat="43.10892" lon="1.99267">
        <ele>433.8</ele>
        <time>2026-05-28T08:06:02Z</time>
      </trkpt>
      <trkpt lat="43.10891" lon="1.9926">
        <ele>433.7</ele>
        <time>2026-05-28T08:06:07Z</time>
      </trkpt>
      <trkpt lat="43.1089" lon="1.99254">
        <ele>433.7</ele>
        <time>2026-05-28T08:06:12Z</time>
      </trkpt>
      <trkpt lat="43.10888" lon="1.99249">
        <ele>433.6</ele>
        <time>2026-05-28T08:06:17Z</time>
      </trkpt>
      <trkpt lat="43.10887" lon="1.99243">
        <ele>433.3</ele>
        <time>2026-05-28T08:06:22Z</time>
      </trkpt>
      <trkpt lat="43.10886" lon="1.99236">
        <ele>433</ele>
        <time>2026-05-28T08:06:27Z</time>
      </trkpt>
      <trkpt lat="43.10885" lon="1.99228">
        <ele>432.7</ele>
        <time>2026-05-28T08:06:32Z</time>
      </trkpt>
      <trkpt lat="43.10885" lon="1.99221">
        <ele>432.5</ele>
        <time>2026-05-28T08:06:37Z</time>
      </trkpt>
      <trkpt lat="43.10885" lon="1.99213">
        <ele>432.3</ele>
        <time>2026-05-28T08:06:42Z</time>
      </trkpt>
      <trkpt lat="43.10885" lon="1.99206">
        <ele>432.1</ele>
        <time>2026-05-28T08:06:47Z</time>
      </trkpt>
      <trkpt lat="43.10886" lon="1.992">
        <ele>432</ele>
        <time>2026-05-28T08:06:52Z</time>
      </trkpt>
      <trkpt lat="43.10888" lon="1.99192">
        <ele>432</ele>
        <time>2026-05-28T08:06:57Z</time>
      </trkpt>
      <trkpt lat="43.10889" lon="1.99184">
        <ele>431.8</ele>
        <time>2026-05-28T08:07:02Z</time>
      </trkpt>
      <trkpt lat="43.1089" lon="1.99176">
        <ele>431.7</ele>
        <time>2026-05-28T08:07:07Z</time>
      </trkpt>
      <trkpt lat="43.10892" lon="1.99169">
        <ele>431.7</ele>
        <time>2026-05-28T08:07:12Z</time>
      </trkpt>
      <trkpt lat="43.10892" lon="1.99164">
        <ele>431.5</ele>
        <time>2026-05-28T08:07:17Z</time>
      </trkpt>
      <trkpt lat="43.10892" lon="1.99163">
        <ele>431.5</ele>
        <time>2026-05-28T08:07:22Z</time>
      </trkpt>
      <trkpt lat="43.10892" lon="1.99163">
        <ele>431.5</ele>
        <time>2026-05-28T08:07:27Z</time>
      </trkpt>
      <trkpt lat="43.10892" lon="1.99163">
        <ele>431.5</ele>
        <time>2026-05-28T08:07:32Z</time>
      </trkpt>
      <trkpt lat="43.10892" lon="1.99163">
        <ele>431.5</ele>
        <time>2026-05-28T08:07:37Z</time>
      </trkpt>
      <trkpt lat="43.10892" lon="1.99163">
        <ele>431.5</ele>
        <time>2026-05-28T08:07:42Z</time>
      </trkpt>
      <trkpt lat="43.10892" lon="1.99163">
        <ele>431.5</ele>
        <time>2026-05-28T08:07:47Z</time>
      </trkpt>
      <trkpt lat="43.10892" lon="1.99163">
        <ele>431.5</ele>
        <time>2026-05-28T08:07:52Z</time>
      </trkpt>
      <trkpt lat="43.10892" lon="1.99163">
        <ele>431.5</ele>
        <time>2026-05-28T08:07:57Z</time>
      </trkpt>
      <trkpt lat="43.10892" lon="1.99163">
        <ele>431.5</ele>
        <time>2026-05-28T08:08:02Z</time>
      </trkpt>
      <trkpt lat="43.10892" lon="1.99163">
        <ele>431.5</ele>
        <time>2026-05-28T08:08:07Z</time>
      </trkpt>
      <trkpt lat="43.10892" lon="1.99163">
        <ele>431.5</ele>
        <time>2026-05-28T08:08:12Z</time>
      </trkpt>
      <trkpt lat="43.10892" lon="1.99163">
        <ele>431.5</ele>
        <time>2026-05-28T08:08:17Z</time>
      </trkpt>
      <trkpt lat="43.10892" lon="1.99163">
        <ele>431.5</ele>
        <time>2026-05-28T08:08:22Z</time>
      </trkpt>
      <trkpt lat="43.10892" lon="1.99163">
        <ele>431.5</ele>
        <time>2026-05-28T08:08:27Z</time>
      </trkpt>
      <trkpt lat="43.10892" lon="1.99163">
        <ele>431.5</ele>
        <time>2026-05-28T08:08:32Z</time>
      </trkpt>
      <trkpt lat="43.10892" lon="1.99163">
        <ele>431.5</ele>
        <time>2026-05-28T08:08:37Z</time>
      </trkpt>
      <trkpt lat="43.10892" lon="1.99163">
        <ele>431.5</ele>
        <time>2026-05-28T08:08:42Z</time>
      </trkpt>
      <trkpt lat="43.10892" lon="1.99163">
        <ele>431.5</ele>
        <time>2026-05-28T08:08:47Z</time>
      </trkpt>
      <trkpt lat="43.10892" lon="1.99163">
        <ele>431.5</ele>
        <time>2026-05-28T08:08:52Z</time>
      </trkpt>
      <trkpt lat="43.10892" lon="1.99163">
        <ele>431.5</ele>
        <time>2026-05-28T08:08:57Z</time>
      </trkpt>
      <trkpt lat="43.10892" lon="1.99163">
        <ele>431.5</ele>
        <time>2026-05-28T08:09:02Z</time>
      </trkpt>
      <trkpt lat="43.10892" lon="1.99163">
        <ele>431.5</ele>
        <time>2026-05-28T08:09:07Z</time>
      </trkpt>
      <trkpt lat="43.10892" lon="1.99163">
        <ele>431.5</ele>
        <time>2026-05-28T08:09:12Z</time>
      </trkpt>
      <trkpt lat="43.10892" lon="1.99163">
        <ele>431.5</ele>
        <time>2026-05-28T08:09:17Z</time>
      </trkpt>
      <trkpt lat="43.10892" lon="1.99163">
        <ele>431.5</ele>
        <time>2026-05-28T08:09:22Z</time>
      </trkpt>
      <trkpt lat="43.10892" lon="1.99163">
        <ele>431.5</ele>
        <time>2026-05-28T08:09:27Z</time>
      </trkpt>
      <trkpt lat="43.10892" lon="1.99163">
        <ele>431.5</ele>
        <time>2026-05-28T08:09:32Z</time>
      </trkpt>
      <trkpt lat="43.10892" lon="1.99163">
        <ele>431.5</ele>
        <time>2026-05-28T08:09:37Z</time>
      </trkpt>
      <trkpt lat="43.10892" lon="1.99163">
        <ele>431.5</ele>
        <time>2026-05-28T08:09:42Z</time>
      </trkpt>
      <trkpt lat="43.10892" lon="1.99163">
        <ele>431.5</ele>
        <time>2026-05-28T08:09:47Z</time>
      </trkpt>
      <trkpt lat="43.10892" lon="1.99163">
        <ele>431.5</ele>
        <time>2026-05-28T08:09:52Z</time>
      </trkpt>
      <trkpt lat="43.10892" lon="1.99163">
        <ele>431.5</ele>
        <time>2026-05-28T08:09:57Z</time>
      </trkpt>
      <trkpt lat="43.10892" lon="1.99163">
        <ele>431.5</ele>
        <time>2026-05-28T08:10:02Z</time>
      </trkpt>
      <trkpt lat="43.10892" lon="1.99163">
        <ele>431.5</ele>
        <time>2026-05-28T08:10:07Z</time>
      </trkpt>
      <trkpt lat="43.10892" lon="1.99163">
        <ele>431.5</ele>
        <time>2026-05-28T08:10:12Z</time>
      </trkpt>
      <trkpt lat="43.10892" lon="1.99163">
        <ele>431.5</ele>
        <time>2026-05-28T08:10:17Z</time>
      </trkpt>
      <trkpt lat="43.10892" lon="1.99163">
        <ele>431.5</ele>
        <time>2026-05-28T08:10:22Z</time>
      </trkpt>
      <trkpt lat="43.10892" lon="1.99163">
        <ele>431.5</ele>
        <time>2026-05-28T08:10:27Z</time>
      </trkpt>
      <trkpt lat="43.10892" lon="1.99163">
        <ele>431.5</ele>
        <time>2026-05-28T08:10:32Z</time>
      </trkpt>
      <trkpt lat="43.10892" lon="1.99163">
        <ele>431.5</ele>
        <time>2026-05-28T08:10:37Z</time>
      </trkpt>
      <trkpt lat="43.10892" lon="1.99163">
        <ele>431.5</ele>
        <time>2026-05-28T08:10:42Z</time>
      </trkpt>
      <trkpt lat="43.10892" lon="1.99163">
        <ele>431.5</ele>
        <time>2026-05-28T08:10:47Z</time>
      </trkpt>
      <trkpt lat="43.10892" lon="1.99163">
        <ele>431.5</ele>
        <time>2026-05-28T08:10:52Z</time>
      </trkpt>
      <trkpt lat="43.10892" lon="1.99163">
        <ele>431.5</ele>
        <time>2026-05-28T08:10:57Z</time>
      </trkpt>
      <trkpt lat="43.10892" lon="1.99163">
        <ele>431.5</ele>
        <time>2026-05-28T08:11:02Z</time>
      </trkpt>
      <trkpt lat="43.10892" lon="1.99163">
        <ele>431.5</ele>
        <time>2026-05-28T08:11:07Z</time>
      </trkpt>
      <trkpt lat="43.10892" lon="1.99163">
        <ele>431.5</ele>
        <time>2026-05-28T08:11:12Z</time>
      </trkpt>
      <trkpt lat="43.10892" lon="1.99163">
        <ele>431.5</ele>
        <time>2026-05-28T08:11:17Z</time>
      </trkpt>
      <trkpt lat="43.10892" lon="1.99163">
        <ele>431.5</ele>
        <time>2026-05-28T08:11:22Z</time>
      </trkpt>
      <trkpt lat="43.10892" lon="1.99163">
        <ele>431.5</ele>
        <time>2026-05-28T08:11:27Z</time>
      </trkpt>
      <trkpt lat="43.10892" lon="1.99163">
        <ele>431.5</ele>
        <time>2026-05-28T08:11:32Z</time>
      </trkpt>
      <trkpt lat="43.10892" lon="1.99163">
        <ele>431.5</ele>
        <time>2026-05-28T08:11:37Z</time>
      </trkpt>
      <trkpt lat="43.10892" lon="1.99163">
        <ele>431.5</ele>
        <time>2026-05-28T08:11:42Z</time>
      </trkpt>
      <trkpt lat="43.10892" lon="1.99163">
        <ele>431.5</ele>
        <time>2026-05-28T08:11:47Z</time>
      </trkpt>
      <trkpt lat="43.10892" lon="1.99163">
        <ele>431.5</ele>
        <time>2026-05-28T08:11:52Z</time>
      </trkpt>
      <trkpt lat="43.10892" lon="1.99163">
        <ele>431.5</ele>
        <time>2026-05-28T08:11:57Z</time>
      </trkpt>
      <trkpt lat="43.10892" lon="1.99163">
        <ele>431.5</ele>
        <time>2026-05-28T08:12:02Z</time>
      </trkpt>
      <trkpt lat="43.10892" lon="1.99163">
        <ele>431.5</ele>
        <time>2026-05-28T08:12:07Z</time>
      </trkpt>
      <trkpt lat="43.10892" lon="1.99163">
        <ele>431.5</ele>
        <time>2026-05-28T08:12:12Z</time>
      </trkpt>
      <trkpt lat="43.10892" lon="1.99163">
        <ele>431.5</ele>
        <time>2026-05-28T08:12:17Z</time>
      </trkpt>
      <trkpt lat="43.10892" lon="1.99163">
        <ele>431.5</ele>
        <time>2026-05-28T08:12:22Z</time>
      </trkpt>
      <trkpt lat="43.10892" lon="1.99163">
        <ele>431.5</ele>
        <time>2026-05-28T08:12:27Z</time>
      </trkpt>
      <trkpt lat="43.10892" lon="1.99163">
        <ele>431.5</ele>
        <time>2026-05-28T08:12:32Z</time>
      </trkpt>
      <trkpt lat="43.10892" lon="1.99163">
        <ele>431.5</ele>
        <time>2026-05-28T08:12:37Z</time>
      </trkpt>
      <trkpt lat="43.10892" lon="1.99163">
        <ele>431.5</ele>
        <time>2026-05-28T08:12:42Z</time>
      </trkpt>
      <trkpt lat="43.10892" lon="1.99163">
        <ele>431.5</ele>
        <time>2026-05-28T08:12:47Z</time>
      </trkpt>
      <trkpt lat="43.10892" lon="1.99163">
        <ele>431.5</ele>
        <time>2026-05-28T08:12:52Z</time>
      </trkpt>
      <trkpt lat="43.10892" lon="1.99163">
        <ele>431.5</ele>
        <time>2026-05-28T08:12:57Z</time>
      </trkpt>
      <trkpt lat="43.10892" lon="1.99163">
        <ele>431.5</ele>
        <time>2026-05-28T08:13:02Z</time>
      </trkpt>
      <trkpt lat="43.10892" lon="1.99163">
        <ele>431.5</ele>
        <time>2026-05-28T08:13:07Z</time>
      </trkpt>
      <trkpt lat="43.10892" lon="1.99163">
        <ele>431.5</ele>
        <time>2026-05-28T08:13:12Z</time>
      </trkpt>
      <trkpt lat="43.10892" lon="1.99163">
        <ele>431.5</ele>
        <time>2026-05-28T08:13:17Z</time>
      </trkpt>
      <trkpt lat="43.10892" lon="1.99163">
        <ele>431.5</ele>
        <time>2026-05-28T08:13:22Z</time>
      </trkpt>
      <trkpt lat="43.10892" lon="1.99163">
        <ele>431.5</ele>
        <time>2026-05-28T08:13:27Z</time>
      </trkpt>
      <trkpt lat="43.10892" lon="1.99163">
        <ele>431.5</ele>
        <time>2026-05-28T08:13:32Z</time>
      </trkpt>
      <trkpt lat="43.10892" lon="1.99163">
        <ele>431.5</ele>
        <time>2026-05-28T08:13:37Z</time>
      </trkpt>
      <trkpt lat="43.10892" lon="1.99163">
        <ele>431.5</ele>
        <time>2026-05-28T08:13:42Z</time>
      </trkpt>
      <trkpt lat="43.10892" lon="1.99163">
        <ele>431.5</ele>
        <time>2026-05-28T08:13:47Z</time>
      </trkpt>
      <trkpt lat="43.10892" lon="1.99163">
        <ele>431.5</ele>
        <time>2026-05-28T08:13:52Z</time>
      </trkpt>
      <trkpt lat="43.10892" lon="1.99163">
        <ele>431.5</ele>
        <time>2026-05-28T08:13:57Z</time>
      </trkpt>
      <trkpt lat="43.10892" lon="1.99163">
        <ele>431.5</ele>
        <time>2026-05-28T08:14:02Z</time>
      </trkpt>
      <trkpt lat="43.10892" lon="1.99163">
        <ele>431.5</ele>
        <time>2026-05-28T08:14:07Z</time>
      </trkpt>
      <trkpt lat="43.10892" lon="1.99163">
        <ele>431.5</ele>
        <time>2026-05-28T08:14:12Z</time>
      </trkpt>
      <trkpt lat="43.10892" lon="1.99163">
        <ele>431.5</ele>
        <time>2026-05-28T08:14:17Z</time>
      </trkpt>
      <trkpt lat="43.10892" lon="1.99163">
        <ele>431.5</ele>
        <time>2026-05-28T08:14:22Z</time>
      </trkpt>
      <trkpt lat="43.10892" lon="1.99163">
        <ele>431.5</ele>
        <time>2026-05-28T08:14:27Z</time>
      </trkpt>
      <trkpt lat="43.10892" lon="1.99163">
        <ele>431.5</ele>
        <time>2026-05-28T08:14:32Z</time>
      </trkpt>
      <trkpt lat="43.10892" lon="1.99163">
        <ele>431.5</ele>
        <time>2026-05-28T08:14:37Z</time>
      </trkpt>
      <trkpt lat="43.10892" lon="1.99163">
        <ele>431.5</ele>
        <time>2026-05-28T08:14:42Z</time>
      </trkpt>
      <trkpt lat="43.10892" lon="1.99163">
        <ele>431.5</ele>
        <time>2026-05-28T08:14:47Z</time>
      </trkpt>
      <trkpt lat="43.10892" lon="1.99163">
        <ele>431.5</ele>
        <time>2026-05-28T08:14:52Z</time>
      </trkpt>
      <trkpt lat="43.10892" lon="1.99163">
        <ele>431.5</ele>
        <time>2026-05-28T08:14:57Z</time>
      </trkpt>
      <trkpt lat="43.10892" lon="1.99163">
        <ele>431.5</ele>
        <time>2026-05-28T08:15:02Z</time>
      </trkpt>
      <trkpt lat="43.10892" lon="1.99163">
        <ele>431.5</ele>
        <time>2026-05-28T08:15:07Z</time>
      </trkpt>
      <trkpt lat="43.10892" lon="1.99163">
        <ele>431.5</ele>
        <time>2026-05-28T08:15:12Z</time>
      </trkpt>
      <trkpt lat="43.10892" lon="1.99163">
        <ele>431.5</ele>
        <time>2026-05-28T08:15:17Z</time>
      </trkpt>
      <trkpt lat="43.10892" lon="1.99163">
        <ele>431.5</ele>
        <time>2026-05-28T08:15:22Z</time>
      </trkpt>
      <trkpt lat="43.10892" lon="1.99163">
        <ele>431.5</ele>
        <time>2026-05-28T08:15:27Z</time>
      </trkpt>
      <trkpt lat="43.10892" lon="1.99163">
        <ele>431.5</ele>
        <time>2026-05-28T08:15:32Z</time>
      </trkpt>
      <trkpt lat="43.10892" lon="1.99163">
        <ele>431.5</ele>
        <time>2026-05-28T08:15:37Z</time>
      </trkpt>
      <trkpt lat="43.10892" lon="1.99163">
        <ele>431.5</ele>
        <time>2026-05-28T08:15:42Z</time>
      </trkpt>
      <trkpt lat="43.10892" lon="1.99163">
        <ele>431.5</ele>
        <time>2026-05-28T08:15:47Z</time>
      </trkpt>
      <trkpt lat="43.10892" lon="1.99163">
        <ele>431.5</ele>
        <time>2026-05-28T08:15:52Z</time>
      </trkpt>
      <trkpt lat="43.10892" lon="1.99163">
        <ele>431.5</ele>
        <time>2026-05-28T08:15:57Z</time>
      </trkpt>
      <trkpt lat="43.10892" lon="1.99163">
        <ele>431.5</ele>
        <time>2026-05-28T08:16:02Z</time>
      </trkpt>
      <trkpt lat="43.10892" lon="1.99163">
        <ele>431.5</ele>
        <time>2026-05-28T08:16:07Z</time>
      </trkpt>
      <trkpt lat="43.10892" lon="1.99163">
        <ele>431.5</ele>
        <time>2026-05-28T08:16:12Z</time>
      </trkpt>
      <trkpt lat="43.10892" lon="1.99163">
        <ele>431.5</ele>
        <time>2026-05-28T08:16:17Z</time>
      </trkpt>
      <trkpt lat="43.10892" lon="1.99163">
        <ele>431.5</ele>
        <time>2026-05-28T08:16:22Z</time>
      </trkpt>
      <trkpt lat="43.10892" lon="1.99163">
        <ele>431.5</ele>
        <time>2026-05-28T08:16:27Z</time>
      </trkpt>
      <trkpt lat="43.10892" lon="1.99163">
        <ele>431.5</ele>
        <time>2026-05-28T08:16:32Z</time>
      </trkpt>
      <trkpt lat="43.10892" lon="1.99163">
        <ele>431.5</ele>
        <time>2026-05-28T08:16:37Z</time>
      </trkpt>
      <trkpt lat="43.10892" lon="1.99163">
        <ele>431.5</ele>
        <time>2026-05-28T08:16:42Z</time>
      </trkpt>
      <trkpt lat="43.10892" lon="1.99163">
        <ele>431.5</ele>
        <time>2026-05-28T08:16:47Z</time>
      </trkpt>
      <trkpt lat="43.10892" lon="1.99163">
        <ele>431.5</ele>
        <time>2026-05-28T08:16:52Z</time>
      </trkpt>
      <trkpt lat="43.10892" lon="1.99163">
        <ele>431.5</ele>
        <time>2026-05-28T08:16:57Z</time>
      </trkpt>
      <trkpt lat="43.10892" lon="1.99163">
        <ele>431.5</ele>
        <time>2026-05-28T08:17:02Z</time>
      </trkpt>
      <trkpt lat="43.10892" lon="1.99163">
        <ele>431.5</ele>
        <time>2026-05-28T08:17:07Z</time>
      </trkpt>
      <trkpt lat="43.10892" lon="1.99163">
        <ele>431.5</ele>
        <time>2026-05-28T08:17:12Z</time>
      </trkpt>
      <trkpt lat="43.10892" lon="1.99163">
        <ele>431.5</ele>
        <time>2026-05-28T08:17:17Z</time>
      </trkpt>
      <trkpt lat="43.10892" lon="1.99163">
        <ele>431.5</ele>
        <time>2026-05-28T08:17:22Z</time>
      </trkpt>
      <trkpt lat="43.10892" lon="1.99163">
        <ele>431.5</ele>
        <time>2026-05-28T08:17:27Z</time>
      </trkpt>
      <trkpt lat="43.10892" lon="1.99163">
        <ele>431.5</ele>
        <time>2026-05-28T08:17:32Z</time>
      </trkpt>
      <trkpt lat="43.10892" lon="1.99163">
        <ele>431.5</ele>
        <time>2026-05-28T08:17:37Z</time>
      </trkpt>
      <trkpt lat="43.10892" lon="1.99163">
        <ele>431.5</ele>
        <time>2026-05-28T08:17:42Z</time>
      </trkpt>
      <trkpt lat="43.10892" lon="1.99163">
        <ele>431.5</ele>
        <time>2026-05-28T08:17:47Z</time>
      </trkpt>
      <trkpt lat="43.10892" lon="1.99163">
        <ele>431.5</ele>
        <time>2026-05-28T08:17:52Z</time>
      </trkpt>
      <trkpt lat="43.10892" lon="1.99163">
        <ele>431.5</ele>
        <time>2026-05-28T08:17:57Z</time>
      </trkpt>
      <trkpt lat="43.10892" lon="1.99163">
        <ele>431.5</ele>
        <time>2026-05-28T08:18:02Z</time>
      </trkpt>
      <trkpt lat="43.10892" lon="1.99163">
        <ele>431.5</ele>
        <time>2026-05-28T08:18:07Z</time>
      </trkpt>
      <trkpt lat="43.10892" lon="1.99163">
        <ele>431.5</ele>
        <time>2026-05-28T08:18:12Z</time>
      </trkpt>
      <trkpt lat="43.10892" lon="1.99163">
        <ele>431.5</ele>
        <time>2026-05-28T08:18:17Z</time>
      </trkpt>
      <trkpt lat="43.10892" lon="1.99163">
        <ele>431.5</ele>
        <time>2026-05-28T08:18:22Z</time>
      </trkpt>
      <trkpt lat="43.10892" lon="1.99163">
        <ele>431.5</ele>
        <time>2026-05-28T08:18:27Z</time>
      </trkpt>
      <trkpt lat="43.10892" lon="1.99163">
        <ele>431.5</ele>
        <time>2026-05-28T08:18:32Z</time>
      </trkpt>
      <trkpt lat="43.10892" lon="1.99163">
        <ele>431.5</ele>
        <time>2026-05-28T08:18:37Z</time>
      </trkpt>
      <trkpt lat="43.10892" lon="1.99163">
        <ele>431.5</ele>
        <time>2026-05-28T08:18:42Z</time>
      </trkpt>
      <trkpt lat="43.10892" lon="1.99163">
        <ele>431.5</ele>
        <time>2026-05-28T08:18:47Z</time>
      </trkpt>
      <trkpt lat="43.10892" lon="1.99163">
        <ele>431.5</ele>
        <time>2026-05-28T08:18:52Z</time>
      </trkpt>
      <trkpt lat="43.10892" lon="1.99163">
        <ele>431.5</ele>
        <time>2026-05-28T08:18:57Z</time>
      </trkpt>
      <trkpt lat="43.10892" lon="1.99163">
        <ele>431.5</ele>
        <time>2026-05-28T08:19:02Z</time>
      </trkpt>
      <trkpt lat="43.10892" lon="1.99163">
        <ele>431.5</ele>
        <time>2026-05-28T08:19:07Z</time>
      </trkpt>
      <trkpt lat="43.10892" lon="1.99163">
        <ele>431.5</ele>
        <time>2026-05-28T08:19:12Z</time>
      </trkpt>
      <trkpt lat="43.10892" lon="1.99163">
        <ele>431.5</ele>
        <time>2026-05-28T08:19:17Z</time>
      </trkpt>
      <trkpt lat="43.10892" lon="1.99163">
        <ele>431.5</ele>
        <time>2026-05-28T08:19:22Z</time>
      </trkpt>
      <trkpt lat="43.10892" lon="1.99163">
        <ele>431.5</ele>
        <time>2026-05-28T08:19:27Z</time>
      </trkpt>
      <trkpt lat="43.10892" lon="1.99163">
        <ele>431.5</ele>
        <time>2026-05-28T08:19:32Z</time>
      </trkpt>
      <trkpt lat="43.10892" lon="1.99163">
        <ele>431.5</ele>
        <time>2026-05-28T08:19:37Z</time>
      </trkpt>
      <trkpt lat="43.10892" lon="1.99163">
        <ele>431.5</ele>
        <time>2026-05-28T08:19:42Z</time>
      </trkpt>
      <trkpt lat="43.10892" lon="1.99163">
        <ele>431.5</ele>
        <time>2026-05-28T08:19:47Z</time>
      </trkpt>
      <trkpt lat="43.10892" lon="1.99163">
        <ele>431.5</ele>
        <time>2026-05-28T08:19:52Z</time>
      </trkpt>
      <trkpt lat="43.10892" lon="1.99163">
        <ele>431.5</ele>
        <time>2026-05-28T08:19:57Z</time>
      </trkpt>
      <trkpt lat="43.10892" lon="1.99163">
        <ele>431.5</ele>
        <time>2026-05-28T08:20:02Z</time>
      </trkpt>
      <trkpt lat="43.10892" lon="1.99163">
        <ele>431.5</ele>
        <time>2026-05-28T08:20:07Z</time>
      </trkpt>
      <trkpt lat="43.10892" lon="1.99163">
        <ele>431.5</ele>
        <time>2026-05-28T08:20:12Z</time>
      </trkpt>
      <trkpt lat="43.10892" lon="1.99163">
        <ele>431.5</ele>
        <time>2026-05-28T08:20:17Z</time>
      </trkpt>
      <trkpt lat="43.10892" lon="1.99163">
        <ele>431.5</ele>
        <time>2026-05-28T08:20:22Z</time>
      </trkpt>
      <trkpt lat="43.10892" lon="1.99163">
        <ele>431.5</ele>
        <time>2026-05-28T08:20:27Z</time>
      </trkpt>
      <trkpt lat="43.10892" lon="1.99163">
        <ele>431.5</ele>
        <time>2026-05-28T08:20:32Z</time>
      </trkpt>
      <trkpt lat="43.10892" lon="1.99163">
        <ele>431.5</ele>
        <time>2026-05-28T08:20:37Z</time>
      </trkpt>
      <trkpt lat="43.10892" lon="1.99163">
        <ele>431.5</ele>
        <time>2026-05-28T08:20:42Z</time>
      </trkpt>
      <trkpt lat="43.10892" lon="1.99163">
        <ele>431.5</ele>
        <time>2026-05-28T08:20:47Z</time>
      </trkpt>
      <trkpt lat="43.10892" lon="1.99163">
        <ele>431.5</ele>
        <time>2026-05-28T08:20:52Z</time>
      </trkpt>
      <trkpt lat="43.10892" lon="1.99163">
        <ele>431.5</ele>
        <time>2026-05-28T08:20:57Z</time>
      </trkpt>
      <trkpt lat="43.10892" lon="1.99163">
        <ele>431.5</ele>
        <time>2026-05-28T08:21:02Z</time>
      </trkpt>
      <trkpt lat="43.10892" lon="1.99163">
        <ele>431.5</ele>
        <time>2026-05-28T08:21:07Z</time>
      </trkpt>
      <trkpt lat="43.10892" lon="1.99163">
        <ele>431.5</ele>
        <time>2026-05-28T08:21:12Z</time>
      </trkpt>
      <trkpt lat="43.10892" lon="1.99163">
        <ele>431.5</ele>
        <time>2026-05-28T08:21:17Z</time>
      </trkpt>
      <trkpt lat="43.10892" lon="1.99163">
        <ele>431.5</ele>
        <time>2026-05-28T08:21:22Z</time>
      </trkpt>
      <trkpt lat="43.10892" lon="1.99163">
        <ele>431.5</ele>
        <time>2026-05-28T08:21:27Z</time>
      </trkpt>
      <trkpt lat="43.10892" lon="1.99163">
        <ele>431.5</ele>
        <time>2026-05-28T08:21:32Z</time>
      </trkpt>
      <trkpt lat="43.10892" lon="1.99163">
        <ele>431.5</ele>
        <time>2026-05-28T08:21:37Z</time>
      </trkpt>
      <trkpt lat="43.10892" lon="1.99163">
        <ele>431.5</ele>
        <time>2026-05-28T08:21:42Z</time>
      </trkpt>
      <trkpt lat="43.10892" lon="1.99163">
        <ele>431.5</ele>
        <time>2026-05-28T08:21:47Z</time>
      </trkpt>
      <trkpt lat="43.10892" lon="1.99163">
        <ele>431.5</ele>
        <time>2026-05-28T08:21:52Z</time>
      </trkpt>
      <trkpt lat="43.10892" lon="1.99163">
        <ele>431.5</ele>
        <time>2026-05-28T08:21:57Z</time>
      </trkpt>
      <trkpt lat="43.10892" lon="1.99163">
        <ele>431.5</ele>
        <time>2026-05-28T08:22:02Z</time>
      </trkpt>
      <trkpt lat="43.10892" lon="1.99163">
        <ele>431.5</ele>
        <time>2026-05-28T08:22:07Z</time>
      </trkpt>
      <trkpt lat="43.10892" lon="1.99163">
        <ele>431.5</ele>
        <time>2026-05-28T08:22:12Z</time>
      </trkpt>
      <trkpt lat="43.10892" lon="1.99163">
        <ele>431.5</ele>
        <time>2026-05-28T08:22:17Z</time>
      </trkpt>
      <trkpt lat="43.10892" lon="1.99163">
        <ele>431.5</ele>
        <time>2026-05-28T08:22:22Z</time>
      </trkpt>
      <trkpt lat="43.10892" lon="1.99163">
        <ele>431.5</ele>
        <time>2026-05-28T08:22:27Z</time>
      </trkpt>
      <trkpt lat="43.10892" lon="1.99163">
        <ele>431.5</ele>
        <time>2026-05-28T08:22:32Z</time>
      </trkpt>
      <trkpt lat="43.10892" lon="1.99163">
        <ele>431.5</ele>
        <time>2026-05-28T08:22:37Z</time>
      </trkpt>
      <trkpt lat="43.10892" lon="1.99163">
        <ele>431.5</ele>
        <time>2026-05-28T08:22:42Z</time>
      </trkpt>
      <trkpt lat="43.10892" lon="1.99163">
        <ele>431.5</ele>
        <time>2026-05-28T08:22:47Z</time>
      </trkpt>
      <trkpt lat="43.10892" lon="1.99163">
        <ele>431.5</ele>
        <time>2026-05-28T08:22:52Z</time>
      </trkpt>
      <trkpt lat="43.10892" lon="1.99163">
        <ele>431.5</ele>
        <time>2026-05-28T08:22:57Z</time>
      </trkpt>
      <trkpt lat="43.10892" lon="1.99163">
        <ele>431.5</ele>
        <time>2026-05-28T08:23:02Z</time>
      </trkpt>
      <trkpt lat="43.10892" lon="1.99163">
        <ele>431.5</ele>
        <time>2026-05-28T08:23:07Z</time>
      </trkpt>
      <trkpt lat="43.10892" lon="1.99163">
        <ele>431.5</ele>
        <time>2026-05-28T08:23:12Z</time>
      </trkpt>
      <trkpt lat="43.10892" lon="1.99163">
        <ele>431.5</ele>
        <time>2026-05-28T08:23:17Z</time>
      </trkpt>
      <trkpt lat="43.10892" lon="1.99163">
        <ele>431.5</ele>
        <time>2026-05-28T08:23:22Z</time>
      </trkpt>
      <trkpt lat="43.10892" lon="1.99163">
        <ele>431.5</ele>
        <time>2026-05-28T08:23:27Z</time>
      </trkpt>
      <trkpt lat="43.10892" lon="1.99163">
        <ele>431.5</ele>
        <time>2026-05-28T08:23:32Z</time>
      </trkpt>
      <trkpt lat="43.10892" lon="1.99163">
        <ele>431.5</ele>
        <time>2026-05-28T08:23:37Z</time>
      </trkpt>
      <trkpt lat="43.10892" lon="1.99163">
        <ele>431.5</ele>
        <time>2026-05-28T08:23:42Z</time>
      </trkpt>
      <trkpt lat="43.10892" lon="1.99163">
        <ele>431.5</ele>
        <time>2026-05-28T08:23:47Z</time>
      </trkpt>
      <trkpt lat="43.10892" lon="1.99163">
        <ele>431.5</ele>
        <time>2026-05-28T08:23:52Z</time>
      </trkpt>
      <trkpt lat="43.10892" lon="1.99163">
        <ele>431.5</ele>
        <time>2026-05-28T08:23:57Z</time>
      </trkpt>
      <trkpt lat="43.10892" lon="1.99163">
        <ele>431.5</ele>
        <time>2026-05-28T08:24:02Z</time>
      </trkpt>
      <trkpt lat="43.10892" lon="1.99163">
        <ele>431.5</ele>
        <time>2026-05-28T08:24:07Z</time>
      </trkpt>
      <trkpt lat="43.10892" lon="1.99163">
        <ele>431.5</ele>
        <time>2026-05-28T08:24:12Z</time>
      </trkpt>
      <trkpt lat="43.10892" lon="1.99163">
        <ele>431.5</ele>
        <time>2026-05-28T08:24:17Z</time>
      </trkpt>
      <trkpt lat="43.10892" lon="1.99163">
        <ele>431.5</ele>
        <time>2026-05-28T08:24:22Z</time>
      </trkpt>
      <trkpt lat="43.10892" lon="1.99163">
        <ele>431.5</ele>
        <time>2026-05-28T08:24:27Z</time>
      </trkpt>
      <trkpt lat="43.10892" lon="1.99163">
        <ele>431.5</ele>
        <time>2026-05-28T08:24:32Z</time>
      </trkpt>
      <trkpt lat="43.10892" lon="1.99163">
        <ele>431.5</ele>
        <time>2026-05-28T08:24:37Z</time>
      </trkpt>
      <trkpt lat="43.10892" lon="1.99163">
        <ele>431.5</ele>
        <time>2026-05-28T08:24:42Z</time>
      </trkpt>
      <trkpt lat="43.10892" lon="1.99163">
        <ele>431.5</ele>
        <time>2026-05-28T08:24:47Z</time>
      </trkpt>
      <trkpt lat="43.10892" lon="1.99163">
        <ele>431.5</ele>
        <time>2026-05-28T08:24:52Z</time>
      </trkpt>
      <trkpt lat="43.10892" lon="1.99163">
        <ele>431.5</ele>
        <time>2026-05-28T08:24:57Z</time>
      </trkpt>
      <trkpt lat="43.10892" lon="1.99163">
        <ele>431.5</ele>
        <time>2026-05-28T08:25:02Z</time>
      </trkpt>
      <trkpt lat="43.10892" lon="1.99163">
        <ele>431.5</ele>
        <time>2026-05-28T08:25:07Z</time>
      </trkpt>
      <trkpt lat="43.10892" lon="1.99163">
        <ele>431.5</ele>
        <time>2026-05-28T08:25:12Z</time>
      </trkpt>
      <trkpt lat="43.10892" lon="1.99163">
        <ele>431.5</ele>
        <time>2026-05-28T08:25:17Z</time>
      </trkpt>
      <trkpt lat="43.10892" lon="1.99163">
        <ele>431.5</ele>
        <time>2026-05-28T08:25:22Z</time>
      </trkpt>
      <trkpt lat="43.10892" lon="1.99163">
        <ele>431.5</ele>
        <time>2026-05-28T08:25:27Z</time>
      </trkpt>
      <trkpt lat="43.10892" lon="1.99163">
        <ele>431.5</ele>
        <time>2026-05-28T08:25:32Z</time>
      </trkpt>
      <trkpt lat="43.10892" lon="1.99163">
        <ele>431.5</ele>
        <time>2026-05-28T08:25:37Z</time>
      </trkpt>
      <trkpt lat="43.10892" lon="1.99163">
        <ele>431.5</ele>
        <time>2026-05-28T08:25:42Z</time>
      </trkpt>
      <trkpt lat="43.10892" lon="1.99163">
        <ele>431.5</ele>
        <time>2026-05-28T08:25:47Z</time>
      </trkpt>
      <trkpt lat="43.10892" lon="1.99163">
        <ele>431.5</ele>
        <time>2026-05-28T08:25:52Z</time>
      </trkpt>
      <trkpt lat="43.10892" lon="1.99163">
        <ele>431.5</ele>
        <time>2026-05-28T08:25:57Z</time>
      </trkpt>
      <trkpt lat="43.10892" lon="1.99163">
        <ele>431.5</ele>
        <time>2026-05-28T08:26:02Z</time>
      </trkpt>
      <trkpt lat="43.10892" lon="1.99163">
        <ele>431.5</ele>
        <time>2026-05-28T08:26:07Z</time>
      </trkpt>
      <trkpt lat="43.10892" lon="1.99163">
        <ele>431.5</ele>
        <time>2026-05-28T08:26:12Z</time>
      </trkpt>
      <trkpt lat="43.10892" lon="1.99163">
        <ele>431.5</ele>
        <time>2026-05-28T08:26:17Z</time>
      </trkpt>
      <trkpt lat="43.10892" lon="1.99163">
        <ele>431.5</ele>
        <time>2026-05-28T08:26:22Z</time>
      </trkpt>
      <trkpt lat="43.10892" lon="1.99163">
        <ele>431.5</ele>
        <time>2026-05-28T08:26:27Z</time>
      </trkpt>
      <trkpt lat="43.10892" lon="1.99163">
        <ele>431.5</ele>
        <time>2026-05-28T08:26:32Z</time>
      </trkpt>
      <trkpt lat="43.10892" lon="1.99163">
        <ele>431.5</ele>
        <time>2026-05-28T08:26:37Z</time>
      </trkpt>
      <trkpt lat="43.10892" lon="1.99163">
        <ele>431.5</ele>
        <time>2026-05-28T08:26:42Z</time>
      </trkpt>
      <trkpt lat="43.10892" lon="1.99163">
        <ele>431.5</ele>
        <time>2026-05-28T08:26:47Z</time>
      </trkpt>
      <trkpt lat="43.10892" lon="1.99163">
        <ele>431.5</ele>
        <time>2026-05-28T08:26:52Z</time>
      </trkpt>
      <trkpt lat="43.10892" lon="1.99163">
        <ele>431.5</ele>
        <time>2026-05-28T08:26:57Z</time>
      </trkpt>
      <trkpt lat="43.10892" lon="1.99163">
        <ele>431.5</ele>
        <time>2026-05-28T08:27:02Z</time>
      </trkpt>
      <trkpt lat="43.10892" lon="1.99163">
        <ele>431.5</ele>
        <time>2026-05-28T08:27:07Z</time>
      </trkpt>
      <trkpt lat="43.10892" lon="1.99163">
        <ele>431.5</ele>
        <time>2026-05-28T08:27:12Z</time>
      </trkpt>
      <trkpt lat="43.10892" lon="1.99163">
        <ele>431.5</ele>
        <time>2026-05-28T08:27:17Z</time>
      </trkpt>
      <trkpt lat="43.10892" lon="1.99163">
        <ele>431.5</ele>
        <time>2026-05-28T08:27:22Z</time>
      </trkpt>
      <trkpt lat="43.10892" lon="1.99163">
        <ele>431.5</ele>
        <time>2026-05-28T08:27:27Z</time>
      </trkpt>
      <trkpt lat="43.10892" lon="1.99163">
        <ele>431.5</ele>
        <time>2026-05-28T08:27:32Z</time>
      </trkpt>
      <trkpt lat="43.10892" lon="1.99163">
        <ele>431.5</ele>
        <time>2026-05-28T08:27:37Z</time>
      </trkpt>
      <trkpt lat="43.10892" lon="1.99163">
        <ele>431.5</ele>
        <time>2026-05-28T08:27:42Z</time>
      </trkpt>
      <trkpt lat="43.10892" lon="1.99163">
        <ele>431.5</ele>
        <time>2026-05-28T08:27:47Z</time>
      </trkpt>
      <trkpt lat="43.10892" lon="1.99163">
        <ele>431.5</ele>
        <time>2026-05-28T08:27:52Z</time>
      </trkpt>
      <trkpt lat="43.10892" lon="1.99163">
        <ele>431.5</ele>
        <time>2026-05-28T08:27:57Z</time>
      </trkpt>
      <trkpt lat="43.10892" lon="1.99163">
        <ele>431.5</ele>
        <time>2026-05-28T08:28:02Z</time>
      </trkpt>
      <trkpt lat="43.10892" lon="1.99163">
        <ele>431.5</ele>
        <time>2026-05-28T08:28:07Z</time>
      </trkpt>
      <trkpt lat="43.10892" lon="1.99163">
        <ele>431.5</ele>
        <time>2026-05-28T08:28:12Z</time>
      </trkpt>
      <trkpt lat="43.10892" lon="1.99163">
        <ele>431.5</ele>
        <time>2026-05-28T08:28:17Z</time>
      </trkpt>
      <trkpt lat="43.10892" lon="1.99163">
        <ele>431.5</ele>
        <time>2026-05-28T08:28:22Z</time>
      </trkpt>
      <trkpt lat="43.10892" lon="1.99163">
        <ele>431.5</ele>
        <time>2026-05-28T08:28:27Z</time>
      </trkpt>
      <trkpt lat="43.10892" lon="1.99163">
        <ele>431.5</ele>
        <time>2026-05-28T08:28:32Z</time>
      </trkpt>
      <trkpt lat="43.10892" lon="1.99163">
        <ele>431.5</ele>
        <time>2026-05-28T08:28:37Z</time>
      </trkpt>
      <trkpt lat="43.10892" lon="1.99163">
        <ele>431.5</ele>
        <time>2026-05-28T08:28:42Z</time>
      </trkpt>
      <trkpt lat="43.10892" lon="1.99163">
        <ele>431.5</ele>
        <time>2026-05-28T08:28:47Z</time>
      </trkpt>
      <trkpt lat="43.10892" lon="1.99163">
        <ele>431.5</ele>
        <time>2026-05-28T08:28:52Z</time>
      </trkpt>
      <trkpt lat="43.10892" lon="1.99163">
        <ele>431.5</ele>
        <time>2026-05-28T08:28:57Z</time>
      </trkpt>
      <trkpt lat="43.10892" lon="1.99163">
        <ele>431.5</ele>
        <time>2026-05-28T08:29:02Z</time>
      </trkpt>
      <trkpt lat="43.10892" lon="1.99163">
        <ele>431.5</ele>
        <time>2026-05-28T08:29:07Z</time>
      </trkpt>
      <trkpt lat="43.10892" lon="1.99163">
        <ele>431.5</ele>
        <time>2026-05-28T08:29:12Z</time>
      </trkpt>
      <trkpt lat="43.10892" lon="1.99163">
        <ele>431.5</ele>
        <time>2026-05-28T08:29:17Z</time>
      </trkpt>
      <trkpt lat="43.10892" lon="1.99163">
        <ele>431.5</ele>
        <time>2026-05-28T08:29:22Z</time>
      </trkpt>
      <trkpt lat="43.10892" lon="1.99163">
        <ele>431.5</ele>
        <time>2026-05-28T08:29:27Z</time>
      </trkpt>
      <trkpt lat="43.10892" lon="1.99159">
        <ele>431.4</ele>
        <time>2026-05-28T08:29:32Z</time>
      </trkpt>
      <trkpt lat="43.10893" lon="1.99155">
        <ele>431.3</ele>
        <time>2026-05-28T08:29:37Z</time>
      </trkpt>
      <trkpt lat="43.10893" lon="1.99155">
        <ele>431.3</ele>
        <time>2026-05-28T08:29:42Z</time>
      </trkpt>
      <trkpt lat="43.10893" lon="1.99151">
        <ele>431.2</ele>
        <time>2026-05-28T08:29:47Z</time>
      </trkpt>
      <trkpt lat="43.10894" lon="1.99144">
        <ele>431</ele>
        <time>2026-05-28T08:29:52Z</time>
      </trkpt>
      <trkpt lat="43.10894" lon="1.99137">
        <ele>430.8</ele>
        <time>2026-05-28T08:29:57Z</time>
      </trkpt>
      <trkpt lat="43.10895" lon="1.9913">
        <ele>430.6</ele>
        <time>2026-05-28T08:30:02Z</time>
      </trkpt>
      <trkpt lat="43.10895" lon="1.99124">
        <ele>430.4</ele>
        <time>2026-05-28T08:30:07Z</time>
      </trkpt>
      <trkpt lat="43.10895" lon="1.99124">
        <ele>430.4</ele>
        <time>2026-05-28T08:30:12Z</time>
      </trkpt>
      <trkpt lat="43.10896" lon="1.99122">
        <ele>430.4</ele>
        <time>2026-05-28T08:30:17Z</time>
      </trkpt>
      <trkpt lat="43.10896" lon="1.99117">
        <ele>430.2</ele>
        <time>2026-05-28T08:30:22Z</time>
      </trkpt>
      <trkpt lat="43.10896" lon="1.99111">
        <ele>430</ele>
        <time>2026-05-28T08:30:27Z</time>
      </trkpt>
      <trkpt lat="43.10896" lon="1.99105">
        <ele>429.8</ele>
        <time>2026-05-28T08:30:32Z</time>
      </trkpt>
      <trkpt lat="43.10897" lon="1.99097">
        <ele>429.6</ele>
        <time>2026-05-28T08:30:37Z</time>
      </trkpt>
      <trkpt lat="43.10897" lon="1.9909">
        <ele>429.4</ele>
        <time>2026-05-28T08:30:42Z</time>
      </trkpt>
      <trkpt lat="43.10899" lon="1.99084">
        <ele>429.3</ele>
        <time>2026-05-28T08:30:47Z</time>
      </trkpt>
      <trkpt lat="43.10901" lon="1.99077">
        <ele>428.9</ele>
        <time>2026-05-28T08:30:52Z</time>
      </trkpt>
      <trkpt lat="43.10903" lon="1.99069">
        <ele>428.4</ele>
        <time>2026-05-28T08:30:57Z</time>
      </trkpt>
      <trkpt lat="43.10906" lon="1.99063">
        <ele>428.1</ele>
        <time>2026-05-28T08:31:02Z</time>
      </trkpt>
      <trkpt lat="43.10908" lon="1.99056">
        <ele>427.6</ele>
        <time>2026-05-28T08:31:07Z</time>
      </trkpt>
      <trkpt lat="43.10911" lon="1.9905">
        <ele>427.3</ele>
        <time>2026-05-28T08:31:12Z</time>
      </trkpt>
      <trkpt lat="43.10917" lon="1.99044">
        <ele>427.3</ele>
        <time>2026-05-28T08:31:17Z</time>
      </trkpt>
      <trkpt lat="43.10921" lon="1.9904">
        <ele>427.3</ele>
        <time>2026-05-28T08:31:22Z</time>
      </trkpt>
      <trkpt lat="43.10924" lon="1.99035">
        <ele>427.1</ele>
        <time>2026-05-28T08:31:27Z</time>
      </trkpt>
      <trkpt lat="43.10929" lon="1.99033">
        <ele>427.4</ele>
        <time>2026-05-28T08:31:32Z</time>
      </trkpt>
      <trkpt lat="43.10933" lon="1.99031">
        <ele>427.6</ele>
        <time>2026-05-28T08:31:37Z</time>
      </trkpt>
      <trkpt lat="43.10938" lon="1.99031">
        <ele>428.1</ele>
        <time>2026-05-28T08:31:42Z</time>
      </trkpt>
      <trkpt lat="43.10943" lon="1.9903">
        <ele>428.5</ele>
        <time>2026-05-28T08:31:47Z</time>
      </trkpt>
      <trkpt lat="43.10949" lon="1.99027">
        <ele>428.8</ele>
        <time>2026-05-28T08:31:52Z</time>
      </trkpt>
      <trkpt lat="43.10952" lon="1.99023">
        <ele>428.7</ele>
        <time>2026-05-28T08:31:57Z</time>
      </trkpt>
      <trkpt lat="43.10956" lon="1.99018">
        <ele>428.6</ele>
        <time>2026-05-28T08:32:02Z</time>
      </trkpt>
      <trkpt lat="43.10959" lon="1.9901">
        <ele>428.1</ele>
        <time>2026-05-28T08:32:07Z</time>
      </trkpt>
      <trkpt lat="43.10962" lon="1.99003">
        <ele>427.7</ele>
        <time>2026-05-28T08:32:12Z</time>
      </trkpt>
      <trkpt lat="43.10964" lon="1.98995">
        <ele>427.2</ele>
        <time>2026-05-28T08:32:17Z</time>
      </trkpt>
      <trkpt lat="43.10966" lon="1.98988">
        <ele>427</ele>
        <time>2026-05-28T08:32:22Z</time>
      </trkpt>
      <trkpt lat="43.10968" lon="1.98981">
        <ele>426.7</ele>
        <time>2026-05-28T08:32:27Z</time>
      </trkpt>
      <trkpt lat="43.10969" lon="1.98973">
        <ele>426.3</ele>
        <time>2026-05-28T08:32:32Z</time>
      </trkpt>
      <trkpt lat="43.1097" lon="1.98965">
        <ele>425.9</ele>
        <time>2026-05-28T08:32:37Z</time>
      </trkpt>
      <trkpt lat="43.10973" lon="1.98956">
        <ele>425.6</ele>
        <time>2026-05-28T08:32:42Z</time>
      </trkpt>
      <trkpt lat="43.10974" lon="1.98948">
        <ele>425.1</ele>
        <time>2026-05-28T08:32:47Z</time>
      </trkpt>
      <trkpt lat="43.10976" lon="1.9894">
        <ele>424.8</ele>
        <time>2026-05-28T08:32:52Z</time>
      </trkpt>
      <trkpt lat="43.10978" lon="1.98933">
        <ele>424.5</ele>
        <time>2026-05-28T08:32:57Z</time>
      </trkpt>
      <trkpt lat="43.1098" lon="1.98924">
        <ele>424</ele>
        <time>2026-05-28T08:33:02Z</time>
      </trkpt>
      <trkpt lat="43.1098" lon="1.98916">
        <ele>423.5</ele>
        <time>2026-05-28T08:33:07Z</time>
      </trkpt>
      <trkpt lat="43.1098" lon="1.98908">
        <ele>423.2</ele>
        <time>2026-05-28T08:33:12Z</time>
      </trkpt>
      <trkpt lat="43.10981" lon="1.98901">
        <ele>423</ele>
        <time>2026-05-28T08:33:17Z</time>
      </trkpt>
      <trkpt lat="43.10982" lon="1.98892">
        <ele>422.7</ele>
        <time>2026-05-28T08:33:22Z</time>
      </trkpt>
      <trkpt lat="43.10982" lon="1.98885">
        <ele>422.4</ele>
        <time>2026-05-28T08:33:27Z</time>
      </trkpt>
      <trkpt lat="43.1098" lon="1.98877">
        <ele>422</ele>
        <time>2026-05-28T08:33:32Z</time>
      </trkpt>
      <trkpt lat="43.10981" lon="1.98868">
        <ele>421.7</ele>
        <time>2026-05-28T08:33:37Z</time>
      </trkpt>
      <trkpt lat="43.10981" lon="1.9886">
        <ele>421.4</ele>
        <time>2026-05-28T08:33:42Z</time>
      </trkpt>
      <trkpt lat="43.10981" lon="1.98853">
        <ele>421.1</ele>
        <time>2026-05-28T08:33:47Z</time>
      </trkpt>
      <trkpt lat="43.10982" lon="1.98845">
        <ele>420.8</ele>
        <time>2026-05-28T08:33:52Z</time>
      </trkpt>
      <trkpt lat="43.10982" lon="1.98836">
        <ele>420.5</ele>
        <time>2026-05-28T08:33:57Z</time>
      </trkpt>
      <trkpt lat="43.10982" lon="1.98828">
        <ele>420.2</ele>
        <time>2026-05-28T08:34:02Z</time>
      </trkpt>
      <trkpt lat="43.10982" lon="1.9882">
        <ele>419.9</ele>
        <time>2026-05-28T08:34:07Z</time>
      </trkpt>
      <trkpt lat="43.10982" lon="1.98812">
        <ele>419.6</ele>
        <time>2026-05-28T08:34:12Z</time>
      </trkpt>
      <trkpt lat="43.10982" lon="1.98804">
        <ele>419.3</ele>
        <time>2026-05-28T08:34:17Z</time>
      </trkpt>
      <trkpt lat="43.10982" lon="1.98798">
        <ele>419.1</ele>
        <time>2026-05-28T08:34:22Z</time>
      </trkpt>
      <trkpt lat="43.10982" lon="1.9879">
        <ele>418.8</ele>
        <time>2026-05-28T08:34:27Z</time>
      </trkpt>
      <trkpt lat="43.10983" lon="1.98781">
        <ele>418.5</ele>
        <time>2026-05-28T08:34:32Z</time>
      </trkpt>
      <trkpt lat="43.10983" lon="1.98773">
        <ele>418.2</ele>
        <time>2026-05-28T08:34:37Z</time>
      </trkpt>
      <trkpt lat="43.10985" lon="1.98767">
        <ele>418.1</ele>
        <time>2026-05-28T08:34:42Z</time>
      </trkpt>
      <trkpt lat="43.10986" lon="1.98759">
        <ele>417.8</ele>
        <time>2026-05-28T08:34:47Z</time>
      </trkpt>
      <trkpt lat="43.10987" lon="1.98752">
        <ele>417.6</ele>
        <time>2026-05-28T08:34:52Z</time>
      </trkpt>
      <trkpt lat="43.10987" lon="1.98742">
        <ele>417.3</ele>
        <time>2026-05-28T08:34:57Z</time>
      </trkpt>
      <trkpt lat="43.10987" lon="1.98733">
        <ele>416.9</ele>
        <time>2026-05-28T08:35:02Z</time>
      </trkpt>
      <trkpt lat="43.10988" lon="1.98726">
        <ele>416.7</ele>
        <time>2026-05-28T08:35:07Z</time>
      </trkpt>
      <trkpt lat="43.10989" lon="1.9872">
        <ele>416.6</ele>
        <time>2026-05-28T08:35:12Z</time>
      </trkpt>
      <trkpt lat="43.10989" lon="1.98714">
        <ele>416.4</ele>
        <time>2026-05-28T08:35:17Z</time>
      </trkpt>
      <trkpt lat="43.10989" lon="1.98707">
        <ele>416.2</ele>
        <time>2026-05-28T08:35:22Z</time>
      </trkpt>
      <trkpt lat="43.1099" lon="1.98697">
        <ele>415.9</ele>
        <time>2026-05-28T08:35:27Z</time>
      </trkpt>
      <trkpt lat="43.10991" lon="1.98688">
        <ele>415.7</ele>
        <time>2026-05-28T08:35:32Z</time>
      </trkpt>
      <trkpt lat="43.10992" lon="1.9868">
        <ele>415.5</ele>
        <time>2026-05-28T08:35:37Z</time>
      </trkpt>
      <trkpt lat="43.10993" lon="1.98671">
        <ele>415.4</ele>
        <time>2026-05-28T08:35:42Z</time>
      </trkpt>
      <trkpt lat="43.10994" lon="1.9866">
        <ele>415.1</ele>
        <time>2026-05-28T08:35:47Z</time>
      </trkpt>
      <trkpt lat="43.10995" lon="1.98653">
        <ele>415</ele>
        <time>2026-05-28T08:35:52Z</time>
      </trkpt>
      <trkpt lat="43.10996" lon="1.98647">
        <ele>414.9</ele>
        <time>2026-05-28T08:35:57Z</time>
      </trkpt>
      <trkpt lat="43.10996" lon="1.9864">
        <ele>414.6</ele>
        <time>2026-05-28T08:36:02Z</time>
      </trkpt>
      <trkpt lat="43.10997" lon="1.98634">
        <ele>414.5</ele>
        <time>2026-05-28T08:36:07Z</time>
      </trkpt>
      <trkpt lat="43.10999" lon="1.98626">
        <ele>414.4</ele>
        <time>2026-05-28T08:36:12Z</time>
      </trkpt>
      <trkpt lat="43.11002" lon="1.98618">
        <ele>414.7</ele>
        <time>2026-05-28T08:36:17Z</time>
      </trkpt>
      <trkpt lat="43.11004" lon="1.98609">
        <ele>414.8</ele>
        <time>2026-05-28T08:36:22Z</time>
      </trkpt>
      <trkpt lat="43.11006" lon="1.98602">
        <ele>414.9</ele>
        <time>2026-05-28T08:36:27Z</time>
      </trkpt>
      <trkpt lat="43.11009" lon="1.98595">
        <ele>415.3</ele>
        <time>2026-05-28T08:36:32Z</time>
      </trkpt>
      <trkpt lat="43.11012" lon="1.98589">
        <ele>415.7</ele>
        <time>2026-05-28T08:36:37Z</time>
      </trkpt>
      <trkpt lat="43.11014" lon="1.98583">
        <ele>415.8</ele>
        <time>2026-05-28T08:36:42Z</time>
      </trkpt>
      <trkpt lat="43.11016" lon="1.98576">
        <ele>416</ele>
        <time>2026-05-28T08:36:47Z</time>
      </trkpt>
      <trkpt lat="43.11019" lon="1.98569">
        <ele>416.4</ele>
        <time>2026-05-28T08:36:52Z</time>
      </trkpt>
      <trkpt lat="43.11021" lon="1.98561">
        <ele>416.5</ele>
        <time>2026-05-28T08:36:57Z</time>
      </trkpt>
      <trkpt lat="43.11022" lon="1.98552">
        <ele>416.3</ele>
        <time>2026-05-28T08:37:02Z</time>
      </trkpt>
      <trkpt lat="43.11024" lon="1.98544">
        <ele>416.4</ele>
        <time>2026-05-28T08:37:07Z</time>
      </trkpt>
      <trkpt lat="43.11026" lon="1.98535">
        <ele>416.4</ele>
        <time>2026-05-28T08:37:12Z</time>
      </trkpt>
      <trkpt lat="43.11027" lon="1.98526">
        <ele>416.2</ele>
        <time>2026-05-28T08:37:17Z</time>
      </trkpt>
      <trkpt lat="43.11028" lon="1.98517">
        <ele>416.1</ele>
        <time>2026-05-28T08:37:22Z</time>
      </trkpt>
      <trkpt lat="43.11028" lon="1.98506">
        <ele>415.6</ele>
        <time>2026-05-28T08:37:27Z</time>
      </trkpt>
      <trkpt lat="43.11028" lon="1.98497">
        <ele>415.4</ele>
        <time>2026-05-28T08:37:32Z</time>
      </trkpt>
      <trkpt lat="43.11029" lon="1.98487">
        <ele>415.7</ele>
        <time>2026-05-28T08:37:37Z</time>
      </trkpt>
      <trkpt lat="43.11029" lon="1.98478">
        <ele>415.9</ele>
        <time>2026-05-28T08:37:42Z</time>
      </trkpt>
      <trkpt lat="43.1103" lon="1.98468">
        <ele>416.2</ele>
        <time>2026-05-28T08:37:47Z</time>
      </trkpt>
      <trkpt lat="43.11029" lon="1.9846">
        <ele>416.2</ele>
        <time>2026-05-28T08:37:52Z</time>
      </trkpt>
      <trkpt lat="43.11029" lon="1.98452">
        <ele>416.3</ele>
        <time>2026-05-28T08:37:57Z</time>
      </trkpt>
      <trkpt lat="43.11028" lon="1.98445">
        <ele>416.2</ele>
        <time>2026-05-28T08:38:02Z</time>
      </trkpt>
      <trkpt lat="43.11028" lon="1.9844">
        <ele>416.3</ele>
        <time>2026-05-28T08:38:07Z</time>
      </trkpt>
      <trkpt lat="43.11027" lon="1.98435">
        <ele>416.2</ele>
        <time>2026-05-28T08:38:12Z</time>
      </trkpt>
      <trkpt lat="43.11027" lon="1.98428">
        <ele>416.4</ele>
        <time>2026-05-28T08:38:17Z</time>
      </trkpt>
      <trkpt lat="43.11026" lon="1.98421">
        <ele>416.3</ele>
        <time>2026-05-28T08:38:22Z</time>
      </trkpt>
      <trkpt lat="43.11025" lon="1.98414">
        <ele>416.5</ele>
        <time>2026-05-28T08:38:27Z</time>
      </trkpt>
      <trkpt lat="43.11024" lon="1.98405">
        <ele>417.2</ele>
        <time>2026-05-28T08:38:32Z</time>
      </trkpt>
      <trkpt lat="43.11024" lon="1.98397">
        <ele>418.1</ele>
        <time>2026-05-28T08:38:37Z</time>
      </trkpt>
      <trkpt lat="43.11023" lon="1.98388">
        <ele>418.9</ele>
        <time>2026-05-28T08:38:42Z</time>
      </trkpt>
      <trkpt lat="43.11023" lon="1.9838">
        <ele>419.7</ele>
        <time>2026-05-28T08:38:47Z</time>
      </trkpt>
      <trkpt lat="43.11024" lon="1.98372">
        <ele>420.7</ele>
        <time>2026-05-28T08:38:52Z</time>
      </trkpt>
      <trkpt lat="43.11024" lon="1.98364">
        <ele>421.5</ele>
        <time>2026-05-28T08:38:57Z</time>
      </trkpt>
      <trkpt lat="43.11025" lon="1.98356">
        <ele>422.5</ele>
        <time>2026-05-28T08:39:02Z</time>
      </trkpt>
      <trkpt lat="43.11026" lon="1.98348">
        <ele>423.4</ele>
        <time>2026-05-28T08:39:07Z</time>
      </trkpt>
      <trkpt lat="43.11028" lon="1.98339">
        <ele>424.5</ele>
        <time>2026-05-28T08:39:12Z</time>
      </trkpt>
      <trkpt lat="43.11028" lon="1.98331">
        <ele>425.3</ele>
        <time>2026-05-28T08:39:17Z</time>
      </trkpt>
      <trkpt lat="43.11028" lon="1.98324">
        <ele>426.3</ele>
        <time>2026-05-28T08:39:22Z</time>
      </trkpt>
      <trkpt lat="43.11027" lon="1.98316">
        <ele>427.4</ele>
        <time>2026-05-28T08:39:27Z</time>
      </trkpt>
      <trkpt lat="43.11027" lon="1.9831">
        <ele>428.2</ele>
        <time>2026-05-28T08:39:32Z</time>
      </trkpt>
      <trkpt lat="43.11026" lon="1.98303">
        <ele>429.2</ele>
        <time>2026-05-28T08:39:37Z</time>
      </trkpt>
      <trkpt lat="43.11024" lon="1.98296">
        <ele>430.1</ele>
        <time>2026-05-28T08:39:42Z</time>
      </trkpt>
      <trkpt lat="43.11022" lon="1.9829">
        <ele>430.9</ele>
        <time>2026-05-28T08:39:47Z</time>
      </trkpt>
      <trkpt lat="43.11019" lon="1.98285">
        <ele>431.6</ele>
        <time>2026-05-28T08:39:52Z</time>
      </trkpt>
      <trkpt lat="43.11017" lon="1.9828">
        <ele>432.3</ele>
        <time>2026-05-28T08:39:57Z</time>
      </trkpt>
      <trkpt lat="43.11014" lon="1.98276">
        <ele>432.8</ele>
        <time>2026-05-28T08:40:02Z</time>
      </trkpt>
      <trkpt lat="43.11011" lon="1.9827">
        <ele>433.7</ele>
        <time>2026-05-28T08:40:07Z</time>
      </trkpt>
      <trkpt lat="43.11009" lon="1.98261">
        <ele>435.1</ele>
        <time>2026-05-28T08:40:12Z</time>
      </trkpt>
      <trkpt lat="43.11007" lon="1.98255">
        <ele>436.1</ele>
        <time>2026-05-28T08:40:17Z</time>
      </trkpt>
      <trkpt lat="43.11005" lon="1.98248">
        <ele>437</ele>
        <time>2026-05-28T08:40:22Z</time>
      </trkpt>
      <trkpt lat="43.11004" lon="1.98242">
        <ele>437</ele>
        <time>2026-05-28T08:40:27Z</time>
      </trkpt>
      <trkpt lat="43.11002" lon="1.98236">
        <ele>437.1</ele>
        <time>2026-05-28T08:40:32Z</time>
      </trkpt>
      <trkpt lat="43.11003" lon="1.9823">
        <ele>437.2</ele>
        <time>2026-05-28T08:40:37Z</time>
      </trkpt>
      <trkpt lat="43.11004" lon="1.98224">
        <ele>437.3</ele>
        <time>2026-05-28T08:40:42Z</time>
      </trkpt>
      <trkpt lat="43.11005" lon="1.98219">
        <ele>437.3</ele>
        <time>2026-05-28T08:40:47Z</time>
      </trkpt>
      <trkpt lat="43.11003" lon="1.98216">
        <ele>437.4</ele>
        <time>2026-05-28T08:40:52Z</time>
      </trkpt>
      <trkpt lat="43.10998" lon="1.98211">
        <ele>437.5</ele>
        <time>2026-05-28T08:40:57Z</time>
      </trkpt>
      <trkpt lat="43.10993" lon="1.98206">
        <ele>437.7</ele>
        <time>2026-05-28T08:41:02Z</time>
      </trkpt>
      <trkpt lat="43.10989" lon="1.98201">
        <ele>437.8</ele>
        <time>2026-05-28T08:41:07Z</time>
      </trkpt>
      <trkpt lat="43.10985" lon="1.98196">
        <ele>437.9</ele>
        <time>2026-05-28T08:41:12Z</time>
      </trkpt>
      <trkpt lat="43.1098" lon="1.9819">
        <ele>438</ele>
        <time>2026-05-28T08:41:17Z</time>
      </trkpt>
      <trkpt lat="43.10976" lon="1.98184">
        <ele>438.1</ele>
        <time>2026-05-28T08:41:22Z</time>
      </trkpt>
      <trkpt lat="43.10971" lon="1.98179">
        <ele>438.3</ele>
        <time>2026-05-28T08:41:27Z</time>
      </trkpt>
      <trkpt lat="43.10966" lon="1.98175">
        <ele>438.3</ele>
        <time>2026-05-28T08:41:32Z</time>
      </trkpt>
      <trkpt lat="43.10962" lon="1.98169">
        <ele>438.4</ele>
        <time>2026-05-28T08:41:37Z</time>
      </trkpt>
      <trkpt lat="43.10956" lon="1.98164">
        <ele>438.4</ele>
        <time>2026-05-28T08:41:42Z</time>
      </trkpt>
      <trkpt lat="43.10951" lon="1.9816">
        <ele>438.4</ele>
        <time>2026-05-28T08:41:47Z</time>
      </trkpt>
      <trkpt lat="43.10946" lon="1.98155">
        <ele>438.3</ele>
        <time>2026-05-28T08:41:52Z</time>
      </trkpt>
      <trkpt lat="43.10941" lon="1.9815">
        <ele>438.2</ele>
        <time>2026-05-28T08:41:57Z</time>
      </trkpt>
      <trkpt lat="43.10937" lon="1.98143">
        <ele>438</ele>
        <time>2026-05-28T08:42:02Z</time>
      </trkpt>
      <trkpt lat="43.10931" lon="1.98139">
        <ele>437.9</ele>
        <time>2026-05-28T08:42:07Z</time>
      </trkpt>
      <trkpt lat="43.10926" lon="1.98134">
        <ele>437.8</ele>
        <time>2026-05-28T08:42:12Z</time>
      </trkpt>
      <trkpt lat="43.10921" lon="1.98127">
        <ele>437.5</ele>
        <time>2026-05-28T08:42:17Z</time>
      </trkpt>
      <trkpt lat="43.10917" lon="1.98122">
        <ele>437.4</ele>
        <time>2026-05-28T08:42:22Z</time>
      </trkpt>
      <trkpt lat="43.10911" lon="1.98117">
        <ele>437.4</ele>
        <time>2026-05-28T08:42:27Z</time>
      </trkpt>
      <trkpt lat="43.10907" lon="1.98111">
        <ele>437.3</ele>
        <time>2026-05-28T08:42:32Z</time>
      </trkpt>
      <trkpt lat="43.10902" lon="1.98105">
        <ele>437.2</ele>
        <time>2026-05-28T08:42:37Z</time>
      </trkpt>
      <trkpt lat="43.10897" lon="1.981">
        <ele>437.2</ele>
        <time>2026-05-28T08:42:42Z</time>
      </trkpt>
      <trkpt lat="43.10892" lon="1.98095">
        <ele>437.2</ele>
        <time>2026-05-28T08:42:47Z</time>
      </trkpt>
      <trkpt lat="43.10887" lon="1.9809">
        <ele>437.3</ele>
        <time>2026-05-28T08:42:52Z</time>
      </trkpt>
      <trkpt lat="43.10882" lon="1.98084">
        <ele>437.3</ele>
        <time>2026-05-28T08:42:57Z</time>
      </trkpt>
      <trkpt lat="43.10877" lon="1.9808">
        <ele>437.2</ele>
        <time>2026-05-28T08:43:02Z</time>
      </trkpt>
      <trkpt lat="43.10872" lon="1.98074">
        <ele>437.1</ele>
        <time>2026-05-28T08:43:07Z</time>
      </trkpt>
      <trkpt lat="43.10867" lon="1.98067">
        <ele>436.9</ele>
        <time>2026-05-28T08:43:12Z</time>
      </trkpt>
      <trkpt lat="43.10863" lon="1.98063">
        <ele>436.8</ele>
        <time>2026-05-28T08:43:17Z</time>
      </trkpt>
      <trkpt lat="43.10859" lon="1.98056">
        <ele>436.5</ele>
        <time>2026-05-28T08:43:22Z</time>
      </trkpt>
      <trkpt lat="43.10856" lon="1.98048">
        <ele>436.2</ele>
        <time>2026-05-28T08:43:27Z</time>
      </trkpt>
      <trkpt lat="43.10852" lon="1.9804">
        <ele>435.8</ele>
        <time>2026-05-28T08:43:32Z</time>
      </trkpt>
      <trkpt lat="43.10849" lon="1.98031">
        <ele>435.4</ele>
        <time>2026-05-28T08:43:37Z</time>
      </trkpt>
      <trkpt lat="43.10847" lon="1.98024">
        <ele>435.1</ele>
        <time>2026-05-28T08:43:42Z</time>
      </trkpt>
      <trkpt lat="43.10845" lon="1.98015">
        <ele>434.6</ele>
        <time>2026-05-28T08:43:47Z</time>
      </trkpt>
      <trkpt lat="43.10843" lon="1.98008">
        <ele>434.2</ele>
        <time>2026-05-28T08:43:52Z</time>
      </trkpt>
      <trkpt lat="43.10842" lon="1.97998">
        <ele>433.7</ele>
        <time>2026-05-28T08:43:57Z</time>
      </trkpt>
      <trkpt lat="43.1084" lon="1.9799">
        <ele>433.1</ele>
        <time>2026-05-28T08:44:02Z</time>
      </trkpt>
      <trkpt lat="43.10839" lon="1.9798">
        <ele>432.5</ele>
        <time>2026-05-28T08:44:07Z</time>
      </trkpt>
      <trkpt lat="43.10839" lon="1.97971">
        <ele>431.8</ele>
        <time>2026-05-28T08:44:12Z</time>
      </trkpt>
      <trkpt lat="43.10838" lon="1.97962">
        <ele>431.2</ele>
        <time>2026-05-28T08:44:17Z</time>
      </trkpt>
      <trkpt lat="43.10835" lon="1.97955">
        <ele>430.7</ele>
        <time>2026-05-28T08:44:22Z</time>
      </trkpt>
      <trkpt lat="43.10832" lon="1.97946">
        <ele>430.1</ele>
        <time>2026-05-28T08:44:27Z</time>
      </trkpt>
      <trkpt lat="43.10829" lon="1.97939">
        <ele>429.6</ele>
        <time>2026-05-28T08:44:32Z</time>
      </trkpt>
      <trkpt lat="43.10825" lon="1.97934">
        <ele>429.2</ele>
        <time>2026-05-28T08:44:37Z</time>
      </trkpt>
      <trkpt lat="43.1082" lon="1.97929">
        <ele>428.7</ele>
        <time>2026-05-28T08:44:42Z</time>
      </trkpt>
      <trkpt lat="43.10815" lon="1.97926">
        <ele>428.4</ele>
        <time>2026-05-28T08:44:47Z</time>
      </trkpt>
      <trkpt lat="43.10811" lon="1.97922">
        <ele>427.9</ele>
        <time>2026-05-28T08:44:52Z</time>
      </trkpt>
      <trkpt lat="43.10806" lon="1.97917">
        <ele>427.4</ele>
        <time>2026-05-28T08:44:57Z</time>
      </trkpt>
      <trkpt lat="43.10801" lon="1.97912">
        <ele>426.7</ele>
        <time>2026-05-28T08:45:02Z</time>
      </trkpt>
      <trkpt lat="43.10796" lon="1.97907">
        <ele>426</ele>
        <time>2026-05-28T08:45:07Z</time>
      </trkpt>
      <trkpt lat="43.10792" lon="1.97902">
        <ele>425.3</ele>
        <time>2026-05-28T08:45:12Z</time>
      </trkpt>
      <trkpt lat="43.10787" lon="1.97896">
        <ele>424.3</ele>
        <time>2026-05-28T08:45:17Z</time>
      </trkpt>
      <trkpt lat="43.10783" lon="1.97891">
        <ele>423.5</ele>
        <time>2026-05-28T08:45:22Z</time>
      </trkpt>
      <trkpt lat="43.10779" lon="1.97883">
        <ele>422.2</ele>
        <time>2026-05-28T08:45:27Z</time>
      </trkpt>
      <trkpt lat="43.10773" lon="1.97874">
        <ele>420.5</ele>
        <time>2026-05-28T08:45:32Z</time>
      </trkpt>
      <trkpt lat="43.1077" lon="1.97867">
        <ele>419.3</ele>
        <time>2026-05-28T08:45:37Z</time>
      </trkpt>
      <trkpt lat="43.10769" lon="1.97859">
        <ele>418</ele>
        <time>2026-05-28T08:45:42Z</time>
      </trkpt>
      <trkpt lat="43.10767" lon="1.9785">
        <ele>416.5</ele>
        <time>2026-05-28T08:45:47Z</time>
      </trkpt>
      <trkpt lat="43.10766" lon="1.97841">
        <ele>415.1</ele>
        <time>2026-05-28T08:45:52Z</time>
      </trkpt>
      <trkpt lat="43.10765" lon="1.97832">
        <ele>413.7</ele>
        <time>2026-05-28T08:45:57Z</time>
      </trkpt>
      <trkpt lat="43.10765" lon="1.97821">
        <ele>412.9</ele>
        <time>2026-05-28T08:46:02Z</time>
      </trkpt>
      <trkpt lat="43.10764" lon="1.97813">
        <ele>412.1</ele>
        <time>2026-05-28T08:46:07Z</time>
      </trkpt>
      <trkpt lat="43.10763" lon="1.97804">
        <ele>411.3</ele>
        <time>2026-05-28T08:46:12Z</time>
      </trkpt>
      <trkpt lat="43.10762" lon="1.97794">
        <ele>410.4</ele>
        <time>2026-05-28T08:46:17Z</time>
      </trkpt>
      <trkpt lat="43.10762" lon="1.97786">
        <ele>409.8</ele>
        <time>2026-05-28T08:46:22Z</time>
      </trkpt>
      <trkpt lat="43.10761" lon="1.97779">
        <ele>409.1</ele>
        <time>2026-05-28T08:46:27Z</time>
      </trkpt>
      <trkpt lat="43.1076" lon="1.9777">
        <ele>408.2</ele>
        <time>2026-05-28T08:46:32Z</time>
      </trkpt>
      <trkpt lat="43.10758" lon="1.97767">
        <ele>407.7</ele>
        <time>2026-05-28T08:46:37Z</time>
      </trkpt>
      <trkpt lat="43.10757" lon="1.97767">
        <ele>407.5</ele>
        <time>2026-05-28T08:46:42Z</time>
      </trkpt>
      <trkpt lat="43.10757" lon="1.97765">
        <ele>407.4</ele>
        <time>2026-05-28T08:46:47Z</time>
      </trkpt>
      <trkpt lat="43.10757" lon="1.97757">
        <ele>406.7</ele>
        <time>2026-05-28T08:46:52Z</time>
      </trkpt>
      <trkpt lat="43.10755" lon="1.9775">
        <ele>405.8</ele>
        <time>2026-05-28T08:46:57Z</time>
      </trkpt>
      <trkpt lat="43.10754" lon="1.97741">
        <ele>405.9</ele>
        <time>2026-05-28T08:47:02Z</time>
      </trkpt>
      <trkpt lat="43.10752" lon="1.97733">
        <ele>405.7</ele>
        <time>2026-05-28T08:47:07Z</time>
      </trkpt>
      <trkpt lat="43.1075" lon="1.97724">
        <ele>405.6</ele>
        <time>2026-05-28T08:47:12Z</time>
      </trkpt>
      <trkpt lat="43.10748" lon="1.97716">
        <ele>405.7</ele>
        <time>2026-05-28T08:47:17Z</time>
      </trkpt>
      <trkpt lat="43.10746" lon="1.97707">
        <ele>405.8</ele>
        <time>2026-05-28T08:47:22Z</time>
      </trkpt>
      <trkpt lat="43.10744" lon="1.977">
        <ele>405.8</ele>
        <time>2026-05-28T08:47:27Z</time>
      </trkpt>
      <trkpt lat="43.10743" lon="1.97692">
        <ele>406</ele>
        <time>2026-05-28T08:47:32Z</time>
      </trkpt>
      <trkpt lat="43.10742" lon="1.97683">
        <ele>406.2</ele>
        <time>2026-05-28T08:47:37Z</time>
      </trkpt>
      <trkpt lat="43.10741" lon="1.97674">
        <ele>406.4</ele>
        <time>2026-05-28T08:47:42Z</time>
      </trkpt>
      <trkpt lat="43.10741" lon="1.97667">
        <ele>406.6</ele>
        <time>2026-05-28T08:47:47Z</time>
      </trkpt>
      <trkpt lat="43.10741" lon="1.97659">
        <ele>407.3</ele>
        <time>2026-05-28T08:47:52Z</time>
      </trkpt>
      <trkpt lat="43.1074" lon="1.97652">
        <ele>407.9</ele>
        <time>2026-05-28T08:47:57Z</time>
      </trkpt>
      <trkpt lat="43.1074" lon="1.97646">
        <ele>408.5</ele>
        <time>2026-05-28T08:48:02Z</time>
      </trkpt>
      <trkpt lat="43.10739" lon="1.97637">
        <ele>409.3</ele>
        <time>2026-05-28T08:48:07Z</time>
      </trkpt>
      <trkpt lat="43.10737" lon="1.9763">
        <ele>409.8</ele>
        <time>2026-05-28T08:48:12Z</time>
      </trkpt>
      <trkpt lat="43.10737" lon="1.97622">
        <ele>410.6</ele>
        <time>2026-05-28T08:48:17Z</time>
      </trkpt>
      <trkpt lat="43.10738" lon="1.97614">
        <ele>411.4</ele>
        <time>2026-05-28T08:48:22Z</time>
      </trkpt>
      <trkpt lat="43.1074" lon="1.97604">
        <ele>412.4</ele>
        <time>2026-05-28T08:48:27Z</time>
      </trkpt>
      <trkpt lat="43.1074" lon="1.97598">
        <ele>413</ele>
        <time>2026-05-28T08:48:32Z</time>
      </trkpt>
      <trkpt lat="43.10738" lon="1.97598">
        <ele>412.9</ele>
        <time>2026-05-28T08:48:37Z</time>
      </trkpt>
      <trkpt lat="43.10738" lon="1.97598">
        <ele>412.9</ele>
        <time>2026-05-28T08:48:42Z</time>
      </trkpt>
      <trkpt lat="43.10738" lon="1.97595">
        <ele>413.2</ele>
        <time>2026-05-28T08:48:47Z</time>
      </trkpt>
      <trkpt lat="43.10738" lon="1.97589">
        <ele>413.7</ele>
        <time>2026-05-28T08:48:52Z</time>
      </trkpt>
      <trkpt lat="43.10741" lon="1.97584">
        <ele>414.4</ele>
        <time>2026-05-28T08:48:57Z</time>
      </trkpt>
      <trkpt lat="43.10746" lon="1.9758">
        <ele>414.7</ele>
        <time>2026-05-28T08:49:02Z</time>
      </trkpt>
      <trkpt lat="43.10748" lon="1.97574">
        <ele>414.9</ele>
        <time>2026-05-28T08:49:07Z</time>
      </trkpt>
      <trkpt lat="43.10748" lon="1.97568">
        <ele>414.8</ele>
        <time>2026-05-28T08:49:12Z</time>
      </trkpt>
      <trkpt lat="43.10747" lon="1.97561">
        <ele>414.7</ele>
        <time>2026-05-28T08:49:17Z</time>
      </trkpt>
      <trkpt lat="43.10747" lon="1.97554">
        <ele>414.7</ele>
        <time>2026-05-28T08:49:22Z</time>
      </trkpt>
      <trkpt lat="43.10748" lon="1.97546">
        <ele>414.8</ele>
        <time>2026-05-28T08:49:27Z</time>
      </trkpt>
      <trkpt lat="43.10748" lon="1.97537">
        <ele>414.8</ele>
        <time>2026-05-28T08:49:32Z</time>
      </trkpt>
      <trkpt lat="43.10747" lon="1.97529">
        <ele>414.6</ele>
        <time>2026-05-28T08:49:37Z</time>
      </trkpt>
      <trkpt lat="43.10747" lon="1.97521">
        <ele>414.6</ele>
        <time>2026-05-28T08:49:42Z</time>
      </trkpt>
      <trkpt lat="43.10747" lon="1.97514">
        <ele>414.6</ele>
        <time>2026-05-28T08:49:47Z</time>
      </trkpt>
      <trkpt lat="43.10747" lon="1.97505">
        <ele>414.5</ele>
        <time>2026-05-28T08:49:52Z</time>
      </trkpt>
      <trkpt lat="43.10746" lon="1.97497">
        <ele>414.1</ele>
        <time>2026-05-28T08:49:57Z</time>
      </trkpt>
      <trkpt lat="43.10748" lon="1.97489">
        <ele>413.9</ele>
        <time>2026-05-28T08:50:02Z</time>
      </trkpt>
      <trkpt lat="43.10748" lon="1.9748">
        <ele>413.2</ele>
        <time>2026-05-28T08:50:07Z</time>
      </trkpt>
      <trkpt lat="43.10747" lon="1.97471">
        <ele>412.4</ele>
        <time>2026-05-28T08:50:12Z</time>
      </trkpt>
      <trkpt lat="43.10747" lon="1.97463">
        <ele>411.8</ele>
        <time>2026-05-28T08:50:17Z</time>
      </trkpt>
      <trkpt lat="43.10747" lon="1.97455">
        <ele>411.2</ele>
        <time>2026-05-28T08:50:22Z</time>
      </trkpt>
      <trkpt lat="43.10747" lon="1.97448">
        <ele>410.7</ele>
        <time>2026-05-28T08:50:27Z</time>
      </trkpt>
      <trkpt lat="43.10746" lon="1.97438">
        <ele>409.7</ele>
        <time>2026-05-28T08:50:32Z</time>
      </trkpt>
      <trkpt lat="43.10746" lon="1.9743">
        <ele>409.1</ele>
        <time>2026-05-28T08:50:37Z</time>
      </trkpt>
      <trkpt lat="43.10745" lon="1.97422">
        <ele>408.3</ele>
        <time>2026-05-28T08:50:42Z</time>
      </trkpt>
      <trkpt lat="43.10746" lon="1.97418">
        <ele>408.2</ele>
        <time>2026-05-28T08:50:47Z</time>
      </trkpt>
      <trkpt lat="43.10746" lon="1.97414">
        <ele>408</ele>
        <time>2026-05-28T08:50:52Z</time>
      </trkpt>
      <trkpt lat="43.10746" lon="1.97408">
        <ele>407.8</ele>
        <time>2026-05-28T08:50:57Z</time>
      </trkpt>
      <trkpt lat="43.10746" lon="1.97402">
        <ele>407.6</ele>
        <time>2026-05-28T08:51:02Z</time>
      </trkpt>
      <trkpt lat="43.10746" lon="1.97395">
        <ele>407.4</ele>
        <time>2026-05-28T08:51:07Z</time>
      </trkpt>
      <trkpt lat="43.10744" lon="1.9739">
        <ele>406.8</ele>
        <time>2026-05-28T08:51:12Z</time>
      </trkpt>
      <trkpt lat="43.10741" lon="1.97387">
        <ele>406.1</ele>
        <time>2026-05-28T08:51:17Z</time>
      </trkpt>
      <trkpt lat="43.10741" lon="1.97381">
        <ele>406</ele>
        <time>2026-05-28T08:51:22Z</time>
      </trkpt>
      <trkpt lat="43.1074" lon="1.97379">
        <ele>405.7</ele>
        <time>2026-05-28T08:51:27Z</time>
      </trkpt>
      <trkpt lat="43.1074" lon="1.97375">
        <ele>405.6</ele>
        <time>2026-05-28T08:51:32Z</time>
      </trkpt>
      <trkpt lat="43.1074" lon="1.97369">
        <ele>405.5</ele>
        <time>2026-05-28T08:51:37Z</time>
      </trkpt>
      <trkpt lat="43.10738" lon="1.97364">
        <ele>405</ele>
        <time>2026-05-28T08:51:42Z</time>
      </trkpt>
      <trkpt lat="43.10735" lon="1.9736">
        <ele>404.4</ele>
        <time>2026-05-28T08:51:47Z</time>
      </trkpt>
      <trkpt lat="43.10733" lon="1.9736">
        <ele>404.1</ele>
        <time>2026-05-28T08:51:52Z</time>
      </trkpt>
      <trkpt lat="43.10731" lon="1.97356">
        <ele>403.6</ele>
        <time>2026-05-28T08:51:57Z</time>
      </trkpt>
      <trkpt lat="43.10728" lon="1.97354">
        <ele>403.1</ele>
        <time>2026-05-28T08:52:02Z</time>
      </trkpt>
      <trkpt lat="43.10725" lon="1.97355">
        <ele>402.6</ele>
        <time>2026-05-28T08:52:07Z</time>
      </trkpt>
      <trkpt lat="43.10724" lon="1.97353">
        <ele>402.4</ele>
        <time>2026-05-28T08:52:12Z</time>
      </trkpt>
      <trkpt lat="43.10724" lon="1.97353">
        <ele>402.4</ele>
        <time>2026-05-28T08:52:17Z</time>
      </trkpt>
      <trkpt lat="43.10724" lon="1.97353">
        <ele>402.4</ele>
        <time>2026-05-28T08:52:22Z</time>
      </trkpt>
      <trkpt lat="43.10724" lon="1.97353">
        <ele>402.4</ele>
        <time>2026-05-28T08:52:27Z</time>
      </trkpt>
      <trkpt lat="43.10724" lon="1.97353">
        <ele>402.4</ele>
        <time>2026-05-28T08:52:32Z</time>
      </trkpt>
      <trkpt lat="43.10722" lon="1.97358">
        <ele>402.2</ele>
        <time>2026-05-28T08:52:37Z</time>
      </trkpt>
      <trkpt lat="43.10718" lon="1.9736">
        <ele>401.5</ele>
        <time>2026-05-28T08:52:42Z</time>
      </trkpt>
      <trkpt lat="43.10714" lon="1.97359">
        <ele>400.8</ele>
        <time>2026-05-28T08:52:47Z</time>
      </trkpt>
      <trkpt lat="43.10709" lon="1.97359">
        <ele>400</ele>
        <time>2026-05-28T08:52:52Z</time>
      </trkpt>
      <trkpt lat="43.10705" lon="1.97356">
        <ele>399.3</ele>
        <time>2026-05-28T08:52:57Z</time>
      </trkpt>
      <trkpt lat="43.10704" lon="1.9735">
        <ele>399.2</ele>
        <time>2026-05-28T08:53:02Z</time>
      </trkpt>
      <trkpt lat="43.10703" lon="1.97344">
        <ele>399.1</ele>
        <time>2026-05-28T08:53:07Z</time>
      </trkpt>
      <trkpt lat="43.10701" lon="1.97338">
        <ele>398.9</ele>
        <time>2026-05-28T08:53:12Z</time>
      </trkpt>
      <trkpt lat="43.107" lon="1.97331">
        <ele>399.1</ele>
        <time>2026-05-28T08:53:17Z</time>
      </trkpt>
      <trkpt lat="43.10698" lon="1.97324">
        <ele>399.7</ele>
        <time>2026-05-28T08:53:22Z</time>
      </trkpt>
      <trkpt lat="43.10697" lon="1.97317">
        <ele>400.4</ele>
        <time>2026-05-28T08:53:27Z</time>
      </trkpt>
      <trkpt lat="43.10695" lon="1.9731">
        <ele>401.1</ele>
        <time>2026-05-28T08:53:32Z</time>
      </trkpt>
      <trkpt lat="43.10693" lon="1.97302">
        <ele>401.8</ele>
        <time>2026-05-28T08:53:37Z</time>
      </trkpt>
      <trkpt lat="43.10691" lon="1.97293">
        <ele>402.8</ele>
        <time>2026-05-28T08:53:42Z</time>
      </trkpt>
      <trkpt lat="43.10688" lon="1.97285">
        <ele>403.6</ele>
        <time>2026-05-28T08:53:47Z</time>
      </trkpt>
      <trkpt lat="43.10685" lon="1.97276">
        <ele>404.5</ele>
        <time>2026-05-28T08:53:52Z</time>
      </trkpt>
      <trkpt lat="43.10681" lon="1.97267">
        <ele>405.5</ele>
        <time>2026-05-28T08:53:57Z</time>
      </trkpt>
      <trkpt lat="43.10677" lon="1.9726">
        <ele>406.2</ele>
        <time>2026-05-28T08:54:02Z</time>
      </trkpt>
      <trkpt lat="43.10673" lon="1.97253">
        <ele>406.9</ele>
        <time>2026-05-28T08:54:07Z</time>
      </trkpt>
      <trkpt lat="43.1067" lon="1.97246">
        <ele>407.4</ele>
        <time>2026-05-28T08:54:12Z</time>
      </trkpt>
      <trkpt lat="43.10667" lon="1.9724">
        <ele>407.6</ele>
        <time>2026-05-28T08:54:17Z</time>
      </trkpt>
      <trkpt lat="43.10663" lon="1.97233">
        <ele>407.5</ele>
        <time>2026-05-28T08:54:22Z</time>
      </trkpt>
      <trkpt lat="43.10661" lon="1.97226">
        <ele>407.6</ele>
        <time>2026-05-28T08:54:27Z</time>
      </trkpt>
      <trkpt lat="43.10659" lon="1.97222">
        <ele>407.5</ele>
        <time>2026-05-28T08:54:32Z</time>
      </trkpt>
      <trkpt lat="43.10655" lon="1.97218">
        <ele>407.1</ele>
        <time>2026-05-28T08:54:37Z</time>
      </trkpt>
      <trkpt lat="43.10653" lon="1.97214">
        <ele>406.9</ele>
        <time>2026-05-28T08:54:42Z</time>
      </trkpt>
      <trkpt lat="43.10649" lon="1.9721">
        <ele>406.5</ele>
        <time>2026-05-28T08:54:47Z</time>
      </trkpt>
      <trkpt lat="43.10647" lon="1.97204">
        <ele>406.4</ele>
        <time>2026-05-28T08:54:52Z</time>
      </trkpt>
      <trkpt lat="43.10644" lon="1.97199">
        <ele>406.1</ele>
        <time>2026-05-28T08:54:57Z</time>
      </trkpt>
      <trkpt lat="43.10643" lon="1.97192">
        <ele>406.2</ele>
        <time>2026-05-28T08:55:02Z</time>
      </trkpt>
      <trkpt lat="43.10642" lon="1.97182">
        <ele>406.4</ele>
        <time>2026-05-28T08:55:07Z</time>
      </trkpt>
      <trkpt lat="43.1064" lon="1.97175">
        <ele>406.3</ele>
        <time>2026-05-28T08:55:12Z</time>
      </trkpt>
      <trkpt lat="43.10639" lon="1.97169">
        <ele>406.3</ele>
        <time>2026-05-28T08:55:17Z</time>
      </trkpt>
      <trkpt lat="43.10638" lon="1.97162">
        <ele>406.1</ele>
        <time>2026-05-28T08:55:22Z</time>
      </trkpt>
      <trkpt lat="43.10638" lon="1.97153">
        <ele>406</ele>
        <time>2026-05-28T08:55:27Z</time>
      </trkpt>
      <trkpt lat="43.10637" lon="1.97145">
        <ele>405.7</ele>
        <time>2026-05-28T08:55:32Z</time>
      </trkpt>
      <trkpt lat="43.10637" lon="1.97137">
        <ele>405.6</ele>
        <time>2026-05-28T08:55:37Z</time>
      </trkpt>
      <trkpt lat="43.10637" lon="1.97129">
        <ele>405.5</ele>
        <time>2026-05-28T08:55:42Z</time>
      </trkpt>
      <trkpt lat="43.10638" lon="1.97121">
        <ele>405.6</ele>
        <time>2026-05-28T08:55:47Z</time>
      </trkpt>
      <trkpt lat="43.10638" lon="1.97111">
        <ele>405.5</ele>
        <time>2026-05-28T08:55:52Z</time>
      </trkpt>
      <trkpt lat="43.10639" lon="1.97102">
        <ele>405.6</ele>
        <time>2026-05-28T08:55:57Z</time>
      </trkpt>
      <trkpt lat="43.10641" lon="1.97094">
        <ele>405.8</ele>
        <time>2026-05-28T08:56:02Z</time>
      </trkpt>
      <trkpt lat="43.10643" lon="1.97086">
        <ele>406.1</ele>
        <time>2026-05-28T08:56:07Z</time>
      </trkpt>
      <trkpt lat="43.10644" lon="1.97078">
        <ele>406.3</ele>
        <time>2026-05-28T08:56:12Z</time>
      </trkpt>
      <trkpt lat="43.10646" lon="1.97072">
        <ele>406.8</ele>
        <time>2026-05-28T08:56:17Z</time>
      </trkpt>
      <trkpt lat="43.10646" lon="1.97066">
        <ele>406.9</ele>
        <time>2026-05-28T08:56:22Z</time>
      </trkpt>
      <trkpt lat="43.10646" lon="1.97059">
        <ele>407</ele>
        <time>2026-05-28T08:56:27Z</time>
      </trkpt>
      <trkpt lat="43.10647" lon="1.97052">
        <ele>407.3</ele>
        <time>2026-05-28T08:56:32Z</time>
      </trkpt>
      <trkpt lat="43.10647" lon="1.97045">
        <ele>407.5</ele>
        <time>2026-05-28T08:56:37Z</time>
      </trkpt>
      <trkpt lat="43.10646" lon="1.9704">
        <ele>407.4</ele>
        <time>2026-05-28T08:56:42Z</time>
      </trkpt>
      <trkpt lat="43.10646" lon="1.97034">
        <ele>407.6</ele>
        <time>2026-05-28T08:56:47Z</time>
      </trkpt>
      <trkpt lat="43.10646" lon="1.97028">
        <ele>407.7</ele>
        <time>2026-05-28T08:56:52Z</time>
      </trkpt>
      <trkpt lat="43.10645" lon="1.97023">
        <ele>407.7</ele>
        <time>2026-05-28T08:56:57Z</time>
      </trkpt>
      <trkpt lat="43.10645" lon="1.97017">
        <ele>407.8</ele>
        <time>2026-05-28T08:57:02Z</time>
      </trkpt>
      <trkpt lat="43.10644" lon="1.9701">
        <ele>407.9</ele>
        <time>2026-05-28T08:57:07Z</time>
      </trkpt>
      <trkpt lat="43.10642" lon="1.97002">
        <ele>407.9</ele>
        <time>2026-05-28T08:57:12Z</time>
      </trkpt>
      <trkpt lat="43.10641" lon="1.96995">
        <ele>407.9</ele>
        <time>2026-05-28T08:57:17Z</time>
      </trkpt>
      <trkpt lat="43.1064" lon="1.96988">
        <ele>407.9</ele>
        <time>2026-05-28T08:57:22Z</time>
      </trkpt>
      <trkpt lat="43.10641" lon="1.96979">
        <ele>408.1</ele>
        <time>2026-05-28T08:57:27Z</time>
      </trkpt>
      <trkpt lat="43.1064" lon="1.96972">
        <ele>408.1</ele>
        <time>2026-05-28T08:57:32Z</time>
      </trkpt>
      <trkpt lat="43.10642" lon="1.96964">
        <ele>408.3</ele>
        <time>2026-05-28T08:57:37Z</time>
      </trkpt>
      <trkpt lat="43.10643" lon="1.96955">
        <ele>408.4</ele>
        <time>2026-05-28T08:57:42Z</time>
      </trkpt>
      <trkpt lat="43.10645" lon="1.96948">
        <ele>408.5</ele>
        <time>2026-05-28T08:57:47Z</time>
      </trkpt>
      <trkpt lat="43.10646" lon="1.9694">
        <ele>408.6</ele>
        <time>2026-05-28T08:57:52Z</time>
      </trkpt>
      <trkpt lat="43.10648" lon="1.96935">
        <ele>408.7</ele>
        <time>2026-05-28T08:57:57Z</time>
      </trkpt>
      <trkpt lat="43.10649" lon="1.96924">
        <ele>408.8</ele>
        <time>2026-05-28T08:58:02Z</time>
      </trkpt>
      <trkpt lat="43.10651" lon="1.96916">
        <ele>408.8</ele>
        <time>2026-05-28T08:58:07Z</time>
      </trkpt>
      <trkpt lat="43.10651" lon="1.96913">
        <ele>408.6</ele>
        <time>2026-05-28T08:58:12Z</time>
      </trkpt>
      <trkpt lat="43.1065" lon="1.9691">
        <ele>408.4</ele>
        <time>2026-05-28T08:58:17Z</time>
      </trkpt>
      <trkpt lat="43.10651" lon="1.96901">
        <ele>408</ele>
        <time>2026-05-28T08:58:22Z</time>
      </trkpt>
      <trkpt lat="43.10651" lon="1.96896">
        <ele>407.7</ele>
        <time>2026-05-28T08:58:27Z</time>
      </trkpt>
      <trkpt lat="43.10651" lon="1.96894">
        <ele>407.6</ele>
        <time>2026-05-28T08:58:32Z</time>
      </trkpt>
      <trkpt lat="43.10653" lon="1.96888">
        <ele>407.3</ele>
        <time>2026-05-28T08:58:37Z</time>
      </trkpt>
      <trkpt lat="43.10654" lon="1.96881">
        <ele>406.9</ele>
        <time>2026-05-28T08:58:42Z</time>
      </trkpt>
      <trkpt lat="43.10656" lon="1.96873">
        <ele>406.5</ele>
        <time>2026-05-28T08:58:47Z</time>
      </trkpt>
      <trkpt lat="43.10659" lon="1.96865">
        <ele>406</ele>
        <time>2026-05-28T08:58:52Z</time>
      </trkpt>
      <trkpt lat="43.10662" lon="1.96856">
        <ele>405.4</ele>
        <time>2026-05-28T08:58:57Z</time>
      </trkpt>
      <trkpt lat="43.10664" lon="1.9685">
        <ele>405</ele>
        <time>2026-05-28T08:59:02Z</time>
      </trkpt>
      <trkpt lat="43.10668" lon="1.96842">
        <ele>404.7</ele>
        <time>2026-05-28T08:59:07Z</time>
      </trkpt>
      <trkpt lat="43.1067" lon="1.96836">
        <ele>404.7</ele>
        <time>2026-05-28T08:59:12Z</time>
      </trkpt>
      <trkpt lat="43.10671" lon="1.96831">
        <ele>404.5</ele>
        <time>2026-05-28T08:59:17Z</time>
      </trkpt>
      <trkpt lat="43.10674" lon="1.96823">
        <ele>404.5</ele>
        <time>2026-05-28T08:59:22Z</time>
      </trkpt>
      <trkpt lat="43.10676" lon="1.96815">
        <ele>404.4</ele>
        <time>2026-05-28T08:59:27Z</time>
      </trkpt>
      <trkpt lat="43.10676" lon="1.96808">
        <ele>404</ele>
        <time>2026-05-28T08:59:32Z</time>
      </trkpt>
      <trkpt lat="43.10676" lon="1.968">
        <ele>403.5</ele>
        <time>2026-05-28T08:59:37Z</time>
      </trkpt>
      <trkpt lat="43.10676" lon="1.96793">
        <ele>403.1</ele>
        <time>2026-05-28T08:59:42Z</time>
      </trkpt>
      <trkpt lat="43.10677" lon="1.96785">
        <ele>402.8</ele>
        <time>2026-05-28T08:59:47Z</time>
      </trkpt>
      <trkpt lat="43.10676" lon="1.96777">
        <ele>402.2</ele>
        <time>2026-05-28T08:59:52Z</time>
      </trkpt>
      <trkpt lat="43.10675" lon="1.96768">
        <ele>401.5</ele>
        <time>2026-05-28T08:59:57Z</time>
      </trkpt>
      <trkpt lat="43.10674" lon="1.96761">
        <ele>400.9</ele>
        <time>2026-05-28T09:00:02Z</time>
      </trkpt>
      <trkpt lat="43.10673" lon="1.96753">
        <ele>400.2</ele>
        <time>2026-05-28T09:00:07Z</time>
      </trkpt>
      <trkpt lat="43.10671" lon="1.96748">
        <ele>399.7</ele>
        <time>2026-05-28T09:00:12Z</time>
      </trkpt>
      <trkpt lat="43.1067" lon="1.96739">
        <ele>399.6</ele>
        <time>2026-05-28T09:00:17Z</time>
      </trkpt>
      <trkpt lat="43.1067" lon="1.96731">
        <ele>399.6</ele>
        <time>2026-05-28T09:00:22Z</time>
      </trkpt>
      <trkpt lat="43.10669" lon="1.96722">
        <ele>399.4</ele>
        <time>2026-05-28T09:00:27Z</time>
      </trkpt>
      <trkpt lat="43.10668" lon="1.96713">
        <ele>399.2</ele>
        <time>2026-05-28T09:00:32Z</time>
      </trkpt>
      <trkpt lat="43.10667" lon="1.96704">
        <ele>399.1</ele>
        <time>2026-05-28T09:00:37Z</time>
      </trkpt>
      <trkpt lat="43.10667" lon="1.96696">
        <ele>399.1</ele>
        <time>2026-05-28T09:00:42Z</time>
      </trkpt>
      <trkpt lat="43.10666" lon="1.96689">
        <ele>399</ele>
        <time>2026-05-28T09:00:47Z</time>
      </trkpt>
      <trkpt lat="43.10665" lon="1.96681">
        <ele>399</ele>
        <time>2026-05-28T09:00:52Z</time>
      </trkpt>
      <trkpt lat="43.10664" lon="1.96673">
        <ele>398.9</ele>
        <time>2026-05-28T09:00:57Z</time>
      </trkpt>
      <trkpt lat="43.10663" lon="1.96664">
        <ele>398.9</ele>
        <time>2026-05-28T09:01:02Z</time>
      </trkpt>
      <trkpt lat="43.10662" lon="1.96654">
        <ele>399.1</ele>
        <time>2026-05-28T09:01:07Z</time>
      </trkpt>
      <trkpt lat="43.10661" lon="1.96647">
        <ele>399.1</ele>
        <time>2026-05-28T09:01:12Z</time>
      </trkpt>
      <trkpt lat="43.10659" lon="1.96639">
        <ele>399.1</ele>
        <time>2026-05-28T09:01:17Z</time>
      </trkpt>
      <trkpt lat="43.10658" lon="1.9663">
        <ele>399.2</ele>
        <time>2026-05-28T09:01:22Z</time>
      </trkpt>
      <trkpt lat="43.10658" lon="1.96622">
        <ele>399.3</ele>
        <time>2026-05-28T09:01:27Z</time>
      </trkpt>
      <trkpt lat="43.10656" lon="1.96616">
        <ele>399.1</ele>
        <time>2026-05-28T09:01:32Z</time>
      </trkpt>
      <trkpt lat="43.10655" lon="1.96608">
        <ele>399.1</ele>
        <time>2026-05-28T09:01:37Z</time>
      </trkpt>
      <trkpt lat="43.10654" lon="1.96598">
        <ele>399.1</ele>
        <time>2026-05-28T09:01:42Z</time>
      </trkpt>
      <trkpt lat="43.10654" lon="1.9659">
        <ele>399.1</ele>
        <time>2026-05-28T09:01:47Z</time>
      </trkpt>
      <trkpt lat="43.10654" lon="1.96583">
        <ele>399.2</ele>
        <time>2026-05-28T09:01:52Z</time>
      </trkpt>
      <trkpt lat="43.10653" lon="1.96576">
        <ele>399.3</ele>
        <time>2026-05-28T09:01:57Z</time>
      </trkpt>
      <trkpt lat="43.10652" lon="1.96569">
        <ele>399.4</ele>
        <time>2026-05-28T09:02:02Z</time>
      </trkpt>
      <trkpt lat="43.10649" lon="1.96562">
        <ele>399.2</ele>
        <time>2026-05-28T09:02:07Z</time>
      </trkpt>
      <trkpt lat="43.10649" lon="1.96554">
        <ele>399.5</ele>
        <time>2026-05-28T09:02:12Z</time>
      </trkpt>
      <trkpt lat="43.10647" lon="1.96546">
        <ele>399.5</ele>
        <time>2026-05-28T09:02:17Z</time>
      </trkpt>
      <trkpt lat="43.10646" lon="1.96538">
        <ele>399.7</ele>
        <time>2026-05-28T09:02:22Z</time>
      </trkpt>
      <trkpt lat="43.10644" lon="1.9653">
        <ele>399.7</ele>
        <time>2026-05-28T09:02:27Z</time>
      </trkpt>
      <trkpt lat="43.10644" lon="1.96527">
        <ele>399.8</ele>
        <time>2026-05-28T09:02:32Z</time>
      </trkpt>
      <trkpt lat="43.10644" lon="1.96525">
        <ele>399.8</ele>
        <time>2026-05-28T09:02:37Z</time>
      </trkpt>
      <trkpt lat="43.10644" lon="1.96525">
        <ele>399.8</ele>
        <time>2026-05-28T09:02:42Z</time>
      </trkpt>
      <trkpt lat="43.10644" lon="1.96525">
        <ele>399.8</ele>
        <time>2026-05-28T09:02:47Z</time>
      </trkpt>
      <trkpt lat="43.10644" lon="1.96525">
        <ele>399.8</ele>
        <time>2026-05-28T09:02:52Z</time>
      </trkpt>
      <trkpt lat="43.10644" lon="1.96525">
        <ele>399.8</ele>
        <time>2026-05-28T09:02:57Z</time>
      </trkpt>
      <trkpt lat="43.10644" lon="1.96525">
        <ele>399.8</ele>
        <time>2026-05-28T09:03:02Z</time>
      </trkpt>
      <trkpt lat="43.10644" lon="1.96525">
        <ele>399.8</ele>
        <time>2026-05-28T09:03:07Z</time>
      </trkpt>
      <trkpt lat="43.10644" lon="1.96525">
        <ele>399.8</ele>
        <time>2026-05-28T09:03:12Z</time>
      </trkpt>
      <trkpt lat="43.10644" lon="1.96525">
        <ele>399.8</ele>
        <time>2026-05-28T09:03:17Z</time>
      </trkpt>
      <trkpt lat="43.10644" lon="1.96525">
        <ele>399.8</ele>
        <time>2026-05-28T09:03:22Z</time>
      </trkpt>
      <trkpt lat="43.10644" lon="1.96525">
        <ele>399.8</ele>
        <time>2026-05-28T09:03:27Z</time>
      </trkpt>
      <trkpt lat="43.10644" lon="1.96525">
        <ele>399.8</ele>
        <time>2026-05-28T09:03:32Z</time>
      </trkpt>
      <trkpt lat="43.10644" lon="1.96525">
        <ele>399.8</ele>
        <time>2026-05-28T09:03:37Z</time>
      </trkpt>
      <trkpt lat="43.10644" lon="1.96525">
        <ele>399.8</ele>
        <time>2026-05-28T09:03:42Z</time>
      </trkpt>
      <trkpt lat="43.10644" lon="1.96525">
        <ele>399.8</ele>
        <time>2026-05-28T09:03:47Z</time>
      </trkpt>
      <trkpt lat="43.10644" lon="1.96525">
        <ele>399.8</ele>
        <time>2026-05-28T09:03:52Z</time>
      </trkpt>
      <trkpt lat="43.10644" lon="1.96525">
        <ele>399.8</ele>
        <time>2026-05-28T09:03:57Z</time>
      </trkpt>
      <trkpt lat="43.10644" lon="1.96525">
        <ele>399.8</ele>
        <time>2026-05-28T09:04:02Z</time>
      </trkpt>
      <trkpt lat="43.10644" lon="1.96525">
        <ele>399.8</ele>
        <time>2026-05-28T09:04:07Z</time>
      </trkpt>
      <trkpt lat="43.10644" lon="1.96525">
        <ele>399.8</ele>
        <time>2026-05-28T09:04:12Z</time>
      </trkpt>
      <trkpt lat="43.10644" lon="1.96525">
        <ele>399.8</ele>
        <time>2026-05-28T09:04:17Z</time>
      </trkpt>
      <trkpt lat="43.10644" lon="1.96525">
        <ele>399.8</ele>
        <time>2026-05-28T09:04:22Z</time>
      </trkpt>
      <trkpt lat="43.10644" lon="1.96525">
        <ele>399.8</ele>
        <time>2026-05-28T09:04:27Z</time>
      </trkpt>
      <trkpt lat="43.10644" lon="1.96525">
        <ele>399.8</ele>
        <time>2026-05-28T09:04:32Z</time>
      </trkpt>
      <trkpt lat="43.10644" lon="1.96525">
        <ele>399.8</ele>
        <time>2026-05-28T09:04:37Z</time>
      </trkpt>
      <trkpt lat="43.10644" lon="1.96525">
        <ele>399.8</ele>
        <time>2026-05-28T09:04:42Z</time>
      </trkpt>
      <trkpt lat="43.10644" lon="1.96525">
        <ele>399.8</ele>
        <time>2026-05-28T09:04:47Z</time>
      </trkpt>
      <trkpt lat="43.10644" lon="1.96525">
        <ele>399.8</ele>
        <time>2026-05-28T09:04:52Z</time>
      </trkpt>
      <trkpt lat="43.10644" lon="1.96525">
        <ele>399.8</ele>
        <time>2026-05-28T09:04:57Z</time>
      </trkpt>
      <trkpt lat="43.10644" lon="1.96525">
        <ele>399.8</ele>
        <time>2026-05-28T09:05:02Z</time>
      </trkpt>
      <trkpt lat="43.10644" lon="1.96525">
        <ele>399.8</ele>
        <time>2026-05-28T09:05:07Z</time>
      </trkpt>
      <trkpt lat="43.10644" lon="1.96525">
        <ele>399.8</ele>
        <time>2026-05-28T09:05:12Z</time>
      </trkpt>
      <trkpt lat="43.10644" lon="1.96525">
        <ele>399.8</ele>
        <time>2026-05-28T09:05:17Z</time>
      </trkpt>
      <trkpt lat="43.10644" lon="1.96525">
        <ele>399.8</ele>
        <time>2026-05-28T09:05:22Z</time>
      </trkpt>
      <trkpt lat="43.10644" lon="1.96525">
        <ele>399.8</ele>
        <time>2026-05-28T09:05:27Z</time>
      </trkpt>
      <trkpt lat="43.10644" lon="1.96525">
        <ele>399.8</ele>
        <time>2026-05-28T09:05:32Z</time>
      </trkpt>
      <trkpt lat="43.10644" lon="1.96525">
        <ele>399.8</ele>
        <time>2026-05-28T09:05:37Z</time>
      </trkpt>
      <trkpt lat="43.10644" lon="1.96525">
        <ele>399.8</ele>
        <time>2026-05-28T09:05:42Z</time>
      </trkpt>
      <trkpt lat="43.10644" lon="1.96525">
        <ele>399.8</ele>
        <time>2026-05-28T09:05:47Z</time>
      </trkpt>
      <trkpt lat="43.10644" lon="1.96525">
        <ele>399.8</ele>
        <time>2026-05-28T09:05:52Z</time>
      </trkpt>
      <trkpt lat="43.10644" lon="1.96525">
        <ele>399.8</ele>
        <time>2026-05-28T09:05:57Z</time>
      </trkpt>
      <trkpt lat="43.10644" lon="1.96525">
        <ele>399.8</ele>
        <time>2026-05-28T09:06:02Z</time>
      </trkpt>
      <trkpt lat="43.10644" lon="1.96525">
        <ele>399.8</ele>
        <time>2026-05-28T09:06:07Z</time>
      </trkpt>
      <trkpt lat="43.10644" lon="1.96525">
        <ele>399.8</ele>
        <time>2026-05-28T09:06:12Z</time>
      </trkpt>
      <trkpt lat="43.10644" lon="1.96525">
        <ele>399.8</ele>
        <time>2026-05-28T09:06:17Z</time>
      </trkpt>
      <trkpt lat="43.10644" lon="1.96525">
        <ele>399.8</ele>
        <time>2026-05-28T09:06:22Z</time>
      </trkpt>
      <trkpt lat="43.10644" lon="1.96525">
        <ele>399.8</ele>
        <time>2026-05-28T09:06:27Z</time>
      </trkpt>
      <trkpt lat="43.10644" lon="1.96525">
        <ele>399.8</ele>
        <time>2026-05-28T09:06:32Z</time>
      </trkpt>
      <trkpt lat="43.10644" lon="1.96525">
        <ele>399.8</ele>
        <time>2026-05-28T09:06:37Z</time>
      </trkpt>
      <trkpt lat="43.10644" lon="1.96525">
        <ele>399.8</ele>
        <time>2026-05-28T09:06:42Z</time>
      </trkpt>
      <trkpt lat="43.10644" lon="1.96525">
        <ele>399.8</ele>
        <time>2026-05-28T09:06:47Z</time>
      </trkpt>
      <trkpt lat="43.10644" lon="1.96525">
        <ele>399.8</ele>
        <time>2026-05-28T09:06:52Z</time>
      </trkpt>
      <trkpt lat="43.10644" lon="1.96525">
        <ele>399.8</ele>
        <time>2026-05-28T09:06:57Z</time>
      </trkpt>
      <trkpt lat="43.10644" lon="1.96525">
        <ele>399.8</ele>
        <time>2026-05-28T09:07:02Z</time>
      </trkpt>
      <trkpt lat="43.10644" lon="1.96525">
        <ele>399.8</ele>
        <time>2026-05-28T09:07:07Z</time>
      </trkpt>
      <trkpt lat="43.10644" lon="1.96525">
        <ele>399.8</ele>
        <time>2026-05-28T09:07:12Z</time>
      </trkpt>
      <trkpt lat="43.10644" lon="1.96525">
        <ele>399.8</ele>
        <time>2026-05-28T09:07:17Z</time>
      </trkpt>
      <trkpt lat="43.10644" lon="1.96525">
        <ele>399.8</ele>
        <time>2026-05-28T09:07:22Z</time>
      </trkpt>
      <trkpt lat="43.10644" lon="1.96525">
        <ele>399.8</ele>
        <time>2026-05-28T09:07:27Z</time>
      </trkpt>
      <trkpt lat="43.10644" lon="1.96525">
        <ele>399.8</ele>
        <time>2026-05-28T09:07:32Z</time>
      </trkpt>
      <trkpt lat="43.10644" lon="1.96525">
        <ele>399.8</ele>
        <time>2026-05-28T09:07:37Z</time>
      </trkpt>
      <trkpt lat="43.10644" lon="1.96525">
        <ele>399.8</ele>
        <time>2026-05-28T09:07:42Z</time>
      </trkpt>
      <trkpt lat="43.10644" lon="1.96525">
        <ele>399.8</ele>
        <time>2026-05-28T09:07:47Z</time>
      </trkpt>
      <trkpt lat="43.10644" lon="1.96525">
        <ele>399.8</ele>
        <time>2026-05-28T09:07:52Z</time>
      </trkpt>
      <trkpt lat="43.10644" lon="1.96525">
        <ele>399.8</ele>
        <time>2026-05-28T09:07:57Z</time>
      </trkpt>
      <trkpt lat="43.10644" lon="1.96525">
        <ele>399.8</ele>
        <time>2026-05-28T09:08:02Z</time>
      </trkpt>
      <trkpt lat="43.10644" lon="1.96525">
        <ele>399.8</ele>
        <time>2026-05-28T09:08:07Z</time>
      </trkpt>
      <trkpt lat="43.1064" lon="1.96506">
        <ele>399.9</ele>
        <time>2026-05-28T09:08:12Z</time>
      </trkpt>
      <trkpt lat="43.1064" lon="1.96497">
        <ele>400.1</ele>
        <time>2026-05-28T09:08:17Z</time>
      </trkpt>
      <trkpt lat="43.10639" lon="1.96491">
        <ele>399.8</ele>
        <time>2026-05-28T09:08:22Z</time>
      </trkpt>
      <trkpt lat="43.1064" lon="1.96484">
        <ele>399.7</ele>
        <time>2026-05-28T09:08:27Z</time>
      </trkpt>
      <trkpt lat="43.1064" lon="1.96476">
        <ele>399.5</ele>
        <time>2026-05-28T09:08:32Z</time>
      </trkpt>
      <trkpt lat="43.1064" lon="1.96468">
        <ele>399.2</ele>
        <time>2026-05-28T09:08:37Z</time>
      </trkpt>
      <trkpt lat="43.1064" lon="1.9646">
        <ele>399</ele>
        <time>2026-05-28T09:08:42Z</time>
      </trkpt>
      <trkpt lat="43.10642" lon="1.96452">
        <ele>399</ele>
        <time>2026-05-28T09:08:47Z</time>
      </trkpt>
      <trkpt lat="43.10642" lon="1.96444">
        <ele>398.8</ele>
        <time>2026-05-28T09:08:52Z</time>
      </trkpt>
      <trkpt lat="43.10641" lon="1.96437">
        <ele>398.4</ele>
        <time>2026-05-28T09:08:57Z</time>
      </trkpt>
      <trkpt lat="43.10641" lon="1.9643">
        <ele>398.2</ele>
        <time>2026-05-28T09:09:02Z</time>
      </trkpt>
      <trkpt lat="43.1064" lon="1.96422">
        <ele>397.9</ele>
        <time>2026-05-28T09:09:07Z</time>
      </trkpt>
      <trkpt lat="43.10639" lon="1.96414">
        <ele>397.8</ele>
        <time>2026-05-28T09:09:12Z</time>
      </trkpt>
      <trkpt lat="43.10639" lon="1.96407">
        <ele>398</ele>
        <time>2026-05-28T09:09:17Z</time>
      </trkpt>
      <trkpt lat="43.10638" lon="1.964">
        <ele>398.1</ele>
        <time>2026-05-28T09:09:22Z</time>
      </trkpt>
      <trkpt lat="43.10637" lon="1.96397">
        <ele>398.2</ele>
        <time>2026-05-28T09:09:27Z</time>
      </trkpt>
      <trkpt lat="43.10637" lon="1.96397">
        <ele>398.2</ele>
        <time>2026-05-28T09:09:32Z</time>
      </trkpt>
      <trkpt lat="43.10637" lon="1.96394">
        <ele>398.3</ele>
        <time>2026-05-28T09:09:37Z</time>
      </trkpt>
      <trkpt lat="43.10636" lon="1.96388">
        <ele>398.4</ele>
        <time>2026-05-28T09:09:42Z</time>
      </trkpt>
      <trkpt lat="43.10637" lon="1.96378">
        <ele>398.8</ele>
        <time>2026-05-28T09:09:47Z</time>
      </trkpt>
      <trkpt lat="43.10636" lon="1.96369">
        <ele>399.1</ele>
        <time>2026-05-28T09:09:52Z</time>
      </trkpt>
      <trkpt lat="43.10635" lon="1.96362">
        <ele>399.3</ele>
        <time>2026-05-28T09:09:57Z</time>
      </trkpt>
      <trkpt lat="43.10635" lon="1.96355">
        <ele>399.6</ele>
        <time>2026-05-28T09:10:02Z</time>
      </trkpt>
      <trkpt lat="43.10633" lon="1.96346">
        <ele>399.9</ele>
        <time>2026-05-28T09:10:07Z</time>
      </trkpt>
      <trkpt lat="43.1063" lon="1.96339">
        <ele>400.2</ele>
        <time>2026-05-28T09:10:12Z</time>
      </trkpt>
      <trkpt lat="43.10629" lon="1.96332">
        <ele>400.6</ele>
        <time>2026-05-28T09:10:17Z</time>
      </trkpt>
      <trkpt lat="43.10626" lon="1.96323">
        <ele>401.5</ele>
        <time>2026-05-28T09:10:22Z</time>
      </trkpt>
      <trkpt lat="43.10625" lon="1.96317">
        <ele>402.1</ele>
        <time>2026-05-28T09:10:27Z</time>
      </trkpt>
      <trkpt lat="43.10623" lon="1.96308">
        <ele>403</ele>
        <time>2026-05-28T09:10:32Z</time>
      </trkpt>
      <trkpt lat="43.10623" lon="1.96301">
        <ele>403.7</ele>
        <time>2026-05-28T09:10:37Z</time>
      </trkpt>
      <trkpt lat="43.1062" lon="1.96294">
        <ele>404.4</ele>
        <time>2026-05-28T09:10:42Z</time>
      </trkpt>
      <trkpt lat="43.10617" lon="1.96286">
        <ele>405.4</ele>
        <time>2026-05-28T09:10:47Z</time>
      </trkpt>
      <trkpt lat="43.10615" lon="1.9628">
        <ele>406</ele>
        <time>2026-05-28T09:10:52Z</time>
      </trkpt>
      <trkpt lat="43.10612" lon="1.96274">
        <ele>406.8</ele>
        <time>2026-05-28T09:10:57Z</time>
      </trkpt>
      <trkpt lat="43.10608" lon="1.96269">
        <ele>407.5</ele>
        <time>2026-05-28T09:11:02Z</time>
      </trkpt>
      <trkpt lat="43.10604" lon="1.96263">
        <ele>408.4</ele>
        <time>2026-05-28T09:11:07Z</time>
      </trkpt>
      <trkpt lat="43.106" lon="1.96258">
        <ele>409.1</ele>
        <time>2026-05-28T09:11:12Z</time>
      </trkpt>
      <trkpt lat="43.10595" lon="1.96252">
        <ele>410.1</ele>
        <time>2026-05-28T09:11:17Z</time>
      </trkpt>
      <trkpt lat="43.1059" lon="1.96245">
        <ele>410.5</ele>
        <time>2026-05-28T09:11:22Z</time>
      </trkpt>
      <trkpt lat="43.10586" lon="1.9624">
        <ele>410.6</ele>
        <time>2026-05-28T09:11:27Z</time>
      </trkpt>
      <trkpt lat="43.10582" lon="1.96234">
        <ele>410.5</ele>
        <time>2026-05-28T09:11:32Z</time>
      </trkpt>
      <trkpt lat="43.10578" lon="1.96228">
        <ele>410.2</ele>
        <time>2026-05-28T09:11:37Z</time>
      </trkpt>
      <trkpt lat="43.10573" lon="1.96222">
        <ele>409.8</ele>
        <time>2026-05-28T09:11:42Z</time>
      </trkpt>
      <trkpt lat="43.1057" lon="1.96216">
        <ele>409.5</ele>
        <time>2026-05-28T09:11:47Z</time>
      </trkpt>
      <trkpt lat="43.10566" lon="1.9621">
        <ele>409.2</ele>
        <time>2026-05-28T09:11:52Z</time>
      </trkpt>
      <trkpt lat="43.10562" lon="1.96205">
        <ele>408.9</ele>
        <time>2026-05-28T09:11:57Z</time>
      </trkpt>
      <trkpt lat="43.10558" lon="1.962">
        <ele>408.6</ele>
        <time>2026-05-28T09:12:02Z</time>
      </trkpt>
      <trkpt lat="43.10553" lon="1.96194">
        <ele>408.3</ele>
        <time>2026-05-28T09:12:07Z</time>
      </trkpt>
      <trkpt lat="43.10548" lon="1.9619">
        <ele>408.1</ele>
        <time>2026-05-28T09:12:12Z</time>
      </trkpt>
      <trkpt lat="43.10543" lon="1.96187">
        <ele>407.8</ele>
        <time>2026-05-28T09:12:17Z</time>
      </trkpt>
      <trkpt lat="43.10537" lon="1.96186">
        <ele>407.5</ele>
        <time>2026-05-28T09:12:22Z</time>
      </trkpt>
      <trkpt lat="43.10531" lon="1.96184">
        <ele>407.3</ele>
        <time>2026-05-28T09:12:27Z</time>
      </trkpt>
      <trkpt lat="43.10525" lon="1.96181">
        <ele>407</ele>
        <time>2026-05-28T09:12:32Z</time>
      </trkpt>
      <trkpt lat="43.10519" lon="1.9618">
        <ele>406.8</ele>
        <time>2026-05-28T09:12:37Z</time>
      </trkpt>
      <trkpt lat="43.10515" lon="1.96178">
        <ele>406.6</ele>
        <time>2026-05-28T09:12:42Z</time>
      </trkpt>
      <trkpt lat="43.1051" lon="1.96176">
        <ele>406.4</ele>
        <time>2026-05-28T09:12:47Z</time>
      </trkpt>
      <trkpt lat="43.10505" lon="1.96174">
        <ele>406.2</ele>
        <time>2026-05-28T09:12:52Z</time>
      </trkpt>
      <trkpt lat="43.105" lon="1.96172">
        <ele>406</ele>
        <time>2026-05-28T09:12:57Z</time>
      </trkpt>
      <trkpt lat="43.10496" lon="1.96171">
        <ele>406</ele>
        <time>2026-05-28T09:13:02Z</time>
      </trkpt>
      <trkpt lat="43.10493" lon="1.96168">
        <ele>406</ele>
        <time>2026-05-28T09:13:07Z</time>
      </trkpt>
      <trkpt lat="43.10488" lon="1.96165">
        <ele>406</ele>
        <time>2026-05-28T09:13:12Z</time>
      </trkpt>
      <trkpt lat="43.10484" lon="1.96163">
        <ele>406</ele>
        <time>2026-05-28T09:13:17Z</time>
      </trkpt>
      <trkpt lat="43.10478" lon="1.9616">
        <ele>405.9</ele>
        <time>2026-05-28T09:13:22Z</time>
      </trkpt>
      <trkpt lat="43.10473" lon="1.96158">
        <ele>405.9</ele>
        <time>2026-05-28T09:13:27Z</time>
      </trkpt>
      <trkpt lat="43.10468" lon="1.96153">
        <ele>405.8</ele>
        <time>2026-05-28T09:13:32Z</time>
      </trkpt>
      <trkpt lat="43.10464" lon="1.96151">
        <ele>405.8</ele>
        <time>2026-05-28T09:13:37Z</time>
      </trkpt>
      <trkpt lat="43.10458" lon="1.9615">
        <ele>405.8</ele>
        <time>2026-05-28T09:13:42Z</time>
      </trkpt>
      <trkpt lat="43.10452" lon="1.96147">
        <ele>405.8</ele>
        <time>2026-05-28T09:13:47Z</time>
      </trkpt>
      <trkpt lat="43.10447" lon="1.96145">
        <ele>405.7</ele>
        <time>2026-05-28T09:13:52Z</time>
      </trkpt>
      <trkpt lat="43.10441" lon="1.96146">
        <ele>405.8</ele>
        <time>2026-05-28T09:13:57Z</time>
      </trkpt>
      <trkpt lat="43.10437" lon="1.96146">
        <ele>405.8</ele>
        <time>2026-05-28T09:14:02Z</time>
      </trkpt>
      <trkpt lat="43.10432" lon="1.96145">
        <ele>405.7</ele>
        <time>2026-05-28T09:14:07Z</time>
      </trkpt>
      <trkpt lat="43.10426" lon="1.96148">
        <ele>405.8</ele>
        <time>2026-05-28T09:14:12Z</time>
      </trkpt>
      <trkpt lat="43.10421" lon="1.96146">
        <ele>405.8</ele>
        <time>2026-05-28T09:14:17Z</time>
      </trkpt>
      <trkpt lat="43.10417" lon="1.96144">
        <ele>405.7</ele>
        <time>2026-05-28T09:14:22Z</time>
      </trkpt>
      <trkpt lat="43.10417" lon="1.96143">
        <ele>405.7</ele>
        <time>2026-05-28T09:14:27Z</time>
      </trkpt>
      <trkpt lat="43.10417" lon="1.96143">
        <ele>405.7</ele>
        <time>2026-05-28T09:14:32Z</time>
      </trkpt>
      <trkpt lat="43.10418" lon="1.96139">
        <ele>405.7</ele>
        <time>2026-05-28T09:14:37Z</time>
      </trkpt>
      <trkpt lat="43.10423" lon="1.96136">
        <ele>405.6</ele>
        <time>2026-05-28T09:14:42Z</time>
      </trkpt>
      <trkpt lat="43.10426" lon="1.96132">
        <ele>405.6</ele>
        <time>2026-05-28T09:14:47Z</time>
      </trkpt>
      <trkpt lat="43.10431" lon="1.96128">
        <ele>405.5</ele>
        <time>2026-05-28T09:14:52Z</time>
      </trkpt>
      <trkpt lat="43.10435" lon="1.96123">
        <ele>405.5</ele>
        <time>2026-05-28T09:14:57Z</time>
      </trkpt>
      <trkpt lat="43.10441" lon="1.96119">
        <ele>405.4</ele>
        <time>2026-05-28T09:15:02Z</time>
      </trkpt>
      <trkpt lat="43.10446" lon="1.96114">
        <ele>405.4</ele>
        <time>2026-05-28T09:15:07Z</time>
      </trkpt>
      <trkpt lat="43.1045" lon="1.96109">
        <ele>405.3</ele>
        <time>2026-05-28T09:15:12Z</time>
      </trkpt>
      <trkpt lat="43.10454" lon="1.96104">
        <ele>405.2</ele>
        <time>2026-05-28T09:15:17Z</time>
      </trkpt>
      <trkpt lat="43.10461" lon="1.961">
        <ele>405.2</ele>
        <time>2026-05-28T09:15:22Z</time>
      </trkpt>
      <trkpt lat="43.10468" lon="1.96095">
        <ele>405.1</ele>
        <time>2026-05-28T09:15:27Z</time>
      </trkpt>
      <trkpt lat="43.10473" lon="1.9609">
        <ele>405.1</ele>
        <time>2026-05-28T09:15:32Z</time>
      </trkpt>
      <trkpt lat="43.10479" lon="1.96086">
        <ele>405</ele>
        <time>2026-05-28T09:15:37Z</time>
      </trkpt>
      <trkpt lat="43.10483" lon="1.96082">
        <ele>404.9</ele>
        <time>2026-05-28T09:15:42Z</time>
      </trkpt>
      <trkpt lat="43.10488" lon="1.96077">
        <ele>404.3</ele>
        <time>2026-05-28T09:15:47Z</time>
      </trkpt>
      <trkpt lat="43.10493" lon="1.96071">
        <ele>403.8</ele>
        <time>2026-05-28T09:15:52Z</time>
      </trkpt>
      <trkpt lat="43.10497" lon="1.96066">
        <ele>403.3</ele>
        <time>2026-05-28T09:15:57Z</time>
      </trkpt>
      <trkpt lat="43.10502" lon="1.96061">
        <ele>403</ele>
        <time>2026-05-28T09:16:02Z</time>
      </trkpt>
      <trkpt lat="43.10507" lon="1.96054">
        <ele>402.7</ele>
        <time>2026-05-28T09:16:07Z</time>
      </trkpt>
      <trkpt lat="43.10511" lon="1.96048">
        <ele>402.5</ele>
        <time>2026-05-28T09:16:12Z</time>
      </trkpt>
      <trkpt lat="43.10516" lon="1.96043">
        <ele>402.4</ele>
        <time>2026-05-28T09:16:17Z</time>
      </trkpt>
      <trkpt lat="43.10521" lon="1.96037">
        <ele>402.4</ele>
        <time>2026-05-28T09:16:22Z</time>
      </trkpt>
      <trkpt lat="43.10526" lon="1.96031">
        <ele>402.5</ele>
        <time>2026-05-28T09:16:27Z</time>
      </trkpt>
      <trkpt lat="43.10531" lon="1.96027">
        <ele>402.7</ele>
        <time>2026-05-28T09:16:32Z</time>
      </trkpt>
      <trkpt lat="43.10535" lon="1.96023">
        <ele>402.9</ele>
        <time>2026-05-28T09:16:37Z</time>
      </trkpt>
      <trkpt lat="43.10539" lon="1.9602">
        <ele>403.2</ele>
        <time>2026-05-28T09:16:42Z</time>
      </trkpt>
      <trkpt lat="43.10542" lon="1.96016">
        <ele>403.3</ele>
        <time>2026-05-28T09:16:47Z</time>
      </trkpt>
      <trkpt lat="43.10547" lon="1.96011">
        <ele>403.7</ele>
        <time>2026-05-28T09:16:52Z</time>
      </trkpt>
      <trkpt lat="43.10552" lon="1.96006">
        <ele>404.1</ele>
        <time>2026-05-28T09:16:57Z</time>
      </trkpt>
      <trkpt lat="43.10557" lon="1.96003">
        <ele>404.6</ele>
        <time>2026-05-28T09:17:02Z</time>
      </trkpt>
      <trkpt lat="43.10562" lon="1.95998">
        <ele>405.2</ele>
        <time>2026-05-28T09:17:07Z</time>
      </trkpt>
      <trkpt lat="43.10567" lon="1.95993">
        <ele>406</ele>
        <time>2026-05-28T09:17:12Z</time>
      </trkpt>
      <trkpt lat="43.10571" lon="1.95988">
        <ele>406.7</ele>
        <time>2026-05-28T09:17:17Z</time>
      </trkpt>
      <trkpt lat="43.10576" lon="1.95984">
        <ele>407.5</ele>
        <time>2026-05-28T09:17:22Z</time>
      </trkpt>
      <trkpt lat="43.10582" lon="1.95978">
        <ele>408.6</ele>
        <time>2026-05-28T09:17:27Z</time>
      </trkpt>
      <trkpt lat="43.10589" lon="1.95972">
        <ele>409.1</ele>
        <time>2026-05-28T09:17:32Z</time>
      </trkpt>
      <trkpt lat="43.10594" lon="1.95967">
        <ele>409.4</ele>
        <time>2026-05-28T09:17:37Z</time>
      </trkpt>
      <trkpt lat="43.106" lon="1.95962">
        <ele>409.8</ele>
        <time>2026-05-28T09:17:42Z</time>
      </trkpt>
      <trkpt lat="43.10605" lon="1.95957">
        <ele>410.2</ele>
        <time>2026-05-28T09:17:47Z</time>
      </trkpt>
      <trkpt lat="43.1061" lon="1.95951">
        <ele>410.7</ele>
        <time>2026-05-28T09:17:52Z</time>
      </trkpt>
      <trkpt lat="43.10616" lon="1.95945">
        <ele>411.3</ele>
        <time>2026-05-28T09:17:57Z</time>
      </trkpt>
      <trkpt lat="43.1062" lon="1.9594">
        <ele>411.7</ele>
        <time>2026-05-28T09:18:02Z</time>
      </trkpt>
      <trkpt lat="43.10625" lon="1.95935">
        <ele>412.3</ele>
        <time>2026-05-28T09:18:07Z</time>
      </trkpt>
      <trkpt lat="43.10631" lon="1.95929">
        <ele>413</ele>
        <time>2026-05-28T09:18:12Z</time>
      </trkpt>
      <trkpt lat="43.10635" lon="1.95925">
        <ele>413.5</ele>
        <time>2026-05-28T09:18:17Z</time>
      </trkpt>
      <trkpt lat="43.10639" lon="1.95919">
        <ele>414.2</ele>
        <time>2026-05-28T09:18:22Z</time>
      </trkpt>
      <trkpt lat="43.10644" lon="1.95914">
        <ele>414.6</ele>
        <time>2026-05-28T09:18:27Z</time>
      </trkpt>
      <trkpt lat="43.10648" lon="1.95908">
        <ele>414.8</ele>
        <time>2026-05-28T09:18:32Z</time>
      </trkpt>
      <trkpt lat="43.10651" lon="1.95901">
        <ele>414.8</ele>
        <time>2026-05-28T09:18:37Z</time>
      </trkpt>
      <trkpt lat="43.10655" lon="1.95894">
        <ele>414.8</ele>
        <time>2026-05-28T09:18:42Z</time>
      </trkpt>
      <trkpt lat="43.10657" lon="1.95886">
        <ele>414.7</ele>
        <time>2026-05-28T09:18:47Z</time>
      </trkpt>
      <trkpt lat="43.10658" lon="1.95879">
        <ele>414.5</ele>
        <time>2026-05-28T09:18:52Z</time>
      </trkpt>
      <trkpt lat="43.10659" lon="1.9587">
        <ele>414.3</ele>
        <time>2026-05-28T09:18:57Z</time>
      </trkpt>
      <trkpt lat="43.1066" lon="1.95861">
        <ele>414</ele>
        <time>2026-05-28T09:19:02Z</time>
      </trkpt>
      <trkpt lat="43.1066" lon="1.95851">
        <ele>413.7</ele>
        <time>2026-05-28T09:19:07Z</time>
      </trkpt>
      <trkpt lat="43.10659" lon="1.95843">
        <ele>413.5</ele>
        <time>2026-05-28T09:19:12Z</time>
      </trkpt>
      <trkpt lat="43.10659" lon="1.95835">
        <ele>413.3</ele>
        <time>2026-05-28T09:19:17Z</time>
      </trkpt>
      <trkpt lat="43.1066" lon="1.95826">
        <ele>412.6</ele>
        <time>2026-05-28T09:19:22Z</time>
      </trkpt>
      <trkpt lat="43.10661" lon="1.95817">
        <ele>411.7</ele>
        <time>2026-05-28T09:19:27Z</time>
      </trkpt>
      <trkpt lat="43.10662" lon="1.95808">
        <ele>410.9</ele>
        <time>2026-05-28T09:19:32Z</time>
      </trkpt>
      <trkpt lat="43.10661" lon="1.95801">
        <ele>410.3</ele>
        <time>2026-05-28T09:19:37Z</time>
      </trkpt>
      <trkpt lat="43.10661" lon="1.95791">
        <ele>409.4</ele>
        <time>2026-05-28T09:19:42Z</time>
      </trkpt>
      <trkpt lat="43.10661" lon="1.95783">
        <ele>408.7</ele>
        <time>2026-05-28T09:19:47Z</time>
      </trkpt>
      <trkpt lat="43.10662" lon="1.95774">
        <ele>407.8</ele>
        <time>2026-05-28T09:19:52Z</time>
      </trkpt>
      <trkpt lat="43.10663" lon="1.95766">
        <ele>406.9</ele>
        <time>2026-05-28T09:19:57Z</time>
      </trkpt>
      <trkpt lat="43.10663" lon="1.95758">
        <ele>406.2</ele>
        <time>2026-05-28T09:20:02Z</time>
      </trkpt>
      <trkpt lat="43.10663" lon="1.95749">
        <ele>405.4</ele>
        <time>2026-05-28T09:20:07Z</time>
      </trkpt>
      <trkpt lat="43.10663" lon="1.9574">
        <ele>404.7</ele>
        <time>2026-05-28T09:20:12Z</time>
      </trkpt>
      <trkpt lat="43.10664" lon="1.95733">
        <ele>404.1</ele>
        <time>2026-05-28T09:20:17Z</time>
      </trkpt>
      <trkpt lat="43.10664" lon="1.95724">
        <ele>403.5</ele>
        <time>2026-05-28T09:20:22Z</time>
      </trkpt>
      <trkpt lat="43.10665" lon="1.95714">
        <ele>402.7</ele>
        <time>2026-05-28T09:20:27Z</time>
      </trkpt>
      <trkpt lat="43.10666" lon="1.95704">
        <ele>401.8</ele>
        <time>2026-05-28T09:20:32Z</time>
      </trkpt>
      <trkpt lat="43.10667" lon="1.95694">
        <ele>401</ele>
        <time>2026-05-28T09:20:37Z</time>
      </trkpt>
      <trkpt lat="43.10667" lon="1.95688">
        <ele>400.5</ele>
        <time>2026-05-28T09:20:42Z</time>
      </trkpt>
      <trkpt lat="43.10669" lon="1.9568">
        <ele>399.8</ele>
        <time>2026-05-28T09:20:47Z</time>
      </trkpt>
      <trkpt lat="43.10671" lon="1.95671">
        <ele>399.1</ele>
        <time>2026-05-28T09:20:52Z</time>
      </trkpt>
      <trkpt lat="43.10672" lon="1.95663">
        <ele>398.5</ele>
        <time>2026-05-28T09:20:57Z</time>
      </trkpt>
      <trkpt lat="43.10673" lon="1.95653">
        <ele>398</ele>
        <time>2026-05-28T09:21:02Z</time>
      </trkpt>
      <trkpt lat="43.10675" lon="1.95643">
        <ele>397.4</ele>
        <time>2026-05-28T09:21:07Z</time>
      </trkpt>
      <trkpt lat="43.10678" lon="1.95633">
        <ele>396.7</ele>
        <time>2026-05-28T09:21:12Z</time>
      </trkpt>
      <trkpt lat="43.10681" lon="1.95626">
        <ele>396.1</ele>
        <time>2026-05-28T09:21:17Z</time>
      </trkpt>
      <trkpt lat="43.10683" lon="1.95617">
        <ele>395.4</ele>
        <time>2026-05-28T09:21:22Z</time>
      </trkpt>
      <trkpt lat="43.10686" lon="1.9561">
        <ele>394.7</ele>
        <time>2026-05-28T09:21:27Z</time>
      </trkpt>
      <trkpt lat="43.10688" lon="1.95603">
        <ele>394.1</ele>
        <time>2026-05-28T09:21:32Z</time>
      </trkpt>
      <trkpt lat="43.10691" lon="1.95596">
        <ele>393.3</ele>
        <time>2026-05-28T09:21:37Z</time>
      </trkpt>
      <trkpt lat="43.10695" lon="1.95588">
        <ele>392.2</ele>
        <time>2026-05-28T09:21:42Z</time>
      </trkpt>
      <trkpt lat="43.10699" lon="1.9558">
        <ele>391.4</ele>
        <time>2026-05-28T09:21:47Z</time>
      </trkpt>
      <trkpt lat="43.10704" lon="1.95573">
        <ele>390.6</ele>
        <time>2026-05-28T09:21:52Z</time>
      </trkpt>
      <trkpt lat="43.1071" lon="1.95566">
        <ele>389.7</ele>
        <time>2026-05-28T09:21:57Z</time>
      </trkpt>
      <trkpt lat="43.10715" lon="1.95562">
        <ele>389</ele>
        <time>2026-05-28T09:22:02Z</time>
      </trkpt>
      <trkpt lat="43.1072" lon="1.95556">
        <ele>388.1</ele>
        <time>2026-05-28T09:22:07Z</time>
      </trkpt>
      <trkpt lat="43.10724" lon="1.9555">
        <ele>387.4</ele>
        <time>2026-05-28T09:22:12Z</time>
      </trkpt>
      <trkpt lat="43.1073" lon="1.95543">
        <ele>386.4</ele>
        <time>2026-05-28T09:22:17Z</time>
      </trkpt>
      <trkpt lat="43.10734" lon="1.95536">
        <ele>385.6</ele>
        <time>2026-05-28T09:22:22Z</time>
      </trkpt>
      <trkpt lat="43.10738" lon="1.9553">
        <ele>384.8</ele>
        <time>2026-05-28T09:22:27Z</time>
      </trkpt>
      <trkpt lat="43.10742" lon="1.95523">
        <ele>384</ele>
        <time>2026-05-28T09:22:32Z</time>
      </trkpt>
      <trkpt lat="43.10746" lon="1.95516">
        <ele>383.1</ele>
        <time>2026-05-28T09:22:37Z</time>
      </trkpt>
      <trkpt lat="43.10749" lon="1.9551">
        <ele>382.4</ele>
        <time>2026-05-28T09:22:42Z</time>
      </trkpt>
      <trkpt lat="43.10753" lon="1.95502">
        <ele>381.8</ele>
        <time>2026-05-28T09:22:47Z</time>
      </trkpt>
      <trkpt lat="43.10758" lon="1.95496">
        <ele>381.7</ele>
        <time>2026-05-28T09:22:52Z</time>
      </trkpt>
      <trkpt lat="43.10762" lon="1.95489">
        <ele>382.2</ele>
        <time>2026-05-28T09:22:57Z</time>
      </trkpt>
      <trkpt lat="43.10766" lon="1.95483">
        <ele>382.6</ele>
        <time>2026-05-28T09:23:02Z</time>
      </trkpt>
      <trkpt lat="43.1077" lon="1.95476">
        <ele>383</ele>
        <time>2026-05-28T09:23:07Z</time>
      </trkpt>
      <trkpt lat="43.10774" lon="1.95468">
        <ele>383.5</ele>
        <time>2026-05-28T09:23:12Z</time>
      </trkpt>
      <trkpt lat="43.10778" lon="1.95461">
        <ele>383.8</ele>
        <time>2026-05-28T09:23:17Z</time>
      </trkpt>
      <trkpt lat="43.10781" lon="1.95454">
        <ele>384.3</ele>
        <time>2026-05-28T09:23:22Z</time>
      </trkpt>
      <trkpt lat="43.10785" lon="1.95448">
        <ele>384.5</ele>
        <time>2026-05-28T09:23:27Z</time>
      </trkpt>
      <trkpt lat="43.1079" lon="1.95442">
        <ele>384.5</ele>
        <time>2026-05-28T09:23:32Z</time>
      </trkpt>
      <trkpt lat="43.10794" lon="1.95437">
        <ele>384.5</ele>
        <time>2026-05-28T09:23:37Z</time>
      </trkpt>
      <trkpt lat="43.10799" lon="1.95432">
        <ele>384.4</ele>
        <time>2026-05-28T09:23:42Z</time>
      </trkpt>
      <trkpt lat="43.10805" lon="1.95428">
        <ele>383.9</ele>
        <time>2026-05-28T09:23:47Z</time>
      </trkpt>
      <trkpt lat="43.10808" lon="1.95429">
        <ele>383.4</ele>
        <time>2026-05-28T09:23:52Z</time>
      </trkpt>
      <trkpt lat="43.10813" lon="1.95427">
        <ele>382.9</ele>
        <time>2026-05-28T09:23:57Z</time>
      </trkpt>
      <trkpt lat="43.10819" lon="1.95424">
        <ele>382.4</ele>
        <time>2026-05-28T09:24:02Z</time>
      </trkpt>
      <trkpt lat="43.10826" lon="1.95422">
        <ele>381.6</ele>
        <time>2026-05-28T09:24:07Z</time>
      </trkpt>
      <trkpt lat="43.10832" lon="1.95419">
        <ele>381</ele>
        <time>2026-05-28T09:24:12Z</time>
      </trkpt>
      <trkpt lat="43.10837" lon="1.95418">
        <ele>380.6</ele>
        <time>2026-05-28T09:24:17Z</time>
      </trkpt>
      <trkpt lat="43.10842" lon="1.95413">
        <ele>380.9</ele>
        <time>2026-05-28T09:24:22Z</time>
      </trkpt>
      <trkpt lat="43.10849" lon="1.9541">
        <ele>380.8</ele>
        <time>2026-05-28T09:24:27Z</time>
      </trkpt>
      <trkpt lat="43.10854" lon="1.95407">
        <ele>380.8</ele>
        <time>2026-05-28T09:24:32Z</time>
      </trkpt>
      <trkpt lat="43.10864" lon="1.95404">
        <ele>380.4</ele>
        <time>2026-05-28T09:24:37Z</time>
      </trkpt>
      <trkpt lat="43.10873" lon="1.95399">
        <ele>380.3</ele>
        <time>2026-05-28T09:24:42Z</time>
      </trkpt>
      <trkpt lat="43.10879" lon="1.95395">
        <ele>380.4</ele>
        <time>2026-05-28T09:24:47Z</time>
      </trkpt>
      <trkpt lat="43.10884" lon="1.95391">
        <ele>380.5</ele>
        <time>2026-05-28T09:24:52Z</time>
      </trkpt>
      <trkpt lat="43.10889" lon="1.95387">
        <ele>380.6</ele>
        <time>2026-05-28T09:24:57Z</time>
      </trkpt>
      <trkpt lat="43.10895" lon="1.95382">
        <ele>380.7</ele>
        <time>2026-05-28T09:25:02Z</time>
      </trkpt>
      <trkpt lat="43.10899" lon="1.95378">
        <ele>380.9</ele>
        <time>2026-05-28T09:25:07Z</time>
      </trkpt>
      <trkpt lat="43.10902" lon="1.95374">
        <ele>381.1</ele>
        <time>2026-05-28T09:25:12Z</time>
      </trkpt>
      <trkpt lat="43.10907" lon="1.95371">
        <ele>381</ele>
        <time>2026-05-28T09:25:17Z</time>
      </trkpt>
      <trkpt lat="43.10913" lon="1.95367">
        <ele>380.9</ele>
        <time>2026-05-28T09:25:22Z</time>
      </trkpt>
      <trkpt lat="43.10921" lon="1.95363">
        <ele>380.6</ele>
        <time>2026-05-28T09:25:27Z</time>
      </trkpt>
      <trkpt lat="43.10929" lon="1.95358">
        <ele>380.4</ele>
        <time>2026-05-28T09:25:32Z</time>
      </trkpt>
      <trkpt lat="43.10936" lon="1.95353">
        <ele>380.3</ele>
        <time>2026-05-28T09:25:37Z</time>
      </trkpt>
      <trkpt lat="43.10943" lon="1.95348">
        <ele>380.2</ele>
        <time>2026-05-28T09:25:42Z</time>
      </trkpt>
      <trkpt lat="43.1095" lon="1.95342">
        <ele>380.3</ele>
        <time>2026-05-28T09:25:47Z</time>
      </trkpt>
      <trkpt lat="43.10954" lon="1.95341">
        <ele>380</ele>
        <time>2026-05-28T09:25:52Z</time>
      </trkpt>
      <trkpt lat="43.10959" lon="1.95338">
        <ele>379.8</ele>
        <time>2026-05-28T09:25:57Z</time>
      </trkpt>
      <trkpt lat="43.10965" lon="1.95331">
        <ele>380.1</ele>
        <time>2026-05-28T09:26:02Z</time>
      </trkpt>
      <trkpt lat="43.10972" lon="1.95325">
        <ele>380.2</ele>
        <time>2026-05-28T09:26:07Z</time>
      </trkpt>
      <trkpt lat="43.10977" lon="1.95321">
        <ele>380.2</ele>
        <time>2026-05-28T09:26:12Z</time>
      </trkpt>
      <trkpt lat="43.10982" lon="1.95315">
        <ele>380.4</ele>
        <time>2026-05-28T09:26:17Z</time>
      </trkpt>
      <trkpt lat="43.10987" lon="1.95308">
        <ele>380.8</ele>
        <time>2026-05-28T09:26:22Z</time>
      </trkpt>
      <trkpt lat="43.10991" lon="1.953">
        <ele>381.4</ele>
        <time>2026-05-28T09:26:27Z</time>
      </trkpt>
      <trkpt lat="43.10996" lon="1.95292">
        <ele>381.9</ele>
        <time>2026-05-28T09:26:32Z</time>
      </trkpt>
      <trkpt lat="43.11" lon="1.95284">
        <ele>382.5</ele>
        <time>2026-05-28T09:26:37Z</time>
      </trkpt>
      <trkpt lat="43.11005" lon="1.95277">
        <ele>382.4</ele>
        <time>2026-05-28T09:26:42Z</time>
      </trkpt>
      <trkpt lat="43.11008" lon="1.9527">
        <ele>382.6</ele>
        <time>2026-05-28T09:26:47Z</time>
      </trkpt>
      <trkpt lat="43.11011" lon="1.95261">
        <ele>383</ele>
        <time>2026-05-28T09:26:52Z</time>
      </trkpt>
      <trkpt lat="43.11015" lon="1.95253">
        <ele>383</ele>
        <time>2026-05-28T09:26:57Z</time>
      </trkpt>
      <trkpt lat="43.11018" lon="1.95247">
        <ele>382.6</ele>
        <time>2026-05-28T09:27:02Z</time>
      </trkpt>
      <trkpt lat="43.11021" lon="1.95237">
        <ele>381.7</ele>
        <time>2026-05-28T09:27:07Z</time>
      </trkpt>
      <trkpt lat="43.11025" lon="1.9523">
        <ele>380.7</ele>
        <time>2026-05-28T09:27:12Z</time>
      </trkpt>
      <trkpt lat="43.11028" lon="1.95222">
        <ele>379.9</ele>
        <time>2026-05-28T09:27:17Z</time>
      </trkpt>
      <trkpt lat="43.11031" lon="1.95214">
        <ele>379.2</ele>
        <time>2026-05-28T09:27:22Z</time>
      </trkpt>
      <trkpt lat="43.11034" lon="1.95206">
        <ele>378.5</ele>
        <time>2026-05-28T09:27:27Z</time>
      </trkpt>
      <trkpt lat="43.11037" lon="1.95199">
        <ele>377.9</ele>
        <time>2026-05-28T09:27:32Z</time>
      </trkpt>
      <trkpt lat="43.1104" lon="1.95191">
        <ele>377.3</ele>
        <time>2026-05-28T09:27:37Z</time>
      </trkpt>
      <trkpt lat="43.11044" lon="1.95183">
        <ele>376.6</ele>
        <time>2026-05-28T09:27:42Z</time>
      </trkpt>
      <trkpt lat="43.11047" lon="1.95175">
        <ele>376.1</ele>
        <time>2026-05-28T09:27:47Z</time>
      </trkpt>
      <trkpt lat="43.1105" lon="1.95164">
        <ele>375.4</ele>
        <time>2026-05-28T09:27:52Z</time>
      </trkpt>
      <trkpt lat="43.11052" lon="1.95154">
        <ele>374.1</ele>
        <time>2026-05-28T09:27:57Z</time>
      </trkpt>
      <trkpt lat="43.11054" lon="1.95145">
        <ele>373.1</ele>
        <time>2026-05-28T09:28:02Z</time>
      </trkpt>
      <trkpt lat="43.11056" lon="1.95137">
        <ele>372.1</ele>
        <time>2026-05-28T09:28:07Z</time>
      </trkpt>
      <trkpt lat="43.11057" lon="1.9513">
        <ele>371.4</ele>
        <time>2026-05-28T09:28:12Z</time>
      </trkpt>
      <trkpt lat="43.11058" lon="1.95122">
        <ele>370.6</ele>
        <time>2026-05-28T09:28:17Z</time>
      </trkpt>
      <trkpt lat="43.1106" lon="1.95113">
        <ele>369.7</ele>
        <time>2026-05-28T09:28:22Z</time>
      </trkpt>
      <trkpt lat="43.11063" lon="1.95102">
        <ele>368.6</ele>
        <time>2026-05-28T09:28:27Z</time>
      </trkpt>
      <trkpt lat="43.11066" lon="1.95093">
        <ele>367.7</ele>
        <time>2026-05-28T09:28:32Z</time>
      </trkpt>
      <trkpt lat="43.11067" lon="1.95085">
        <ele>367.1</ele>
        <time>2026-05-28T09:28:37Z</time>
      </trkpt>
      <trkpt lat="43.11068" lon="1.95077">
        <ele>366.7</ele>
        <time>2026-05-28T09:28:42Z</time>
      </trkpt>
      <trkpt lat="43.11068" lon="1.95069">
        <ele>366.3</ele>
        <time>2026-05-28T09:28:47Z</time>
      </trkpt>
      <trkpt lat="43.1107" lon="1.95058">
        <ele>365.8</ele>
        <time>2026-05-28T09:28:52Z</time>
      </trkpt>
      <trkpt lat="43.11071" lon="1.9505">
        <ele>365.4</ele>
        <time>2026-05-28T09:28:57Z</time>
      </trkpt>
      <trkpt lat="43.11073" lon="1.9504">
        <ele>364.9</ele>
        <time>2026-05-28T09:29:02Z</time>
      </trkpt>
      <trkpt lat="43.11075" lon="1.95031">
        <ele>364.5</ele>
        <time>2026-05-28T09:29:07Z</time>
      </trkpt>
      <trkpt lat="43.11076" lon="1.95023">
        <ele>364.1</ele>
        <time>2026-05-28T09:29:12Z</time>
      </trkpt>
      <trkpt lat="43.11078" lon="1.95016">
        <ele>363.8</ele>
        <time>2026-05-28T09:29:17Z</time>
      </trkpt>
      <trkpt lat="43.11079" lon="1.95009">
        <ele>363.5</ele>
        <time>2026-05-28T09:29:22Z</time>
      </trkpt>
      <trkpt lat="43.11081" lon="1.95001">
        <ele>363.1</ele>
        <time>2026-05-28T09:29:27Z</time>
      </trkpt>
      <trkpt lat="43.11083" lon="1.94994">
        <ele>363.7</ele>
        <time>2026-05-28T09:29:32Z</time>
      </trkpt>
      <trkpt lat="43.11085" lon="1.94987">
        <ele>364.3</ele>
        <time>2026-05-28T09:29:37Z</time>
      </trkpt>
      <trkpt lat="43.11086" lon="1.94981">
        <ele>364.8</ele>
        <time>2026-05-28T09:29:42Z</time>
      </trkpt>
      <trkpt lat="43.11089" lon="1.94974">
        <ele>365.4</ele>
        <time>2026-05-28T09:29:47Z</time>
      </trkpt>
      <trkpt lat="43.1109" lon="1.94966">
        <ele>366.1</ele>
        <time>2026-05-28T09:29:52Z</time>
      </trkpt>
      <trkpt lat="43.11094" lon="1.94959">
        <ele>366.6</ele>
        <time>2026-05-28T09:29:57Z</time>
      </trkpt>
      <trkpt lat="43.11099" lon="1.94952">
        <ele>367</ele>
        <time>2026-05-28T09:30:02Z</time>
      </trkpt>
      <trkpt lat="43.11103" lon="1.94946">
        <ele>367.3</ele>
        <time>2026-05-28T09:30:07Z</time>
      </trkpt>
      <trkpt lat="43.11106" lon="1.94938">
        <ele>368</ele>
        <time>2026-05-28T09:30:12Z</time>
      </trkpt>
      <trkpt lat="43.11109" lon="1.94928">
        <ele>368.9</ele>
        <time>2026-05-28T09:30:17Z</time>
      </trkpt>
      <trkpt lat="43.11114" lon="1.94921">
        <ele>369.3</ele>
        <time>2026-05-28T09:30:22Z</time>
      </trkpt>
      <trkpt lat="43.11118" lon="1.94914">
        <ele>370</ele>
        <time>2026-05-28T09:30:27Z</time>
      </trkpt>
      <trkpt lat="43.11121" lon="1.94907">
        <ele>371</ele>
        <time>2026-05-28T09:30:32Z</time>
      </trkpt>
      <trkpt lat="43.11126" lon="1.949">
        <ele>371.8</ele>
        <time>2026-05-28T09:30:37Z</time>
      </trkpt>
      <trkpt lat="43.1113" lon="1.94893">
        <ele>372.8</ele>
        <time>2026-05-28T09:30:42Z</time>
      </trkpt>
      <trkpt lat="43.11134" lon="1.94888">
        <ele>373.4</ele>
        <time>2026-05-28T09:30:47Z</time>
      </trkpt>
      <trkpt lat="43.11137" lon="1.9488">
        <ele>374.6</ele>
        <time>2026-05-28T09:30:52Z</time>
      </trkpt>
      <trkpt lat="43.11141" lon="1.94872">
        <ele>375.7</ele>
        <time>2026-05-28T09:30:57Z</time>
      </trkpt>
      <trkpt lat="43.11145" lon="1.94865">
        <ele>376.7</ele>
        <time>2026-05-28T09:31:02Z</time>
      </trkpt>
      <trkpt lat="43.11147" lon="1.94858">
        <ele>377.8</ele>
        <time>2026-05-28T09:31:07Z</time>
      </trkpt>
      <trkpt lat="43.11152" lon="1.94851">
        <ele>378.7</ele>
        <time>2026-05-28T09:31:12Z</time>
      </trkpt>
      <trkpt lat="43.11156" lon="1.94845">
        <ele>379.6</ele>
        <time>2026-05-28T09:31:17Z</time>
      </trkpt>
      <trkpt lat="43.1116" lon="1.94837">
        <ele>380.7</ele>
        <time>2026-05-28T09:31:22Z</time>
      </trkpt>
      <trkpt lat="43.11166" lon="1.9483">
        <ele>380.8</ele>
        <time>2026-05-28T09:31:27Z</time>
      </trkpt>
      <trkpt lat="43.11168" lon="1.94822">
        <ele>379.7</ele>
        <time>2026-05-28T09:31:32Z</time>
      </trkpt>
      <trkpt lat="43.1117" lon="1.94813">
        <ele>378.4</ele>
        <time>2026-05-28T09:31:37Z</time>
      </trkpt>
      <trkpt lat="43.11175" lon="1.94804">
        <ele>376.4</ele>
        <time>2026-05-28T09:31:42Z</time>
      </trkpt>
      <trkpt lat="43.11177" lon="1.94797">
        <ele>375.4</ele>
        <time>2026-05-28T09:31:47Z</time>
      </trkpt>
      <trkpt lat="43.11178" lon="1.94789">
        <ele>374.6</ele>
        <time>2026-05-28T09:31:52Z</time>
      </trkpt>
      <trkpt lat="43.11179" lon="1.9478">
        <ele>373.7</ele>
        <time>2026-05-28T09:31:57Z</time>
      </trkpt>
      <trkpt lat="43.1118" lon="1.94772">
        <ele>373</ele>
        <time>2026-05-28T09:32:02Z</time>
      </trkpt>
      <trkpt lat="43.11181" lon="1.94764">
        <ele>372.2</ele>
        <time>2026-05-28T09:32:07Z</time>
      </trkpt>
      <trkpt lat="43.11181" lon="1.94754">
        <ele>371.5</ele>
        <time>2026-05-28T09:32:12Z</time>
      </trkpt>
      <trkpt lat="43.11183" lon="1.94744">
        <ele>370.3</ele>
        <time>2026-05-28T09:32:17Z</time>
      </trkpt>
      <trkpt lat="43.11184" lon="1.94736">
        <ele>369.4</ele>
        <time>2026-05-28T09:32:22Z</time>
      </trkpt>
      <trkpt lat="43.11186" lon="1.94727">
        <ele>368.3</ele>
        <time>2026-05-28T09:32:27Z</time>
      </trkpt>
      <trkpt lat="43.11188" lon="1.94718">
        <ele>367.1</ele>
        <time>2026-05-28T09:32:32Z</time>
      </trkpt>
      <trkpt lat="43.1119" lon="1.9471">
        <ele>366.1</ele>
        <time>2026-05-28T09:32:37Z</time>
      </trkpt>
      <trkpt lat="43.1119" lon="1.94701">
        <ele>365.3</ele>
        <time>2026-05-28T09:32:42Z</time>
      </trkpt>
      <trkpt lat="43.11191" lon="1.94692">
        <ele>364.4</ele>
        <time>2026-05-28T09:32:47Z</time>
      </trkpt>
      <trkpt lat="43.11194" lon="1.94684">
        <ele>363.2</ele>
        <time>2026-05-28T09:32:52Z</time>
      </trkpt>
      <trkpt lat="43.11195" lon="1.94675">
        <ele>362.3</ele>
        <time>2026-05-28T09:32:57Z</time>
      </trkpt>
      <trkpt lat="43.11198" lon="1.94666">
        <ele>361.1</ele>
        <time>2026-05-28T09:33:02Z</time>
      </trkpt>
      <trkpt lat="43.11199" lon="1.94658">
        <ele>361.4</ele>
        <time>2026-05-28T09:33:07Z</time>
      </trkpt>
      <trkpt lat="43.112" lon="1.94649">
        <ele>361.7</ele>
        <time>2026-05-28T09:33:12Z</time>
      </trkpt>
      <trkpt lat="43.112" lon="1.9464">
        <ele>362.1</ele>
        <time>2026-05-28T09:33:17Z</time>
      </trkpt>
      <trkpt lat="43.11201" lon="1.94631">
        <ele>362.4</ele>
        <time>2026-05-28T09:33:22Z</time>
      </trkpt>
      <trkpt lat="43.11202" lon="1.94622">
        <ele>362.6</ele>
        <time>2026-05-28T09:33:27Z</time>
      </trkpt>
      <trkpt lat="43.11202" lon="1.94614">
        <ele>363</ele>
        <time>2026-05-28T09:33:32Z</time>
      </trkpt>
      <trkpt lat="43.11201" lon="1.94605">
        <ele>363.7</ele>
        <time>2026-05-28T09:33:37Z</time>
      </trkpt>
      <trkpt lat="43.112" lon="1.94596">
        <ele>364.4</ele>
        <time>2026-05-28T09:33:42Z</time>
      </trkpt>
      <trkpt lat="43.112" lon="1.94588">
        <ele>364.8</ele>
        <time>2026-05-28T09:33:47Z</time>
      </trkpt>
      <trkpt lat="43.11199" lon="1.94579">
        <ele>365.5</ele>
        <time>2026-05-28T09:33:52Z</time>
      </trkpt>
      <trkpt lat="43.11198" lon="1.9457">
        <ele>366.4</ele>
        <time>2026-05-28T09:33:57Z</time>
      </trkpt>
      <trkpt lat="43.11197" lon="1.94564">
        <ele>367.1</ele>
        <time>2026-05-28T09:34:02Z</time>
      </trkpt>
      <trkpt lat="43.11197" lon="1.94559">
        <ele>367.5</ele>
        <time>2026-05-28T09:34:07Z</time>
      </trkpt>
      <trkpt lat="43.11195" lon="1.94552">
        <ele>368.6</ele>
        <time>2026-05-28T09:34:12Z</time>
      </trkpt>
      <trkpt lat="43.11193" lon="1.94545">
        <ele>369.7</ele>
        <time>2026-05-28T09:34:17Z</time>
      </trkpt>
      <trkpt lat="43.1119" lon="1.94538">
        <ele>371.2</ele>
        <time>2026-05-28T09:34:22Z</time>
      </trkpt>
      <trkpt lat="43.11188" lon="1.94531">
        <ele>372.4</ele>
        <time>2026-05-28T09:34:27Z</time>
      </trkpt>
      <trkpt lat="43.11186" lon="1.94525">
        <ele>373.6</ele>
        <time>2026-05-28T09:34:32Z</time>
      </trkpt>
      <trkpt lat="43.11183" lon="1.94519">
        <ele>375.1</ele>
        <time>2026-05-28T09:34:37Z</time>
      </trkpt>
      <trkpt lat="43.1118" lon="1.94513">
        <ele>376.8</ele>
        <time>2026-05-28T09:34:42Z</time>
      </trkpt>
      <trkpt lat="43.11179" lon="1.94506">
        <ele>377.8</ele>
        <time>2026-05-28T09:34:47Z</time>
      </trkpt>
      <trkpt lat="43.11177" lon="1.94499">
        <ele>379.2</ele>
        <time>2026-05-28T09:34:52Z</time>
      </trkpt>
      <trkpt lat="43.11175" lon="1.94491">
        <ele>380.1</ele>
        <time>2026-05-28T09:34:57Z</time>
      </trkpt>
      <trkpt lat="43.11173" lon="1.94484">
        <ele>381</ele>
        <time>2026-05-28T09:35:02Z</time>
      </trkpt>
      <trkpt lat="43.1117" lon="1.94475">
        <ele>382.3</ele>
        <time>2026-05-28T09:35:07Z</time>
      </trkpt>
      <trkpt lat="43.11168" lon="1.94467">
        <ele>383.3</ele>
        <time>2026-05-28T09:35:12Z</time>
      </trkpt>
      <trkpt lat="43.11167" lon="1.94459">
        <ele>383.9</ele>
        <time>2026-05-28T09:35:17Z</time>
      </trkpt>
      <trkpt lat="43.11165" lon="1.9445">
        <ele>384.3</ele>
        <time>2026-05-28T09:35:22Z</time>
      </trkpt>
      <trkpt lat="43.11163" lon="1.9444">
        <ele>384.7</ele>
        <time>2026-05-28T09:35:27Z</time>
      </trkpt>
      <trkpt lat="43.11161" lon="1.94433">
        <ele>385</ele>
        <time>2026-05-28T09:35:32Z</time>
      </trkpt>
      <trkpt lat="43.11161" lon="1.94423">
        <ele>385.2</ele>
        <time>2026-05-28T09:35:37Z</time>
      </trkpt>
      <trkpt lat="43.11159" lon="1.94414">
        <ele>385</ele>
        <time>2026-05-28T09:35:42Z</time>
      </trkpt>
      <trkpt lat="43.11158" lon="1.94405">
        <ele>384</ele>
        <time>2026-05-28T09:35:47Z</time>
      </trkpt>
      <trkpt lat="43.11158" lon="1.94395">
        <ele>382.7</ele>
        <time>2026-05-28T09:35:52Z</time>
      </trkpt>
      <trkpt lat="43.11157" lon="1.94386">
        <ele>381.7</ele>
        <time>2026-05-28T09:35:57Z</time>
      </trkpt>
      <trkpt lat="43.11154" lon="1.94378">
        <ele>380.8</ele>
        <time>2026-05-28T09:36:02Z</time>
      </trkpt>
      <trkpt lat="43.11152" lon="1.9437">
        <ele>379.8</ele>
        <time>2026-05-28T09:36:07Z</time>
      </trkpt>
      <trkpt lat="43.11152" lon="1.94361">
        <ele>378.7</ele>
        <time>2026-05-28T09:36:12Z</time>
      </trkpt>
      <trkpt lat="43.11151" lon="1.94354">
        <ele>377.8</ele>
        <time>2026-05-28T09:36:17Z</time>
      </trkpt>
      <trkpt lat="43.11149" lon="1.94346">
        <ele>376.8</ele>
        <time>2026-05-28T09:36:22Z</time>
      </trkpt>
      <trkpt lat="43.11148" lon="1.94337">
        <ele>375.7</ele>
        <time>2026-05-28T09:36:27Z</time>
      </trkpt>
      <trkpt lat="43.11148" lon="1.94329">
        <ele>374.3</ele>
        <time>2026-05-28T09:36:32Z</time>
      </trkpt>
      <trkpt lat="43.11147" lon="1.9432">
        <ele>372.4</ele>
        <time>2026-05-28T09:36:37Z</time>
      </trkpt>
      <trkpt lat="43.11146" lon="1.94312">
        <ele>370.7</ele>
        <time>2026-05-28T09:36:42Z</time>
      </trkpt>
      <trkpt lat="43.11143" lon="1.94304">
        <ele>369</ele>
        <time>2026-05-28T09:36:47Z</time>
      </trkpt>
      <trkpt lat="43.11143" lon="1.94294">
        <ele>366.9</ele>
        <time>2026-05-28T09:36:52Z</time>
      </trkpt>
      <trkpt lat="43.11143" lon="1.94285">
        <ele>365</ele>
        <time>2026-05-28T09:36:57Z</time>
      </trkpt>
      <trkpt lat="43.11142" lon="1.94277">
        <ele>363.3</ele>
        <time>2026-05-28T09:37:02Z</time>
      </trkpt>
      <trkpt lat="43.1114" lon="1.94268">
        <ele>361.5</ele>
        <time>2026-05-28T09:37:07Z</time>
      </trkpt>
      <trkpt lat="43.11137" lon="1.94259">
        <ele>359.6</ele>
        <time>2026-05-28T09:37:12Z</time>
      </trkpt>
      <trkpt lat="43.11136" lon="1.94248">
        <ele>357.5</ele>
        <time>2026-05-28T09:37:17Z</time>
      </trkpt>
      <trkpt lat="43.11135" lon="1.94237">
        <ele>356.2</ele>
        <time>2026-05-28T09:37:22Z</time>
      </trkpt>
      <trkpt lat="43.11134" lon="1.94229">
        <ele>355.2</ele>
        <time>2026-05-28T09:37:27Z</time>
      </trkpt>
      <trkpt lat="43.11132" lon="1.94222">
        <ele>354.4</ele>
        <time>2026-05-28T09:37:32Z</time>
      </trkpt>
      <trkpt lat="43.11131" lon="1.94213">
        <ele>353.4</ele>
        <time>2026-05-28T09:37:37Z</time>
      </trkpt>
      <trkpt lat="43.1113" lon="1.94205">
        <ele>352.4</ele>
        <time>2026-05-28T09:37:42Z</time>
      </trkpt>
      <trkpt lat="43.11129" lon="1.94199">
        <ele>351.7</ele>
        <time>2026-05-28T09:37:47Z</time>
      </trkpt>
      <trkpt lat="43.11129" lon="1.94194">
        <ele>351.1</ele>
        <time>2026-05-28T09:37:52Z</time>
      </trkpt>
      <trkpt lat="43.11128" lon="1.94193">
        <ele>351</ele>
        <time>2026-05-28T09:37:57Z</time>
      </trkpt>
      <trkpt lat="43.11128" lon="1.94193">
        <ele>351</ele>
        <time>2026-05-28T09:38:02Z</time>
      </trkpt>
      <trkpt lat="43.11128" lon="1.94193">
        <ele>351</ele>
        <time>2026-05-28T09:38:07Z</time>
      </trkpt>
      <trkpt lat="43.11128" lon="1.94193">
        <ele>351</ele>
        <time>2026-05-28T09:38:12Z</time>
      </trkpt>
      <trkpt lat="43.11127" lon="1.94181">
        <ele>349.6</ele>
        <time>2026-05-28T09:38:17Z</time>
      </trkpt>
      <trkpt lat="43.11126" lon="1.94174">
        <ele>348.8</ele>
        <time>2026-05-28T09:38:22Z</time>
      </trkpt>
      <trkpt lat="43.11125" lon="1.9417">
        <ele>348.4</ele>
        <time>2026-05-28T09:38:27Z</time>
      </trkpt>
      <trkpt lat="43.11125" lon="1.94169">
        <ele>348.3</ele>
        <time>2026-05-28T09:38:32Z</time>
      </trkpt>
      <trkpt lat="43.11125" lon="1.94169">
        <ele>348.3</ele>
        <time>2026-05-28T09:38:37Z</time>
      </trkpt>
      <trkpt lat="43.11125" lon="1.94169">
        <ele>348.3</ele>
        <time>2026-05-28T09:38:42Z</time>
      </trkpt>
      <trkpt lat="43.11125" lon="1.94169">
        <ele>348.3</ele>
        <time>2026-05-28T09:38:47Z</time>
      </trkpt>
      <trkpt lat="43.11125" lon="1.94169">
        <ele>348.3</ele>
        <time>2026-05-28T09:38:52Z</time>
      </trkpt>
      <trkpt lat="43.11125" lon="1.94169">
        <ele>348.3</ele>
        <time>2026-05-28T09:38:57Z</time>
      </trkpt>
      <trkpt lat="43.11125" lon="1.94169">
        <ele>348.3</ele>
        <time>2026-05-28T09:39:02Z</time>
      </trkpt>
      <trkpt lat="43.11125" lon="1.94169">
        <ele>348.3</ele>
        <time>2026-05-28T09:39:07Z</time>
      </trkpt>
      <trkpt lat="43.11125" lon="1.94169">
        <ele>348.3</ele>
        <time>2026-05-28T09:39:12Z</time>
      </trkpt>
      <trkpt lat="43.11125" lon="1.94169">
        <ele>348.3</ele>
        <time>2026-05-28T09:39:17Z</time>
      </trkpt>
      <trkpt lat="43.11125" lon="1.94169">
        <ele>348.3</ele>
        <time>2026-05-28T09:39:22Z</time>
      </trkpt>
      <trkpt lat="43.11125" lon="1.94169">
        <ele>348.3</ele>
        <time>2026-05-28T09:39:27Z</time>
      </trkpt>
      <trkpt lat="43.11125" lon="1.94169">
        <ele>348.3</ele>
        <time>2026-05-28T09:39:32Z</time>
      </trkpt>
      <trkpt lat="43.11125" lon="1.94169">
        <ele>348.3</ele>
        <time>2026-05-28T09:39:37Z</time>
      </trkpt>
      <trkpt lat="43.11125" lon="1.94169">
        <ele>348.3</ele>
        <time>2026-05-28T09:39:42Z</time>
      </trkpt>
      <trkpt lat="43.11125" lon="1.94169">
        <ele>348.3</ele>
        <time>2026-05-28T09:39:47Z</time>
      </trkpt>
      <trkpt lat="43.11125" lon="1.94169">
        <ele>348.3</ele>
        <time>2026-05-28T09:39:52Z</time>
      </trkpt>
      <trkpt lat="43.11125" lon="1.94169">
        <ele>348.3</ele>
        <time>2026-05-28T09:39:57Z</time>
      </trkpt>
      <trkpt lat="43.11125" lon="1.94169">
        <ele>348.3</ele>
        <time>2026-05-28T09:40:02Z</time>
      </trkpt>
      <trkpt lat="43.11125" lon="1.94169">
        <ele>348.3</ele>
        <time>2026-05-28T09:40:07Z</time>
      </trkpt>
      <trkpt lat="43.11125" lon="1.94169">
        <ele>348.3</ele>
        <time>2026-05-28T09:40:12Z</time>
      </trkpt>
      <trkpt lat="43.11125" lon="1.94169">
        <ele>348.3</ele>
        <time>2026-05-28T09:40:17Z</time>
      </trkpt>
      <trkpt lat="43.11125" lon="1.94169">
        <ele>348.3</ele>
        <time>2026-05-28T09:40:22Z</time>
      </trkpt>
      <trkpt lat="43.11125" lon="1.94169">
        <ele>348.3</ele>
        <time>2026-05-28T09:40:27Z</time>
      </trkpt>
      <trkpt lat="43.11125" lon="1.94169">
        <ele>348.3</ele>
        <time>2026-05-28T09:40:32Z</time>
      </trkpt>
      <trkpt lat="43.11125" lon="1.94169">
        <ele>348.3</ele>
        <time>2026-05-28T09:40:37Z</time>
      </trkpt>
      <trkpt lat="43.11125" lon="1.94169">
        <ele>348.3</ele>
        <time>2026-05-28T09:40:42Z</time>
      </trkpt>
      <trkpt lat="43.11125" lon="1.94169">
        <ele>348.3</ele>
        <time>2026-05-28T09:40:47Z</time>
      </trkpt>
      <trkpt lat="43.11125" lon="1.94169">
        <ele>348.3</ele>
        <time>2026-05-28T09:40:52Z</time>
      </trkpt>
      <trkpt lat="43.11125" lon="1.94169">
        <ele>348.3</ele>
        <time>2026-05-28T09:40:57Z</time>
      </trkpt>
      <trkpt lat="43.11125" lon="1.94169">
        <ele>348.3</ele>
        <time>2026-05-28T09:41:02Z</time>
      </trkpt>
      <trkpt lat="43.11125" lon="1.94169">
        <ele>348.3</ele>
        <time>2026-05-28T09:41:07Z</time>
      </trkpt>
      <trkpt lat="43.11125" lon="1.94169">
        <ele>348.3</ele>
        <time>2026-05-28T09:41:12Z</time>
      </trkpt>
      <trkpt lat="43.11125" lon="1.94169">
        <ele>348.3</ele>
        <time>2026-05-28T09:41:17Z</time>
      </trkpt>
      <trkpt lat="43.11125" lon="1.94169">
        <ele>348.3</ele>
        <time>2026-05-28T09:41:22Z</time>
      </trkpt>
      <trkpt lat="43.11125" lon="1.94169">
        <ele>348.3</ele>
        <time>2026-05-28T09:41:27Z</time>
      </trkpt>
      <trkpt lat="43.11125" lon="1.94169">
        <ele>348.3</ele>
        <time>2026-05-28T09:41:32Z</time>
      </trkpt>
      <trkpt lat="43.11125" lon="1.94169">
        <ele>348.3</ele>
        <time>2026-05-28T09:41:37Z</time>
      </trkpt>
      <trkpt lat="43.11125" lon="1.94169">
        <ele>348.3</ele>
        <time>2026-05-28T09:41:42Z</time>
      </trkpt>
      <trkpt lat="43.11125" lon="1.94169">
        <ele>348.3</ele>
        <time>2026-05-28T09:41:47Z</time>
      </trkpt>
      <trkpt lat="43.11122" lon="1.94163">
        <ele>348</ele>
        <time>2026-05-28T09:41:52Z</time>
      </trkpt>
      <trkpt lat="43.11121" lon="1.94156">
        <ele>347.8</ele>
        <time>2026-05-28T09:41:57Z</time>
      </trkpt>
      <trkpt lat="43.11121" lon="1.94149">
        <ele>347.5</ele>
        <time>2026-05-28T09:42:02Z</time>
      </trkpt>
      <trkpt lat="43.11121" lon="1.94142">
        <ele>347.2</ele>
        <time>2026-05-28T09:42:07Z</time>
      </trkpt>
      <trkpt lat="43.11121" lon="1.94134">
        <ele>346.9</ele>
        <time>2026-05-28T09:42:12Z</time>
      </trkpt>
      <trkpt lat="43.11119" lon="1.94128">
        <ele>346.8</ele>
        <time>2026-05-28T09:42:17Z</time>
      </trkpt>
      <trkpt lat="43.11118" lon="1.94121">
        <ele>346.6</ele>
        <time>2026-05-28T09:42:22Z</time>
      </trkpt>
      <trkpt lat="43.11118" lon="1.94114">
        <ele>346.4</ele>
        <time>2026-05-28T09:42:27Z</time>
      </trkpt>
      <trkpt lat="43.11117" lon="1.94106">
        <ele>346.2</ele>
        <time>2026-05-28T09:42:32Z</time>
      </trkpt>
      <trkpt lat="43.11116" lon="1.94098">
        <ele>346</ele>
        <time>2026-05-28T09:42:37Z</time>
      </trkpt>
      <trkpt lat="43.11116" lon="1.9409">
        <ele>345.7</ele>
        <time>2026-05-28T09:42:42Z</time>
      </trkpt>
      <trkpt lat="43.11115" lon="1.94081">
        <ele>345.6</ele>
        <time>2026-05-28T09:42:47Z</time>
      </trkpt>
      <trkpt lat="43.11115" lon="1.94072">
        <ele>345.7</ele>
        <time>2026-05-28T09:42:52Z</time>
      </trkpt>
      <trkpt lat="43.11115" lon="1.94065">
        <ele>345.7</ele>
        <time>2026-05-28T09:42:57Z</time>
      </trkpt>
      <trkpt lat="43.11115" lon="1.94059">
        <ele>345.8</ele>
        <time>2026-05-28T09:43:02Z</time>
      </trkpt>
      <trkpt lat="43.11114" lon="1.9405">
        <ele>345.9</ele>
        <time>2026-05-28T09:43:07Z</time>
      </trkpt>
      <trkpt lat="43.11113" lon="1.9404">
        <ele>346.1</ele>
        <time>2026-05-28T09:43:12Z</time>
      </trkpt>
      <trkpt lat="43.11111" lon="1.9403">
        <ele>346.4</ele>
        <time>2026-05-28T09:43:17Z</time>
      </trkpt>
      <trkpt lat="43.1111" lon="1.94021">
        <ele>346.6</ele>
        <time>2026-05-28T09:43:22Z</time>
      </trkpt>
      <trkpt lat="43.11112" lon="1.94012">
        <ele>346.5</ele>
        <time>2026-05-28T09:43:27Z</time>
      </trkpt>
      <trkpt lat="43.11112" lon="1.94007">
        <ele>346.5</ele>
        <time>2026-05-28T09:43:32Z</time>
      </trkpt>
      <trkpt lat="43.11112" lon="1.94004">
        <ele>346.5</ele>
        <time>2026-05-28T09:43:37Z</time>
      </trkpt>
      <trkpt lat="43.11112" lon="1.94004">
        <ele>346.5</ele>
        <time>2026-05-28T09:43:42Z</time>
      </trkpt>
      <trkpt lat="43.11114" lon="1.94004">
        <ele>346.3</ele>
        <time>2026-05-28T09:43:47Z</time>
      </trkpt>
      <trkpt lat="43.11114" lon="1.94004">
        <ele>346.3</ele>
        <time>2026-05-28T09:43:52Z</time>
      </trkpt>
      <trkpt lat="43.11117" lon="1.94002">
        <ele>345.9</ele>
        <time>2026-05-28T09:43:57Z</time>
      </trkpt>
      <trkpt lat="43.11123" lon="1.94004">
        <ele>345.2</ele>
        <time>2026-05-28T09:44:02Z</time>
      </trkpt>
      <trkpt lat="43.11128" lon="1.94004">
        <ele>344.6</ele>
        <time>2026-05-28T09:44:07Z</time>
      </trkpt>
      <trkpt lat="43.11128" lon="1.94004">
        <ele>344.6</ele>
        <time>2026-05-28T09:44:12Z</time>
      </trkpt>
      <trkpt lat="43.11127" lon="1.94005">
        <ele>344.7</ele>
        <time>2026-05-28T09:44:17Z</time>
      </trkpt>
      <trkpt lat="43.11123" lon="1.94006">
        <ele>345.2</ele>
        <time>2026-05-28T09:44:22Z</time>
      </trkpt>
      <trkpt lat="43.11118" lon="1.94006">
        <ele>345.8</ele>
        <time>2026-05-28T09:44:27Z</time>
      </trkpt>
      <trkpt lat="43.11113" lon="1.94007">
        <ele>346.4</ele>
        <time>2026-05-28T09:44:32Z</time>
      </trkpt>
      <trkpt lat="43.1111" lon="1.94006">
        <ele>346.8</ele>
        <time>2026-05-28T09:44:37Z</time>
      </trkpt>
      <trkpt lat="43.1111" lon="1.94005">
        <ele>346.8</ele>
        <time>2026-05-28T09:44:42Z</time>
      </trkpt>
      <trkpt lat="43.1111" lon="1.94006">
        <ele>346.8</ele>
        <time>2026-05-28T09:44:47Z</time>
      </trkpt>
      <trkpt lat="43.11111" lon="1.94008">
        <ele>346.6</ele>
        <time>2026-05-28T09:44:52Z</time>
      </trkpt>
      <trkpt lat="43.11117" lon="1.94006">
        <ele>345.9</ele>
        <time>2026-05-28T09:44:57Z</time>
      </trkpt>
      <trkpt lat="43.11123" lon="1.94003">
        <ele>345.2</ele>
        <time>2026-05-28T09:45:02Z</time>
      </trkpt>
      <trkpt lat="43.11128" lon="1.94002">
        <ele>344.6</ele>
        <time>2026-05-28T09:45:07Z</time>
      </trkpt>
      <trkpt lat="43.11135" lon="1.94004">
        <ele>343.8</ele>
        <time>2026-05-28T09:45:12Z</time>
      </trkpt>
      <trkpt lat="43.11141" lon="1.94005">
        <ele>343.1</ele>
        <time>2026-05-28T09:45:17Z</time>
      </trkpt>
      <trkpt lat="43.11147" lon="1.94004">
        <ele>342.3</ele>
        <time>2026-05-28T09:45:22Z</time>
      </trkpt>
      <trkpt lat="43.11154" lon="1.94004">
        <ele>341.5</ele>
        <time>2026-05-28T09:45:27Z</time>
      </trkpt>
      <trkpt lat="43.1116" lon="1.94004">
        <ele>340.8</ele>
        <time>2026-05-28T09:45:32Z</time>
      </trkpt>
      <trkpt lat="43.11166" lon="1.94005">
        <ele>340.1</ele>
        <time>2026-05-28T09:45:37Z</time>
      </trkpt>
      <trkpt lat="43.11172" lon="1.94005">
        <ele>339.8</ele>
        <time>2026-05-28T09:45:42Z</time>
      </trkpt>
      <trkpt lat="43.11176" lon="1.94005">
        <ele>339.7</ele>
        <time>2026-05-28T09:45:47Z</time>
      </trkpt>
      <trkpt lat="43.11181" lon="1.94006">
        <ele>339.5</ele>
        <time>2026-05-28T09:45:52Z</time>
      </trkpt>
      <trkpt lat="43.11186" lon="1.94006">
        <ele>339.3</ele>
        <time>2026-05-28T09:45:57Z</time>
      </trkpt>
      <trkpt lat="43.11192" lon="1.94006">
        <ele>339.1</ele>
        <time>2026-05-28T09:46:02Z</time>
      </trkpt>
      <trkpt lat="43.11198" lon="1.94005">
        <ele>338.9</ele>
        <time>2026-05-28T09:46:07Z</time>
      </trkpt>
      <trkpt lat="43.11203" lon="1.94001">
        <ele>338.7</ele>
        <time>2026-05-28T09:46:12Z</time>
      </trkpt>
      <trkpt lat="43.11206" lon="1.93994">
        <ele>338.5</ele>
        <time>2026-05-28T09:46:17Z</time>
      </trkpt>
      <trkpt lat="43.11209" lon="1.93985">
        <ele>338.2</ele>
        <time>2026-05-28T09:46:22Z</time>
      </trkpt>
      <trkpt lat="43.11212" lon="1.93978">
        <ele>338</ele>
        <time>2026-05-28T09:46:27Z</time>
      </trkpt>
      <trkpt lat="43.11214" lon="1.9397">
        <ele>337.8</ele>
        <time>2026-05-28T09:46:32Z</time>
      </trkpt>
      <trkpt lat="43.11216" lon="1.93962">
        <ele>337.6</ele>
        <time>2026-05-28T09:46:37Z</time>
      </trkpt>
      <trkpt lat="43.11217" lon="1.93951">
        <ele>337.4</ele>
        <time>2026-05-28T09:46:42Z</time>
      </trkpt>
      <trkpt lat="43.11217" lon="1.93942">
        <ele>337.2</ele>
        <time>2026-05-28T09:46:47Z</time>
      </trkpt>
      <trkpt lat="43.11217" lon="1.93931">
        <ele>337</ele>
        <time>2026-05-28T09:46:52Z</time>
      </trkpt>
      <trkpt lat="43.11216" lon="1.93922">
        <ele>336.9</ele>
        <time>2026-05-28T09:46:57Z</time>
      </trkpt>
      <trkpt lat="43.11215" lon="1.93914">
        <ele>336.8</ele>
        <time>2026-05-28T09:47:02Z</time>
      </trkpt>
      <trkpt lat="43.11214" lon="1.93913">
        <ele>336.8</ele>
        <time>2026-05-28T09:47:07Z</time>
      </trkpt>
      <trkpt lat="43.11212" lon="1.93909">
        <ele>336.8</ele>
        <time>2026-05-28T09:47:12Z</time>
      </trkpt>
      <trkpt lat="43.11212" lon="1.93904">
        <ele>336.7</ele>
        <time>2026-05-28T09:47:17Z</time>
      </trkpt>
      <trkpt lat="43.11215" lon="1.93895">
        <ele>336.5</ele>
        <time>2026-05-28T09:47:22Z</time>
      </trkpt>
      <trkpt lat="43.11215" lon="1.93885">
        <ele>336.3</ele>
        <time>2026-05-28T09:47:27Z</time>
      </trkpt>
      <trkpt lat="43.11212" lon="1.93877">
        <ele>336.2</ele>
        <time>2026-05-28T09:47:32Z</time>
      </trkpt>
      <trkpt lat="43.11211" lon="1.9387">
        <ele>336.1</ele>
        <time>2026-05-28T09:47:37Z</time>
      </trkpt>
      <trkpt lat="43.1121" lon="1.93862">
        <ele>336</ele>
        <time>2026-05-28T09:47:42Z</time>
      </trkpt>
      <trkpt lat="43.11208" lon="1.93854">
        <ele>335.9</ele>
        <time>2026-05-28T09:47:47Z</time>
      </trkpt>
      <trkpt lat="43.11207" lon="1.93846">
        <ele>335.7</ele>
        <time>2026-05-28T09:47:52Z</time>
      </trkpt>
      <trkpt lat="43.11207" lon="1.93838">
        <ele>335.6</ele>
        <time>2026-05-28T09:47:57Z</time>
      </trkpt>
      <trkpt lat="43.11205" lon="1.93831">
        <ele>335.5</ele>
        <time>2026-05-28T09:48:02Z</time>
      </trkpt>
      <trkpt lat="43.11205" lon="1.93825">
        <ele>335.4</ele>
        <time>2026-05-28T09:48:07Z</time>
      </trkpt>
      <trkpt lat="43.11204" lon="1.93815">
        <ele>335.4</ele>
        <time>2026-05-28T09:48:12Z</time>
      </trkpt>
      <trkpt lat="43.11202" lon="1.93806">
        <ele>335.3</ele>
        <time>2026-05-28T09:48:17Z</time>
      </trkpt>
      <trkpt lat="43.11201" lon="1.93797">
        <ele>335.2</ele>
        <time>2026-05-28T09:48:22Z</time>
      </trkpt>
      <trkpt lat="43.11198" lon="1.93788">
        <ele>335.2</ele>
        <time>2026-05-28T09:48:27Z</time>
      </trkpt>
      <trkpt lat="43.11195" lon="1.9378">
        <ele>335.2</ele>
        <time>2026-05-28T09:48:32Z</time>
      </trkpt>
      <trkpt lat="43.11189" lon="1.93771">
        <ele>335.3</ele>
        <time>2026-05-28T09:48:37Z</time>
      </trkpt>
      <trkpt lat="43.11185" lon="1.93763">
        <ele>335.4</ele>
        <time>2026-05-28T09:48:42Z</time>
      </trkpt>
      <trkpt lat="43.11181" lon="1.93755">
        <ele>335.5</ele>
        <time>2026-05-28T09:48:47Z</time>
      </trkpt>
      <trkpt lat="43.11179" lon="1.93746">
        <ele>335.5</ele>
        <time>2026-05-28T09:48:52Z</time>
      </trkpt>
      <trkpt lat="43.11176" lon="1.93736">
        <ele>335.5</ele>
        <time>2026-05-28T09:48:57Z</time>
      </trkpt>
      <trkpt lat="43.11174" lon="1.93728">
        <ele>335.5</ele>
        <time>2026-05-28T09:49:02Z</time>
      </trkpt>
      <trkpt lat="43.11172" lon="1.93718">
        <ele>335.4</ele>
        <time>2026-05-28T09:49:07Z</time>
      </trkpt>
      <trkpt lat="43.11171" lon="1.93709">
        <ele>335.4</ele>
        <time>2026-05-28T09:49:12Z</time>
      </trkpt>
      <trkpt lat="43.11172" lon="1.937">
        <ele>335.2</ele>
        <time>2026-05-28T09:49:17Z</time>
      </trkpt>
      <trkpt lat="43.11172" lon="1.9369">
        <ele>335.1</ele>
        <time>2026-05-28T09:49:22Z</time>
      </trkpt>
      <trkpt lat="43.11172" lon="1.93683">
        <ele>335.1</ele>
        <time>2026-05-28T09:49:27Z</time>
      </trkpt>
      <trkpt lat="43.1117" lon="1.93674">
        <ele>335</ele>
        <time>2026-05-28T09:49:32Z</time>
      </trkpt>
      <trkpt lat="43.1117" lon="1.93666">
        <ele>334.9</ele>
        <time>2026-05-28T09:49:37Z</time>
      </trkpt>
      <trkpt lat="43.11168" lon="1.93658">
        <ele>335</ele>
        <time>2026-05-28T09:49:42Z</time>
      </trkpt>
      <trkpt lat="43.11165" lon="1.93648">
        <ele>335.2</ele>
        <time>2026-05-28T09:49:47Z</time>
      </trkpt>
      <trkpt lat="43.11163" lon="1.93641">
        <ele>335.4</ele>
        <time>2026-05-28T09:49:52Z</time>
      </trkpt>
      <trkpt lat="43.1116" lon="1.93635">
        <ele>335.7</ele>
        <time>2026-05-28T09:49:57Z</time>
      </trkpt>
      <trkpt lat="43.11155" lon="1.93628">
        <ele>336.1</ele>
        <time>2026-05-28T09:50:02Z</time>
      </trkpt>
      <trkpt lat="43.1115" lon="1.93624">
        <ele>336.6</ele>
        <time>2026-05-28T09:50:07Z</time>
      </trkpt>
      <trkpt lat="43.11143" lon="1.93619">
        <ele>337.2</ele>
        <time>2026-05-28T09:50:12Z</time>
      </trkpt>
      <trkpt lat="43.11138" lon="1.93612">
        <ele>337.6</ele>
        <time>2026-05-28T09:50:17Z</time>
      </trkpt>
      <trkpt lat="43.11135" lon="1.93606">
        <ele>337.9</ele>
        <time>2026-05-28T09:50:22Z</time>
      </trkpt>
      <trkpt lat="43.11131" lon="1.93598">
        <ele>338.1</ele>
        <time>2026-05-28T09:50:27Z</time>
      </trkpt>
      <trkpt lat="43.11127" lon="1.93591">
        <ele>338.4</ele>
        <time>2026-05-28T09:50:32Z</time>
      </trkpt>
      <trkpt lat="43.11123" lon="1.93581">
        <ele>338.6</ele>
        <time>2026-05-28T09:50:37Z</time>
      </trkpt>
      <trkpt lat="43.11121" lon="1.93573">
        <ele>338.3</ele>
        <time>2026-05-28T09:50:42Z</time>
      </trkpt>
      <trkpt lat="43.11119" lon="1.93566">
        <ele>338.1</ele>
        <time>2026-05-28T09:50:47Z</time>
      </trkpt>
      <trkpt lat="43.11118" lon="1.93561">
        <ele>337.9</ele>
        <time>2026-05-28T09:50:52Z</time>
      </trkpt>
      <trkpt lat="43.11116" lon="1.93553">
        <ele>337.6</ele>
        <time>2026-05-28T09:50:57Z</time>
      </trkpt>
      <trkpt lat="43.11114" lon="1.93543">
        <ele>337.2</ele>
        <time>2026-05-28T09:51:02Z</time>
      </trkpt>
      <trkpt lat="43.11113" lon="1.93534">
        <ele>336.8</ele>
        <time>2026-05-28T09:51:07Z</time>
      </trkpt>
      <trkpt lat="43.11112" lon="1.93526">
        <ele>336.4</ele>
        <time>2026-05-28T09:51:12Z</time>
      </trkpt>
      <trkpt lat="43.11113" lon="1.93516">
        <ele>335.8</ele>
        <time>2026-05-28T09:51:17Z</time>
      </trkpt>
      <trkpt lat="43.11115" lon="1.93507">
        <ele>335.2</ele>
        <time>2026-05-28T09:51:22Z</time>
      </trkpt>
      <trkpt lat="43.11116" lon="1.93499">
        <ele>334.8</ele>
        <time>2026-05-28T09:51:27Z</time>
      </trkpt>
      <trkpt lat="43.11118" lon="1.9349">
        <ele>334.6</ele>
        <time>2026-05-28T09:51:32Z</time>
      </trkpt>
      <trkpt lat="43.1112" lon="1.93482">
        <ele>334.3</ele>
        <time>2026-05-28T09:51:37Z</time>
      </trkpt>
      <trkpt lat="43.11122" lon="1.93474">
        <ele>334.1</ele>
        <time>2026-05-28T09:51:42Z</time>
      </trkpt>
      <trkpt lat="43.11124" lon="1.93466">
        <ele>333.9</ele>
        <time>2026-05-28T09:51:47Z</time>
      </trkpt>
      <trkpt lat="43.11126" lon="1.93457">
        <ele>333.7</ele>
        <time>2026-05-28T09:51:52Z</time>
      </trkpt>
      <trkpt lat="43.11128" lon="1.93449">
        <ele>333.5</ele>
        <time>2026-05-28T09:51:57Z</time>
      </trkpt>
      <trkpt lat="43.11129" lon="1.9344">
        <ele>333.3</ele>
        <time>2026-05-28T09:52:02Z</time>
      </trkpt>
      <trkpt lat="43.1113" lon="1.93431">
        <ele>333.1</ele>
        <time>2026-05-28T09:52:07Z</time>
      </trkpt>
      <trkpt lat="43.11132" lon="1.93423">
        <ele>332.9</ele>
        <time>2026-05-28T09:52:12Z</time>
      </trkpt>
      <trkpt lat="43.11133" lon="1.9342">
        <ele>332.9</ele>
        <time>2026-05-28T09:52:17Z</time>
      </trkpt>
      <trkpt lat="43.11133" lon="1.9342">
        <ele>332.9</ele>
        <time>2026-05-28T09:52:22Z</time>
      </trkpt>
      <trkpt lat="43.11133" lon="1.9342">
        <ele>332.9</ele>
        <time>2026-05-28T09:52:27Z</time>
      </trkpt>
      <trkpt lat="43.11133" lon="1.9342">
        <ele>332.9</ele>
        <time>2026-05-28T09:52:32Z</time>
      </trkpt>
      <trkpt lat="43.11133" lon="1.9342">
        <ele>332.9</ele>
        <time>2026-05-28T09:52:37Z</time>
      </trkpt>
      <trkpt lat="43.11133" lon="1.9342">
        <ele>332.9</ele>
        <time>2026-05-28T09:52:42Z</time>
      </trkpt>
      <trkpt lat="43.11132" lon="1.93418">
        <ele>332.9</ele>
        <time>2026-05-28T09:52:47Z</time>
      </trkpt>
      <trkpt lat="43.11134" lon="1.93412">
        <ele>332.7</ele>
        <time>2026-05-28T09:52:52Z</time>
      </trkpt>
      <trkpt lat="43.11135" lon="1.93406">
        <ele>332.5</ele>
        <time>2026-05-28T09:52:57Z</time>
      </trkpt>
      <trkpt lat="43.11136" lon="1.934">
        <ele>332.3</ele>
        <time>2026-05-28T09:53:02Z</time>
      </trkpt>
      <trkpt lat="43.11137" lon="1.93395">
        <ele>332.2</ele>
        <time>2026-05-28T09:53:07Z</time>
      </trkpt>
      <trkpt lat="43.11137" lon="1.93387">
        <ele>332</ele>
        <time>2026-05-28T09:53:12Z</time>
      </trkpt>
      <trkpt lat="43.11138" lon="1.93379">
        <ele>331.8</ele>
        <time>2026-05-28T09:53:17Z</time>
      </trkpt>
      <trkpt lat="43.11139" lon="1.93371">
        <ele>331.6</ele>
        <time>2026-05-28T09:53:22Z</time>
      </trkpt>
      <trkpt lat="43.11139" lon="1.93364">
        <ele>331.4</ele>
        <time>2026-05-28T09:53:27Z</time>
      </trkpt>
      <trkpt lat="43.11141" lon="1.93357">
        <ele>331.2</ele>
        <time>2026-05-28T09:53:32Z</time>
      </trkpt>
      <trkpt lat="43.11143" lon="1.9335">
        <ele>331</ele>
        <time>2026-05-28T09:53:37Z</time>
      </trkpt>
      <trkpt lat="43.11144" lon="1.93343">
        <ele>330.8</ele>
        <time>2026-05-28T09:53:42Z</time>
      </trkpt>
      <trkpt lat="43.11146" lon="1.93337">
        <ele>330.6</ele>
        <time>2026-05-28T09:53:47Z</time>
      </trkpt>
      <trkpt lat="43.11148" lon="1.9333">
        <ele>330.5</ele>
        <time>2026-05-28T09:53:52Z</time>
      </trkpt>
      <trkpt lat="43.1115" lon="1.93323">
        <ele>330.5</ele>
        <time>2026-05-28T09:53:57Z</time>
      </trkpt>
      <trkpt lat="43.11151" lon="1.93317">
        <ele>330.6</ele>
        <time>2026-05-28T09:54:02Z</time>
      </trkpt>
      <trkpt lat="43.11153" lon="1.93311">
        <ele>330.7</ele>
        <time>2026-05-28T09:54:07Z</time>
      </trkpt>
      <trkpt lat="43.11154" lon="1.93305">
        <ele>330.8</ele>
        <time>2026-05-28T09:54:12Z</time>
      </trkpt>
      <trkpt lat="43.11155" lon="1.93299">
        <ele>330.9</ele>
        <time>2026-05-28T09:54:17Z</time>
      </trkpt>
      <trkpt lat="43.11156" lon="1.93293">
        <ele>331</ele>
        <time>2026-05-28T09:54:22Z</time>
      </trkpt>
      <trkpt lat="43.11157" lon="1.93287">
        <ele>331.1</ele>
        <time>2026-05-28T09:54:27Z</time>
      </trkpt>
      <trkpt lat="43.11159" lon="1.9328">
        <ele>331.2</ele>
        <time>2026-05-28T09:54:32Z</time>
      </trkpt>
      <trkpt lat="43.1116" lon="1.93274">
        <ele>331.4</ele>
        <time>2026-05-28T09:54:37Z</time>
      </trkpt>
      <trkpt lat="43.11161" lon="1.93268">
        <ele>331.5</ele>
        <time>2026-05-28T09:54:42Z</time>
      </trkpt>
      <trkpt lat="43.11162" lon="1.93262">
        <ele>331.6</ele>
        <time>2026-05-28T09:54:47Z</time>
      </trkpt>
      <trkpt lat="43.11163" lon="1.93256">
        <ele>331.8</ele>
        <time>2026-05-28T09:54:52Z</time>
      </trkpt>
      <trkpt lat="43.11165" lon="1.93249">
        <ele>332</ele>
        <time>2026-05-28T09:54:57Z</time>
      </trkpt>
      <trkpt lat="43.11165" lon="1.93243">
        <ele>332.3</ele>
        <time>2026-05-28T09:55:02Z</time>
      </trkpt>
      <trkpt lat="43.11165" lon="1.93236">
        <ele>332.6</ele>
        <time>2026-05-28T09:55:07Z</time>
      </trkpt>
      <trkpt lat="43.11165" lon="1.9323">
        <ele>332.9</ele>
        <time>2026-05-28T09:55:12Z</time>
      </trkpt>
      <trkpt lat="43.11166" lon="1.93225">
        <ele>333.2</ele>
        <time>2026-05-28T09:55:17Z</time>
      </trkpt>
      <trkpt lat="43.11166" lon="1.93218">
        <ele>333.5</ele>
        <time>2026-05-28T09:55:22Z</time>
      </trkpt>
      <trkpt lat="43.11164" lon="1.93213">
        <ele>333.6</ele>
        <time>2026-05-28T09:55:27Z</time>
      </trkpt>
      <trkpt lat="43.11163" lon="1.93208">
        <ele>333.8</ele>
        <time>2026-05-28T09:55:32Z</time>
      </trkpt>
      <trkpt lat="43.11162" lon="1.93203">
        <ele>334</ele>
        <time>2026-05-28T09:55:37Z</time>
      </trkpt>
      <trkpt lat="43.11159" lon="1.93198">
        <ele>334</ele>
        <time>2026-05-28T09:55:42Z</time>
      </trkpt>
      <trkpt lat="43.11156" lon="1.93196">
        <ele>333.8</ele>
        <time>2026-05-28T09:55:47Z</time>
      </trkpt>
      <trkpt lat="43.11152" lon="1.93192">
        <ele>333.7</ele>
        <time>2026-05-28T09:55:52Z</time>
      </trkpt>
      <trkpt lat="43.11148" lon="1.93189">
        <ele>333.5</ele>
        <time>2026-05-28T09:55:57Z</time>
      </trkpt>
      <trkpt lat="43.11143" lon="1.93187">
        <ele>333.2</ele>
        <time>2026-05-28T09:56:02Z</time>
      </trkpt>
      <trkpt lat="43.1114" lon="1.93184">
        <ele>333</ele>
        <time>2026-05-28T09:56:07Z</time>
      </trkpt>
      <trkpt lat="43.11136" lon="1.93181">
        <ele>332.7</ele>
        <time>2026-05-28T09:56:12Z</time>
      </trkpt>
      <trkpt lat="43.11132" lon="1.93176">
        <ele>332.5</ele>
        <time>2026-05-28T09:56:17Z</time>
      </trkpt>
      <trkpt lat="43.1113" lon="1.93169">
        <ele>332.4</ele>
        <time>2026-05-28T09:56:22Z</time>
      </trkpt>
      <trkpt lat="43.11127" lon="1.93164">
        <ele>332.2</ele>
        <time>2026-05-28T09:56:27Z</time>
      </trkpt>
      <trkpt lat="43.11124" lon="1.93158">
        <ele>332</ele>
        <time>2026-05-28T09:56:32Z</time>
      </trkpt>
      <trkpt lat="43.11121" lon="1.9315">
        <ele>331.8</ele>
        <time>2026-05-28T09:56:37Z</time>
      </trkpt>
      <trkpt lat="43.11118" lon="1.93144">
        <ele>331.6</ele>
        <time>2026-05-28T09:56:42Z</time>
      </trkpt>
      <trkpt lat="43.11115" lon="1.93137">
        <ele>331.4</ele>
        <time>2026-05-28T09:56:47Z</time>
      </trkpt>
      <trkpt lat="43.11112" lon="1.93132">
        <ele>331.2</ele>
        <time>2026-05-28T09:56:52Z</time>
      </trkpt>
      <trkpt lat="43.1111" lon="1.93125">
        <ele>331.1</ele>
        <time>2026-05-28T09:56:57Z</time>
      </trkpt>
      <trkpt lat="43.11108" lon="1.93118">
        <ele>331</ele>
        <time>2026-05-28T09:57:02Z</time>
      </trkpt>
      <trkpt lat="43.11105" lon="1.93111">
        <ele>330.7</ele>
        <time>2026-05-28T09:57:07Z</time>
      </trkpt>
      <trkpt lat="43.11103" lon="1.93105">
        <ele>330.6</ele>
        <time>2026-05-28T09:57:12Z</time>
      </trkpt>
      <trkpt lat="43.11102" lon="1.93097">
        <ele>330.6</ele>
        <time>2026-05-28T09:57:17Z</time>
      </trkpt>
      <trkpt lat="43.111" lon="1.93091">
        <ele>330.5</ele>
        <time>2026-05-28T09:57:22Z</time>
      </trkpt>
      <trkpt lat="43.11098" lon="1.93087">
        <ele>330.4</ele>
        <time>2026-05-28T09:57:27Z</time>
      </trkpt>
      <trkpt lat="43.11098" lon="1.93083">
        <ele>330.4</ele>
        <time>2026-05-28T09:57:32Z</time>
      </trkpt>
      <trkpt lat="43.11096" lon="1.9308">
        <ele>330.3</ele>
        <time>2026-05-28T09:57:37Z</time>
      </trkpt>
      <trkpt lat="43.11096" lon="1.9308">
        <ele>330.3</ele>
        <time>2026-05-28T09:57:42Z</time>
      </trkpt>
      <trkpt lat="43.11096" lon="1.9308">
        <ele>330.3</ele>
        <time>2026-05-28T09:57:47Z</time>
      </trkpt>
      <trkpt lat="43.11096" lon="1.9308">
        <ele>330.3</ele>
        <time>2026-05-28T09:57:52Z</time>
      </trkpt>
      <trkpt lat="43.11096" lon="1.9308">
        <ele>330.3</ele>
        <time>2026-05-28T09:57:57Z</time>
      </trkpt>
      <trkpt lat="43.11096" lon="1.9308">
        <ele>330.3</ele>
        <time>2026-05-28T09:58:02Z</time>
      </trkpt>
      <trkpt lat="43.11096" lon="1.9308">
        <ele>330.3</ele>
        <time>2026-05-28T09:58:07Z</time>
      </trkpt>
      <trkpt lat="43.11096" lon="1.9308">
        <ele>330.3</ele>
        <time>2026-05-28T09:58:12Z</time>
      </trkpt>
      <trkpt lat="43.11096" lon="1.9308">
        <ele>330.3</ele>
        <time>2026-05-28T09:58:17Z</time>
      </trkpt>
      <trkpt lat="43.11096" lon="1.9308">
        <ele>330.3</ele>
        <time>2026-05-28T09:58:22Z</time>
      </trkpt>
      <trkpt lat="43.11093" lon="1.93075">
        <ele>330.2</ele>
        <time>2026-05-28T09:58:27Z</time>
      </trkpt>
      <trkpt lat="43.1109" lon="1.93069">
        <ele>330.2</ele>
        <time>2026-05-28T09:58:32Z</time>
      </trkpt>
      <trkpt lat="43.11087" lon="1.93063">
        <ele>330.1</ele>
        <time>2026-05-28T09:58:37Z</time>
      </trkpt>
      <trkpt lat="43.11084" lon="1.93058">
        <ele>330</ele>
        <time>2026-05-28T09:58:42Z</time>
      </trkpt>
      <trkpt lat="43.11081" lon="1.93053">
        <ele>330</ele>
        <time>2026-05-28T09:58:47Z</time>
      </trkpt>
      <trkpt lat="43.11078" lon="1.93047">
        <ele>330.1</ele>
        <time>2026-05-28T09:58:52Z</time>
      </trkpt>
      <trkpt lat="43.11076" lon="1.93042">
        <ele>330.2</ele>
        <time>2026-05-28T09:58:57Z</time>
      </trkpt>
      <trkpt lat="43.11072" lon="1.93036">
        <ele>330.3</ele>
        <time>2026-05-28T09:59:02Z</time>
      </trkpt>
      <trkpt lat="43.11069" lon="1.93031">
        <ele>330.3</ele>
        <time>2026-05-28T09:59:07Z</time>
      </trkpt>
      <trkpt lat="43.11066" lon="1.93027">
        <ele>330.3</ele>
        <time>2026-05-28T09:59:12Z</time>
      </trkpt>
      <trkpt lat="43.11065" lon="1.93021">
        <ele>330.5</ele>
        <time>2026-05-28T09:59:17Z</time>
      </trkpt>
      <trkpt lat="43.11062" lon="1.93015">
        <ele>330.5</ele>
        <time>2026-05-28T09:59:22Z</time>
      </trkpt>
      <trkpt lat="43.1106" lon="1.9301">
        <ele>330.6</ele>
        <time>2026-05-28T09:59:27Z</time>
      </trkpt>
      <trkpt lat="43.11057" lon="1.93004">
        <ele>330.6</ele>
        <time>2026-05-28T09:59:32Z</time>
      </trkpt>
      <trkpt lat="43.11056" lon="1.93002">
        <ele>330.6</ele>
        <time>2026-05-28T09:59:37Z</time>
      </trkpt>
      <trkpt lat="43.11056" lon="1.93003">
        <ele>330.6</ele>
        <time>2026-05-28T09:59:42Z</time>
      </trkpt>
      <trkpt lat="43.11054" lon="1.93003">
        <ele>330.5</ele>
        <time>2026-05-28T09:59:47Z</time>
      </trkpt>
      <trkpt lat="43.11051" lon="1.93003">
        <ele>330.4</ele>
        <time>2026-05-28T09:59:52Z</time>
      </trkpt>
      <trkpt lat="43.11046" lon="1.93004">
        <ele>330.1</ele>
        <time>2026-05-28T09:59:57Z</time>
      </trkpt>
      <trkpt lat="43.11044" lon="1.93009">
        <ele>329.9</ele>
        <time>2026-05-28T10:00:02Z</time>
      </trkpt>
      <trkpt lat="43.11043" lon="1.93015">
        <ele>329.7</ele>
        <time>2026-05-28T10:00:07Z</time>
      </trkpt>
      <trkpt lat="43.11043" lon="1.93017">
        <ele>329.6</ele>
        <time>2026-05-28T10:00:12Z</time>
      </trkpt>
      <trkpt lat="43.11043" lon="1.93018">
        <ele>329.6</ele>
        <time>2026-05-28T10:00:17Z</time>
      </trkpt>
      <trkpt lat="43.11043" lon="1.93018">
        <ele>329.6</ele>
        <time>2026-05-28T10:00:22Z</time>
      </trkpt>
      <trkpt lat="43.11043" lon="1.93018">
        <ele>329.6</ele>
        <time>2026-05-28T10:00:27Z</time>
      </trkpt>
      <trkpt lat="43.11043" lon="1.93018">
        <ele>329.6</ele>
        <time>2026-05-28T10:00:32Z</time>
      </trkpt>
      <trkpt lat="43.11043" lon="1.93018">
        <ele>329.6</ele>
        <time>2026-05-28T10:00:37Z</time>
      </trkpt>
      <trkpt lat="43.11043" lon="1.93018">
        <ele>329.6</ele>
        <time>2026-05-28T10:00:42Z</time>
      </trkpt>
      <trkpt lat="43.11043" lon="1.93018">
        <ele>329.6</ele>
        <time>2026-05-28T10:00:47Z</time>
      </trkpt>
      <trkpt lat="43.11043" lon="1.93018">
        <ele>329.6</ele>
        <time>2026-05-28T10:00:52Z</time>
      </trkpt>
      <trkpt lat="43.11043" lon="1.93018">
        <ele>329.6</ele>
        <time>2026-05-28T10:00:57Z</time>
      </trkpt>
      <trkpt lat="43.11043" lon="1.93018">
        <ele>329.6</ele>
        <time>2026-05-28T10:01:02Z</time>
      </trkpt>
      <trkpt lat="43.11043" lon="1.93018">
        <ele>329.6</ele>
        <time>2026-05-28T10:01:07Z</time>
      </trkpt>
      <trkpt lat="43.11043" lon="1.93018">
        <ele>329.6</ele>
        <time>2026-05-28T10:01:12Z</time>
      </trkpt>
      <trkpt lat="43.11043" lon="1.93018">
        <ele>329.6</ele>
        <time>2026-05-28T10:01:17Z</time>
      </trkpt>
      <trkpt lat="43.11043" lon="1.93018">
        <ele>329.6</ele>
        <time>2026-05-28T10:01:22Z</time>
      </trkpt>
      <trkpt lat="43.11043" lon="1.93018">
        <ele>329.6</ele>
        <time>2026-05-28T10:01:27Z</time>
      </trkpt>
      <trkpt lat="43.11036" lon="1.93021">
        <ele>329.3</ele>
        <time>2026-05-28T10:01:32Z</time>
      </trkpt>
      <trkpt lat="43.11034" lon="1.93026">
        <ele>329.1</ele>
        <time>2026-05-28T10:01:37Z</time>
      </trkpt>
      <trkpt lat="43.11035" lon="1.93027">
        <ele>329.1</ele>
        <time>2026-05-28T10:01:42Z</time>
      </trkpt>
      <trkpt lat="43.11036" lon="1.93028">
        <ele>329.1</ele>
        <time>2026-05-28T10:01:47Z</time>
      </trkpt>
      <trkpt lat="43.11036" lon="1.93028">
        <ele>329.1</ele>
        <time>2026-05-28T10:01:52Z</time>
      </trkpt>
      <trkpt lat="43.11036" lon="1.93028">
        <ele>329.1</ele>
        <time>2026-05-28T10:01:57Z</time>
      </trkpt>
      <trkpt lat="43.11036" lon="1.93028">
        <ele>329.1</ele>
        <time>2026-05-28T10:02:02Z</time>
      </trkpt>
      <trkpt lat="43.11036" lon="1.93028">
        <ele>329.1</ele>
        <time>2026-05-28T10:02:07Z</time>
      </trkpt>
      <trkpt lat="43.11034" lon="1.93039">
        <ele>328.8</ele>
        <time>2026-05-28T10:02:12Z</time>
      </trkpt>
      <trkpt lat="43.11037" lon="1.93043">
        <ele>328.8</ele>
        <time>2026-05-28T10:02:17Z</time>
      </trkpt>
      <trkpt lat="43.11041" lon="1.93048">
        <ele>328.8</ele>
        <time>2026-05-28T10:02:22Z</time>
      </trkpt>
      <trkpt lat="43.11045" lon="1.93051">
        <ele>328.9</ele>
        <time>2026-05-28T10:02:27Z</time>
      </trkpt>
      <trkpt lat="43.11045" lon="1.93052">
        <ele>328.9</ele>
        <time>2026-05-28T10:02:32Z</time>
      </trkpt>
      <trkpt lat="43.11046" lon="1.93052">
        <ele>328.9</ele>
        <time>2026-05-28T10:02:37Z</time>
      </trkpt>
      <trkpt lat="43.1105" lon="1.93049">
        <ele>329.1</ele>
        <time>2026-05-28T10:02:42Z</time>
      </trkpt>
      <trkpt lat="43.11054" lon="1.93046">
        <ele>329.3</ele>
        <time>2026-05-28T10:02:47Z</time>
      </trkpt>
      <trkpt lat="43.11058" lon="1.9304">
        <ele>329.6</ele>
        <time>2026-05-28T10:02:52Z</time>
      </trkpt>
      <trkpt lat="43.1106" lon="1.93036">
        <ele>329.8</ele>
        <time>2026-05-28T10:02:57Z</time>
      </trkpt>
      <trkpt lat="43.11062" lon="1.93035">
        <ele>329.9</ele>
        <time>2026-05-28T10:03:02Z</time>
      </trkpt>
      <trkpt lat="43.11066" lon="1.93039">
        <ele>330</ele>
        <time>2026-05-28T10:03:07Z</time>
      </trkpt>
      <trkpt lat="43.11065" lon="1.9304">
        <ele>329.9</ele>
        <time>2026-05-28T10:03:12Z</time>
      </trkpt>
      <trkpt lat="43.11064" lon="1.93039">
        <ele>329.9</ele>
        <time>2026-05-28T10:03:17Z</time>
      </trkpt>
      <trkpt lat="43.11062" lon="1.93037">
        <ele>329.9</ele>
        <time>2026-05-28T10:03:22Z</time>
      </trkpt>
      <trkpt lat="43.11063" lon="1.93031">
        <ele>330.1</ele>
        <time>2026-05-28T10:03:27Z</time>
      </trkpt>
      <trkpt lat="43.11061" lon="1.93025">
        <ele>330.2</ele>
        <time>2026-05-28T10:03:32Z</time>
      </trkpt>
      <trkpt lat="43.11058" lon="1.9302">
        <ele>330.2</ele>
        <time>2026-05-28T10:03:37Z</time>
      </trkpt>
      <trkpt lat="43.11056" lon="1.93014">
        <ele>330.3</ele>
        <time>2026-05-28T10:03:42Z</time>
      </trkpt>
      <trkpt lat="43.11055" lon="1.93007">
        <ele>330.4</ele>
        <time>2026-05-28T10:03:47Z</time>
      </trkpt>
      <trkpt lat="43.11056" lon="1.93">
        <ele>330.7</ele>
        <time>2026-05-28T10:03:52Z</time>
      </trkpt>
      <trkpt lat="43.11053" lon="1.92993">
        <ele>330.5</ele>
        <time>2026-05-28T10:03:57Z</time>
      </trkpt>
      <trkpt lat="43.1105" lon="1.92986">
        <ele>330.3</ele>
        <time>2026-05-28T10:04:02Z</time>
      </trkpt>
      <trkpt lat="43.11047" lon="1.9298">
        <ele>330.2</ele>
        <time>2026-05-28T10:04:07Z</time>
      </trkpt>
      <trkpt lat="43.11044" lon="1.92974">
        <ele>330</ele>
        <time>2026-05-28T10:04:12Z</time>
      </trkpt>
      <trkpt lat="43.11043" lon="1.92973">
        <ele>329.9</ele>
        <time>2026-05-28T10:04:17Z</time>
      </trkpt>
      <trkpt lat="43.11043" lon="1.92973">
        <ele>329.9</ele>
        <time>2026-05-28T10:04:22Z</time>
      </trkpt>
      <trkpt lat="43.11043" lon="1.92973">
        <ele>329.9</ele>
        <time>2026-05-28T10:04:27Z</time>
      </trkpt>
      <trkpt lat="43.11043" lon="1.92973">
        <ele>329.9</ele>
        <time>2026-05-28T10:04:32Z</time>
      </trkpt>
      <trkpt lat="43.11042" lon="1.92966">
        <ele>329.8</ele>
        <time>2026-05-28T10:04:37Z</time>
      </trkpt>
      <trkpt lat="43.11039" lon="1.92959">
        <ele>329.6</ele>
        <time>2026-05-28T10:04:42Z</time>
      </trkpt>
      <trkpt lat="43.11036" lon="1.92952">
        <ele>329.4</ele>
        <time>2026-05-28T10:04:47Z</time>
      </trkpt>
      <trkpt lat="43.11032" lon="1.92944">
        <ele>329.1</ele>
        <time>2026-05-28T10:04:52Z</time>
      </trkpt>
      <trkpt lat="43.11029" lon="1.92936">
        <ele>328.9</ele>
        <time>2026-05-28T10:04:57Z</time>
      </trkpt>
      <trkpt lat="43.11026" lon="1.92929">
        <ele>328.7</ele>
        <time>2026-05-28T10:05:02Z</time>
      </trkpt>
      <trkpt lat="43.11025" lon="1.9292">
        <ele>328.5</ele>
        <time>2026-05-28T10:05:07Z</time>
      </trkpt>
      <trkpt lat="43.11024" lon="1.92911">
        <ele>328.3</ele>
        <time>2026-05-28T10:05:12Z</time>
      </trkpt>
      <trkpt lat="43.11023" lon="1.92901">
        <ele>328.1</ele>
        <time>2026-05-28T10:05:17Z</time>
      </trkpt>
      <trkpt lat="43.11022" lon="1.92894">
        <ele>327.8</ele>
        <time>2026-05-28T10:05:22Z</time>
      </trkpt>
      <trkpt lat="43.11022" lon="1.92886">
        <ele>327.7</ele>
        <time>2026-05-28T10:05:27Z</time>
      </trkpt>
      <trkpt lat="43.11024" lon="1.92877">
        <ele>327.6</ele>
        <time>2026-05-28T10:05:32Z</time>
      </trkpt>
      <trkpt lat="43.11024" lon="1.92869">
        <ele>327.5</ele>
        <time>2026-05-28T10:05:37Z</time>
      </trkpt>
      <trkpt lat="43.11025" lon="1.92861">
        <ele>327.4</ele>
        <time>2026-05-28T10:05:42Z</time>
      </trkpt>
      <trkpt lat="43.11025" lon="1.92854">
        <ele>327.2</ele>
        <time>2026-05-28T10:05:47Z</time>
      </trkpt>
      <trkpt lat="43.11027" lon="1.92844">
        <ele>327.2</ele>
        <time>2026-05-28T10:05:52Z</time>
      </trkpt>
      <trkpt lat="43.11027" lon="1.92835">
        <ele>327</ele>
        <time>2026-05-28T10:05:57Z</time>
      </trkpt>
      <trkpt lat="43.11028" lon="1.92827">
        <ele>327</ele>
        <time>2026-05-28T10:06:02Z</time>
      </trkpt>
      <trkpt lat="43.11029" lon="1.92817">
        <ele>327</ele>
        <time>2026-05-28T10:06:07Z</time>
      </trkpt>
      <trkpt lat="43.1103" lon="1.9281">
        <ele>327</ele>
        <time>2026-05-28T10:06:12Z</time>
      </trkpt>
      <trkpt lat="43.1103" lon="1.92802">
        <ele>327</ele>
        <time>2026-05-28T10:06:17Z</time>
      </trkpt>
      <trkpt lat="43.1103" lon="1.92793">
        <ele>326.9</ele>
        <time>2026-05-28T10:06:22Z</time>
      </trkpt>
      <trkpt lat="43.11031" lon="1.92785">
        <ele>326.9</ele>
        <time>2026-05-28T10:06:27Z</time>
      </trkpt>
      <trkpt lat="43.11033" lon="1.92775">
        <ele>327</ele>
        <time>2026-05-28T10:06:32Z</time>
      </trkpt>
      <trkpt lat="43.11034" lon="1.92767">
        <ele>326.9</ele>
        <time>2026-05-28T10:06:37Z</time>
      </trkpt>
      <trkpt lat="43.11034" lon="1.92758">
        <ele>326.9</ele>
        <time>2026-05-28T10:06:42Z</time>
      </trkpt>
      <trkpt lat="43.11034" lon="1.92749">
        <ele>326.8</ele>
        <time>2026-05-28T10:06:47Z</time>
      </trkpt>
      <trkpt lat="43.11035" lon="1.9274">
        <ele>326.8</ele>
        <time>2026-05-28T10:06:52Z</time>
      </trkpt>
      <trkpt lat="43.11036" lon="1.92732">
        <ele>326.7</ele>
        <time>2026-05-28T10:06:57Z</time>
      </trkpt>
      <trkpt lat="43.11036" lon="1.92723">
        <ele>326.7</ele>
        <time>2026-05-28T10:07:02Z</time>
      </trkpt>
      <trkpt lat="43.11037" lon="1.92715">
        <ele>326.7</ele>
        <time>2026-05-28T10:07:07Z</time>
      </trkpt>
      <trkpt lat="43.11037" lon="1.92706">
        <ele>326.6</ele>
        <time>2026-05-28T10:07:12Z</time>
      </trkpt>
      <trkpt lat="43.11038" lon="1.92697">
        <ele>326.6</ele>
        <time>2026-05-28T10:07:17Z</time>
      </trkpt>
      <trkpt lat="43.11039" lon="1.92689">
        <ele>326.5</ele>
        <time>2026-05-28T10:07:22Z</time>
      </trkpt>
      <trkpt lat="43.11039" lon="1.9268">
        <ele>326.5</ele>
        <time>2026-05-28T10:07:27Z</time>
      </trkpt>
      <trkpt lat="43.11041" lon="1.92672">
        <ele>326.5</ele>
        <time>2026-05-28T10:07:32Z</time>
      </trkpt>
      <trkpt lat="43.11041" lon="1.92664">
        <ele>326.4</ele>
        <time>2026-05-28T10:07:37Z</time>
      </trkpt>
      <trkpt lat="43.11039" lon="1.92655">
        <ele>326.2</ele>
        <time>2026-05-28T10:07:42Z</time>
      </trkpt>
      <trkpt lat="43.11034" lon="1.92648">
        <ele>325.9</ele>
        <time>2026-05-28T10:07:47Z</time>
      </trkpt>
      <trkpt lat="43.11029" lon="1.92642">
        <ele>325.6</ele>
        <time>2026-05-28T10:07:52Z</time>
      </trkpt>
      <trkpt lat="43.11024" lon="1.92638">
        <ele>325.4</ele>
        <time>2026-05-28T10:07:57Z</time>
      </trkpt>
      <trkpt lat="43.11018" lon="1.92632">
        <ele>325.1</ele>
        <time>2026-05-28T10:08:02Z</time>
      </trkpt>
      <trkpt lat="43.11013" lon="1.92625">
        <ele>324.9</ele>
        <time>2026-05-28T10:08:07Z</time>
      </trkpt>
      <trkpt lat="43.11008" lon="1.92619">
        <ele>324.7</ele>
        <time>2026-05-28T10:08:12Z</time>
      </trkpt>
      <trkpt lat="43.11003" lon="1.92613">
        <ele>324.4</ele>
        <time>2026-05-28T10:08:17Z</time>
      </trkpt>
      <trkpt lat="43.10998" lon="1.92609">
        <ele>324.3</ele>
        <time>2026-05-28T10:08:22Z</time>
      </trkpt>
      <trkpt lat="43.10992" lon="1.92603">
        <ele>324.2</ele>
        <time>2026-05-28T10:08:27Z</time>
      </trkpt>
      <trkpt lat="43.10987" lon="1.92598">
        <ele>324.1</ele>
        <time>2026-05-28T10:08:32Z</time>
      </trkpt>
      <trkpt lat="43.10981" lon="1.92594">
        <ele>324.1</ele>
        <time>2026-05-28T10:08:37Z</time>
      </trkpt>
      <trkpt lat="43.10975" lon="1.92588">
        <ele>324</ele>
        <time>2026-05-28T10:08:42Z</time>
      </trkpt>
      <trkpt lat="43.10971" lon="1.92583">
        <ele>324</ele>
        <time>2026-05-28T10:08:47Z</time>
      </trkpt>
      <trkpt lat="43.10966" lon="1.92579">
        <ele>324.1</ele>
        <time>2026-05-28T10:08:52Z</time>
      </trkpt>
      <trkpt lat="43.1096" lon="1.92576">
        <ele>324.1</ele>
        <time>2026-05-28T10:08:57Z</time>
      </trkpt>
      <trkpt lat="43.10954" lon="1.9257">
        <ele>324.1</ele>
        <time>2026-05-28T10:09:02Z</time>
      </trkpt>
      <trkpt lat="43.10952" lon="1.92562">
        <ele>324.2</ele>
        <time>2026-05-28T10:09:07Z</time>
      </trkpt>
      <trkpt lat="43.10948" lon="1.92554">
        <ele>324.3</ele>
        <time>2026-05-28T10:09:12Z</time>
      </trkpt>
      <trkpt lat="43.10943" lon="1.92549">
        <ele>324.3</ele>
        <time>2026-05-28T10:09:17Z</time>
      </trkpt>
      <trkpt lat="43.10938" lon="1.92544">
        <ele>324.2</ele>
        <time>2026-05-28T10:09:22Z</time>
      </trkpt>
      <trkpt lat="43.10933" lon="1.92539">
        <ele>324.2</ele>
        <time>2026-05-28T10:09:27Z</time>
      </trkpt>
      <trkpt lat="43.10926" lon="1.92534">
        <ele>324.1</ele>
        <time>2026-05-28T10:09:32Z</time>
      </trkpt>
      <trkpt lat="43.10922" lon="1.92528">
        <ele>324.1</ele>
        <time>2026-05-28T10:09:37Z</time>
      </trkpt>
      <trkpt lat="43.10919" lon="1.9252">
        <ele>324</ele>
        <time>2026-05-28T10:09:42Z</time>
      </trkpt>
      <trkpt lat="43.10919" lon="1.9251">
        <ele>324</ele>
        <time>2026-05-28T10:09:47Z</time>
      </trkpt>
      <trkpt lat="43.1092" lon="1.92501">
        <ele>324.1</ele>
        <time>2026-05-28T10:09:52Z</time>
      </trkpt>
      <trkpt lat="43.10917" lon="1.92492">
        <ele>324.4</ele>
        <time>2026-05-28T10:09:57Z</time>
      </trkpt>
      <trkpt lat="43.10912" lon="1.92486">
        <ele>324.6</ele>
        <time>2026-05-28T10:10:02Z</time>
      </trkpt>
      <trkpt lat="43.10907" lon="1.92482">
        <ele>324.6</ele>
        <time>2026-05-28T10:10:07Z</time>
      </trkpt>
      <trkpt lat="43.10901" lon="1.92477">
        <ele>324.6</ele>
        <time>2026-05-28T10:10:12Z</time>
      </trkpt>
      <trkpt lat="43.10896" lon="1.92472">
        <ele>324.6</ele>
        <time>2026-05-28T10:10:17Z</time>
      </trkpt>
      <trkpt lat="43.10892" lon="1.92467">
        <ele>324.6</ele>
        <time>2026-05-28T10:10:22Z</time>
      </trkpt>
      <trkpt lat="43.10888" lon="1.92463">
        <ele>324.5</ele>
        <time>2026-05-28T10:10:27Z</time>
      </trkpt>
      <trkpt lat="43.10884" lon="1.92459">
        <ele>324.4</ele>
        <time>2026-05-28T10:10:32Z</time>
      </trkpt>
      <trkpt lat="43.1088" lon="1.92456">
        <ele>324.3</ele>
        <time>2026-05-28T10:10:37Z</time>
      </trkpt>
      <trkpt lat="43.10878" lon="1.92451">
        <ele>324.3</ele>
        <time>2026-05-28T10:10:42Z</time>
      </trkpt>
      <trkpt lat="43.10875" lon="1.92445">
        <ele>324.2</ele>
        <time>2026-05-28T10:10:47Z</time>
      </trkpt>
      <trkpt lat="43.10873" lon="1.92439">
        <ele>324.1</ele>
        <time>2026-05-28T10:10:52Z</time>
      </trkpt>
      <trkpt lat="43.10872" lon="1.92432">
        <ele>324.1</ele>
        <time>2026-05-28T10:10:57Z</time>
      </trkpt>
      <trkpt lat="43.1087" lon="1.92426">
        <ele>324</ele>
        <time>2026-05-28T10:11:02Z</time>
      </trkpt>
      <trkpt lat="43.1087" lon="1.92419">
        <ele>324.1</ele>
        <time>2026-05-28T10:11:07Z</time>
      </trkpt>
      <trkpt lat="43.1087" lon="1.92413">
        <ele>324.1</ele>
        <time>2026-05-28T10:11:12Z</time>
      </trkpt>
      <trkpt lat="43.10871" lon="1.92406">
        <ele>324.3</ele>
        <time>2026-05-28T10:11:17Z</time>
      </trkpt>
      <trkpt lat="43.10872" lon="1.924">
        <ele>324.5</ele>
        <time>2026-05-28T10:11:22Z</time>
      </trkpt>
      <trkpt lat="43.10873" lon="1.92393">
        <ele>324.8</ele>
        <time>2026-05-28T10:11:27Z</time>
      </trkpt>
      <trkpt lat="43.10875" lon="1.92386">
        <ele>325.1</ele>
        <time>2026-05-28T10:11:32Z</time>
      </trkpt>
      <trkpt lat="43.10878" lon="1.9238">
        <ele>325.4</ele>
        <time>2026-05-28T10:11:37Z</time>
      </trkpt>
      <trkpt lat="43.10882" lon="1.92375">
        <ele>325.9</ele>
        <time>2026-05-28T10:11:42Z</time>
      </trkpt>
      <trkpt lat="43.10888" lon="1.92371">
        <ele>326.5</ele>
        <time>2026-05-28T10:11:47Z</time>
      </trkpt>
      <trkpt lat="43.10892" lon="1.92366">
        <ele>327</ele>
        <time>2026-05-28T10:11:52Z</time>
      </trkpt>
      <trkpt lat="43.10897" lon="1.92362">
        <ele>327.5</ele>
        <time>2026-05-28T10:11:57Z</time>
      </trkpt>
      <trkpt lat="43.10902" lon="1.92358">
        <ele>328.1</ele>
        <time>2026-05-28T10:12:02Z</time>
      </trkpt>
      <trkpt lat="43.10907" lon="1.92354">
        <ele>328.6</ele>
        <time>2026-05-28T10:12:07Z</time>
      </trkpt>
      <trkpt lat="43.10911" lon="1.9235">
        <ele>329.1</ele>
        <time>2026-05-28T10:12:12Z</time>
      </trkpt>
      <trkpt lat="43.10916" lon="1.92346">
        <ele>329.6</ele>
        <time>2026-05-28T10:12:17Z</time>
      </trkpt>
      <trkpt lat="43.10922" lon="1.92341">
        <ele>330.4</ele>
        <time>2026-05-28T10:12:22Z</time>
      </trkpt>
      <trkpt lat="43.10926" lon="1.92337">
        <ele>331</ele>
        <time>2026-05-28T10:12:27Z</time>
      </trkpt>
      <trkpt lat="43.1093" lon="1.92334">
        <ele>331.6</ele>
        <time>2026-05-28T10:12:32Z</time>
      </trkpt>
      <trkpt lat="43.10935" lon="1.9233">
        <ele>332.2</ele>
        <time>2026-05-28T10:12:37Z</time>
      </trkpt>
      <trkpt lat="43.1094" lon="1.92326">
        <ele>332.8</ele>
        <time>2026-05-28T10:12:42Z</time>
      </trkpt>
      <trkpt lat="43.10944" lon="1.92321">
        <ele>333.2</ele>
        <time>2026-05-28T10:12:47Z</time>
      </trkpt>
      <trkpt lat="43.10949" lon="1.92317">
        <ele>333.8</ele>
        <time>2026-05-28T10:12:52Z</time>
      </trkpt>
      <trkpt lat="43.10951" lon="1.92315">
        <ele>334</ele>
        <time>2026-05-28T10:12:57Z</time>
      </trkpt>
      <trkpt lat="43.1095" lon="1.92314">
        <ele>333.9</ele>
        <time>2026-05-28T10:13:02Z</time>
      </trkpt>
      <trkpt lat="43.1095" lon="1.92314">
        <ele>333.9</ele>
        <time>2026-05-28T10:13:07Z</time>
      </trkpt>
      <trkpt lat="43.1095" lon="1.92314">
        <ele>333.9</ele>
        <time>2026-05-28T10:13:12Z</time>
      </trkpt>
      <trkpt lat="43.1095" lon="1.92314">
        <ele>333.9</ele>
        <time>2026-05-28T10:13:17Z</time>
      </trkpt>
      <trkpt lat="43.10954" lon="1.92313">
        <ele>334.3</ele>
        <time>2026-05-28T10:13:22Z</time>
      </trkpt>
      <trkpt lat="43.10956" lon="1.92311">
        <ele>334.5</ele>
        <time>2026-05-28T10:13:27Z</time>
      </trkpt>
      <trkpt lat="43.10958" lon="1.92311">
        <ele>334.7</ele>
        <time>2026-05-28T10:13:32Z</time>
      </trkpt>
      <trkpt lat="43.10962" lon="1.92308">
        <ele>335.1</ele>
        <time>2026-05-28T10:13:37Z</time>
      </trkpt>
      <trkpt lat="43.10967" lon="1.92304">
        <ele>335.5</ele>
        <time>2026-05-28T10:13:42Z</time>
      </trkpt>
      <trkpt lat="43.10972" lon="1.92301">
        <ele>336</ele>
        <time>2026-05-28T10:13:47Z</time>
      </trkpt>
      <trkpt lat="43.10977" lon="1.92296">
        <ele>336.4</ele>
        <time>2026-05-28T10:13:52Z</time>
      </trkpt>
      <trkpt lat="43.10982" lon="1.92292">
        <ele>336.8</ele>
        <time>2026-05-28T10:13:57Z</time>
      </trkpt>
      <trkpt lat="43.10986" lon="1.92286">
        <ele>337</ele>
        <time>2026-05-28T10:14:02Z</time>
      </trkpt>
      <trkpt lat="43.10991" lon="1.92281">
        <ele>337.3</ele>
        <time>2026-05-28T10:14:07Z</time>
      </trkpt>
      <trkpt lat="43.10996" lon="1.92277">
        <ele>337.6</ele>
        <time>2026-05-28T10:14:12Z</time>
      </trkpt>
      <trkpt lat="43.11001" lon="1.92273">
        <ele>337.9</ele>
        <time>2026-05-28T10:14:17Z</time>
      </trkpt>
      <trkpt lat="43.11005" lon="1.92268">
        <ele>338.1</ele>
        <time>2026-05-28T10:14:22Z</time>
      </trkpt>
      <trkpt lat="43.1101" lon="1.92264">
        <ele>338.5</ele>
        <time>2026-05-28T10:14:27Z</time>
      </trkpt>
      <trkpt lat="43.11015" lon="1.92261">
        <ele>338.9</ele>
        <time>2026-05-28T10:14:32Z</time>
      </trkpt>
      <trkpt lat="43.11018" lon="1.92258">
        <ele>339.1</ele>
        <time>2026-05-28T10:14:37Z</time>
      </trkpt>
      <trkpt lat="43.11022" lon="1.92256">
        <ele>339.5</ele>
        <time>2026-05-28T10:14:42Z</time>
      </trkpt>
      <trkpt lat="43.11027" lon="1.92254">
        <ele>340</ele>
        <time>2026-05-28T10:14:47Z</time>
      </trkpt>
      <trkpt lat="43.11031" lon="1.92254">
        <ele>340.4</ele>
        <time>2026-05-28T10:14:52Z</time>
      </trkpt>
      <trkpt lat="43.11035" lon="1.92254">
        <ele>340.8</ele>
        <time>2026-05-28T10:14:57Z</time>
      </trkpt>
      <trkpt lat="43.1104" lon="1.92254">
        <ele>341.4</ele>
        <time>2026-05-28T10:15:02Z</time>
      </trkpt>
      <trkpt lat="43.11043" lon="1.92255">
        <ele>341.7</ele>
        <time>2026-05-28T10:15:07Z</time>
      </trkpt>
      <trkpt lat="43.11047" lon="1.92256">
        <ele>342.1</ele>
        <time>2026-05-28T10:15:12Z</time>
      </trkpt>
      <trkpt lat="43.1105" lon="1.92256">
        <ele>342.4</ele>
        <time>2026-05-28T10:15:17Z</time>
      </trkpt>
      <trkpt lat="43.11054" lon="1.92259">
        <ele>342.9</ele>
        <time>2026-05-28T10:15:22Z</time>
      </trkpt>
      <trkpt lat="43.11059" lon="1.9226">
        <ele>343.4</ele>
        <time>2026-05-28T10:15:27Z</time>
      </trkpt>
      <trkpt lat="43.11065" lon="1.92261">
        <ele>344</ele>
        <time>2026-05-28T10:15:32Z</time>
      </trkpt>
      <trkpt lat="43.11071" lon="1.92263">
        <ele>344.6</ele>
        <time>2026-05-28T10:15:37Z</time>
      </trkpt>
      <trkpt lat="43.11075" lon="1.92265">
        <ele>345</ele>
        <time>2026-05-28T10:15:42Z</time>
      </trkpt>
      <trkpt lat="43.11079" lon="1.92269">
        <ele>345.4</ele>
        <time>2026-05-28T10:15:47Z</time>
      </trkpt>
      <trkpt lat="43.11083" lon="1.92272">
        <ele>345.7</ele>
        <time>2026-05-28T10:15:52Z</time>
      </trkpt>
      <trkpt lat="43.11086" lon="1.92278">
        <ele>345.8</ele>
        <time>2026-05-28T10:15:57Z</time>
      </trkpt>
      <trkpt lat="43.11086" lon="1.9228">
        <ele>345.8</ele>
        <time>2026-05-28T10:16:02Z</time>
      </trkpt>
      <trkpt lat="43.11086" lon="1.9228">
        <ele>345.8</ele>
        <time>2026-05-28T10:16:07Z</time>
      </trkpt>
      <trkpt lat="43.11086" lon="1.9228">
        <ele>345.8</ele>
        <time>2026-05-28T10:16:12Z</time>
      </trkpt>
      <trkpt lat="43.11086" lon="1.9228">
        <ele>345.8</ele>
        <time>2026-05-28T10:16:17Z</time>
      </trkpt>
      <trkpt lat="43.11086" lon="1.9228">
        <ele>345.8</ele>
        <time>2026-05-28T10:16:22Z</time>
      </trkpt>
      <trkpt lat="43.11086" lon="1.92277">
        <ele>345.8</ele>
        <time>2026-05-28T10:16:27Z</time>
      </trkpt>
      <trkpt lat="43.11088" lon="1.92273">
        <ele>346</ele>
        <time>2026-05-28T10:16:32Z</time>
      </trkpt>
      <trkpt lat="43.11092" lon="1.92268">
        <ele>346.4</ele>
        <time>2026-05-28T10:16:37Z</time>
      </trkpt>
      <trkpt lat="43.11097" lon="1.92264">
        <ele>346.8</ele>
        <time>2026-05-28T10:16:42Z</time>
      </trkpt>
      <trkpt lat="43.11099" lon="1.92259">
        <ele>347.1</ele>
        <time>2026-05-28T10:16:47Z</time>
      </trkpt>
      <trkpt lat="43.11105" lon="1.92253">
        <ele>347.7</ele>
        <time>2026-05-28T10:16:52Z</time>
      </trkpt>
      <trkpt lat="43.11109" lon="1.92248">
        <ele>348.1</ele>
        <time>2026-05-28T10:16:57Z</time>
      </trkpt>
      <trkpt lat="43.11112" lon="1.92243">
        <ele>348.2</ele>
        <time>2026-05-28T10:17:02Z</time>
      </trkpt>
      <trkpt lat="43.11115" lon="1.92239">
        <ele>348.4</ele>
        <time>2026-05-28T10:17:07Z</time>
      </trkpt>
      <trkpt lat="43.11118" lon="1.92234">
        <ele>348.5</ele>
        <time>2026-05-28T10:17:12Z</time>
      </trkpt>
      <trkpt lat="43.11121" lon="1.9223">
        <ele>348.7</ele>
        <time>2026-05-28T10:17:17Z</time>
      </trkpt>
      <trkpt lat="43.11121" lon="1.9223">
        <ele>348.7</ele>
        <time>2026-05-28T10:17:22Z</time>
      </trkpt>
      <trkpt lat="43.11121" lon="1.9223">
        <ele>348.7</ele>
        <time>2026-05-28T10:17:27Z</time>
      </trkpt>
      <trkpt lat="43.11121" lon="1.9223">
        <ele>348.7</ele>
        <time>2026-05-28T10:17:32Z</time>
      </trkpt>
      <trkpt lat="43.11122" lon="1.92231">
        <ele>348.9</ele>
        <time>2026-05-28T10:17:37Z</time>
      </trkpt>
      <trkpt lat="43.11125" lon="1.92226">
        <ele>349.1</ele>
        <time>2026-05-28T10:17:42Z</time>
      </trkpt>
      <trkpt lat="43.1113" lon="1.9222">
        <ele>349.5</ele>
        <time>2026-05-28T10:17:47Z</time>
      </trkpt>
      <trkpt lat="43.11134" lon="1.92213">
        <ele>349.8</ele>
        <time>2026-05-28T10:17:52Z</time>
      </trkpt>
      <trkpt lat="43.11137" lon="1.92207">
        <ele>350.1</ele>
        <time>2026-05-28T10:17:57Z</time>
      </trkpt>
      <trkpt lat="43.11141" lon="1.92202">
        <ele>350.5</ele>
        <time>2026-05-28T10:18:02Z</time>
      </trkpt>
      <trkpt lat="43.11145" lon="1.92196">
        <ele>351</ele>
        <time>2026-05-28T10:18:07Z</time>
      </trkpt>
      <trkpt lat="43.11147" lon="1.92192">
        <ele>351.2</ele>
        <time>2026-05-28T10:18:12Z</time>
      </trkpt>
      <trkpt lat="43.11149" lon="1.92185">
        <ele>351.5</ele>
        <time>2026-05-28T10:18:17Z</time>
      </trkpt>
      <trkpt lat="43.11152" lon="1.9218">
        <ele>351.9</ele>
        <time>2026-05-28T10:18:22Z</time>
      </trkpt>
      <trkpt lat="43.11155" lon="1.92173">
        <ele>352.3</ele>
        <time>2026-05-28T10:18:27Z</time>
      </trkpt>
      <trkpt lat="43.11157" lon="1.92167">
        <ele>352.6</ele>
        <time>2026-05-28T10:18:32Z</time>
      </trkpt>
      <trkpt lat="43.11159" lon="1.92161">
        <ele>352.8</ele>
        <time>2026-05-28T10:18:37Z</time>
      </trkpt>
      <trkpt lat="43.11162" lon="1.92154">
        <ele>353</ele>
        <time>2026-05-28T10:18:42Z</time>
      </trkpt>
      <trkpt lat="43.11165" lon="1.92148">
        <ele>353.3</ele>
        <time>2026-05-28T10:18:47Z</time>
      </trkpt>
      <trkpt lat="43.11168" lon="1.92142">
        <ele>353.5</ele>
        <time>2026-05-28T10:18:52Z</time>
      </trkpt>
      <trkpt lat="43.11171" lon="1.92136">
        <ele>353.4</ele>
        <time>2026-05-28T10:18:57Z</time>
      </trkpt>
      <trkpt lat="43.11174" lon="1.92129">
        <ele>353.4</ele>
        <time>2026-05-28T10:19:02Z</time>
      </trkpt>
      <trkpt lat="43.11176" lon="1.92123">
        <ele>353.4</ele>
        <time>2026-05-28T10:19:07Z</time>
      </trkpt>
      <trkpt lat="43.11178" lon="1.92115">
        <ele>353.4</ele>
        <time>2026-05-28T10:19:12Z</time>
      </trkpt>
      <trkpt lat="43.11181" lon="1.92106">
        <ele>353.4</ele>
        <time>2026-05-28T10:19:17Z</time>
      </trkpt>
      <trkpt lat="43.11184" lon="1.92098">
        <ele>353.5</ele>
        <time>2026-05-28T10:19:22Z</time>
      </trkpt>
      <trkpt lat="43.11186" lon="1.92092">
        <ele>353.5</ele>
        <time>2026-05-28T10:19:27Z</time>
      </trkpt>
      <trkpt lat="43.11189" lon="1.92085">
        <ele>353.6</ele>
        <time>2026-05-28T10:19:32Z</time>
      </trkpt>
      <trkpt lat="43.11192" lon="1.92077">
        <ele>353.3</ele>
        <time>2026-05-28T10:19:37Z</time>
      </trkpt>
      <trkpt lat="43.11196" lon="1.92072">
        <ele>353.2</ele>
        <time>2026-05-28T10:19:42Z</time>
      </trkpt>
      <trkpt lat="43.11201" lon="1.92066">
        <ele>353.1</ele>
        <time>2026-05-28T10:19:47Z</time>
      </trkpt>
      <trkpt lat="43.11205" lon="1.9206">
        <ele>352.9</ele>
        <time>2026-05-28T10:19:52Z</time>
      </trkpt>
      <trkpt lat="43.1121" lon="1.92053">
        <ele>352.8</ele>
        <time>2026-05-28T10:19:57Z</time>
      </trkpt>
      <trkpt lat="43.11213" lon="1.92046">
        <ele>352.4</ele>
        <time>2026-05-28T10:20:02Z</time>
      </trkpt>
      <trkpt lat="43.11217" lon="1.9204">
        <ele>352.3</ele>
        <time>2026-05-28T10:20:07Z</time>
      </trkpt>
      <trkpt lat="43.11222" lon="1.92033">
        <ele>352.2</ele>
        <time>2026-05-28T10:20:12Z</time>
      </trkpt>
      <trkpt lat="43.11226" lon="1.92026">
        <ele>351.9</ele>
        <time>2026-05-28T10:20:17Z</time>
      </trkpt>
      <trkpt lat="43.11229" lon="1.92019">
        <ele>351.7</ele>
        <time>2026-05-28T10:20:22Z</time>
      </trkpt>
      <trkpt lat="43.11233" lon="1.92012">
        <ele>351.5</ele>
        <time>2026-05-28T10:20:27Z</time>
      </trkpt>
      <trkpt lat="43.11237" lon="1.92005">
        <ele>351.3</ele>
        <time>2026-05-28T10:20:32Z</time>
      </trkpt>
      <trkpt lat="43.11241" lon="1.91998">
        <ele>351.1</ele>
        <time>2026-05-28T10:20:37Z</time>
      </trkpt>
      <trkpt lat="43.11245" lon="1.91992">
        <ele>350.9</ele>
        <time>2026-05-28T10:20:42Z</time>
      </trkpt>
      <trkpt lat="43.11249" lon="1.91986">
        <ele>350.7</ele>
        <time>2026-05-28T10:20:47Z</time>
      </trkpt>
      <trkpt lat="43.11253" lon="1.9198">
        <ele>350.3</ele>
        <time>2026-05-28T10:20:52Z</time>
      </trkpt>
      <trkpt lat="43.11257" lon="1.91973">
        <ele>349.8</ele>
        <time>2026-05-28T10:20:57Z</time>
      </trkpt>
      <trkpt lat="43.11261" lon="1.91967">
        <ele>349.5</ele>
        <time>2026-05-28T10:21:02Z</time>
      </trkpt>
      <trkpt lat="43.11264" lon="1.9196">
        <ele>349</ele>
        <time>2026-05-28T10:21:07Z</time>
      </trkpt>
      <trkpt lat="43.11266" lon="1.91955">
        <ele>348.8</ele>
        <time>2026-05-28T10:21:12Z</time>
      </trkpt>
      <trkpt lat="43.11268" lon="1.91954">
        <ele>348.8</ele>
        <time>2026-05-28T10:21:17Z</time>
      </trkpt>
      <trkpt lat="43.11268" lon="1.91954">
        <ele>348.8</ele>
        <time>2026-05-28T10:21:22Z</time>
      </trkpt>
      <trkpt lat="43.11268" lon="1.91954">
        <ele>348.8</ele>
        <time>2026-05-28T10:21:27Z</time>
      </trkpt>
      <trkpt lat="43.11268" lon="1.91954">
        <ele>348.8</ele>
        <time>2026-05-28T10:21:32Z</time>
      </trkpt>
      <trkpt lat="43.11268" lon="1.91954">
        <ele>348.8</ele>
        <time>2026-05-28T10:21:37Z</time>
      </trkpt>
      <trkpt lat="43.11268" lon="1.91954">
        <ele>348.8</ele>
        <time>2026-05-28T10:21:42Z</time>
      </trkpt>
      <trkpt lat="43.11268" lon="1.91954">
        <ele>348.8</ele>
        <time>2026-05-28T10:21:47Z</time>
      </trkpt>
      <trkpt lat="43.11268" lon="1.91954">
        <ele>348.8</ele>
        <time>2026-05-28T10:21:52Z</time>
      </trkpt>
      <trkpt lat="43.11274" lon="1.91944">
        <ele>348.4</ele>
        <time>2026-05-28T10:21:57Z</time>
      </trkpt>
      <trkpt lat="43.11276" lon="1.91939">
        <ele>348.2</ele>
        <time>2026-05-28T10:22:02Z</time>
      </trkpt>
      <trkpt lat="43.11278" lon="1.91931">
        <ele>347.8</ele>
        <time>2026-05-28T10:22:07Z</time>
      </trkpt>
      <trkpt lat="43.1128" lon="1.91924">
        <ele>347.6</ele>
        <time>2026-05-28T10:22:12Z</time>
      </trkpt>
      <trkpt lat="43.11281" lon="1.91919">
        <ele>347.4</ele>
        <time>2026-05-28T10:22:17Z</time>
      </trkpt>
      <trkpt lat="43.11282" lon="1.91913">
        <ele>347.2</ele>
        <time>2026-05-28T10:22:22Z</time>
      </trkpt>
      <trkpt lat="43.11283" lon="1.91908">
        <ele>347.2</ele>
        <time>2026-05-28T10:22:27Z</time>
      </trkpt>
      <trkpt lat="43.11284" lon="1.91902">
        <ele>347.1</ele>
        <time>2026-05-28T10:22:32Z</time>
      </trkpt>
      <trkpt lat="43.11286" lon="1.91896">
        <ele>347.1</ele>
        <time>2026-05-28T10:22:37Z</time>
      </trkpt>
      <trkpt lat="43.11287" lon="1.9189">
        <ele>347</ele>
        <time>2026-05-28T10:22:42Z</time>
      </trkpt>
      <trkpt lat="43.11288" lon="1.91883">
        <ele>346.9</ele>
        <time>2026-05-28T10:22:47Z</time>
      </trkpt>
      <trkpt lat="43.1129" lon="1.91876">
        <ele>346.9</ele>
        <time>2026-05-28T10:22:52Z</time>
      </trkpt>
      <trkpt lat="43.11291" lon="1.91871">
        <ele>346.9</ele>
        <time>2026-05-28T10:22:57Z</time>
      </trkpt>
      <trkpt lat="43.11292" lon="1.91865">
        <ele>346.8</ele>
        <time>2026-05-28T10:23:02Z</time>
      </trkpt>
      <trkpt lat="43.11294" lon="1.91859">
        <ele>346.8</ele>
        <time>2026-05-28T10:23:07Z</time>
      </trkpt>
      <trkpt lat="43.11296" lon="1.91852">
        <ele>346.8</ele>
        <time>2026-05-28T10:23:12Z</time>
      </trkpt>
      <trkpt lat="43.11298" lon="1.91845">
        <ele>346.7</ele>
        <time>2026-05-28T10:23:17Z</time>
      </trkpt>
      <trkpt lat="43.11299" lon="1.91838">
        <ele>346.6</ele>
        <time>2026-05-28T10:23:22Z</time>
      </trkpt>
      <trkpt lat="43.11301" lon="1.91833">
        <ele>346.7</ele>
        <time>2026-05-28T10:23:27Z</time>
      </trkpt>
      <trkpt lat="43.11303" lon="1.91827">
        <ele>346.8</ele>
        <time>2026-05-28T10:23:32Z</time>
      </trkpt>
      <trkpt lat="43.11305" lon="1.91822">
        <ele>346.9</ele>
        <time>2026-05-28T10:23:37Z</time>
      </trkpt>
      <trkpt lat="43.11306" lon="1.91817">
        <ele>347</ele>
        <time>2026-05-28T10:23:42Z</time>
      </trkpt>
      <trkpt lat="43.11306" lon="1.91812">
        <ele>346.9</ele>
        <time>2026-05-28T10:23:47Z</time>
      </trkpt>
      <trkpt lat="43.11305" lon="1.91804">
        <ele>346.8</ele>
        <time>2026-05-28T10:23:52Z</time>
      </trkpt>
      <trkpt lat="43.11304" lon="1.91797">
        <ele>346.7</ele>
        <time>2026-05-28T10:23:57Z</time>
      </trkpt>
      <trkpt lat="43.11303" lon="1.9179">
        <ele>346.6</ele>
        <time>2026-05-28T10:24:02Z</time>
      </trkpt>
      <trkpt lat="43.11302" lon="1.91782">
        <ele>346.5</ele>
        <time>2026-05-28T10:24:07Z</time>
      </trkpt>
      <trkpt lat="43.11301" lon="1.91773">
        <ele>346.4</ele>
        <time>2026-05-28T10:24:12Z</time>
      </trkpt>
      <trkpt lat="43.113" lon="1.91765">
        <ele>346.3</ele>
        <time>2026-05-28T10:24:17Z</time>
      </trkpt>
      <trkpt lat="43.11301" lon="1.91757">
        <ele>346.3</ele>
        <time>2026-05-28T10:24:22Z</time>
      </trkpt>
      <trkpt lat="43.11301" lon="1.91748">
        <ele>346.2</ele>
        <time>2026-05-28T10:24:27Z</time>
      </trkpt>
      <trkpt lat="43.11302" lon="1.91739">
        <ele>345.9</ele>
        <time>2026-05-28T10:24:32Z</time>
      </trkpt>
      <trkpt lat="43.11304" lon="1.91731">
        <ele>345.8</ele>
        <time>2026-05-28T10:24:37Z</time>
      </trkpt>
      <trkpt lat="43.11305" lon="1.91724">
        <ele>345.6</ele>
        <time>2026-05-28T10:24:42Z</time>
      </trkpt>
      <trkpt lat="43.11305" lon="1.91724">
        <ele>345.6</ele>
        <time>2026-05-28T10:24:47Z</time>
      </trkpt>
      <trkpt lat="43.11305" lon="1.91724">
        <ele>345.6</ele>
        <time>2026-05-28T10:24:52Z</time>
      </trkpt>
      <trkpt lat="43.11305" lon="1.91724">
        <ele>345.6</ele>
        <time>2026-05-28T10:24:57Z</time>
      </trkpt>
      <trkpt lat="43.11305" lon="1.91719">
        <ele>345.4</ele>
        <time>2026-05-28T10:25:02Z</time>
      </trkpt>
      <trkpt lat="43.11306" lon="1.91711">
        <ele>345.1</ele>
        <time>2026-05-28T10:25:07Z</time>
      </trkpt>
      <trkpt lat="43.11307" lon="1.91702">
        <ele>344.8</ele>
        <time>2026-05-28T10:25:12Z</time>
      </trkpt>
      <trkpt lat="43.11309" lon="1.91694">
        <ele>344.7</ele>
        <time>2026-05-28T10:25:17Z</time>
      </trkpt>
      <trkpt lat="43.1131" lon="1.91684">
        <ele>344.3</ele>
        <time>2026-05-28T10:25:22Z</time>
      </trkpt>
      <trkpt lat="43.11311" lon="1.91676">
        <ele>344</ele>
        <time>2026-05-28T10:25:27Z</time>
      </trkpt>
      <trkpt lat="43.11312" lon="1.91669">
        <ele>343.8</ele>
        <time>2026-05-28T10:25:32Z</time>
      </trkpt>
      <trkpt lat="43.11313" lon="1.91661">
        <ele>343.5</ele>
        <time>2026-05-28T10:25:37Z</time>
      </trkpt>
      <trkpt lat="43.11315" lon="1.91652">
        <ele>343.2</ele>
        <time>2026-05-28T10:25:42Z</time>
      </trkpt>
      <trkpt lat="43.11315" lon="1.91644">
        <ele>342.8</ele>
        <time>2026-05-28T10:25:47Z</time>
      </trkpt>
      <trkpt lat="43.11316" lon="1.91635">
        <ele>342.4</ele>
        <time>2026-05-28T10:25:52Z</time>
      </trkpt>
      <trkpt lat="43.11318" lon="1.91628">
        <ele>342.2</ele>
        <time>2026-05-28T10:25:57Z</time>
      </trkpt>
      <trkpt lat="43.11318" lon="1.9162">
        <ele>341.8</ele>
        <time>2026-05-28T10:26:02Z</time>
      </trkpt>
      <trkpt lat="43.11319" lon="1.91612">
        <ele>341.5</ele>
        <time>2026-05-28T10:26:07Z</time>
      </trkpt>
      <trkpt lat="43.1132" lon="1.91604">
        <ele>341.2</ele>
        <time>2026-05-28T10:26:12Z</time>
      </trkpt>
      <trkpt lat="43.11321" lon="1.91596">
        <ele>340.9</ele>
        <time>2026-05-28T10:26:17Z</time>
      </trkpt>
      <trkpt lat="43.11323" lon="1.91588">
        <ele>340.6</ele>
        <time>2026-05-28T10:26:22Z</time>
      </trkpt>
      <trkpt lat="43.11324" lon="1.9158">
        <ele>340.3</ele>
        <time>2026-05-28T10:26:27Z</time>
      </trkpt>
      <trkpt lat="43.11324" lon="1.91571">
        <ele>340</ele>
        <time>2026-05-28T10:26:32Z</time>
      </trkpt>
      <trkpt lat="43.11326" lon="1.91562">
        <ele>339.8</ele>
        <time>2026-05-28T10:26:37Z</time>
      </trkpt>
      <trkpt lat="43.11327" lon="1.91555">
        <ele>339.6</ele>
        <time>2026-05-28T10:26:42Z</time>
      </trkpt>
      <trkpt lat="43.11328" lon="1.91547">
        <ele>339.4</ele>
        <time>2026-05-28T10:26:47Z</time>
      </trkpt>
      <trkpt lat="43.11329" lon="1.91538">
        <ele>339.1</ele>
        <time>2026-05-28T10:26:52Z</time>
      </trkpt>
      <trkpt lat="43.1133" lon="1.9153">
        <ele>338.9</ele>
        <time>2026-05-28T10:26:57Z</time>
      </trkpt>
      <trkpt lat="43.11332" lon="1.91522">
        <ele>338.7</ele>
        <time>2026-05-28T10:27:02Z</time>
      </trkpt>
      <trkpt lat="43.11334" lon="1.91514">
        <ele>338.5</ele>
        <time>2026-05-28T10:27:07Z</time>
      </trkpt>
      <trkpt lat="43.11335" lon="1.91505">
        <ele>338.2</ele>
        <time>2026-05-28T10:27:12Z</time>
      </trkpt>
      <trkpt lat="43.11338" lon="1.91497">
        <ele>337.9</ele>
        <time>2026-05-28T10:27:17Z</time>
      </trkpt>
      <trkpt lat="43.1134" lon="1.91489">
        <ele>337.5</ele>
        <time>2026-05-28T10:27:22Z</time>
      </trkpt>
      <trkpt lat="43.11342" lon="1.91483">
        <ele>337.1</ele>
        <time>2026-05-28T10:27:27Z</time>
      </trkpt>
      <trkpt lat="43.11345" lon="1.91477">
        <ele>336.8</ele>
        <time>2026-05-28T10:27:32Z</time>
      </trkpt>
      <trkpt lat="43.11349" lon="1.91471">
        <ele>336.4</ele>
        <time>2026-05-28T10:27:37Z</time>
      </trkpt>
      <trkpt lat="43.11353" lon="1.91465">
        <ele>336.1</ele>
        <time>2026-05-28T10:27:42Z</time>
      </trkpt>
      <trkpt lat="43.11356" lon="1.91459">
        <ele>335.7</ele>
        <time>2026-05-28T10:27:47Z</time>
      </trkpt>
      <trkpt lat="43.11358" lon="1.91453">
        <ele>335.3</ele>
        <time>2026-05-28T10:27:52Z</time>
      </trkpt>
      <trkpt lat="43.11361" lon="1.91447">
        <ele>334.9</ele>
        <time>2026-05-28T10:27:57Z</time>
      </trkpt>
      <trkpt lat="43.11362" lon="1.9144">
        <ele>334.3</ele>
        <time>2026-05-28T10:28:02Z</time>
      </trkpt>
      <trkpt lat="43.11365" lon="1.91436">
        <ele>334</ele>
        <time>2026-05-28T10:28:07Z</time>
      </trkpt>
      <trkpt lat="43.11368" lon="1.91429">
        <ele>333.5</ele>
        <time>2026-05-28T10:28:12Z</time>
      </trkpt>
      <trkpt lat="43.1137" lon="1.91424">
        <ele>333.1</ele>
        <time>2026-05-28T10:28:17Z</time>
      </trkpt>
      <trkpt lat="43.11373" lon="1.91417">
        <ele>332.5</ele>
        <time>2026-05-28T10:28:22Z</time>
      </trkpt>
      <trkpt lat="43.11375" lon="1.9141">
        <ele>332.3</ele>
        <time>2026-05-28T10:28:27Z</time>
      </trkpt>
      <trkpt lat="43.11378" lon="1.91402">
        <ele>332.1</ele>
        <time>2026-05-28T10:28:32Z</time>
      </trkpt>
      <trkpt lat="43.11381" lon="1.91395">
        <ele>331.9</ele>
        <time>2026-05-28T10:28:37Z</time>
      </trkpt>
      <trkpt lat="43.11384" lon="1.91388">
        <ele>331.8</ele>
        <time>2026-05-28T10:28:42Z</time>
      </trkpt>
      <trkpt lat="43.11386" lon="1.91382">
        <ele>331.6</ele>
        <time>2026-05-28T10:28:47Z</time>
      </trkpt>
      <trkpt lat="43.11389" lon="1.91374">
        <ele>331.5</ele>
        <time>2026-05-28T10:28:52Z</time>
      </trkpt>
      <trkpt lat="43.11391" lon="1.91368">
        <ele>331.4</ele>
        <time>2026-05-28T10:28:57Z</time>
      </trkpt>
      <trkpt lat="43.11394" lon="1.91361">
        <ele>331.2</ele>
        <time>2026-05-28T10:29:02Z</time>
      </trkpt>
      <trkpt lat="43.11397" lon="1.91354">
        <ele>331.1</ele>
        <time>2026-05-28T10:29:07Z</time>
      </trkpt>
      <trkpt lat="43.114" lon="1.91348">
        <ele>331</ele>
        <time>2026-05-28T10:29:12Z</time>
      </trkpt>
      <trkpt lat="43.11402" lon="1.91343">
        <ele>331</ele>
        <time>2026-05-28T10:29:17Z</time>
      </trkpt>
      <trkpt lat="43.11404" lon="1.91336">
        <ele>330.9</ele>
        <time>2026-05-28T10:29:22Z</time>
      </trkpt>
      <trkpt lat="43.11409" lon="1.91334">
        <ele>330.9</ele>
        <time>2026-05-28T10:29:27Z</time>
      </trkpt>
      <trkpt lat="43.11414" lon="1.91332">
        <ele>331</ele>
        <time>2026-05-28T10:29:32Z</time>
      </trkpt>
      <trkpt lat="43.11418" lon="1.91335">
        <ele>331</ele>
        <time>2026-05-28T10:29:37Z</time>
      </trkpt>
      <trkpt lat="43.11423" lon="1.91335">
        <ele>331.1</ele>
        <time>2026-05-28T10:29:42Z</time>
      </trkpt>
      <trkpt lat="43.11428" lon="1.91333">
        <ele>331.1</ele>
        <time>2026-05-28T10:29:47Z</time>
      </trkpt>
      <trkpt lat="43.11432" lon="1.9133">
        <ele>331.2</ele>
        <time>2026-05-28T10:29:52Z</time>
      </trkpt>
      <trkpt lat="43.11435" lon="1.91325">
        <ele>331.3</ele>
        <time>2026-05-28T10:29:57Z</time>
      </trkpt>
      <trkpt lat="43.11437" lon="1.91318">
        <ele>331.5</ele>
        <time>2026-05-28T10:30:02Z</time>
      </trkpt>
      <trkpt lat="43.11439" lon="1.9131">
        <ele>331.6</ele>
        <time>2026-05-28T10:30:07Z</time>
      </trkpt>
      <trkpt lat="43.11442" lon="1.91303">
        <ele>331.8</ele>
        <time>2026-05-28T10:30:12Z</time>
      </trkpt>
      <trkpt lat="43.11445" lon="1.91296">
        <ele>331.9</ele>
        <time>2026-05-28T10:30:17Z</time>
      </trkpt>
      <trkpt lat="43.11448" lon="1.91289">
        <ele>332.1</ele>
        <time>2026-05-28T10:30:22Z</time>
      </trkpt>
      <trkpt lat="43.1145" lon="1.91283">
        <ele>332.2</ele>
        <time>2026-05-28T10:30:27Z</time>
      </trkpt>
      <trkpt lat="43.11452" lon="1.91276">
        <ele>332.4</ele>
        <time>2026-05-28T10:30:32Z</time>
      </trkpt>
      <trkpt lat="43.11454" lon="1.9127">
        <ele>332.5</ele>
        <time>2026-05-28T10:30:37Z</time>
      </trkpt>
      <trkpt lat="43.11456" lon="1.91262">
        <ele>332.7</ele>
        <time>2026-05-28T10:30:42Z</time>
      </trkpt>
      <trkpt lat="43.11458" lon="1.91256">
        <ele>332.9</ele>
        <time>2026-05-28T10:30:47Z</time>
      </trkpt>
      <trkpt lat="43.11459" lon="1.91249">
        <ele>333.1</ele>
        <time>2026-05-28T10:30:52Z</time>
      </trkpt>
      <trkpt lat="43.11461" lon="1.91242">
        <ele>333.5</ele>
        <time>2026-05-28T10:30:57Z</time>
      </trkpt>
      <trkpt lat="43.11464" lon="1.91236">
        <ele>333.8</ele>
        <time>2026-05-28T10:31:02Z</time>
      </trkpt>
      <trkpt lat="43.11466" lon="1.9123">
        <ele>334.2</ele>
        <time>2026-05-28T10:31:07Z</time>
      </trkpt>
      <trkpt lat="43.11469" lon="1.91225">
        <ele>334.5</ele>
        <time>2026-05-28T10:31:12Z</time>
      </trkpt>
      <trkpt lat="43.11471" lon="1.91219">
        <ele>334.9</ele>
        <time>2026-05-28T10:31:17Z</time>
      </trkpt>
      <trkpt lat="43.11474" lon="1.91213">
        <ele>335.3</ele>
        <time>2026-05-28T10:31:22Z</time>
      </trkpt>
      <trkpt lat="43.11476" lon="1.91207">
        <ele>335.7</ele>
        <time>2026-05-28T10:31:27Z</time>
      </trkpt>
      <trkpt lat="43.11479" lon="1.912">
        <ele>336.2</ele>
        <time>2026-05-28T10:31:32Z</time>
      </trkpt>
      <trkpt lat="43.11482" lon="1.91194">
        <ele>336.6</ele>
        <time>2026-05-28T10:31:37Z</time>
      </trkpt>
      <trkpt lat="43.11484" lon="1.9119">
        <ele>336.9</ele>
        <time>2026-05-28T10:31:42Z</time>
      </trkpt>
      <trkpt lat="43.11487" lon="1.91184">
        <ele>337.4</ele>
        <time>2026-05-28T10:31:47Z</time>
      </trkpt>
      <trkpt lat="43.11488" lon="1.91179">
        <ele>337.7</ele>
        <time>2026-05-28T10:31:52Z</time>
      </trkpt>
      <trkpt lat="43.1149" lon="1.91173">
        <ele>338.2</ele>
        <time>2026-05-28T10:31:57Z</time>
      </trkpt>
      <trkpt lat="43.11493" lon="1.91167">
        <ele>338.6</ele>
        <time>2026-05-28T10:32:02Z</time>
      </trkpt>
      <trkpt lat="43.11495" lon="1.91161">
        <ele>339</ele>
        <time>2026-05-28T10:32:07Z</time>
      </trkpt>
      <trkpt lat="43.11498" lon="1.91156">
        <ele>339.3</ele>
        <time>2026-05-28T10:32:12Z</time>
      </trkpt>
      <trkpt lat="43.115" lon="1.9115">
        <ele>339.6</ele>
        <time>2026-05-28T10:32:17Z</time>
      </trkpt>
      <trkpt lat="43.11502" lon="1.91143">
        <ele>339.9</ele>
        <time>2026-05-28T10:32:22Z</time>
      </trkpt>
      <trkpt lat="43.11504" lon="1.91137">
        <ele>340.1</ele>
        <time>2026-05-28T10:32:27Z</time>
      </trkpt>
      <trkpt lat="43.11505" lon="1.91131">
        <ele>340.4</ele>
        <time>2026-05-28T10:32:32Z</time>
      </trkpt>
      <trkpt lat="43.11507" lon="1.91126">
        <ele>340.6</ele>
        <time>2026-05-28T10:32:37Z</time>
      </trkpt>
      <trkpt lat="43.11508" lon="1.91121">
        <ele>340.8</ele>
        <time>2026-05-28T10:32:42Z</time>
      </trkpt>
      <trkpt lat="43.1151" lon="1.91116">
        <ele>341</ele>
        <time>2026-05-28T10:32:47Z</time>
      </trkpt>
      <trkpt lat="43.11512" lon="1.91111">
        <ele>341.3</ele>
        <time>2026-05-28T10:32:52Z</time>
      </trkpt>
      <trkpt lat="43.11513" lon="1.91106">
        <ele>341.5</ele>
        <time>2026-05-28T10:32:57Z</time>
      </trkpt>
      <trkpt lat="43.11515" lon="1.91101">
        <ele>341.8</ele>
        <time>2026-05-28T10:33:02Z</time>
      </trkpt>
      <trkpt lat="43.11516" lon="1.91098">
        <ele>341.9</ele>
        <time>2026-05-28T10:33:07Z</time>
      </trkpt>
      <trkpt lat="43.11518" lon="1.91093">
        <ele>342.2</ele>
        <time>2026-05-28T10:33:12Z</time>
      </trkpt>
      <trkpt lat="43.1152" lon="1.91088">
        <ele>342.5</ele>
        <time>2026-05-28T10:33:17Z</time>
      </trkpt>
      <trkpt lat="43.11523" lon="1.91083">
        <ele>342.8</ele>
        <time>2026-05-28T10:33:22Z</time>
      </trkpt>
      <trkpt lat="43.11525" lon="1.91079">
        <ele>343.1</ele>
        <time>2026-05-28T10:33:27Z</time>
      </trkpt>
      <trkpt lat="43.11527" lon="1.91076">
        <ele>343.4</ele>
        <time>2026-05-28T10:33:32Z</time>
      </trkpt>
      <trkpt lat="43.11528" lon="1.91072">
        <ele>343.6</ele>
        <time>2026-05-28T10:33:37Z</time>
      </trkpt>
      <trkpt lat="43.11529" lon="1.91068">
        <ele>343.9</ele>
        <time>2026-05-28T10:33:42Z</time>
      </trkpt>
      <trkpt lat="43.11532" lon="1.91064">
        <ele>344.2</ele>
        <time>2026-05-28T10:33:47Z</time>
      </trkpt>
      <trkpt lat="43.11533" lon="1.9106">
        <ele>344.5</ele>
        <time>2026-05-28T10:33:52Z</time>
      </trkpt>
      <trkpt lat="43.11535" lon="1.91055">
        <ele>344.8</ele>
        <time>2026-05-28T10:33:57Z</time>
      </trkpt>
      <trkpt lat="43.11537" lon="1.91051">
        <ele>345.1</ele>
        <time>2026-05-28T10:34:02Z</time>
      </trkpt>
      <trkpt lat="43.11538" lon="1.91046">
        <ele>345.4</ele>
        <time>2026-05-28T10:34:07Z</time>
      </trkpt>
      <trkpt lat="43.11539" lon="1.91041">
        <ele>345.7</ele>
        <time>2026-05-28T10:34:12Z</time>
      </trkpt>
      <trkpt lat="43.1154" lon="1.91034">
        <ele>346.1</ele>
        <time>2026-05-28T10:34:17Z</time>
      </trkpt>
      <trkpt lat="43.11541" lon="1.91027">
        <ele>346.5</ele>
        <time>2026-05-28T10:34:22Z</time>
      </trkpt>
      <trkpt lat="43.11542" lon="1.91021">
        <ele>346.9</ele>
        <time>2026-05-28T10:34:27Z</time>
      </trkpt>
      <trkpt lat="43.11545" lon="1.91016">
        <ele>347.2</ele>
        <time>2026-05-28T10:34:32Z</time>
      </trkpt>
      <trkpt lat="43.11548" lon="1.91009">
        <ele>347.7</ele>
        <time>2026-05-28T10:34:37Z</time>
      </trkpt>
      <trkpt lat="43.1155" lon="1.91002">
        <ele>348.1</ele>
        <time>2026-05-28T10:34:42Z</time>
      </trkpt>
      <trkpt lat="43.11551" lon="1.90997">
        <ele>348.5</ele>
        <time>2026-05-28T10:34:47Z</time>
      </trkpt>
      <trkpt lat="43.11551" lon="1.90989">
        <ele>349.3</ele>
        <time>2026-05-28T10:34:52Z</time>
      </trkpt>
      <trkpt lat="43.11553" lon="1.90983">
        <ele>349.8</ele>
        <time>2026-05-28T10:34:57Z</time>
      </trkpt>
      <trkpt lat="43.11554" lon="1.90977">
        <ele>350.4</ele>
        <time>2026-05-28T10:35:02Z</time>
      </trkpt>
      <trkpt lat="43.11554" lon="1.90971">
        <ele>351</ele>
        <time>2026-05-28T10:35:07Z</time>
      </trkpt>
      <trkpt lat="43.11555" lon="1.90964">
        <ele>351.6</ele>
        <time>2026-05-28T10:35:12Z</time>
      </trkpt>
      <trkpt lat="43.11558" lon="1.90957">
        <ele>352.3</ele>
        <time>2026-05-28T10:35:17Z</time>
      </trkpt>
      <trkpt lat="43.1156" lon="1.90951">
        <ele>352.9</ele>
        <time>2026-05-28T10:35:22Z</time>
      </trkpt>
      <trkpt lat="43.11563" lon="1.90945">
        <ele>353.5</ele>
        <time>2026-05-28T10:35:27Z</time>
      </trkpt>
      <trkpt lat="43.11565" lon="1.90939">
        <ele>354</ele>
        <time>2026-05-28T10:35:32Z</time>
      </trkpt>
      <trkpt lat="43.11567" lon="1.90934">
        <ele>354.5</ele>
        <time>2026-05-28T10:35:37Z</time>
      </trkpt>
      <trkpt lat="43.1157" lon="1.90928">
        <ele>355</ele>
        <time>2026-05-28T10:35:42Z</time>
      </trkpt>
      <trkpt lat="43.11572" lon="1.90922">
        <ele>355.5</ele>
        <time>2026-05-28T10:35:47Z</time>
      </trkpt>
      <trkpt lat="43.11575" lon="1.90916">
        <ele>356.1</ele>
        <time>2026-05-28T10:35:52Z</time>
      </trkpt>
      <trkpt lat="43.11577" lon="1.90911">
        <ele>356.5</ele>
        <time>2026-05-28T10:35:57Z</time>
      </trkpt>
      <trkpt lat="43.11579" lon="1.90905">
        <ele>357</ele>
        <time>2026-05-28T10:36:02Z</time>
      </trkpt>
      <trkpt lat="43.11582" lon="1.909">
        <ele>357.4</ele>
        <time>2026-05-28T10:36:07Z</time>
      </trkpt>
      <trkpt lat="43.11584" lon="1.90894">
        <ele>357.9</ele>
        <time>2026-05-28T10:36:12Z</time>
      </trkpt>
      <trkpt lat="43.11587" lon="1.90888">
        <ele>358.4</ele>
        <time>2026-05-28T10:36:17Z</time>
      </trkpt>
      <trkpt lat="43.11589" lon="1.90881">
        <ele>358.9</ele>
        <time>2026-05-28T10:36:22Z</time>
      </trkpt>
      <trkpt lat="43.11592" lon="1.90876">
        <ele>359.3</ele>
        <time>2026-05-28T10:36:27Z</time>
      </trkpt>
      <trkpt lat="43.11592" lon="1.90871">
        <ele>359.6</ele>
        <time>2026-05-28T10:36:32Z</time>
      </trkpt>
      <trkpt lat="43.11592" lon="1.90869">
        <ele>359.8</ele>
        <time>2026-05-28T10:36:37Z</time>
      </trkpt>
      <trkpt lat="43.11592" lon="1.90869">
        <ele>359.8</ele>
        <time>2026-05-28T10:36:42Z</time>
      </trkpt>
      <trkpt lat="43.11592" lon="1.90869">
        <ele>359.8</ele>
        <time>2026-05-28T10:36:47Z</time>
      </trkpt>
      <trkpt lat="43.11592" lon="1.90869">
        <ele>359.8</ele>
        <time>2026-05-28T10:36:52Z</time>
      </trkpt>
      <trkpt lat="43.11592" lon="1.90869">
        <ele>359.8</ele>
        <time>2026-05-28T10:36:57Z</time>
      </trkpt>
      <trkpt lat="43.11594" lon="1.90868">
        <ele>359.8</ele>
        <time>2026-05-28T10:37:02Z</time>
      </trkpt>
      <trkpt lat="43.11597" lon="1.90862">
        <ele>360.2</ele>
        <time>2026-05-28T10:37:07Z</time>
      </trkpt>
      <trkpt lat="43.116" lon="1.90858">
        <ele>360.3</ele>
        <time>2026-05-28T10:37:12Z</time>
      </trkpt>
      <trkpt lat="43.11603" lon="1.90853">
        <ele>360.6</ele>
        <time>2026-05-28T10:37:17Z</time>
      </trkpt>
      <trkpt lat="43.11604" lon="1.90852">
        <ele>360.6</ele>
        <time>2026-05-28T10:37:22Z</time>
      </trkpt>
      <trkpt lat="43.11605" lon="1.9085">
        <ele>360.7</ele>
        <time>2026-05-28T10:37:27Z</time>
      </trkpt>
      <trkpt lat="43.11609" lon="1.90846">
        <ele>360.7</ele>
        <time>2026-05-28T10:37:32Z</time>
      </trkpt>
      <trkpt lat="43.11613" lon="1.90843">
        <ele>360.7</ele>
        <time>2026-05-28T10:37:37Z</time>
      </trkpt>
      <trkpt lat="43.11618" lon="1.9084">
        <ele>360.6</ele>
        <time>2026-05-28T10:37:42Z</time>
      </trkpt>
      <trkpt lat="43.11621" lon="1.90835">
        <ele>360.7</ele>
        <time>2026-05-28T10:37:47Z</time>
      </trkpt>
      <trkpt lat="43.11624" lon="1.9083">
        <ele>360.7</ele>
        <time>2026-05-28T10:37:52Z</time>
      </trkpt>
      <trkpt lat="43.11627" lon="1.90826">
        <ele>360.6</ele>
        <time>2026-05-28T10:37:57Z</time>
      </trkpt>
      <trkpt lat="43.11629" lon="1.90821">
        <ele>360.7</ele>
        <time>2026-05-28T10:38:02Z</time>
      </trkpt>
      <trkpt lat="43.1163" lon="1.90814">
        <ele>360.8</ele>
        <time>2026-05-28T10:38:07Z</time>
      </trkpt>
      <trkpt lat="43.11631" lon="1.90809">
        <ele>360.9</ele>
        <time>2026-05-28T10:38:12Z</time>
      </trkpt>
      <trkpt lat="43.11634" lon="1.90804">
        <ele>360.9</ele>
        <time>2026-05-28T10:38:17Z</time>
      </trkpt>
      <trkpt lat="43.11635" lon="1.90798">
        <ele>361</ele>
        <time>2026-05-28T10:38:22Z</time>
      </trkpt>
      <trkpt lat="43.11637" lon="1.90794">
        <ele>360.9</ele>
        <time>2026-05-28T10:38:27Z</time>
      </trkpt>
      <trkpt lat="43.11638" lon="1.90788">
        <ele>361</ele>
        <time>2026-05-28T10:38:32Z</time>
      </trkpt>
      <trkpt lat="43.11641" lon="1.90783">
        <ele>360.9</ele>
        <time>2026-05-28T10:38:37Z</time>
      </trkpt>
      <trkpt lat="43.11642" lon="1.90778">
        <ele>360.9</ele>
        <time>2026-05-28T10:38:42Z</time>
      </trkpt>
      <trkpt lat="43.11644" lon="1.90774">
        <ele>360.8</ele>
        <time>2026-05-28T10:38:47Z</time>
      </trkpt>
      <trkpt lat="43.11646" lon="1.90768">
        <ele>360.8</ele>
        <time>2026-05-28T10:38:52Z</time>
      </trkpt>
      <trkpt lat="43.11647" lon="1.90764">
        <ele>360.8</ele>
        <time>2026-05-28T10:38:57Z</time>
      </trkpt>
      <trkpt lat="43.11649" lon="1.9076">
        <ele>360.7</ele>
        <time>2026-05-28T10:39:02Z</time>
      </trkpt>
      <trkpt lat="43.1165" lon="1.90755">
        <ele>360.7</ele>
        <time>2026-05-28T10:39:07Z</time>
      </trkpt>
      <trkpt lat="43.11651" lon="1.90749">
        <ele>360.8</ele>
        <time>2026-05-28T10:39:12Z</time>
      </trkpt>
      <trkpt lat="43.11652" lon="1.90744">
        <ele>361</ele>
        <time>2026-05-28T10:39:17Z</time>
      </trkpt>
      <trkpt lat="43.11653" lon="1.90738">
        <ele>361.3</ele>
        <time>2026-05-28T10:39:22Z</time>
      </trkpt>
      <trkpt lat="43.11654" lon="1.90732">
        <ele>361.7</ele>
        <time>2026-05-28T10:39:27Z</time>
      </trkpt>
      <trkpt lat="43.11655" lon="1.90726">
        <ele>362</ele>
        <time>2026-05-28T10:39:32Z</time>
      </trkpt>
      <trkpt lat="43.11658" lon="1.9072">
        <ele>362.1</ele>
        <time>2026-05-28T10:39:37Z</time>
      </trkpt>
      <trkpt lat="43.1166" lon="1.90712">
        <ele>362.5</ele>
        <time>2026-05-28T10:39:42Z</time>
      </trkpt>
      <trkpt lat="43.11662" lon="1.90705">
        <ele>362.7</ele>
        <time>2026-05-28T10:39:47Z</time>
      </trkpt>
      <trkpt lat="43.11664" lon="1.90699">
        <ele>363</ele>
        <time>2026-05-28T10:39:52Z</time>
      </trkpt>
      <trkpt lat="43.11665" lon="1.90692">
        <ele>363.4</ele>
        <time>2026-05-28T10:39:57Z</time>
      </trkpt>
      <trkpt lat="43.11666" lon="1.90685">
        <ele>363.8</ele>
        <time>2026-05-28T10:40:02Z</time>
      </trkpt>
      <trkpt lat="43.11668" lon="1.90679">
        <ele>364.3</ele>
        <time>2026-05-28T10:40:07Z</time>
      </trkpt>
      <trkpt lat="43.11669" lon="1.90672">
        <ele>364.9</ele>
        <time>2026-05-28T10:40:12Z</time>
      </trkpt>
      <trkpt lat="43.11672" lon="1.90665">
        <ele>365.9</ele>
        <time>2026-05-28T10:40:17Z</time>
      </trkpt>
      <trkpt lat="43.11674" lon="1.90656">
        <ele>367.1</ele>
        <time>2026-05-28T10:40:22Z</time>
      </trkpt>
      <trkpt lat="43.11677" lon="1.90649">
        <ele>368.1</ele>
        <time>2026-05-28T10:40:27Z</time>
      </trkpt>
      <trkpt lat="43.11679" lon="1.90641">
        <ele>369.2</ele>
        <time>2026-05-28T10:40:32Z</time>
      </trkpt>
      <trkpt lat="43.1168" lon="1.90633">
        <ele>370.1</ele>
        <time>2026-05-28T10:40:37Z</time>
      </trkpt>
      <trkpt lat="43.1168" lon="1.90625">
        <ele>370.9</ele>
        <time>2026-05-28T10:40:42Z</time>
      </trkpt>
      <trkpt lat="43.11681" lon="1.90619">
        <ele>371.5</ele>
        <time>2026-05-28T10:40:47Z</time>
      </trkpt>
      <trkpt lat="43.11681" lon="1.90611">
        <ele>372.3</ele>
        <time>2026-05-28T10:40:52Z</time>
      </trkpt>
      <trkpt lat="43.11681" lon="1.90605">
        <ele>372.9</ele>
        <time>2026-05-28T10:40:57Z</time>
      </trkpt>
      <trkpt lat="43.1168" lon="1.90598">
        <ele>373.5</ele>
        <time>2026-05-28T10:41:02Z</time>
      </trkpt>
      <trkpt lat="43.1168" lon="1.90592">
        <ele>374.1</ele>
        <time>2026-05-28T10:41:07Z</time>
      </trkpt>
      <trkpt lat="43.11681" lon="1.90586">
        <ele>374.8</ele>
        <time>2026-05-28T10:41:12Z</time>
      </trkpt>
      <trkpt lat="43.11683" lon="1.90582">
        <ele>375.4</ele>
        <time>2026-05-28T10:41:17Z</time>
      </trkpt>
      <trkpt lat="43.11683" lon="1.90575">
        <ele>376.3</ele>
        <time>2026-05-28T10:41:22Z</time>
      </trkpt>
      <trkpt lat="43.11683" lon="1.90569">
        <ele>377.1</ele>
        <time>2026-05-28T10:41:27Z</time>
      </trkpt>
      <trkpt lat="43.11684" lon="1.90564">
        <ele>377.8</ele>
        <time>2026-05-28T10:41:32Z</time>
      </trkpt>
      <trkpt lat="43.11685" lon="1.90558">
        <ele>378.6</ele>
        <time>2026-05-28T10:41:37Z</time>
      </trkpt>
      <trkpt lat="43.11687" lon="1.90551">
        <ele>379.6</ele>
        <time>2026-05-28T10:41:42Z</time>
      </trkpt>
      <trkpt lat="43.11688" lon="1.90543">
        <ele>380.7</ele>
        <time>2026-05-28T10:41:47Z</time>
      </trkpt>
      <trkpt lat="43.11689" lon="1.90537">
        <ele>381.5</ele>
        <time>2026-05-28T10:41:52Z</time>
      </trkpt>
      <trkpt lat="43.1169" lon="1.90531">
        <ele>382.3</ele>
        <time>2026-05-28T10:41:57Z</time>
      </trkpt>
      <trkpt lat="43.11691" lon="1.90524">
        <ele>383.3</ele>
        <time>2026-05-28T10:42:02Z</time>
      </trkpt>
      <trkpt lat="43.11691" lon="1.90517">
        <ele>384.1</ele>
        <time>2026-05-28T10:42:07Z</time>
      </trkpt>
      <trkpt lat="43.11691" lon="1.9051">
        <ele>385</ele>
        <time>2026-05-28T10:42:12Z</time>
      </trkpt>
      <trkpt lat="43.11692" lon="1.90504">
        <ele>385.8</ele>
        <time>2026-05-28T10:42:17Z</time>
      </trkpt>
      <trkpt lat="43.11691" lon="1.90498">
        <ele>386.7</ele>
        <time>2026-05-28T10:42:22Z</time>
      </trkpt>
      <trkpt lat="43.11691" lon="1.90492">
        <ele>387.8</ele>
        <time>2026-05-28T10:42:27Z</time>
      </trkpt>
      <trkpt lat="43.1169" lon="1.90487">
        <ele>388.7</ele>
        <time>2026-05-28T10:42:32Z</time>
      </trkpt>
      <trkpt lat="43.1169" lon="1.9048">
        <ele>390.1</ele>
        <time>2026-05-28T10:42:37Z</time>
      </trkpt>
      <trkpt lat="43.11689" lon="1.90474">
        <ele>391.2</ele>
        <time>2026-05-28T10:42:42Z</time>
      </trkpt>
      <trkpt lat="43.11687" lon="1.90469">
        <ele>392.1</ele>
        <time>2026-05-28T10:42:47Z</time>
      </trkpt>
      <trkpt lat="43.11687" lon="1.90469">
        <ele>392.1</ele>
        <time>2026-05-28T10:42:52Z</time>
      </trkpt>
      <trkpt lat="43.11687" lon="1.90469">
        <ele>392.1</ele>
        <time>2026-05-28T10:42:57Z</time>
      </trkpt>
      <trkpt lat="43.11687" lon="1.90469">
        <ele>392.1</ele>
        <time>2026-05-28T10:43:02Z</time>
      </trkpt>
      <trkpt lat="43.11687" lon="1.90469">
        <ele>392.1</ele>
        <time>2026-05-28T10:43:07Z</time>
      </trkpt>
      <trkpt lat="43.11685" lon="1.90457">
        <ele>394.4</ele>
        <time>2026-05-28T10:43:12Z</time>
      </trkpt>
      <trkpt lat="43.11685" lon="1.90457">
        <ele>394.4</ele>
        <time>2026-05-28T10:43:17Z</time>
      </trkpt>
      <trkpt lat="43.11685" lon="1.90457">
        <ele>394.4</ele>
        <time>2026-05-28T10:43:22Z</time>
      </trkpt>
      <trkpt lat="43.11685" lon="1.90457">
        <ele>394.4</ele>
        <time>2026-05-28T10:43:27Z</time>
      </trkpt>
      <trkpt lat="43.11683" lon="1.90461">
        <ele>393.6</ele>
        <time>2026-05-28T10:43:32Z</time>
      </trkpt>
      <trkpt lat="43.11683" lon="1.90461">
        <ele>393.6</ele>
        <time>2026-05-28T10:43:37Z</time>
      </trkpt>
      <trkpt lat="43.11683" lon="1.90461">
        <ele>393.6</ele>
        <time>2026-05-28T10:43:42Z</time>
      </trkpt>
      <trkpt lat="43.11683" lon="1.90461">
        <ele>393.6</ele>
        <time>2026-05-28T10:43:47Z</time>
      </trkpt>
      <trkpt lat="43.11683" lon="1.90461">
        <ele>393.6</ele>
        <time>2026-05-28T10:43:52Z</time>
      </trkpt>
      <trkpt lat="43.11683" lon="1.90461">
        <ele>393.6</ele>
        <time>2026-05-28T10:43:57Z</time>
      </trkpt>
      <trkpt lat="43.11683" lon="1.90461">
        <ele>393.6</ele>
        <time>2026-05-28T10:44:02Z</time>
      </trkpt>
      <trkpt lat="43.11683" lon="1.90461">
        <ele>393.6</ele>
        <time>2026-05-28T10:44:07Z</time>
      </trkpt>
      <trkpt lat="43.11683" lon="1.90461">
        <ele>393.6</ele>
        <time>2026-05-28T10:44:12Z</time>
      </trkpt>
      <trkpt lat="43.11683" lon="1.90461">
        <ele>393.6</ele>
        <time>2026-05-28T10:44:17Z</time>
      </trkpt>
      <trkpt lat="43.11683" lon="1.90461">
        <ele>393.6</ele>
        <time>2026-05-28T10:44:22Z</time>
      </trkpt>
      <trkpt lat="43.11683" lon="1.90461">
        <ele>393.6</ele>
        <time>2026-05-28T10:44:27Z</time>
      </trkpt>
      <trkpt lat="43.11683" lon="1.90461">
        <ele>393.6</ele>
        <time>2026-05-28T10:44:32Z</time>
      </trkpt>
      <trkpt lat="43.11683" lon="1.90461">
        <ele>393.6</ele>
        <time>2026-05-28T10:44:37Z</time>
      </trkpt>
      <trkpt lat="43.11683" lon="1.90461">
        <ele>393.6</ele>
        <time>2026-05-28T10:44:42Z</time>
      </trkpt>
      <trkpt lat="43.11683" lon="1.90461">
        <ele>393.6</ele>
        <time>2026-05-28T10:44:47Z</time>
      </trkpt>
      <trkpt lat="43.11683" lon="1.90461">
        <ele>393.6</ele>
        <time>2026-05-28T10:44:52Z</time>
      </trkpt>
      <trkpt lat="43.11683" lon="1.90461">
        <ele>393.6</ele>
        <time>2026-05-28T10:44:57Z</time>
      </trkpt>
      <trkpt lat="43.11683" lon="1.90461">
        <ele>393.6</ele>
        <time>2026-05-28T10:51:55Z</time>
      </trkpt>
      <trkpt lat="43.11683" lon="1.90461">
        <ele>393.6</ele>
        <time>2026-05-28T10:52:00Z</time>
      </trkpt>
      <trkpt lat="43.11683" lon="1.90461">
        <ele>393.6</ele>
        <time>2026-05-28T10:52:05Z</time>
      </trkpt>
      <trkpt lat="43.11683" lon="1.90461">
        <ele>393.6</ele>
        <time>2026-05-28T10:52:10Z</time>
      </trkpt>
      <trkpt lat="43.11683" lon="1.90461">
        <ele>393.6</ele>
        <time>2026-05-28T10:52:15Z</time>
      </trkpt>
      <trkpt lat="43.11683" lon="1.90461">
        <ele>393.6</ele>
        <time>2026-05-28T10:52:20Z</time>
      </trkpt>
      <trkpt lat="43.11683" lon="1.90461">
        <ele>393.6</ele>
        <time>2026-05-28T10:52:25Z</time>
      </trkpt>
      <trkpt lat="43.11683" lon="1.90461">
        <ele>393.6</ele>
        <time>2026-05-28T10:52:30Z</time>
      </trkpt>
      <trkpt lat="43.11683" lon="1.90461">
        <ele>393.6</ele>
        <time>2026-05-28T10:52:35Z</time>
      </trkpt>
      <trkpt lat="43.11683" lon="1.90461">
        <ele>393.6</ele>
        <time>2026-05-28T10:52:40Z</time>
      </trkpt>
      <trkpt lat="43.11683" lon="1.90461">
        <ele>393.6</ele>
        <time>2026-05-28T10:52:45Z</time>
      </trkpt>
      <trkpt lat="43.11683" lon="1.90461">
        <ele>393.6</ele>
        <time>2026-05-28T10:52:50Z</time>
      </trkpt>
      <trkpt lat="43.11683" lon="1.90461">
        <ele>393.6</ele>
        <time>2026-05-28T10:52:55Z</time>
      </trkpt>
      <trkpt lat="43.11683" lon="1.90461">
        <ele>393.6</ele>
        <time>2026-05-28T10:53:00Z</time>
      </trkpt>
      <trkpt lat="43.11683" lon="1.90461">
        <ele>393.6</ele>
        <time>2026-05-28T10:53:05Z</time>
      </trkpt>
      <trkpt lat="43.11675" lon="1.9045">
        <ele>395.6</ele>
        <time>2026-05-28T10:53:10Z</time>
      </trkpt>
      <trkpt lat="43.11671" lon="1.90447">
        <ele>396.2</ele>
        <time>2026-05-28T10:53:15Z</time>
      </trkpt>
      <trkpt lat="43.11667" lon="1.90443">
        <ele>396.9</ele>
        <time>2026-05-28T10:53:20Z</time>
      </trkpt>
      <trkpt lat="43.11662" lon="1.90441">
        <ele>397</ele>
        <time>2026-05-28T10:53:25Z</time>
      </trkpt>
      <trkpt lat="43.11657" lon="1.90437">
        <ele>397.4</ele>
        <time>2026-05-28T10:53:30Z</time>
      </trkpt>
      <trkpt lat="43.11653" lon="1.90435">
        <ele>397.4</ele>
        <time>2026-05-28T10:53:35Z</time>
      </trkpt>
      <trkpt lat="43.11649" lon="1.90432">
        <ele>397.6</ele>
        <time>2026-05-28T10:53:40Z</time>
      </trkpt>
      <trkpt lat="43.11645" lon="1.90429">
        <ele>397.6</ele>
        <time>2026-05-28T10:53:45Z</time>
      </trkpt>
      <trkpt lat="43.11641" lon="1.90426">
        <ele>397.7</ele>
        <time>2026-05-28T10:53:50Z</time>
      </trkpt>
      <trkpt lat="43.11637" lon="1.90423">
        <ele>397.7</ele>
        <time>2026-05-28T10:53:55Z</time>
      </trkpt>
      <trkpt lat="43.11632" lon="1.90419">
        <ele>397.6</ele>
        <time>2026-05-28T10:54:00Z</time>
      </trkpt>
      <trkpt lat="43.11628" lon="1.90418">
        <ele>397.2</ele>
        <time>2026-05-28T10:54:05Z</time>
      </trkpt>
      <trkpt lat="43.11622" lon="1.90417">
        <ele>396.6</ele>
        <time>2026-05-28T10:54:10Z</time>
      </trkpt>
      <trkpt lat="43.11618" lon="1.90416">
        <ele>396.2</ele>
        <time>2026-05-28T10:54:15Z</time>
      </trkpt>
      <trkpt lat="43.11614" lon="1.90415">
        <ele>395.8</ele>
        <time>2026-05-28T10:54:20Z</time>
      </trkpt>
      <trkpt lat="43.11609" lon="1.90415">
        <ele>395.1</ele>
        <time>2026-05-28T10:54:25Z</time>
      </trkpt>
      <trkpt lat="43.11604" lon="1.90416">
        <ele>394.5</ele>
        <time>2026-05-28T10:54:30Z</time>
      </trkpt>
      <trkpt lat="43.11599" lon="1.90415">
        <ele>393.9</ele>
        <time>2026-05-28T10:54:35Z</time>
      </trkpt>
      <trkpt lat="43.11594" lon="1.90415">
        <ele>393.3</ele>
        <time>2026-05-28T10:54:40Z</time>
      </trkpt>
      <trkpt lat="43.11588" lon="1.90414">
        <ele>392.5</ele>
        <time>2026-05-28T10:54:45Z</time>
      </trkpt>
      <trkpt lat="43.11582" lon="1.90416">
        <ele>391.9</ele>
        <time>2026-05-28T10:54:50Z</time>
      </trkpt>
      <trkpt lat="43.11577" lon="1.90417">
        <ele>391.5</ele>
        <time>2026-05-28T10:54:55Z</time>
      </trkpt>
      <trkpt lat="43.11572" lon="1.90419">
        <ele>391.1</ele>
        <time>2026-05-28T10:55:00Z</time>
      </trkpt>
      <trkpt lat="43.11567" lon="1.90421">
        <ele>390.7</ele>
        <time>2026-05-28T10:55:05Z</time>
      </trkpt>
      <trkpt lat="43.11562" lon="1.90422">
        <ele>390.3</ele>
        <time>2026-05-28T10:55:10Z</time>
      </trkpt>
      <trkpt lat="43.11556" lon="1.90422">
        <ele>389.8</ele>
        <time>2026-05-28T10:55:15Z</time>
      </trkpt>
      <trkpt lat="43.11551" lon="1.90419">
        <ele>389.3</ele>
        <time>2026-05-28T10:55:20Z</time>
      </trkpt>
      <trkpt lat="43.11549" lon="1.90413">
        <ele>388.9</ele>
        <time>2026-05-28T10:55:25Z</time>
      </trkpt>
      <trkpt lat="43.11548" lon="1.90407">
        <ele>388.4</ele>
        <time>2026-05-28T10:55:30Z</time>
      </trkpt>
      <trkpt lat="43.11548" lon="1.90406">
        <ele>388.3</ele>
        <time>2026-05-28T10:55:35Z</time>
      </trkpt>
      <trkpt lat="43.11548" lon="1.90402">
        <ele>388.1</ele>
        <time>2026-05-28T10:55:40Z</time>
      </trkpt>
      <trkpt lat="43.11546" lon="1.90396">
        <ele>387.5</ele>
        <time>2026-05-28T10:55:45Z</time>
      </trkpt>
      <trkpt lat="43.11545" lon="1.90389">
        <ele>386.9</ele>
        <time>2026-05-28T10:55:50Z</time>
      </trkpt>
      <trkpt lat="43.11543" lon="1.90383">
        <ele>386.2</ele>
        <time>2026-05-28T10:55:55Z</time>
      </trkpt>
      <trkpt lat="43.1154" lon="1.90375">
        <ele>385.3</ele>
        <time>2026-05-28T10:56:00Z</time>
      </trkpt>
      <trkpt lat="43.11539" lon="1.90369">
        <ele>384.7</ele>
        <time>2026-05-28T10:56:05Z</time>
      </trkpt>
      <trkpt lat="43.11536" lon="1.90362">
        <ele>383.7</ele>
        <time>2026-05-28T10:56:10Z</time>
      </trkpt>
      <trkpt lat="43.11533" lon="1.90357">
        <ele>382.9</ele>
        <time>2026-05-28T10:56:15Z</time>
      </trkpt>
      <trkpt lat="43.11529" lon="1.9035">
        <ele>381.7</ele>
        <time>2026-05-28T10:56:20Z</time>
      </trkpt>
      <trkpt lat="43.11526" lon="1.90342">
        <ele>380.5</ele>
        <time>2026-05-28T10:56:25Z</time>
      </trkpt>
      <trkpt lat="43.11522" lon="1.90336">
        <ele>379.2</ele>
        <time>2026-05-28T10:56:30Z</time>
      </trkpt>
      <trkpt lat="43.11519" lon="1.9033">
        <ele>378.4</ele>
        <time>2026-05-28T10:56:35Z</time>
      </trkpt>
      <trkpt lat="43.11515" lon="1.90325">
        <ele>377.7</ele>
        <time>2026-05-28T10:56:40Z</time>
      </trkpt>
      <trkpt lat="43.11511" lon="1.90319">
        <ele>377</ele>
        <time>2026-05-28T10:56:45Z</time>
      </trkpt>
      <trkpt lat="43.11507" lon="1.90313">
        <ele>376.3</ele>
        <time>2026-05-28T10:56:50Z</time>
      </trkpt>
      <trkpt lat="43.11503" lon="1.90306">
        <ele>375.5</ele>
        <time>2026-05-28T10:56:55Z</time>
      </trkpt>
      <trkpt lat="43.11501" lon="1.90299">
        <ele>375.2</ele>
        <time>2026-05-28T10:57:00Z</time>
      </trkpt>
      <trkpt lat="43.11498" lon="1.90293">
        <ele>374.9</ele>
        <time>2026-05-28T10:57:05Z</time>
      </trkpt>
      <trkpt lat="43.11497" lon="1.90288">
        <ele>374.8</ele>
        <time>2026-05-28T10:57:10Z</time>
      </trkpt>
      <trkpt lat="43.11492" lon="1.90282">
        <ele>374.6</ele>
        <time>2026-05-28T10:57:15Z</time>
      </trkpt>
      <trkpt lat="43.11487" lon="1.90275">
        <ele>374.5</ele>
        <time>2026-05-28T10:57:20Z</time>
      </trkpt>
      <trkpt lat="43.11482" lon="1.90268">
        <ele>374.4</ele>
        <time>2026-05-28T10:57:25Z</time>
      </trkpt>
      <trkpt lat="43.11478" lon="1.90261">
        <ele>374.5</ele>
        <time>2026-05-28T10:57:30Z</time>
      </trkpt>
      <trkpt lat="43.11474" lon="1.90253">
        <ele>374.6</ele>
        <time>2026-05-28T10:57:35Z</time>
      </trkpt>
      <trkpt lat="43.1147" lon="1.90244">
        <ele>374.9</ele>
        <time>2026-05-28T10:57:40Z</time>
      </trkpt>
      <trkpt lat="43.11467" lon="1.90238">
        <ele>375.1</ele>
        <time>2026-05-28T10:57:45Z</time>
      </trkpt>
      <trkpt lat="43.11463" lon="1.90231">
        <ele>375.5</ele>
        <time>2026-05-28T10:57:50Z</time>
      </trkpt>
      <trkpt lat="43.11461" lon="1.90226">
        <ele>375.7</ele>
        <time>2026-05-28T10:57:55Z</time>
      </trkpt>
      <trkpt lat="43.11458" lon="1.9022">
        <ele>376.1</ele>
        <time>2026-05-28T10:58:00Z</time>
      </trkpt>
      <trkpt lat="43.11454" lon="1.90216">
        <ele>376.5</ele>
        <time>2026-05-28T10:58:05Z</time>
      </trkpt>
      <trkpt lat="43.11448" lon="1.90211">
        <ele>377</ele>
        <time>2026-05-28T10:58:10Z</time>
      </trkpt>
      <trkpt lat="43.11442" lon="1.90206">
        <ele>377.6</ele>
        <time>2026-05-28T10:58:15Z</time>
      </trkpt>
      <trkpt lat="43.11437" lon="1.90202">
        <ele>378.2</ele>
        <time>2026-05-28T10:58:20Z</time>
      </trkpt>
      <trkpt lat="43.11431" lon="1.90198">
        <ele>378.8</ele>
        <time>2026-05-28T10:58:25Z</time>
      </trkpt>
      <trkpt lat="43.11426" lon="1.90195">
        <ele>379.4</ele>
        <time>2026-05-28T10:58:30Z</time>
      </trkpt>
      <trkpt lat="43.11423" lon="1.90187">
        <ele>380.4</ele>
        <time>2026-05-28T10:58:35Z</time>
      </trkpt>
      <trkpt lat="43.11422" lon="1.90179">
        <ele>381.2</ele>
        <time>2026-05-28T10:58:40Z</time>
      </trkpt>
      <trkpt lat="43.1142" lon="1.90172">
        <ele>382.1</ele>
        <time>2026-05-28T10:58:45Z</time>
      </trkpt>
      <trkpt lat="43.11415" lon="1.90166">
        <ele>383.2</ele>
        <time>2026-05-28T10:58:50Z</time>
      </trkpt>
      <trkpt lat="43.11413" lon="1.90159">
        <ele>384.2</ele>
        <time>2026-05-28T10:58:55Z</time>
      </trkpt>
      <trkpt lat="43.11409" lon="1.90153">
        <ele>385.2</ele>
        <time>2026-05-28T10:59:00Z</time>
      </trkpt>
      <trkpt lat="43.11407" lon="1.90145">
        <ele>386.3</ele>
        <time>2026-05-28T10:59:05Z</time>
      </trkpt>
      <trkpt lat="43.11403" lon="1.90139">
        <ele>387.4</ele>
        <time>2026-05-28T10:59:10Z</time>
      </trkpt>
      <trkpt lat="43.114" lon="1.90133">
        <ele>388.3</ele>
        <time>2026-05-28T10:59:15Z</time>
      </trkpt>
      <trkpt lat="43.11396" lon="1.90128">
        <ele>389.2</ele>
        <time>2026-05-28T10:59:20Z</time>
      </trkpt>
      <trkpt lat="43.11392" lon="1.90122">
        <ele>390.3</ele>
        <time>2026-05-28T10:59:25Z</time>
      </trkpt>
      <trkpt lat="43.11389" lon="1.90118">
        <ele>391</ele>
        <time>2026-05-28T10:59:30Z</time>
      </trkpt>
      <trkpt lat="43.11387" lon="1.90112">
        <ele>391.9</ele>
        <time>2026-05-28T10:59:35Z</time>
      </trkpt>
      <trkpt lat="43.11384" lon="1.90107">
        <ele>392.8</ele>
        <time>2026-05-28T10:59:40Z</time>
      </trkpt>
      <trkpt lat="43.11382" lon="1.90102">
        <ele>393.6</ele>
        <time>2026-05-28T10:59:45Z</time>
      </trkpt>
      <trkpt lat="43.11381" lon="1.90097">
        <ele>394.3</ele>
        <time>2026-05-28T10:59:50Z</time>
      </trkpt>
      <trkpt lat="43.1138" lon="1.90092">
        <ele>395</ele>
        <time>2026-05-28T10:59:55Z</time>
      </trkpt>
      <trkpt lat="43.11378" lon="1.90088">
        <ele>395.7</ele>
        <time>2026-05-28T11:00:00Z</time>
      </trkpt>
      <trkpt lat="43.11377" lon="1.90083">
        <ele>396.3</ele>
        <time>2026-05-28T11:00:05Z</time>
      </trkpt>
      <trkpt lat="43.11376" lon="1.90078">
        <ele>396.5</ele>
        <time>2026-05-28T11:00:10Z</time>
      </trkpt>
      <trkpt lat="43.11373" lon="1.90075">
        <ele>396.8</ele>
        <time>2026-05-28T11:00:15Z</time>
      </trkpt>
      <trkpt lat="43.11372" lon="1.9007">
        <ele>397</ele>
        <time>2026-05-28T11:00:20Z</time>
      </trkpt>
      <trkpt lat="43.11372" lon="1.90064">
        <ele>397.1</ele>
        <time>2026-05-28T11:00:25Z</time>
      </trkpt>
      <trkpt lat="43.11369" lon="1.90059">
        <ele>397.4</ele>
        <time>2026-05-28T11:00:30Z</time>
      </trkpt>
      <trkpt lat="43.11367" lon="1.90054">
        <ele>397.7</ele>
        <time>2026-05-28T11:00:35Z</time>
      </trkpt>
      <trkpt lat="43.11366" lon="1.90048">
        <ele>397.8</ele>
        <time>2026-05-28T11:00:40Z</time>
      </trkpt>
      <trkpt lat="43.11364" lon="1.90042">
        <ele>398.1</ele>
        <time>2026-05-28T11:00:45Z</time>
      </trkpt>
      <trkpt lat="43.11362" lon="1.90037">
        <ele>398.3</ele>
        <time>2026-05-28T11:00:50Z</time>
      </trkpt>
      <trkpt lat="43.11359" lon="1.90032">
        <ele>398.6</ele>
        <time>2026-05-28T11:00:55Z</time>
      </trkpt>
      <trkpt lat="43.11355" lon="1.90026">
        <ele>399</ele>
        <time>2026-05-28T11:01:00Z</time>
      </trkpt>
      <trkpt lat="43.11354" lon="1.9002">
        <ele>399.2</ele>
        <time>2026-05-28T11:01:05Z</time>
      </trkpt>
      <trkpt lat="43.11351" lon="1.90013">
        <ele>399.5</ele>
        <time>2026-05-28T11:01:10Z</time>
      </trkpt>
      <trkpt lat="43.11349" lon="1.90007">
        <ele>399.8</ele>
        <time>2026-05-28T11:01:15Z</time>
      </trkpt>
      <trkpt lat="43.11347" lon="1.90001">
        <ele>400</ele>
        <time>2026-05-28T11:01:20Z</time>
      </trkpt>
      <trkpt lat="43.11345" lon="1.89995">
        <ele>399.4</ele>
        <time>2026-05-28T11:01:25Z</time>
      </trkpt>
      <trkpt lat="43.11343" lon="1.89988">
        <ele>398.5</ele>
        <time>2026-05-28T11:01:30Z</time>
      </trkpt>
      <trkpt lat="43.11341" lon="1.89981">
        <ele>397.5</ele>
        <time>2026-05-28T11:01:35Z</time>
      </trkpt>
      <trkpt lat="43.11339" lon="1.89975">
        <ele>396.7</ele>
        <time>2026-05-28T11:01:40Z</time>
      </trkpt>
      <trkpt lat="43.11337" lon="1.89969">
        <ele>395.9</ele>
        <time>2026-05-28T11:01:45Z</time>
      </trkpt>
      <trkpt lat="43.11335" lon="1.89963">
        <ele>395.1</ele>
        <time>2026-05-28T11:01:50Z</time>
      </trkpt>
      <trkpt lat="43.1133" lon="1.89955">
        <ele>393.5</ele>
        <time>2026-05-28T11:01:55Z</time>
      </trkpt>
      <trkpt lat="43.11328" lon="1.89949">
        <ele>392.4</ele>
        <time>2026-05-28T11:02:00Z</time>
      </trkpt>
      <trkpt lat="43.11325" lon="1.89942">
        <ele>390.9</ele>
        <time>2026-05-28T11:02:05Z</time>
      </trkpt>
      <trkpt lat="43.11321" lon="1.89937">
        <ele>389.7</ele>
        <time>2026-05-28T11:02:10Z</time>
      </trkpt>
      <trkpt lat="43.11318" lon="1.89929">
        <ele>388.2</ele>
        <time>2026-05-28T11:02:15Z</time>
      </trkpt>
      <trkpt lat="43.11314" lon="1.89924">
        <ele>387</ele>
        <time>2026-05-28T11:02:20Z</time>
      </trkpt>
      <trkpt lat="43.11307" lon="1.89919">
        <ele>385.5</ele>
        <time>2026-05-28T11:02:25Z</time>
      </trkpt>
      <trkpt lat="43.11302" lon="1.89918">
        <ele>384.8</ele>
        <time>2026-05-28T11:02:30Z</time>
      </trkpt>
      <trkpt lat="43.11296" lon="1.89916">
        <ele>383.9</ele>
        <time>2026-05-28T11:02:35Z</time>
      </trkpt>
      <trkpt lat="43.1129" lon="1.89914">
        <ele>383</ele>
        <time>2026-05-28T11:02:40Z</time>
      </trkpt>
      <trkpt lat="43.11285" lon="1.89913">
        <ele>382.3</ele>
        <time>2026-05-28T11:02:45Z</time>
      </trkpt>
      <trkpt lat="43.11279" lon="1.89912">
        <ele>381.5</ele>
        <time>2026-05-28T11:02:50Z</time>
      </trkpt>
      <trkpt lat="43.11273" lon="1.8991">
        <ele>380.6</ele>
        <time>2026-05-28T11:02:55Z</time>
      </trkpt>
      <trkpt lat="43.11268" lon="1.89909">
        <ele>380</ele>
        <time>2026-05-28T11:03:00Z</time>
      </trkpt>
      <trkpt lat="43.11261" lon="1.89906">
        <ele>378.8</ele>
        <time>2026-05-28T11:03:05Z</time>
      </trkpt>
      <trkpt lat="43.11255" lon="1.89904">
        <ele>377.9</ele>
        <time>2026-05-28T11:03:10Z</time>
      </trkpt>
      <trkpt lat="43.11249" lon="1.89902">
        <ele>376.9</ele>
        <time>2026-05-28T11:03:15Z</time>
      </trkpt>
      <trkpt lat="43.11245" lon="1.89898">
        <ele>375.6</ele>
        <time>2026-05-28T11:03:20Z</time>
      </trkpt>
      <trkpt lat="43.11239" lon="1.89894">
        <ele>374</ele>
        <time>2026-05-28T11:03:25Z</time>
      </trkpt>
      <trkpt lat="43.11235" lon="1.89891">
        <ele>373</ele>
        <time>2026-05-28T11:03:30Z</time>
      </trkpt>
      <trkpt lat="43.1123" lon="1.89887">
        <ele>371.6</ele>
        <time>2026-05-28T11:03:35Z</time>
      </trkpt>
      <trkpt lat="43.11225" lon="1.89883">
        <ele>370.2</ele>
        <time>2026-05-28T11:03:40Z</time>
      </trkpt>
      <trkpt lat="43.11218" lon="1.89878">
        <ele>368.5</ele>
        <time>2026-05-28T11:03:45Z</time>
      </trkpt>
      <trkpt lat="43.11213" lon="1.89877">
        <ele>367.5</ele>
        <time>2026-05-28T11:03:50Z</time>
      </trkpt>
      <trkpt lat="43.11208" lon="1.89875">
        <ele>366.4</ele>
        <time>2026-05-28T11:03:55Z</time>
      </trkpt>
      <trkpt lat="43.11203" lon="1.89875">
        <ele>365.6</ele>
        <time>2026-05-28T11:04:00Z</time>
      </trkpt>
      <trkpt lat="43.11199" lon="1.89877">
        <ele>365.1</ele>
        <time>2026-05-28T11:04:05Z</time>
      </trkpt>
      <trkpt lat="43.11194" lon="1.89879">
        <ele>364.5</ele>
        <time>2026-05-28T11:04:10Z</time>
      </trkpt>
      <trkpt lat="43.11189" lon="1.8988">
        <ele>363.7</ele>
        <time>2026-05-28T11:04:15Z</time>
      </trkpt>
      <trkpt lat="43.11184" lon="1.89877">
        <ele>362.6</ele>
        <time>2026-05-28T11:04:20Z</time>
      </trkpt>
      <trkpt lat="43.11181" lon="1.89873">
        <ele>361.7</ele>
        <time>2026-05-28T11:04:25Z</time>
      </trkpt>
      <trkpt lat="43.1118" lon="1.89867">
        <ele>361</ele>
        <time>2026-05-28T11:04:30Z</time>
      </trkpt>
      <trkpt lat="43.1118" lon="1.89862">
        <ele>360.5</ele>
        <time>2026-05-28T11:04:35Z</time>
      </trkpt>
      <trkpt lat="43.11181" lon="1.89857">
        <ele>360.2</ele>
        <time>2026-05-28T11:04:40Z</time>
      </trkpt>
      <trkpt lat="43.11181" lon="1.89854">
        <ele>360</ele>
        <time>2026-05-28T11:04:45Z</time>
      </trkpt>
      <trkpt lat="43.11182" lon="1.89847">
        <ele>359.5</ele>
        <time>2026-05-28T11:04:50Z</time>
      </trkpt>
      <trkpt lat="43.11182" lon="1.8984">
        <ele>358.8</ele>
        <time>2026-05-28T11:04:55Z</time>
      </trkpt>
      <trkpt lat="43.11181" lon="1.89834">
        <ele>358.1</ele>
        <time>2026-05-28T11:05:00Z</time>
      </trkpt>
      <trkpt lat="43.11181" lon="1.89828">
        <ele>357.6</ele>
        <time>2026-05-28T11:05:05Z</time>
      </trkpt>
      <trkpt lat="43.11182" lon="1.89824">
        <ele>357.5</ele>
        <time>2026-05-28T11:05:10Z</time>
      </trkpt>
      <trkpt lat="43.11182" lon="1.89818">
        <ele>357</ele>
        <time>2026-05-28T11:05:15Z</time>
      </trkpt>
      <trkpt lat="43.11184" lon="1.89813">
        <ele>356.8</ele>
        <time>2026-05-28T11:05:20Z</time>
      </trkpt>
      <trkpt lat="43.11187" lon="1.89808">
        <ele>356.8</ele>
        <time>2026-05-28T11:05:25Z</time>
      </trkpt>
      <trkpt lat="43.11187" lon="1.89802">
        <ele>356.3</ele>
        <time>2026-05-28T11:05:30Z</time>
      </trkpt>
      <trkpt lat="43.11189" lon="1.89796">
        <ele>356</ele>
        <time>2026-05-28T11:05:35Z</time>
      </trkpt>
      <trkpt lat="43.11192" lon="1.8979">
        <ele>355.9</ele>
        <time>2026-05-28T11:05:40Z</time>
      </trkpt>
      <trkpt lat="43.11196" lon="1.89783">
        <ele>355.7</ele>
        <time>2026-05-28T11:05:45Z</time>
      </trkpt>
      <trkpt lat="43.11199" lon="1.89776">
        <ele>355.5</ele>
        <time>2026-05-28T11:05:50Z</time>
      </trkpt>
      <trkpt lat="43.11201" lon="1.89768">
        <ele>354.9</ele>
        <time>2026-05-28T11:05:55Z</time>
      </trkpt>
      <trkpt lat="43.11204" lon="1.89762">
        <ele>354.7</ele>
        <time>2026-05-28T11:06:00Z</time>
      </trkpt>
      <trkpt lat="43.11207" lon="1.89754">
        <ele>354.3</ele>
        <time>2026-05-28T11:06:05Z</time>
      </trkpt>
      <trkpt lat="43.1121" lon="1.89748">
        <ele>354</ele>
        <time>2026-05-28T11:06:10Z</time>
      </trkpt>
      <trkpt lat="43.11213" lon="1.89743">
        <ele>353.8</ele>
        <time>2026-05-28T11:06:15Z</time>
      </trkpt>
      <trkpt lat="43.11215" lon="1.89738">
        <ele>353.4</ele>
        <time>2026-05-28T11:06:20Z</time>
      </trkpt>
      <trkpt lat="43.11218" lon="1.89732">
        <ele>353.1</ele>
        <time>2026-05-28T11:06:25Z</time>
      </trkpt>
      <trkpt lat="43.11221" lon="1.89725">
        <ele>352.6</ele>
        <time>2026-05-28T11:06:30Z</time>
      </trkpt>
      <trkpt lat="43.11224" lon="1.89719">
        <ele>352.2</ele>
        <time>2026-05-28T11:06:35Z</time>
      </trkpt>
      <trkpt lat="43.11226" lon="1.89713">
        <ele>351.8</ele>
        <time>2026-05-28T11:06:40Z</time>
      </trkpt>
      <trkpt lat="43.11228" lon="1.89706">
        <ele>351.2</ele>
        <time>2026-05-28T11:06:45Z</time>
      </trkpt>
      <trkpt lat="43.11231" lon="1.89699">
        <ele>350.6</ele>
        <time>2026-05-28T11:06:50Z</time>
      </trkpt>
      <trkpt lat="43.11233" lon="1.89693">
        <ele>350.1</ele>
        <time>2026-05-28T11:06:55Z</time>
      </trkpt>
      <trkpt lat="43.11235" lon="1.89688">
        <ele>349.7</ele>
        <time>2026-05-28T11:07:00Z</time>
      </trkpt>
      <trkpt lat="43.11235" lon="1.89685">
        <ele>349.3</ele>
        <time>2026-05-28T11:07:05Z</time>
      </trkpt>
      <trkpt lat="43.11236" lon="1.89684">
        <ele>349.3</ele>
        <time>2026-05-28T11:07:10Z</time>
      </trkpt>
      <trkpt lat="43.11239" lon="1.89678">
        <ele>348.8</ele>
        <time>2026-05-28T11:07:15Z</time>
      </trkpt>
      <trkpt lat="43.11242" lon="1.89673">
        <ele>348.3</ele>
        <time>2026-05-28T11:07:20Z</time>
      </trkpt>
      <trkpt lat="43.11245" lon="1.89668">
        <ele>347.9</ele>
        <time>2026-05-28T11:07:25Z</time>
      </trkpt>
      <trkpt lat="43.11247" lon="1.89661">
        <ele>347.1</ele>
        <time>2026-05-28T11:07:30Z</time>
      </trkpt>
      <trkpt lat="43.11247" lon="1.89655">
        <ele>346.3</ele>
        <time>2026-05-28T11:07:35Z</time>
      </trkpt>
      <trkpt lat="43.11246" lon="1.89648">
        <ele>345.4</ele>
        <time>2026-05-28T11:07:40Z</time>
      </trkpt>
      <trkpt lat="43.11242" lon="1.89645">
        <ele>344.8</ele>
        <time>2026-05-28T11:07:45Z</time>
      </trkpt>
      <trkpt lat="43.11236" lon="1.89647">
        <ele>344.8</ele>
        <time>2026-05-28T11:07:50Z</time>
      </trkpt>
      <trkpt lat="43.11232" lon="1.89651">
        <ele>345.1</ele>
        <time>2026-05-28T11:07:55Z</time>
      </trkpt>
      <trkpt lat="43.1123" lon="1.89655">
        <ele>345.5</ele>
        <time>2026-05-28T11:08:00Z</time>
      </trkpt>
      <trkpt lat="43.11227" lon="1.89661">
        <ele>346.2</ele>
        <time>2026-05-28T11:08:05Z</time>
      </trkpt>
      <trkpt lat="43.11222" lon="1.89664">
        <ele>346.3</ele>
        <time>2026-05-28T11:08:10Z</time>
      </trkpt>
      <trkpt lat="43.11215" lon="1.89665">
        <ele>346.1</ele>
        <time>2026-05-28T11:08:15Z</time>
      </trkpt>
      <trkpt lat="43.11208" lon="1.89664">
        <ele>345.6</ele>
        <time>2026-05-28T11:08:20Z</time>
      </trkpt>
      <trkpt lat="43.11202" lon="1.89662">
        <ele>345.1</ele>
        <time>2026-05-28T11:08:25Z</time>
      </trkpt>
      <trkpt lat="43.11198" lon="1.89662">
        <ele>344.9</ele>
        <time>2026-05-28T11:08:30Z</time>
      </trkpt>
      <trkpt lat="43.11195" lon="1.89662">
        <ele>344.8</ele>
        <time>2026-05-28T11:08:35Z</time>
      </trkpt>
      <trkpt lat="43.11191" lon="1.89662">
        <ele>344.6</ele>
        <time>2026-05-28T11:08:40Z</time>
      </trkpt>
      <trkpt lat="43.11185" lon="1.8966">
        <ele>344.1</ele>
        <time>2026-05-28T11:08:45Z</time>
      </trkpt>
      <trkpt lat="43.1118" lon="1.89658">
        <ele>343.6</ele>
        <time>2026-05-28T11:08:50Z</time>
      </trkpt>
      <trkpt lat="43.11174" lon="1.89657">
        <ele>343.2</ele>
        <time>2026-05-28T11:08:55Z</time>
      </trkpt>
      <trkpt lat="43.11169" lon="1.89655">
        <ele>342.7</ele>
        <time>2026-05-28T11:09:00Z</time>
      </trkpt>
      <trkpt lat="43.11163" lon="1.89653">
        <ele>341.9</ele>
        <time>2026-05-28T11:09:05Z</time>
      </trkpt>
      <trkpt lat="43.11158" lon="1.89652">
        <ele>341.3</ele>
        <time>2026-05-28T11:09:10Z</time>
      </trkpt>
      <trkpt lat="43.11152" lon="1.8965">
        <ele>340.4</ele>
        <time>2026-05-28T11:09:15Z</time>
      </trkpt>
      <trkpt lat="43.11146" lon="1.89648">
        <ele>339.5</ele>
        <time>2026-05-28T11:09:20Z</time>
      </trkpt>
      <trkpt lat="43.11141" lon="1.89647">
        <ele>338.9</ele>
        <time>2026-05-28T11:09:25Z</time>
      </trkpt>
      <trkpt lat="43.11137" lon="1.89645">
        <ele>338.2</ele>
        <time>2026-05-28T11:09:30Z</time>
      </trkpt>
      <trkpt lat="43.11131" lon="1.89645">
        <ele>337.6</ele>
        <time>2026-05-28T11:09:35Z</time>
      </trkpt>
      <trkpt lat="43.11125" lon="1.89647">
        <ele>337.1</ele>
        <time>2026-05-28T11:09:40Z</time>
      </trkpt>
      <trkpt lat="43.1112" lon="1.8965">
        <ele>336.8</ele>
        <time>2026-05-28T11:09:45Z</time>
      </trkpt>
      <trkpt lat="43.11115" lon="1.89654">
        <ele>336.7</ele>
        <time>2026-05-28T11:09:50Z</time>
      </trkpt>
      <trkpt lat="43.11109" lon="1.89658">
        <ele>336.3</ele>
        <time>2026-05-28T11:09:55Z</time>
      </trkpt>
      <trkpt lat="43.11105" lon="1.89666">
        <ele>336.5</ele>
        <time>2026-05-28T11:10:00Z</time>
      </trkpt>
      <trkpt lat="43.11101" lon="1.89673">
        <ele>336.6</ele>
        <time>2026-05-28T11:10:05Z</time>
      </trkpt>
      <trkpt lat="43.11098" lon="1.8968">
        <ele>336.9</ele>
        <time>2026-05-28T11:10:10Z</time>
      </trkpt>
      <trkpt lat="43.11095" lon="1.89688">
        <ele>337.2</ele>
        <time>2026-05-28T11:10:15Z</time>
      </trkpt>
      <trkpt lat="43.11092" lon="1.89697">
        <ele>337.6</ele>
        <time>2026-05-28T11:10:20Z</time>
      </trkpt>
      <trkpt lat="43.1109" lon="1.89703">
        <ele>337.8</ele>
        <time>2026-05-28T11:10:25Z</time>
      </trkpt>
      <trkpt lat="43.11089" lon="1.89707">
        <ele>338</ele>
        <time>2026-05-28T11:10:30Z</time>
      </trkpt>
      <trkpt lat="43.11087" lon="1.89711">
        <ele>338.1</ele>
        <time>2026-05-28T11:10:35Z</time>
      </trkpt>
      <trkpt lat="43.11084" lon="1.89715">
        <ele>338.1</ele>
        <time>2026-05-28T11:10:40Z</time>
      </trkpt>
      <trkpt lat="43.11079" lon="1.89716">
        <ele>337.7</ele>
        <time>2026-05-28T11:10:45Z</time>
      </trkpt>
      <trkpt lat="43.11074" lon="1.89714">
        <ele>337.1</ele>
        <time>2026-05-28T11:10:50Z</time>
      </trkpt>
      <trkpt lat="43.11071" lon="1.89714">
        <ele>336.9</ele>
        <time>2026-05-28T11:10:55Z</time>
      </trkpt>
      <trkpt lat="43.11068" lon="1.89719">
        <ele>337</ele>
        <time>2026-05-28T11:11:00Z</time>
      </trkpt>
      <trkpt lat="43.11064" lon="1.89721">
        <ele>336.8</ele>
        <time>2026-05-28T11:11:05Z</time>
      </trkpt>
      <trkpt lat="43.11059" lon="1.89723">
        <ele>336.5</ele>
        <time>2026-05-28T11:11:10Z</time>
      </trkpt>
      <trkpt lat="43.11053" lon="1.89722">
        <ele>335.9</ele>
        <time>2026-05-28T11:11:15Z</time>
      </trkpt>
      <trkpt lat="43.11048" lon="1.8972">
        <ele>335.2</ele>
        <time>2026-05-28T11:11:20Z</time>
      </trkpt>
      <trkpt lat="43.11042" lon="1.8972">
        <ele>334.7</ele>
        <time>2026-05-28T11:11:25Z</time>
      </trkpt>
      <trkpt lat="43.11036" lon="1.89723">
        <ele>334.4</ele>
        <time>2026-05-28T11:11:30Z</time>
      </trkpt>
      <trkpt lat="43.11032" lon="1.89723">
        <ele>334</ele>
        <time>2026-05-28T11:11:35Z</time>
      </trkpt>
      <trkpt lat="43.11026" lon="1.89725">
        <ele>333.6</ele>
        <time>2026-05-28T11:11:40Z</time>
      </trkpt>
      <trkpt lat="43.11021" lon="1.89728">
        <ele>333.4</ele>
        <time>2026-05-28T11:11:45Z</time>
      </trkpt>
      <trkpt lat="43.11018" lon="1.89729">
        <ele>333.2</ele>
        <time>2026-05-28T11:11:50Z</time>
      </trkpt>
      <trkpt lat="43.11014" lon="1.8973">
        <ele>332.9</ele>
        <time>2026-05-28T11:11:55Z</time>
      </trkpt>
      <trkpt lat="43.11008" lon="1.89731">
        <ele>332.4</ele>
        <time>2026-05-28T11:12:00Z</time>
      </trkpt>
      <trkpt lat="43.11001" lon="1.89732">
        <ele>331.8</ele>
        <time>2026-05-28T11:12:05Z</time>
      </trkpt>
      <trkpt lat="43.10994" lon="1.89731">
        <ele>331.4</ele>
        <time>2026-05-28T11:12:10Z</time>
      </trkpt>
      <trkpt lat="43.1099" lon="1.8973">
        <ele>331.2</ele>
        <time>2026-05-28T11:12:15Z</time>
      </trkpt>
      <trkpt lat="43.10986" lon="1.89729">
        <ele>330.9</ele>
        <time>2026-05-28T11:12:20Z</time>
      </trkpt>
      <trkpt lat="43.1098" lon="1.8973">
        <ele>330.8</ele>
        <time>2026-05-28T11:12:25Z</time>
      </trkpt>
      <trkpt lat="43.10973" lon="1.8973">
        <ele>330.5</ele>
        <time>2026-05-28T11:12:30Z</time>
      </trkpt>
      <trkpt lat="43.10969" lon="1.89728">
        <ele>330.2</ele>
        <time>2026-05-28T11:12:35Z</time>
      </trkpt>
      <trkpt lat="43.10966" lon="1.89729">
        <ele>330.2</ele>
        <time>2026-05-28T11:12:40Z</time>
      </trkpt>
      <trkpt lat="43.10961" lon="1.89728">
        <ele>329.9</ele>
        <time>2026-05-28T11:12:45Z</time>
      </trkpt>
      <trkpt lat="43.10956" lon="1.89729">
        <ele>329.8</ele>
        <time>2026-05-28T11:12:50Z</time>
      </trkpt>
      <trkpt lat="43.10951" lon="1.89729">
        <ele>329.6</ele>
        <time>2026-05-28T11:12:55Z</time>
      </trkpt>
      <trkpt lat="43.10946" lon="1.89729">
        <ele>329.4</ele>
        <time>2026-05-28T11:13:00Z</time>
      </trkpt>
      <trkpt lat="43.1094" lon="1.89726">
        <ele>329</ele>
        <time>2026-05-28T11:13:05Z</time>
      </trkpt>
      <trkpt lat="43.10934" lon="1.8972">
        <ele>328.5</ele>
        <time>2026-05-28T11:13:10Z</time>
      </trkpt>
      <trkpt lat="43.10931" lon="1.89714">
        <ele>328.2</ele>
        <time>2026-05-28T11:13:15Z</time>
      </trkpt>
      <trkpt lat="43.10929" lon="1.89708">
        <ele>327.9</ele>
        <time>2026-05-28T11:13:20Z</time>
      </trkpt>
      <trkpt lat="43.10926" lon="1.89701">
        <ele>327.5</ele>
        <time>2026-05-28T11:13:25Z</time>
      </trkpt>
      <trkpt lat="43.10923" lon="1.89695">
        <ele>327.2</ele>
        <time>2026-05-28T11:13:30Z</time>
      </trkpt>
      <trkpt lat="43.10921" lon="1.8969">
        <ele>326.9</ele>
        <time>2026-05-28T11:13:35Z</time>
      </trkpt>
      <trkpt lat="43.10919" lon="1.89685">
        <ele>326.7</ele>
        <time>2026-05-28T11:13:40Z</time>
      </trkpt>
      <trkpt lat="43.10915" lon="1.89677">
        <ele>326.3</ele>
        <time>2026-05-28T11:13:45Z</time>
      </trkpt>
      <trkpt lat="43.10909" lon="1.89669">
        <ele>325.8</ele>
        <time>2026-05-28T11:13:50Z</time>
      </trkpt>
      <trkpt lat="43.10901" lon="1.89667">
        <ele>325.4</ele>
        <time>2026-05-28T11:13:55Z</time>
      </trkpt>
      <trkpt lat="43.10896" lon="1.89666">
        <ele>325.3</ele>
        <time>2026-05-28T11:14:00Z</time>
      </trkpt>
      <trkpt lat="43.10894" lon="1.89666">
        <ele>325.2</ele>
        <time>2026-05-28T11:14:05Z</time>
      </trkpt>
      <trkpt lat="43.10894" lon="1.89666">
        <ele>325.2</ele>
        <time>2026-05-28T11:14:10Z</time>
      </trkpt>
      <trkpt lat="43.10894" lon="1.89666">
        <ele>325.2</ele>
        <time>2026-05-28T11:14:15Z</time>
      </trkpt>
      <trkpt lat="43.10894" lon="1.89666">
        <ele>325.2</ele>
        <time>2026-05-28T11:14:20Z</time>
      </trkpt>
      <trkpt lat="43.10894" lon="1.89666">
        <ele>325.2</ele>
        <time>2026-05-28T11:14:25Z</time>
      </trkpt>
      <trkpt lat="43.10894" lon="1.89666">
        <ele>325.2</ele>
        <time>2026-05-28T11:14:30Z</time>
      </trkpt>
      <trkpt lat="43.10894" lon="1.89666">
        <ele>325.2</ele>
        <time>2026-05-28T11:14:35Z</time>
      </trkpt>
      <trkpt lat="43.10894" lon="1.89666">
        <ele>325.2</ele>
        <time>2026-05-28T11:14:40Z</time>
      </trkpt>
      <trkpt lat="43.10894" lon="1.89666">
        <ele>325.2</ele>
        <time>2026-05-28T11:14:45Z</time>
      </trkpt>
      <trkpt lat="43.10894" lon="1.89666">
        <ele>325.2</ele>
        <time>2026-05-28T11:14:50Z</time>
      </trkpt>
      <trkpt lat="43.10894" lon="1.89666">
        <ele>325.2</ele>
        <time>2026-05-28T11:14:55Z</time>
      </trkpt>
      <trkpt lat="43.10894" lon="1.89666">
        <ele>325.2</ele>
        <time>2026-05-28T11:15:00Z</time>
      </trkpt>
      <trkpt lat="43.10894" lon="1.89666">
        <ele>325.2</ele>
        <time>2026-05-28T11:15:05Z</time>
      </trkpt>
      <trkpt lat="43.10894" lon="1.89666">
        <ele>325.2</ele>
        <time>2026-05-28T11:15:10Z</time>
      </trkpt>
      <trkpt lat="43.10894" lon="1.89666">
        <ele>325.2</ele>
        <time>2026-05-28T11:15:15Z</time>
      </trkpt>
      <trkpt lat="43.10894" lon="1.89666">
        <ele>325.2</ele>
        <time>2026-05-28T11:15:20Z</time>
      </trkpt>
      <trkpt lat="43.10894" lon="1.89666">
        <ele>325.2</ele>
        <time>2026-05-28T11:15:25Z</time>
      </trkpt>
      <trkpt lat="43.10894" lon="1.89666">
        <ele>325.2</ele>
        <time>2026-05-28T11:15:30Z</time>
      </trkpt>
      <trkpt lat="43.10894" lon="1.89666">
        <ele>325.2</ele>
        <time>2026-05-28T11:15:35Z</time>
      </trkpt>
      <trkpt lat="43.10894" lon="1.89666">
        <ele>325.2</ele>
        <time>2026-05-28T11:15:40Z</time>
      </trkpt>
      <trkpt lat="43.10894" lon="1.89666">
        <ele>325.2</ele>
        <time>2026-05-28T11:15:45Z</time>
      </trkpt>
      <trkpt lat="43.10894" lon="1.89666">
        <ele>325.2</ele>
        <time>2026-05-28T11:15:50Z</time>
      </trkpt>
      <trkpt lat="43.10894" lon="1.89666">
        <ele>325.2</ele>
        <time>2026-05-28T11:15:55Z</time>
      </trkpt>
      <trkpt lat="43.10894" lon="1.89666">
        <ele>325.2</ele>
        <time>2026-05-28T11:16:00Z</time>
      </trkpt>
      <trkpt lat="43.10894" lon="1.89666">
        <ele>325.2</ele>
        <time>2026-05-28T11:16:05Z</time>
      </trkpt>
      <trkpt lat="43.10894" lon="1.89666">
        <ele>325.2</ele>
        <time>2026-05-28T11:16:10Z</time>
      </trkpt>
      <trkpt lat="43.10894" lon="1.89666">
        <ele>325.2</ele>
        <time>2026-05-28T11:16:15Z</time>
      </trkpt>
      <trkpt lat="43.10894" lon="1.89666">
        <ele>325.2</ele>
        <time>2026-05-28T11:16:20Z</time>
      </trkpt>
      <trkpt lat="43.10894" lon="1.89666">
        <ele>325.2</ele>
        <time>2026-05-28T11:16:25Z</time>
      </trkpt>
      <trkpt lat="43.10894" lon="1.89666">
        <ele>325.2</ele>
        <time>2026-05-28T11:16:30Z</time>
      </trkpt>
      <trkpt lat="43.10894" lon="1.89666">
        <ele>325.2</ele>
        <time>2026-05-28T11:16:35Z</time>
      </trkpt>
      <trkpt lat="43.10894" lon="1.89666">
        <ele>325.2</ele>
        <time>2026-05-28T11:16:40Z</time>
      </trkpt>
      <trkpt lat="43.10894" lon="1.89666">
        <ele>325.2</ele>
        <time>2026-05-28T11:16:45Z</time>
      </trkpt>
      <trkpt lat="43.10894" lon="1.89666">
        <ele>325.2</ele>
        <time>2026-05-28T11:16:50Z</time>
      </trkpt>
      <trkpt lat="43.10894" lon="1.89666">
        <ele>325.2</ele>
        <time>2026-05-28T11:16:55Z</time>
      </trkpt>
      <trkpt lat="43.10894" lon="1.89666">
        <ele>325.2</ele>
        <time>2026-05-28T11:17:00Z</time>
      </trkpt>
      <trkpt lat="43.10894" lon="1.89666">
        <ele>325.2</ele>
        <time>2026-05-28T11:17:05Z</time>
      </trkpt>
      <trkpt lat="43.10894" lon="1.89666">
        <ele>325.2</ele>
        <time>2026-05-28T11:17:10Z</time>
      </trkpt>
      <trkpt lat="43.10894" lon="1.89666">
        <ele>325.2</ele>
        <time>2026-05-28T11:17:15Z</time>
      </trkpt>
      <trkpt lat="43.10894" lon="1.89666">
        <ele>325.2</ele>
        <time>2026-05-28T11:17:20Z</time>
      </trkpt>
      <trkpt lat="43.10894" lon="1.89666">
        <ele>325.2</ele>
        <time>2026-05-28T11:17:25Z</time>
      </trkpt>
      <trkpt lat="43.10894" lon="1.89666">
        <ele>325.2</ele>
        <time>2026-05-28T11:17:30Z</time>
      </trkpt>
      <trkpt lat="43.10894" lon="1.89666">
        <ele>325.2</ele>
        <time>2026-05-28T11:17:35Z</time>
      </trkpt>
      <trkpt lat="43.10894" lon="1.89666">
        <ele>325.2</ele>
        <time>2026-05-28T11:17:40Z</time>
      </trkpt>
      <trkpt lat="43.10894" lon="1.89666">
        <ele>325.2</ele>
        <time>2026-05-28T11:17:45Z</time>
      </trkpt>
      <trkpt lat="43.10894" lon="1.89666">
        <ele>325.2</ele>
        <time>2026-05-28T11:17:50Z</time>
      </trkpt>
      <trkpt lat="43.10894" lon="1.89666">
        <ele>325.2</ele>
        <time>2026-05-28T11:17:55Z</time>
      </trkpt>
      <trkpt lat="43.10894" lon="1.89666">
        <ele>325.2</ele>
        <time>2026-05-28T11:18:00Z</time>
      </trkpt>
      <trkpt lat="43.10894" lon="1.89666">
        <ele>325.2</ele>
        <time>2026-05-28T11:18:05Z</time>
      </trkpt>
      <trkpt lat="43.10894" lon="1.89666">
        <ele>325.2</ele>
        <time>2026-05-28T11:18:10Z</time>
      </trkpt>
      <trkpt lat="43.10894" lon="1.89666">
        <ele>325.2</ele>
        <time>2026-05-28T11:18:15Z</time>
      </trkpt>
      <trkpt lat="43.10894" lon="1.89666">
        <ele>325.2</ele>
        <time>2026-05-28T11:18:20Z</time>
      </trkpt>
      <trkpt lat="43.10894" lon="1.89666">
        <ele>325.2</ele>
        <time>2026-05-28T11:18:25Z</time>
      </trkpt>
      <trkpt lat="43.1089" lon="1.89677">
        <ele>325.3</ele>
        <time>2026-05-28T11:18:30Z</time>
      </trkpt>
      <trkpt lat="43.10886" lon="1.89675">
        <ele>325</ele>
        <time>2026-05-28T11:18:35Z</time>
      </trkpt>
      <trkpt lat="43.10882" lon="1.89673">
        <ele>324.9</ele>
        <time>2026-05-28T11:18:40Z</time>
      </trkpt>
      <trkpt lat="43.10878" lon="1.89671">
        <ele>324.7</ele>
        <time>2026-05-28T11:18:45Z</time>
      </trkpt>
      <trkpt lat="43.10874" lon="1.89666">
        <ele>324.5</ele>
        <time>2026-05-28T11:18:50Z</time>
      </trkpt>
      <trkpt lat="43.10872" lon="1.89661">
        <ele>324.8</ele>
        <time>2026-05-28T11:18:55Z</time>
      </trkpt>
      <trkpt lat="43.1087" lon="1.89654">
        <ele>325.2</ele>
        <time>2026-05-28T11:19:00Z</time>
      </trkpt>
      <trkpt lat="43.10869" lon="1.89647">
        <ele>325.6</ele>
        <time>2026-05-28T11:19:05Z</time>
      </trkpt>
      <trkpt lat="43.10866" lon="1.89636">
        <ele>326.3</ele>
        <time>2026-05-28T11:19:10Z</time>
      </trkpt>
      <trkpt lat="43.10863" lon="1.89627">
        <ele>326.9</ele>
        <time>2026-05-28T11:19:15Z</time>
      </trkpt>
      <trkpt lat="43.10859" lon="1.89619">
        <ele>327.4</ele>
        <time>2026-05-28T11:19:20Z</time>
      </trkpt>
      <trkpt lat="43.10856" lon="1.89614">
        <ele>327.7</ele>
        <time>2026-05-28T11:19:25Z</time>
      </trkpt>
      <trkpt lat="43.10855" lon="1.89611">
        <ele>327.9</ele>
        <time>2026-05-28T11:19:30Z</time>
      </trkpt>
      <trkpt lat="43.10853" lon="1.8961">
        <ele>328</ele>
        <time>2026-05-28T11:19:35Z</time>
      </trkpt>
      <trkpt lat="43.10853" lon="1.8961">
        <ele>328</ele>
        <time>2026-05-28T11:19:40Z</time>
      </trkpt>
      <trkpt lat="43.10853" lon="1.8961">
        <ele>328</ele>
        <time>2026-05-28T11:19:45Z</time>
      </trkpt>
      <trkpt lat="43.10853" lon="1.8961">
        <ele>328</ele>
        <time>2026-05-28T11:19:50Z</time>
      </trkpt>
      <trkpt lat="43.10853" lon="1.8961">
        <ele>328</ele>
        <time>2026-05-28T11:19:55Z</time>
      </trkpt>
      <trkpt lat="43.10844" lon="1.89604">
        <ele>328.4</ele>
        <time>2026-05-28T11:20:00Z</time>
      </trkpt>
      <trkpt lat="43.1084" lon="1.89598">
        <ele>328.8</ele>
        <time>2026-05-28T11:20:05Z</time>
      </trkpt>
      <trkpt lat="43.10836" lon="1.89591">
        <ele>329.4</ele>
        <time>2026-05-28T11:20:10Z</time>
      </trkpt>
      <trkpt lat="43.10832" lon="1.89585">
        <ele>329.8</ele>
        <time>2026-05-28T11:20:15Z</time>
      </trkpt>
      <trkpt lat="43.10828" lon="1.89582">
        <ele>329.9</ele>
        <time>2026-05-28T11:20:20Z</time>
      </trkpt>
      <trkpt lat="43.10823" lon="1.89579">
        <ele>330.1</ele>
        <time>2026-05-28T11:20:25Z</time>
      </trkpt>
      <trkpt lat="43.10817" lon="1.89578">
        <ele>329.9</ele>
        <time>2026-05-28T11:20:30Z</time>
      </trkpt>
      <trkpt lat="43.10811" lon="1.89578">
        <ele>329.5</ele>
        <time>2026-05-28T11:20:35Z</time>
      </trkpt>
      <trkpt lat="43.10806" lon="1.89579">
        <ele>329</ele>
        <time>2026-05-28T11:20:40Z</time>
      </trkpt>
      <trkpt lat="43.108" lon="1.89579">
        <ele>328.7</ele>
        <time>2026-05-28T11:20:45Z</time>
      </trkpt>
      <trkpt lat="43.10795" lon="1.8958">
        <ele>328.2</ele>
        <time>2026-05-28T11:20:50Z</time>
      </trkpt>
      <trkpt lat="43.1079" lon="1.8958">
        <ele>327.9</ele>
        <time>2026-05-28T11:20:55Z</time>
      </trkpt>
      <trkpt lat="43.10784" lon="1.8958">
        <ele>327.6</ele>
        <time>2026-05-28T11:21:00Z</time>
      </trkpt>
      <trkpt lat="43.10778" lon="1.8958">
        <ele>327.2</ele>
        <time>2026-05-28T11:21:05Z</time>
      </trkpt>
      <trkpt lat="43.10772" lon="1.89579">
        <ele>327</ele>
        <time>2026-05-28T11:21:10Z</time>
      </trkpt>
      <trkpt lat="43.10765" lon="1.89579">
        <ele>326.6</ele>
        <time>2026-05-28T11:21:15Z</time>
      </trkpt>
      <trkpt lat="43.10758" lon="1.89579">
        <ele>326.2</ele>
        <time>2026-05-28T11:21:20Z</time>
      </trkpt>
      <trkpt lat="43.10752" lon="1.89576">
        <ele>326.3</ele>
        <time>2026-05-28T11:21:25Z</time>
      </trkpt>
      <trkpt lat="43.10746" lon="1.89574">
        <ele>326.3</ele>
        <time>2026-05-28T11:21:30Z</time>
      </trkpt>
      <trkpt lat="43.10743" lon="1.8957">
        <ele>326.9</ele>
        <time>2026-05-28T11:21:35Z</time>
      </trkpt>
      <trkpt lat="43.10739" lon="1.89568">
        <ele>327.1</ele>
        <time>2026-05-28T11:21:40Z</time>
      </trkpt>
      <trkpt lat="43.10734" lon="1.89568">
        <ele>326.9</ele>
        <time>2026-05-28T11:21:45Z</time>
      </trkpt>
      <trkpt lat="43.10729" lon="1.89568">
        <ele>326.7</ele>
        <time>2026-05-28T11:21:50Z</time>
      </trkpt>
      <trkpt lat="43.10722" lon="1.89567">
        <ele>326.7</ele>
        <time>2026-05-28T11:21:55Z</time>
      </trkpt>
      <trkpt lat="43.10717" lon="1.89566">
        <ele>326.7</ele>
        <time>2026-05-28T11:22:00Z</time>
      </trkpt>
      <trkpt lat="43.10711" lon="1.89565">
        <ele>326.6</ele>
        <time>2026-05-28T11:22:05Z</time>
      </trkpt>
      <trkpt lat="43.10705" lon="1.89565">
        <ele>326.4</ele>
        <time>2026-05-28T11:22:10Z</time>
      </trkpt>
      <trkpt lat="43.10698" lon="1.89565">
        <ele>326.2</ele>
        <time>2026-05-28T11:22:15Z</time>
      </trkpt>
      <trkpt lat="43.10693" lon="1.89564">
        <ele>326.2</ele>
        <time>2026-05-28T11:22:20Z</time>
      </trkpt>
      <trkpt lat="43.10688" lon="1.89562">
        <ele>326.3</ele>
        <time>2026-05-28T11:22:25Z</time>
      </trkpt>
      <trkpt lat="43.10684" lon="1.89559">
        <ele>326.5</ele>
        <time>2026-05-28T11:22:30Z</time>
      </trkpt>
      <trkpt lat="43.10681" lon="1.89555">
        <ele>326.9</ele>
        <time>2026-05-28T11:22:35Z</time>
      </trkpt>
      <trkpt lat="43.10677" lon="1.89551">
        <ele>327.3</ele>
        <time>2026-05-28T11:22:40Z</time>
      </trkpt>
      <trkpt lat="43.10673" lon="1.89545">
        <ele>327.9</ele>
        <time>2026-05-28T11:22:45Z</time>
      </trkpt>
      <trkpt lat="43.1067" lon="1.8954">
        <ele>328.3</ele>
        <time>2026-05-28T11:22:50Z</time>
      </trkpt>
      <trkpt lat="43.10665" lon="1.89537">
        <ele>328.6</ele>
        <time>2026-05-28T11:22:55Z</time>
      </trkpt>
      <trkpt lat="43.10662" lon="1.89532">
        <ele>329.4</ele>
        <time>2026-05-28T11:23:00Z</time>
      </trkpt>
      <trkpt lat="43.10659" lon="1.89526">
        <ele>330.2</ele>
        <time>2026-05-28T11:23:05Z</time>
      </trkpt>
      <trkpt lat="43.10653" lon="1.8952">
        <ele>331.2</ele>
        <time>2026-05-28T11:23:10Z</time>
      </trkpt>
      <trkpt lat="43.10646" lon="1.89517">
        <ele>331.9</ele>
        <time>2026-05-28T11:23:15Z</time>
      </trkpt>
      <trkpt lat="43.1064" lon="1.89515">
        <ele>332.3</ele>
        <time>2026-05-28T11:23:20Z</time>
      </trkpt>
      <trkpt lat="43.10634" lon="1.89513">
        <ele>332.8</ele>
        <time>2026-05-28T11:23:25Z</time>
      </trkpt>
      <trkpt lat="43.10628" lon="1.89512">
        <ele>333.2</ele>
        <time>2026-05-28T11:23:30Z</time>
      </trkpt>
      <trkpt lat="43.10623" lon="1.89514">
        <ele>333.2</ele>
        <time>2026-05-28T11:23:35Z</time>
      </trkpt>
      <trkpt lat="43.10617" lon="1.89519">
        <ele>332.9</ele>
        <time>2026-05-28T11:23:40Z</time>
      </trkpt>
      <trkpt lat="43.10611" lon="1.89523">
        <ele>332.8</ele>
        <time>2026-05-28T11:23:45Z</time>
      </trkpt>
      <trkpt lat="43.10604" lon="1.89524">
        <ele>333</ele>
        <time>2026-05-28T11:23:50Z</time>
      </trkpt>
      <trkpt lat="43.10598" lon="1.89526">
        <ele>333.1</ele>
        <time>2026-05-28T11:23:55Z</time>
      </trkpt>
      <trkpt lat="43.10592" lon="1.89529">
        <ele>333.1</ele>
        <time>2026-05-28T11:24:00Z</time>
      </trkpt>
      <trkpt lat="43.10585" lon="1.8953">
        <ele>333.4</ele>
        <time>2026-05-28T11:24:05Z</time>
      </trkpt>
      <trkpt lat="43.1058" lon="1.89532">
        <ele>333.7</ele>
        <time>2026-05-28T11:24:10Z</time>
      </trkpt>
      <trkpt lat="43.10575" lon="1.89532">
        <ele>334.3</ele>
        <time>2026-05-28T11:24:15Z</time>
      </trkpt>
      <trkpt lat="43.1057" lon="1.89532">
        <ele>334.9</ele>
        <time>2026-05-28T11:24:20Z</time>
      </trkpt>
      <trkpt lat="43.10567" lon="1.89531">
        <ele>335.3</ele>
        <time>2026-05-28T11:24:25Z</time>
      </trkpt>
      <trkpt lat="43.10562" lon="1.89529">
        <ele>336</ele>
        <time>2026-05-28T11:24:30Z</time>
      </trkpt>
      <trkpt lat="43.10557" lon="1.89525">
        <ele>337</ele>
        <time>2026-05-28T11:24:35Z</time>
      </trkpt>
      <trkpt lat="43.10553" lon="1.89521">
        <ele>337.8</ele>
        <time>2026-05-28T11:24:40Z</time>
      </trkpt>
      <trkpt lat="43.1055" lon="1.89518">
        <ele>338.4</ele>
        <time>2026-05-28T11:24:45Z</time>
      </trkpt>
      <trkpt lat="43.10546" lon="1.89514">
        <ele>339.2</ele>
        <time>2026-05-28T11:24:50Z</time>
      </trkpt>
      <trkpt lat="43.10542" lon="1.89511">
        <ele>340</ele>
        <time>2026-05-28T11:24:55Z</time>
      </trkpt>
      <trkpt lat="43.10539" lon="1.89507">
        <ele>340.7</ele>
        <time>2026-05-28T11:25:00Z</time>
      </trkpt>
      <trkpt lat="43.10535" lon="1.89503">
        <ele>341.5</ele>
        <time>2026-05-28T11:25:05Z</time>
      </trkpt>
      <trkpt lat="43.10531" lon="1.89499">
        <ele>342.4</ele>
        <time>2026-05-28T11:25:10Z</time>
      </trkpt>
      <trkpt lat="43.10527" lon="1.89495">
        <ele>343.2</ele>
        <time>2026-05-28T11:25:15Z</time>
      </trkpt>
      <trkpt lat="43.10521" lon="1.89491">
        <ele>344.3</ele>
        <time>2026-05-28T11:25:20Z</time>
      </trkpt>
      <trkpt lat="43.10516" lon="1.8949">
        <ele>345</ele>
        <time>2026-05-28T11:25:25Z</time>
      </trkpt>
      <trkpt lat="43.1051" lon="1.89489">
        <ele>345.8</ele>
        <time>2026-05-28T11:25:30Z</time>
      </trkpt>
      <trkpt lat="43.10504" lon="1.89489">
        <ele>346.5</ele>
        <time>2026-05-28T11:25:35Z</time>
      </trkpt>
      <trkpt lat="43.10498" lon="1.89492">
        <ele>346.7</ele>
        <time>2026-05-28T11:25:40Z</time>
      </trkpt>
      <trkpt lat="43.10493" lon="1.89493">
        <ele>346.9</ele>
        <time>2026-05-28T11:25:45Z</time>
      </trkpt>
      <trkpt lat="43.10488" lon="1.89492">
        <ele>347.1</ele>
        <time>2026-05-28T11:25:50Z</time>
      </trkpt>
      <trkpt lat="43.10484" lon="1.89488">
        <ele>347.6</ele>
        <time>2026-05-28T11:25:55Z</time>
      </trkpt>
      <trkpt lat="43.10479" lon="1.89487">
        <ele>347.8</ele>
        <time>2026-05-28T11:26:00Z</time>
      </trkpt>
      <trkpt lat="43.10474" lon="1.89489">
        <ele>347.8</ele>
        <time>2026-05-28T11:26:05Z</time>
      </trkpt>
      <trkpt lat="43.10469" lon="1.89491">
        <ele>347.9</ele>
        <time>2026-05-28T11:26:10Z</time>
      </trkpt>
      <trkpt lat="43.10465" lon="1.89493">
        <ele>348</ele>
        <time>2026-05-28T11:26:15Z</time>
      </trkpt>
      <trkpt lat="43.1046" lon="1.89495">
        <ele>348.1</ele>
        <time>2026-05-28T11:26:20Z</time>
      </trkpt>
      <trkpt lat="43.10456" lon="1.89499">
        <ele>348.1</ele>
        <time>2026-05-28T11:26:25Z</time>
      </trkpt>
      <trkpt lat="43.10452" lon="1.89504">
        <ele>348</ele>
        <time>2026-05-28T11:26:30Z</time>
      </trkpt>
      <trkpt lat="43.10446" lon="1.89507">
        <ele>348.1</ele>
        <time>2026-05-28T11:26:35Z</time>
      </trkpt>
      <trkpt lat="43.10441" lon="1.8951">
        <ele>348.2</ele>
        <time>2026-05-28T11:26:40Z</time>
      </trkpt>
      <trkpt lat="43.10436" lon="1.89512">
        <ele>348.4</ele>
        <time>2026-05-28T11:26:45Z</time>
      </trkpt>
      <trkpt lat="43.10432" lon="1.89513">
        <ele>348.5</ele>
        <time>2026-05-28T11:26:50Z</time>
      </trkpt>
      <trkpt lat="43.10426" lon="1.89517">
        <ele>348.6</ele>
        <time>2026-05-28T11:26:55Z</time>
      </trkpt>
      <trkpt lat="43.10421" lon="1.8952">
        <ele>348.8</ele>
        <time>2026-05-28T11:27:00Z</time>
      </trkpt>
      <trkpt lat="43.10416" lon="1.8952">
        <ele>349</ele>
        <time>2026-05-28T11:27:05Z</time>
      </trkpt>
      <trkpt lat="43.10415" lon="1.89514">
        <ele>349.1</ele>
        <time>2026-05-28T11:27:10Z</time>
      </trkpt>
      <trkpt lat="43.10417" lon="1.8951">
        <ele>349.5</ele>
        <time>2026-05-28T11:27:15Z</time>
      </trkpt>
      <trkpt lat="43.10417" lon="1.8951">
        <ele>349.5</ele>
        <time>2026-05-28T11:27:20Z</time>
      </trkpt>
      <trkpt lat="43.10417" lon="1.8951">
        <ele>349.5</ele>
        <time>2026-05-28T11:27:25Z</time>
      </trkpt>
      <trkpt lat="43.10417" lon="1.8951">
        <ele>349.5</ele>
        <time>2026-05-28T11:27:30Z</time>
      </trkpt>
      <trkpt lat="43.10417" lon="1.8951">
        <ele>349.5</ele>
        <time>2026-05-28T11:27:35Z</time>
      </trkpt>
      <trkpt lat="43.10417" lon="1.8951">
        <ele>349.5</ele>
        <time>2026-05-28T11:27:40Z</time>
      </trkpt>
      <trkpt lat="43.10417" lon="1.8951">
        <ele>349.5</ele>
        <time>2026-05-28T11:27:45Z</time>
      </trkpt>
      <trkpt lat="43.10417" lon="1.8951">
        <ele>349.5</ele>
        <time>2026-05-28T11:27:50Z</time>
      </trkpt>
      <trkpt lat="43.10417" lon="1.8951">
        <ele>349.5</ele>
        <time>2026-05-28T11:27:55Z</time>
      </trkpt>
      <trkpt lat="43.10417" lon="1.8951">
        <ele>349.5</ele>
        <time>2026-05-28T11:28:00Z</time>
      </trkpt>
      <trkpt lat="43.1042" lon="1.89506">
        <ele>349.5</ele>
        <time>2026-05-28T11:28:05Z</time>
      </trkpt>
      <trkpt lat="43.10422" lon="1.89502">
        <ele>349.6</ele>
        <time>2026-05-28T11:28:10Z</time>
      </trkpt>
      <trkpt lat="43.10424" lon="1.89497">
        <ele>349.6</ele>
        <time>2026-05-28T11:28:15Z</time>
      </trkpt>
      <trkpt lat="43.10427" lon="1.89491">
        <ele>349.5</ele>
        <time>2026-05-28T11:28:20Z</time>
      </trkpt>
      <trkpt lat="43.10428" lon="1.89487">
        <ele>349.5</ele>
        <time>2026-05-28T11:28:25Z</time>
      </trkpt>
      <trkpt lat="43.1043" lon="1.89482">
        <ele>349.4</ele>
        <time>2026-05-28T11:28:30Z</time>
      </trkpt>
      <trkpt lat="43.10431" lon="1.89473">
        <ele>349.4</ele>
        <time>2026-05-28T11:28:35Z</time>
      </trkpt>
      <trkpt lat="43.10431" lon="1.89466">
        <ele>349.5</ele>
        <time>2026-05-28T11:28:40Z</time>
      </trkpt>
      <trkpt lat="43.10431" lon="1.89461">
        <ele>349.5</ele>
        <time>2026-05-28T11:28:45Z</time>
      </trkpt>
      <trkpt lat="43.10431" lon="1.89455">
        <ele>349.5</ele>
        <time>2026-05-28T11:28:50Z</time>
      </trkpt>
      <trkpt lat="43.1043" lon="1.89448">
        <ele>349.5</ele>
        <time>2026-05-28T11:28:55Z</time>
      </trkpt>
      <trkpt lat="43.1043" lon="1.89441">
        <ele>349.6</ele>
        <time>2026-05-28T11:29:00Z</time>
      </trkpt>
      <trkpt lat="43.10431" lon="1.89435">
        <ele>349.6</ele>
        <time>2026-05-28T11:29:05Z</time>
      </trkpt>
      <trkpt lat="43.10432" lon="1.89429">
        <ele>349.7</ele>
        <time>2026-05-28T11:29:10Z</time>
      </trkpt>
      <trkpt lat="43.10434" lon="1.89422">
        <ele>349.8</ele>
        <time>2026-05-28T11:29:15Z</time>
      </trkpt>
      <trkpt lat="43.10434" lon="1.89415">
        <ele>349.8</ele>
        <time>2026-05-28T11:29:20Z</time>
      </trkpt>
      <trkpt lat="43.10433" lon="1.89408">
        <ele>349.8</ele>
        <time>2026-05-28T11:29:25Z</time>
      </trkpt>
      <trkpt lat="43.10434" lon="1.89401">
        <ele>349.8</ele>
        <time>2026-05-28T11:29:30Z</time>
      </trkpt>
      <trkpt lat="43.10435" lon="1.89393">
        <ele>349.8</ele>
        <time>2026-05-28T11:29:35Z</time>
      </trkpt>
      <trkpt lat="43.10437" lon="1.89386">
        <ele>350</ele>
        <time>2026-05-28T11:29:40Z</time>
      </trkpt>
      <trkpt lat="43.10438" lon="1.89379">
        <ele>350</ele>
        <time>2026-05-28T11:29:45Z</time>
      </trkpt>
      <trkpt lat="43.1044" lon="1.89372">
        <ele>350.2</ele>
        <time>2026-05-28T11:29:50Z</time>
      </trkpt>
      <trkpt lat="43.10442" lon="1.89365">
        <ele>350.3</ele>
        <time>2026-05-28T11:29:55Z</time>
      </trkpt>
      <trkpt lat="43.10443" lon="1.89358">
        <ele>350.4</ele>
        <time>2026-05-28T11:30:00Z</time>
      </trkpt>
      <trkpt lat="43.10445" lon="1.89352">
        <ele>350.6</ele>
        <time>2026-05-28T11:30:05Z</time>
      </trkpt>
      <trkpt lat="43.10447" lon="1.89346">
        <ele>350.8</ele>
        <time>2026-05-28T11:30:10Z</time>
      </trkpt>
      <trkpt lat="43.10449" lon="1.89339">
        <ele>351.1</ele>
        <time>2026-05-28T11:30:15Z</time>
      </trkpt>
      <trkpt lat="43.10453" lon="1.89333">
        <ele>351.5</ele>
        <time>2026-05-28T11:30:20Z</time>
      </trkpt>
      <trkpt lat="43.10457" lon="1.89328">
        <ele>352.1</ele>
        <time>2026-05-28T11:30:25Z</time>
      </trkpt>
      <trkpt lat="43.1046" lon="1.89325">
        <ele>352.5</ele>
        <time>2026-05-28T11:30:30Z</time>
      </trkpt>
      <trkpt lat="43.10464" lon="1.89319">
        <ele>353</ele>
        <time>2026-05-28T11:30:35Z</time>
      </trkpt>
      <trkpt lat="43.10468" lon="1.89314">
        <ele>353.6</ele>
        <time>2026-05-28T11:30:40Z</time>
      </trkpt>
      <trkpt lat="43.10471" lon="1.8931">
        <ele>354</ele>
        <time>2026-05-28T11:30:45Z</time>
      </trkpt>
      <trkpt lat="43.10474" lon="1.89306">
        <ele>354.4</ele>
        <time>2026-05-28T11:30:50Z</time>
      </trkpt>
      <trkpt lat="43.10479" lon="1.89302">
        <ele>354.9</ele>
        <time>2026-05-28T11:30:55Z</time>
      </trkpt>
      <trkpt lat="43.10482" lon="1.89298">
        <ele>355.3</ele>
        <time>2026-05-28T11:31:00Z</time>
      </trkpt>
      <trkpt lat="43.10486" lon="1.89293">
        <ele>355.8</ele>
        <time>2026-05-28T11:31:05Z</time>
      </trkpt>
      <trkpt lat="43.1049" lon="1.89289">
        <ele>356.2</ele>
        <time>2026-05-28T11:31:10Z</time>
      </trkpt>
      <trkpt lat="43.10494" lon="1.89284">
        <ele>356.7</ele>
        <time>2026-05-28T11:31:15Z</time>
      </trkpt>
      <trkpt lat="43.105" lon="1.8928">
        <ele>357.3</ele>
        <time>2026-05-28T11:31:20Z</time>
      </trkpt>
      <trkpt lat="43.10503" lon="1.89275">
        <ele>357.4</ele>
        <time>2026-05-28T11:31:25Z</time>
      </trkpt>
      <trkpt lat="43.10507" lon="1.89268">
        <ele>357.6</ele>
        <time>2026-05-28T11:31:30Z</time>
      </trkpt>
      <trkpt lat="43.10511" lon="1.89262">
        <ele>357.9</ele>
        <time>2026-05-28T11:31:35Z</time>
      </trkpt>
      <trkpt lat="43.10513" lon="1.89258">
        <ele>358</ele>
        <time>2026-05-28T11:31:40Z</time>
      </trkpt>
      <trkpt lat="43.10515" lon="1.89251">
        <ele>358.3</ele>
        <time>2026-05-28T11:31:45Z</time>
      </trkpt>
      <trkpt lat="43.10517" lon="1.89244">
        <ele>358.6</ele>
        <time>2026-05-28T11:31:50Z</time>
      </trkpt>
      <trkpt lat="43.1052" lon="1.89237">
        <ele>359</ele>
        <time>2026-05-28T11:31:55Z</time>
      </trkpt>
      <trkpt lat="43.10523" lon="1.89229">
        <ele>359.4</ele>
        <time>2026-05-28T11:32:00Z</time>
      </trkpt>
      <trkpt lat="43.10526" lon="1.89223">
        <ele>359.7</ele>
        <time>2026-05-28T11:32:05Z</time>
      </trkpt>
      <trkpt lat="43.1053" lon="1.89216">
        <ele>360.1</ele>
        <time>2026-05-28T11:32:10Z</time>
      </trkpt>
      <trkpt lat="43.10532" lon="1.89208">
        <ele>360.5</ele>
        <time>2026-05-28T11:32:15Z</time>
      </trkpt>
      <trkpt lat="43.10535" lon="1.892">
        <ele>360.9</ele>
        <time>2026-05-28T11:32:20Z</time>
      </trkpt>
      <trkpt lat="43.10538" lon="1.89194">
        <ele>361.2</ele>
        <time>2026-05-28T11:32:25Z</time>
      </trkpt>
      <trkpt lat="43.10541" lon="1.89186">
        <ele>361.7</ele>
        <time>2026-05-28T11:32:30Z</time>
      </trkpt>
      <trkpt lat="43.10545" lon="1.89177">
        <ele>362.2</ele>
        <time>2026-05-28T11:32:35Z</time>
      </trkpt>
      <trkpt lat="43.10549" lon="1.8917">
        <ele>362.6</ele>
        <time>2026-05-28T11:32:40Z</time>
      </trkpt>
      <trkpt lat="43.10553" lon="1.89165">
        <ele>362.8</ele>
        <time>2026-05-28T11:32:45Z</time>
      </trkpt>
      <trkpt lat="43.10558" lon="1.8916">
        <ele>362.8</ele>
        <time>2026-05-28T11:32:50Z</time>
      </trkpt>
      <trkpt lat="43.10564" lon="1.89154">
        <ele>362.7</ele>
        <time>2026-05-28T11:32:55Z</time>
      </trkpt>
      <trkpt lat="43.10569" lon="1.89148">
        <ele>362.6</ele>
        <time>2026-05-28T11:33:00Z</time>
      </trkpt>
      <trkpt lat="43.10575" lon="1.8914">
        <ele>362.4</ele>
        <time>2026-05-28T11:33:05Z</time>
      </trkpt>
      <trkpt lat="43.10583" lon="1.89134">
        <ele>362.4</ele>
        <time>2026-05-28T11:33:10Z</time>
      </trkpt>
      <trkpt lat="43.10588" lon="1.89129">
        <ele>362</ele>
        <time>2026-05-28T11:33:15Z</time>
      </trkpt>
      <trkpt lat="43.10593" lon="1.89123">
        <ele>361.6</ele>
        <time>2026-05-28T11:33:20Z</time>
      </trkpt>
      <trkpt lat="43.10597" lon="1.89118">
        <ele>361.2</ele>
        <time>2026-05-28T11:33:25Z</time>
      </trkpt>
      <trkpt lat="43.10601" lon="1.89114">
        <ele>360.9</ele>
        <time>2026-05-28T11:33:30Z</time>
      </trkpt>
      <trkpt lat="43.10606" lon="1.89109">
        <ele>360.6</ele>
        <time>2026-05-28T11:33:35Z</time>
      </trkpt>
      <trkpt lat="43.10611" lon="1.89106">
        <ele>360.4</ele>
        <time>2026-05-28T11:33:40Z</time>
      </trkpt>
      <trkpt lat="43.10616" lon="1.89101">
        <ele>360.1</ele>
        <time>2026-05-28T11:33:45Z</time>
      </trkpt>
      <trkpt lat="43.10621" lon="1.89097">
        <ele>359.9</ele>
        <time>2026-05-28T11:33:50Z</time>
      </trkpt>
      <trkpt lat="43.10625" lon="1.89093">
        <ele>359.7</ele>
        <time>2026-05-28T11:33:55Z</time>
      </trkpt>
      <trkpt lat="43.10629" lon="1.89089">
        <ele>359.6</ele>
        <time>2026-05-28T11:34:00Z</time>
      </trkpt>
      <trkpt lat="43.10633" lon="1.89084">
        <ele>359.4</ele>
        <time>2026-05-28T11:34:05Z</time>
      </trkpt>
      <trkpt lat="43.10638" lon="1.8908">
        <ele>358.9</ele>
        <time>2026-05-28T11:34:10Z</time>
      </trkpt>
      <trkpt lat="43.10642" lon="1.89074">
        <ele>357.9</ele>
        <time>2026-05-28T11:34:15Z</time>
      </trkpt>
      <trkpt lat="43.10644" lon="1.89068">
        <ele>357</ele>
        <time>2026-05-28T11:34:20Z</time>
      </trkpt>
      <trkpt lat="43.10645" lon="1.8906">
        <ele>355.8</ele>
        <time>2026-05-28T11:34:25Z</time>
      </trkpt>
      <trkpt lat="43.10648" lon="1.89052">
        <ele>354.6</ele>
        <time>2026-05-28T11:34:30Z</time>
      </trkpt>
      <trkpt lat="43.10651" lon="1.89047">
        <ele>353.8</ele>
        <time>2026-05-28T11:34:35Z</time>
      </trkpt>
      <trkpt lat="43.10654" lon="1.89041">
        <ele>352.8</ele>
        <time>2026-05-28T11:34:40Z</time>
      </trkpt>
      <trkpt lat="43.10657" lon="1.89033">
        <ele>351.5</ele>
        <time>2026-05-28T11:34:45Z</time>
      </trkpt>
      <trkpt lat="43.10657" lon="1.89026">
        <ele>350.4</ele>
        <time>2026-05-28T11:34:50Z</time>
      </trkpt>
      <trkpt lat="43.10656" lon="1.89019">
        <ele>349.4</ele>
        <time>2026-05-28T11:34:55Z</time>
      </trkpt>
      <trkpt lat="43.10655" lon="1.89011">
        <ele>348.2</ele>
        <time>2026-05-28T11:35:00Z</time>
      </trkpt>
      <trkpt lat="43.10654" lon="1.89004">
        <ele>347.2</ele>
        <time>2026-05-28T11:35:05Z</time>
      </trkpt>
      <trkpt lat="43.10652" lon="1.88998">
        <ele>346.4</ele>
        <time>2026-05-28T11:35:10Z</time>
      </trkpt>
      <trkpt lat="43.10651" lon="1.88992">
        <ele>345.7</ele>
        <time>2026-05-28T11:35:15Z</time>
      </trkpt>
      <trkpt lat="43.10648" lon="1.88985">
        <ele>344.8</ele>
        <time>2026-05-28T11:35:20Z</time>
      </trkpt>
      <trkpt lat="43.10642" lon="1.88983">
        <ele>344.8</ele>
        <time>2026-05-28T11:35:25Z</time>
      </trkpt>
      <trkpt lat="43.10636" lon="1.88982">
        <ele>344.9</ele>
        <time>2026-05-28T11:35:30Z</time>
      </trkpt>
      <trkpt lat="43.1063" lon="1.88982">
        <ele>345.2</ele>
        <time>2026-05-28T11:35:35Z</time>
      </trkpt>
      <trkpt lat="43.10624" lon="1.88982">
        <ele>345.5</ele>
        <time>2026-05-28T11:35:40Z</time>
      </trkpt>
      <trkpt lat="43.10619" lon="1.88981">
        <ele>345.5</ele>
        <time>2026-05-28T11:35:45Z</time>
      </trkpt>
      <trkpt lat="43.10613" lon="1.88981">
        <ele>345.8</ele>
        <time>2026-05-28T11:35:50Z</time>
      </trkpt>
      <trkpt lat="43.10607" lon="1.8898">
        <ele>345.9</ele>
        <time>2026-05-28T11:35:55Z</time>
      </trkpt>
      <trkpt lat="43.106" lon="1.8898">
        <ele>346.2</ele>
        <time>2026-05-28T11:36:00Z</time>
      </trkpt>
      <trkpt lat="43.10592" lon="1.88979">
        <ele>346.4</ele>
        <time>2026-05-28T11:36:05Z</time>
      </trkpt>
      <trkpt lat="43.10586" lon="1.88976">
        <ele>346.1</ele>
        <time>2026-05-28T11:36:10Z</time>
      </trkpt>
      <trkpt lat="43.1058" lon="1.88977">
        <ele>346.3</ele>
        <time>2026-05-28T11:36:15Z</time>
      </trkpt>
      <trkpt lat="43.10573" lon="1.88978">
        <ele>346.2</ele>
        <time>2026-05-28T11:36:20Z</time>
      </trkpt>
      <trkpt lat="43.10567" lon="1.88977">
        <ele>345.8</ele>
        <time>2026-05-28T11:36:25Z</time>
      </trkpt>
      <trkpt lat="43.10561" lon="1.88976">
        <ele>345.4</ele>
        <time>2026-05-28T11:36:30Z</time>
      </trkpt>
      <trkpt lat="43.10554" lon="1.88975">
        <ele>344.9</ele>
        <time>2026-05-28T11:36:35Z</time>
      </trkpt>
      <trkpt lat="43.10546" lon="1.88975">
        <ele>344.6</ele>
        <time>2026-05-28T11:36:40Z</time>
      </trkpt>
      <trkpt lat="43.10541" lon="1.88972">
        <ele>343.9</ele>
        <time>2026-05-28T11:36:45Z</time>
      </trkpt>
      <trkpt lat="43.10537" lon="1.88966">
        <ele>342.8</ele>
        <time>2026-05-28T11:36:50Z</time>
      </trkpt>
      <trkpt lat="43.10535" lon="1.88961">
        <ele>341.9</ele>
        <time>2026-05-28T11:36:55Z</time>
      </trkpt>
      <trkpt lat="43.10536" lon="1.88958">
        <ele>341.5</ele>
        <time>2026-05-28T11:37:00Z</time>
      </trkpt>
      <trkpt lat="43.10537" lon="1.88956">
        <ele>341.2</ele>
        <time>2026-05-28T11:37:05Z</time>
      </trkpt>
      <trkpt lat="43.10542" lon="1.88951">
        <ele>340.6</ele>
        <time>2026-05-28T11:37:10Z</time>
      </trkpt>
      <trkpt lat="43.10547" lon="1.88946">
        <ele>340</ele>
        <time>2026-05-28T11:37:15Z</time>
      </trkpt>
      <trkpt lat="43.10551" lon="1.8894">
        <ele>339.2</ele>
        <time>2026-05-28T11:37:20Z</time>
      </trkpt>
      <trkpt lat="43.10555" lon="1.88934">
        <ele>338.4</ele>
        <time>2026-05-28T11:37:25Z</time>
      </trkpt>
      <trkpt lat="43.10559" lon="1.88928">
        <ele>337.6</ele>
        <time>2026-05-28T11:37:30Z</time>
      </trkpt>
      <trkpt lat="43.10563" lon="1.88922">
        <ele>336.9</ele>
        <time>2026-05-28T11:37:35Z</time>
      </trkpt>
      <trkpt lat="43.10568" lon="1.88915">
        <ele>336.2</ele>
        <time>2026-05-28T11:37:40Z</time>
      </trkpt>
      <trkpt lat="43.10571" lon="1.88909">
        <ele>335.9</ele>
        <time>2026-05-28T11:37:45Z</time>
      </trkpt>
      <trkpt lat="43.10575" lon="1.88902">
        <ele>335.7</ele>
        <time>2026-05-28T11:37:50Z</time>
      </trkpt>
      <trkpt lat="43.10579" lon="1.88895">
        <ele>335.5</ele>
        <time>2026-05-28T11:37:55Z</time>
      </trkpt>
      <trkpt lat="43.10583" lon="1.88889">
        <ele>335.3</ele>
        <time>2026-05-28T11:38:00Z</time>
      </trkpt>
      <trkpt lat="43.10588" lon="1.88883">
        <ele>335</ele>
        <time>2026-05-28T11:38:05Z</time>
      </trkpt>
      <trkpt lat="43.10591" lon="1.88878">
        <ele>334.7</ele>
        <time>2026-05-28T11:38:10Z</time>
      </trkpt>
      <trkpt lat="43.10593" lon="1.88871">
        <ele>334.3</ele>
        <time>2026-05-28T11:38:15Z</time>
      </trkpt>
      <trkpt lat="43.10595" lon="1.88865">
        <ele>334.1</ele>
        <time>2026-05-28T11:38:20Z</time>
      </trkpt>
      <trkpt lat="43.10598" lon="1.88858">
        <ele>333.7</ele>
        <time>2026-05-28T11:38:25Z</time>
      </trkpt>
      <trkpt lat="43.10602" lon="1.88851">
        <ele>333.5</ele>
        <time>2026-05-28T11:38:30Z</time>
      </trkpt>
      <trkpt lat="43.10605" lon="1.88846">
        <ele>333.3</ele>
        <time>2026-05-28T11:38:35Z</time>
      </trkpt>
      <trkpt lat="43.10608" lon="1.8884">
        <ele>333.2</ele>
        <time>2026-05-28T11:38:40Z</time>
      </trkpt>
      <trkpt lat="43.10611" lon="1.88835">
        <ele>333.1</ele>
        <time>2026-05-28T11:38:45Z</time>
      </trkpt>
      <trkpt lat="43.10614" lon="1.8883">
        <ele>333.2</ele>
        <time>2026-05-28T11:38:50Z</time>
      </trkpt>
      <trkpt lat="43.10617" lon="1.88824">
        <ele>333.5</ele>
        <time>2026-05-28T11:38:55Z</time>
      </trkpt>
      <trkpt lat="43.1062" lon="1.88819">
        <ele>333.8</ele>
        <time>2026-05-28T11:39:00Z</time>
      </trkpt>
      <trkpt lat="43.10623" lon="1.88813">
        <ele>334.1</ele>
        <time>2026-05-28T11:39:05Z</time>
      </trkpt>
      <trkpt lat="43.10626" lon="1.88806">
        <ele>334.3</ele>
        <time>2026-05-28T11:39:10Z</time>
      </trkpt>
      <trkpt lat="43.10628" lon="1.888">
        <ele>334.6</ele>
        <time>2026-05-28T11:39:15Z</time>
      </trkpt>
      <trkpt lat="43.1063" lon="1.88794">
        <ele>334.8</ele>
        <time>2026-05-28T11:39:20Z</time>
      </trkpt>
      <trkpt lat="43.10632" lon="1.88788">
        <ele>335</ele>
        <time>2026-05-28T11:39:25Z</time>
      </trkpt>
      <trkpt lat="43.10635" lon="1.8878">
        <ele>335.2</ele>
        <time>2026-05-28T11:39:30Z</time>
      </trkpt>
      <trkpt lat="43.10638" lon="1.88773">
        <ele>335.4</ele>
        <time>2026-05-28T11:39:35Z</time>
      </trkpt>
      <trkpt lat="43.1064" lon="1.88767">
        <ele>335.6</ele>
        <time>2026-05-28T11:39:40Z</time>
      </trkpt>
      <trkpt lat="43.10643" lon="1.88761">
        <ele>335.8</ele>
        <time>2026-05-28T11:39:45Z</time>
      </trkpt>
      <trkpt lat="43.10645" lon="1.88754">
        <ele>335.9</ele>
        <time>2026-05-28T11:39:50Z</time>
      </trkpt>
      <trkpt lat="43.10648" lon="1.88748">
        <ele>336</ele>
        <time>2026-05-28T11:39:55Z</time>
      </trkpt>
      <trkpt lat="43.10651" lon="1.88742">
        <ele>336.2</ele>
        <time>2026-05-28T11:40:00Z</time>
      </trkpt>
      <trkpt lat="43.10655" lon="1.88737">
        <ele>336.2</ele>
        <time>2026-05-28T11:40:05Z</time>
      </trkpt>
      <trkpt lat="43.10658" lon="1.88731">
        <ele>336.3</ele>
        <time>2026-05-28T11:40:10Z</time>
      </trkpt>
      <trkpt lat="43.10662" lon="1.88725">
        <ele>336.4</ele>
        <time>2026-05-28T11:40:15Z</time>
      </trkpt>
      <trkpt lat="43.10665" lon="1.8872">
        <ele>336.4</ele>
        <time>2026-05-28T11:40:20Z</time>
      </trkpt>
      <trkpt lat="43.10669" lon="1.88715">
        <ele>336.6</ele>
        <time>2026-05-28T11:40:25Z</time>
      </trkpt>
      <trkpt lat="43.10671" lon="1.88709">
        <ele>336.9</ele>
        <time>2026-05-28T11:40:30Z</time>
      </trkpt>
      <trkpt lat="43.10674" lon="1.88703">
        <ele>337.3</ele>
        <time>2026-05-28T11:40:35Z</time>
      </trkpt>
      <trkpt lat="43.10677" lon="1.88698">
        <ele>337.7</ele>
        <time>2026-05-28T11:40:40Z</time>
      </trkpt>
      <trkpt lat="43.1068" lon="1.88692">
        <ele>338.1</ele>
        <time>2026-05-28T11:40:45Z</time>
      </trkpt>
      <trkpt lat="43.10684" lon="1.88686">
        <ele>338.7</ele>
        <time>2026-05-28T11:40:50Z</time>
      </trkpt>
      <trkpt lat="43.10688" lon="1.8868">
        <ele>339.2</ele>
        <time>2026-05-28T11:40:55Z</time>
      </trkpt>
      <trkpt lat="43.10692" lon="1.88675">
        <ele>339.8</ele>
        <time>2026-05-28T11:41:00Z</time>
      </trkpt>
      <trkpt lat="43.10694" lon="1.88668">
        <ele>340.2</ele>
        <time>2026-05-28T11:41:05Z</time>
      </trkpt>
      <trkpt lat="43.10697" lon="1.88662">
        <ele>340.9</ele>
        <time>2026-05-28T11:41:10Z</time>
      </trkpt>
      <trkpt lat="43.10699" lon="1.88656">
        <ele>341.5</ele>
        <time>2026-05-28T11:41:15Z</time>
      </trkpt>
      <trkpt lat="43.107" lon="1.88649">
        <ele>342</ele>
        <time>2026-05-28T11:41:20Z</time>
      </trkpt>
      <trkpt lat="43.10701" lon="1.88642">
        <ele>342.5</ele>
        <time>2026-05-28T11:41:25Z</time>
      </trkpt>
      <trkpt lat="43.10701" lon="1.88635">
        <ele>342.8</ele>
        <time>2026-05-28T11:41:30Z</time>
      </trkpt>
      <trkpt lat="43.10701" lon="1.88629">
        <ele>343.2</ele>
        <time>2026-05-28T11:41:35Z</time>
      </trkpt>
      <trkpt lat="43.107" lon="1.88622">
        <ele>343.5</ele>
        <time>2026-05-28T11:41:40Z</time>
      </trkpt>
      <trkpt lat="43.107" lon="1.88615">
        <ele>343.9</ele>
        <time>2026-05-28T11:41:45Z</time>
      </trkpt>
      <trkpt lat="43.107" lon="1.88607">
        <ele>344.3</ele>
        <time>2026-05-28T11:41:50Z</time>
      </trkpt>
      <trkpt lat="43.107" lon="1.886">
        <ele>344.7</ele>
        <time>2026-05-28T11:41:55Z</time>
      </trkpt>
      <trkpt lat="43.10702" lon="1.88592">
        <ele>345.2</ele>
        <time>2026-05-28T11:42:00Z</time>
      </trkpt>
      <trkpt lat="43.10702" lon="1.88583">
        <ele>345.7</ele>
        <time>2026-05-28T11:42:05Z</time>
      </trkpt>
      <trkpt lat="43.10705" lon="1.88575">
        <ele>346.5</ele>
        <time>2026-05-28T11:42:10Z</time>
      </trkpt>
      <trkpt lat="43.10707" lon="1.88568">
        <ele>347.1</ele>
        <time>2026-05-28T11:42:15Z</time>
      </trkpt>
      <trkpt lat="43.10709" lon="1.88561">
        <ele>347.6</ele>
        <time>2026-05-28T11:42:20Z</time>
      </trkpt>
      <trkpt lat="43.10712" lon="1.88555">
        <ele>348.1</ele>
        <time>2026-05-28T11:42:25Z</time>
      </trkpt>
      <trkpt lat="43.10716" lon="1.88548">
        <ele>348.7</ele>
        <time>2026-05-28T11:42:30Z</time>
      </trkpt>
      <trkpt lat="43.10719" lon="1.88541">
        <ele>349.2</ele>
        <time>2026-05-28T11:42:35Z</time>
      </trkpt>
      <trkpt lat="43.10722" lon="1.88536">
        <ele>349.5</ele>
        <time>2026-05-28T11:42:40Z</time>
      </trkpt>
      <trkpt lat="43.10726" lon="1.8853">
        <ele>349.9</ele>
        <time>2026-05-28T11:42:45Z</time>
      </trkpt>
      <trkpt lat="43.10731" lon="1.88527">
        <ele>350</ele>
        <time>2026-05-28T11:42:50Z</time>
      </trkpt>
      <trkpt lat="43.10735" lon="1.88524">
        <ele>350.2</ele>
        <time>2026-05-28T11:42:55Z</time>
      </trkpt>
      <trkpt lat="43.10741" lon="1.88524">
        <ele>350.2</ele>
        <time>2026-05-28T11:43:00Z</time>
      </trkpt>
      <trkpt lat="43.10747" lon="1.88527">
        <ele>350</ele>
        <time>2026-05-28T11:43:05Z</time>
      </trkpt>
      <trkpt lat="43.10753" lon="1.8853">
        <ele>350.2</ele>
        <time>2026-05-28T11:43:10Z</time>
      </trkpt>
      <trkpt lat="43.10759" lon="1.88529">
        <ele>350.9</ele>
        <time>2026-05-28T11:43:15Z</time>
      </trkpt>
      <trkpt lat="43.10765" lon="1.88524">
        <ele>351.8</ele>
        <time>2026-05-28T11:43:20Z</time>
      </trkpt>
      <trkpt lat="43.1077" lon="1.88519">
        <ele>352.5</ele>
        <time>2026-05-28T11:43:25Z</time>
      </trkpt>
      <trkpt lat="43.10773" lon="1.88514">
        <ele>353</ele>
        <time>2026-05-28T11:43:30Z</time>
      </trkpt>
      <trkpt lat="43.10778" lon="1.88508">
        <ele>353.7</ele>
        <time>2026-05-28T11:43:35Z</time>
      </trkpt>
      <trkpt lat="43.10783" lon="1.88503">
        <ele>354.5</ele>
        <time>2026-05-28T11:43:40Z</time>
      </trkpt>
      <trkpt lat="43.10788" lon="1.88497">
        <ele>355</ele>
        <time>2026-05-28T11:43:45Z</time>
      </trkpt>
      <trkpt lat="43.10792" lon="1.88491">
        <ele>355.2</ele>
        <time>2026-05-28T11:43:50Z</time>
      </trkpt>
      <trkpt lat="43.10799" lon="1.88486">
        <ele>355.7</ele>
        <time>2026-05-28T11:43:55Z</time>
      </trkpt>
      <trkpt lat="43.10803" lon="1.88481">
        <ele>355.9</ele>
        <time>2026-05-28T11:44:00Z</time>
      </trkpt>
      <trkpt lat="43.10808" lon="1.88473">
        <ele>355.9</ele>
        <time>2026-05-28T11:44:05Z</time>
      </trkpt>
      <trkpt lat="43.10814" lon="1.88468">
        <ele>356.1</ele>
        <time>2026-05-28T11:44:10Z</time>
      </trkpt>
      <trkpt lat="43.10819" lon="1.88463">
        <ele>356.2</ele>
        <time>2026-05-28T11:44:15Z</time>
      </trkpt>
      <trkpt lat="43.10824" lon="1.88455">
        <ele>356.1</ele>
        <time>2026-05-28T11:44:20Z</time>
      </trkpt>
      <trkpt lat="43.1083" lon="1.88451">
        <ele>356.3</ele>
        <time>2026-05-28T11:44:25Z</time>
      </trkpt>
      <trkpt lat="43.10836" lon="1.88445">
        <ele>356.2</ele>
        <time>2026-05-28T11:44:30Z</time>
      </trkpt>
      <trkpt lat="43.10841" lon="1.88438">
        <ele>356.1</ele>
        <time>2026-05-28T11:44:35Z</time>
      </trkpt>
      <trkpt lat="43.10846" lon="1.88434">
        <ele>356.2</ele>
        <time>2026-05-28T11:44:40Z</time>
      </trkpt>
      <trkpt lat="43.10852" lon="1.88428">
        <ele>356.4</ele>
        <time>2026-05-28T11:44:45Z</time>
      </trkpt>
      <trkpt lat="43.10857" lon="1.88421">
        <ele>356.5</ele>
        <time>2026-05-28T11:44:50Z</time>
      </trkpt>
      <trkpt lat="43.10863" lon="1.88415">
        <ele>356.8</ele>
        <time>2026-05-28T11:44:55Z</time>
      </trkpt>
      <trkpt lat="43.10869" lon="1.88409">
        <ele>357.1</ele>
        <time>2026-05-28T11:45:00Z</time>
      </trkpt>
      <trkpt lat="43.10873" lon="1.88404">
        <ele>357.4</ele>
        <time>2026-05-28T11:45:05Z</time>
      </trkpt>
      <trkpt lat="43.10877" lon="1.88398">
        <ele>357.5</ele>
        <time>2026-05-28T11:45:10Z</time>
      </trkpt>
      <trkpt lat="43.10882" lon="1.88393">
        <ele>357.8</ele>
        <time>2026-05-28T11:45:15Z</time>
      </trkpt>
      <trkpt lat="43.10888" lon="1.88387">
        <ele>358.2</ele>
        <time>2026-05-28T11:45:20Z</time>
      </trkpt>
      <trkpt lat="43.10892" lon="1.88382">
        <ele>358.4</ele>
        <time>2026-05-28T11:45:25Z</time>
      </trkpt>
      <trkpt lat="43.10897" lon="1.88378">
        <ele>358.7</ele>
        <time>2026-05-28T11:45:30Z</time>
      </trkpt>
      <trkpt lat="43.10904" lon="1.88372">
        <ele>359.2</ele>
        <time>2026-05-28T11:45:35Z</time>
      </trkpt>
      <trkpt lat="43.10909" lon="1.88366">
        <ele>359.4</ele>
        <time>2026-05-28T11:45:40Z</time>
      </trkpt>
      <trkpt lat="43.10909" lon="1.88363">
        <ele>359.3</ele>
        <time>2026-05-28T11:45:45Z</time>
      </trkpt>
      <trkpt lat="43.10909" lon="1.88362">
        <ele>359.3</ele>
        <time>2026-05-28T11:45:50Z</time>
      </trkpt>
      <trkpt lat="43.10909" lon="1.88362">
        <ele>359.3</ele>
        <time>2026-05-28T11:45:55Z</time>
      </trkpt>
      <trkpt lat="43.10908" lon="1.88357">
        <ele>359</ele>
        <time>2026-05-28T11:46:00Z</time>
      </trkpt>
      <trkpt lat="43.10905" lon="1.88352">
        <ele>358.6</ele>
        <time>2026-05-28T11:46:05Z</time>
      </trkpt>
      <trkpt lat="43.10901" lon="1.88349">
        <ele>358.1</ele>
        <time>2026-05-28T11:46:10Z</time>
      </trkpt>
      <trkpt lat="43.10897" lon="1.88344">
        <ele>357.5</ele>
        <time>2026-05-28T11:46:15Z</time>
      </trkpt>
      <trkpt lat="43.1089" lon="1.8834">
        <ele>356.7</ele>
        <time>2026-05-28T11:46:20Z</time>
      </trkpt>
      <trkpt lat="43.10884" lon="1.88335">
        <ele>355.9</ele>
        <time>2026-05-28T11:46:25Z</time>
      </trkpt>
      <trkpt lat="43.10882" lon="1.88335">
        <ele>355.7</ele>
        <time>2026-05-28T11:46:30Z</time>
      </trkpt>
      <trkpt lat="43.10882" lon="1.88335">
        <ele>355.7</ele>
        <time>2026-05-28T11:46:35Z</time>
      </trkpt>
      <trkpt lat="43.10882" lon="1.88335">
        <ele>355.7</ele>
        <time>2026-05-28T11:46:40Z</time>
      </trkpt>
      <trkpt lat="43.10882" lon="1.88335">
        <ele>355.7</ele>
        <time>2026-05-28T11:46:45Z</time>
      </trkpt>
      <trkpt lat="43.10877" lon="1.8833">
        <ele>355.1</ele>
        <time>2026-05-28T11:46:50Z</time>
      </trkpt>
      <trkpt lat="43.10871" lon="1.88325">
        <ele>354.5</ele>
        <time>2026-05-28T11:46:55Z</time>
      </trkpt>
      <trkpt lat="43.10867" lon="1.88322">
        <ele>354</ele>
        <time>2026-05-28T11:47:00Z</time>
      </trkpt>
      <trkpt lat="43.10862" lon="1.88318">
        <ele>353.4</ele>
        <time>2026-05-28T11:47:05Z</time>
      </trkpt>
      <trkpt lat="43.10857" lon="1.88314">
        <ele>352.8</ele>
        <time>2026-05-28T11:47:10Z</time>
      </trkpt>
      <trkpt lat="43.10851" lon="1.88312">
        <ele>352.1</ele>
        <time>2026-05-28T11:47:15Z</time>
      </trkpt>
      <trkpt lat="43.10846" lon="1.88308">
        <ele>351.4</ele>
        <time>2026-05-28T11:47:20Z</time>
      </trkpt>
      <trkpt lat="43.10842" lon="1.88304">
        <ele>350.9</ele>
        <time>2026-05-28T11:47:25Z</time>
      </trkpt>
      <trkpt lat="43.10836" lon="1.88301">
        <ele>350.1</ele>
        <time>2026-05-28T11:47:30Z</time>
      </trkpt>
      <trkpt lat="43.1083" lon="1.88298">
        <ele>349.8</ele>
        <time>2026-05-28T11:47:35Z</time>
      </trkpt>
      <trkpt lat="43.10826" lon="1.88294">
        <ele>349.7</ele>
        <time>2026-05-28T11:47:40Z</time>
      </trkpt>
      <trkpt lat="43.10821" lon="1.88292">
        <ele>349.7</ele>
        <time>2026-05-28T11:47:45Z</time>
      </trkpt>
      <trkpt lat="43.10816" lon="1.8829">
        <ele>349.6</ele>
        <time>2026-05-28T11:47:50Z</time>
      </trkpt>
      <trkpt lat="43.1081" lon="1.88287">
        <ele>349.6</ele>
        <time>2026-05-28T11:47:55Z</time>
      </trkpt>
      <trkpt lat="43.10805" lon="1.88283">
        <ele>349.5</ele>
        <time>2026-05-28T11:48:00Z</time>
      </trkpt>
      <trkpt lat="43.10799" lon="1.8828">
        <ele>349.5</ele>
        <time>2026-05-28T11:48:05Z</time>
      </trkpt>
      <trkpt lat="43.10795" lon="1.88278">
        <ele>349.5</ele>
        <time>2026-05-28T11:48:10Z</time>
      </trkpt>
      <trkpt lat="43.10789" lon="1.88277">
        <ele>349.5</ele>
        <time>2026-05-28T11:48:15Z</time>
      </trkpt>
      <trkpt lat="43.10784" lon="1.88274">
        <ele>349.5</ele>
        <time>2026-05-28T11:48:20Z</time>
      </trkpt>
      <trkpt lat="43.10777" lon="1.88271">
        <ele>349.4</ele>
        <time>2026-05-28T11:48:25Z</time>
      </trkpt>
      <trkpt lat="43.1077" lon="1.88267">
        <ele>349.4</ele>
        <time>2026-05-28T11:48:30Z</time>
      </trkpt>
      <trkpt lat="43.10764" lon="1.88263">
        <ele>349.3</ele>
        <time>2026-05-28T11:48:35Z</time>
      </trkpt>
      <trkpt lat="43.10759" lon="1.8826">
        <ele>349.3</ele>
        <time>2026-05-28T11:48:40Z</time>
      </trkpt>
      <trkpt lat="43.10752" lon="1.88258">
        <ele>349.3</ele>
        <time>2026-05-28T11:48:45Z</time>
      </trkpt>
      <trkpt lat="43.10747" lon="1.88255">
        <ele>349.3</ele>
        <time>2026-05-28T11:48:50Z</time>
      </trkpt>
      <trkpt lat="43.10741" lon="1.88253">
        <ele>349.3</ele>
        <time>2026-05-28T11:48:55Z</time>
      </trkpt>
      <trkpt lat="43.10734" lon="1.8825">
        <ele>349.4</ele>
        <time>2026-05-28T11:49:00Z</time>
      </trkpt>
      <trkpt lat="43.10727" lon="1.88246">
        <ele>349.3</ele>
        <time>2026-05-28T11:49:05Z</time>
      </trkpt>
      <trkpt lat="43.10722" lon="1.88242">
        <ele>349.1</ele>
        <time>2026-05-28T11:49:10Z</time>
      </trkpt>
      <trkpt lat="43.10716" lon="1.88238">
        <ele>348.9</ele>
        <time>2026-05-28T11:49:15Z</time>
      </trkpt>
      <trkpt lat="43.10711" lon="1.88237">
        <ele>348.9</ele>
        <time>2026-05-28T11:49:20Z</time>
      </trkpt>
      <trkpt lat="43.10705" lon="1.88234">
        <ele>348.7</ele>
        <time>2026-05-28T11:49:25Z</time>
      </trkpt>
      <trkpt lat="43.10698" lon="1.88232">
        <ele>348.6</ele>
        <time>2026-05-28T11:49:30Z</time>
      </trkpt>
      <trkpt lat="43.10692" lon="1.88228">
        <ele>348.3</ele>
        <time>2026-05-28T11:49:35Z</time>
      </trkpt>
      <trkpt lat="43.10687" lon="1.88224">
        <ele>348</ele>
        <time>2026-05-28T11:49:40Z</time>
      </trkpt>
      <trkpt lat="43.1068" lon="1.88222">
        <ele>347.9</ele>
        <time>2026-05-28T11:49:45Z</time>
      </trkpt>
      <trkpt lat="43.10675" lon="1.88221">
        <ele>347.8</ele>
        <time>2026-05-28T11:49:50Z</time>
      </trkpt>
      <trkpt lat="43.10669" lon="1.88218">
        <ele>347.5</ele>
        <time>2026-05-28T11:49:55Z</time>
      </trkpt>
      <trkpt lat="43.10662" lon="1.88215">
        <ele>346.7</ele>
        <time>2026-05-28T11:50:00Z</time>
      </trkpt>
      <trkpt lat="43.10655" lon="1.8821">
        <ele>345.3</ele>
        <time>2026-05-28T11:50:05Z</time>
      </trkpt>
      <trkpt lat="43.10651" lon="1.88207">
        <ele>344.6</ele>
        <time>2026-05-28T11:50:10Z</time>
      </trkpt>
      <trkpt lat="43.10646" lon="1.88204">
        <ele>343.7</ele>
        <time>2026-05-28T11:50:15Z</time>
      </trkpt>
      <trkpt lat="43.10639" lon="1.882">
        <ele>342.6</ele>
        <time>2026-05-28T11:50:20Z</time>
      </trkpt>
      <trkpt lat="43.10633" lon="1.88195">
        <ele>341.5</ele>
        <time>2026-05-28T11:50:25Z</time>
      </trkpt>
      <trkpt lat="43.10627" lon="1.88192">
        <ele>340.7</ele>
        <time>2026-05-28T11:50:30Z</time>
      </trkpt>
      <trkpt lat="43.10621" lon="1.88189">
        <ele>339.8</ele>
        <time>2026-05-28T11:50:35Z</time>
      </trkpt>
      <trkpt lat="43.10614" lon="1.88184">
        <ele>338.8</ele>
        <time>2026-05-28T11:50:40Z</time>
      </trkpt>
      <trkpt lat="43.10607" lon="1.8818">
        <ele>337.9</ele>
        <time>2026-05-28T11:50:45Z</time>
      </trkpt>
      <trkpt lat="43.106" lon="1.88177">
        <ele>337</ele>
        <time>2026-05-28T11:50:50Z</time>
      </trkpt>
      <trkpt lat="43.10593" lon="1.88172">
        <ele>336.1</ele>
        <time>2026-05-28T11:50:55Z</time>
      </trkpt>
      <trkpt lat="43.10587" lon="1.88168">
        <ele>335.4</ele>
        <time>2026-05-28T11:51:00Z</time>
      </trkpt>
      <trkpt lat="43.10581" lon="1.88163">
        <ele>335.2</ele>
        <time>2026-05-28T11:51:05Z</time>
      </trkpt>
      <trkpt lat="43.10576" lon="1.88159">
        <ele>335.5</ele>
        <time>2026-05-28T11:51:10Z</time>
      </trkpt>
      <trkpt lat="43.1057" lon="1.88155">
        <ele>335.8</ele>
        <time>2026-05-28T11:51:15Z</time>
      </trkpt>
      <trkpt lat="43.10564" lon="1.88152">
        <ele>336.1</ele>
        <time>2026-05-28T11:51:20Z</time>
      </trkpt>
      <trkpt lat="43.10557" lon="1.88149">
        <ele>336.4</ele>
        <time>2026-05-28T11:51:25Z</time>
      </trkpt>
      <trkpt lat="43.1055" lon="1.88146">
        <ele>336.8</ele>
        <time>2026-05-28T11:51:30Z</time>
      </trkpt>
      <trkpt lat="43.10544" lon="1.88142">
        <ele>337.1</ele>
        <time>2026-05-28T11:51:35Z</time>
      </trkpt>
      <trkpt lat="43.10537" lon="1.88139">
        <ele>337.5</ele>
        <time>2026-05-28T11:51:40Z</time>
      </trkpt>
      <trkpt lat="43.10532" lon="1.88136">
        <ele>337.8</ele>
        <time>2026-05-28T11:51:45Z</time>
      </trkpt>
      <trkpt lat="43.10528" lon="1.88134">
        <ele>338</ele>
        <time>2026-05-28T11:51:50Z</time>
      </trkpt>
      <trkpt lat="43.10525" lon="1.88134">
        <ele>338.2</ele>
        <time>2026-05-28T11:51:55Z</time>
      </trkpt>
      <trkpt lat="43.10524" lon="1.88135">
        <ele>338.2</ele>
        <time>2026-05-28T11:52:00Z</time>
      </trkpt>
      <trkpt lat="43.10523" lon="1.88133">
        <ele>338.3</ele>
        <time>2026-05-28T11:52:05Z</time>
      </trkpt>
      <trkpt lat="43.10521" lon="1.88136">
        <ele>338.3</ele>
        <time>2026-05-28T11:52:10Z</time>
      </trkpt>
      <trkpt lat="43.10521" lon="1.88136">
        <ele>338.3</ele>
        <time>2026-05-28T11:52:15Z</time>
      </trkpt>
      <trkpt lat="43.10521" lon="1.88136">
        <ele>338.3</ele>
        <time>2026-05-28T11:52:20Z</time>
      </trkpt>
      <trkpt lat="43.10521" lon="1.88136">
        <ele>338.3</ele>
        <time>2026-05-28T11:52:25Z</time>
      </trkpt>
      <trkpt lat="43.10521" lon="1.88136">
        <ele>338.3</ele>
        <time>2026-05-28T11:52:30Z</time>
      </trkpt>
      <trkpt lat="43.10521" lon="1.88136">
        <ele>338.3</ele>
        <time>2026-05-28T11:52:35Z</time>
      </trkpt>
      <trkpt lat="43.10521" lon="1.88136">
        <ele>338.3</ele>
        <time>2026-05-28T11:52:40Z</time>
      </trkpt>
      <trkpt lat="43.10521" lon="1.88136">
        <ele>338.3</ele>
        <time>2026-05-28T11:52:45Z</time>
      </trkpt>
      <trkpt lat="43.10521" lon="1.88136">
        <ele>338.3</ele>
        <time>2026-05-28T11:52:50Z</time>
      </trkpt>
      <trkpt lat="43.10521" lon="1.88136">
        <ele>338.3</ele>
        <time>2026-05-28T11:52:55Z</time>
      </trkpt>
      <trkpt lat="43.10521" lon="1.88136">
        <ele>338.3</ele>
        <time>2026-05-28T11:53:00Z</time>
      </trkpt>
      <trkpt lat="43.10521" lon="1.88136">
        <ele>338.3</ele>
        <time>2026-05-28T11:53:05Z</time>
      </trkpt>
      <trkpt lat="43.10521" lon="1.88136">
        <ele>338.3</ele>
        <time>2026-05-28T11:53:10Z</time>
      </trkpt>
      <trkpt lat="43.10521" lon="1.88136">
        <ele>338.3</ele>
        <time>2026-05-28T11:53:15Z</time>
      </trkpt>
      <trkpt lat="43.10521" lon="1.88136">
        <ele>338.3</ele>
        <time>2026-05-28T11:53:20Z</time>
      </trkpt>
      <trkpt lat="43.10521" lon="1.88136">
        <ele>338.3</ele>
        <time>2026-05-28T11:53:25Z</time>
      </trkpt>
      <trkpt lat="43.10521" lon="1.88136">
        <ele>338.3</ele>
        <time>2026-05-28T11:53:30Z</time>
      </trkpt>
      <trkpt lat="43.10521" lon="1.88136">
        <ele>338.3</ele>
        <time>2026-05-28T11:53:35Z</time>
      </trkpt>
      <trkpt lat="43.10521" lon="1.88136">
        <ele>338.3</ele>
        <time>2026-05-28T11:53:40Z</time>
      </trkpt>
      <trkpt lat="43.10521" lon="1.88136">
        <ele>338.3</ele>
        <time>2026-05-28T11:53:45Z</time>
      </trkpt>
      <trkpt lat="43.10521" lon="1.88136">
        <ele>338.3</ele>
        <time>2026-05-28T11:53:50Z</time>
      </trkpt>
      <trkpt lat="43.10521" lon="1.88136">
        <ele>338.3</ele>
        <time>2026-05-28T11:53:55Z</time>
      </trkpt>
      <trkpt lat="43.10521" lon="1.88136">
        <ele>338.3</ele>
        <time>2026-05-28T11:54:00Z</time>
      </trkpt>
      <trkpt lat="43.10521" lon="1.88136">
        <ele>338.3</ele>
        <time>2026-05-28T11:54:05Z</time>
      </trkpt>
      <trkpt lat="43.10521" lon="1.88136">
        <ele>338.3</ele>
        <time>2026-05-28T11:54:10Z</time>
      </trkpt>
      <trkpt lat="43.10521" lon="1.88136">
        <ele>338.3</ele>
        <time>2026-05-28T11:54:15Z</time>
      </trkpt>
      <trkpt lat="43.10521" lon="1.88136">
        <ele>338.3</ele>
        <time>2026-05-28T11:54:20Z</time>
      </trkpt>
      <trkpt lat="43.10521" lon="1.88136">
        <ele>338.3</ele>
        <time>2026-05-28T11:54:25Z</time>
      </trkpt>
      <trkpt lat="43.10521" lon="1.88136">
        <ele>338.3</ele>
        <time>2026-05-28T11:54:30Z</time>
      </trkpt>
      <trkpt lat="43.10521" lon="1.88136">
        <ele>338.3</ele>
        <time>2026-05-28T11:54:35Z</time>
      </trkpt>
      <trkpt lat="43.10521" lon="1.88136">
        <ele>338.3</ele>
        <time>2026-05-28T11:54:40Z</time>
      </trkpt>
      <trkpt lat="43.10521" lon="1.88136">
        <ele>338.3</ele>
        <time>2026-05-28T11:54:45Z</time>
      </trkpt>
      <trkpt lat="43.10521" lon="1.88136">
        <ele>338.3</ele>
        <time>2026-05-28T11:54:50Z</time>
      </trkpt>
      <trkpt lat="43.10521" lon="1.88136">
        <ele>338.3</ele>
        <time>2026-05-28T11:54:55Z</time>
      </trkpt>
      <trkpt lat="43.10521" lon="1.88136">
        <ele>338.3</ele>
        <time>2026-05-28T11:55:00Z</time>
      </trkpt>
      <trkpt lat="43.10521" lon="1.88136">
        <ele>338.3</ele>
        <time>2026-05-28T11:55:05Z</time>
      </trkpt>
      <trkpt lat="43.10521" lon="1.88136">
        <ele>338.3</ele>
        <time>2026-05-28T11:55:10Z</time>
      </trkpt>
      <trkpt lat="43.10521" lon="1.88136">
        <ele>338.3</ele>
        <time>2026-05-28T11:55:15Z</time>
      </trkpt>
      <trkpt lat="43.10521" lon="1.88136">
        <ele>338.3</ele>
        <time>2026-05-28T11:55:20Z</time>
      </trkpt>
      <trkpt lat="43.10521" lon="1.88136">
        <ele>338.3</ele>
        <time>2026-05-28T11:55:25Z</time>
      </trkpt>
      <trkpt lat="43.10521" lon="1.88136">
        <ele>338.3</ele>
        <time>2026-05-28T11:55:30Z</time>
      </trkpt>
      <trkpt lat="43.10521" lon="1.88136">
        <ele>338.3</ele>
        <time>2026-05-28T11:55:35Z</time>
      </trkpt>
      <trkpt lat="43.10521" lon="1.88136">
        <ele>338.3</ele>
        <time>2026-05-28T11:55:40Z</time>
      </trkpt>
      <trkpt lat="43.10521" lon="1.88136">
        <ele>338.3</ele>
        <time>2026-05-28T11:55:45Z</time>
      </trkpt>
      <trkpt lat="43.10521" lon="1.88136">
        <ele>338.3</ele>
        <time>2026-05-28T11:55:50Z</time>
      </trkpt>
      <trkpt lat="43.10521" lon="1.88136">
        <ele>338.3</ele>
        <time>2026-05-28T11:55:55Z</time>
      </trkpt>
      <trkpt lat="43.10521" lon="1.88136">
        <ele>338.3</ele>
        <time>2026-05-28T11:56:00Z</time>
      </trkpt>
      <trkpt lat="43.10521" lon="1.88136">
        <ele>338.3</ele>
        <time>2026-05-28T11:56:05Z</time>
      </trkpt>
      <trkpt lat="43.10521" lon="1.88136">
        <ele>338.3</ele>
        <time>2026-05-28T11:56:10Z</time>
      </trkpt>
      <trkpt lat="43.10512" lon="1.88141">
        <ele>338.4</ele>
        <time>2026-05-28T11:56:15Z</time>
      </trkpt>
      <trkpt lat="43.10509" lon="1.88147">
        <ele>338.4</ele>
        <time>2026-05-28T11:56:20Z</time>
      </trkpt>
      <trkpt lat="43.10507" lon="1.88153">
        <ele>338.2</ele>
        <time>2026-05-28T11:56:25Z</time>
      </trkpt>
      <trkpt lat="43.10506" lon="1.88157">
        <ele>338.1</ele>
        <time>2026-05-28T11:56:30Z</time>
      </trkpt>
      <trkpt lat="43.10502" lon="1.88161">
        <ele>338.1</ele>
        <time>2026-05-28T11:56:35Z</time>
      </trkpt>
      <trkpt lat="43.10498" lon="1.88164">
        <ele>338.3</ele>
        <time>2026-05-28T11:56:40Z</time>
      </trkpt>
      <trkpt lat="43.10492" lon="1.88169">
        <ele>338.8</ele>
        <time>2026-05-28T11:56:45Z</time>
      </trkpt>
      <trkpt lat="43.10486" lon="1.88169">
        <ele>339.5</ele>
        <time>2026-05-28T11:56:50Z</time>
      </trkpt>
      <trkpt lat="43.1048" lon="1.88166">
        <ele>340.4</ele>
        <time>2026-05-28T11:56:55Z</time>
      </trkpt>
      <trkpt lat="43.10476" lon="1.88163">
        <ele>341</ele>
        <time>2026-05-28T11:57:00Z</time>
      </trkpt>
      <trkpt lat="43.10473" lon="1.88158">
        <ele>341.5</ele>
        <time>2026-05-28T11:57:05Z</time>
      </trkpt>
      <trkpt lat="43.10468" lon="1.88154">
        <ele>342.2</ele>
        <time>2026-05-28T11:57:10Z</time>
      </trkpt>
      <trkpt lat="43.10465" lon="1.8815">
        <ele>342.6</ele>
        <time>2026-05-28T11:57:15Z</time>
      </trkpt>
      <trkpt lat="43.1046" lon="1.88145">
        <ele>343.3</ele>
        <time>2026-05-28T11:57:20Z</time>
      </trkpt>
      <trkpt lat="43.10456" lon="1.88139">
        <ele>343.9</ele>
        <time>2026-05-28T11:57:25Z</time>
      </trkpt>
      <trkpt lat="43.10452" lon="1.88136">
        <ele>344.4</ele>
        <time>2026-05-28T11:57:30Z</time>
      </trkpt>
      <trkpt lat="43.10448" lon="1.88133">
        <ele>344.9</ele>
        <time>2026-05-28T11:57:35Z</time>
      </trkpt>
      <trkpt lat="43.10444" lon="1.8813">
        <ele>345.4</ele>
        <time>2026-05-28T11:57:40Z</time>
      </trkpt>
      <trkpt lat="43.1044" lon="1.88128">
        <ele>345.9</ele>
        <time>2026-05-28T11:57:45Z</time>
      </trkpt>
      <trkpt lat="43.10436" lon="1.88125">
        <ele>346.4</ele>
        <time>2026-05-28T11:57:50Z</time>
      </trkpt>
      <trkpt lat="43.10433" lon="1.88123">
        <ele>346.8</ele>
        <time>2026-05-28T11:57:55Z</time>
      </trkpt>
      <trkpt lat="43.10431" lon="1.88121">
        <ele>347</ele>
        <time>2026-05-28T11:58:00Z</time>
      </trkpt>
      <trkpt lat="43.1043" lon="1.88121">
        <ele>347.1</ele>
        <time>2026-05-28T11:58:05Z</time>
      </trkpt>
      <trkpt lat="43.1043" lon="1.88121">
        <ele>347.1</ele>
        <time>2026-05-28T11:58:10Z</time>
      </trkpt>
      <trkpt lat="43.10425" lon="1.8812">
        <ele>347.7</ele>
        <time>2026-05-28T11:58:15Z</time>
      </trkpt>
      <trkpt lat="43.10423" lon="1.88119">
        <ele>347.9</ele>
        <time>2026-05-28T11:58:20Z</time>
      </trkpt>
      <trkpt lat="43.10421" lon="1.88116">
        <ele>348.2</ele>
        <time>2026-05-28T11:58:25Z</time>
      </trkpt>
      <trkpt lat="43.10418" lon="1.88113">
        <ele>348.5</ele>
        <time>2026-05-28T11:58:30Z</time>
      </trkpt>
      <trkpt lat="43.10415" lon="1.88111">
        <ele>348.8</ele>
        <time>2026-05-28T11:58:35Z</time>
      </trkpt>
      <trkpt lat="43.10414" lon="1.88112">
        <ele>348.9</ele>
        <time>2026-05-28T11:58:40Z</time>
      </trkpt>
      <trkpt lat="43.10414" lon="1.88112">
        <ele>348.9</ele>
        <time>2026-05-28T11:58:45Z</time>
      </trkpt>
      <trkpt lat="43.10409" lon="1.88105">
        <ele>349.4</ele>
        <time>2026-05-28T11:58:50Z</time>
      </trkpt>
      <trkpt lat="43.10404" lon="1.88102">
        <ele>349.9</ele>
        <time>2026-05-28T11:58:55Z</time>
      </trkpt>
      <trkpt lat="43.104" lon="1.88099">
        <ele>350.3</ele>
        <time>2026-05-28T11:59:00Z</time>
      </trkpt>
      <trkpt lat="43.10396" lon="1.88098">
        <ele>350.7</ele>
        <time>2026-05-28T11:59:05Z</time>
      </trkpt>
      <trkpt lat="43.10394" lon="1.88097">
        <ele>350.9</ele>
        <time>2026-05-28T11:59:10Z</time>
      </trkpt>
      <trkpt lat="43.10393" lon="1.88096">
        <ele>351</ele>
        <time>2026-05-28T11:59:15Z</time>
      </trkpt>
      <trkpt lat="43.10393" lon="1.88096">
        <ele>351</ele>
        <time>2026-05-28T11:59:20Z</time>
      </trkpt>
      <trkpt lat="43.10393" lon="1.88096">
        <ele>351</ele>
        <time>2026-05-28T11:59:25Z</time>
      </trkpt>
      <trkpt lat="43.10388" lon="1.88093">
        <ele>351.6</ele>
        <time>2026-05-28T11:59:30Z</time>
      </trkpt>
      <trkpt lat="43.10386" lon="1.8809">
        <ele>351.8</ele>
        <time>2026-05-28T11:59:35Z</time>
      </trkpt>
      <trkpt lat="43.10382" lon="1.88089">
        <ele>352.2</ele>
        <time>2026-05-28T11:59:40Z</time>
      </trkpt>
      <trkpt lat="43.10378" lon="1.88086">
        <ele>352.7</ele>
        <time>2026-05-28T11:59:45Z</time>
      </trkpt>
      <trkpt lat="43.10372" lon="1.88084">
        <ele>353.3</ele>
        <time>2026-05-28T11:59:50Z</time>
      </trkpt>
      <trkpt lat="43.10367" lon="1.88082">
        <ele>353.8</ele>
        <time>2026-05-28T11:59:55Z</time>
      </trkpt>
      <trkpt lat="43.10363" lon="1.8808">
        <ele>354.1</ele>
        <time>2026-05-28T12:00:00Z</time>
      </trkpt>
      <trkpt lat="43.10359" lon="1.88078">
        <ele>354.4</ele>
        <time>2026-05-28T12:00:05Z</time>
      </trkpt>
      <trkpt lat="43.10355" lon="1.88077">
        <ele>354.8</ele>
        <time>2026-05-28T12:00:10Z</time>
      </trkpt>
      <trkpt lat="43.1035" lon="1.88077">
        <ele>355.2</ele>
        <time>2026-05-28T12:00:15Z</time>
      </trkpt>
      <trkpt lat="43.10345" lon="1.88076">
        <ele>355.7</ele>
        <time>2026-05-28T12:00:20Z</time>
      </trkpt>
      <trkpt lat="43.1034" lon="1.88075">
        <ele>356.1</ele>
        <time>2026-05-28T12:00:25Z</time>
      </trkpt>
      <trkpt lat="43.10334" lon="1.88074">
        <ele>356.6</ele>
        <time>2026-05-28T12:00:30Z</time>
      </trkpt>
      <trkpt lat="43.10329" lon="1.88073">
        <ele>356.6</ele>
        <time>2026-05-28T12:00:35Z</time>
      </trkpt>
      <trkpt lat="43.10323" lon="1.88073">
        <ele>356.6</ele>
        <time>2026-05-28T12:00:40Z</time>
      </trkpt>
      <trkpt lat="43.10319" lon="1.88071">
        <ele>356.5</ele>
        <time>2026-05-28T12:00:45Z</time>
      </trkpt>
      <trkpt lat="43.10315" lon="1.88071">
        <ele>356.5</ele>
        <time>2026-05-28T12:00:50Z</time>
      </trkpt>
      <trkpt lat="43.10311" lon="1.88069">
        <ele>356.4</ele>
        <time>2026-05-28T12:00:55Z</time>
      </trkpt>
      <trkpt lat="43.10307" lon="1.88067">
        <ele>356.3</ele>
        <time>2026-05-28T12:01:00Z</time>
      </trkpt>
      <trkpt lat="43.10303" lon="1.88064">
        <ele>356.1</ele>
        <time>2026-05-28T12:01:05Z</time>
      </trkpt>
      <trkpt lat="43.103" lon="1.88064">
        <ele>356.1</ele>
        <time>2026-05-28T12:01:10Z</time>
      </trkpt>
      <trkpt lat="43.10297" lon="1.88063">
        <ele>356</ele>
        <time>2026-05-28T12:01:15Z</time>
      </trkpt>
      <trkpt lat="43.10294" lon="1.88061">
        <ele>355.8</ele>
        <time>2026-05-28T12:01:20Z</time>
      </trkpt>
      <trkpt lat="43.10291" lon="1.8806">
        <ele>355.7</ele>
        <time>2026-05-28T12:01:25Z</time>
      </trkpt>
      <trkpt lat="43.10288" lon="1.88059">
        <ele>355.6</ele>
        <time>2026-05-28T12:01:30Z</time>
      </trkpt>
      <trkpt lat="43.10285" lon="1.88057">
        <ele>355.3</ele>
        <time>2026-05-28T12:01:35Z</time>
      </trkpt>
      <trkpt lat="43.10283" lon="1.88054">
        <ele>355.1</ele>
        <time>2026-05-28T12:01:40Z</time>
      </trkpt>
      <trkpt lat="43.10279" lon="1.88053">
        <ele>354.9</ele>
        <time>2026-05-28T12:01:45Z</time>
      </trkpt>
      <trkpt lat="43.10276" lon="1.8805">
        <ele>354.6</ele>
        <time>2026-05-28T12:01:50Z</time>
      </trkpt>
      <trkpt lat="43.10272" lon="1.88048">
        <ele>354.3</ele>
        <time>2026-05-28T12:01:55Z</time>
      </trkpt>
      <trkpt lat="43.10268" lon="1.88044">
        <ele>353.8</ele>
        <time>2026-05-28T12:02:00Z</time>
      </trkpt>
      <trkpt lat="43.10265" lon="1.8804">
        <ele>353.3</ele>
        <time>2026-05-28T12:02:05Z</time>
      </trkpt>
      <trkpt lat="43.1026" lon="1.88036">
        <ele>352.7</ele>
        <time>2026-05-28T12:02:10Z</time>
      </trkpt>
      <trkpt lat="43.10256" lon="1.88034">
        <ele>352.3</ele>
        <time>2026-05-28T12:02:15Z</time>
      </trkpt>
      <trkpt lat="43.10252" lon="1.8803">
        <ele>351.7</ele>
        <time>2026-05-28T12:02:20Z</time>
      </trkpt>
      <trkpt lat="43.1025" lon="1.88025">
        <ele>351</ele>
        <time>2026-05-28T12:02:25Z</time>
      </trkpt>
      <trkpt lat="43.10251" lon="1.88023">
        <ele>350.8</ele>
        <time>2026-05-28T12:02:30Z</time>
      </trkpt>
      <trkpt lat="43.10252" lon="1.88022">
        <ele>350.7</ele>
        <time>2026-05-28T12:02:35Z</time>
      </trkpt>
      <trkpt lat="43.10252" lon="1.88022">
        <ele>350.7</ele>
        <time>2026-05-28T12:02:40Z</time>
      </trkpt>
      <trkpt lat="43.10252" lon="1.88022">
        <ele>350.7</ele>
        <time>2026-05-28T12:02:45Z</time>
      </trkpt>
      <trkpt lat="43.10252" lon="1.88022">
        <ele>350.7</ele>
        <time>2026-05-28T12:02:50Z</time>
      </trkpt>
      <trkpt lat="43.10252" lon="1.88022">
        <ele>350.7</ele>
        <time>2026-05-28T12:02:55Z</time>
      </trkpt>
      <trkpt lat="43.10252" lon="1.88022">
        <ele>350.7</ele>
        <time>2026-05-28T12:03:00Z</time>
      </trkpt>
      <trkpt lat="43.10252" lon="1.88022">
        <ele>350.7</ele>
        <time>2026-05-28T12:03:05Z</time>
      </trkpt>
      <trkpt lat="43.10252" lon="1.88022">
        <ele>350.7</ele>
        <time>2026-05-28T12:03:10Z</time>
      </trkpt>
      <trkpt lat="43.1025" lon="1.88018">
        <ele>350.2</ele>
        <time>2026-05-28T12:03:15Z</time>
      </trkpt>
      <trkpt lat="43.10247" lon="1.88019">
        <ele>350.2</ele>
        <time>2026-05-28T12:03:20Z</time>
      </trkpt>
      <trkpt lat="43.10247" lon="1.8802">
        <ele>350.3</ele>
        <time>2026-05-28T12:03:25Z</time>
      </trkpt>
      <trkpt lat="43.10247" lon="1.8802">
        <ele>350.3</ele>
        <time>2026-05-28T12:03:30Z</time>
      </trkpt>
      <trkpt lat="43.10247" lon="1.8802">
        <ele>350.3</ele>
        <time>2026-05-28T12:03:35Z</time>
      </trkpt>
      <trkpt lat="43.10247" lon="1.8802">
        <ele>350.3</ele>
        <time>2026-05-28T12:03:40Z</time>
      </trkpt>
      <trkpt lat="43.10247" lon="1.8802">
        <ele>350.3</ele>
        <time>2026-05-28T12:03:45Z</time>
      </trkpt>
      <trkpt lat="43.10247" lon="1.8802">
        <ele>350.3</ele>
        <time>2026-05-28T12:03:50Z</time>
      </trkpt>
      <trkpt lat="43.10247" lon="1.8802">
        <ele>350.3</ele>
        <time>2026-05-28T12:03:55Z</time>
      </trkpt>
      <trkpt lat="43.10247" lon="1.8802">
        <ele>350.3</ele>
        <time>2026-05-28T12:04:00Z</time>
      </trkpt>
      <trkpt lat="43.10247" lon="1.8802">
        <ele>350.3</ele>
        <time>2026-05-28T12:04:05Z</time>
      </trkpt>
      <trkpt lat="43.10247" lon="1.8802">
        <ele>350.3</ele>
        <time>2026-05-28T12:04:10Z</time>
      </trkpt>
      <trkpt lat="43.10247" lon="1.8802">
        <ele>350.3</ele>
        <time>2026-05-28T12:04:15Z</time>
      </trkpt>
      <trkpt lat="43.10247" lon="1.8802">
        <ele>350.3</ele>
        <time>2026-05-28T12:04:20Z</time>
      </trkpt>
      <trkpt lat="43.10247" lon="1.8802">
        <ele>350.3</ele>
        <time>2026-05-28T12:04:25Z</time>
      </trkpt>
      <trkpt lat="43.10247" lon="1.8802">
        <ele>350.3</ele>
        <time>2026-05-28T12:04:30Z</time>
      </trkpt>
      <trkpt lat="43.10247" lon="1.8802">
        <ele>350.3</ele>
        <time>2026-05-28T12:04:35Z</time>
      </trkpt>
      <trkpt lat="43.10247" lon="1.8802">
        <ele>350.3</ele>
        <time>2026-05-28T12:04:40Z</time>
      </trkpt>
      <trkpt lat="43.10247" lon="1.8802">
        <ele>350.3</ele>
        <time>2026-05-28T12:04:45Z</time>
      </trkpt>
      <trkpt lat="43.10247" lon="1.8802">
        <ele>350.3</ele>
        <time>2026-05-28T12:04:50Z</time>
      </trkpt>
      <trkpt lat="43.10247" lon="1.8802">
        <ele>350.3</ele>
        <time>2026-05-28T12:04:55Z</time>
      </trkpt>
      <trkpt lat="43.10247" lon="1.8802">
        <ele>350.3</ele>
        <time>2026-05-28T12:05:00Z</time>
      </trkpt>
      <trkpt lat="43.10247" lon="1.8802">
        <ele>350.3</ele>
        <time>2026-05-28T12:05:05Z</time>
      </trkpt>
      <trkpt lat="43.10247" lon="1.8802">
        <ele>350.3</ele>
        <time>2026-05-28T12:05:10Z</time>
      </trkpt>
      <trkpt lat="43.10246" lon="1.88024">
        <ele>350.8</ele>
        <time>2026-05-28T12:05:15Z</time>
      </trkpt>
      <trkpt lat="43.10242" lon="1.88025">
        <ele>350.8</ele>
        <time>2026-05-28T12:05:20Z</time>
      </trkpt>
      <trkpt lat="43.10237" lon="1.88027">
        <ele>350.9</ele>
        <time>2026-05-28T12:05:25Z</time>
      </trkpt>
      <trkpt lat="43.10232" lon="1.8803">
        <ele>351.2</ele>
        <time>2026-05-28T12:05:30Z</time>
      </trkpt>
      <trkpt lat="43.10227" lon="1.88033">
        <ele>351.4</ele>
        <time>2026-05-28T12:05:35Z</time>
      </trkpt>
      <trkpt lat="43.10221" lon="1.88034">
        <ele>351.4</ele>
        <time>2026-05-28T12:05:40Z</time>
      </trkpt>
      <trkpt lat="43.10215" lon="1.88035">
        <ele>351.4</ele>
        <time>2026-05-28T12:05:45Z</time>
      </trkpt>
      <trkpt lat="43.10209" lon="1.88036">
        <ele>351.3</ele>
        <time>2026-05-28T12:05:50Z</time>
      </trkpt>
      <trkpt lat="43.10204" lon="1.88035">
        <ele>351.1</ele>
        <time>2026-05-28T12:05:55Z</time>
      </trkpt>
      <trkpt lat="43.102" lon="1.88037">
        <ele>351.2</ele>
        <time>2026-05-28T12:06:00Z</time>
      </trkpt>
      <trkpt lat="43.10195" lon="1.88037">
        <ele>351.1</ele>
        <time>2026-05-28T12:06:05Z</time>
      </trkpt>
      <trkpt lat="43.10188" lon="1.88036">
        <ele>350.8</ele>
        <time>2026-05-28T12:06:10Z</time>
      </trkpt>
      <trkpt lat="43.10181" lon="1.88033">
        <ele>350.3</ele>
        <time>2026-05-28T12:06:15Z</time>
      </trkpt>
      <trkpt lat="43.10175" lon="1.88031">
        <ele>349.9</ele>
        <time>2026-05-28T12:06:20Z</time>
      </trkpt>
      <trkpt lat="43.1017" lon="1.88028">
        <ele>349.4</ele>
        <time>2026-05-28T12:06:25Z</time>
      </trkpt>
      <trkpt lat="43.10164" lon="1.88026">
        <ele>349.2</ele>
        <time>2026-05-28T12:06:30Z</time>
      </trkpt>
      <trkpt lat="43.10159" lon="1.88022">
        <ele>349</ele>
        <time>2026-05-28T12:06:35Z</time>
      </trkpt>
      <trkpt lat="43.10154" lon="1.88017">
        <ele>348.8</ele>
        <time>2026-05-28T12:06:40Z</time>
      </trkpt>
      <trkpt lat="43.10149" lon="1.88015">
        <ele>348.9</ele>
        <time>2026-05-28T12:06:45Z</time>
      </trkpt>
      <trkpt lat="43.10143" lon="1.88013">
        <ele>349.1</ele>
        <time>2026-05-28T12:06:50Z</time>
      </trkpt>
      <trkpt lat="43.10136" lon="1.88011">
        <ele>349.4</ele>
        <time>2026-05-28T12:06:55Z</time>
      </trkpt>
      <trkpt lat="43.1013" lon="1.8801">
        <ele>349.7</ele>
        <time>2026-05-28T12:07:00Z</time>
      </trkpt>
      <trkpt lat="43.10126" lon="1.88008">
        <ele>349.9</ele>
        <time>2026-05-28T12:07:05Z</time>
      </trkpt>
      <trkpt lat="43.10121" lon="1.88007">
        <ele>350.2</ele>
        <time>2026-05-28T12:07:10Z</time>
      </trkpt>
      <trkpt lat="43.10116" lon="1.88008">
        <ele>350.6</ele>
        <time>2026-05-28T12:07:15Z</time>
      </trkpt>
      <trkpt lat="43.1011" lon="1.88009">
        <ele>351</ele>
        <time>2026-05-28T12:07:20Z</time>
      </trkpt>
      <trkpt lat="43.10105" lon="1.88014">
        <ele>351.5</ele>
        <time>2026-05-28T12:07:25Z</time>
      </trkpt>
      <trkpt lat="43.101" lon="1.88016">
        <ele>351.8</ele>
        <time>2026-05-28T12:07:30Z</time>
      </trkpt>
      <trkpt lat="43.10096" lon="1.88014">
        <ele>352</ele>
        <time>2026-05-28T12:07:35Z</time>
      </trkpt>
      <trkpt lat="43.10094" lon="1.8801">
        <ele>352.2</ele>
        <time>2026-05-28T12:07:40Z</time>
      </trkpt>
      <trkpt lat="43.10095" lon="1.88005">
        <ele>352.1</ele>
        <time>2026-05-28T12:07:45Z</time>
      </trkpt>
      <trkpt lat="43.10097" lon="1.88">
        <ele>351.9</ele>
        <time>2026-05-28T12:07:50Z</time>
      </trkpt>
      <trkpt lat="43.101" lon="1.87996">
        <ele>351</ele>
        <time>2026-05-28T12:07:55Z</time>
      </trkpt>
      <trkpt lat="43.10103" lon="1.87991">
        <ele>350.1</ele>
        <time>2026-05-28T12:08:00Z</time>
      </trkpt>
      <trkpt lat="43.10106" lon="1.87984">
        <ele>348.8</ele>
        <time>2026-05-28T12:08:05Z</time>
      </trkpt>
      <trkpt lat="43.10109" lon="1.87979">
        <ele>347.8</ele>
        <time>2026-05-28T12:08:10Z</time>
      </trkpt>
      <trkpt lat="43.10112" lon="1.87975">
        <ele>347</ele>
        <time>2026-05-28T12:08:15Z</time>
      </trkpt>
      <trkpt lat="43.10116" lon="1.87969">
        <ele>345.7</ele>
        <time>2026-05-28T12:08:20Z</time>
      </trkpt>
      <trkpt lat="43.10119" lon="1.87963">
        <ele>344.5</ele>
        <time>2026-05-28T12:08:25Z</time>
      </trkpt>
      <trkpt lat="43.10122" lon="1.87958">
        <ele>343.5</ele>
        <time>2026-05-28T12:08:30Z</time>
      </trkpt>
      <trkpt lat="43.10124" lon="1.87953">
        <ele>342.6</ele>
        <time>2026-05-28T12:08:35Z</time>
      </trkpt>
      <trkpt lat="43.10129" lon="1.87948">
        <ele>341.3</ele>
        <time>2026-05-28T12:08:40Z</time>
      </trkpt>
      <trkpt lat="43.10132" lon="1.8794">
        <ele>339.7</ele>
        <time>2026-05-28T12:08:45Z</time>
      </trkpt>
      <trkpt lat="43.10137" lon="1.87933">
        <ele>338.1</ele>
        <time>2026-05-28T12:08:50Z</time>
      </trkpt>
      <trkpt lat="43.10142" lon="1.87925">
        <ele>336.3</ele>
        <time>2026-05-28T12:08:55Z</time>
      </trkpt>
      <trkpt lat="43.10145" lon="1.87918">
        <ele>334.8</ele>
        <time>2026-05-28T12:09:00Z</time>
      </trkpt>
      <trkpt lat="43.10148" lon="1.87911">
        <ele>333.5</ele>
        <time>2026-05-28T12:09:05Z</time>
      </trkpt>
      <trkpt lat="43.1015" lon="1.87905">
        <ele>332.5</ele>
        <time>2026-05-28T12:09:10Z</time>
      </trkpt>
      <trkpt lat="43.10151" lon="1.87898">
        <ele>331.5</ele>
        <time>2026-05-28T12:09:15Z</time>
      </trkpt>
      <trkpt lat="43.10149" lon="1.87892">
        <ele>330.9</ele>
        <time>2026-05-28T12:09:20Z</time>
      </trkpt>
      <trkpt lat="43.10145" lon="1.87887">
        <ele>330.6</ele>
        <time>2026-05-28T12:09:25Z</time>
      </trkpt>
      <trkpt lat="43.1014" lon="1.87881">
        <ele>330.1</ele>
        <time>2026-05-28T12:09:30Z</time>
      </trkpt>
      <trkpt lat="43.10136" lon="1.87873">
        <ele>329.2</ele>
        <time>2026-05-28T12:09:35Z</time>
      </trkpt>
      <trkpt lat="43.10131" lon="1.87866">
        <ele>328.5</ele>
        <time>2026-05-28T12:09:40Z</time>
      </trkpt>
      <trkpt lat="43.10126" lon="1.87857">
        <ele>327.3</ele>
        <time>2026-05-28T12:09:45Z</time>
      </trkpt>
      <trkpt lat="43.10121" lon="1.87851">
        <ele>326.5</ele>
        <time>2026-05-28T12:09:50Z</time>
      </trkpt>
      <trkpt lat="43.10117" lon="1.87847">
        <ele>326</ele>
        <time>2026-05-28T12:09:55Z</time>
      </trkpt>
      <trkpt lat="43.10113" lon="1.87841">
        <ele>325</ele>
        <time>2026-05-28T12:10:00Z</time>
      </trkpt>
      <trkpt lat="43.1011" lon="1.87834">
        <ele>323.8</ele>
        <time>2026-05-28T12:10:05Z</time>
      </trkpt>
      <trkpt lat="43.10106" lon="1.87828">
        <ele>323.2</ele>
        <time>2026-05-28T12:10:10Z</time>
      </trkpt>
      <trkpt lat="43.10103" lon="1.87823">
        <ele>322.7</ele>
        <time>2026-05-28T12:10:15Z</time>
      </trkpt>
      <trkpt lat="43.10101" lon="1.87818">
        <ele>322.2</ele>
        <time>2026-05-28T12:10:20Z</time>
      </trkpt>
      <trkpt lat="43.10096" lon="1.8781">
        <ele>321.3</ele>
        <time>2026-05-28T12:10:25Z</time>
      </trkpt>
      <trkpt lat="43.1009" lon="1.87803">
        <ele>320.5</ele>
        <time>2026-05-28T12:10:30Z</time>
      </trkpt>
      <trkpt lat="43.10085" lon="1.87796">
        <ele>319.6</ele>
        <time>2026-05-28T12:10:35Z</time>
      </trkpt>
      <trkpt lat="43.10081" lon="1.87792">
        <ele>318.9</ele>
        <time>2026-05-28T12:10:40Z</time>
      </trkpt>
      <trkpt lat="43.10076" lon="1.8779">
        <ele>318.4</ele>
        <time>2026-05-28T12:10:45Z</time>
      </trkpt>
      <trkpt lat="43.1007" lon="1.87786">
        <ele>317.6</ele>
        <time>2026-05-28T12:10:50Z</time>
      </trkpt>
      <trkpt lat="43.10064" lon="1.87782">
        <ele>316.7</ele>
        <time>2026-05-28T12:10:55Z</time>
      </trkpt>
      <trkpt lat="43.10059" lon="1.87779">
        <ele>316</ele>
        <time>2026-05-28T12:11:00Z</time>
      </trkpt>
      <trkpt lat="43.10054" lon="1.87774">
        <ele>315.1</ele>
        <time>2026-05-28T12:11:05Z</time>
      </trkpt>
      <trkpt lat="43.10048" lon="1.87771">
        <ele>314.3</ele>
        <time>2026-05-28T12:11:10Z</time>
      </trkpt>
      <trkpt lat="43.10042" lon="1.87767">
        <ele>313.4</ele>
        <time>2026-05-28T12:11:15Z</time>
      </trkpt>
      <trkpt lat="43.10036" lon="1.87765">
        <ele>312.7</ele>
        <time>2026-05-28T12:11:20Z</time>
      </trkpt>
      <trkpt lat="43.10031" lon="1.87762">
        <ele>311.9</ele>
        <time>2026-05-28T12:11:25Z</time>
      </trkpt>
      <trkpt lat="43.10026" lon="1.87759">
        <ele>311.2</ele>
        <time>2026-05-28T12:11:30Z</time>
      </trkpt>
      <trkpt lat="43.1002" lon="1.87757">
        <ele>310.5</ele>
        <time>2026-05-28T12:11:35Z</time>
      </trkpt>
      <trkpt lat="43.10015" lon="1.87756">
        <ele>310</ele>
        <time>2026-05-28T12:11:40Z</time>
      </trkpt>
      <trkpt lat="43.1001" lon="1.87754">
        <ele>309.3</ele>
        <time>2026-05-28T12:11:45Z</time>
      </trkpt>
      <trkpt lat="43.10004" lon="1.87751">
        <ele>308.4</ele>
        <time>2026-05-28T12:11:50Z</time>
      </trkpt>
      <trkpt lat="43.09999" lon="1.87748">
        <ele>307.8</ele>
        <time>2026-05-28T12:11:55Z</time>
      </trkpt>
      <trkpt lat="43.09993" lon="1.87744">
        <ele>307.1</ele>
        <time>2026-05-28T12:12:00Z</time>
      </trkpt>
      <trkpt lat="43.09987" lon="1.87739">
        <ele>306.4</ele>
        <time>2026-05-28T12:12:05Z</time>
      </trkpt>
      <trkpt lat="43.09981" lon="1.87735">
        <ele>305.7</ele>
        <time>2026-05-28T12:12:10Z</time>
      </trkpt>
      <trkpt lat="43.09976" lon="1.87733">
        <ele>305.2</ele>
        <time>2026-05-28T12:12:15Z</time>
      </trkpt>
      <trkpt lat="43.09971" lon="1.8773">
        <ele>304.6</ele>
        <time>2026-05-28T12:12:20Z</time>
      </trkpt>
      <trkpt lat="43.09965" lon="1.87729">
        <ele>304.1</ele>
        <time>2026-05-28T12:12:25Z</time>
      </trkpt>
      <trkpt lat="43.09957" lon="1.87728">
        <ele>303.3</ele>
        <time>2026-05-28T12:12:30Z</time>
      </trkpt>
      <trkpt lat="43.09951" lon="1.87727">
        <ele>302.8</ele>
        <time>2026-05-28T12:12:35Z</time>
      </trkpt>
      <trkpt lat="43.09945" lon="1.87726">
        <ele>302.2</ele>
        <time>2026-05-28T12:12:40Z</time>
      </trkpt>
      <trkpt lat="43.09938" lon="1.87724">
        <ele>301.5</ele>
        <time>2026-05-28T12:12:45Z</time>
      </trkpt>
      <trkpt lat="43.09931" lon="1.8772">
        <ele>300.8</ele>
        <time>2026-05-28T12:12:50Z</time>
      </trkpt>
      <trkpt lat="43.09927" lon="1.87716">
        <ele>300.2</ele>
        <time>2026-05-28T12:12:55Z</time>
      </trkpt>
      <trkpt lat="43.09923" lon="1.87711">
        <ele>299.7</ele>
        <time>2026-05-28T12:13:00Z</time>
      </trkpt>
      <trkpt lat="43.09919" lon="1.87704">
        <ele>299</ele>
        <time>2026-05-28T12:13:05Z</time>
      </trkpt>
      <trkpt lat="43.09915" lon="1.87698">
        <ele>298.5</ele>
        <time>2026-05-28T12:13:10Z</time>
      </trkpt>
      <trkpt lat="43.09911" lon="1.8769">
        <ele>298</ele>
        <time>2026-05-28T12:13:15Z</time>
      </trkpt>
      <trkpt lat="43.09908" lon="1.87679">
        <ele>297.5</ele>
        <time>2026-05-28T12:13:20Z</time>
      </trkpt>
      <trkpt lat="43.09909" lon="1.8767">
        <ele>297.1</ele>
        <time>2026-05-28T12:13:25Z</time>
      </trkpt>
      <trkpt lat="43.09909" lon="1.87663">
        <ele>297</ele>
        <time>2026-05-28T12:13:30Z</time>
      </trkpt>
      <trkpt lat="43.09909" lon="1.87656">
        <ele>297</ele>
        <time>2026-05-28T12:13:35Z</time>
      </trkpt>
      <trkpt lat="43.09905" lon="1.8765">
        <ele>297</ele>
        <time>2026-05-28T12:13:40Z</time>
      </trkpt>
      <trkpt lat="43.09901" lon="1.87645">
        <ele>297</ele>
        <time>2026-05-28T12:13:45Z</time>
      </trkpt>
      <trkpt lat="43.09897" lon="1.87638">
        <ele>296.9</ele>
        <time>2026-05-28T12:13:50Z</time>
      </trkpt>
      <trkpt lat="43.09892" lon="1.87631">
        <ele>296.9</ele>
        <time>2026-05-28T12:13:55Z</time>
      </trkpt>
      <trkpt lat="43.09887" lon="1.87624">
        <ele>296.8</ele>
        <time>2026-05-28T12:14:00Z</time>
      </trkpt>
      <trkpt lat="43.09884" lon="1.8762">
        <ele>296.8</ele>
        <time>2026-05-28T12:14:05Z</time>
      </trkpt>
      <trkpt lat="43.09879" lon="1.87615">
        <ele>296.7</ele>
        <time>2026-05-28T12:14:10Z</time>
      </trkpt>
      <trkpt lat="43.09874" lon="1.87607">
        <ele>296.6</ele>
        <time>2026-05-28T12:14:15Z</time>
      </trkpt>
      <trkpt lat="43.0987" lon="1.87599">
        <ele>296.5</ele>
        <time>2026-05-28T12:14:20Z</time>
      </trkpt>
      <trkpt lat="43.09865" lon="1.87594">
        <ele>296.5</ele>
        <time>2026-05-28T12:14:25Z</time>
      </trkpt>
      <trkpt lat="43.0986" lon="1.87591">
        <ele>296.4</ele>
        <time>2026-05-28T12:14:30Z</time>
      </trkpt>
      <trkpt lat="43.09854" lon="1.87587">
        <ele>296.3</ele>
        <time>2026-05-28T12:14:35Z</time>
      </trkpt>
      <trkpt lat="43.09848" lon="1.87582">
        <ele>296.1</ele>
        <time>2026-05-28T12:14:40Z</time>
      </trkpt>
      <trkpt lat="43.09843" lon="1.87576">
        <ele>296</ele>
        <time>2026-05-28T12:14:45Z</time>
      </trkpt>
      <trkpt lat="43.09839" lon="1.8757">
        <ele>295.8</ele>
        <time>2026-05-28T12:14:50Z</time>
      </trkpt>
      <trkpt lat="43.09833" lon="1.87564">
        <ele>295.5</ele>
        <time>2026-05-28T12:14:55Z</time>
      </trkpt>
      <trkpt lat="43.09827" lon="1.87558">
        <ele>295.6</ele>
        <time>2026-05-28T12:15:00Z</time>
      </trkpt>
      <trkpt lat="43.09821" lon="1.87552">
        <ele>295.6</ele>
        <time>2026-05-28T12:15:05Z</time>
      </trkpt>
      <trkpt lat="43.09815" lon="1.87547">
        <ele>295.7</ele>
        <time>2026-05-28T12:15:10Z</time>
      </trkpt>
      <trkpt lat="43.09809" lon="1.87542">
        <ele>295.7</ele>
        <time>2026-05-28T12:15:15Z</time>
      </trkpt>
      <trkpt lat="43.09803" lon="1.87535">
        <ele>295.7</ele>
        <time>2026-05-28T12:15:20Z</time>
      </trkpt>
      <trkpt lat="43.09799" lon="1.8753">
        <ele>295.7</ele>
        <time>2026-05-28T12:15:25Z</time>
      </trkpt>
      <trkpt lat="43.09792" lon="1.87524">
        <ele>295.7</ele>
        <time>2026-05-28T12:15:30Z</time>
      </trkpt>
      <trkpt lat="43.09785" lon="1.87519">
        <ele>295.7</ele>
        <time>2026-05-28T12:15:35Z</time>
      </trkpt>
      <trkpt lat="43.09779" lon="1.87513">
        <ele>295.7</ele>
        <time>2026-05-28T12:15:40Z</time>
      </trkpt>
      <trkpt lat="43.09772" lon="1.8751">
        <ele>295.8</ele>
        <time>2026-05-28T12:15:45Z</time>
      </trkpt>
      <trkpt lat="43.09765" lon="1.87507">
        <ele>295.9</ele>
        <time>2026-05-28T12:15:50Z</time>
      </trkpt>
      <trkpt lat="43.09759" lon="1.87504">
        <ele>295.9</ele>
        <time>2026-05-28T12:15:55Z</time>
      </trkpt>
      <trkpt lat="43.09752" lon="1.87501">
        <ele>296</ele>
        <time>2026-05-28T12:16:00Z</time>
      </trkpt>
      <trkpt lat="43.09746" lon="1.87498">
        <ele>296</ele>
        <time>2026-05-28T12:16:05Z</time>
      </trkpt>
      <trkpt lat="43.0974" lon="1.87496">
        <ele>295.9</ele>
        <time>2026-05-28T12:16:10Z</time>
      </trkpt>
      <trkpt lat="43.09734" lon="1.87495">
        <ele>295.8</ele>
        <time>2026-05-28T12:16:15Z</time>
      </trkpt>
      <trkpt lat="43.0973" lon="1.87491">
        <ele>295.8</ele>
        <time>2026-05-28T12:16:20Z</time>
      </trkpt>
      <trkpt lat="43.09725" lon="1.87488">
        <ele>295.8</ele>
        <time>2026-05-28T12:16:25Z</time>
      </trkpt>
      <trkpt lat="43.09719" lon="1.87487">
        <ele>295.7</ele>
        <time>2026-05-28T12:16:30Z</time>
      </trkpt>
      <trkpt lat="43.09712" lon="1.87483">
        <ele>295.6</ele>
        <time>2026-05-28T12:16:35Z</time>
      </trkpt>
      <trkpt lat="43.09705" lon="1.8748">
        <ele>295.4</ele>
        <time>2026-05-28T12:16:40Z</time>
      </trkpt>
      <trkpt lat="43.09699" lon="1.87478">
        <ele>295.3</ele>
        <time>2026-05-28T12:16:45Z</time>
      </trkpt>
      <trkpt lat="43.09691" lon="1.87473">
        <ele>295.2</ele>
        <time>2026-05-28T12:16:50Z</time>
      </trkpt>
      <trkpt lat="43.09684" lon="1.8747">
        <ele>295</ele>
        <time>2026-05-28T12:16:55Z</time>
      </trkpt>
      <trkpt lat="43.09678" lon="1.87466">
        <ele>294.8</ele>
        <time>2026-05-28T12:17:00Z</time>
      </trkpt>
      <trkpt lat="43.09672" lon="1.87463">
        <ele>294.7</ele>
        <time>2026-05-28T12:17:05Z</time>
      </trkpt>
      <trkpt lat="43.09665" lon="1.8746">
        <ele>294.5</ele>
        <time>2026-05-28T12:17:10Z</time>
      </trkpt>
      <trkpt lat="43.09659" lon="1.87458">
        <ele>294.5</ele>
        <time>2026-05-28T12:17:15Z</time>
      </trkpt>
      <trkpt lat="43.09653" lon="1.87461">
        <ele>294.6</ele>
        <time>2026-05-28T12:17:20Z</time>
      </trkpt>
      <trkpt lat="43.09649" lon="1.87465">
        <ele>294.7</ele>
        <time>2026-05-28T12:17:25Z</time>
      </trkpt>
      <trkpt lat="43.0965" lon="1.87474">
        <ele>294.8</ele>
        <time>2026-05-28T12:17:30Z</time>
      </trkpt>
      <trkpt lat="43.0965" lon="1.87486">
        <ele>294.9</ele>
        <time>2026-05-28T12:17:35Z</time>
      </trkpt>
      <trkpt lat="43.09649" lon="1.87495">
        <ele>295</ele>
        <time>2026-05-28T12:17:40Z</time>
      </trkpt>
      <trkpt lat="43.09649" lon="1.87503">
        <ele>295.1</ele>
        <time>2026-05-28T12:17:45Z</time>
      </trkpt>
      <trkpt lat="43.09649" lon="1.87509">
        <ele>295.2</ele>
        <time>2026-05-28T12:17:50Z</time>
      </trkpt>
      <trkpt lat="43.09649" lon="1.87515">
        <ele>295.3</ele>
        <time>2026-05-28T12:17:55Z</time>
      </trkpt>
      <trkpt lat="43.09649" lon="1.87523">
        <ele>295.5</ele>
        <time>2026-05-28T12:18:00Z</time>
      </trkpt>
      <trkpt lat="43.09648" lon="1.87532">
        <ele>295.7</ele>
        <time>2026-05-28T12:18:05Z</time>
      </trkpt>
      <trkpt lat="43.09648" lon="1.8754">
        <ele>295.9</ele>
        <time>2026-05-28T12:18:10Z</time>
      </trkpt>
      <trkpt lat="43.09647" lon="1.87547">
        <ele>296</ele>
        <time>2026-05-28T12:18:15Z</time>
      </trkpt>
      <trkpt lat="43.09646" lon="1.87556">
        <ele>296.2</ele>
        <time>2026-05-28T12:18:20Z</time>
      </trkpt>
      <trkpt lat="43.09645" lon="1.87565">
        <ele>296.4</ele>
        <time>2026-05-28T12:18:25Z</time>
      </trkpt>
      <trkpt lat="43.09644" lon="1.87575">
        <ele>296.6</ele>
        <time>2026-05-28T12:18:30Z</time>
      </trkpt>
      <trkpt lat="43.09644" lon="1.87583">
        <ele>296.7</ele>
        <time>2026-05-28T12:18:35Z</time>
      </trkpt>
      <trkpt lat="43.0964" lon="1.87587">
        <ele>296.7</ele>
        <time>2026-05-28T12:18:40Z</time>
      </trkpt>
      <trkpt lat="43.09634" lon="1.87592">
        <ele>296.7</ele>
        <time>2026-05-28T12:18:45Z</time>
      </trkpt>
      <trkpt lat="43.09631" lon="1.87599">
        <ele>296.7</ele>
        <time>2026-05-28T12:18:50Z</time>
      </trkpt>
      <trkpt lat="43.09627" lon="1.87604">
        <ele>296.8</ele>
        <time>2026-05-28T12:18:55Z</time>
      </trkpt>
      <trkpt lat="43.09623" lon="1.87609">
        <ele>296.8</ele>
        <time>2026-05-28T12:19:00Z</time>
      </trkpt>
      <trkpt lat="43.09617" lon="1.87612">
        <ele>296.8</ele>
        <time>2026-05-28T12:19:05Z</time>
      </trkpt>
      <trkpt lat="43.0961" lon="1.87612">
        <ele>296.8</ele>
        <time>2026-05-28T12:19:10Z</time>
      </trkpt>
      <trkpt lat="43.09604" lon="1.87613">
        <ele>296.8</ele>
        <time>2026-05-28T12:19:15Z</time>
      </trkpt>
      <trkpt lat="43.09597" lon="1.87614">
        <ele>296.8</ele>
        <time>2026-05-28T12:19:20Z</time>
      </trkpt>
      <trkpt lat="43.09591" lon="1.87614">
        <ele>296.8</ele>
        <time>2026-05-28T12:19:25Z</time>
      </trkpt>
      <trkpt lat="43.09585" lon="1.87614">
        <ele>296.7</ele>
        <time>2026-05-28T12:19:30Z</time>
      </trkpt>
      <trkpt lat="43.09578" lon="1.87613">
        <ele>296.6</ele>
        <time>2026-05-28T12:19:35Z</time>
      </trkpt>
      <trkpt lat="43.09572" lon="1.87613">
        <ele>296.5</ele>
        <time>2026-05-28T12:19:40Z</time>
      </trkpt>
      <trkpt lat="43.09566" lon="1.87614">
        <ele>296.4</ele>
        <time>2026-05-28T12:19:45Z</time>
      </trkpt>
      <trkpt lat="43.09557" lon="1.87615">
        <ele>296.3</ele>
        <time>2026-05-28T12:19:50Z</time>
      </trkpt>
      <trkpt lat="43.0955" lon="1.87614">
        <ele>296.1</ele>
        <time>2026-05-28T12:19:55Z</time>
      </trkpt>
      <trkpt lat="43.09543" lon="1.87613">
        <ele>296</ele>
        <time>2026-05-28T12:20:00Z</time>
      </trkpt>
      <trkpt lat="43.09537" lon="1.87614">
        <ele>295.9</ele>
        <time>2026-05-28T12:20:05Z</time>
      </trkpt>
      <trkpt lat="43.09529" lon="1.87614">
        <ele>295.8</ele>
        <time>2026-05-28T12:20:10Z</time>
      </trkpt>
      <trkpt lat="43.09523" lon="1.87613">
        <ele>295.7</ele>
        <time>2026-05-28T12:20:15Z</time>
      </trkpt>
      <trkpt lat="43.09517" lon="1.87613">
        <ele>295.6</ele>
        <time>2026-05-28T12:20:20Z</time>
      </trkpt>
      <trkpt lat="43.09511" lon="1.87614">
        <ele>295.5</ele>
        <time>2026-05-28T12:20:25Z</time>
      </trkpt>
      <trkpt lat="43.09504" lon="1.87614">
        <ele>295.3</ele>
        <time>2026-05-28T12:20:30Z</time>
      </trkpt>
      <trkpt lat="43.09496" lon="1.87614">
        <ele>295.2</ele>
        <time>2026-05-28T12:20:35Z</time>
      </trkpt>
      <trkpt lat="43.09489" lon="1.87613">
        <ele>295.1</ele>
        <time>2026-05-28T12:20:40Z</time>
      </trkpt>
      <trkpt lat="43.09483" lon="1.87613">
        <ele>295</ele>
        <time>2026-05-28T12:20:45Z</time>
      </trkpt>
      <trkpt lat="43.09476" lon="1.87614">
        <ele>294.8</ele>
        <time>2026-05-28T12:20:50Z</time>
      </trkpt>
      <trkpt lat="43.09469" lon="1.87614">
        <ele>294.7</ele>
        <time>2026-05-28T12:20:55Z</time>
      </trkpt>
      <trkpt lat="43.09462" lon="1.87613">
        <ele>294.5</ele>
        <time>2026-05-28T12:21:00Z</time>
      </trkpt>
      <trkpt lat="43.09456" lon="1.87612">
        <ele>294.4</ele>
        <time>2026-05-28T12:21:05Z</time>
      </trkpt>
      <trkpt lat="43.09448" lon="1.87612">
        <ele>294.3</ele>
        <time>2026-05-28T12:21:10Z</time>
      </trkpt>
      <trkpt lat="43.09442" lon="1.87613">
        <ele>294.1</ele>
        <time>2026-05-28T12:21:15Z</time>
      </trkpt>
      <trkpt lat="43.09435" lon="1.87612">
        <ele>294</ele>
        <time>2026-05-28T12:21:20Z</time>
      </trkpt>
      <trkpt lat="43.09429" lon="1.87612">
        <ele>293.9</ele>
        <time>2026-05-28T12:21:25Z</time>
      </trkpt>
      <trkpt lat="43.09426" lon="1.87611">
        <ele>293.9</ele>
        <time>2026-05-28T12:21:30Z</time>
      </trkpt>
      <trkpt lat="43.09425" lon="1.87612">
        <ele>293.8</ele>
        <time>2026-05-28T12:21:35Z</time>
      </trkpt>
      <trkpt lat="43.09425" lon="1.87611">
        <ele>293.8</ele>
        <time>2026-05-28T12:21:40Z</time>
      </trkpt>
      <trkpt lat="43.09425" lon="1.87611">
        <ele>293.8</ele>
        <time>2026-05-28T12:21:45Z</time>
      </trkpt>
      <trkpt lat="43.09425" lon="1.87611">
        <ele>293.8</ele>
        <time>2026-05-28T12:21:50Z</time>
      </trkpt>
      <trkpt lat="43.09425" lon="1.87611">
        <ele>293.8</ele>
        <time>2026-05-28T12:21:55Z</time>
      </trkpt>
      <trkpt lat="43.09425" lon="1.87611">
        <ele>293.8</ele>
        <time>2026-05-28T12:22:00Z</time>
      </trkpt>
      <trkpt lat="43.09425" lon="1.87611">
        <ele>293.8</ele>
        <time>2026-05-28T12:22:05Z</time>
      </trkpt>
      <trkpt lat="43.09425" lon="1.87611">
        <ele>293.8</ele>
        <time>2026-05-28T12:22:10Z</time>
      </trkpt>
      <trkpt lat="43.09425" lon="1.87611">
        <ele>293.8</ele>
        <time>2026-05-28T12:22:15Z</time>
      </trkpt>
      <trkpt lat="43.09425" lon="1.87611">
        <ele>293.8</ele>
        <time>2026-05-28T12:22:20Z</time>
      </trkpt>
      <trkpt lat="43.09425" lon="1.87611">
        <ele>293.8</ele>
        <time>2026-05-28T12:22:25Z</time>
      </trkpt>
      <trkpt lat="43.09425" lon="1.87611">
        <ele>293.8</ele>
        <time>2026-05-28T12:22:30Z</time>
      </trkpt>
      <trkpt lat="43.09425" lon="1.87611">
        <ele>293.8</ele>
        <time>2026-05-28T12:22:35Z</time>
      </trkpt>
      <trkpt lat="43.09425" lon="1.87611">
        <ele>293.8</ele>
        <time>2026-05-28T12:22:40Z</time>
      </trkpt>
      <trkpt lat="43.09425" lon="1.87611">
        <ele>293.8</ele>
        <time>2026-05-28T12:22:45Z</time>
      </trkpt>
      <trkpt lat="43.09425" lon="1.87611">
        <ele>293.8</ele>
        <time>2026-05-28T12:22:50Z</time>
      </trkpt>
      <trkpt lat="43.09425" lon="1.87611">
        <ele>293.8</ele>
        <time>2026-05-28T12:22:55Z</time>
      </trkpt>
      <trkpt lat="43.09425" lon="1.87611">
        <ele>293.8</ele>
        <time>2026-05-28T12:23:00Z</time>
      </trkpt>
      <trkpt lat="43.09421" lon="1.87613">
        <ele>293.7</ele>
        <time>2026-05-28T12:23:05Z</time>
      </trkpt>
      <trkpt lat="43.09415" lon="1.87612">
        <ele>293.7</ele>
        <time>2026-05-28T12:23:10Z</time>
      </trkpt>
      <trkpt lat="43.09409" lon="1.87611">
        <ele>294</ele>
        <time>2026-05-28T12:23:15Z</time>
      </trkpt>
      <trkpt lat="43.09403" lon="1.87613">
        <ele>294.2</ele>
        <time>2026-05-28T12:23:20Z</time>
      </trkpt>
      <trkpt lat="43.09396" lon="1.87613">
        <ele>294.5</ele>
        <time>2026-05-28T12:23:25Z</time>
      </trkpt>
      <trkpt lat="43.0939" lon="1.87612">
        <ele>294.7</ele>
        <time>2026-05-28T12:23:30Z</time>
      </trkpt>
      <trkpt lat="43.09384" lon="1.87611">
        <ele>295</ele>
        <time>2026-05-28T12:23:35Z</time>
      </trkpt>
      <trkpt lat="43.09378" lon="1.87612">
        <ele>295.2</ele>
        <time>2026-05-28T12:23:40Z</time>
      </trkpt>
      <trkpt lat="43.09372" lon="1.87612">
        <ele>295.4</ele>
        <time>2026-05-28T12:23:45Z</time>
      </trkpt>
      <trkpt lat="43.09366" lon="1.87611">
        <ele>295.7</ele>
        <time>2026-05-28T12:23:50Z</time>
      </trkpt>
      <trkpt lat="43.09359" lon="1.87612">
        <ele>295.9</ele>
        <time>2026-05-28T12:23:55Z</time>
      </trkpt>
      <trkpt lat="43.09356" lon="1.87613">
        <ele>296</ele>
        <time>2026-05-28T12:24:00Z</time>
      </trkpt>
      <trkpt lat="43.09356" lon="1.87614">
        <ele>296</ele>
        <time>2026-05-28T12:24:05Z</time>
      </trkpt>
      <trkpt lat="43.09356" lon="1.87614">
        <ele>296</ele>
        <time>2026-05-28T12:24:10Z</time>
      </trkpt>
      <trkpt lat="43.09356" lon="1.87614">
        <ele>296</ele>
        <time>2026-05-28T12:24:15Z</time>
      </trkpt>
      <trkpt lat="43.09352" lon="1.87615">
        <ele>296.1</ele>
        <time>2026-05-28T12:24:20Z</time>
      </trkpt>
      <trkpt lat="43.09347" lon="1.87615">
        <ele>296.3</ele>
        <time>2026-05-28T12:24:25Z</time>
      </trkpt>
      <trkpt lat="43.09346" lon="1.87622">
        <ele>296.1</ele>
        <time>2026-05-28T12:24:30Z</time>
      </trkpt>
      <trkpt lat="43.09344" lon="1.87625">
        <ele>296.1</ele>
        <time>2026-05-28T12:24:35Z</time>
      </trkpt>
      <trkpt lat="43.09343" lon="1.87625">
        <ele>296.2</ele>
        <time>2026-05-28T12:24:40Z</time>
      </trkpt>
      <trkpt lat="43.09343" lon="1.87625">
        <ele>296.2</ele>
        <time>2026-05-28T12:24:45Z</time>
      </trkpt>
      <trkpt lat="43.09343" lon="1.87625">
        <ele>296.2</ele>
        <time>2026-05-28T12:24:50Z</time>
      </trkpt>
      <trkpt lat="43.09343" lon="1.87625">
        <ele>296.2</ele>
        <time>2026-05-28T12:24:55Z</time>
      </trkpt>
      <trkpt lat="43.09339" lon="1.87624">
        <ele>296.3</ele>
        <time>2026-05-28T12:25:00Z</time>
      </trkpt>
      <trkpt lat="43.09333" lon="1.87625">
        <ele>296.5</ele>
        <time>2026-05-28T12:25:05Z</time>
      </trkpt>
      <trkpt lat="43.09327" lon="1.87624">
        <ele>296.6</ele>
        <time>2026-05-28T12:25:10Z</time>
      </trkpt>
      <trkpt lat="43.09321" lon="1.87624">
        <ele>296.7</ele>
        <time>2026-05-28T12:25:15Z</time>
      </trkpt>
      <trkpt lat="43.09316" lon="1.87624">
        <ele>296.7</ele>
        <time>2026-05-28T12:25:20Z</time>
      </trkpt>
      <trkpt lat="43.09308" lon="1.87621">
        <ele>296.9</ele>
        <time>2026-05-28T12:25:25Z</time>
      </trkpt>
      <trkpt lat="43.093" lon="1.8762">
        <ele>297</ele>
        <time>2026-05-28T12:25:30Z</time>
      </trkpt>
      <trkpt lat="43.09293" lon="1.87618">
        <ele>297.2</ele>
        <time>2026-05-28T12:25:35Z</time>
      </trkpt>
      <trkpt lat="43.09285" lon="1.87618">
        <ele>297.2</ele>
        <time>2026-05-28T12:25:40Z</time>
      </trkpt>
      <trkpt lat="43.09279" lon="1.87618">
        <ele>297.3</ele>
        <time>2026-05-28T12:25:45Z</time>
      </trkpt>
      <trkpt lat="43.09273" lon="1.87619">
        <ele>297.3</ele>
        <time>2026-05-28T12:25:50Z</time>
      </trkpt>
      <trkpt lat="43.09267" lon="1.8762">
        <ele>297.4</ele>
        <time>2026-05-28T12:25:55Z</time>
      </trkpt>
      <trkpt lat="43.09261" lon="1.87621">
        <ele>297.4</ele>
        <time>2026-05-28T12:26:00Z</time>
      </trkpt>
      <trkpt lat="43.09254" lon="1.87621">
        <ele>297.5</ele>
        <time>2026-05-28T12:26:05Z</time>
      </trkpt>
      <trkpt lat="43.09248" lon="1.87623">
        <ele>297.6</ele>
        <time>2026-05-28T12:26:10Z</time>
      </trkpt>
      <trkpt lat="43.09243" lon="1.87626">
        <ele>297.8</ele>
        <time>2026-05-28T12:26:15Z</time>
      </trkpt>
      <trkpt lat="43.09237" lon="1.87625">
        <ele>298</ele>
        <time>2026-05-28T12:26:20Z</time>
      </trkpt>
      <trkpt lat="43.09231" lon="1.87627">
        <ele>298.3</ele>
        <time>2026-05-28T12:26:25Z</time>
      </trkpt>
      <trkpt lat="43.09225" lon="1.87627">
        <ele>298.5</ele>
        <time>2026-05-28T12:26:30Z</time>
      </trkpt>
      <trkpt lat="43.0922" lon="1.87627">
        <ele>298.7</ele>
        <time>2026-05-28T12:26:35Z</time>
      </trkpt>
      <trkpt lat="43.09215" lon="1.87628">
        <ele>298.9</ele>
        <time>2026-05-28T12:26:40Z</time>
      </trkpt>
      <trkpt lat="43.0921" lon="1.87628">
        <ele>299.2</ele>
        <time>2026-05-28T12:26:45Z</time>
      </trkpt>
      <trkpt lat="43.09205" lon="1.87627">
        <ele>299.4</ele>
        <time>2026-05-28T12:26:50Z</time>
      </trkpt>
      <trkpt lat="43.092" lon="1.87628">
        <ele>299.6</ele>
        <time>2026-05-28T12:26:55Z</time>
      </trkpt>
      <trkpt lat="43.09197" lon="1.87628">
        <ele>299.7</ele>
        <time>2026-05-28T12:27:00Z</time>
      </trkpt>
      <trkpt lat="43.09193" lon="1.87629">
        <ele>299.9</ele>
        <time>2026-05-28T12:27:05Z</time>
      </trkpt>
      <trkpt lat="43.09189" lon="1.87629">
        <ele>300</ele>
        <time>2026-05-28T12:27:10Z</time>
      </trkpt>
      <trkpt lat="43.09188" lon="1.87628">
        <ele>300.1</ele>
        <time>2026-05-28T12:27:15Z</time>
      </trkpt>
      <trkpt lat="43.09184" lon="1.87629">
        <ele>300.3</ele>
        <time>2026-05-28T12:27:20Z</time>
      </trkpt>
      <trkpt lat="43.09179" lon="1.87629">
        <ele>300.5</ele>
        <time>2026-05-28T12:27:25Z</time>
      </trkpt>
      <trkpt lat="43.09172" lon="1.87629">
        <ele>300.8</ele>
        <time>2026-05-28T12:27:30Z</time>
      </trkpt>
      <trkpt lat="43.09166" lon="1.8763">
        <ele>301</ele>
        <time>2026-05-28T12:27:35Z</time>
      </trkpt>
      <trkpt lat="43.09161" lon="1.87631">
        <ele>301.3</ele>
        <time>2026-05-28T12:27:40Z</time>
      </trkpt>
      <trkpt lat="43.09156" lon="1.87632">
        <ele>301.6</ele>
        <time>2026-05-28T12:27:45Z</time>
      </trkpt>
      <trkpt lat="43.09148" lon="1.8763">
        <ele>302.1</ele>
        <time>2026-05-28T12:27:50Z</time>
      </trkpt>
      <trkpt lat="43.09142" lon="1.87629">
        <ele>302.5</ele>
        <time>2026-05-28T12:27:55Z</time>
      </trkpt>
      <trkpt lat="43.09135" lon="1.87627">
        <ele>302.9</ele>
        <time>2026-05-28T12:28:00Z</time>
      </trkpt>
      <trkpt lat="43.09127" lon="1.87626">
        <ele>303.4</ele>
        <time>2026-05-28T12:28:05Z</time>
      </trkpt>
      <trkpt lat="43.09121" lon="1.87623">
        <ele>303.7</ele>
        <time>2026-05-28T12:28:10Z</time>
      </trkpt>
      <trkpt lat="43.09115" lon="1.87623">
        <ele>304.1</ele>
        <time>2026-05-28T12:28:15Z</time>
      </trkpt>
      <trkpt lat="43.09114" lon="1.87622">
        <ele>304.2</ele>
        <time>2026-05-28T12:28:20Z</time>
      </trkpt>
      <trkpt lat="43.0911" lon="1.87622">
        <ele>304.4</ele>
        <time>2026-05-28T12:28:25Z</time>
      </trkpt>
      <trkpt lat="43.09104" lon="1.87621">
        <ele>304.8</ele>
        <time>2026-05-28T12:28:30Z</time>
      </trkpt>
      <trkpt lat="43.09099" lon="1.87621">
        <ele>305.1</ele>
        <time>2026-05-28T12:28:35Z</time>
      </trkpt>
      <trkpt lat="43.09095" lon="1.8762">
        <ele>305.3</ele>
        <time>2026-05-28T12:28:40Z</time>
      </trkpt>
      <trkpt lat="43.09089" lon="1.87619">
        <ele>305.7</ele>
        <time>2026-05-28T12:28:45Z</time>
      </trkpt>
      <trkpt lat="43.09083" lon="1.87618">
        <ele>306</ele>
        <time>2026-05-28T12:28:50Z</time>
      </trkpt>
      <trkpt lat="43.09077" lon="1.8762">
        <ele>306</ele>
        <time>2026-05-28T12:28:55Z</time>
      </trkpt>
      <trkpt lat="43.09071" lon="1.87617">
        <ele>305.9</ele>
        <time>2026-05-28T12:29:00Z</time>
      </trkpt>
      <trkpt lat="43.09063" lon="1.87616">
        <ele>305.9</ele>
        <time>2026-05-28T12:29:05Z</time>
      </trkpt>
      <trkpt lat="43.09061" lon="1.87614">
        <ele>305.9</ele>
        <time>2026-05-28T12:29:10Z</time>
      </trkpt>
      <trkpt lat="43.09059" lon="1.87613">
        <ele>305.9</ele>
        <time>2026-05-28T12:29:15Z</time>
      </trkpt>
      <trkpt lat="43.09053" lon="1.87611">
        <ele>305.9</ele>
        <time>2026-05-28T12:29:20Z</time>
      </trkpt>
      <trkpt lat="43.09048" lon="1.8761">
        <ele>305.9</ele>
        <time>2026-05-28T12:29:25Z</time>
      </trkpt>
      <trkpt lat="43.09049" lon="1.87614">
        <ele>305.8</ele>
        <time>2026-05-28T12:29:30Z</time>
      </trkpt>
      <trkpt lat="43.09048" lon="1.87614">
        <ele>305.8</ele>
        <time>2026-05-28T12:29:35Z</time>
      </trkpt>
      <trkpt lat="43.09041" lon="1.87612">
        <ele>305.8</ele>
        <time>2026-05-28T12:29:40Z</time>
      </trkpt>
      <trkpt lat="43.09035" lon="1.87612">
        <ele>305.8</ele>
        <time>2026-05-28T12:29:45Z</time>
      </trkpt>
      <trkpt lat="43.09029" lon="1.87613">
        <ele>305.8</ele>
        <time>2026-05-28T12:29:50Z</time>
      </trkpt>
      <trkpt lat="43.09021" lon="1.87615">
        <ele>305.7</ele>
        <time>2026-05-28T12:29:55Z</time>
      </trkpt>
      <trkpt lat="43.09016" lon="1.87617">
        <ele>305.7</ele>
        <time>2026-05-28T12:30:00Z</time>
      </trkpt>
      <trkpt lat="43.09011" lon="1.87615">
        <ele>305.7</ele>
        <time>2026-05-28T12:30:05Z</time>
      </trkpt>
      <trkpt lat="43.09006" lon="1.87614">
        <ele>305.7</ele>
        <time>2026-05-28T12:30:10Z</time>
      </trkpt>
      <trkpt lat="43.09001" lon="1.87612">
        <ele>305.7</ele>
        <time>2026-05-28T12:30:15Z</time>
      </trkpt>
      <trkpt lat="43.08996" lon="1.87614">
        <ele>305.8</ele>
        <time>2026-05-28T12:30:20Z</time>
      </trkpt>
      <trkpt lat="43.0899" lon="1.87614">
        <ele>306.1</ele>
        <time>2026-05-28T12:30:25Z</time>
      </trkpt>
      <trkpt lat="43.08984" lon="1.87614">
        <ele>306.3</ele>
        <time>2026-05-28T12:30:30Z</time>
      </trkpt>
      <trkpt lat="43.08981" lon="1.87616">
        <ele>306.4</ele>
        <time>2026-05-28T12:30:35Z</time>
      </trkpt>
      <trkpt lat="43.08976" lon="1.87619">
        <ele>306.6</ele>
        <time>2026-05-28T12:30:40Z</time>
      </trkpt>
      <trkpt lat="43.0897" lon="1.87617">
        <ele>306.9</ele>
        <time>2026-05-28T12:30:45Z</time>
      </trkpt>
      <trkpt lat="43.08963" lon="1.87614">
        <ele>307.2</ele>
        <time>2026-05-28T12:30:50Z</time>
      </trkpt>
      <trkpt lat="43.08958" lon="1.87612">
        <ele>307.5</ele>
        <time>2026-05-28T12:30:55Z</time>
      </trkpt>
      <trkpt lat="43.0895" lon="1.87614">
        <ele>307.8</ele>
        <time>2026-05-28T12:31:00Z</time>
      </trkpt>
      <trkpt lat="43.08943" lon="1.87618">
        <ele>308</ele>
        <time>2026-05-28T12:31:05Z</time>
      </trkpt>
      <trkpt lat="43.08935" lon="1.87618">
        <ele>308.4</ele>
        <time>2026-05-28T12:31:10Z</time>
      </trkpt>
      <trkpt lat="43.08929" lon="1.87617">
        <ele>308.7</ele>
        <time>2026-05-28T12:31:15Z</time>
      </trkpt>
      <trkpt lat="43.08923" lon="1.87616">
        <ele>308.9</ele>
        <time>2026-05-28T12:31:20Z</time>
      </trkpt>
      <trkpt lat="43.08915" lon="1.8761">
        <ele>309.3</ele>
        <time>2026-05-28T12:31:25Z</time>
      </trkpt>
      <trkpt lat="43.08913" lon="1.87602">
        <ele>309.5</ele>
        <time>2026-05-28T12:31:30Z</time>
      </trkpt>
      <trkpt lat="43.08912" lon="1.87593">
        <ele>309.7</ele>
        <time>2026-05-28T12:31:35Z</time>
      </trkpt>
      <trkpt lat="43.08912" lon="1.87581">
        <ele>309.9</ele>
        <time>2026-05-28T12:31:40Z</time>
      </trkpt>
      <trkpt lat="43.08914" lon="1.87571">
        <ele>310</ele>
        <time>2026-05-28T12:31:45Z</time>
      </trkpt>
      <trkpt lat="43.08917" lon="1.87565">
        <ele>310</ele>
        <time>2026-05-28T12:31:50Z</time>
      </trkpt>
      <trkpt lat="43.08919" lon="1.87557">
        <ele>309.9</ele>
        <time>2026-05-28T12:31:55Z</time>
      </trkpt>
      <trkpt lat="43.08916" lon="1.87551">
        <ele>310</ele>
        <time>2026-05-28T12:32:00Z</time>
      </trkpt>
      <trkpt lat="43.08918" lon="1.8754">
        <ele>310</ele>
        <time>2026-05-28T12:32:05Z</time>
      </trkpt>
      <trkpt lat="43.08919" lon="1.87533">
        <ele>309.9</ele>
        <time>2026-05-28T12:32:10Z</time>
      </trkpt>
      <trkpt lat="43.08919" lon="1.87526">
        <ele>309.9</ele>
        <time>2026-05-28T12:32:15Z</time>
      </trkpt>
      <trkpt lat="43.08919" lon="1.87519">
        <ele>309.9</ele>
        <time>2026-05-28T12:32:20Z</time>
      </trkpt>
      <trkpt lat="43.08918" lon="1.87516">
        <ele>310</ele>
        <time>2026-05-28T12:32:25Z</time>
      </trkpt>
      <trkpt lat="43.08919" lon="1.87488">
        <ele>309.7</ele>
        <time>2026-05-28T12:38:21Z</time>
      </trkpt>
      <trkpt lat="43.08911" lon="1.87502">
        <ele>310</ele>
        <time>2026-05-28T12:38:27Z</time>
      </trkpt>
      <trkpt lat="43.08911" lon="1.87502">
        <ele>310</ele>
        <time>2026-05-28T12:38:32Z</time>
      </trkpt>
      <trkpt lat="43.08911" lon="1.87502">
        <ele>310</ele>
        <time>2026-05-28T12:38:37Z</time>
      </trkpt>
      <trkpt lat="43.08911" lon="1.87502">
        <ele>310</ele>
        <time>2026-05-28T12:38:42Z</time>
      </trkpt>
      <trkpt lat="43.08909" lon="1.87503">
        <ele>310</ele>
        <time>2026-05-28T12:38:47Z</time>
      </trkpt>
      <trkpt lat="43.08907" lon="1.87501">
        <ele>310</ele>
        <time>2026-05-28T12:38:52Z</time>
      </trkpt>
      <trkpt lat="43.08902" lon="1.875">
        <ele>310</ele>
        <time>2026-05-28T12:38:57Z</time>
      </trkpt>
      <trkpt lat="43.08897" lon="1.87502">
        <ele>310</ele>
        <time>2026-05-28T12:39:02Z</time>
      </trkpt>
      <trkpt lat="43.08894" lon="1.87501">
        <ele>310</ele>
        <time>2026-05-28T12:39:07Z</time>
      </trkpt>
      <trkpt lat="43.0889" lon="1.87502">
        <ele>310</ele>
        <time>2026-05-28T12:39:12Z</time>
      </trkpt>
      <trkpt lat="43.08885" lon="1.87502">
        <ele>310</ele>
        <time>2026-05-28T12:39:17Z</time>
      </trkpt>
      <trkpt lat="43.0888" lon="1.87502">
        <ele>310</ele>
        <time>2026-05-28T12:39:22Z</time>
      </trkpt>
      <trkpt lat="43.08873" lon="1.87502">
        <ele>310</ele>
        <time>2026-05-28T12:39:27Z</time>
      </trkpt>
      <trkpt lat="43.08871" lon="1.87502">
        <ele>310</ele>
        <time>2026-05-28T12:39:32Z</time>
      </trkpt>
      <trkpt lat="43.08871" lon="1.87502">
        <ele>310</ele>
        <time>2026-05-28T12:39:37Z</time>
      </trkpt>
      <trkpt lat="43.08871" lon="1.87502">
        <ele>310</ele>
        <time>2026-05-28T12:39:42Z</time>
      </trkpt>
      <trkpt lat="43.08867" lon="1.87502">
        <ele>310</ele>
        <time>2026-05-28T12:39:47Z</time>
      </trkpt>
      <trkpt lat="43.08866" lon="1.87503">
        <ele>310</ele>
        <time>2026-05-28T12:39:52Z</time>
      </trkpt>
      <trkpt lat="43.08866" lon="1.87503">
        <ele>310</ele>
        <time>2026-05-28T12:39:57Z</time>
      </trkpt>
      <trkpt lat="43.08866" lon="1.87503">
        <ele>310</ele>
        <time>2026-05-28T12:40:02Z</time>
      </trkpt>
      <trkpt lat="43.08863" lon="1.87502">
        <ele>310</ele>
        <time>2026-05-28T12:40:07Z</time>
      </trkpt>
      <trkpt lat="43.0886" lon="1.87502">
        <ele>310</ele>
        <time>2026-05-28T12:40:12Z</time>
      </trkpt>
      <trkpt lat="43.08855" lon="1.87503">
        <ele>310</ele>
        <time>2026-05-28T12:40:17Z</time>
      </trkpt>
      <trkpt lat="43.08851" lon="1.87503">
        <ele>310</ele>
        <time>2026-05-28T12:40:22Z</time>
      </trkpt>
      <trkpt lat="43.08846" lon="1.87503">
        <ele>310</ele>
        <time>2026-05-28T12:40:27Z</time>
      </trkpt>
      <trkpt lat="43.08844" lon="1.87501">
        <ele>310</ele>
        <time>2026-05-28T12:40:32Z</time>
      </trkpt>
      <trkpt lat="43.08843" lon="1.87498">
        <ele>310</ele>
        <time>2026-05-28T12:40:37Z</time>
      </trkpt>
      <trkpt lat="43.08842" lon="1.87489">
        <ele>310</ele>
        <time>2026-05-28T12:40:42Z</time>
      </trkpt>
      <trkpt lat="43.08842" lon="1.87483">
        <ele>310</ele>
        <time>2026-05-28T12:40:47Z</time>
      </trkpt>
      <trkpt lat="43.08841" lon="1.87482">
        <ele>310</ele>
        <time>2026-05-28T12:40:52Z</time>
      </trkpt>
      <trkpt lat="43.08841" lon="1.87475">
        <ele>309.9</ele>
        <time>2026-05-28T12:40:57Z</time>
      </trkpt>
      <trkpt lat="43.08841" lon="1.87469">
        <ele>309.9</ele>
        <time>2026-05-28T12:41:02Z</time>
      </trkpt>
      <trkpt lat="43.08842" lon="1.87467">
        <ele>309.9</ele>
        <time>2026-05-28T12:41:07Z</time>
      </trkpt>
      <trkpt lat="43.08842" lon="1.87467">
        <ele>309.9</ele>
        <time>2026-05-28T12:41:12Z</time>
      </trkpt>
      <trkpt lat="43.08842" lon="1.87467">
        <ele>309.9</ele>
        <time>2026-05-28T12:41:17Z</time>
      </trkpt>
      <trkpt lat="43.08841" lon="1.87463">
        <ele>309.9</ele>
        <time>2026-05-28T12:41:22Z</time>
      </trkpt>
      <trkpt lat="43.08843" lon="1.8746">
        <ele>309.9</ele>
        <time>2026-05-28T12:41:27Z</time>
      </trkpt>
      <trkpt lat="43.08845" lon="1.87454">
        <ele>309.8</ele>
        <time>2026-05-28T12:41:32Z</time>
      </trkpt>
      <trkpt lat="43.08843" lon="1.87445">
        <ele>309.8</ele>
        <time>2026-05-28T12:41:37Z</time>
      </trkpt>
      <trkpt lat="43.08843" lon="1.87437">
        <ele>309.8</ele>
        <time>2026-05-28T12:41:42Z</time>
      </trkpt>
      <trkpt lat="43.08842" lon="1.87434">
        <ele>309.8</ele>
        <time>2026-05-28T12:41:47Z</time>
      </trkpt>
      <trkpt lat="43.08842" lon="1.87434">
        <ele>309.8</ele>
        <time>2026-05-28T12:41:52Z</time>
      </trkpt>
      <trkpt lat="43.08842" lon="1.87434">
        <ele>309.8</ele>
        <time>2026-05-28T12:41:57Z</time>
      </trkpt>
      <trkpt lat="43.08842" lon="1.87434">
        <ele>309.8</ele>
        <time>2026-05-28T12:42:02Z</time>
      </trkpt>
      <trkpt lat="43.08842" lon="1.87434">
        <ele>309.8</ele>
        <time>2026-05-28T12:42:07Z</time>
      </trkpt>
      <trkpt lat="43.08842" lon="1.87434">
        <ele>309.8</ele>
        <time>2026-05-28T12:42:12Z</time>
      </trkpt>
      <trkpt lat="43.08842" lon="1.87434">
        <ele>309.8</ele>
        <time>2026-05-28T12:42:17Z</time>
      </trkpt>
      <trkpt lat="43.08842" lon="1.87434">
        <ele>309.8</ele>
        <time>2026-05-28T12:42:22Z</time>
      </trkpt>
      <trkpt lat="43.08842" lon="1.87434">
        <ele>309.8</ele>
        <time>2026-05-28T12:42:27Z</time>
      </trkpt>
      <trkpt lat="43.08842" lon="1.87434">
        <ele>309.8</ele>
        <time>2026-05-28T12:42:32Z</time>
      </trkpt>
      <trkpt lat="43.08842" lon="1.87434">
        <ele>309.8</ele>
        <time>2026-05-28T12:42:37Z</time>
      </trkpt>
      <trkpt lat="43.08842" lon="1.87434">
        <ele>309.8</ele>
        <time>2026-05-28T12:42:42Z</time>
      </trkpt>
      <trkpt lat="43.08842" lon="1.87434">
        <ele>309.8</ele>
        <time>2026-05-28T12:42:47Z</time>
      </trkpt>
      <trkpt lat="43.08842" lon="1.87434">
        <ele>309.8</ele>
        <time>2026-05-28T12:42:52Z</time>
      </trkpt>
      <trkpt lat="43.08842" lon="1.87434">
        <ele>309.8</ele>
        <time>2026-05-28T12:42:57Z</time>
      </trkpt>
      <trkpt lat="43.08842" lon="1.87434">
        <ele>309.8</ele>
        <time>2026-05-28T12:43:02Z</time>
      </trkpt>
      <trkpt lat="43.08842" lon="1.87434">
        <ele>309.8</ele>
        <time>2026-05-28T12:43:07Z</time>
      </trkpt>
      <trkpt lat="43.08842" lon="1.87434">
        <ele>309.8</ele>
        <time>2026-05-28T12:43:12Z</time>
      </trkpt>
      <trkpt lat="43.08842" lon="1.87434">
        <ele>309.8</ele>
        <time>2026-05-28T12:43:17Z</time>
      </trkpt>
      <trkpt lat="43.08842" lon="1.87434">
        <ele>309.8</ele>
        <time>2026-05-28T12:43:22Z</time>
      </trkpt>
      <trkpt lat="43.08842" lon="1.87434">
        <ele>309.8</ele>
        <time>2026-05-28T12:43:27Z</time>
      </trkpt>
      <trkpt lat="43.08842" lon="1.87434">
        <ele>309.8</ele>
        <time>2026-05-28T12:43:32Z</time>
      </trkpt>
      <trkpt lat="43.08842" lon="1.87434">
        <ele>309.8</ele>
        <time>2026-05-28T12:43:37Z</time>
      </trkpt>
      <trkpt lat="43.08842" lon="1.87434">
        <ele>309.8</ele>
        <time>2026-05-28T12:43:42Z</time>
      </trkpt>
      <trkpt lat="43.08842" lon="1.87434">
        <ele>309.8</ele>
        <time>2026-05-28T12:43:47Z</time>
      </trkpt>
      <trkpt lat="43.08842" lon="1.87434">
        <ele>309.8</ele>
        <time>2026-05-28T12:43:52Z</time>
      </trkpt>
      <trkpt lat="43.08842" lon="1.87434">
        <ele>309.8</ele>
        <time>2026-05-28T12:43:57Z</time>
      </trkpt>
      <trkpt lat="43.08842" lon="1.87434">
        <ele>309.8</ele>
        <time>2026-05-28T12:44:02Z</time>
      </trkpt>
      <trkpt lat="43.08842" lon="1.87434">
        <ele>309.8</ele>
        <time>2026-05-28T12:44:07Z</time>
      </trkpt>
      <trkpt lat="43.08842" lon="1.87434">
        <ele>309.8</ele>
        <time>2026-05-28T12:44:12Z</time>
      </trkpt>
      <trkpt lat="43.08836" lon="1.87422">
        <ele>309.9</ele>
        <time>2026-05-28T12:44:17Z</time>
      </trkpt>
      <trkpt lat="43.08837" lon="1.87416">
        <ele>309.9</ele>
        <time>2026-05-28T12:44:22Z</time>
      </trkpt>
      <trkpt lat="43.08837" lon="1.8741">
        <ele>309.9</ele>
        <time>2026-05-28T12:44:27Z</time>
      </trkpt>
      <trkpt lat="43.08837" lon="1.87404">
        <ele>309.9</ele>
        <time>2026-05-28T12:44:32Z</time>
      </trkpt>
      <trkpt lat="43.08837" lon="1.87399">
        <ele>309.9</ele>
        <time>2026-05-28T12:44:37Z</time>
      </trkpt>
      <trkpt lat="43.08838" lon="1.87397">
        <ele>309.9</ele>
        <time>2026-05-28T12:44:42Z</time>
      </trkpt>
      <trkpt lat="43.08838" lon="1.87397">
        <ele>309.9</ele>
        <time>2026-05-28T12:44:47Z</time>
      </trkpt>
      <trkpt lat="43.08838" lon="1.87397">
        <ele>309.9</ele>
        <time>2026-05-28T12:44:52Z</time>
      </trkpt>
      <trkpt lat="43.08838" lon="1.87397">
        <ele>309.9</ele>
        <time>2026-05-28T12:44:57Z</time>
      </trkpt>
      <trkpt lat="43.08843" lon="1.87396">
        <ele>309.8</ele>
        <time>2026-05-28T12:45:02Z</time>
      </trkpt>
      <trkpt lat="43.08843" lon="1.87396">
        <ele>309.8</ele>
        <time>2026-05-28T12:45:07Z</time>
      </trkpt>
      <trkpt lat="43.08843" lon="1.87396">
        <ele>309.8</ele>
        <time>2026-05-28T12:45:12Z</time>
      </trkpt>
      <trkpt lat="43.08843" lon="1.87396">
        <ele>309.8</ele>
        <time>2026-05-28T12:45:17Z</time>
      </trkpt>
      <trkpt lat="43.08844" lon="1.87385">
        <ele>309.8</ele>
        <time>2026-05-28T12:45:22Z</time>
      </trkpt>
      <trkpt lat="43.08844" lon="1.87377">
        <ele>309.8</ele>
        <time>2026-05-28T12:45:27Z</time>
      </trkpt>
      <trkpt lat="43.08844" lon="1.8737">
        <ele>309.8</ele>
        <time>2026-05-28T12:45:32Z</time>
      </trkpt>
      <trkpt lat="43.08843" lon="1.87366">
        <ele>309.8</ele>
        <time>2026-05-28T12:45:37Z</time>
      </trkpt>
      <trkpt lat="43.08839" lon="1.87363">
        <ele>309.9</ele>
        <time>2026-05-28T12:45:42Z</time>
      </trkpt>
      <trkpt lat="43.08836" lon="1.87362">
        <ele>310</ele>
        <time>2026-05-28T12:45:47Z</time>
      </trkpt>
      <trkpt lat="43.08836" lon="1.87362">
        <ele>310</ele>
        <time>2026-05-28T12:45:52Z</time>
      </trkpt>
      <trkpt lat="43.08836" lon="1.87362">
        <ele>310</ele>
        <time>2026-05-28T12:45:57Z</time>
      </trkpt>
      <trkpt lat="43.08836" lon="1.87362">
        <ele>310</ele>
        <time>2026-05-28T12:46:02Z</time>
      </trkpt>
      <trkpt lat="43.08836" lon="1.87362">
        <ele>310</ele>
        <time>2026-05-28T12:46:07Z</time>
      </trkpt>
      <trkpt lat="43.08835" lon="1.87362">
        <ele>310</ele>
        <time>2026-05-28T12:46:12Z</time>
      </trkpt>
      <trkpt lat="43.08832" lon="1.87363">
        <ele>310</ele>
        <time>2026-05-28T12:46:17Z</time>
      </trkpt>
      <trkpt lat="43.0883" lon="1.87364">
        <ele>310</ele>
        <time>2026-05-28T12:46:22Z</time>
      </trkpt>
      <trkpt lat="43.08828" lon="1.87366">
        <ele>309.9</ele>
        <time>2026-05-28T12:46:27Z</time>
      </trkpt>
      <trkpt lat="43.08828" lon="1.87365">
        <ele>309.9</ele>
        <time>2026-05-28T12:46:32Z</time>
      </trkpt>
      <trkpt lat="43.08827" lon="1.87371">
        <ele>309.9</ele>
        <time>2026-05-28T12:46:37Z</time>
      </trkpt>
      <trkpt lat="43.08826" lon="1.87374">
        <ele>309.9</ele>
        <time>2026-05-28T12:46:42Z</time>
      </trkpt>
      <trkpt lat="43.08825" lon="1.87377">
        <ele>309.9</ele>
        <time>2026-05-28T12:46:47Z</time>
      </trkpt>
      <trkpt lat="43.08825" lon="1.87382">
        <ele>309.9</ele>
        <time>2026-05-28T12:46:52Z</time>
      </trkpt>
      <trkpt lat="43.08826" lon="1.87387">
        <ele>309.9</ele>
        <time>2026-05-28T12:46:57Z</time>
      </trkpt>
      <trkpt lat="43.08828" lon="1.87387">
        <ele>309.9</ele>
        <time>2026-05-28T12:47:02Z</time>
      </trkpt>
      <trkpt lat="43.0883" lon="1.87388">
        <ele>310</ele>
        <time>2026-05-28T12:47:07Z</time>
      </trkpt>
      <trkpt lat="43.0883" lon="1.87388">
        <ele>310</ele>
        <time>2026-05-28T12:47:12Z</time>
      </trkpt>
      <trkpt lat="43.0883" lon="1.87388">
        <ele>310</ele>
        <time>2026-05-28T12:47:17Z</time>
      </trkpt>
      <trkpt lat="43.0883" lon="1.87388">
        <ele>310</ele>
        <time>2026-05-28T12:47:22Z</time>
      </trkpt>
      <trkpt lat="43.0883" lon="1.87388">
        <ele>310</ele>
        <time>2026-05-28T12:47:27Z</time>
      </trkpt>
      <trkpt lat="43.0883" lon="1.87388">
        <ele>310</ele>
        <time>2026-05-28T12:47:32Z</time>
      </trkpt>
      <trkpt lat="43.0883" lon="1.87388">
        <ele>310</ele>
        <time>2026-05-28T12:47:37Z</time>
      </trkpt>
      <trkpt lat="43.0883" lon="1.87388">
        <ele>310</ele>
        <time>2026-05-28T12:47:42Z</time>
      </trkpt>
      <trkpt lat="43.0883" lon="1.87388">
        <ele>310</ele>
        <time>2026-05-28T12:47:47Z</time>
      </trkpt>
      <trkpt lat="43.0883" lon="1.87388">
        <ele>310</ele>
        <time>2026-05-28T12:47:52Z</time>
      </trkpt>
      <trkpt lat="43.0883" lon="1.87388">
        <ele>310</ele>
        <time>2026-05-28T12:47:57Z</time>
      </trkpt>
      <trkpt lat="43.0883" lon="1.87388">
        <ele>310</ele>
        <time>2026-05-28T12:48:02Z</time>
      </trkpt>
      <trkpt lat="43.0883" lon="1.87388">
        <ele>310</ele>
        <time>2026-05-28T12:48:07Z</time>
      </trkpt>
      <trkpt lat="43.0883" lon="1.87388">
        <ele>310</ele>
        <time>2026-05-28T12:48:12Z</time>
      </trkpt>
      <trkpt lat="43.0883" lon="1.87388">
        <ele>310</ele>
        <time>2026-05-28T12:48:17Z</time>
      </trkpt>
      <trkpt lat="43.0883" lon="1.87388">
        <ele>310</ele>
        <time>2026-05-28T12:48:22Z</time>
      </trkpt>
      <trkpt lat="43.0883" lon="1.87388">
        <ele>310</ele>
        <time>2026-05-28T12:48:27Z</time>
      </trkpt>
      <trkpt lat="43.08841" lon="1.8739">
        <ele>309.8</ele>
        <time>2026-05-28T12:48:32Z</time>
      </trkpt>
      <trkpt lat="43.08841" lon="1.8739">
        <ele>309.8</ele>
        <time>2026-05-28T12:48:37Z</time>
      </trkpt>
      <trkpt lat="43.08841" lon="1.8739">
        <ele>309.8</ele>
        <time>2026-05-28T12:48:42Z</time>
      </trkpt>
      <trkpt lat="43.08841" lon="1.8739">
        <ele>309.8</ele>
        <time>2026-05-28T12:48:47Z</time>
      </trkpt>
      <trkpt lat="43.08841" lon="1.8739">
        <ele>309.8</ele>
        <time>2026-05-28T12:48:52Z</time>
      </trkpt>
      <trkpt lat="43.08841" lon="1.8739">
        <ele>309.8</ele>
        <time>2026-05-28T12:48:57Z</time>
      </trkpt>
      <trkpt lat="43.08841" lon="1.8739">
        <ele>309.8</ele>
        <time>2026-05-28T12:49:02Z</time>
      </trkpt>
      <trkpt lat="43.08841" lon="1.8739">
        <ele>309.8</ele>
        <time>2026-05-28T12:49:07Z</time>
      </trkpt>
      <trkpt lat="43.08841" lon="1.8739">
        <ele>309.8</ele>
        <time>2026-05-28T12:49:12Z</time>
      </trkpt>
      <trkpt lat="43.08841" lon="1.8739">
        <ele>309.8</ele>
        <time>2026-05-28T12:49:17Z</time>
      </trkpt>
      <trkpt lat="43.08841" lon="1.8739">
        <ele>309.8</ele>
        <time>2026-05-28T12:49:22Z</time>
      </trkpt>
      <trkpt lat="43.08841" lon="1.8739">
        <ele>309.8</ele>
        <time>2026-05-28T12:49:27Z</time>
      </trkpt>
      <trkpt lat="43.08841" lon="1.8739">
        <ele>309.8</ele>
        <time>2026-05-28T12:49:32Z</time>
      </trkpt>
      <trkpt lat="43.08841" lon="1.8739">
        <ele>309.8</ele>
        <time>2026-05-28T12:49:37Z</time>
      </trkpt>
      <trkpt lat="43.08841" lon="1.8739">
        <ele>309.8</ele>
        <time>2026-05-28T12:49:42Z</time>
      </trkpt>
      <trkpt lat="43.08841" lon="1.8739">
        <ele>309.8</ele>
        <time>2026-05-28T12:49:47Z</time>
      </trkpt>
      <trkpt lat="43.08841" lon="1.8739">
        <ele>309.8</ele>
        <time>2026-05-28T12:49:52Z</time>
      </trkpt>
      <trkpt lat="43.08841" lon="1.8739">
        <ele>309.8</ele>
        <time>2026-05-28T12:49:57Z</time>
      </trkpt>
      <trkpt lat="43.08841" lon="1.8739">
        <ele>309.8</ele>
        <time>2026-05-28T12:50:02Z</time>
      </trkpt>
      <trkpt lat="43.08841" lon="1.8739">
        <ele>309.8</ele>
        <time>2026-05-28T12:50:07Z</time>
      </trkpt>
      <trkpt lat="43.08841" lon="1.8739">
        <ele>309.8</ele>
        <time>2026-05-28T12:50:12Z</time>
      </trkpt>
      <trkpt lat="43.08841" lon="1.8739">
        <ele>309.8</ele>
        <time>2026-05-28T12:50:17Z</time>
      </trkpt>
      <trkpt lat="43.08841" lon="1.8739">
        <ele>309.8</ele>
        <time>2026-05-28T12:50:22Z</time>
      </trkpt>
      <trkpt lat="43.08841" lon="1.8739">
        <ele>309.8</ele>
        <time>2026-05-28T12:50:27Z</time>
      </trkpt>
      <trkpt lat="43.08841" lon="1.8739">
        <ele>309.8</ele>
        <time>2026-05-28T12:50:32Z</time>
      </trkpt>
      <trkpt lat="43.08841" lon="1.8739">
        <ele>309.8</ele>
        <time>2026-05-28T12:50:37Z</time>
      </trkpt>
      <trkpt lat="43.08841" lon="1.8739">
        <ele>309.8</ele>
        <time>2026-05-28T12:50:42Z</time>
      </trkpt>
      <trkpt lat="43.08841" lon="1.8739">
        <ele>309.8</ele>
        <time>2026-05-28T12:50:47Z</time>
      </trkpt>
      <trkpt lat="43.08841" lon="1.8739">
        <ele>309.8</ele>
        <time>2026-05-28T12:50:52Z</time>
      </trkpt>
      <trkpt lat="43.08841" lon="1.8739">
        <ele>309.8</ele>
        <time>2026-05-28T12:50:57Z</time>
      </trkpt>
      <trkpt lat="43.08841" lon="1.8739">
        <ele>309.8</ele>
        <time>2026-05-28T12:51:02Z</time>
      </trkpt>
      <trkpt lat="43.08841" lon="1.8739">
        <ele>309.8</ele>
        <time>2026-05-28T12:51:07Z</time>
      </trkpt>
      <trkpt lat="43.08841" lon="1.8739">
        <ele>309.8</ele>
        <time>2026-05-28T12:51:12Z</time>
      </trkpt>
      <trkpt lat="43.08841" lon="1.8739">
        <ele>309.8</ele>
        <time>2026-05-28T12:51:17Z</time>
      </trkpt>
      <trkpt lat="43.08841" lon="1.8739">
        <ele>309.8</ele>
        <time>2026-05-28T12:51:22Z</time>
      </trkpt>
      <trkpt lat="43.08841" lon="1.8739">
        <ele>309.8</ele>
        <time>2026-05-28T12:51:27Z</time>
      </trkpt>
      <trkpt lat="43.08841" lon="1.8739">
        <ele>309.8</ele>
        <time>2026-05-28T12:51:32Z</time>
      </trkpt>
      <trkpt lat="43.08841" lon="1.8739">
        <ele>309.8</ele>
        <time>2026-05-28T12:51:37Z</time>
      </trkpt>
      <trkpt lat="43.08847" lon="1.8738">
        <ele>309.7</ele>
        <time>2026-05-28T12:51:42Z</time>
      </trkpt>
      <trkpt lat="43.08847" lon="1.87375">
        <ele>309.8</ele>
        <time>2026-05-28T12:51:47Z</time>
      </trkpt>
      <trkpt lat="43.08845" lon="1.87375">
        <ele>309.8</ele>
        <time>2026-05-28T12:51:52Z</time>
      </trkpt>
      <trkpt lat="43.0884" lon="1.8738">
        <ele>309.9</ele>
        <time>2026-05-28T12:51:57Z</time>
      </trkpt>
      <trkpt lat="43.08834" lon="1.87388">
        <ele>310</ele>
        <time>2026-05-28T12:52:02Z</time>
      </trkpt>
      <trkpt lat="43.08831" lon="1.87395">
        <ele>310</ele>
        <time>2026-05-28T12:52:07Z</time>
      </trkpt>
      <trkpt lat="43.0883" lon="1.87402">
        <ele>310</ele>
        <time>2026-05-28T12:52:12Z</time>
      </trkpt>
      <trkpt lat="43.08828" lon="1.87406">
        <ele>309.9</ele>
        <time>2026-05-28T12:52:17Z</time>
      </trkpt>
      <trkpt lat="43.08824" lon="1.87413">
        <ele>309.9</ele>
        <time>2026-05-28T12:52:22Z</time>
      </trkpt>
      <trkpt lat="43.08823" lon="1.87415">
        <ele>309.9</ele>
        <time>2026-05-28T12:52:27Z</time>
      </trkpt>
      <trkpt lat="43.0882" lon="1.87416">
        <ele>309.8</ele>
        <time>2026-05-28T12:52:32Z</time>
      </trkpt>
      <trkpt lat="43.08814" lon="1.87417">
        <ele>309.8</ele>
        <time>2026-05-28T12:52:37Z</time>
      </trkpt>
      <trkpt lat="43.08811" lon="1.87417">
        <ele>309.7</ele>
      </trkpt>
      <trkpt lat="43.08807" lon="1.87416">
        <ele>309.7</ele>
        <time>2026-05-28T12:52:42Z</time>
      </trkpt>
      <trkpt lat="43.088" lon="1.87413">
        <ele>309.6</ele>
        <time>2026-05-28T12:52:47Z</time>
      </trkpt>
      <trkpt lat="43.08792" lon="1.8741">
        <ele>309.5</ele>
        <time>2026-05-28T12:52:52Z</time>
      </trkpt>
      <trkpt lat="43.08789" lon="1.87409">
        <ele>309.5</ele>
        <time>2026-05-28T12:52:57Z</time>
      </trkpt>
      <trkpt lat="43.08787" lon="1.87409">
        <ele>309.4</ele>
        <time>2026-05-28T12:53:02Z</time>
      </trkpt>
      <trkpt lat="43.08787" lon="1.87409">
        <ele>309.4</ele>
        <time>2026-05-28T12:53:02Z</time>
      </trkpt>
      <trkpt lat="43.08816" lon="1.8741">
        <ele>309.8</ele>
        <time>2026-05-28T12:59:58Z</time>
      </trkpt>
      <trkpt lat="43.08799" lon="1.87406">
        <ele>309.6</ele>
        <time>2026-05-28T13:00:03Z</time>
      </trkpt>
      <trkpt lat="43.08799" lon="1.87406">
        <ele>309.6</ele>
        <time>2026-05-28T13:00:08Z</time>
      </trkpt>
      <trkpt lat="43.08799" lon="1.87406">
        <ele>309.6</ele>
        <time>2026-05-28T13:00:13Z</time>
      </trkpt>
      <trkpt lat="43.08804" lon="1.87412">
        <ele>309.6</ele>
        <time>2026-05-28T13:00:18Z</time>
      </trkpt>
      <trkpt lat="43.0881" lon="1.87415">
        <ele>309.7</ele>
        <time>2026-05-28T13:00:23Z</time>
      </trkpt>
      <trkpt lat="43.08815" lon="1.87416">
        <ele>309.8</ele>
        <time>2026-05-28T13:00:28Z</time>
      </trkpt>
      <trkpt lat="43.08821" lon="1.87417">
        <ele>309.9</ele>
        <time>2026-05-28T13:00:33Z</time>
      </trkpt>
      <trkpt lat="43.08829" lon="1.87416">
        <ele>309.9</ele>
        <time>2026-05-28T13:00:38Z</time>
      </trkpt>
      <trkpt lat="43.08837" lon="1.87413">
        <ele>309.9</ele>
        <time>2026-05-28T13:00:43Z</time>
      </trkpt>
      <trkpt lat="43.08846" lon="1.8741">
        <ele>309.7</ele>
        <time>2026-05-28T13:00:48Z</time>
      </trkpt>
      <trkpt lat="43.08848" lon="1.87408">
        <ele>309.7</ele>
        <time>2026-05-28T13:00:53Z</time>
      </trkpt>
      <trkpt lat="43.08849" lon="1.87408">
        <ele>309.6</ele>
        <time>2026-05-28T13:00:58Z</time>
      </trkpt>
      <trkpt lat="43.08849" lon="1.87408">
        <ele>309.6</ele>
        <time>2026-05-28T13:01:03Z</time>
      </trkpt>
      <trkpt lat="43.08849" lon="1.87408">
        <ele>309.6</ele>
        <time>2026-05-28T13:01:08Z</time>
      </trkpt>
      <trkpt lat="43.08849" lon="1.87408">
        <ele>309.6</ele>
        <time>2026-05-28T13:01:13Z</time>
      </trkpt>
      <trkpt lat="43.08849" lon="1.87408">
        <ele>309.6</ele>
        <time>2026-05-28T13:01:18Z</time>
      </trkpt>
      <trkpt lat="43.08849" lon="1.87408">
        <ele>309.6</ele>
        <time>2026-05-28T13:01:23Z</time>
      </trkpt>
      <trkpt lat="43.08849" lon="1.87408">
        <ele>309.6</ele>
        <time>2026-05-28T13:01:28Z</time>
      </trkpt>
      <trkpt lat="43.08849" lon="1.87408">
        <ele>309.6</ele>
        <time>2026-05-28T13:01:33Z</time>
      </trkpt>
      <trkpt lat="43.08846" lon="1.87407">
        <ele>309.7</ele>
        <time>2026-05-28T13:01:38Z</time>
      </trkpt>
      <trkpt lat="43.08842" lon="1.8741">
        <ele>309.8</ele>
        <time>2026-05-28T13:01:43Z</time>
      </trkpt>
      <trkpt lat="43.08839" lon="1.87414">
        <ele>309.9</ele>
        <time>2026-05-28T13:01:48Z</time>
      </trkpt>
      <trkpt lat="43.08838" lon="1.87415">
        <ele>309.9</ele>
        <time>2026-05-28T13:01:53Z</time>
      </trkpt>
      <trkpt lat="43.08838" lon="1.87415">
        <ele>309.9</ele>
        <time>2026-05-28T13:01:58Z</time>
      </trkpt>
      <trkpt lat="43.08838" lon="1.87415">
        <ele>309.9</ele>
        <time>2026-05-28T13:02:03Z</time>
      </trkpt>
      <trkpt lat="43.08838" lon="1.87415">
        <ele>309.9</ele>
        <time>2026-05-28T13:02:08Z</time>
      </trkpt>
      <trkpt lat="43.08838" lon="1.87415">
        <ele>309.9</ele>
        <time>2026-05-28T13:02:13Z</time>
      </trkpt>
      <trkpt lat="43.08838" lon="1.87415">
        <ele>309.9</ele>
        <time>2026-05-28T13:02:18Z</time>
      </trkpt>
      <trkpt lat="43.08838" lon="1.87415">
        <ele>309.9</ele>
        <time>2026-05-28T13:02:23Z</time>
      </trkpt>
      <trkpt lat="43.08838" lon="1.87415">
        <ele>309.9</ele>
        <time>2026-05-28T13:02:28Z</time>
      </trkpt>
      <trkpt lat="43.08838" lon="1.87415">
        <ele>309.9</ele>
        <time>2026-05-28T13:02:33Z</time>
      </trkpt>
      <trkpt lat="43.08838" lon="1.87415">
        <ele>309.9</ele>
        <time>2026-05-28T13:02:38Z</time>
      </trkpt>
      <trkpt lat="43.08833" lon="1.87405">
        <ele>310</ele>
        <time>2026-05-28T13:02:43Z</time>
      </trkpt>
      <trkpt lat="43.08833" lon="1.87405">
        <ele>310</ele>
        <time>2026-05-28T13:02:48Z</time>
      </trkpt>
      <trkpt lat="43.08833" lon="1.87405">
        <ele>310</ele>
        <time>2026-05-28T13:02:53Z</time>
      </trkpt>
      <trkpt lat="43.08833" lon="1.87405">
        <ele>310</ele>
        <time>2026-05-28T13:02:58Z</time>
      </trkpt>
      <trkpt lat="43.08833" lon="1.87405">
        <ele>310</ele>
        <time>2026-05-28T13:03:03Z</time>
      </trkpt>
      <trkpt lat="43.08833" lon="1.87405">
        <ele>310</ele>
        <time>2026-05-28T13:03:08Z</time>
      </trkpt>
      <trkpt lat="43.08833" lon="1.87405">
        <ele>310</ele>
        <time>2026-05-28T13:03:13Z</time>
      </trkpt>
      <trkpt lat="43.08833" lon="1.87405">
        <ele>310</ele>
        <time>2026-05-28T13:03:18Z</time>
      </trkpt>
      <trkpt lat="43.08833" lon="1.87405">
        <ele>310</ele>
        <time>2026-05-28T13:03:23Z</time>
      </trkpt>
      <trkpt lat="43.08833" lon="1.87405">
        <ele>310</ele>
        <time>2026-05-28T13:03:28Z</time>
      </trkpt>
      <trkpt lat="43.08833" lon="1.87405">
        <ele>310</ele>
        <time>2026-05-28T13:03:33Z</time>
      </trkpt>
      <trkpt lat="43.08833" lon="1.87405">
        <ele>310</ele>
        <time>2026-05-28T13:03:38Z</time>
      </trkpt>
      <trkpt lat="43.08833" lon="1.87405">
        <ele>310</ele>
        <time>2026-05-28T13:03:43Z</time>
      </trkpt>
      <trkpt lat="43.08833" lon="1.87405">
        <ele>310</ele>
        <time>2026-05-28T13:03:48Z</time>
      </trkpt>
      <trkpt lat="43.08833" lon="1.87405">
        <ele>310</ele>
        <time>2026-05-28T13:03:53Z</time>
      </trkpt>
      <trkpt lat="43.08833" lon="1.87405">
        <ele>310</ele>
        <time>2026-05-28T13:03:58Z</time>
      </trkpt>
      <trkpt lat="43.08833" lon="1.87405">
        <ele>310</ele>
        <time>2026-05-28T13:04:03Z</time>
      </trkpt>
      <trkpt lat="43.08833" lon="1.87405">
        <ele>310</ele>
        <time>2026-05-28T13:04:08Z</time>
      </trkpt>
      <trkpt lat="43.08833" lon="1.87405">
        <ele>310</ele>
        <time>2026-05-28T13:04:13Z</time>
      </trkpt>
      <trkpt lat="43.08833" lon="1.87405">
        <ele>310</ele>
        <time>2026-05-28T13:04:18Z</time>
      </trkpt>
      <trkpt lat="43.08833" lon="1.87405">
        <ele>310</ele>
        <time>2026-05-28T13:04:23Z</time>
      </trkpt>
      <trkpt lat="43.08833" lon="1.87405">
        <ele>310</ele>
        <time>2026-05-28T13:04:28Z</time>
      </trkpt>
      <trkpt lat="43.08833" lon="1.87405">
        <ele>310</ele>
        <time>2026-05-28T13:04:33Z</time>
      </trkpt>
      <trkpt lat="43.08833" lon="1.87405">
        <ele>310</ele>
        <time>2026-05-28T13:04:38Z</time>
      </trkpt>
      <trkpt lat="43.08833" lon="1.87405">
        <ele>310</ele>
        <time>2026-05-28T13:04:43Z</time>
      </trkpt>
      <trkpt lat="43.08833" lon="1.87405">
        <ele>310</ele>
        <time>2026-05-28T13:04:48Z</time>
      </trkpt>
      <trkpt lat="43.08833" lon="1.87405">
        <ele>310</ele>
        <time>2026-05-28T13:04:53Z</time>
      </trkpt>
      <trkpt lat="43.08833" lon="1.87405">
        <ele>310</ele>
        <time>2026-05-28T13:04:58Z</time>
      </trkpt>
      <trkpt lat="43.08833" lon="1.87405">
        <ele>310</ele>
        <time>2026-05-28T13:05:03Z</time>
      </trkpt>
      <trkpt lat="43.08833" lon="1.87405">
        <ele>310</ele>
        <time>2026-05-28T13:05:08Z</time>
      </trkpt>
      <trkpt lat="43.08833" lon="1.87405">
        <ele>310</ele>
        <time>2026-05-28T13:05:13Z</time>
      </trkpt>
      <trkpt lat="43.08833" lon="1.87405">
        <ele>310</ele>
        <time>2026-05-28T13:05:18Z</time>
      </trkpt>
      <trkpt lat="43.08833" lon="1.87405">
        <ele>310</ele>
        <time>2026-05-28T13:05:23Z</time>
      </trkpt>
      <trkpt lat="43.08833" lon="1.87405">
        <ele>310</ele>
        <time>2026-05-28T13:05:28Z</time>
      </trkpt>
      <trkpt lat="43.08833" lon="1.87405">
        <ele>310</ele>
        <time>2026-05-28T13:05:33Z</time>
      </trkpt>
      <trkpt lat="43.08833" lon="1.87405">
        <ele>310</ele>
        <time>2026-05-28T13:05:38Z</time>
      </trkpt>
      <trkpt lat="43.08839" lon="1.87407">
        <ele>309.9</ele>
        <time>2026-05-28T13:05:43Z</time>
      </trkpt>
      <trkpt lat="43.0884" lon="1.87407">
        <ele>309.8</ele>
        <time>2026-05-28T13:05:48Z</time>
      </trkpt>
      <trkpt lat="43.08845" lon="1.87406">
        <ele>309.7</ele>
        <time>2026-05-28T13:05:53Z</time>
      </trkpt>
      <trkpt lat="43.08847" lon="1.87405">
        <ele>309.7</ele>
        <time>2026-05-28T13:05:58Z</time>
      </trkpt>
      <trkpt lat="43.08847" lon="1.87403">
        <ele>309.7</ele>
        <time>2026-05-28T13:06:03Z</time>
      </trkpt>
      <trkpt lat="43.08847" lon="1.87403">
        <ele>309.7</ele>
        <time>2026-05-28T13:06:08Z</time>
      </trkpt>
      <trkpt lat="43.08847" lon="1.87403">
        <ele>309.7</ele>
        <time>2026-05-28T13:06:13Z</time>
      </trkpt>
      <trkpt lat="43.08847" lon="1.87403">
        <ele>309.7</ele>
        <time>2026-05-28T13:06:18Z</time>
      </trkpt>
      <trkpt lat="43.08847" lon="1.87403">
        <ele>309.7</ele>
        <time>2026-05-28T13:06:23Z</time>
      </trkpt>
      <trkpt lat="43.08847" lon="1.87403">
        <ele>309.7</ele>
        <time>2026-05-28T13:06:28Z</time>
      </trkpt>
      <trkpt lat="43.08837" lon="1.87408">
        <ele>309.9</ele>
        <time>2026-05-28T13:06:33Z</time>
      </trkpt>
      <trkpt lat="43.08833" lon="1.87406">
        <ele>310</ele>
        <time>2026-05-28T13:06:38Z</time>
      </trkpt>
      <trkpt lat="43.08832" lon="1.87409">
        <ele>310</ele>
        <time>2026-05-28T13:06:43Z</time>
      </trkpt>
      <trkpt lat="43.08831" lon="1.87409">
        <ele>310</ele>
        <time>2026-05-28T13:06:48Z</time>
      </trkpt>
      <trkpt lat="43.08832" lon="1.87409">
        <ele>310</ele>
        <time>2026-05-28T13:06:53Z</time>
      </trkpt>
      <trkpt lat="43.08832" lon="1.87409">
        <ele>310</ele>
        <time>2026-05-28T13:06:58Z</time>
      </trkpt>
      <trkpt lat="43.08832" lon="1.87409">
        <ele>310</ele>
        <time>2026-05-28T13:07:03Z</time>
      </trkpt>
      <trkpt lat="43.08832" lon="1.87409">
        <ele>310</ele>
        <time>2026-05-28T13:07:08Z</time>
      </trkpt>
      <trkpt lat="43.08832" lon="1.87409">
        <ele>310</ele>
        <time>2026-05-28T13:07:13Z</time>
      </trkpt>
      <trkpt lat="43.08832" lon="1.87409">
        <ele>310</ele>
        <time>2026-05-28T13:07:18Z</time>
      </trkpt>
      <trkpt lat="43.08832" lon="1.87409">
        <ele>310</ele>
        <time>2026-05-28T13:07:23Z</time>
      </trkpt>
      <trkpt lat="43.08832" lon="1.87409">
        <ele>310</ele>
        <time>2026-05-28T13:07:28Z</time>
      </trkpt>
      <trkpt lat="43.08832" lon="1.87409">
        <ele>310</ele>
        <time>2026-05-28T13:07:33Z</time>
      </trkpt>
      <trkpt lat="43.08832" lon="1.87409">
        <ele>310</ele>
        <time>2026-05-28T13:07:38Z</time>
      </trkpt>
      <trkpt lat="43.08832" lon="1.87409">
        <ele>310</ele>
        <time>2026-05-28T13:07:43Z</time>
      </trkpt>
      <trkpt lat="43.08832" lon="1.87409">
        <ele>310</ele>
        <time>2026-05-28T13:07:48Z</time>
      </trkpt>
      <trkpt lat="43.08832" lon="1.87409">
        <ele>310</ele>
        <time>2026-05-28T13:07:53Z</time>
      </trkpt>
      <trkpt lat="43.08832" lon="1.87409">
        <ele>310</ele>
        <time>2026-05-28T13:07:58Z</time>
      </trkpt>
      <trkpt lat="43.08832" lon="1.87409">
        <ele>310</ele>
        <time>2026-05-28T13:08:03Z</time>
      </trkpt>
      <trkpt lat="43.08832" lon="1.87409">
        <ele>310</ele>
        <time>2026-05-28T13:08:08Z</time>
      </trkpt>
      <trkpt lat="43.08832" lon="1.87409">
        <ele>310</ele>
        <time>2026-05-28T13:08:13Z</time>
      </trkpt>
      <trkpt lat="43.08832" lon="1.87409">
        <ele>310</ele>
        <time>2026-05-28T13:08:18Z</time>
      </trkpt>
      <trkpt lat="43.08832" lon="1.87409">
        <ele>310</ele>
        <time>2026-05-28T13:08:23Z</time>
      </trkpt>
      <trkpt lat="43.08832" lon="1.87409">
        <ele>310</ele>
        <time>2026-05-28T13:08:28Z</time>
      </trkpt>
      <trkpt lat="43.08832" lon="1.87409">
        <ele>310</ele>
        <time>2026-05-28T13:08:33Z</time>
      </trkpt>
      <trkpt lat="43.08832" lon="1.87409">
        <ele>310</ele>
        <time>2026-05-28T13:08:38Z</time>
      </trkpt>
      <trkpt lat="43.08832" lon="1.87409">
        <ele>310</ele>
        <time>2026-05-28T13:08:43Z</time>
      </trkpt>
      <trkpt lat="43.08832" lon="1.87409">
        <ele>310</ele>
        <time>2026-05-28T13:08:48Z</time>
      </trkpt>
      <trkpt lat="43.08832" lon="1.87409">
        <ele>310</ele>
        <time>2026-05-28T13:08:53Z</time>
      </trkpt>
      <trkpt lat="43.08832" lon="1.87409">
        <ele>310</ele>
        <time>2026-05-28T13:08:58Z</time>
      </trkpt>
      <trkpt lat="43.08832" lon="1.87409">
        <ele>310</ele>
        <time>2026-05-28T13:09:03Z</time>
      </trkpt>
      <trkpt lat="43.08843" lon="1.87412">
        <ele>309.8</ele>
        <time>2026-05-28T13:09:08Z</time>
      </trkpt>
      <trkpt lat="43.08843" lon="1.87412">
        <ele>309.8</ele>
        <time>2026-05-28T13:09:13Z</time>
      </trkpt>
      <trkpt lat="43.08843" lon="1.87412">
        <ele>309.8</ele>
        <time>2026-05-28T13:09:18Z</time>
      </trkpt>
      <trkpt lat="43.08843" lon="1.87412">
        <ele>309.8</ele>
        <time>2026-05-28T13:09:23Z</time>
      </trkpt>
      <trkpt lat="43.08843" lon="1.87412">
        <ele>309.8</ele>
        <time>2026-05-28T13:09:28Z</time>
      </trkpt>
      <trkpt lat="43.08843" lon="1.87412">
        <ele>309.8</ele>
        <time>2026-05-28T13:09:33Z</time>
      </trkpt>
      <trkpt lat="43.08851" lon="1.87415">
        <ele>309.6</ele>
        <time>2026-05-28T13:09:38Z</time>
      </trkpt>
      <trkpt lat="43.08853" lon="1.87415">
        <ele>309.5</ele>
        <time>2026-05-28T13:09:43Z</time>
      </trkpt>
      <trkpt lat="43.08858" lon="1.87414">
        <ele>309.4</ele>
        <time>2026-05-28T13:09:48Z</time>
      </trkpt>
      <trkpt lat="43.08851" lon="1.87414">
        <ele>309.6</ele>
        <time>2026-05-28T13:09:53Z</time>
      </trkpt>
      <trkpt lat="43.08843" lon="1.87415">
        <ele>309.8</ele>
        <time>2026-05-28T13:09:58Z</time>
      </trkpt>
      <trkpt lat="43.08841" lon="1.87415">
        <ele>309.8</ele>
        <time>2026-05-28T13:10:03Z</time>
      </trkpt>
      <trkpt lat="43.08841" lon="1.87415">
        <ele>309.8</ele>
        <time>2026-05-28T13:10:08Z</time>
      </trkpt>
      <trkpt lat="43.08841" lon="1.87415">
        <ele>309.8</ele>
        <time>2026-05-28T13:10:13Z</time>
      </trkpt>
      <trkpt lat="43.08841" lon="1.87415">
        <ele>309.8</ele>
        <time>2026-05-28T13:10:18Z</time>
      </trkpt>
      <trkpt lat="43.08841" lon="1.87415">
        <ele>309.8</ele>
        <time>2026-05-28T13:10:23Z</time>
      </trkpt>
      <trkpt lat="43.08841" lon="1.87415">
        <ele>309.8</ele>
        <time>2026-05-28T13:10:28Z</time>
      </trkpt>
      <trkpt lat="43.08841" lon="1.87415">
        <ele>309.8</ele>
        <time>2026-05-28T13:10:33Z</time>
      </trkpt>
      <trkpt lat="43.08841" lon="1.87415">
        <ele>309.8</ele>
        <time>2026-05-28T13:10:38Z</time>
      </trkpt>
      <trkpt lat="43.08841" lon="1.87415">
        <ele>309.8</ele>
        <time>2026-05-28T13:10:43Z</time>
      </trkpt>
      <trkpt lat="43.08841" lon="1.87415">
        <ele>309.8</ele>
        <time>2026-05-28T13:10:48Z</time>
      </trkpt>
      <trkpt lat="43.08841" lon="1.87415">
        <ele>309.8</ele>
        <time>2026-05-28T13:10:53Z</time>
      </trkpt>
      <trkpt lat="43.08841" lon="1.87415">
        <ele>309.8</ele>
        <time>2026-05-28T13:10:58Z</time>
      </trkpt>
      <trkpt lat="43.08841" lon="1.87415">
        <ele>309.8</ele>
        <time>2026-05-28T13:11:03Z</time>
      </trkpt>
      <trkpt lat="43.08841" lon="1.87415">
        <ele>309.8</ele>
        <time>2026-05-28T13:11:08Z</time>
      </trkpt>
      <trkpt lat="43.08841" lon="1.87415">
        <ele>309.8</ele>
        <time>2026-05-28T13:11:13Z</time>
      </trkpt>
      <trkpt lat="43.08841" lon="1.87415">
        <ele>309.8</ele>
        <time>2026-05-28T13:11:18Z</time>
      </trkpt>
      <trkpt lat="43.08841" lon="1.87415">
        <ele>309.8</ele>
        <time>2026-05-28T13:11:23Z</time>
      </trkpt>
      <trkpt lat="43.08841" lon="1.87415">
        <ele>309.8</ele>
        <time>2026-05-28T13:11:28Z</time>
      </trkpt>
      <trkpt lat="43.08841" lon="1.87415">
        <ele>309.8</ele>
        <time>2026-05-28T13:11:33Z</time>
      </trkpt>
      <trkpt lat="43.08841" lon="1.87415">
        <ele>309.8</ele>
        <time>2026-05-28T13:11:38Z</time>
      </trkpt>
      <trkpt lat="43.08841" lon="1.87415">
        <ele>309.8</ele>
        <time>2026-05-28T13:11:43Z</time>
      </trkpt>
      <trkpt lat="43.08841" lon="1.87415">
        <ele>309.8</ele>
        <time>2026-05-28T13:11:48Z</time>
      </trkpt>
      <trkpt lat="43.08841" lon="1.87415">
        <ele>309.8</ele>
        <time>2026-05-28T13:11:53Z</time>
      </trkpt>
      <trkpt lat="43.08841" lon="1.87415">
        <ele>309.8</ele>
        <time>2026-05-28T13:11:58Z</time>
      </trkpt>
      <trkpt lat="43.08841" lon="1.87415">
        <ele>309.8</ele>
        <time>2026-05-28T13:12:03Z</time>
      </trkpt>
      <trkpt lat="43.08841" lon="1.87415">
        <ele>309.8</ele>
        <time>2026-05-28T13:12:08Z</time>
      </trkpt>
      <trkpt lat="43.08841" lon="1.87415">
        <ele>309.8</ele>
        <time>2026-05-28T13:12:13Z</time>
      </trkpt>
      <trkpt lat="43.08841" lon="1.87415">
        <ele>309.8</ele>
        <time>2026-05-28T13:12:18Z</time>
      </trkpt>
      <trkpt lat="43.08841" lon="1.87415">
        <ele>309.8</ele>
        <time>2026-05-28T13:12:23Z</time>
      </trkpt>
      <trkpt lat="43.08841" lon="1.87415">
        <ele>309.8</ele>
        <time>2026-05-28T13:12:28Z</time>
      </trkpt>
      <trkpt lat="43.08841" lon="1.87415">
        <ele>309.8</ele>
        <time>2026-05-28T13:12:33Z</time>
      </trkpt>
      <trkpt lat="43.08841" lon="1.87415">
        <ele>309.8</ele>
        <time>2026-05-28T13:12:38Z</time>
      </trkpt>
      <trkpt lat="43.08841" lon="1.87415">
        <ele>309.8</ele>
        <time>2026-05-28T13:12:43Z</time>
      </trkpt>
      <trkpt lat="43.08841" lon="1.87415">
        <ele>309.8</ele>
        <time>2026-05-28T13:12:48Z</time>
      </trkpt>
      <trkpt lat="43.08841" lon="1.87415">
        <ele>309.8</ele>
        <time>2026-05-28T13:12:53Z</time>
      </trkpt>
      <trkpt lat="43.08841" lon="1.87415">
        <ele>309.8</ele>
        <time>2026-05-28T13:12:58Z</time>
      </trkpt>
      <trkpt lat="43.08841" lon="1.87415">
        <ele>309.8</ele>
        <time>2026-05-28T13:13:03Z</time>
      </trkpt>
      <trkpt lat="43.08841" lon="1.87415">
        <ele>309.8</ele>
        <time>2026-05-28T13:13:08Z</time>
      </trkpt>
      <trkpt lat="43.08841" lon="1.87415">
        <ele>309.8</ele>
        <time>2026-05-28T13:13:13Z</time>
      </trkpt>
      <trkpt lat="43.08841" lon="1.87415">
        <ele>309.8</ele>
        <time>2026-05-28T13:13:18Z</time>
      </trkpt>
      <trkpt lat="43.08841" lon="1.87415">
        <ele>309.8</ele>
        <time>2026-05-28T13:13:23Z</time>
      </trkpt>
      <trkpt lat="43.08841" lon="1.87415">
        <ele>309.8</ele>
        <time>2026-05-28T13:13:28Z</time>
      </trkpt>
      <trkpt lat="43.08841" lon="1.87415">
        <ele>309.8</ele>
        <time>2026-05-28T13:13:33Z</time>
      </trkpt>
      <trkpt lat="43.08841" lon="1.87415">
        <ele>309.8</ele>
        <time>2026-05-28T13:13:38Z</time>
      </trkpt>
      <trkpt lat="43.08841" lon="1.87415">
        <ele>309.8</ele>
        <time>2026-05-28T13:13:43Z</time>
      </trkpt>
      <trkpt lat="43.08841" lon="1.87415">
        <ele>309.8</ele>
        <time>2026-05-28T13:13:48Z</time>
      </trkpt>
      <trkpt lat="43.08841" lon="1.87415">
        <ele>309.8</ele>
        <time>2026-05-28T13:13:53Z</time>
      </trkpt>
      <trkpt lat="43.08841" lon="1.87415">
        <ele>309.8</ele>
        <time>2026-05-28T13:13:58Z</time>
      </trkpt>
      <trkpt lat="43.08841" lon="1.87415">
        <ele>309.8</ele>
        <time>2026-05-28T13:14:03Z</time>
      </trkpt>
      <trkpt lat="43.08841" lon="1.87415">
        <ele>309.8</ele>
        <time>2026-05-28T13:14:08Z</time>
      </trkpt>
      <trkpt lat="43.08841" lon="1.87415">
        <ele>309.8</ele>
        <time>2026-05-28T13:14:13Z</time>
      </trkpt>
      <trkpt lat="43.08841" lon="1.87415">
        <ele>309.8</ele>
        <time>2026-05-28T13:14:18Z</time>
      </trkpt>
      <trkpt lat="43.08841" lon="1.87415">
        <ele>309.8</ele>
        <time>2026-05-28T13:14:23Z</time>
      </trkpt>
      <trkpt lat="43.08841" lon="1.87415">
        <ele>309.8</ele>
        <time>2026-05-28T13:14:28Z</time>
      </trkpt>
      <trkpt lat="43.08841" lon="1.87415">
        <ele>309.8</ele>
        <time>2026-05-28T13:14:33Z</time>
      </trkpt>
      <trkpt lat="43.08841" lon="1.87415">
        <ele>309.8</ele>
        <time>2026-05-28T13:14:38Z</time>
      </trkpt>
      <trkpt lat="43.08841" lon="1.87415">
        <ele>309.8</ele>
        <time>2026-05-28T13:14:43Z</time>
      </trkpt>
      <trkpt lat="43.08841" lon="1.87415">
        <ele>309.8</ele>
        <time>2026-05-28T13:14:48Z</time>
      </trkpt>
      <trkpt lat="43.08841" lon="1.87415">
        <ele>309.8</ele>
        <time>2026-05-28T13:14:53Z</time>
      </trkpt>
      <trkpt lat="43.08841" lon="1.87415">
        <ele>309.8</ele>
        <time>2026-05-28T13:14:58Z</time>
      </trkpt>
      <trkpt lat="43.08841" lon="1.87415">
        <ele>309.8</ele>
        <time>2026-05-28T13:15:03Z</time>
      </trkpt>
      <trkpt lat="43.08841" lon="1.87415">
        <ele>309.8</ele>
        <time>2026-05-28T13:15:08Z</time>
      </trkpt>
      <trkpt lat="43.08841" lon="1.87415">
        <ele>309.8</ele>
        <time>2026-05-28T13:15:13Z</time>
      </trkpt>
      <trkpt lat="43.08841" lon="1.87415">
        <ele>309.8</ele>
        <time>2026-05-28T13:15:18Z</time>
      </trkpt>
      <trkpt lat="43.08841" lon="1.87415">
        <ele>309.8</ele>
        <time>2026-05-28T13:15:23Z</time>
      </trkpt>
      <trkpt lat="43.08841" lon="1.87415">
        <ele>309.8</ele>
        <time>2026-05-28T13:15:28Z</time>
      </trkpt>
      <trkpt lat="43.08841" lon="1.87415">
        <ele>309.8</ele>
        <time>2026-05-28T13:15:33Z</time>
      </trkpt>
      <trkpt lat="43.08841" lon="1.87415">
        <ele>309.8</ele>
        <time>2026-05-28T13:15:38Z</time>
      </trkpt>
      <trkpt lat="43.08841" lon="1.87415">
        <ele>309.8</ele>
        <time>2026-05-28T13:15:43Z</time>
      </trkpt>
      <trkpt lat="43.08841" lon="1.87415">
        <ele>309.8</ele>
        <time>2026-05-28T13:15:48Z</time>
      </trkpt>
      <trkpt lat="43.08841" lon="1.87415">
        <ele>309.8</ele>
        <time>2026-05-28T13:15:53Z</time>
      </trkpt>
      <trkpt lat="43.08841" lon="1.87415">
        <ele>309.8</ele>
        <time>2026-05-28T13:15:58Z</time>
      </trkpt>
      <trkpt lat="43.08841" lon="1.87415">
        <ele>309.8</ele>
        <time>2026-05-28T13:16:03Z</time>
      </trkpt>
      <trkpt lat="43.08841" lon="1.87415">
        <ele>309.8</ele>
        <time>2026-05-28T13:16:08Z</time>
      </trkpt>
      <trkpt lat="43.08841" lon="1.87415">
        <ele>309.8</ele>
        <time>2026-05-28T13:16:13Z</time>
      </trkpt>
      <trkpt lat="43.08841" lon="1.87415">
        <ele>309.8</ele>
        <time>2026-05-28T13:16:18Z</time>
      </trkpt>
      <trkpt lat="43.08841" lon="1.87415">
        <ele>309.8</ele>
        <time>2026-05-28T13:16:23Z</time>
      </trkpt>
      <trkpt lat="43.08841" lon="1.87415">
        <ele>309.8</ele>
        <time>2026-05-28T13:16:28Z</time>
      </trkpt>
      <trkpt lat="43.08841" lon="1.87415">
        <ele>309.8</ele>
        <time>2026-05-28T13:16:33Z</time>
      </trkpt>
      <trkpt lat="43.08841" lon="1.87415">
        <ele>309.8</ele>
        <time>2026-05-28T13:16:38Z</time>
      </trkpt>
      <trkpt lat="43.08841" lon="1.87415">
        <ele>309.8</ele>
        <time>2026-05-28T13:16:43Z</time>
      </trkpt>
      <trkpt lat="43.08841" lon="1.87415">
        <ele>309.8</ele>
        <time>2026-05-28T13:16:48Z</time>
      </trkpt>
      <trkpt lat="43.08841" lon="1.87415">
        <ele>309.8</ele>
        <time>2026-05-28T13:16:53Z</time>
      </trkpt>
      <trkpt lat="43.08841" lon="1.87415">
        <ele>309.8</ele>
        <time>2026-05-28T13:16:58Z</time>
      </trkpt>
      <trkpt lat="43.08841" lon="1.87415">
        <ele>309.8</ele>
        <time>2026-05-28T13:17:03Z</time>
      </trkpt>
      <trkpt lat="43.08841" lon="1.87415">
        <ele>309.8</ele>
        <time>2026-05-28T13:17:08Z</time>
      </trkpt>
      <trkpt lat="43.08841" lon="1.87415">
        <ele>309.8</ele>
        <time>2026-05-28T13:17:13Z</time>
      </trkpt>
      <trkpt lat="43.08841" lon="1.87415">
        <ele>309.8</ele>
        <time>2026-05-28T13:17:18Z</time>
      </trkpt>
      <trkpt lat="43.08841" lon="1.87415">
        <ele>309.8</ele>
        <time>2026-05-28T13:17:23Z</time>
      </trkpt>
      <trkpt lat="43.08841" lon="1.87415">
        <ele>309.8</ele>
        <time>2026-05-28T13:17:28Z</time>
      </trkpt>
      <trkpt lat="43.08841" lon="1.87415">
        <ele>309.8</ele>
        <time>2026-05-28T13:17:33Z</time>
      </trkpt>
      <trkpt lat="43.08841" lon="1.87415">
        <ele>309.8</ele>
        <time>2026-05-28T13:17:38Z</time>
      </trkpt>
      <trkpt lat="43.08841" lon="1.87415">
        <ele>309.8</ele>
        <time>2026-05-28T13:17:43Z</time>
      </trkpt>
      <trkpt lat="43.08841" lon="1.87415">
        <ele>309.8</ele>
        <time>2026-05-28T13:17:48Z</time>
      </trkpt>
      <trkpt lat="43.08841" lon="1.87415">
        <ele>309.8</ele>
        <time>2026-05-28T13:17:53Z</time>
      </trkpt>
      <trkpt lat="43.08841" lon="1.87415">
        <ele>309.8</ele>
        <time>2026-05-28T13:17:58Z</time>
      </trkpt>
      <trkpt lat="43.0884" lon="1.87419">
        <ele>309.8</ele>
        <time>2026-05-28T13:18:03Z</time>
      </trkpt>
      <trkpt lat="43.08842" lon="1.87424">
        <ele>309.8</ele>
        <time>2026-05-28T13:18:08Z</time>
      </trkpt>
      <trkpt lat="43.08844" lon="1.87431">
        <ele>309.8</ele>
        <time>2026-05-28T13:18:13Z</time>
      </trkpt>
      <trkpt lat="43.08846" lon="1.87439">
        <ele>309.8</ele>
        <time>2026-05-28T13:18:18Z</time>
      </trkpt>
      <trkpt lat="43.08847" lon="1.87446">
        <ele>309.8</ele>
        <time>2026-05-28T13:18:23Z</time>
      </trkpt>
      <trkpt lat="43.08847" lon="1.87452">
        <ele>309.8</ele>
        <time>2026-05-28T13:18:28Z</time>
      </trkpt>
      <trkpt lat="43.08847" lon="1.87459">
        <ele>309.8</ele>
        <time>2026-05-28T13:18:33Z</time>
      </trkpt>
      <trkpt lat="43.08847" lon="1.87467">
        <ele>309.9</ele>
        <time>2026-05-28T13:18:38Z</time>
      </trkpt>
      <trkpt lat="43.08846" lon="1.87475">
        <ele>309.9</ele>
        <time>2026-05-28T13:18:43Z</time>
      </trkpt>
      <trkpt lat="43.08846" lon="1.87484">
        <ele>309.9</ele>
        <time>2026-05-28T13:18:48Z</time>
      </trkpt>
      <trkpt lat="43.08844" lon="1.87485">
        <ele>310</ele>
        <time>2026-05-28T13:18:53Z</time>
      </trkpt>
      <trkpt lat="43.08836" lon="1.87486">
        <ele>310</ele>
        <time>2026-05-28T13:18:58Z</time>
      </trkpt>
      <trkpt lat="43.08829" lon="1.87488">
        <ele>309.9</ele>
        <time>2026-05-28T13:19:03Z</time>
      </trkpt>
      <trkpt lat="43.08824" lon="1.87487">
        <ele>309.7</ele>
        <time>2026-05-28T13:19:08Z</time>
      </trkpt>
      <trkpt lat="43.08817" lon="1.87486">
        <ele>309.5</ele>
        <time>2026-05-28T13:19:13Z</time>
      </trkpt>
      <trkpt lat="43.08811" lon="1.87488">
        <ele>309.3</ele>
        <time>2026-05-28T13:19:18Z</time>
      </trkpt>
      <trkpt lat="43.08805" lon="1.87489">
        <ele>309.1</ele>
        <time>2026-05-28T13:19:23Z</time>
      </trkpt>
      <trkpt lat="43.08801" lon="1.87488">
        <ele>308.9</ele>
        <time>2026-05-28T13:19:28Z</time>
      </trkpt>
      <trkpt lat="43.088" lon="1.87487">
        <ele>308.9</ele>
        <time>2026-05-28T13:19:33Z</time>
      </trkpt>
      <trkpt lat="43.08798" lon="1.8749">
        <ele>308.8</ele>
        <time>2026-05-28T13:19:38Z</time>
      </trkpt>
      <trkpt lat="43.08797" lon="1.87497">
        <ele>308.7</ele>
        <time>2026-05-28T13:19:43Z</time>
      </trkpt>
      <trkpt lat="43.08797" lon="1.87506">
        <ele>308.7</ele>
        <time>2026-05-28T13:19:48Z</time>
      </trkpt>
      <trkpt lat="43.08797" lon="1.87515">
        <ele>308.7</ele>
        <time>2026-05-28T13:19:53Z</time>
      </trkpt>
      <trkpt lat="43.08797" lon="1.87523">
        <ele>308.7</ele>
        <time>2026-05-28T13:19:58Z</time>
      </trkpt>
      <trkpt lat="43.08797" lon="1.87529">
        <ele>308.6</ele>
        <time>2026-05-28T13:20:03Z</time>
      </trkpt>
      <trkpt lat="43.08797" lon="1.8754">
        <ele>308.6</ele>
        <time>2026-05-28T13:20:08Z</time>
      </trkpt>
      <trkpt lat="43.08797" lon="1.87547">
        <ele>308.6</ele>
        <time>2026-05-28T13:20:13Z</time>
      </trkpt>
      <trkpt lat="43.08798" lon="1.87554">
        <ele>308.6</ele>
        <time>2026-05-28T13:20:18Z</time>
      </trkpt>
      <trkpt lat="43.088" lon="1.87561">
        <ele>308.7</ele>
        <time>2026-05-28T13:20:23Z</time>
      </trkpt>
      <trkpt lat="43.08802" lon="1.87568">
        <ele>308.7</ele>
        <time>2026-05-28T13:20:28Z</time>
      </trkpt>
      <trkpt lat="43.08802" lon="1.87574">
        <ele>308.7</ele>
        <time>2026-05-28T13:20:33Z</time>
      </trkpt>
      <trkpt lat="43.08802" lon="1.87584">
        <ele>308.6</ele>
        <time>2026-05-28T13:20:38Z</time>
      </trkpt>
      <trkpt lat="43.088" lon="1.87595">
        <ele>308.4</ele>
        <time>2026-05-28T13:20:43Z</time>
      </trkpt>
      <trkpt lat="43.08799" lon="1.87605">
        <ele>308.2</ele>
        <time>2026-05-28T13:20:48Z</time>
      </trkpt>
      <trkpt lat="43.08798" lon="1.87612">
        <ele>308</ele>
        <time>2026-05-28T13:20:53Z</time>
      </trkpt>
      <trkpt lat="43.08798" lon="1.87617">
        <ele>307.9</ele>
        <time>2026-05-28T13:20:58Z</time>
      </trkpt>
      <trkpt lat="43.08797" lon="1.87624">
        <ele>307.8</ele>
        <time>2026-05-28T13:21:03Z</time>
      </trkpt>
      <trkpt lat="43.08797" lon="1.8763">
        <ele>307.7</ele>
        <time>2026-05-28T13:21:08Z</time>
      </trkpt>
      <trkpt lat="43.08797" lon="1.8764">
        <ele>307.5</ele>
        <time>2026-05-28T13:21:13Z</time>
      </trkpt>
      <trkpt lat="43.08798" lon="1.87649">
        <ele>307.3</ele>
        <time>2026-05-28T13:21:18Z</time>
      </trkpt>
      <trkpt lat="43.08802" lon="1.87658">
        <ele>307.2</ele>
        <time>2026-05-28T13:21:23Z</time>
      </trkpt>
      <trkpt lat="43.08803" lon="1.87666">
        <ele>307</ele>
        <time>2026-05-28T13:21:28Z</time>
      </trkpt>
      <trkpt lat="43.08802" lon="1.87674">
        <ele>306.9</ele>
        <time>2026-05-28T13:21:33Z</time>
      </trkpt>
      <trkpt lat="43.088" lon="1.87685">
        <ele>306.8</ele>
        <time>2026-05-28T13:21:38Z</time>
      </trkpt>
      <trkpt lat="43.08798" lon="1.87695">
        <ele>306.7</ele>
        <time>2026-05-28T13:21:43Z</time>
      </trkpt>
      <trkpt lat="43.08798" lon="1.87706">
        <ele>306.5</ele>
        <time>2026-05-28T13:21:48Z</time>
      </trkpt>
      <trkpt lat="43.08798" lon="1.87712">
        <ele>306.5</ele>
        <time>2026-05-28T13:21:53Z</time>
      </trkpt>
      <trkpt lat="43.08799" lon="1.87718">
        <ele>306.4</ele>
        <time>2026-05-28T13:21:58Z</time>
      </trkpt>
      <trkpt lat="43.088" lon="1.87724">
        <ele>306.3</ele>
        <time>2026-05-28T13:22:03Z</time>
      </trkpt>
      <trkpt lat="43.08799" lon="1.87733">
        <ele>306.2</ele>
        <time>2026-05-28T13:22:08Z</time>
      </trkpt>
      <trkpt lat="43.08801" lon="1.87745">
        <ele>306.1</ele>
        <time>2026-05-28T13:22:13Z</time>
      </trkpt>
      <trkpt lat="43.08801" lon="1.87755">
        <ele>305.9</ele>
        <time>2026-05-28T13:22:18Z</time>
      </trkpt>
      <trkpt lat="43.088" lon="1.87764">
        <ele>305.8</ele>
        <time>2026-05-28T13:22:23Z</time>
      </trkpt>
      <trkpt lat="43.08799" lon="1.87772">
        <ele>305.7</ele>
        <time>2026-05-28T13:22:28Z</time>
      </trkpt>
      <trkpt lat="43.08798" lon="1.87779">
        <ele>305.6</ele>
        <time>2026-05-28T13:22:33Z</time>
      </trkpt>
      <trkpt lat="43.08797" lon="1.87786">
        <ele>305.5</ele>
        <time>2026-05-28T13:22:38Z</time>
      </trkpt>
      <trkpt lat="43.08795" lon="1.8779">
        <ele>305.5</ele>
        <time>2026-05-28T13:22:43Z</time>
      </trkpt>
      <trkpt lat="43.08794" lon="1.87793">
        <ele>305.5</ele>
        <time>2026-05-28T13:22:48Z</time>
      </trkpt>
      <trkpt lat="43.08793" lon="1.87801">
        <ele>305.4</ele>
        <time>2026-05-28T13:22:53Z</time>
      </trkpt>
      <trkpt lat="43.08794" lon="1.87809">
        <ele>305.3</ele>
        <time>2026-05-28T13:22:58Z</time>
      </trkpt>
      <trkpt lat="43.08796" lon="1.87817">
        <ele>305.1</ele>
        <time>2026-05-28T13:23:03Z</time>
      </trkpt>
      <trkpt lat="43.08798" lon="1.87825">
        <ele>305</ele>
        <time>2026-05-28T13:23:08Z</time>
      </trkpt>
      <trkpt lat="43.088" lon="1.8783">
        <ele>304.8</ele>
        <time>2026-05-28T13:23:13Z</time>
      </trkpt>
      <trkpt lat="43.08802" lon="1.87836">
        <ele>304.8</ele>
        <time>2026-05-28T13:23:18Z</time>
      </trkpt>
      <trkpt lat="43.08804" lon="1.87844">
        <ele>304.9</ele>
        <time>2026-05-28T13:23:23Z</time>
      </trkpt>
      <trkpt lat="43.08804" lon="1.87844">
        <ele>304.9</ele>
        <time>2026-05-28T13:23:28Z</time>
      </trkpt>
      <trkpt lat="43.08804" lon="1.87844">
        <ele>304.9</ele>
        <time>2026-05-28T13:23:33Z</time>
      </trkpt>
      <trkpt lat="43.08804" lon="1.87844">
        <ele>304.9</ele>
        <time>2026-05-28T13:23:38Z</time>
      </trkpt>
      <trkpt lat="43.08803" lon="1.87853">
        <ele>305</ele>
        <time>2026-05-28T13:23:43Z</time>
      </trkpt>
      <trkpt lat="43.08803" lon="1.87861">
        <ele>305.2</ele>
        <time>2026-05-28T13:23:48Z</time>
      </trkpt>
      <trkpt lat="43.08801" lon="1.87869">
        <ele>305.4</ele>
        <time>2026-05-28T13:23:53Z</time>
      </trkpt>
      <trkpt lat="43.08801" lon="1.87877">
        <ele>305.5</ele>
        <time>2026-05-28T13:23:58Z</time>
      </trkpt>
      <trkpt lat="43.08801" lon="1.87886">
        <ele>305.7</ele>
        <time>2026-05-28T13:24:03Z</time>
      </trkpt>
      <trkpt lat="43.08801" lon="1.87894">
        <ele>305.8</ele>
        <time>2026-05-28T13:24:08Z</time>
      </trkpt>
      <trkpt lat="43.08802" lon="1.87904">
        <ele>305.9</ele>
        <time>2026-05-28T13:24:13Z</time>
      </trkpt>
      <trkpt lat="43.08801" lon="1.87912">
        <ele>306.1</ele>
        <time>2026-05-28T13:24:18Z</time>
      </trkpt>
      <trkpt lat="43.08799" lon="1.87919">
        <ele>306.2</ele>
        <time>2026-05-28T13:24:23Z</time>
      </trkpt>
      <trkpt lat="43.08796" lon="1.87928">
        <ele>306</ele>
        <time>2026-05-28T13:24:28Z</time>
      </trkpt>
      <trkpt lat="43.08793" lon="1.87938">
        <ele>305.8</ele>
        <time>2026-05-28T13:24:33Z</time>
      </trkpt>
      <trkpt lat="43.08792" lon="1.87949">
        <ele>305.5</ele>
        <time>2026-05-28T13:24:38Z</time>
      </trkpt>
      <trkpt lat="43.0879" lon="1.87957">
        <ele>305.3</ele>
        <time>2026-05-28T13:24:43Z</time>
      </trkpt>
      <trkpt lat="43.08788" lon="1.87965">
        <ele>305.1</ele>
        <time>2026-05-28T13:24:48Z</time>
      </trkpt>
      <trkpt lat="43.08788" lon="1.87973">
        <ele>304.9</ele>
        <time>2026-05-28T13:24:53Z</time>
      </trkpt>
      <trkpt lat="43.08787" lon="1.87981">
        <ele>304.6</ele>
        <time>2026-05-28T13:24:58Z</time>
      </trkpt>
      <trkpt lat="43.08785" lon="1.8799">
        <ele>304.3</ele>
        <time>2026-05-28T13:25:03Z</time>
      </trkpt>
      <trkpt lat="43.08783" lon="1.87999">
        <ele>304</ele>
        <time>2026-05-28T13:25:08Z</time>
      </trkpt>
      <trkpt lat="43.0878" lon="1.88008">
        <ele>304</ele>
        <time>2026-05-28T13:25:13Z</time>
      </trkpt>
      <trkpt lat="43.08778" lon="1.88013">
        <ele>303.9</ele>
        <time>2026-05-28T13:25:18Z</time>
      </trkpt>
      <trkpt lat="43.08777" lon="1.8802">
        <ele>303.9</ele>
        <time>2026-05-28T13:25:23Z</time>
      </trkpt>
      <trkpt lat="43.08774" lon="1.88026">
        <ele>303.9</ele>
        <time>2026-05-28T13:25:28Z</time>
      </trkpt>
      <trkpt lat="43.08774" lon="1.88037">
        <ele>303.9</ele>
        <time>2026-05-28T13:25:33Z</time>
      </trkpt>
      <trkpt lat="43.08774" lon="1.88045">
        <ele>303.8</ele>
        <time>2026-05-28T13:25:38Z</time>
      </trkpt>
      <trkpt lat="43.08773" lon="1.88053">
        <ele>303.8</ele>
        <time>2026-05-28T13:25:43Z</time>
      </trkpt>
      <trkpt lat="43.08771" lon="1.88062">
        <ele>303.8</ele>
        <time>2026-05-28T13:25:48Z</time>
      </trkpt>
      <trkpt lat="43.08769" lon="1.8807">
        <ele>303.8</ele>
        <time>2026-05-28T13:25:53Z</time>
      </trkpt>
      <trkpt lat="43.08767" lon="1.8808">
        <ele>303.8</ele>
        <time>2026-05-28T13:25:58Z</time>
      </trkpt>
      <trkpt lat="43.08766" lon="1.88089">
        <ele>303.9</ele>
        <time>2026-05-28T13:26:03Z</time>
      </trkpt>
      <trkpt lat="43.08764" lon="1.88097">
        <ele>304.2</ele>
        <time>2026-05-28T13:26:08Z</time>
      </trkpt>
      <trkpt lat="43.08762" lon="1.88105">
        <ele>304.4</ele>
        <time>2026-05-28T13:26:13Z</time>
      </trkpt>
      <trkpt lat="43.08761" lon="1.88112">
        <ele>304.6</ele>
        <time>2026-05-28T13:26:18Z</time>
      </trkpt>
      <trkpt lat="43.0876" lon="1.8812">
        <ele>304.8</ele>
        <time>2026-05-28T13:26:23Z</time>
      </trkpt>
      <trkpt lat="43.0876" lon="1.88129">
        <ele>305</ele>
        <time>2026-05-28T13:26:28Z</time>
      </trkpt>
      <trkpt lat="43.08757" lon="1.88139">
        <ele>305.3</ele>
        <time>2026-05-28T13:26:33Z</time>
      </trkpt>
      <trkpt lat="43.08755" lon="1.88148">
        <ele>305.5</ele>
        <time>2026-05-28T13:26:38Z</time>
      </trkpt>
      <trkpt lat="43.08754" lon="1.88158">
        <ele>305.7</ele>
        <time>2026-05-28T13:26:43Z</time>
      </trkpt>
      <trkpt lat="43.08754" lon="1.88167">
        <ele>306</ele>
        <time>2026-05-28T13:26:48Z</time>
      </trkpt>
      <trkpt lat="43.08752" lon="1.88176">
        <ele>306.2</ele>
        <time>2026-05-28T13:26:53Z</time>
      </trkpt>
      <trkpt lat="43.08751" lon="1.88185">
        <ele>306.4</ele>
        <time>2026-05-28T13:26:58Z</time>
      </trkpt>
      <trkpt lat="43.08752" lon="1.88191">
        <ele>306.5</ele>
        <time>2026-05-28T13:27:03Z</time>
      </trkpt>
      <trkpt lat="43.08756" lon="1.88197">
        <ele>306.6</ele>
        <time>2026-05-28T13:27:08Z</time>
      </trkpt>
      <trkpt lat="43.08759" lon="1.88201">
        <ele>306.6</ele>
        <time>2026-05-28T13:27:13Z</time>
      </trkpt>
      <trkpt lat="43.08759" lon="1.88207">
        <ele>306.7</ele>
        <time>2026-05-28T13:27:18Z</time>
      </trkpt>
      <trkpt lat="43.08758" lon="1.8821">
        <ele>306.8</ele>
        <time>2026-05-28T13:27:23Z</time>
      </trkpt>
      <trkpt lat="43.08755" lon="1.88213">
        <ele>307</ele>
        <time>2026-05-28T13:27:28Z</time>
      </trkpt>
      <trkpt lat="43.08752" lon="1.8822">
        <ele>307.2</ele>
        <time>2026-05-28T13:27:33Z</time>
      </trkpt>
      <trkpt lat="43.08748" lon="1.88226">
        <ele>307.4</ele>
        <time>2026-05-28T13:27:38Z</time>
      </trkpt>
      <trkpt lat="43.08743" lon="1.88229">
        <ele>307.5</ele>
        <time>2026-05-28T13:27:43Z</time>
      </trkpt>
      <trkpt lat="43.0874" lon="1.88234">
        <ele>307.6</ele>
        <time>2026-05-28T13:27:48Z</time>
      </trkpt>
      <trkpt lat="43.08733" lon="1.88236">
        <ele>307.7</ele>
        <time>2026-05-28T13:27:53Z</time>
      </trkpt>
      <trkpt lat="43.0873" lon="1.88242">
        <ele>307.8</ele>
        <time>2026-05-28T13:27:58Z</time>
      </trkpt>
      <trkpt lat="43.0873" lon="1.88251">
        <ele>308</ele>
        <time>2026-05-28T13:28:03Z</time>
      </trkpt>
      <trkpt lat="43.08726" lon="1.88259">
        <ele>308</ele>
        <time>2026-05-28T13:28:08Z</time>
      </trkpt>
      <trkpt lat="43.08723" lon="1.88269">
        <ele>308.1</ele>
        <time>2026-05-28T13:28:13Z</time>
      </trkpt>
      <trkpt lat="43.0872" lon="1.88277">
        <ele>308.1</ele>
        <time>2026-05-28T13:28:18Z</time>
      </trkpt>
      <trkpt lat="43.08718" lon="1.88286">
        <ele>308.2</ele>
        <time>2026-05-28T13:28:23Z</time>
      </trkpt>
      <trkpt lat="43.08717" lon="1.88294">
        <ele>308.2</ele>
        <time>2026-05-28T13:28:28Z</time>
      </trkpt>
      <trkpt lat="43.08716" lon="1.88303">
        <ele>308.3</ele>
        <time>2026-05-28T13:28:33Z</time>
      </trkpt>
      <trkpt lat="43.08716" lon="1.88311">
        <ele>308.3</ele>
        <time>2026-05-28T13:28:38Z</time>
      </trkpt>
      <trkpt lat="43.08714" lon="1.88319">
        <ele>308.4</ele>
        <time>2026-05-28T13:28:43Z</time>
      </trkpt>
      <trkpt lat="43.08713" lon="1.88328">
        <ele>308.4</ele>
        <time>2026-05-28T13:28:48Z</time>
      </trkpt>
      <trkpt lat="43.08711" lon="1.88336">
        <ele>308.4</ele>
        <time>2026-05-28T13:28:53Z</time>
      </trkpt>
      <trkpt lat="43.08708" lon="1.88345">
        <ele>308.4</ele>
        <time>2026-05-28T13:28:58Z</time>
      </trkpt>
      <trkpt lat="43.08708" lon="1.88353">
        <ele>308.3</ele>
        <time>2026-05-28T13:29:03Z</time>
      </trkpt>
      <trkpt lat="43.08707" lon="1.88362">
        <ele>308.2</ele>
        <time>2026-05-28T13:29:08Z</time>
      </trkpt>
      <trkpt lat="43.08705" lon="1.8837">
        <ele>308.1</ele>
        <time>2026-05-28T13:29:13Z</time>
      </trkpt>
      <trkpt lat="43.08703" lon="1.88379">
        <ele>308.1</ele>
        <time>2026-05-28T13:29:18Z</time>
      </trkpt>
      <trkpt lat="43.08702" lon="1.88386">
        <ele>308</ele>
        <time>2026-05-28T13:29:23Z</time>
      </trkpt>
      <trkpt lat="43.087" lon="1.88395">
        <ele>308</ele>
        <time>2026-05-28T13:29:28Z</time>
      </trkpt>
      <trkpt lat="43.08699" lon="1.88404">
        <ele>308</ele>
        <time>2026-05-28T13:29:33Z</time>
      </trkpt>
      <trkpt lat="43.08698" lon="1.88413">
        <ele>307.9</ele>
        <time>2026-05-28T13:29:38Z</time>
      </trkpt>
      <trkpt lat="43.08696" lon="1.88422">
        <ele>307.9</ele>
        <time>2026-05-28T13:29:43Z</time>
      </trkpt>
      <trkpt lat="43.08694" lon="1.88431">
        <ele>307.9</ele>
        <time>2026-05-28T13:29:48Z</time>
      </trkpt>
      <trkpt lat="43.08692" lon="1.8844">
        <ele>307.9</ele>
        <time>2026-05-28T13:29:53Z</time>
      </trkpt>
      <trkpt lat="43.0869" lon="1.88449">
        <ele>307.8</ele>
        <time>2026-05-28T13:29:58Z</time>
      </trkpt>
      <trkpt lat="43.08688" lon="1.88458">
        <ele>307.7</ele>
        <time>2026-05-28T13:30:03Z</time>
      </trkpt>
      <trkpt lat="43.08687" lon="1.88466">
        <ele>307.7</ele>
        <time>2026-05-28T13:30:08Z</time>
      </trkpt>
      <trkpt lat="43.08685" lon="1.88474">
        <ele>307.6</ele>
        <time>2026-05-28T13:30:13Z</time>
      </trkpt>
      <trkpt lat="43.08684" lon="1.88482">
        <ele>307.5</ele>
        <time>2026-05-28T13:30:18Z</time>
      </trkpt>
      <trkpt lat="43.08685" lon="1.88491">
        <ele>307.3</ele>
        <time>2026-05-28T13:30:23Z</time>
      </trkpt>
      <trkpt lat="43.08683" lon="1.88498">
        <ele>307.2</ele>
        <time>2026-05-28T13:30:28Z</time>
      </trkpt>
      <trkpt lat="43.08682" lon="1.88505">
        <ele>307.1</ele>
        <time>2026-05-28T13:30:33Z</time>
      </trkpt>
      <trkpt lat="43.0868" lon="1.88512">
        <ele>307</ele>
        <time>2026-05-28T13:30:38Z</time>
      </trkpt>
      <trkpt lat="43.08679" lon="1.88521">
        <ele>306.9</ele>
        <time>2026-05-28T13:30:43Z</time>
      </trkpt>
      <trkpt lat="43.08676" lon="1.88529">
        <ele>306.8</ele>
        <time>2026-05-28T13:30:48Z</time>
      </trkpt>
      <trkpt lat="43.08675" lon="1.88537">
        <ele>306.7</ele>
        <time>2026-05-28T13:30:53Z</time>
      </trkpt>
      <trkpt lat="43.08673" lon="1.88547">
        <ele>306.6</ele>
        <time>2026-05-28T13:30:58Z</time>
      </trkpt>
      <trkpt lat="43.08671" lon="1.88558">
        <ele>306.4</ele>
        <time>2026-05-28T13:31:03Z</time>
      </trkpt>
      <trkpt lat="43.08668" lon="1.88567">
        <ele>306.2</ele>
        <time>2026-05-28T13:31:08Z</time>
      </trkpt>
      <trkpt lat="43.08666" lon="1.88576">
        <ele>306.1</ele>
        <time>2026-05-28T13:31:13Z</time>
      </trkpt>
      <trkpt lat="43.08665" lon="1.88585">
        <ele>306.1</ele>
        <time>2026-05-28T13:31:18Z</time>
      </trkpt>
      <trkpt lat="43.08664" lon="1.88595">
        <ele>306.3</ele>
        <time>2026-05-28T13:31:23Z</time>
      </trkpt>
      <trkpt lat="43.08662" lon="1.88603">
        <ele>306.4</ele>
        <time>2026-05-28T13:31:28Z</time>
      </trkpt>
      <trkpt lat="43.08661" lon="1.88612">
        <ele>306.5</ele>
        <time>2026-05-28T13:31:33Z</time>
      </trkpt>
      <trkpt lat="43.08659" lon="1.8862">
        <ele>306.7</ele>
        <time>2026-05-28T13:31:38Z</time>
      </trkpt>
      <trkpt lat="43.08659" lon="1.88627">
        <ele>306.7</ele>
        <time>2026-05-28T13:31:43Z</time>
      </trkpt>
      <trkpt lat="43.08656" lon="1.88634">
        <ele>306.9</ele>
        <time>2026-05-28T13:31:48Z</time>
      </trkpt>
      <trkpt lat="43.08654" lon="1.88644">
        <ele>307</ele>
        <time>2026-05-28T13:31:53Z</time>
      </trkpt>
      <trkpt lat="43.08652" lon="1.88654">
        <ele>307.1</ele>
        <time>2026-05-28T13:31:58Z</time>
      </trkpt>
      <trkpt lat="43.08651" lon="1.88663">
        <ele>307.2</ele>
        <time>2026-05-28T13:32:03Z</time>
      </trkpt>
      <trkpt lat="43.0865" lon="1.88672">
        <ele>307.2</ele>
        <time>2026-05-28T13:32:08Z</time>
      </trkpt>
      <trkpt lat="43.08648" lon="1.8868">
        <ele>307.3</ele>
        <time>2026-05-28T13:32:13Z</time>
      </trkpt>
      <trkpt lat="43.08647" lon="1.88688">
        <ele>307.3</ele>
        <time>2026-05-28T13:32:18Z</time>
      </trkpt>
      <trkpt lat="43.08645" lon="1.88695">
        <ele>307.3</ele>
        <time>2026-05-28T13:32:23Z</time>
      </trkpt>
      <trkpt lat="43.08644" lon="1.88702">
        <ele>307.4</ele>
        <time>2026-05-28T13:32:28Z</time>
      </trkpt>
      <trkpt lat="43.08647" lon="1.88715">
        <ele>307.4</ele>
        <time>2026-05-28T13:32:33Z</time>
      </trkpt>
      <trkpt lat="43.08651" lon="1.88723">
        <ele>307.3</ele>
        <time>2026-05-28T13:32:38Z</time>
      </trkpt>
      <trkpt lat="43.08656" lon="1.8873">
        <ele>307.2</ele>
        <time>2026-05-28T13:32:43Z</time>
      </trkpt>
      <trkpt lat="43.08661" lon="1.88733">
        <ele>307.1</ele>
        <time>2026-05-28T13:32:48Z</time>
      </trkpt>
      <trkpt lat="43.08667" lon="1.88732">
        <ele>307</ele>
        <time>2026-05-28T13:32:53Z</time>
      </trkpt>
      <trkpt lat="43.08673" lon="1.88731">
        <ele>307</ele>
        <time>2026-05-28T13:32:58Z</time>
      </trkpt>
      <trkpt lat="43.0868" lon="1.88731">
        <ele>307.1</ele>
        <time>2026-05-28T13:33:03Z</time>
      </trkpt>
      <trkpt lat="43.08686" lon="1.88732">
        <ele>307.1</ele>
        <time>2026-05-28T13:33:08Z</time>
      </trkpt>
      <trkpt lat="43.08694" lon="1.88731">
        <ele>307.2</ele>
        <time>2026-05-28T13:33:13Z</time>
      </trkpt>
      <trkpt lat="43.087" lon="1.88729">
        <ele>307.2</ele>
        <time>2026-05-28T13:33:18Z</time>
      </trkpt>
      <trkpt lat="43.08706" lon="1.88728">
        <ele>307.2</ele>
        <time>2026-05-28T13:33:23Z</time>
      </trkpt>
      <trkpt lat="43.08712" lon="1.88727">
        <ele>307.2</ele>
        <time>2026-05-28T13:33:28Z</time>
      </trkpt>
      <trkpt lat="43.0872" lon="1.88726">
        <ele>307.3</ele>
        <time>2026-05-28T13:33:33Z</time>
      </trkpt>
      <trkpt lat="43.08726" lon="1.88726">
        <ele>307.3</ele>
        <time>2026-05-28T13:33:38Z</time>
      </trkpt>
      <trkpt lat="43.08733" lon="1.88726">
        <ele>307.3</ele>
        <time>2026-05-28T13:33:43Z</time>
      </trkpt>
      <trkpt lat="43.0874" lon="1.88727">
        <ele>307.4</ele>
        <time>2026-05-28T13:33:48Z</time>
      </trkpt>
      <trkpt lat="43.08746" lon="1.88725">
        <ele>307.4</ele>
        <time>2026-05-28T13:33:53Z</time>
      </trkpt>
      <trkpt lat="43.08752" lon="1.88724">
        <ele>307.3</ele>
        <time>2026-05-28T13:33:58Z</time>
      </trkpt>
      <trkpt lat="43.08761" lon="1.88725">
        <ele>307.2</ele>
        <time>2026-05-28T13:34:03Z</time>
      </trkpt>
      <trkpt lat="43.08769" lon="1.88724">
        <ele>307.1</ele>
        <time>2026-05-28T13:34:08Z</time>
      </trkpt>
      <trkpt lat="43.08776" lon="1.88722">
        <ele>306.9</ele>
        <time>2026-05-28T13:34:13Z</time>
      </trkpt>
      <trkpt lat="43.08783" lon="1.88722">
        <ele>306.8</ele>
        <time>2026-05-28T13:34:18Z</time>
      </trkpt>
      <trkpt lat="43.08789" lon="1.88721">
        <ele>306.7</ele>
        <time>2026-05-28T13:34:23Z</time>
      </trkpt>
      <trkpt lat="43.08795" lon="1.8872">
        <ele>306.6</ele>
        <time>2026-05-28T13:34:28Z</time>
      </trkpt>
      <trkpt lat="43.08801" lon="1.8872">
        <ele>306.5</ele>
        <time>2026-05-28T13:34:33Z</time>
      </trkpt>
      <trkpt lat="43.08808" lon="1.8872">
        <ele>306.4</ele>
        <time>2026-05-28T13:34:38Z</time>
      </trkpt>
      <trkpt lat="43.08816" lon="1.88719">
        <ele>306.3</ele>
        <time>2026-05-28T13:34:43Z</time>
      </trkpt>
      <trkpt lat="43.08823" lon="1.88721">
        <ele>306.2</ele>
        <time>2026-05-28T13:34:48Z</time>
      </trkpt>
      <trkpt lat="43.08829" lon="1.88721">
        <ele>306.1</ele>
        <time>2026-05-28T13:34:53Z</time>
      </trkpt>
      <trkpt lat="43.08834" lon="1.88718">
        <ele>306</ele>
        <time>2026-05-28T13:34:58Z</time>
      </trkpt>
      <trkpt lat="43.08842" lon="1.88718">
        <ele>305.9</ele>
        <time>2026-05-28T13:35:03Z</time>
      </trkpt>
      <trkpt lat="43.08849" lon="1.88719">
        <ele>305.8</ele>
        <time>2026-05-28T13:35:08Z</time>
      </trkpt>
      <trkpt lat="43.08855" lon="1.88719">
        <ele>305.8</ele>
        <time>2026-05-28T13:35:13Z</time>
      </trkpt>
      <trkpt lat="43.08862" lon="1.88719">
        <ele>305.7</ele>
        <time>2026-05-28T13:35:18Z</time>
      </trkpt>
      <trkpt lat="43.08868" lon="1.88718">
        <ele>305.6</ele>
        <time>2026-05-28T13:35:23Z</time>
      </trkpt>
      <trkpt lat="43.08874" lon="1.88713">
        <ele>305.7</ele>
        <time>2026-05-28T13:35:28Z</time>
      </trkpt>
      <trkpt lat="43.08879" lon="1.88708">
        <ele>305.7</ele>
        <time>2026-05-28T13:35:33Z</time>
      </trkpt>
      <trkpt lat="43.08883" lon="1.88702">
        <ele>305.8</ele>
        <time>2026-05-28T13:35:38Z</time>
      </trkpt>
      <trkpt lat="43.08883" lon="1.88691">
        <ele>306.1</ele>
        <time>2026-05-28T13:35:43Z</time>
      </trkpt>
      <trkpt lat="43.08882" lon="1.88684">
        <ele>306.2</ele>
        <time>2026-05-28T13:35:48Z</time>
      </trkpt>
      <trkpt lat="43.08883" lon="1.88679">
        <ele>306.3</ele>
        <time>2026-05-28T13:35:53Z</time>
      </trkpt>
      <trkpt lat="43.08882" lon="1.88675">
        <ele>306.4</ele>
        <time>2026-05-28T13:35:58Z</time>
      </trkpt>
      <trkpt lat="43.08882" lon="1.88673">
        <ele>306.5</ele>
        <time>2026-05-28T13:36:03Z</time>
      </trkpt>
      <trkpt lat="43.08883" lon="1.88667">
        <ele>306.6</ele>
        <time>2026-05-28T13:36:08Z</time>
      </trkpt>
      <trkpt lat="43.08882" lon="1.88667">
        <ele>306.6</ele>
        <time>2026-05-28T13:36:13Z</time>
        <extensions>
          <visugpx:TrkExtension xmlns:visugpx="https://www.visugpx.com/editgpx/">
            <visugpx:node>1</visugpx:node>
            </visugpx:TrkExtension>
        </extensions>
      </trkpt>
    </trkseg>
  </trk>
</gpx>